<?xml version="1.0" encoding="UTF-8"?>
<gpx version="1.1" creator="https://www.youtrack.es" xsi:schemaLocation="http://www.topografix.com/GPX/1/1 http://www.topografix.com/GPX/1/1/gpx.xsd http://www.garmin.com/xmlschemas/GpxExtensions/v3 http://www.garmin.com/xmlschemas/GpxExtensionsv3.xsd http://www.garmin.com/xmlschemas/TrackPointExtension/v1 http://www.garmin.com/xmlschemas/TrackPointExtensionv1.xsd" xmlns:gpxtpx="http://www.garmin.com/xmlschemas/TrackPointExtension/v1" xmlns:gpxx="http://www.garmin.com/xmlschemas/GpxExtensions/v3" xmlns:xsi="http://www.w3.org/2001/XMLSchema-instance">
  <metadata>
    <link href="https://www.youtrack.es">
      <text>YouTrack.es</text>
    </link>
    <time>2026-05-10T15:38:27Z</time>
  </metadata>
  <trk>
    <src>https://www.youtrack.es</src>
    <link href="https://www.youtrack.es/ruta/8087-puerto-de-ventana">
      <text>YouTrack.es</text>
    </link>
    <trkseg>
      <trkpt lat="43.2916070" lon="-5.9821930">
        <ele>181.9</ele>
        <time>2019-09-04T08:22:19Z</time>
      </trkpt>
      <trkpt lat="43.2915300" lon="-5.9822670">
        <ele>181.9</ele>
        <time>2019-09-04T08:22:20Z</time>
      </trkpt>
      <trkpt lat="43.2915250" lon="-5.9822700">
        <ele>181.9</ele>
        <time>2019-09-04T08:22:21Z</time>
      </trkpt>
      <trkpt lat="43.2915150" lon="-5.9822750">
        <ele>181.9</ele>
        <time>2019-09-04T08:22:22Z</time>
      </trkpt>
      <trkpt lat="43.2914940" lon="-5.9822820">
        <ele>181.9</ele>
        <time>2019-09-04T08:22:23Z</time>
      </trkpt>
      <trkpt lat="43.2914640" lon="-5.9822850">
        <ele>181.9</ele>
        <time>2019-09-04T08:22:24Z</time>
      </trkpt>
      <trkpt lat="43.2914330" lon="-5.9822900">
        <ele>181.9</ele>
        <time>2019-09-04T08:22:25Z</time>
      </trkpt>
      <trkpt lat="43.2913660" lon="-5.9823000">
        <ele>181.9</ele>
        <time>2019-09-04T08:22:27Z</time>
      </trkpt>
      <trkpt lat="43.2912900" lon="-5.9823120">
        <ele>181.9</ele>
        <time>2019-09-04T08:22:29Z</time>
      </trkpt>
      <trkpt lat="43.2911970" lon="-5.9823240">
        <ele>181.9</ele>
        <time>2019-09-04T08:22:31Z</time>
      </trkpt>
      <trkpt lat="43.2911050" lon="-5.9823370">
        <ele>181.9</ele>
        <time>2019-09-04T08:22:33Z</time>
      </trkpt>
      <trkpt lat="43.2910130" lon="-5.9823520">
        <ele>181.9</ele>
        <time>2019-09-04T08:22:35Z</time>
      </trkpt>
      <trkpt lat="43.2909110" lon="-5.9823670">
        <ele>181.9</ele>
        <time>2019-09-04T08:22:37Z</time>
      </trkpt>
      <trkpt lat="43.2908650" lon="-5.9823720">
        <ele>181.9</ele>
        <time>2019-09-04T08:22:38Z</time>
      </trkpt>
      <trkpt lat="43.2907620" lon="-5.9823880">
        <ele>181.9</ele>
        <time>2019-09-04T08:22:40Z</time>
      </trkpt>
      <trkpt lat="43.2907110" lon="-5.9823960">
        <ele>181.9</ele>
        <time>2019-09-04T08:22:41Z</time>
      </trkpt>
      <trkpt lat="43.2906140" lon="-5.9824150">
        <ele>181.9</ele>
        <time>2019-09-04T08:22:43Z</time>
      </trkpt>
      <trkpt lat="43.2905570" lon="-5.9824270">
        <ele>181.9</ele>
        <time>2019-09-04T08:22:44Z</time>
      </trkpt>
      <trkpt lat="43.2905060" lon="-5.9824400">
        <ele>181.9</ele>
        <time>2019-09-04T08:22:45Z</time>
      </trkpt>
      <trkpt lat="43.2904040" lon="-5.9824700">
        <ele>181.9</ele>
        <time>2019-09-04T08:22:47Z</time>
      </trkpt>
      <trkpt lat="43.2903530" lon="-5.9824860">
        <ele>181.9</ele>
        <time>2019-09-04T08:22:48Z</time>
      </trkpt>
      <trkpt lat="43.2902960" lon="-5.9825040">
        <ele>181.9</ele>
        <time>2019-09-04T08:22:49Z</time>
      </trkpt>
      <trkpt lat="43.2902450" lon="-5.9825200">
        <ele>181.9</ele>
        <time>2019-09-04T08:22:50Z</time>
      </trkpt>
      <trkpt lat="43.2901990" lon="-5.9825360">
        <ele>181.9</ele>
        <time>2019-09-04T08:22:51Z</time>
      </trkpt>
      <trkpt lat="43.2900970" lon="-5.9825720">
        <ele>181.9</ele>
        <time>2019-09-04T08:22:53Z</time>
      </trkpt>
      <trkpt lat="43.2900510" lon="-5.9825900">
        <ele>181.9</ele>
        <time>2019-09-04T08:22:54Z</time>
      </trkpt>
      <trkpt lat="43.2899990" lon="-5.9826080">
        <ele>181.9</ele>
        <time>2019-09-04T08:22:55Z</time>
      </trkpt>
      <trkpt lat="43.2899170" lon="-5.9826430">
        <ele>181.9</ele>
        <time>2019-09-04T08:22:57Z</time>
      </trkpt>
      <trkpt lat="43.2898610" lon="-5.9826710">
        <ele>181.9</ele>
        <time>2019-09-04T08:22:59Z</time>
      </trkpt>
      <trkpt lat="43.2897740" lon="-5.9827150">
        <ele>181.9</ele>
        <time>2019-09-04T08:23:10Z</time>
      </trkpt>
      <trkpt lat="43.2897080" lon="-5.9827440">
        <ele>181.9</ele>
        <time>2019-09-04T08:23:13Z</time>
      </trkpt>
      <trkpt lat="43.2896360" lon="-5.9827740">
        <ele>181.9</ele>
        <time>2019-09-04T08:23:15Z</time>
      </trkpt>
      <trkpt lat="43.2895490" lon="-5.9828080">
        <ele>181.9</ele>
        <time>2019-09-04T08:23:17Z</time>
      </trkpt>
      <trkpt lat="43.2894460" lon="-5.9828440">
        <ele>181.9</ele>
        <time>2019-09-04T08:23:19Z</time>
      </trkpt>
      <trkpt lat="43.2893950" lon="-5.9828650">
        <ele>181.9</ele>
        <time>2019-09-04T08:23:20Z</time>
      </trkpt>
      <trkpt lat="43.2892830" lon="-5.9829060">
        <ele>181.9</ele>
        <time>2019-09-04T08:23:22Z</time>
      </trkpt>
      <trkpt lat="43.2892210" lon="-5.9829280">
        <ele>181.9</ele>
        <time>2019-09-04T08:23:23Z</time>
      </trkpt>
      <trkpt lat="43.2890980" lon="-5.9829720">
        <ele>183.3</ele>
        <time>2019-09-04T08:23:25Z</time>
      </trkpt>
      <trkpt lat="43.2890420" lon="-5.9829930">
        <ele>183.3</ele>
        <time>2019-09-04T08:23:26Z</time>
      </trkpt>
      <trkpt lat="43.2889800" lon="-5.9830140">
        <ele>183.3</ele>
        <time>2019-09-04T08:23:27Z</time>
      </trkpt>
      <trkpt lat="43.2888630" lon="-5.9830590">
        <ele>183.3</ele>
        <time>2019-09-04T08:23:29Z</time>
      </trkpt>
      <trkpt lat="43.2888010" lon="-5.9830830">
        <ele>184.4</ele>
        <time>2019-09-04T08:23:30Z</time>
      </trkpt>
      <trkpt lat="43.2886840" lon="-5.9831260">
        <ele>184.4</ele>
        <time>2019-09-04T08:23:32Z</time>
      </trkpt>
      <trkpt lat="43.2886220" lon="-5.9831480">
        <ele>184.4</ele>
        <time>2019-09-04T08:23:33Z</time>
      </trkpt>
      <trkpt lat="43.2885610" lon="-5.9831710">
        <ele>184.4</ele>
        <time>2019-09-04T08:23:34Z</time>
      </trkpt>
      <trkpt lat="43.2885040" lon="-5.9831940">
        <ele>184.4</ele>
        <time>2019-09-04T08:23:35Z</time>
      </trkpt>
      <trkpt lat="43.2884430" lon="-5.9832190">
        <ele>184.4</ele>
        <time>2019-09-04T08:23:36Z</time>
      </trkpt>
      <trkpt lat="43.2883870" lon="-5.9832440">
        <ele>184.4</ele>
        <time>2019-09-04T08:23:37Z</time>
      </trkpt>
      <trkpt lat="43.2883250" lon="-5.9832690">
        <ele>184.4</ele>
        <time>2019-09-04T08:23:38Z</time>
      </trkpt>
      <trkpt lat="43.2882690" lon="-5.9832950">
        <ele>184.4</ele>
        <time>2019-09-04T08:23:39Z</time>
      </trkpt>
      <trkpt lat="43.2882070" lon="-5.9833220">
        <ele>185.6</ele>
        <time>2019-09-04T08:23:40Z</time>
      </trkpt>
      <trkpt lat="43.2881510" lon="-5.9833490">
        <ele>185.6</ele>
        <time>2019-09-04T08:23:41Z</time>
      </trkpt>
      <trkpt lat="43.2880900" lon="-5.9833770">
        <ele>185.6</ele>
        <time>2019-09-04T08:23:42Z</time>
      </trkpt>
      <trkpt lat="43.2880280" lon="-5.9834070">
        <ele>185.6</ele>
        <time>2019-09-04T08:23:43Z</time>
      </trkpt>
      <trkpt lat="43.2879720" lon="-5.9834350">
        <ele>185.6</ele>
        <time>2019-09-04T08:23:44Z</time>
      </trkpt>
      <trkpt lat="43.2879160" lon="-5.9834630">
        <ele>185.6</ele>
        <time>2019-09-04T08:23:45Z</time>
      </trkpt>
      <trkpt lat="43.2878590" lon="-5.9834910">
        <ele>185.6</ele>
        <time>2019-09-04T08:23:46Z</time>
      </trkpt>
      <trkpt lat="43.2877980" lon="-5.9835170">
        <ele>185.6</ele>
        <time>2019-09-04T08:23:47Z</time>
      </trkpt>
      <trkpt lat="43.2877360" lon="-5.9835450">
        <ele>185.6</ele>
        <time>2019-09-04T08:23:48Z</time>
      </trkpt>
      <trkpt lat="43.2876800" lon="-5.9835720">
        <ele>185.6</ele>
        <time>2019-09-04T08:23:49Z</time>
      </trkpt>
      <trkpt lat="43.2876240" lon="-5.9835980">
        <ele>185.6</ele>
        <time>2019-09-04T08:23:50Z</time>
      </trkpt>
      <trkpt lat="43.2875620" lon="-5.9836240">
        <ele>185.6</ele>
        <time>2019-09-04T08:23:51Z</time>
      </trkpt>
      <trkpt lat="43.2875060" lon="-5.9836450">
        <ele>185.6</ele>
        <time>2019-09-04T08:23:52Z</time>
      </trkpt>
      <trkpt lat="43.2874500" lon="-5.9836630">
        <ele>185.6</ele>
        <time>2019-09-04T08:23:53Z</time>
      </trkpt>
      <trkpt lat="43.2873930" lon="-5.9836760">
        <ele>185.6</ele>
        <time>2019-09-04T08:23:54Z</time>
      </trkpt>
      <trkpt lat="43.2873370" lon="-5.9836860">
        <ele>185.6</ele>
        <time>2019-09-04T08:23:55Z</time>
      </trkpt>
      <trkpt lat="43.2872140" lon="-5.9836990">
        <ele>184.4</ele>
        <time>2019-09-04T08:23:57Z</time>
      </trkpt>
      <trkpt lat="43.2871530" lon="-5.9837040">
        <ele>184.4</ele>
        <time>2019-09-04T08:23:58Z</time>
      </trkpt>
      <trkpt lat="43.2870960" lon="-5.9837110">
        <ele>184.4</ele>
        <time>2019-09-04T08:23:59Z</time>
      </trkpt>
      <trkpt lat="43.2870300" lon="-5.9837170">
        <ele>184.4</ele>
        <time>2019-09-04T08:24:00Z</time>
      </trkpt>
      <trkpt lat="43.2869730" lon="-5.9837220">
        <ele>184.4</ele>
        <time>2019-09-04T08:24:01Z</time>
      </trkpt>
      <trkpt lat="43.2869070" lon="-5.9837270">
        <ele>184.4</ele>
        <time>2019-09-04T08:24:02Z</time>
      </trkpt>
      <trkpt lat="43.2868400" lon="-5.9837300">
        <ele>182.8</ele>
        <time>2019-09-04T08:24:03Z</time>
      </trkpt>
      <trkpt lat="43.2867790" lon="-5.9837310">
        <ele>182.8</ele>
        <time>2019-09-04T08:24:04Z</time>
      </trkpt>
      <trkpt lat="43.2867170" lon="-5.9837320">
        <ele>182.8</ele>
        <time>2019-09-04T08:24:05Z</time>
      </trkpt>
      <trkpt lat="43.2866510" lon="-5.9837320">
        <ele>181.6</ele>
        <time>2019-09-04T08:24:06Z</time>
      </trkpt>
      <trkpt lat="43.2865840" lon="-5.9837360">
        <ele>181.6</ele>
        <time>2019-09-04T08:24:07Z</time>
      </trkpt>
      <trkpt lat="43.2865230" lon="-5.9837430">
        <ele>181.6</ele>
        <time>2019-09-04T08:24:08Z</time>
      </trkpt>
      <trkpt lat="43.2864560" lon="-5.9837530">
        <ele>181.6</ele>
        <time>2019-09-04T08:24:09Z</time>
      </trkpt>
      <trkpt lat="43.2863900" lon="-5.9837680">
        <ele>181.6</ele>
        <time>2019-09-04T08:24:10Z</time>
      </trkpt>
      <trkpt lat="43.2863230" lon="-5.9837850">
        <ele>181.6</ele>
        <time>2019-09-04T08:24:11Z</time>
      </trkpt>
      <trkpt lat="43.2862620" lon="-5.9838070">
        <ele>181.6</ele>
        <time>2019-09-04T08:24:12Z</time>
      </trkpt>
      <trkpt lat="43.2861950" lon="-5.9838320">
        <ele>181.6</ele>
        <time>2019-09-04T08:24:13Z</time>
      </trkpt>
      <trkpt lat="43.2861390" lon="-5.9838630">
        <ele>180.4</ele>
        <time>2019-09-04T08:24:14Z</time>
      </trkpt>
      <trkpt lat="43.2860770" lon="-5.9838960">
        <ele>180.4</ele>
        <time>2019-09-04T08:24:15Z</time>
      </trkpt>
      <trkpt lat="43.2860110" lon="-5.9839310">
        <ele>180.4</ele>
        <time>2019-09-04T08:24:16Z</time>
      </trkpt>
      <trkpt lat="43.2859550" lon="-5.9839680">
        <ele>182.3</ele>
        <time>2019-09-04T08:24:17Z</time>
      </trkpt>
      <trkpt lat="43.2858930" lon="-5.9840080">
        <ele>182.3</ele>
        <time>2019-09-04T08:24:18Z</time>
      </trkpt>
      <trkpt lat="43.2858320" lon="-5.9840510">
        <ele>183.6</ele>
        <time>2019-09-04T08:24:19Z</time>
      </trkpt>
      <trkpt lat="43.2857750" lon="-5.9840960">
        <ele>183.6</ele>
        <time>2019-09-04T08:24:20Z</time>
      </trkpt>
      <trkpt lat="43.2857190" lon="-5.9841440">
        <ele>183.6</ele>
        <time>2019-09-04T08:24:21Z</time>
      </trkpt>
      <trkpt lat="43.2856630" lon="-5.9841900">
        <ele>184.8</ele>
        <time>2019-09-04T08:24:22Z</time>
      </trkpt>
      <trkpt lat="43.2856010" lon="-5.9842430">
        <ele>184.8</ele>
        <time>2019-09-04T08:24:23Z</time>
      </trkpt>
      <trkpt lat="43.2855400" lon="-5.9842980">
        <ele>184.8</ele>
        <time>2019-09-04T08:24:24Z</time>
      </trkpt>
      <trkpt lat="43.2854840" lon="-5.9843550">
        <ele>184.8</ele>
        <time>2019-09-04T08:24:25Z</time>
      </trkpt>
      <trkpt lat="43.2853760" lon="-5.9844710">
        <ele>184.8</ele>
        <time>2019-09-04T08:24:27Z</time>
      </trkpt>
      <trkpt lat="43.2852680" lon="-5.9845860">
        <ele>186.0</ele>
        <time>2019-09-04T08:24:29Z</time>
      </trkpt>
      <trkpt lat="43.2851660" lon="-5.9847070">
        <ele>186.0</ele>
        <time>2019-09-04T08:24:31Z</time>
      </trkpt>
      <trkpt lat="43.2850640" lon="-5.9848320">
        <ele>186.0</ele>
        <time>2019-09-04T08:24:33Z</time>
      </trkpt>
      <trkpt lat="43.2850120" lon="-5.9848950">
        <ele>186.0</ele>
        <time>2019-09-04T08:24:34Z</time>
      </trkpt>
      <trkpt lat="43.2849610" lon="-5.9849590">
        <ele>186.0</ele>
        <time>2019-09-04T08:24:35Z</time>
      </trkpt>
      <trkpt lat="43.2849150" lon="-5.9850230">
        <ele>186.0</ele>
        <time>2019-09-04T08:24:36Z</time>
      </trkpt>
      <trkpt lat="43.2848640" lon="-5.9850890">
        <ele>186.0</ele>
        <time>2019-09-04T08:24:37Z</time>
      </trkpt>
      <trkpt lat="43.2847670" lon="-5.9852260">
        <ele>186.0</ele>
        <time>2019-09-04T08:24:39Z</time>
      </trkpt>
      <trkpt lat="43.2847160" lon="-5.9852960">
        <ele>186.0</ele>
        <time>2019-09-04T08:24:40Z</time>
      </trkpt>
      <trkpt lat="43.2846690" lon="-5.9853650">
        <ele>186.0</ele>
        <time>2019-09-04T08:24:41Z</time>
      </trkpt>
      <trkpt lat="43.2846230" lon="-5.9854350">
        <ele>186.0</ele>
        <time>2019-09-04T08:24:42Z</time>
      </trkpt>
      <trkpt lat="43.2845820" lon="-5.9855010">
        <ele>186.0</ele>
        <time>2019-09-04T08:24:43Z</time>
      </trkpt>
      <trkpt lat="43.2845360" lon="-5.9855730">
        <ele>186.0</ele>
        <time>2019-09-04T08:24:44Z</time>
      </trkpt>
      <trkpt lat="43.2844900" lon="-5.9856470">
        <ele>186.0</ele>
        <time>2019-09-04T08:24:45Z</time>
      </trkpt>
      <trkpt lat="43.2844490" lon="-5.9857200">
        <ele>186.0</ele>
        <time>2019-09-04T08:24:46Z</time>
      </trkpt>
      <trkpt lat="43.2843670" lon="-5.9858640">
        <ele>186.0</ele>
        <time>2019-09-04T08:24:48Z</time>
      </trkpt>
      <trkpt lat="43.2843260" lon="-5.9859330">
        <ele>186.0</ele>
        <time>2019-09-04T08:24:49Z</time>
      </trkpt>
      <trkpt lat="43.2842910" lon="-5.9860030">
        <ele>186.0</ele>
        <time>2019-09-04T08:24:50Z</time>
      </trkpt>
      <trkpt lat="43.2842500" lon="-5.9860720">
        <ele>186.0</ele>
        <time>2019-09-04T08:24:51Z</time>
      </trkpt>
      <trkpt lat="43.2842090" lon="-5.9861440">
        <ele>186.0</ele>
        <time>2019-09-04T08:24:52Z</time>
      </trkpt>
      <trkpt lat="43.2841630" lon="-5.9862090">
        <ele>186.0</ele>
        <time>2019-09-04T08:24:53Z</time>
      </trkpt>
      <trkpt lat="43.2841160" lon="-5.9862720">
        <ele>186.0</ele>
        <time>2019-09-04T08:24:54Z</time>
      </trkpt>
      <trkpt lat="43.2840760" lon="-5.9863370">
        <ele>187.2</ele>
        <time>2019-09-04T08:24:55Z</time>
      </trkpt>
      <trkpt lat="43.2839830" lon="-5.9864760">
        <ele>187.2</ele>
        <time>2019-09-04T08:24:57Z</time>
      </trkpt>
      <trkpt lat="43.2839320" lon="-5.9865430">
        <ele>187.2</ele>
        <time>2019-09-04T08:24:58Z</time>
      </trkpt>
      <trkpt lat="43.2838860" lon="-5.9866050">
        <ele>187.2</ele>
        <time>2019-09-04T08:24:59Z</time>
      </trkpt>
      <trkpt lat="43.2837890" lon="-5.9867370">
        <ele>187.2</ele>
        <time>2019-09-04T08:25:01Z</time>
      </trkpt>
      <trkpt lat="43.2837430" lon="-5.9867960">
        <ele>187.2</ele>
        <time>2019-09-04T08:25:02Z</time>
      </trkpt>
      <trkpt lat="43.2836560" lon="-5.9869280">
        <ele>187.2</ele>
        <time>2019-09-04T08:25:04Z</time>
      </trkpt>
      <trkpt lat="43.2836150" lon="-5.9869940">
        <ele>187.2</ele>
        <time>2019-09-04T08:25:05Z</time>
      </trkpt>
      <trkpt lat="43.2835690" lon="-5.9870680">
        <ele>187.2</ele>
        <time>2019-09-04T08:25:06Z</time>
      </trkpt>
      <trkpt lat="43.2835280" lon="-5.9871410">
        <ele>187.2</ele>
        <time>2019-09-04T08:25:07Z</time>
      </trkpt>
      <trkpt lat="43.2834820" lon="-5.9872120">
        <ele>187.2</ele>
        <time>2019-09-04T08:25:08Z</time>
      </trkpt>
      <trkpt lat="43.2834360" lon="-5.9872820">
        <ele>187.2</ele>
        <time>2019-09-04T08:25:09Z</time>
      </trkpt>
      <trkpt lat="43.2833950" lon="-5.9873460">
        <ele>187.2</ele>
        <time>2019-09-04T08:25:10Z</time>
      </trkpt>
      <trkpt lat="43.2833480" lon="-5.9874150">
        <ele>187.2</ele>
        <time>2019-09-04T08:25:11Z</time>
      </trkpt>
      <trkpt lat="43.2833020" lon="-5.9874840">
        <ele>187.2</ele>
        <time>2019-09-04T08:25:12Z</time>
      </trkpt>
      <trkpt lat="43.2832610" lon="-5.9875500">
        <ele>187.2</ele>
        <time>2019-09-04T08:25:13Z</time>
      </trkpt>
      <trkpt lat="43.2832150" lon="-5.9876190">
        <ele>187.2</ele>
        <time>2019-09-04T08:25:14Z</time>
      </trkpt>
      <trkpt lat="43.2831640" lon="-5.9876810">
        <ele>187.2</ele>
        <time>2019-09-04T08:25:15Z</time>
      </trkpt>
      <trkpt lat="43.2831180" lon="-5.9877360">
        <ele>187.2</ele>
        <time>2019-09-04T08:25:16Z</time>
      </trkpt>
      <trkpt lat="43.2830720" lon="-5.9877880">
        <ele>187.2</ele>
        <time>2019-09-04T08:25:17Z</time>
      </trkpt>
      <trkpt lat="43.2830160" lon="-5.9878410">
        <ele>187.2</ele>
        <time>2019-09-04T08:25:18Z</time>
      </trkpt>
      <trkpt lat="43.2829640" lon="-5.9878860">
        <ele>187.2</ele>
        <time>2019-09-04T08:25:19Z</time>
      </trkpt>
      <trkpt lat="43.2829030" lon="-5.9879260">
        <ele>187.2</ele>
        <time>2019-09-04T08:25:20Z</time>
      </trkpt>
      <trkpt lat="43.2828470" lon="-5.9879610">
        <ele>188.4</ele>
        <time>2019-09-04T08:25:21Z</time>
      </trkpt>
      <trkpt lat="43.2827390" lon="-5.9880220">
        <ele>188.4</ele>
        <time>2019-09-04T08:25:23Z</time>
      </trkpt>
      <trkpt lat="43.2826830" lon="-5.9880540">
        <ele>188.4</ele>
        <time>2019-09-04T08:25:24Z</time>
      </trkpt>
      <trkpt lat="43.2826210" lon="-5.9880840">
        <ele>188.4</ele>
        <time>2019-09-04T08:25:25Z</time>
      </trkpt>
      <trkpt lat="43.2825700" lon="-5.9881150">
        <ele>188.4</ele>
        <time>2019-09-04T08:25:26Z</time>
      </trkpt>
      <trkpt lat="43.2825140" lon="-5.9881460">
        <ele>189.5</ele>
        <time>2019-09-04T08:25:27Z</time>
      </trkpt>
      <trkpt lat="43.2824680" lon="-5.9881760">
        <ele>189.5</ele>
        <time>2019-09-04T08:25:28Z</time>
      </trkpt>
      <trkpt lat="43.2824220" lon="-5.9882080">
        <ele>189.5</ele>
        <time>2019-09-04T08:25:29Z</time>
      </trkpt>
      <trkpt lat="43.2823300" lon="-5.9882740">
        <ele>189.5</ele>
        <time>2019-09-04T08:25:31Z</time>
      </trkpt>
      <trkpt lat="43.2822480" lon="-5.9883470">
        <ele>189.5</ele>
        <time>2019-09-04T08:25:33Z</time>
      </trkpt>
      <trkpt lat="43.2821810" lon="-5.9884170">
        <ele>189.5</ele>
        <time>2019-09-04T08:25:35Z</time>
      </trkpt>
      <trkpt lat="43.2821090" lon="-5.9884930">
        <ele>189.5</ele>
        <time>2019-09-04T08:25:37Z</time>
      </trkpt>
      <trkpt lat="43.2820380" lon="-5.9885730">
        <ele>189.5</ele>
        <time>2019-09-04T08:25:39Z</time>
      </trkpt>
      <trkpt lat="43.2819460" lon="-5.9887010">
        <ele>189.5</ele>
        <time>2019-09-04T08:25:42Z</time>
      </trkpt>
      <trkpt lat="43.2818890" lon="-5.9887920">
        <ele>189.5</ele>
        <time>2019-09-04T08:25:44Z</time>
      </trkpt>
      <trkpt lat="43.2818280" lon="-5.9888830">
        <ele>189.5</ele>
        <time>2019-09-04T08:25:46Z</time>
      </trkpt>
      <trkpt lat="43.2817720" lon="-5.9889720">
        <ele>189.5</ele>
        <time>2019-09-04T08:25:48Z</time>
      </trkpt>
      <trkpt lat="43.2817200" lon="-5.9890590">
        <ele>189.5</ele>
        <time>2019-09-04T08:25:50Z</time>
      </trkpt>
      <trkpt lat="43.2816690" lon="-5.9891390">
        <ele>189.5</ele>
        <time>2019-09-04T08:25:52Z</time>
      </trkpt>
      <trkpt lat="43.2816180" lon="-5.9892200">
        <ele>189.5</ele>
        <time>2019-09-04T08:25:54Z</time>
      </trkpt>
      <trkpt lat="43.2815310" lon="-5.9893400">
        <ele>194.5</ele>
        <time>2019-09-04T08:25:57Z</time>
      </trkpt>
      <trkpt lat="43.2814800" lon="-5.9894110">
        <ele>196.2</ele>
        <time>2019-09-04T08:25:59Z</time>
      </trkpt>
      <trkpt lat="43.2814180" lon="-5.9894850">
        <ele>198.4</ele>
        <time>2019-09-04T08:26:01Z</time>
      </trkpt>
      <trkpt lat="43.2813570" lon="-5.9895560">
        <ele>200.1</ele>
        <time>2019-09-04T08:26:03Z</time>
      </trkpt>
      <trkpt lat="43.2813000" lon="-5.9896210">
        <ele>200.1</ele>
        <time>2019-09-04T08:26:05Z</time>
      </trkpt>
      <trkpt lat="43.2812390" lon="-5.9896860">
        <ele>201.4</ele>
        <time>2019-09-04T08:26:07Z</time>
      </trkpt>
      <trkpt lat="43.2811830" lon="-5.9897530">
        <ele>201.4</ele>
        <time>2019-09-04T08:26:09Z</time>
      </trkpt>
      <trkpt lat="43.2811210" lon="-5.9898200">
        <ele>201.4</ele>
        <time>2019-09-04T08:26:11Z</time>
      </trkpt>
      <trkpt lat="43.2810650" lon="-5.9898840">
        <ele>201.4</ele>
        <time>2019-09-04T08:26:13Z</time>
      </trkpt>
      <trkpt lat="43.2810040" lon="-5.9899500">
        <ele>201.4</ele>
        <time>2019-09-04T08:26:15Z</time>
      </trkpt>
      <trkpt lat="43.2809470" lon="-5.9900170">
        <ele>201.4</ele>
        <time>2019-09-04T08:26:17Z</time>
      </trkpt>
      <trkpt lat="43.2808860" lon="-5.9900820">
        <ele>201.4</ele>
        <time>2019-09-04T08:26:19Z</time>
      </trkpt>
      <trkpt lat="43.2808240" lon="-5.9901500">
        <ele>203.4</ele>
        <time>2019-09-04T08:26:21Z</time>
      </trkpt>
      <trkpt lat="43.2807680" lon="-5.9902150">
        <ele>205.1</ele>
        <time>2019-09-04T08:26:23Z</time>
      </trkpt>
      <trkpt lat="43.2807120" lon="-5.9902780">
        <ele>206.4</ele>
        <time>2019-09-04T08:26:25Z</time>
      </trkpt>
      <trkpt lat="43.2806550" lon="-5.9903370">
        <ele>207.8</ele>
        <time>2019-09-04T08:26:27Z</time>
      </trkpt>
      <trkpt lat="43.2805940" lon="-5.9903960">
        <ele>209.0</ele>
        <time>2019-09-04T08:26:29Z</time>
      </trkpt>
      <trkpt lat="43.2805320" lon="-5.9904520">
        <ele>210.2</ele>
        <time>2019-09-04T08:26:31Z</time>
      </trkpt>
      <trkpt lat="43.2804660" lon="-5.9904980">
        <ele>210.2</ele>
        <time>2019-09-04T08:26:33Z</time>
      </trkpt>
      <trkpt lat="43.2803990" lon="-5.9905370">
        <ele>211.5</ele>
        <time>2019-09-04T08:26:35Z</time>
      </trkpt>
      <trkpt lat="43.2803280" lon="-5.9905640">
        <ele>211.5</ele>
        <time>2019-09-04T08:26:37Z</time>
      </trkpt>
      <trkpt lat="43.2802560" lon="-5.9905820">
        <ele>212.9</ele>
        <time>2019-09-04T08:26:39Z</time>
      </trkpt>
      <trkpt lat="43.2801890" lon="-5.9905910">
        <ele>212.9</ele>
        <time>2019-09-04T08:26:41Z</time>
      </trkpt>
      <trkpt lat="43.2801130" lon="-5.9905930">
        <ele>212.9</ele>
        <time>2019-09-04T08:26:43Z</time>
      </trkpt>
      <trkpt lat="43.2800410" lon="-5.9905850">
        <ele>212.9</ele>
        <time>2019-09-04T08:26:45Z</time>
      </trkpt>
      <trkpt lat="43.2799690" lon="-5.9905650">
        <ele>212.9</ele>
        <time>2019-09-04T08:26:47Z</time>
      </trkpt>
      <trkpt lat="43.2798670" lon="-5.9905150">
        <ele>212.9</ele>
        <time>2019-09-04T08:26:50Z</time>
      </trkpt>
      <trkpt lat="43.2797950" lon="-5.9904740">
        <ele>212.9</ele>
        <time>2019-09-04T08:26:52Z</time>
      </trkpt>
      <trkpt lat="43.2797180" lon="-5.9904280">
        <ele>212.9</ele>
        <time>2019-09-04T08:26:54Z</time>
      </trkpt>
      <trkpt lat="43.2796470" lon="-5.9903810">
        <ele>212.9</ele>
        <time>2019-09-04T08:26:56Z</time>
      </trkpt>
      <trkpt lat="43.2795700" lon="-5.9903410">
        <ele>212.9</ele>
        <time>2019-09-04T08:26:58Z</time>
      </trkpt>
      <trkpt lat="43.2794930" lon="-5.9903090">
        <ele>212.9</ele>
        <time>2019-09-04T08:27:00Z</time>
      </trkpt>
      <trkpt lat="43.2794060" lon="-5.9902890">
        <ele>212.9</ele>
        <time>2019-09-04T08:27:02Z</time>
      </trkpt>
      <trkpt lat="43.2793240" lon="-5.9902790">
        <ele>212.9</ele>
        <time>2019-09-04T08:27:04Z</time>
      </trkpt>
      <trkpt lat="43.2792370" lon="-5.9902800">
        <ele>212.9</ele>
        <time>2019-09-04T08:27:06Z</time>
      </trkpt>
      <trkpt lat="43.2791860" lon="-5.9902800">
        <ele>212.9</ele>
        <time>2019-09-04T08:27:07Z</time>
      </trkpt>
      <trkpt lat="43.2790840" lon="-5.9902770">
        <ele>212.9</ele>
        <time>2019-09-04T08:27:09Z</time>
      </trkpt>
      <trkpt lat="43.2790320" lon="-5.9902730">
        <ele>212.9</ele>
        <time>2019-09-04T08:27:10Z</time>
      </trkpt>
      <trkpt lat="43.2789710" lon="-5.9902640">
        <ele>212.9</ele>
        <time>2019-09-04T08:27:11Z</time>
      </trkpt>
      <trkpt lat="43.2789200" lon="-5.9902530">
        <ele>212.9</ele>
        <time>2019-09-04T08:27:12Z</time>
      </trkpt>
      <trkpt lat="43.2788580" lon="-5.9902390">
        <ele>212.9</ele>
        <time>2019-09-04T08:27:13Z</time>
      </trkpt>
      <trkpt lat="43.2788020" lon="-5.9902250">
        <ele>212.9</ele>
        <time>2019-09-04T08:27:14Z</time>
      </trkpt>
      <trkpt lat="43.2787400" lon="-5.9902090">
        <ele>212.9</ele>
        <time>2019-09-04T08:27:15Z</time>
      </trkpt>
      <trkpt lat="43.2786790" lon="-5.9901960">
        <ele>212.9</ele>
        <time>2019-09-04T08:27:16Z</time>
      </trkpt>
      <trkpt lat="43.2786120" lon="-5.9901870">
        <ele>212.9</ele>
        <time>2019-09-04T08:27:17Z</time>
      </trkpt>
      <trkpt lat="43.2785460" lon="-5.9901830">
        <ele>212.9</ele>
        <time>2019-09-04T08:27:18Z</time>
      </trkpt>
      <trkpt lat="43.2784180" lon="-5.9902000">
        <ele>212.9</ele>
        <time>2019-09-04T08:27:20Z</time>
      </trkpt>
      <trkpt lat="43.2783460" lon="-5.9902250">
        <ele>212.9</ele>
        <time>2019-09-04T08:27:21Z</time>
      </trkpt>
      <trkpt lat="43.2782800" lon="-5.9902640">
        <ele>212.9</ele>
        <time>2019-09-04T08:27:22Z</time>
      </trkpt>
      <trkpt lat="43.2782030" lon="-5.9903170">
        <ele>212.9</ele>
        <time>2019-09-04T08:27:23Z</time>
      </trkpt>
      <trkpt lat="43.2780750" lon="-5.9904540">
        <ele>212.9</ele>
        <time>2019-09-04T08:27:25Z</time>
      </trkpt>
      <trkpt lat="43.2780130" lon="-5.9905250">
        <ele>214.9</ele>
        <time>2019-09-04T08:27:26Z</time>
      </trkpt>
      <trkpt lat="43.2779010" lon="-5.9906710">
        <ele>216.2</ele>
        <time>2019-09-04T08:27:28Z</time>
      </trkpt>
      <trkpt lat="43.2777880" lon="-5.9908220">
        <ele>216.2</ele>
        <time>2019-09-04T08:27:30Z</time>
      </trkpt>
      <trkpt lat="43.2776700" lon="-5.9909800">
        <ele>217.5</ele>
        <time>2019-09-04T08:27:32Z</time>
      </trkpt>
      <trkpt lat="43.2776140" lon="-5.9910520">
        <ele>217.5</ele>
        <time>2019-09-04T08:27:33Z</time>
      </trkpt>
      <trkpt lat="43.2775480" lon="-5.9911320">
        <ele>217.5</ele>
        <time>2019-09-04T08:27:34Z</time>
      </trkpt>
      <trkpt lat="43.2774400" lon="-5.9912790">
        <ele>217.5</ele>
        <time>2019-09-04T08:27:36Z</time>
      </trkpt>
      <trkpt lat="43.2773270" lon="-5.9914310">
        <ele>217.5</ele>
        <time>2019-09-04T08:27:38Z</time>
      </trkpt>
      <trkpt lat="43.2772760" lon="-5.9915020">
        <ele>217.5</ele>
        <time>2019-09-04T08:27:39Z</time>
      </trkpt>
      <trkpt lat="43.2772250" lon="-5.9915710">
        <ele>217.5</ele>
        <time>2019-09-04T08:27:40Z</time>
      </trkpt>
      <trkpt lat="43.2771120" lon="-5.9917150">
        <ele>217.5</ele>
        <time>2019-09-04T08:27:42Z</time>
      </trkpt>
      <trkpt lat="43.2770300" lon="-5.9918240">
        <ele>217.5</ele>
        <time>2019-09-04T08:27:44Z</time>
      </trkpt>
      <trkpt lat="43.2769790" lon="-5.9918910">
        <ele>217.5</ele>
        <time>2019-09-04T08:27:45Z</time>
      </trkpt>
      <trkpt lat="43.2769280" lon="-5.9919550">
        <ele>217.5</ele>
        <time>2019-09-04T08:27:46Z</time>
      </trkpt>
      <trkpt lat="43.2768770" lon="-5.9920180">
        <ele>217.5</ele>
        <time>2019-09-04T08:27:47Z</time>
      </trkpt>
      <trkpt lat="43.2768150" lon="-5.9920820">
        <ele>217.5</ele>
        <time>2019-09-04T08:27:48Z</time>
      </trkpt>
      <trkpt lat="43.2767640" lon="-5.9921470">
        <ele>217.5</ele>
        <time>2019-09-04T08:27:49Z</time>
      </trkpt>
      <trkpt lat="43.2766620" lon="-5.9922730">
        <ele>217.5</ele>
        <time>2019-09-04T08:27:51Z</time>
      </trkpt>
      <trkpt lat="43.2765440" lon="-5.9924040">
        <ele>217.5</ele>
        <time>2019-09-04T08:27:53Z</time>
      </trkpt>
      <trkpt lat="43.2764880" lon="-5.9924680">
        <ele>217.5</ele>
        <time>2019-09-04T08:27:54Z</time>
      </trkpt>
      <trkpt lat="43.2764260" lon="-5.9925310">
        <ele>217.5</ele>
        <time>2019-09-04T08:27:55Z</time>
      </trkpt>
      <trkpt lat="43.2763600" lon="-5.9925960">
        <ele>217.5</ele>
        <time>2019-09-04T08:27:56Z</time>
      </trkpt>
      <trkpt lat="43.2763030" lon="-5.9926610">
        <ele>217.5</ele>
        <time>2019-09-04T08:27:57Z</time>
      </trkpt>
      <trkpt lat="43.2762420" lon="-5.9927290">
        <ele>217.5</ele>
        <time>2019-09-04T08:27:58Z</time>
      </trkpt>
      <trkpt lat="43.2761140" lon="-5.9928530">
        <ele>217.5</ele>
        <time>2019-09-04T08:28:00Z</time>
      </trkpt>
      <trkpt lat="43.2759910" lon="-5.9929810">
        <ele>217.5</ele>
        <time>2019-09-04T08:28:02Z</time>
      </trkpt>
      <trkpt lat="43.2759300" lon="-5.9930460">
        <ele>217.5</ele>
        <time>2019-09-04T08:28:03Z</time>
      </trkpt>
      <trkpt lat="43.2758020" lon="-5.9931710">
        <ele>217.5</ele>
        <time>2019-09-04T08:28:05Z</time>
      </trkpt>
      <trkpt lat="43.2757400" lon="-5.9932360">
        <ele>217.5</ele>
        <time>2019-09-04T08:28:06Z</time>
      </trkpt>
      <trkpt lat="43.2756740" lon="-5.9933020">
        <ele>217.5</ele>
        <time>2019-09-04T08:28:07Z</time>
      </trkpt>
      <trkpt lat="43.2755460" lon="-5.9934280">
        <ele>217.5</ele>
        <time>2019-09-04T08:28:09Z</time>
      </trkpt>
      <trkpt lat="43.2754230" lon="-5.9935460">
        <ele>217.5</ele>
        <time>2019-09-04T08:28:11Z</time>
      </trkpt>
      <trkpt lat="43.2753610" lon="-5.9936080">
        <ele>217.5</ele>
        <time>2019-09-04T08:28:12Z</time>
      </trkpt>
      <trkpt lat="43.2752950" lon="-5.9936790">
        <ele>216.3</ele>
        <time>2019-09-04T08:28:13Z</time>
      </trkpt>
      <trkpt lat="43.2752280" lon="-5.9937520">
        <ele>216.3</ele>
        <time>2019-09-04T08:28:14Z</time>
      </trkpt>
      <trkpt lat="43.2751720" lon="-5.9938280">
        <ele>216.3</ele>
        <time>2019-09-04T08:28:15Z</time>
      </trkpt>
      <trkpt lat="43.2751160" lon="-5.9939020">
        <ele>216.3</ele>
        <time>2019-09-04T08:28:16Z</time>
      </trkpt>
      <trkpt lat="43.2750640" lon="-5.9939870">
        <ele>216.3</ele>
        <time>2019-09-04T08:28:17Z</time>
      </trkpt>
      <trkpt lat="43.2750130" lon="-5.9940670">
        <ele>216.3</ele>
        <time>2019-09-04T08:28:18Z</time>
      </trkpt>
      <trkpt lat="43.2749620" lon="-5.9941520">
        <ele>216.3</ele>
        <time>2019-09-04T08:28:19Z</time>
      </trkpt>
      <trkpt lat="43.2749160" lon="-5.9942470">
        <ele>216.3</ele>
        <time>2019-09-04T08:28:20Z</time>
      </trkpt>
      <trkpt lat="43.2748700" lon="-5.9943370">
        <ele>216.3</ele>
        <time>2019-09-04T08:28:21Z</time>
      </trkpt>
      <trkpt lat="43.2748240" lon="-5.9944360">
        <ele>216.3</ele>
        <time>2019-09-04T08:28:22Z</time>
      </trkpt>
      <trkpt lat="43.2747880" lon="-5.9945360">
        <ele>216.3</ele>
        <time>2019-09-04T08:28:23Z</time>
      </trkpt>
      <trkpt lat="43.2747520" lon="-5.9946390">
        <ele>216.3</ele>
        <time>2019-09-04T08:28:24Z</time>
      </trkpt>
      <trkpt lat="43.2747210" lon="-5.9947360">
        <ele>216.3</ele>
        <time>2019-09-04T08:28:25Z</time>
      </trkpt>
      <trkpt lat="43.2746910" lon="-5.9948420">
        <ele>216.3</ele>
        <time>2019-09-04T08:28:26Z</time>
      </trkpt>
      <trkpt lat="43.2746600" lon="-5.9949500">
        <ele>216.3</ele>
        <time>2019-09-04T08:28:27Z</time>
      </trkpt>
      <trkpt lat="43.2746390" lon="-5.9950570">
        <ele>216.3</ele>
        <time>2019-09-04T08:28:28Z</time>
      </trkpt>
      <trkpt lat="43.2746040" lon="-5.9952750">
        <ele>215.1</ele>
        <time>2019-09-04T08:28:30Z</time>
      </trkpt>
      <trkpt lat="43.2745880" lon="-5.9954970">
        <ele>215.1</ele>
        <time>2019-09-04T08:28:32Z</time>
      </trkpt>
      <trkpt lat="43.2745780" lon="-5.9957200">
        <ele>215.1</ele>
        <time>2019-09-04T08:28:34Z</time>
      </trkpt>
      <trkpt lat="43.2745880" lon="-5.9959370">
        <ele>215.1</ele>
        <time>2019-09-04T08:28:36Z</time>
      </trkpt>
      <trkpt lat="43.2745880" lon="-5.9961530">
        <ele>215.1</ele>
        <time>2019-09-04T08:28:38Z</time>
      </trkpt>
      <trkpt lat="43.2745880" lon="-5.9962660">
        <ele>215.1</ele>
        <time>2019-09-04T08:28:39Z</time>
      </trkpt>
      <trkpt lat="43.2745730" lon="-5.9964900">
        <ele>215.1</ele>
        <time>2019-09-04T08:28:41Z</time>
      </trkpt>
      <trkpt lat="43.2745570" lon="-5.9965930">
        <ele>215.1</ele>
        <time>2019-09-04T08:28:42Z</time>
      </trkpt>
      <trkpt lat="43.2745370" lon="-5.9967030">
        <ele>215.1</ele>
        <time>2019-09-04T08:28:43Z</time>
      </trkpt>
      <trkpt lat="43.2744810" lon="-5.9969130">
        <ele>213.9</ele>
        <time>2019-09-04T08:28:45Z</time>
      </trkpt>
      <trkpt lat="43.2744400" lon="-5.9970160">
        <ele>213.9</ele>
        <time>2019-09-04T08:28:46Z</time>
      </trkpt>
      <trkpt lat="43.2743990" lon="-5.9971140">
        <ele>213.9</ele>
        <time>2019-09-04T08:28:47Z</time>
      </trkpt>
      <trkpt lat="43.2743010" lon="-5.9972880">
        <ele>213.9</ele>
        <time>2019-09-04T08:28:49Z</time>
      </trkpt>
      <trkpt lat="43.2742450" lon="-5.9973730">
        <ele>213.9</ele>
        <time>2019-09-04T08:28:50Z</time>
      </trkpt>
      <trkpt lat="43.2741890" lon="-5.9974550">
        <ele>213.9</ele>
        <time>2019-09-04T08:28:51Z</time>
      </trkpt>
      <trkpt lat="43.2741220" lon="-5.9975280">
        <ele>213.9</ele>
        <time>2019-09-04T08:28:52Z</time>
      </trkpt>
      <trkpt lat="43.2739890" lon="-5.9976570">
        <ele>213.9</ele>
        <time>2019-09-04T08:28:54Z</time>
      </trkpt>
      <trkpt lat="43.2739170" lon="-5.9977180">
        <ele>213.9</ele>
        <time>2019-09-04T08:28:55Z</time>
      </trkpt>
      <trkpt lat="43.2738510" lon="-5.9977740">
        <ele>213.9</ele>
        <time>2019-09-04T08:28:56Z</time>
      </trkpt>
      <trkpt lat="43.2736970" lon="-5.9978970">
        <ele>213.9</ele>
        <time>2019-09-04T08:28:58Z</time>
      </trkpt>
      <trkpt lat="43.2736200" lon="-5.9979580">
        <ele>212.7</ele>
        <time>2019-09-04T08:28:59Z</time>
      </trkpt>
      <trkpt lat="43.2735390" lon="-5.9980170">
        <ele>212.7</ele>
        <time>2019-09-04T08:29:00Z</time>
      </trkpt>
      <trkpt lat="43.2733950" lon="-5.9981310">
        <ele>212.7</ele>
        <time>2019-09-04T08:29:02Z</time>
      </trkpt>
      <trkpt lat="43.2732470" lon="-5.9982550">
        <ele>212.7</ele>
        <time>2019-09-04T08:29:04Z</time>
      </trkpt>
      <trkpt lat="43.2730780" lon="-5.9984170">
        <ele>212.7</ele>
        <time>2019-09-04T08:29:07Z</time>
      </trkpt>
      <trkpt lat="43.2729960" lon="-5.9985110">
        <ele>212.7</ele>
        <time>2019-09-04T08:29:08Z</time>
      </trkpt>
      <trkpt lat="43.2728470" lon="-5.9986920">
        <ele>212.7</ele>
        <time>2019-09-04T08:29:10Z</time>
      </trkpt>
      <trkpt lat="43.2727140" lon="-5.9988730">
        <ele>212.7</ele>
        <time>2019-09-04T08:29:12Z</time>
      </trkpt>
      <trkpt lat="43.2726580" lon="-5.9989660">
        <ele>212.7</ele>
        <time>2019-09-04T08:29:13Z</time>
      </trkpt>
      <trkpt lat="43.2725500" lon="-5.9991580">
        <ele>212.7</ele>
        <time>2019-09-04T08:29:15Z</time>
      </trkpt>
      <trkpt lat="43.2724530" lon="-5.9993550">
        <ele>212.7</ele>
        <time>2019-09-04T08:29:17Z</time>
      </trkpt>
      <trkpt lat="43.2723610" lon="-5.9995560">
        <ele>212.7</ele>
        <time>2019-09-04T08:29:19Z</time>
      </trkpt>
      <trkpt lat="43.2723200" lon="-5.9996570">
        <ele>212.7</ele>
        <time>2019-09-04T08:29:20Z</time>
      </trkpt>
      <trkpt lat="43.2722840" lon="-5.9997520">
        <ele>212.7</ele>
        <time>2019-09-04T08:29:21Z</time>
      </trkpt>
      <trkpt lat="43.2722380" lon="-5.9998520">
        <ele>212.7</ele>
        <time>2019-09-04T08:29:22Z</time>
      </trkpt>
      <trkpt lat="43.2721920" lon="-5.9999510">
        <ele>212.7</ele>
        <time>2019-09-04T08:29:23Z</time>
      </trkpt>
      <trkpt lat="43.2721460" lon="-6.0000470">
        <ele>212.7</ele>
        <time>2019-09-04T08:29:24Z</time>
      </trkpt>
      <trkpt lat="43.2720440" lon="-6.0002270">
        <ele>212.7</ele>
        <time>2019-09-04T08:29:26Z</time>
      </trkpt>
      <trkpt lat="43.2719920" lon="-6.0003100">
        <ele>212.7</ele>
        <time>2019-09-04T08:29:27Z</time>
      </trkpt>
      <trkpt lat="43.2719360" lon="-6.0003880">
        <ele>212.7</ele>
        <time>2019-09-04T08:29:28Z</time>
      </trkpt>
      <trkpt lat="43.2718800" lon="-6.0004630">
        <ele>212.7</ele>
        <time>2019-09-04T08:29:29Z</time>
      </trkpt>
      <trkpt lat="43.2718180" lon="-6.0005330">
        <ele>212.7</ele>
        <time>2019-09-04T08:29:30Z</time>
      </trkpt>
      <trkpt lat="43.2717570" lon="-6.0006010">
        <ele>212.7</ele>
        <time>2019-09-04T08:29:31Z</time>
      </trkpt>
      <trkpt lat="43.2716900" lon="-6.0006640">
        <ele>212.7</ele>
        <time>2019-09-04T08:29:32Z</time>
      </trkpt>
      <trkpt lat="43.2716290" lon="-6.0007210">
        <ele>212.7</ele>
        <time>2019-09-04T08:29:33Z</time>
      </trkpt>
      <trkpt lat="43.2714960" lon="-6.0008200">
        <ele>212.7</ele>
        <time>2019-09-04T08:29:35Z</time>
      </trkpt>
      <trkpt lat="43.2714240" lon="-6.0008630">
        <ele>212.7</ele>
        <time>2019-09-04T08:29:36Z</time>
      </trkpt>
      <trkpt lat="43.2713520" lon="-6.0009030">
        <ele>212.7</ele>
        <time>2019-09-04T08:29:37Z</time>
      </trkpt>
      <trkpt lat="43.2712810" lon="-6.0009410">
        <ele>212.7</ele>
        <time>2019-09-04T08:29:38Z</time>
      </trkpt>
      <trkpt lat="43.2711270" lon="-6.0010100">
        <ele>212.7</ele>
        <time>2019-09-04T08:29:40Z</time>
      </trkpt>
      <trkpt lat="43.2710550" lon="-6.0010410">
        <ele>212.7</ele>
        <time>2019-09-04T08:29:41Z</time>
      </trkpt>
      <trkpt lat="43.2709790" lon="-6.0010760">
        <ele>212.7</ele>
        <time>2019-09-04T08:29:42Z</time>
      </trkpt>
      <trkpt lat="43.2708300" lon="-6.0011440">
        <ele>212.7</ele>
        <time>2019-09-04T08:29:44Z</time>
      </trkpt>
      <trkpt lat="43.2706760" lon="-6.0012150">
        <ele>212.7</ele>
        <time>2019-09-04T08:29:46Z</time>
      </trkpt>
      <trkpt lat="43.2706000" lon="-6.0012520">
        <ele>212.7</ele>
        <time>2019-09-04T08:29:47Z</time>
      </trkpt>
      <trkpt lat="43.2704410" lon="-6.0013220">
        <ele>212.7</ele>
        <time>2019-09-04T08:29:49Z</time>
      </trkpt>
      <trkpt lat="43.2703640" lon="-6.0013530">
        <ele>212.7</ele>
        <time>2019-09-04T08:29:50Z</time>
      </trkpt>
      <trkpt lat="43.2702920" lon="-6.0013840">
        <ele>212.7</ele>
        <time>2019-09-04T08:29:51Z</time>
      </trkpt>
      <trkpt lat="43.2701390" lon="-6.0014470">
        <ele>212.7</ele>
        <time>2019-09-04T08:29:53Z</time>
      </trkpt>
      <trkpt lat="43.2700620" lon="-6.0014800">
        <ele>212.7</ele>
        <time>2019-09-04T08:29:54Z</time>
      </trkpt>
      <trkpt lat="43.2699850" lon="-6.0015140">
        <ele>212.7</ele>
        <time>2019-09-04T08:29:55Z</time>
      </trkpt>
      <trkpt lat="43.2699080" lon="-6.0015490">
        <ele>212.7</ele>
        <time>2019-09-04T08:29:56Z</time>
      </trkpt>
      <trkpt lat="43.2698270" lon="-6.0015870">
        <ele>212.7</ele>
        <time>2019-09-04T08:29:57Z</time>
      </trkpt>
      <trkpt lat="43.2697450" lon="-6.0016230">
        <ele>212.7</ele>
        <time>2019-09-04T08:29:58Z</time>
      </trkpt>
      <trkpt lat="43.2696680" lon="-6.0016580">
        <ele>212.7</ele>
        <time>2019-09-04T08:29:59Z</time>
      </trkpt>
      <trkpt lat="43.2695910" lon="-6.0016950">
        <ele>212.7</ele>
        <time>2019-09-04T08:30:00Z</time>
      </trkpt>
      <trkpt lat="43.2695140" lon="-6.0017360">
        <ele>217.3</ele>
        <time>2019-09-04T08:30:01Z</time>
      </trkpt>
      <trkpt lat="43.2694370" lon="-6.0017850">
        <ele>217.3</ele>
        <time>2019-09-04T08:30:02Z</time>
      </trkpt>
      <trkpt lat="43.2693610" lon="-6.0018340">
        <ele>217.3</ele>
        <time>2019-09-04T08:30:03Z</time>
      </trkpt>
      <trkpt lat="43.2692840" lon="-6.0018910">
        <ele>217.3</ele>
        <time>2019-09-04T08:30:04Z</time>
      </trkpt>
      <trkpt lat="43.2692070" lon="-6.0019510">
        <ele>217.3</ele>
        <time>2019-09-04T08:30:05Z</time>
      </trkpt>
      <trkpt lat="43.2691300" lon="-6.0020130">
        <ele>217.3</ele>
        <time>2019-09-04T08:30:06Z</time>
      </trkpt>
      <trkpt lat="43.2690640" lon="-6.0020770">
        <ele>217.3</ele>
        <time>2019-09-04T08:30:07Z</time>
      </trkpt>
      <trkpt lat="43.2689920" lon="-6.0021470">
        <ele>217.3</ele>
        <time>2019-09-04T08:30:08Z</time>
      </trkpt>
      <trkpt lat="43.2689310" lon="-6.0022120">
        <ele>217.3</ele>
        <time>2019-09-04T08:30:09Z</time>
      </trkpt>
      <trkpt lat="43.2688640" lon="-6.0022870">
        <ele>217.3</ele>
        <time>2019-09-04T08:30:10Z</time>
      </trkpt>
      <trkpt lat="43.2687360" lon="-6.0024380">
        <ele>217.3</ele>
        <time>2019-09-04T08:30:12Z</time>
      </trkpt>
      <trkpt lat="43.2686750" lon="-6.0025090">
        <ele>217.3</ele>
        <time>2019-09-04T08:30:13Z</time>
      </trkpt>
      <trkpt lat="43.2686130" lon="-6.0025840">
        <ele>217.3</ele>
        <time>2019-09-04T08:30:14Z</time>
      </trkpt>
      <trkpt lat="43.2685570" lon="-6.0026590">
        <ele>217.3</ele>
        <time>2019-09-04T08:30:15Z</time>
      </trkpt>
      <trkpt lat="43.2684950" lon="-6.0027320">
        <ele>217.3</ele>
        <time>2019-09-04T08:30:16Z</time>
      </trkpt>
      <trkpt lat="43.2684340" lon="-6.0028040">
        <ele>217.3</ele>
        <time>2019-09-04T08:30:17Z</time>
      </trkpt>
      <trkpt lat="43.2683780" lon="-6.0028760">
        <ele>217.3</ele>
        <time>2019-09-04T08:30:18Z</time>
      </trkpt>
      <trkpt lat="43.2683260" lon="-6.0029470">
        <ele>217.3</ele>
        <time>2019-09-04T08:30:19Z</time>
      </trkpt>
      <trkpt lat="43.2682700" lon="-6.0030170">
        <ele>217.3</ele>
        <time>2019-09-04T08:30:20Z</time>
      </trkpt>
      <trkpt lat="43.2682190" lon="-6.0030840">
        <ele>217.3</ele>
        <time>2019-09-04T08:30:21Z</time>
      </trkpt>
      <trkpt lat="43.2681570" lon="-6.0031530">
        <ele>217.3</ele>
        <time>2019-09-04T08:30:22Z</time>
      </trkpt>
      <trkpt lat="43.2681010" lon="-6.0032190">
        <ele>217.3</ele>
        <time>2019-09-04T08:30:23Z</time>
      </trkpt>
      <trkpt lat="43.2679880" lon="-6.0033310">
        <ele>217.3</ele>
        <time>2019-09-04T08:30:25Z</time>
      </trkpt>
      <trkpt lat="43.2679270" lon="-6.0033800">
        <ele>217.3</ele>
        <time>2019-09-04T08:30:26Z</time>
      </trkpt>
      <trkpt lat="43.2678710" lon="-6.0034210">
        <ele>217.3</ele>
        <time>2019-09-04T08:30:27Z</time>
      </trkpt>
      <trkpt lat="43.2678090" lon="-6.0034610">
        <ele>217.3</ele>
        <time>2019-09-04T08:30:28Z</time>
      </trkpt>
      <trkpt lat="43.2677430" lon="-6.0034960">
        <ele>217.3</ele>
        <time>2019-09-04T08:30:29Z</time>
      </trkpt>
      <trkpt lat="43.2676150" lon="-6.0035560">
        <ele>217.3</ele>
        <time>2019-09-04T08:30:31Z</time>
      </trkpt>
      <trkpt lat="43.2674920" lon="-6.0036070">
        <ele>217.3</ele>
        <time>2019-09-04T08:30:33Z</time>
      </trkpt>
      <trkpt lat="43.2674250" lon="-6.0036330">
        <ele>217.3</ele>
        <time>2019-09-04T08:30:34Z</time>
      </trkpt>
      <trkpt lat="43.2673590" lon="-6.0036570">
        <ele>217.3</ele>
        <time>2019-09-04T08:30:35Z</time>
      </trkpt>
      <trkpt lat="43.2672870" lon="-6.0036800">
        <ele>217.3</ele>
        <time>2019-09-04T08:30:36Z</time>
      </trkpt>
      <trkpt lat="43.2672260" lon="-6.0037040">
        <ele>217.3</ele>
        <time>2019-09-04T08:30:37Z</time>
      </trkpt>
      <trkpt lat="43.2671590" lon="-6.0037290">
        <ele>217.3</ele>
        <time>2019-09-04T08:30:38Z</time>
      </trkpt>
      <trkpt lat="43.2670310" lon="-6.0037760">
        <ele>217.3</ele>
        <time>2019-09-04T08:30:40Z</time>
      </trkpt>
      <trkpt lat="43.2668980" lon="-6.0038250">
        <ele>217.3</ele>
        <time>2019-09-04T08:30:42Z</time>
      </trkpt>
      <trkpt lat="43.2668360" lon="-6.0038500">
        <ele>217.3</ele>
        <time>2019-09-04T08:30:43Z</time>
      </trkpt>
      <trkpt lat="43.2667700" lon="-6.0038760">
        <ele>217.3</ele>
        <time>2019-09-04T08:30:44Z</time>
      </trkpt>
      <trkpt lat="43.2666370" lon="-6.0039260">
        <ele>217.3</ele>
        <time>2019-09-04T08:30:46Z</time>
      </trkpt>
      <trkpt lat="43.2665700" lon="-6.0039520">
        <ele>220.0</ele>
        <time>2019-09-04T08:30:47Z</time>
      </trkpt>
      <trkpt lat="43.2665040" lon="-6.0039780">
        <ele>220.0</ele>
        <time>2019-09-04T08:30:48Z</time>
      </trkpt>
      <trkpt lat="43.2664470" lon="-6.0040030">
        <ele>220.0</ele>
        <time>2019-09-04T08:30:49Z</time>
      </trkpt>
      <trkpt lat="43.2663760" lon="-6.0040280">
        <ele>220.0</ele>
        <time>2019-09-04T08:30:50Z</time>
      </trkpt>
      <trkpt lat="43.2663140" lon="-6.0040520">
        <ele>220.0</ele>
        <time>2019-09-04T08:30:51Z</time>
      </trkpt>
      <trkpt lat="43.2662530" lon="-6.0040760">
        <ele>220.0</ele>
        <time>2019-09-04T08:30:52Z</time>
      </trkpt>
      <trkpt lat="43.2661860" lon="-6.0041020">
        <ele>220.0</ele>
        <time>2019-09-04T08:30:53Z</time>
      </trkpt>
      <trkpt lat="43.2661150" lon="-6.0041270">
        <ele>220.0</ele>
        <time>2019-09-04T08:30:54Z</time>
      </trkpt>
      <trkpt lat="43.2660480" lon="-6.0041520">
        <ele>220.0</ele>
        <time>2019-09-04T08:30:55Z</time>
      </trkpt>
      <trkpt lat="43.2659810" lon="-6.0041770">
        <ele>220.0</ele>
        <time>2019-09-04T08:30:56Z</time>
      </trkpt>
      <trkpt lat="43.2659150" lon="-6.0042000">
        <ele>220.0</ele>
        <time>2019-09-04T08:30:57Z</time>
      </trkpt>
      <trkpt lat="43.2658530" lon="-6.0042210">
        <ele>220.0</ele>
        <time>2019-09-04T08:30:58Z</time>
      </trkpt>
      <trkpt lat="43.2657870" lon="-6.0042410">
        <ele>220.0</ele>
        <time>2019-09-04T08:30:59Z</time>
      </trkpt>
      <trkpt lat="43.2656540" lon="-6.0042730">
        <ele>220.0</ele>
        <time>2019-09-04T08:31:01Z</time>
      </trkpt>
      <trkpt lat="43.2655870" lon="-6.0042860">
        <ele>220.0</ele>
        <time>2019-09-04T08:31:02Z</time>
      </trkpt>
      <trkpt lat="43.2654490" lon="-6.0043070">
        <ele>220.0</ele>
        <time>2019-09-04T08:31:04Z</time>
      </trkpt>
      <trkpt lat="43.2653820" lon="-6.0043160">
        <ele>220.0</ele>
        <time>2019-09-04T08:31:05Z</time>
      </trkpt>
      <trkpt lat="43.2653160" lon="-6.0043240">
        <ele>220.0</ele>
        <time>2019-09-04T08:31:06Z</time>
      </trkpt>
      <trkpt lat="43.2651720" lon="-6.0043410">
        <ele>220.0</ele>
        <time>2019-09-04T08:31:08Z</time>
      </trkpt>
      <trkpt lat="43.2650390" lon="-6.0043610">
        <ele>220.0</ele>
        <time>2019-09-04T08:31:10Z</time>
      </trkpt>
      <trkpt lat="43.2649060" lon="-6.0043850">
        <ele>220.0</ele>
        <time>2019-09-04T08:31:12Z</time>
      </trkpt>
      <trkpt lat="43.2648400" lon="-6.0043980">
        <ele>220.0</ele>
        <time>2019-09-04T08:31:13Z</time>
      </trkpt>
      <trkpt lat="43.2647680" lon="-6.0044150">
        <ele>220.0</ele>
        <time>2019-09-04T08:31:14Z</time>
      </trkpt>
      <trkpt lat="43.2647070" lon="-6.0044320">
        <ele>220.0</ele>
        <time>2019-09-04T08:31:15Z</time>
      </trkpt>
      <trkpt lat="43.2646350" lon="-6.0044500">
        <ele>220.0</ele>
        <time>2019-09-04T08:31:16Z</time>
      </trkpt>
      <trkpt lat="43.2645730" lon="-6.0044670">
        <ele>220.0</ele>
        <time>2019-09-04T08:31:17Z</time>
      </trkpt>
      <trkpt lat="43.2645020" lon="-6.0044860">
        <ele>220.0</ele>
        <time>2019-09-04T08:31:18Z</time>
      </trkpt>
      <trkpt lat="43.2644400" lon="-6.0045060">
        <ele>222.1</ele>
        <time>2019-09-04T08:31:19Z</time>
      </trkpt>
      <trkpt lat="43.2643120" lon="-6.0045450">
        <ele>222.1</ele>
        <time>2019-09-04T08:31:21Z</time>
      </trkpt>
      <trkpt lat="43.2642460" lon="-6.0045660">
        <ele>222.1</ele>
        <time>2019-09-04T08:31:22Z</time>
      </trkpt>
      <trkpt lat="43.2641840" lon="-6.0045870">
        <ele>222.1</ele>
        <time>2019-09-04T08:31:23Z</time>
      </trkpt>
      <trkpt lat="43.2641280" lon="-6.0046070">
        <ele>222.1</ele>
        <time>2019-09-04T08:31:24Z</time>
      </trkpt>
      <trkpt lat="43.2639950" lon="-6.0046470">
        <ele>222.1</ele>
        <time>2019-09-04T08:31:26Z</time>
      </trkpt>
      <trkpt lat="43.2639330" lon="-6.0046680">
        <ele>222.1</ele>
        <time>2019-09-04T08:31:27Z</time>
      </trkpt>
      <trkpt lat="43.2638620" lon="-6.0046890">
        <ele>222.1</ele>
        <time>2019-09-04T08:31:28Z</time>
      </trkpt>
      <trkpt lat="43.2637340" lon="-6.0047310">
        <ele>222.1</ele>
        <time>2019-09-04T08:31:30Z</time>
      </trkpt>
      <trkpt lat="43.2636620" lon="-6.0047510">
        <ele>222.1</ele>
        <time>2019-09-04T08:31:31Z</time>
      </trkpt>
      <trkpt lat="43.2635340" lon="-6.0047920">
        <ele>222.1</ele>
        <time>2019-09-04T08:31:33Z</time>
      </trkpt>
      <trkpt lat="43.2634110" lon="-6.0048320">
        <ele>222.1</ele>
        <time>2019-09-04T08:31:35Z</time>
      </trkpt>
      <trkpt lat="43.2633450" lon="-6.0048520">
        <ele>222.1</ele>
        <time>2019-09-04T08:31:36Z</time>
      </trkpt>
      <trkpt lat="43.2632170" lon="-6.0048920">
        <ele>222.1</ele>
        <time>2019-09-04T08:31:38Z</time>
      </trkpt>
      <trkpt lat="43.2631550" lon="-6.0049130">
        <ele>222.1</ele>
        <time>2019-09-04T08:31:39Z</time>
      </trkpt>
      <trkpt lat="43.2630840" lon="-6.0049340">
        <ele>222.1</ele>
        <time>2019-09-04T08:31:40Z</time>
      </trkpt>
      <trkpt lat="43.2629610" lon="-6.0049740">
        <ele>222.1</ele>
        <time>2019-09-04T08:31:42Z</time>
      </trkpt>
      <trkpt lat="43.2628380" lon="-6.0050130">
        <ele>222.1</ele>
        <time>2019-09-04T08:31:44Z</time>
      </trkpt>
      <trkpt lat="43.2627760" lon="-6.0050320">
        <ele>222.1</ele>
        <time>2019-09-04T08:31:45Z</time>
      </trkpt>
      <trkpt lat="43.2627150" lon="-6.0050520">
        <ele>222.1</ele>
        <time>2019-09-04T08:31:46Z</time>
      </trkpt>
      <trkpt lat="43.2626530" lon="-6.0050730">
        <ele>222.1</ele>
        <time>2019-09-04T08:31:47Z</time>
      </trkpt>
      <trkpt lat="43.2625920" lon="-6.0050990">
        <ele>222.1</ele>
        <time>2019-09-04T08:31:48Z</time>
      </trkpt>
      <trkpt lat="43.2625360" lon="-6.0051300">
        <ele>222.1</ele>
        <time>2019-09-04T08:31:49Z</time>
      </trkpt>
      <trkpt lat="43.2624790" lon="-6.0051650">
        <ele>222.1</ele>
        <time>2019-09-04T08:31:50Z</time>
      </trkpt>
      <trkpt lat="43.2624230" lon="-6.0052060">
        <ele>222.1</ele>
        <time>2019-09-04T08:31:51Z</time>
      </trkpt>
      <trkpt lat="43.2623770" lon="-6.0052520">
        <ele>222.1</ele>
        <time>2019-09-04T08:31:52Z</time>
      </trkpt>
      <trkpt lat="43.2623260" lon="-6.0053040">
        <ele>222.1</ele>
        <time>2019-09-04T08:31:53Z</time>
      </trkpt>
      <trkpt lat="43.2622800" lon="-6.0053630">
        <ele>222.1</ele>
        <time>2019-09-04T08:31:54Z</time>
      </trkpt>
      <trkpt lat="43.2622440" lon="-6.0054270">
        <ele>222.1</ele>
        <time>2019-09-04T08:31:55Z</time>
      </trkpt>
      <trkpt lat="43.2622080" lon="-6.0054960">
        <ele>222.1</ele>
        <time>2019-09-04T08:31:56Z</time>
      </trkpt>
      <trkpt lat="43.2621770" lon="-6.0055710">
        <ele>222.1</ele>
        <time>2019-09-04T08:31:57Z</time>
      </trkpt>
      <trkpt lat="43.2621520" lon="-6.0056490">
        <ele>222.1</ele>
        <time>2019-09-04T08:31:58Z</time>
      </trkpt>
      <trkpt lat="43.2621360" lon="-6.0057310">
        <ele>222.1</ele>
        <time>2019-09-04T08:31:59Z</time>
      </trkpt>
      <trkpt lat="43.2621210" lon="-6.0058160">
        <ele>222.1</ele>
        <time>2019-09-04T08:32:00Z</time>
      </trkpt>
      <trkpt lat="43.2621110" lon="-6.0059020">
        <ele>222.1</ele>
        <time>2019-09-04T08:32:01Z</time>
      </trkpt>
      <trkpt lat="43.2621060" lon="-6.0060830">
        <ele>222.1</ele>
        <time>2019-09-04T08:32:03Z</time>
      </trkpt>
      <trkpt lat="43.2620950" lon="-6.0062710">
        <ele>222.1</ele>
        <time>2019-09-04T08:32:05Z</time>
      </trkpt>
      <trkpt lat="43.2620750" lon="-6.0064580">
        <ele>222.1</ele>
        <time>2019-09-04T08:32:07Z</time>
      </trkpt>
      <trkpt lat="43.2620390" lon="-6.0066390">
        <ele>222.1</ele>
        <time>2019-09-04T08:32:09Z</time>
      </trkpt>
      <trkpt lat="43.2619780" lon="-6.0068070">
        <ele>222.1</ele>
        <time>2019-09-04T08:32:11Z</time>
      </trkpt>
      <trkpt lat="43.2619420" lon="-6.0068840">
        <ele>222.1</ele>
        <time>2019-09-04T08:32:12Z</time>
      </trkpt>
      <trkpt lat="43.2618550" lon="-6.0070250">
        <ele>222.1</ele>
        <time>2019-09-04T08:32:14Z</time>
      </trkpt>
      <trkpt lat="43.2617420" lon="-6.0071400">
        <ele>222.1</ele>
        <time>2019-09-04T08:32:16Z</time>
      </trkpt>
      <trkpt lat="43.2616240" lon="-6.0072280">
        <ele>222.1</ele>
        <time>2019-09-04T08:32:18Z</time>
      </trkpt>
      <trkpt lat="43.2614860" lon="-6.0073030">
        <ele>222.1</ele>
        <time>2019-09-04T08:32:20Z</time>
      </trkpt>
      <trkpt lat="43.2613530" lon="-6.0073710">
        <ele>222.1</ele>
        <time>2019-09-04T08:32:22Z</time>
      </trkpt>
      <trkpt lat="43.2612860" lon="-6.0074060">
        <ele>222.1</ele>
        <time>2019-09-04T08:32:23Z</time>
      </trkpt>
      <trkpt lat="43.2611480" lon="-6.0074800">
        <ele>222.1</ele>
        <time>2019-09-04T08:32:25Z</time>
      </trkpt>
      <trkpt lat="43.2610870" lon="-6.0075200">
        <ele>222.1</ele>
        <time>2019-09-04T08:32:26Z</time>
      </trkpt>
      <trkpt lat="43.2610200" lon="-6.0075600">
        <ele>222.1</ele>
        <time>2019-09-04T08:32:27Z</time>
      </trkpt>
      <trkpt lat="43.2609020" lon="-6.0076440">
        <ele>222.1</ele>
        <time>2019-09-04T08:32:29Z</time>
      </trkpt>
      <trkpt lat="43.2607850" lon="-6.0077390">
        <ele>222.1</ele>
        <time>2019-09-04T08:32:31Z</time>
      </trkpt>
      <trkpt lat="43.2606720" lon="-6.0078370">
        <ele>222.1</ele>
        <time>2019-09-04T08:32:33Z</time>
      </trkpt>
      <trkpt lat="43.2605750" lon="-6.0079390">
        <ele>222.1</ele>
        <time>2019-09-04T08:32:35Z</time>
      </trkpt>
      <trkpt lat="43.2605240" lon="-6.0079880">
        <ele>222.1</ele>
        <time>2019-09-04T08:32:36Z</time>
      </trkpt>
      <trkpt lat="43.2604770" lon="-6.0080380">
        <ele>222.1</ele>
        <time>2019-09-04T08:32:37Z</time>
      </trkpt>
      <trkpt lat="43.2604310" lon="-6.0080880">
        <ele>222.1</ele>
        <time>2019-09-04T08:32:38Z</time>
      </trkpt>
      <trkpt lat="43.2603390" lon="-6.0081860">
        <ele>222.1</ele>
        <time>2019-09-04T08:32:40Z</time>
      </trkpt>
      <trkpt lat="43.2602520" lon="-6.0082890">
        <ele>222.1</ele>
        <time>2019-09-04T08:32:42Z</time>
      </trkpt>
      <trkpt lat="43.2601650" lon="-6.0083960">
        <ele>222.1</ele>
        <time>2019-09-04T08:32:44Z</time>
      </trkpt>
      <trkpt lat="43.2600830" lon="-6.0085060">
        <ele>222.1</ele>
        <time>2019-09-04T08:32:46Z</time>
      </trkpt>
      <trkpt lat="43.2600420" lon="-6.0085620">
        <ele>222.1</ele>
        <time>2019-09-04T08:32:47Z</time>
      </trkpt>
      <trkpt lat="43.2600010" lon="-6.0086180">
        <ele>222.1</ele>
        <time>2019-09-04T08:32:48Z</time>
      </trkpt>
      <trkpt lat="43.2599240" lon="-6.0087350">
        <ele>222.1</ele>
        <time>2019-09-04T08:32:50Z</time>
      </trkpt>
      <trkpt lat="43.2598530" lon="-6.0088560">
        <ele>222.1</ele>
        <time>2019-09-04T08:32:52Z</time>
      </trkpt>
      <trkpt lat="43.2597860" lon="-6.0089830">
        <ele>222.1</ele>
        <time>2019-09-04T08:32:54Z</time>
      </trkpt>
      <trkpt lat="43.2597200" lon="-6.0091070">
        <ele>222.1</ele>
        <time>2019-09-04T08:32:56Z</time>
      </trkpt>
      <trkpt lat="43.2596530" lon="-6.0092330">
        <ele>222.1</ele>
        <time>2019-09-04T08:32:58Z</time>
      </trkpt>
      <trkpt lat="43.2595760" lon="-6.0093600">
        <ele>222.1</ele>
        <time>2019-09-04T08:33:00Z</time>
      </trkpt>
      <trkpt lat="43.2595350" lon="-6.0094200">
        <ele>222.1</ele>
        <time>2019-09-04T08:33:01Z</time>
      </trkpt>
      <trkpt lat="43.2595000" lon="-6.0094800">
        <ele>222.1</ele>
        <time>2019-09-04T08:33:02Z</time>
      </trkpt>
      <trkpt lat="43.2594590" lon="-6.0095380">
        <ele>222.1</ele>
        <time>2019-09-04T08:33:03Z</time>
      </trkpt>
      <trkpt lat="43.2594120" lon="-6.0095920">
        <ele>222.1</ele>
        <time>2019-09-04T08:33:04Z</time>
      </trkpt>
      <trkpt lat="43.2593660" lon="-6.0096460">
        <ele>222.1</ele>
        <time>2019-09-04T08:33:05Z</time>
      </trkpt>
      <trkpt lat="43.2593250" lon="-6.0096970">
        <ele>222.1</ele>
        <time>2019-09-04T08:33:06Z</time>
      </trkpt>
      <trkpt lat="43.2592330" lon="-6.0097930">
        <ele>224.1</ele>
        <time>2019-09-04T08:33:08Z</time>
      </trkpt>
      <trkpt lat="43.2591360" lon="-6.0098840">
        <ele>224.1</ele>
        <time>2019-09-04T08:33:10Z</time>
      </trkpt>
      <trkpt lat="43.2590340" lon="-6.0099750">
        <ele>224.1</ele>
        <time>2019-09-04T08:33:12Z</time>
      </trkpt>
      <trkpt lat="43.2589820" lon="-6.0100180">
        <ele>224.1</ele>
        <time>2019-09-04T08:33:13Z</time>
      </trkpt>
      <trkpt lat="43.2589360" lon="-6.0100610">
        <ele>224.1</ele>
        <time>2019-09-04T08:33:14Z</time>
      </trkpt>
      <trkpt lat="43.2588800" lon="-6.0101040">
        <ele>224.1</ele>
        <time>2019-09-04T08:33:15Z</time>
      </trkpt>
      <trkpt lat="43.2587780" lon="-6.0101910">
        <ele>224.1</ele>
        <time>2019-09-04T08:33:17Z</time>
      </trkpt>
      <trkpt lat="43.2587320" lon="-6.0102320">
        <ele>224.1</ele>
        <time>2019-09-04T08:33:18Z</time>
      </trkpt>
      <trkpt lat="43.2586800" lon="-6.0102750">
        <ele>224.1</ele>
        <time>2019-09-04T08:33:19Z</time>
      </trkpt>
      <trkpt lat="43.2585780" lon="-6.0103650">
        <ele>224.1</ele>
        <time>2019-09-04T08:33:21Z</time>
      </trkpt>
      <trkpt lat="43.2585270" lon="-6.0104130">
        <ele>224.1</ele>
        <time>2019-09-04T08:33:22Z</time>
      </trkpt>
      <trkpt lat="43.2584700" lon="-6.0104620">
        <ele>224.1</ele>
        <time>2019-09-04T08:33:23Z</time>
      </trkpt>
      <trkpt lat="43.2584190" lon="-6.0105110">
        <ele>224.1</ele>
        <time>2019-09-04T08:33:24Z</time>
      </trkpt>
      <trkpt lat="43.2583120" lon="-6.0106140">
        <ele>224.1</ele>
        <time>2019-09-04T08:33:26Z</time>
      </trkpt>
      <trkpt lat="43.2582600" lon="-6.0106670">
        <ele>224.1</ele>
        <time>2019-09-04T08:33:27Z</time>
      </trkpt>
      <trkpt lat="43.2582090" lon="-6.0107180">
        <ele>224.1</ele>
        <time>2019-09-04T08:33:28Z</time>
      </trkpt>
      <trkpt lat="43.2581020" lon="-6.0108340">
        <ele>224.1</ele>
        <time>2019-09-04T08:33:30Z</time>
      </trkpt>
      <trkpt lat="43.2580510" lon="-6.0108930">
        <ele>224.1</ele>
        <time>2019-09-04T08:33:31Z</time>
      </trkpt>
      <trkpt lat="43.2579940" lon="-6.0109540">
        <ele>224.1</ele>
        <time>2019-09-04T08:33:32Z</time>
      </trkpt>
      <trkpt lat="43.2579430" lon="-6.0110170">
        <ele>224.1</ele>
        <time>2019-09-04T08:33:33Z</time>
      </trkpt>
      <trkpt lat="43.2578410" lon="-6.0111410">
        <ele>224.1</ele>
        <time>2019-09-04T08:33:35Z</time>
      </trkpt>
      <trkpt lat="43.2577950" lon="-6.0112070">
        <ele>224.1</ele>
        <time>2019-09-04T08:33:36Z</time>
      </trkpt>
      <trkpt lat="43.2577380" lon="-6.0112740">
        <ele>224.1</ele>
        <time>2019-09-04T08:33:37Z</time>
      </trkpt>
      <trkpt lat="43.2576410" lon="-6.0114050">
        <ele>224.1</ele>
        <time>2019-09-04T08:33:39Z</time>
      </trkpt>
      <trkpt lat="43.2575900" lon="-6.0114670">
        <ele>224.1</ele>
        <time>2019-09-04T08:33:40Z</time>
      </trkpt>
      <trkpt lat="43.2575390" lon="-6.0115260">
        <ele>224.1</ele>
        <time>2019-09-04T08:33:41Z</time>
      </trkpt>
      <trkpt lat="43.2574870" lon="-6.0115810">
        <ele>224.1</ele>
        <time>2019-09-04T08:33:42Z</time>
      </trkpt>
      <trkpt lat="43.2573850" lon="-6.0116790">
        <ele>224.1</ele>
        <time>2019-09-04T08:33:44Z</time>
      </trkpt>
      <trkpt lat="43.2572770" lon="-6.0117620">
        <ele>224.1</ele>
        <time>2019-09-04T08:33:46Z</time>
      </trkpt>
      <trkpt lat="43.2571650" lon="-6.0118330">
        <ele>224.1</ele>
        <time>2019-09-04T08:33:48Z</time>
      </trkpt>
      <trkpt lat="43.2570470" lon="-6.0118920">
        <ele>224.1</ele>
        <time>2019-09-04T08:33:50Z</time>
      </trkpt>
      <trkpt lat="43.2569340" lon="-6.0119460">
        <ele>224.1</ele>
        <time>2019-09-04T08:33:52Z</time>
      </trkpt>
      <trkpt lat="43.2568730" lon="-6.0119750">
        <ele>224.1</ele>
        <time>2019-09-04T08:33:53Z</time>
      </trkpt>
      <trkpt lat="43.2567500" lon="-6.0120310">
        <ele>224.1</ele>
        <time>2019-09-04T08:33:55Z</time>
      </trkpt>
      <trkpt lat="43.2566890" lon="-6.0120610">
        <ele>224.1</ele>
        <time>2019-09-04T08:33:56Z</time>
      </trkpt>
      <trkpt lat="43.2565810" lon="-6.0121350">
        <ele>224.1</ele>
        <time>2019-09-04T08:33:58Z</time>
      </trkpt>
      <trkpt lat="43.2564840" lon="-6.0122300">
        <ele>226.3</ele>
        <time>2019-09-04T08:34:00Z</time>
      </trkpt>
      <trkpt lat="43.2564070" lon="-6.0123390">
        <ele>226.3</ele>
        <time>2019-09-04T08:34:02Z</time>
      </trkpt>
      <trkpt lat="43.2563300" lon="-6.0124560">
        <ele>226.3</ele>
        <time>2019-09-04T08:34:04Z</time>
      </trkpt>
      <trkpt lat="43.2562640" lon="-6.0125750">
        <ele>226.3</ele>
        <time>2019-09-04T08:34:06Z</time>
      </trkpt>
      <trkpt lat="43.2561970" lon="-6.0126940">
        <ele>226.3</ele>
        <time>2019-09-04T08:34:08Z</time>
      </trkpt>
      <trkpt lat="43.2561310" lon="-6.0128110">
        <ele>226.3</ele>
        <time>2019-09-04T08:34:10Z</time>
      </trkpt>
      <trkpt lat="43.2560640" lon="-6.0129200">
        <ele>226.3</ele>
        <time>2019-09-04T08:34:12Z</time>
      </trkpt>
      <trkpt lat="43.2559920" lon="-6.0130310">
        <ele>226.3</ele>
        <time>2019-09-04T08:34:14Z</time>
      </trkpt>
      <trkpt lat="43.2559560" lon="-6.0130840">
        <ele>226.3</ele>
        <time>2019-09-04T08:34:15Z</time>
      </trkpt>
      <trkpt lat="43.2558750" lon="-6.0131760">
        <ele>226.3</ele>
        <time>2019-09-04T08:34:17Z</time>
      </trkpt>
      <trkpt lat="43.2558340" lon="-6.0132200">
        <ele>226.3</ele>
        <time>2019-09-04T08:34:18Z</time>
      </trkpt>
      <trkpt lat="43.2557880" lon="-6.0132650">
        <ele>226.3</ele>
        <time>2019-09-04T08:34:19Z</time>
      </trkpt>
      <trkpt lat="43.2557060" lon="-6.0133520">
        <ele>226.3</ele>
        <time>2019-09-04T08:34:21Z</time>
      </trkpt>
      <trkpt lat="43.2556600" lon="-6.0134020">
        <ele>226.3</ele>
        <time>2019-09-04T08:34:22Z</time>
      </trkpt>
      <trkpt lat="43.2556190" lon="-6.0134500">
        <ele>226.3</ele>
        <time>2019-09-04T08:34:23Z</time>
      </trkpt>
      <trkpt lat="43.2555780" lon="-6.0135030">
        <ele>226.3</ele>
        <time>2019-09-04T08:34:24Z</time>
      </trkpt>
      <trkpt lat="43.2555370" lon="-6.0135560">
        <ele>226.3</ele>
        <time>2019-09-04T08:34:25Z</time>
      </trkpt>
      <trkpt lat="43.2554910" lon="-6.0136100">
        <ele>226.3</ele>
        <time>2019-09-04T08:34:26Z</time>
      </trkpt>
      <trkpt lat="43.2554440" lon="-6.0136620">
        <ele>226.3</ele>
        <time>2019-09-04T08:34:27Z</time>
      </trkpt>
      <trkpt lat="43.2553980" lon="-6.0137090">
        <ele>226.3</ele>
        <time>2019-09-04T08:34:28Z</time>
      </trkpt>
      <trkpt lat="43.2553470" lon="-6.0137510">
        <ele>226.3</ele>
        <time>2019-09-04T08:34:29Z</time>
      </trkpt>
      <trkpt lat="43.2552960" lon="-6.0137910">
        <ele>226.3</ele>
        <time>2019-09-04T08:34:30Z</time>
      </trkpt>
      <trkpt lat="43.2552450" lon="-6.0138270">
        <ele>228.6</ele>
        <time>2019-09-04T08:34:31Z</time>
      </trkpt>
      <trkpt lat="43.2551880" lon="-6.0138620">
        <ele>228.6</ele>
        <time>2019-09-04T08:34:32Z</time>
      </trkpt>
      <trkpt lat="43.2551270" lon="-6.0138980">
        <ele>228.6</ele>
        <time>2019-09-04T08:34:33Z</time>
      </trkpt>
      <trkpt lat="43.2550660" lon="-6.0139320">
        <ele>228.6</ele>
        <time>2019-09-04T08:34:34Z</time>
      </trkpt>
      <trkpt lat="43.2550040" lon="-6.0139650">
        <ele>228.6</ele>
        <time>2019-09-04T08:34:35Z</time>
      </trkpt>
      <trkpt lat="43.2549480" lon="-6.0139970">
        <ele>228.6</ele>
        <time>2019-09-04T08:34:36Z</time>
      </trkpt>
      <trkpt lat="43.2548860" lon="-6.0140330">
        <ele>228.6</ele>
        <time>2019-09-04T08:34:37Z</time>
      </trkpt>
      <trkpt lat="43.2548200" lon="-6.0140670">
        <ele>228.6</ele>
        <time>2019-09-04T08:34:38Z</time>
      </trkpt>
      <trkpt lat="43.2547580" lon="-6.0141020">
        <ele>228.6</ele>
        <time>2019-09-04T08:34:39Z</time>
      </trkpt>
      <trkpt lat="43.2546970" lon="-6.0141360">
        <ele>228.6</ele>
        <time>2019-09-04T08:34:40Z</time>
      </trkpt>
      <trkpt lat="43.2545740" lon="-6.0141990">
        <ele>228.6</ele>
        <time>2019-09-04T08:34:42Z</time>
      </trkpt>
      <trkpt lat="43.2544460" lon="-6.0142520">
        <ele>228.6</ele>
        <time>2019-09-04T08:34:44Z</time>
      </trkpt>
      <trkpt lat="43.2543800" lon="-6.0142780">
        <ele>228.6</ele>
        <time>2019-09-04T08:34:45Z</time>
      </trkpt>
      <trkpt lat="43.2542520" lon="-6.0143280">
        <ele>228.6</ele>
        <time>2019-09-04T08:34:47Z</time>
      </trkpt>
      <trkpt lat="43.2541180" lon="-6.0143790">
        <ele>228.6</ele>
        <time>2019-09-04T08:34:49Z</time>
      </trkpt>
      <trkpt lat="43.2540570" lon="-6.0144060">
        <ele>228.6</ele>
        <time>2019-09-04T08:34:50Z</time>
      </trkpt>
      <trkpt lat="43.2539290" lon="-6.0144670">
        <ele>228.6</ele>
        <time>2019-09-04T08:34:52Z</time>
      </trkpt>
      <trkpt lat="43.2538680" lon="-6.0145000">
        <ele>228.6</ele>
        <time>2019-09-04T08:34:53Z</time>
      </trkpt>
      <trkpt lat="43.2538110" lon="-6.0145330">
        <ele>228.6</ele>
        <time>2019-09-04T08:34:54Z</time>
      </trkpt>
      <trkpt lat="43.2536880" lon="-6.0146120">
        <ele>228.6</ele>
        <time>2019-09-04T08:34:56Z</time>
      </trkpt>
      <trkpt lat="43.2535650" lon="-6.0146950">
        <ele>230.6</ele>
        <time>2019-09-04T08:34:58Z</time>
      </trkpt>
      <trkpt lat="43.2534480" lon="-6.0147830">
        <ele>230.6</ele>
        <time>2019-09-04T08:35:00Z</time>
      </trkpt>
      <trkpt lat="43.2533250" lon="-6.0148710">
        <ele>230.6</ele>
        <time>2019-09-04T08:35:02Z</time>
      </trkpt>
      <trkpt lat="43.2532120" lon="-6.0149560">
        <ele>230.6</ele>
        <time>2019-09-04T08:35:04Z</time>
      </trkpt>
      <trkpt lat="43.2530890" lon="-6.0150530">
        <ele>230.6</ele>
        <time>2019-09-04T08:35:06Z</time>
      </trkpt>
      <trkpt lat="43.2529660" lon="-6.0151590">
        <ele>230.6</ele>
        <time>2019-09-04T08:35:08Z</time>
      </trkpt>
      <trkpt lat="43.2529050" lon="-6.0152110">
        <ele>230.6</ele>
        <time>2019-09-04T08:35:09Z</time>
      </trkpt>
      <trkpt lat="43.2527870" lon="-6.0153140">
        <ele>230.6</ele>
        <time>2019-09-04T08:35:11Z</time>
      </trkpt>
      <trkpt lat="43.2527360" lon="-6.0153650">
        <ele>230.6</ele>
        <time>2019-09-04T08:35:12Z</time>
      </trkpt>
      <trkpt lat="43.2526750" lon="-6.0154200">
        <ele>230.6</ele>
        <time>2019-09-04T08:35:13Z</time>
      </trkpt>
      <trkpt lat="43.2526080" lon="-6.0154790">
        <ele>230.6</ele>
        <time>2019-09-04T08:35:14Z</time>
      </trkpt>
      <trkpt lat="43.2524850" lon="-6.0155960">
        <ele>230.6</ele>
        <time>2019-09-04T08:35:16Z</time>
      </trkpt>
      <trkpt lat="43.2524240" lon="-6.0156520">
        <ele>230.6</ele>
        <time>2019-09-04T08:35:17Z</time>
      </trkpt>
      <trkpt lat="43.2523620" lon="-6.0157060">
        <ele>230.6</ele>
        <time>2019-09-04T08:35:18Z</time>
      </trkpt>
      <trkpt lat="43.2523060" lon="-6.0157550">
        <ele>232.6</ele>
        <time>2019-09-04T08:35:19Z</time>
      </trkpt>
      <trkpt lat="43.2522440" lon="-6.0158090">
        <ele>232.6</ele>
        <time>2019-09-04T08:35:20Z</time>
      </trkpt>
      <trkpt lat="43.2521880" lon="-6.0158570">
        <ele>232.6</ele>
        <time>2019-09-04T08:35:21Z</time>
      </trkpt>
      <trkpt lat="43.2521270" lon="-6.0159080">
        <ele>232.6</ele>
        <time>2019-09-04T08:35:22Z</time>
      </trkpt>
      <trkpt lat="43.2520090" lon="-6.0160080">
        <ele>232.6</ele>
        <time>2019-09-04T08:35:24Z</time>
      </trkpt>
      <trkpt lat="43.2519480" lon="-6.0160560">
        <ele>232.6</ele>
        <time>2019-09-04T08:35:25Z</time>
      </trkpt>
      <trkpt lat="43.2518910" lon="-6.0161080">
        <ele>232.6</ele>
        <time>2019-09-04T08:35:26Z</time>
      </trkpt>
      <trkpt lat="43.2517790" lon="-6.0162170">
        <ele>232.6</ele>
        <time>2019-09-04T08:35:28Z</time>
      </trkpt>
      <trkpt lat="43.2516560" lon="-6.0163280">
        <ele>232.6</ele>
        <time>2019-09-04T08:35:30Z</time>
      </trkpt>
      <trkpt lat="43.2515330" lon="-6.0164270">
        <ele>232.6</ele>
        <time>2019-09-04T08:35:32Z</time>
      </trkpt>
      <trkpt lat="43.2514100" lon="-6.0165090">
        <ele>232.6</ele>
        <time>2019-09-04T08:35:34Z</time>
      </trkpt>
      <trkpt lat="43.2512820" lon="-6.0165860">
        <ele>232.6</ele>
        <time>2019-09-04T08:35:36Z</time>
      </trkpt>
      <trkpt lat="43.2511540" lon="-6.0166620">
        <ele>232.6</ele>
        <time>2019-09-04T08:35:38Z</time>
      </trkpt>
      <trkpt lat="43.2510310" lon="-6.0167420">
        <ele>232.6</ele>
        <time>2019-09-04T08:35:40Z</time>
      </trkpt>
      <trkpt lat="43.2508980" lon="-6.0168510">
        <ele>232.6</ele>
        <time>2019-09-04T08:35:42Z</time>
      </trkpt>
      <trkpt lat="43.2507850" lon="-6.0169700">
        <ele>232.6</ele>
        <time>2019-09-04T08:35:44Z</time>
      </trkpt>
      <trkpt lat="43.2507340" lon="-6.0170310">
        <ele>232.6</ele>
        <time>2019-09-04T08:35:45Z</time>
      </trkpt>
      <trkpt lat="43.2506780" lon="-6.0170920">
        <ele>234.7</ele>
        <time>2019-09-04T08:35:46Z</time>
      </trkpt>
      <trkpt lat="43.2505750" lon="-6.0172140">
        <ele>234.7</ele>
        <time>2019-09-04T08:35:48Z</time>
      </trkpt>
      <trkpt lat="43.2505240" lon="-6.0172800">
        <ele>234.7</ele>
        <time>2019-09-04T08:35:49Z</time>
      </trkpt>
      <trkpt lat="43.2504780" lon="-6.0173470">
        <ele>234.7</ele>
        <time>2019-09-04T08:35:50Z</time>
      </trkpt>
      <trkpt lat="43.2504220" lon="-6.0174110">
        <ele>234.7</ele>
        <time>2019-09-04T08:35:51Z</time>
      </trkpt>
      <trkpt lat="43.2503190" lon="-6.0175420">
        <ele>234.7</ele>
        <time>2019-09-04T08:35:53Z</time>
      </trkpt>
      <trkpt lat="43.2502680" lon="-6.0176090">
        <ele>234.7</ele>
        <time>2019-09-04T08:35:54Z</time>
      </trkpt>
      <trkpt lat="43.2502170" lon="-6.0176720">
        <ele>234.7</ele>
        <time>2019-09-04T08:35:55Z</time>
      </trkpt>
      <trkpt lat="43.2501040" lon="-6.0178110">
        <ele>234.7</ele>
        <time>2019-09-04T08:35:57Z</time>
      </trkpt>
      <trkpt lat="43.2500480" lon="-6.0178980">
        <ele>234.7</ele>
        <time>2019-09-04T08:35:58Z</time>
      </trkpt>
      <trkpt lat="43.2499250" lon="-6.0180480">
        <ele>234.7</ele>
        <time>2019-09-04T08:36:00Z</time>
      </trkpt>
      <trkpt lat="43.2498690" lon="-6.0181230">
        <ele>234.7</ele>
        <time>2019-09-04T08:36:01Z</time>
      </trkpt>
      <trkpt lat="43.2498180" lon="-6.0182020">
        <ele>234.7</ele>
        <time>2019-09-04T08:36:02Z</time>
      </trkpt>
      <trkpt lat="43.2497720" lon="-6.0182880">
        <ele>234.7</ele>
        <time>2019-09-04T08:36:03Z</time>
      </trkpt>
      <trkpt lat="43.2497310" lon="-6.0183800">
        <ele>234.7</ele>
        <time>2019-09-04T08:36:04Z</time>
      </trkpt>
      <trkpt lat="43.2497000" lon="-6.0184780">
        <ele>234.7</ele>
        <time>2019-09-04T08:36:05Z</time>
      </trkpt>
      <trkpt lat="43.2496690" lon="-6.0185850">
        <ele>234.7</ele>
        <time>2019-09-04T08:36:06Z</time>
      </trkpt>
      <trkpt lat="43.2496440" lon="-6.0186970">
        <ele>237.0</ele>
        <time>2019-09-04T08:36:07Z</time>
      </trkpt>
      <trkpt lat="43.2496180" lon="-6.0188120">
        <ele>237.0</ele>
        <time>2019-09-04T08:36:08Z</time>
      </trkpt>
      <trkpt lat="43.2495970" lon="-6.0190500">
        <ele>237.0</ele>
        <time>2019-09-04T08:36:10Z</time>
      </trkpt>
      <trkpt lat="43.2495970" lon="-6.0191710">
        <ele>237.0</ele>
        <time>2019-09-04T08:36:11Z</time>
      </trkpt>
      <trkpt lat="43.2496080" lon="-6.0192930">
        <ele>237.0</ele>
        <time>2019-09-04T08:36:12Z</time>
      </trkpt>
      <trkpt lat="43.2496180" lon="-6.0194150">
        <ele>237.0</ele>
        <time>2019-09-04T08:36:13Z</time>
      </trkpt>
      <trkpt lat="43.2496330" lon="-6.0195370">
        <ele>237.0</ele>
        <time>2019-09-04T08:36:14Z</time>
      </trkpt>
      <trkpt lat="43.2496540" lon="-6.0196480">
        <ele>237.0</ele>
        <time>2019-09-04T08:36:15Z</time>
      </trkpt>
      <trkpt lat="43.2496690" lon="-6.0197640">
        <ele>237.0</ele>
        <time>2019-09-04T08:36:16Z</time>
      </trkpt>
      <trkpt lat="43.2496840" lon="-6.0198750">
        <ele>237.0</ele>
        <time>2019-09-04T08:36:17Z</time>
      </trkpt>
      <trkpt lat="43.2497050" lon="-6.0199760">
        <ele>237.0</ele>
        <time>2019-09-04T08:36:18Z</time>
      </trkpt>
      <trkpt lat="43.2497250" lon="-6.0200820">
        <ele>237.0</ele>
        <time>2019-09-04T08:36:19Z</time>
      </trkpt>
      <trkpt lat="43.2497460" lon="-6.0201820">
        <ele>237.0</ele>
        <time>2019-09-04T08:36:20Z</time>
      </trkpt>
      <trkpt lat="43.2497770" lon="-6.0202760">
        <ele>237.0</ele>
        <time>2019-09-04T08:36:21Z</time>
      </trkpt>
      <trkpt lat="43.2498380" lon="-6.0204420">
        <ele>237.0</ele>
        <time>2019-09-04T08:36:23Z</time>
      </trkpt>
      <trkpt lat="43.2498590" lon="-6.0205270">
        <ele>237.0</ele>
        <time>2019-09-04T08:36:24Z</time>
      </trkpt>
      <trkpt lat="43.2498740" lon="-6.0206160">
        <ele>237.0</ele>
        <time>2019-09-04T08:36:25Z</time>
      </trkpt>
      <trkpt lat="43.2498890" lon="-6.0207160">
        <ele>237.0</ele>
        <time>2019-09-04T08:36:26Z</time>
      </trkpt>
      <trkpt lat="43.2499150" lon="-6.0209100">
        <ele>237.0</ele>
        <time>2019-09-04T08:36:28Z</time>
      </trkpt>
      <trkpt lat="43.2499200" lon="-6.0210070">
        <ele>237.0</ele>
        <time>2019-09-04T08:36:29Z</time>
      </trkpt>
      <trkpt lat="43.2499150" lon="-6.0211960">
        <ele>237.0</ele>
        <time>2019-09-04T08:36:31Z</time>
      </trkpt>
      <trkpt lat="43.2499050" lon="-6.0213930">
        <ele>237.0</ele>
        <time>2019-09-04T08:36:33Z</time>
      </trkpt>
      <trkpt lat="43.2498940" lon="-6.0215960">
        <ele>237.0</ele>
        <time>2019-09-04T08:36:35Z</time>
      </trkpt>
      <trkpt lat="43.2499100" lon="-6.0217790">
        <ele>237.0</ele>
        <time>2019-09-04T08:36:37Z</time>
      </trkpt>
      <trkpt lat="43.2499460" lon="-6.0219770">
        <ele>239.3</ele>
        <time>2019-09-04T08:36:39Z</time>
      </trkpt>
      <trkpt lat="43.2499710" lon="-6.0220790">
        <ele>239.3</ele>
        <time>2019-09-04T08:36:40Z</time>
      </trkpt>
      <trkpt lat="43.2500170" lon="-6.0222720">
        <ele>239.3</ele>
        <time>2019-09-04T08:36:42Z</time>
      </trkpt>
      <trkpt lat="43.2500480" lon="-6.0223740">
        <ele>239.3</ele>
        <time>2019-09-04T08:36:43Z</time>
      </trkpt>
      <trkpt lat="43.2500740" lon="-6.0224710">
        <ele>239.3</ele>
        <time>2019-09-04T08:36:44Z</time>
      </trkpt>
      <trkpt lat="43.2500940" lon="-6.0225730">
        <ele>239.3</ele>
        <time>2019-09-04T08:36:45Z</time>
      </trkpt>
      <trkpt lat="43.2501150" lon="-6.0226660">
        <ele>239.3</ele>
        <time>2019-09-04T08:36:46Z</time>
      </trkpt>
      <trkpt lat="43.2501350" lon="-6.0227580">
        <ele>239.3</ele>
        <time>2019-09-04T08:36:47Z</time>
      </trkpt>
      <trkpt lat="43.2501400" lon="-6.0228580">
        <ele>239.3</ele>
        <time>2019-09-04T08:36:48Z</time>
      </trkpt>
      <trkpt lat="43.2501400" lon="-6.0229640">
        <ele>239.3</ele>
        <time>2019-09-04T08:36:49Z</time>
      </trkpt>
      <trkpt lat="43.2501350" lon="-6.0230630">
        <ele>239.3</ele>
        <time>2019-09-04T08:36:50Z</time>
      </trkpt>
      <trkpt lat="43.2501200" lon="-6.0231680">
        <ele>239.3</ele>
        <time>2019-09-04T08:36:51Z</time>
      </trkpt>
      <trkpt lat="43.2500940" lon="-6.0232630">
        <ele>239.3</ele>
        <time>2019-09-04T08:36:52Z</time>
      </trkpt>
      <trkpt lat="43.2500680" lon="-6.0233500">
        <ele>239.3</ele>
        <time>2019-09-04T08:36:53Z</time>
      </trkpt>
      <trkpt lat="43.2500380" lon="-6.0234340">
        <ele>239.3</ele>
        <time>2019-09-04T08:36:54Z</time>
      </trkpt>
      <trkpt lat="43.2499710" lon="-6.0235850">
        <ele>239.3</ele>
        <time>2019-09-04T08:36:56Z</time>
      </trkpt>
      <trkpt lat="43.2499250" lon="-6.0236560">
        <ele>239.3</ele>
        <time>2019-09-04T08:36:57Z</time>
      </trkpt>
      <trkpt lat="43.2498280" lon="-6.0237820">
        <ele>239.3</ele>
        <time>2019-09-04T08:36:59Z</time>
      </trkpt>
      <trkpt lat="43.2497150" lon="-6.0238730">
        <ele>239.3</ele>
        <time>2019-09-04T08:37:01Z</time>
      </trkpt>
      <trkpt lat="43.2496590" lon="-6.0239120">
        <ele>239.3</ele>
        <time>2019-09-04T08:37:02Z</time>
      </trkpt>
      <trkpt lat="43.2495210" lon="-6.0239780">
        <ele>239.3</ele>
        <time>2019-09-04T08:37:04Z</time>
      </trkpt>
      <trkpt lat="43.2493930" lon="-6.0240230">
        <ele>239.3</ele>
        <time>2019-09-04T08:37:06Z</time>
      </trkpt>
      <trkpt lat="43.2493260" lon="-6.0240430">
        <ele>239.3</ele>
        <time>2019-09-04T08:37:07Z</time>
      </trkpt>
      <trkpt lat="43.2491880" lon="-6.0240810">
        <ele>239.3</ele>
        <time>2019-09-04T08:37:09Z</time>
      </trkpt>
      <trkpt lat="43.2491160" lon="-6.0240980">
        <ele>239.3</ele>
        <time>2019-09-04T08:37:10Z</time>
      </trkpt>
      <trkpt lat="43.2490440" lon="-6.0241130">
        <ele>241.8</ele>
        <time>2019-09-04T08:37:11Z</time>
      </trkpt>
      <trkpt lat="43.2489060" lon="-6.0241390">
        <ele>241.8</ele>
        <time>2019-09-04T08:37:13Z</time>
      </trkpt>
      <trkpt lat="43.2487680" lon="-6.0241640">
        <ele>241.8</ele>
        <time>2019-09-04T08:37:15Z</time>
      </trkpt>
      <trkpt lat="43.2486300" lon="-6.0241840">
        <ele>241.8</ele>
        <time>2019-09-04T08:37:17Z</time>
      </trkpt>
      <trkpt lat="43.2484920" lon="-6.0242040">
        <ele>241.8</ele>
        <time>2019-09-04T08:37:19Z</time>
      </trkpt>
      <trkpt lat="43.2484200" lon="-6.0242150">
        <ele>241.8</ele>
        <time>2019-09-04T08:37:20Z</time>
      </trkpt>
      <trkpt lat="43.2483530" lon="-6.0242250">
        <ele>241.8</ele>
        <time>2019-09-04T08:37:21Z</time>
      </trkpt>
      <trkpt lat="43.2482820" lon="-6.0242370">
        <ele>241.8</ele>
        <time>2019-09-04T08:37:22Z</time>
      </trkpt>
      <trkpt lat="43.2482150" lon="-6.0242500">
        <ele>241.8</ele>
        <time>2019-09-04T08:37:23Z</time>
      </trkpt>
      <trkpt lat="43.2481430" lon="-6.0242650">
        <ele>241.8</ele>
        <time>2019-09-04T08:37:24Z</time>
      </trkpt>
      <trkpt lat="43.2480720" lon="-6.0242800">
        <ele>241.8</ele>
        <time>2019-09-04T08:37:25Z</time>
      </trkpt>
      <trkpt lat="43.2480100" lon="-6.0242930">
        <ele>241.8</ele>
        <time>2019-09-04T08:37:26Z</time>
      </trkpt>
      <trkpt lat="43.2479440" lon="-6.0243060">
        <ele>241.8</ele>
        <time>2019-09-04T08:37:27Z</time>
      </trkpt>
      <trkpt lat="43.2478770" lon="-6.0243190">
        <ele>241.8</ele>
        <time>2019-09-04T08:37:28Z</time>
      </trkpt>
      <trkpt lat="43.2477390" lon="-6.0243460">
        <ele>241.8</ele>
        <time>2019-09-04T08:37:30Z</time>
      </trkpt>
      <trkpt lat="43.2475960" lon="-6.0243760">
        <ele>241.8</ele>
        <time>2019-09-04T08:37:32Z</time>
      </trkpt>
      <trkpt lat="43.2475240" lon="-6.0243900">
        <ele>241.8</ele>
        <time>2019-09-04T08:37:33Z</time>
      </trkpt>
      <trkpt lat="43.2473960" lon="-6.0244190">
        <ele>241.8</ele>
        <time>2019-09-04T08:37:35Z</time>
      </trkpt>
      <trkpt lat="43.2472580" lon="-6.0244470">
        <ele>241.8</ele>
        <time>2019-09-04T08:37:37Z</time>
      </trkpt>
      <trkpt lat="43.2471910" lon="-6.0244610">
        <ele>241.8</ele>
        <time>2019-09-04T08:37:38Z</time>
      </trkpt>
      <trkpt lat="43.2471190" lon="-6.0244740">
        <ele>241.8</ele>
        <time>2019-09-04T08:37:39Z</time>
      </trkpt>
      <trkpt lat="43.2470530" lon="-6.0244880">
        <ele>241.8</ele>
        <time>2019-09-04T08:37:40Z</time>
      </trkpt>
      <trkpt lat="43.2469810" lon="-6.0245060">
        <ele>241.8</ele>
        <time>2019-09-04T08:37:41Z</time>
      </trkpt>
      <trkpt lat="43.2469200" lon="-6.0245260">
        <ele>241.8</ele>
        <time>2019-09-04T08:37:42Z</time>
      </trkpt>
      <trkpt lat="43.2468480" lon="-6.0245520">
        <ele>243.9</ele>
        <time>2019-09-04T08:37:43Z</time>
      </trkpt>
      <trkpt lat="43.2467870" lon="-6.0245800">
        <ele>243.9</ele>
        <time>2019-09-04T08:37:44Z</time>
      </trkpt>
      <trkpt lat="43.2467200" lon="-6.0246130">
        <ele>243.9</ele>
        <time>2019-09-04T08:37:45Z</time>
      </trkpt>
      <trkpt lat="43.2466530" lon="-6.0246480">
        <ele>243.9</ele>
        <time>2019-09-04T08:37:46Z</time>
      </trkpt>
      <trkpt lat="43.2465920" lon="-6.0246840">
        <ele>243.9</ele>
        <time>2019-09-04T08:37:47Z</time>
      </trkpt>
      <trkpt lat="43.2465310" lon="-6.0247190">
        <ele>243.9</ele>
        <time>2019-09-04T08:37:48Z</time>
      </trkpt>
      <trkpt lat="43.2464640" lon="-6.0247530">
        <ele>243.9</ele>
        <time>2019-09-04T08:37:49Z</time>
      </trkpt>
      <trkpt lat="43.2464080" lon="-6.0247830">
        <ele>243.9</ele>
        <time>2019-09-04T08:37:50Z</time>
      </trkpt>
      <trkpt lat="43.2463410" lon="-6.0248100">
        <ele>243.9</ele>
        <time>2019-09-04T08:37:51Z</time>
      </trkpt>
      <trkpt lat="43.2462800" lon="-6.0248350">
        <ele>243.9</ele>
        <time>2019-09-04T08:37:52Z</time>
      </trkpt>
      <trkpt lat="43.2461520" lon="-6.0248730">
        <ele>243.9</ele>
        <time>2019-09-04T08:37:54Z</time>
      </trkpt>
      <trkpt lat="43.2460850" lon="-6.0248860">
        <ele>243.9</ele>
        <time>2019-09-04T08:37:55Z</time>
      </trkpt>
      <trkpt lat="43.2460130" lon="-6.0248950">
        <ele>243.9</ele>
        <time>2019-09-04T08:37:56Z</time>
      </trkpt>
      <trkpt lat="43.2458750" lon="-6.0248970">
        <ele>243.9</ele>
        <time>2019-09-04T08:37:58Z</time>
      </trkpt>
      <trkpt lat="43.2458040" lon="-6.0248940">
        <ele>243.9</ele>
        <time>2019-09-04T08:37:59Z</time>
      </trkpt>
      <trkpt lat="43.2457370" lon="-6.0248880">
        <ele>243.9</ele>
        <time>2019-09-04T08:38:00Z</time>
      </trkpt>
      <trkpt lat="43.2455990" lon="-6.0248720">
        <ele>243.9</ele>
        <time>2019-09-04T08:38:02Z</time>
      </trkpt>
      <trkpt lat="43.2454600" lon="-6.0248540">
        <ele>243.9</ele>
        <time>2019-09-04T08:38:04Z</time>
      </trkpt>
      <trkpt lat="43.2453940" lon="-6.0248440">
        <ele>243.9</ele>
        <time>2019-09-04T08:38:05Z</time>
      </trkpt>
      <trkpt lat="43.2453220" lon="-6.0248340">
        <ele>243.9</ele>
        <time>2019-09-04T08:38:06Z</time>
      </trkpt>
      <trkpt lat="43.2452560" lon="-6.0248220">
        <ele>243.9</ele>
        <time>2019-09-04T08:38:07Z</time>
      </trkpt>
      <trkpt lat="43.2451840" lon="-6.0248100">
        <ele>243.9</ele>
        <time>2019-09-04T08:38:08Z</time>
      </trkpt>
      <trkpt lat="43.2451120" lon="-6.0247980">
        <ele>243.9</ele>
        <time>2019-09-04T08:38:09Z</time>
      </trkpt>
      <trkpt lat="43.2450410" lon="-6.0247870">
        <ele>243.9</ele>
        <time>2019-09-04T08:38:10Z</time>
      </trkpt>
      <trkpt lat="43.2448970" lon="-6.0247670">
        <ele>243.9</ele>
        <time>2019-09-04T08:38:12Z</time>
      </trkpt>
      <trkpt lat="43.2448260" lon="-6.0247590">
        <ele>243.9</ele>
        <time>2019-09-04T08:38:13Z</time>
      </trkpt>
      <trkpt lat="43.2447540" lon="-6.0247550">
        <ele>243.9</ele>
        <time>2019-09-04T08:38:14Z</time>
      </trkpt>
      <trkpt lat="43.2446870" lon="-6.0247560">
        <ele>246.1</ele>
        <time>2019-09-04T08:38:15Z</time>
      </trkpt>
      <trkpt lat="43.2446160" lon="-6.0247620">
        <ele>246.1</ele>
        <time>2019-09-04T08:38:16Z</time>
      </trkpt>
      <trkpt lat="43.2445440" lon="-6.0247730">
        <ele>246.1</ele>
        <time>2019-09-04T08:38:17Z</time>
      </trkpt>
      <trkpt lat="43.2444770" lon="-6.0247900">
        <ele>246.1</ele>
        <time>2019-09-04T08:38:18Z</time>
      </trkpt>
      <trkpt lat="43.2444060" lon="-6.0248130">
        <ele>246.1</ele>
        <time>2019-09-04T08:38:19Z</time>
      </trkpt>
      <trkpt lat="43.2443440" lon="-6.0248380">
        <ele>246.1</ele>
        <time>2019-09-04T08:38:20Z</time>
      </trkpt>
      <trkpt lat="43.2442880" lon="-6.0248680">
        <ele>246.1</ele>
        <time>2019-09-04T08:38:21Z</time>
      </trkpt>
      <trkpt lat="43.2442210" lon="-6.0249040">
        <ele>246.1</ele>
        <time>2019-09-04T08:38:22Z</time>
      </trkpt>
      <trkpt lat="43.2441550" lon="-6.0249450">
        <ele>246.1</ele>
        <time>2019-09-04T08:38:23Z</time>
      </trkpt>
      <trkpt lat="43.2440930" lon="-6.0249880">
        <ele>246.1</ele>
        <time>2019-09-04T08:38:24Z</time>
      </trkpt>
      <trkpt lat="43.2440320" lon="-6.0250300">
        <ele>246.1</ele>
        <time>2019-09-04T08:38:25Z</time>
      </trkpt>
      <trkpt lat="43.2439710" lon="-6.0250730">
        <ele>246.1</ele>
        <time>2019-09-04T08:38:26Z</time>
      </trkpt>
      <trkpt lat="43.2439090" lon="-6.0251200">
        <ele>246.1</ele>
        <time>2019-09-04T08:38:27Z</time>
      </trkpt>
      <trkpt lat="43.2437860" lon="-6.0252140">
        <ele>246.1</ele>
        <time>2019-09-04T08:38:29Z</time>
      </trkpt>
      <trkpt lat="43.2437250" lon="-6.0252610">
        <ele>246.1</ele>
        <time>2019-09-04T08:38:30Z</time>
      </trkpt>
      <trkpt lat="43.2436120" lon="-6.0253480">
        <ele>246.1</ele>
        <time>2019-09-04T08:38:32Z</time>
      </trkpt>
      <trkpt lat="43.2434840" lon="-6.0254440">
        <ele>246.1</ele>
        <time>2019-09-04T08:38:34Z</time>
      </trkpt>
      <trkpt lat="43.2434230" lon="-6.0254910">
        <ele>246.1</ele>
        <time>2019-09-04T08:38:35Z</time>
      </trkpt>
      <trkpt lat="43.2433610" lon="-6.0255390">
        <ele>246.1</ele>
        <time>2019-09-04T08:38:36Z</time>
      </trkpt>
      <trkpt lat="43.2433000" lon="-6.0255870">
        <ele>246.1</ele>
        <time>2019-09-04T08:38:37Z</time>
      </trkpt>
      <trkpt lat="43.2432490" lon="-6.0256330">
        <ele>246.1</ele>
        <time>2019-09-04T08:38:38Z</time>
      </trkpt>
      <trkpt lat="43.2431870" lon="-6.0256830">
        <ele>246.1</ele>
        <time>2019-09-04T08:38:39Z</time>
      </trkpt>
      <trkpt lat="43.2431360" lon="-6.0257330">
        <ele>246.1</ele>
        <time>2019-09-04T08:38:40Z</time>
      </trkpt>
      <trkpt lat="43.2430750" lon="-6.0257910">
        <ele>246.1</ele>
        <time>2019-09-04T08:38:41Z</time>
      </trkpt>
      <trkpt lat="43.2430180" lon="-6.0258520">
        <ele>246.1</ele>
        <time>2019-09-04T08:38:42Z</time>
      </trkpt>
      <trkpt lat="43.2429670" lon="-6.0259170">
        <ele>246.1</ele>
        <time>2019-09-04T08:38:43Z</time>
      </trkpt>
      <trkpt lat="43.2429160" lon="-6.0259840">
        <ele>246.1</ele>
        <time>2019-09-04T08:38:44Z</time>
      </trkpt>
      <trkpt lat="43.2428700" lon="-6.0260470">
        <ele>246.1</ele>
        <time>2019-09-04T08:38:45Z</time>
      </trkpt>
      <trkpt lat="43.2428240" lon="-6.0261130">
        <ele>246.1</ele>
        <time>2019-09-04T08:38:46Z</time>
      </trkpt>
      <trkpt lat="43.2427720" lon="-6.0261850">
        <ele>246.1</ele>
        <time>2019-09-04T08:38:47Z</time>
      </trkpt>
      <trkpt lat="43.2427320" lon="-6.0262530">
        <ele>246.1</ele>
        <time>2019-09-04T08:38:48Z</time>
      </trkpt>
      <trkpt lat="43.2426390" lon="-6.0263970">
        <ele>246.1</ele>
        <time>2019-09-04T08:38:50Z</time>
      </trkpt>
      <trkpt lat="43.2425930" lon="-6.0264720">
        <ele>246.1</ele>
        <time>2019-09-04T08:38:51Z</time>
      </trkpt>
      <trkpt lat="43.2425470" lon="-6.0265410">
        <ele>246.1</ele>
        <time>2019-09-04T08:38:52Z</time>
      </trkpt>
      <trkpt lat="43.2425010" lon="-6.0266140">
        <ele>246.1</ele>
        <time>2019-09-04T08:38:53Z</time>
      </trkpt>
      <trkpt lat="43.2424550" lon="-6.0266850">
        <ele>246.1</ele>
        <time>2019-09-04T08:38:54Z</time>
      </trkpt>
      <trkpt lat="43.2424090" lon="-6.0267550">
        <ele>246.1</ele>
        <time>2019-09-04T08:38:55Z</time>
      </trkpt>
      <trkpt lat="43.2423630" lon="-6.0268220">
        <ele>246.1</ele>
        <time>2019-09-04T08:38:56Z</time>
      </trkpt>
      <trkpt lat="43.2423220" lon="-6.0268830">
        <ele>246.1</ele>
        <time>2019-09-04T08:38:57Z</time>
      </trkpt>
      <trkpt lat="43.2422300" lon="-6.0270060">
        <ele>246.1</ele>
        <time>2019-09-04T08:38:59Z</time>
      </trkpt>
      <trkpt lat="43.2421790" lon="-6.0270710">
        <ele>246.1</ele>
        <time>2019-09-04T08:39:00Z</time>
      </trkpt>
      <trkpt lat="43.2421320" lon="-6.0271300">
        <ele>246.1</ele>
        <time>2019-09-04T08:39:01Z</time>
      </trkpt>
      <trkpt lat="43.2420760" lon="-6.0271910">
        <ele>248.1</ele>
        <time>2019-09-04T08:39:02Z</time>
      </trkpt>
      <trkpt lat="43.2420250" lon="-6.0272500">
        <ele>248.1</ele>
        <time>2019-09-04T08:39:03Z</time>
      </trkpt>
      <trkpt lat="43.2419690" lon="-6.0273060">
        <ele>248.1</ele>
        <time>2019-09-04T08:39:04Z</time>
      </trkpt>
      <trkpt lat="43.2419170" lon="-6.0273610">
        <ele>248.1</ele>
        <time>2019-09-04T08:39:05Z</time>
      </trkpt>
      <trkpt lat="43.2418610" lon="-6.0274120">
        <ele>248.1</ele>
        <time>2019-09-04T08:39:06Z</time>
      </trkpt>
      <trkpt lat="43.2418100" lon="-6.0274660">
        <ele>248.1</ele>
        <time>2019-09-04T08:39:07Z</time>
      </trkpt>
      <trkpt lat="43.2417590" lon="-6.0275160">
        <ele>248.1</ele>
        <time>2019-09-04T08:39:08Z</time>
      </trkpt>
      <trkpt lat="43.2417020" lon="-6.0275650">
        <ele>248.1</ele>
        <time>2019-09-04T08:39:09Z</time>
      </trkpt>
      <trkpt lat="43.2416460" lon="-6.0276140">
        <ele>248.1</ele>
        <time>2019-09-04T08:39:10Z</time>
      </trkpt>
      <trkpt lat="43.2415950" lon="-6.0276650">
        <ele>248.1</ele>
        <time>2019-09-04T08:39:11Z</time>
      </trkpt>
      <trkpt lat="43.2415330" lon="-6.0277180">
        <ele>248.1</ele>
        <time>2019-09-04T08:39:12Z</time>
      </trkpt>
      <trkpt lat="43.2414770" lon="-6.0277700">
        <ele>248.1</ele>
        <time>2019-09-04T08:39:13Z</time>
      </trkpt>
      <trkpt lat="43.2414260" lon="-6.0278230">
        <ele>248.1</ele>
        <time>2019-09-04T08:39:14Z</time>
      </trkpt>
      <trkpt lat="43.2413180" lon="-6.0279410">
        <ele>248.1</ele>
        <time>2019-09-04T08:39:16Z</time>
      </trkpt>
      <trkpt lat="43.2412210" lon="-6.0280710">
        <ele>248.1</ele>
        <time>2019-09-04T08:39:18Z</time>
      </trkpt>
      <trkpt lat="43.2411800" lon="-6.0281410">
        <ele>248.1</ele>
        <time>2019-09-04T08:39:19Z</time>
      </trkpt>
      <trkpt lat="43.2411390" lon="-6.0282140">
        <ele>248.1</ele>
        <time>2019-09-04T08:39:20Z</time>
      </trkpt>
      <trkpt lat="43.2410980" lon="-6.0282910">
        <ele>248.1</ele>
        <time>2019-09-04T08:39:21Z</time>
      </trkpt>
      <trkpt lat="43.2410680" lon="-6.0283690">
        <ele>248.1</ele>
        <time>2019-09-04T08:39:22Z</time>
      </trkpt>
      <trkpt lat="43.2410370" lon="-6.0284440">
        <ele>248.1</ele>
        <time>2019-09-04T08:39:23Z</time>
      </trkpt>
      <trkpt lat="43.2410060" lon="-6.0285270">
        <ele>248.1</ele>
        <time>2019-09-04T08:39:24Z</time>
      </trkpt>
      <trkpt lat="43.2409800" lon="-6.0286120">
        <ele>248.1</ele>
        <time>2019-09-04T08:39:25Z</time>
      </trkpt>
      <trkpt lat="43.2409290" lon="-6.0287800">
        <ele>248.1</ele>
        <time>2019-09-04T08:39:27Z</time>
      </trkpt>
      <trkpt lat="43.2408830" lon="-6.0289540">
        <ele>248.1</ele>
        <time>2019-09-04T08:39:29Z</time>
      </trkpt>
      <trkpt lat="43.2408580" lon="-6.0290440">
        <ele>248.1</ele>
        <time>2019-09-04T08:39:30Z</time>
      </trkpt>
      <trkpt lat="43.2408170" lon="-6.0292170">
        <ele>248.1</ele>
        <time>2019-09-04T08:39:32Z</time>
      </trkpt>
      <trkpt lat="43.2407960" lon="-6.0293070">
        <ele>248.1</ele>
        <time>2019-09-04T08:39:33Z</time>
      </trkpt>
      <trkpt lat="43.2407710" lon="-6.0293960">
        <ele>248.1</ele>
        <time>2019-09-04T08:39:34Z</time>
      </trkpt>
      <trkpt lat="43.2407500" lon="-6.0294840">
        <ele>250.3</ele>
        <time>2019-09-04T08:39:35Z</time>
      </trkpt>
      <trkpt lat="43.2407240" lon="-6.0295720">
        <ele>250.3</ele>
        <time>2019-09-04T08:39:36Z</time>
      </trkpt>
      <trkpt lat="43.2406780" lon="-6.0297430">
        <ele>250.3</ele>
        <time>2019-09-04T08:39:38Z</time>
      </trkpt>
      <trkpt lat="43.2406530" lon="-6.0298280">
        <ele>250.3</ele>
        <time>2019-09-04T08:39:39Z</time>
      </trkpt>
      <trkpt lat="43.2406320" lon="-6.0299060">
        <ele>250.3</ele>
        <time>2019-09-04T08:39:40Z</time>
      </trkpt>
      <trkpt lat="43.2406070" lon="-6.0299910">
        <ele>250.3</ele>
        <time>2019-09-04T08:39:41Z</time>
      </trkpt>
      <trkpt lat="43.2405760" lon="-6.0300740">
        <ele>250.3</ele>
        <time>2019-09-04T08:39:42Z</time>
      </trkpt>
      <trkpt lat="43.2405450" lon="-6.0301490">
        <ele>250.3</ele>
        <time>2019-09-04T08:39:43Z</time>
      </trkpt>
      <trkpt lat="43.2405150" lon="-6.0302240">
        <ele>250.3</ele>
        <time>2019-09-04T08:39:44Z</time>
      </trkpt>
      <trkpt lat="43.2404740" lon="-6.0303010">
        <ele>250.3</ele>
        <time>2019-09-04T08:39:45Z</time>
      </trkpt>
      <trkpt lat="43.2403920" lon="-6.0304490">
        <ele>250.3</ele>
        <time>2019-09-04T08:39:47Z</time>
      </trkpt>
      <trkpt lat="43.2403510" lon="-6.0305130">
        <ele>250.3</ele>
        <time>2019-09-04T08:39:48Z</time>
      </trkpt>
      <trkpt lat="43.2403050" lon="-6.0305740">
        <ele>250.3</ele>
        <time>2019-09-04T08:39:49Z</time>
      </trkpt>
      <trkpt lat="43.2402590" lon="-6.0306330">
        <ele>250.3</ele>
        <time>2019-09-04T08:39:50Z</time>
      </trkpt>
      <trkpt lat="43.2402070" lon="-6.0306890">
        <ele>250.3</ele>
        <time>2019-09-04T08:39:51Z</time>
      </trkpt>
      <trkpt lat="43.2401560" lon="-6.0307460">
        <ele>250.3</ele>
        <time>2019-09-04T08:39:52Z</time>
      </trkpt>
      <trkpt lat="43.2400950" lon="-6.0307970">
        <ele>250.3</ele>
        <time>2019-09-04T08:39:53Z</time>
      </trkpt>
      <trkpt lat="43.2400380" lon="-6.0308450">
        <ele>250.3</ele>
        <time>2019-09-04T08:39:54Z</time>
      </trkpt>
      <trkpt lat="43.2399820" lon="-6.0308860">
        <ele>250.3</ele>
        <time>2019-09-04T08:39:55Z</time>
      </trkpt>
      <trkpt lat="43.2399260" lon="-6.0309230">
        <ele>250.3</ele>
        <time>2019-09-04T08:39:56Z</time>
      </trkpt>
      <trkpt lat="43.2398640" lon="-6.0309590">
        <ele>250.3</ele>
        <time>2019-09-04T08:39:57Z</time>
      </trkpt>
      <trkpt lat="43.2398030" lon="-6.0309890">
        <ele>250.3</ele>
        <time>2019-09-04T08:39:58Z</time>
      </trkpt>
      <trkpt lat="43.2396750" lon="-6.0310390">
        <ele>250.3</ele>
        <time>2019-09-04T08:40:00Z</time>
      </trkpt>
      <trkpt lat="43.2396190" lon="-6.0310560">
        <ele>250.3</ele>
        <time>2019-09-04T08:40:01Z</time>
      </trkpt>
      <trkpt lat="43.2395520" lon="-6.0310700">
        <ele>250.3</ele>
        <time>2019-09-04T08:40:02Z</time>
      </trkpt>
      <trkpt lat="43.2394800" lon="-6.0310810">
        <ele>250.3</ele>
        <time>2019-09-04T08:40:03Z</time>
      </trkpt>
      <trkpt lat="43.2393520" lon="-6.0310870">
        <ele>250.3</ele>
        <time>2019-09-04T08:40:05Z</time>
      </trkpt>
      <trkpt lat="43.2392910" lon="-6.0310820">
        <ele>250.3</ele>
        <time>2019-09-04T08:40:06Z</time>
      </trkpt>
      <trkpt lat="43.2392290" lon="-6.0310750">
        <ele>250.3</ele>
        <time>2019-09-04T08:40:07Z</time>
      </trkpt>
      <trkpt lat="43.2391680" lon="-6.0310640">
        <ele>250.3</ele>
        <time>2019-09-04T08:40:08Z</time>
      </trkpt>
      <trkpt lat="43.2391010" lon="-6.0310460">
        <ele>250.3</ele>
        <time>2019-09-04T08:40:09Z</time>
      </trkpt>
      <trkpt lat="43.2390350" lon="-6.0310260">
        <ele>250.3</ele>
        <time>2019-09-04T08:40:10Z</time>
      </trkpt>
      <trkpt lat="43.2389730" lon="-6.0310020">
        <ele>250.3</ele>
        <time>2019-09-04T08:40:11Z</time>
      </trkpt>
      <trkpt lat="43.2389120" lon="-6.0309760">
        <ele>250.3</ele>
        <time>2019-09-04T08:40:12Z</time>
      </trkpt>
      <trkpt lat="43.2388510" lon="-6.0309490">
        <ele>250.3</ele>
        <time>2019-09-04T08:40:13Z</time>
      </trkpt>
      <trkpt lat="43.2387890" lon="-6.0309200">
        <ele>250.3</ele>
        <time>2019-09-04T08:40:14Z</time>
      </trkpt>
      <trkpt lat="43.2387280" lon="-6.0308900">
        <ele>250.3</ele>
        <time>2019-09-04T08:40:15Z</time>
      </trkpt>
      <trkpt lat="43.2386660" lon="-6.0308600">
        <ele>250.3</ele>
        <time>2019-09-04T08:40:16Z</time>
      </trkpt>
      <trkpt lat="43.2386000" lon="-6.0308290">
        <ele>250.3</ele>
        <time>2019-09-04T08:40:17Z</time>
      </trkpt>
      <trkpt lat="43.2385380" lon="-6.0307990">
        <ele>250.3</ele>
        <time>2019-09-04T08:40:18Z</time>
      </trkpt>
      <trkpt lat="43.2384770" lon="-6.0307710">
        <ele>252.3</ele>
        <time>2019-09-04T08:40:19Z</time>
      </trkpt>
      <trkpt lat="43.2384200" lon="-6.0307440">
        <ele>252.3</ele>
        <time>2019-09-04T08:40:20Z</time>
      </trkpt>
      <trkpt lat="43.2383540" lon="-6.0307160">
        <ele>252.3</ele>
        <time>2019-09-04T08:40:21Z</time>
      </trkpt>
      <trkpt lat="43.2382260" lon="-6.0306690">
        <ele>252.3</ele>
        <time>2019-09-04T08:40:23Z</time>
      </trkpt>
      <trkpt lat="43.2381640" lon="-6.0306520">
        <ele>252.3</ele>
        <time>2019-09-04T08:40:24Z</time>
      </trkpt>
      <trkpt lat="43.2380310" lon="-6.0306390">
        <ele>252.3</ele>
        <time>2019-09-04T08:40:26Z</time>
      </trkpt>
      <trkpt lat="43.2378980" lon="-6.0306550">
        <ele>252.3</ele>
        <time>2019-09-04T08:40:28Z</time>
      </trkpt>
      <trkpt lat="43.2378420" lon="-6.0306710">
        <ele>252.3</ele>
        <time>2019-09-04T08:40:29Z</time>
      </trkpt>
      <trkpt lat="43.2377190" lon="-6.0307210">
        <ele>252.3</ele>
        <time>2019-09-04T08:40:31Z</time>
      </trkpt>
      <trkpt lat="43.2376520" lon="-6.0307500">
        <ele>252.3</ele>
        <time>2019-09-04T08:40:32Z</time>
      </trkpt>
      <trkpt lat="43.2375350" lon="-6.0308170">
        <ele>252.3</ele>
        <time>2019-09-04T08:40:34Z</time>
      </trkpt>
      <trkpt lat="43.2374780" lon="-6.0308520">
        <ele>252.3</ele>
        <time>2019-09-04T08:40:35Z</time>
      </trkpt>
      <trkpt lat="43.2374170" lon="-6.0308880">
        <ele>252.3</ele>
        <time>2019-09-04T08:40:36Z</time>
      </trkpt>
      <trkpt lat="43.2373660" lon="-6.0309200">
        <ele>252.3</ele>
        <time>2019-09-04T08:40:37Z</time>
      </trkpt>
      <trkpt lat="43.2373090" lon="-6.0309560">
        <ele>252.3</ele>
        <time>2019-09-04T08:40:38Z</time>
      </trkpt>
      <trkpt lat="43.2372530" lon="-6.0309890">
        <ele>252.3</ele>
        <time>2019-09-04T08:40:39Z</time>
      </trkpt>
      <trkpt lat="43.2371920" lon="-6.0310210">
        <ele>252.3</ele>
        <time>2019-09-04T08:40:40Z</time>
      </trkpt>
      <trkpt lat="43.2371350" lon="-6.0310510">
        <ele>252.3</ele>
        <time>2019-09-04T08:40:41Z</time>
      </trkpt>
      <trkpt lat="43.2370790" lon="-6.0310770">
        <ele>252.3</ele>
        <time>2019-09-04T08:40:42Z</time>
      </trkpt>
      <trkpt lat="43.2370180" lon="-6.0311010">
        <ele>252.3</ele>
        <time>2019-09-04T08:40:43Z</time>
      </trkpt>
      <trkpt lat="43.2369660" lon="-6.0311200">
        <ele>252.3</ele>
        <time>2019-09-04T08:40:44Z</time>
      </trkpt>
      <trkpt lat="43.2369100" lon="-6.0311370">
        <ele>252.3</ele>
        <time>2019-09-04T08:40:45Z</time>
      </trkpt>
      <trkpt lat="43.2368440" lon="-6.0311520">
        <ele>252.3</ele>
        <time>2019-09-04T08:40:46Z</time>
      </trkpt>
      <trkpt lat="43.2367160" lon="-6.0311780">
        <ele>252.3</ele>
        <time>2019-09-04T08:40:48Z</time>
      </trkpt>
      <trkpt lat="43.2366540" lon="-6.0311900">
        <ele>252.3</ele>
        <time>2019-09-04T08:40:49Z</time>
      </trkpt>
      <trkpt lat="43.2365880" lon="-6.0312010">
        <ele>252.3</ele>
        <time>2019-09-04T08:40:50Z</time>
      </trkpt>
      <trkpt lat="43.2365260" lon="-6.0312110">
        <ele>252.3</ele>
        <time>2019-09-04T08:40:51Z</time>
      </trkpt>
      <trkpt lat="43.2364600" lon="-6.0312190">
        <ele>252.3</ele>
        <time>2019-09-04T08:40:52Z</time>
      </trkpt>
      <trkpt lat="43.2363930" lon="-6.0312280">
        <ele>252.3</ele>
        <time>2019-09-04T08:40:53Z</time>
      </trkpt>
      <trkpt lat="43.2363260" lon="-6.0312360">
        <ele>252.3</ele>
        <time>2019-09-04T08:40:54Z</time>
      </trkpt>
      <trkpt lat="43.2362040" lon="-6.0312530">
        <ele>252.3</ele>
        <time>2019-09-04T08:40:56Z</time>
      </trkpt>
      <trkpt lat="43.2360760" lon="-6.0312720">
        <ele>254.3</ele>
        <time>2019-09-04T08:40:58Z</time>
      </trkpt>
      <trkpt lat="43.2359420" lon="-6.0312890">
        <ele>254.3</ele>
        <time>2019-09-04T08:41:00Z</time>
      </trkpt>
      <trkpt lat="43.2358760" lon="-6.0312980">
        <ele>254.3</ele>
        <time>2019-09-04T08:41:01Z</time>
      </trkpt>
      <trkpt lat="43.2357430" lon="-6.0313150">
        <ele>254.3</ele>
        <time>2019-09-04T08:41:03Z</time>
      </trkpt>
      <trkpt lat="43.2356760" lon="-6.0313250">
        <ele>254.3</ele>
        <time>2019-09-04T08:41:04Z</time>
      </trkpt>
      <trkpt lat="43.2355380" lon="-6.0313510">
        <ele>254.3</ele>
        <time>2019-09-04T08:41:06Z</time>
      </trkpt>
      <trkpt lat="43.2354710" lon="-6.0313690">
        <ele>254.3</ele>
        <time>2019-09-04T08:41:07Z</time>
      </trkpt>
      <trkpt lat="43.2354100" lon="-6.0313900">
        <ele>254.3</ele>
        <time>2019-09-04T08:41:08Z</time>
      </trkpt>
      <trkpt lat="43.2352820" lon="-6.0314440">
        <ele>254.3</ele>
        <time>2019-09-04T08:41:10Z</time>
      </trkpt>
      <trkpt lat="43.2352200" lon="-6.0314780">
        <ele>254.3</ele>
        <time>2019-09-04T08:41:11Z</time>
      </trkpt>
      <trkpt lat="43.2351640" lon="-6.0315130">
        <ele>254.3</ele>
        <time>2019-09-04T08:41:12Z</time>
      </trkpt>
      <trkpt lat="43.2351030" lon="-6.0315530">
        <ele>254.3</ele>
        <time>2019-09-04T08:41:13Z</time>
      </trkpt>
      <trkpt lat="43.2349900" lon="-6.0316350">
        <ele>254.3</ele>
        <time>2019-09-04T08:41:15Z</time>
      </trkpt>
      <trkpt lat="43.2349340" lon="-6.0316770">
        <ele>254.3</ele>
        <time>2019-09-04T08:41:16Z</time>
      </trkpt>
      <trkpt lat="43.2348720" lon="-6.0317200">
        <ele>254.3</ele>
        <time>2019-09-04T08:41:17Z</time>
      </trkpt>
      <trkpt lat="43.2347550" lon="-6.0318110">
        <ele>254.3</ele>
        <time>2019-09-04T08:41:19Z</time>
      </trkpt>
      <trkpt lat="43.2346470" lon="-6.0319050">
        <ele>254.3</ele>
        <time>2019-09-04T08:41:21Z</time>
      </trkpt>
      <trkpt lat="43.2345910" lon="-6.0319560">
        <ele>254.3</ele>
        <time>2019-09-04T08:41:22Z</time>
      </trkpt>
      <trkpt lat="43.2345400" lon="-6.0320110">
        <ele>254.3</ele>
        <time>2019-09-04T08:41:23Z</time>
      </trkpt>
      <trkpt lat="43.2344880" lon="-6.0320670">
        <ele>254.3</ele>
        <time>2019-09-04T08:41:24Z</time>
      </trkpt>
      <trkpt lat="43.2344370" lon="-6.0321280">
        <ele>254.3</ele>
        <time>2019-09-04T08:41:25Z</time>
      </trkpt>
      <trkpt lat="43.2343860" lon="-6.0321810">
        <ele>254.3</ele>
        <time>2019-09-04T08:41:26Z</time>
      </trkpt>
      <trkpt lat="43.2343350" lon="-6.0322360">
        <ele>254.3</ele>
        <time>2019-09-04T08:41:27Z</time>
      </trkpt>
      <trkpt lat="43.2342270" lon="-6.0323400">
        <ele>254.3</ele>
        <time>2019-09-04T08:41:29Z</time>
      </trkpt>
      <trkpt lat="43.2341710" lon="-6.0323880">
        <ele>254.3</ele>
        <time>2019-09-04T08:41:30Z</time>
      </trkpt>
      <trkpt lat="43.2341200" lon="-6.0324370">
        <ele>254.3</ele>
        <time>2019-09-04T08:41:31Z</time>
      </trkpt>
      <trkpt lat="43.2340680" lon="-6.0324840">
        <ele>254.3</ele>
        <time>2019-09-04T08:41:32Z</time>
      </trkpt>
      <trkpt lat="43.2340170" lon="-6.0325310">
        <ele>254.3</ele>
        <time>2019-09-04T08:41:33Z</time>
      </trkpt>
      <trkpt lat="43.2339610" lon="-6.0325850">
        <ele>254.3</ele>
        <time>2019-09-04T08:41:34Z</time>
      </trkpt>
      <trkpt lat="43.2339050" lon="-6.0326400">
        <ele>254.3</ele>
        <time>2019-09-04T08:41:35Z</time>
      </trkpt>
      <trkpt lat="43.2338590" lon="-6.0326920">
        <ele>254.3</ele>
        <time>2019-09-04T08:41:36Z</time>
      </trkpt>
      <trkpt lat="43.2338020" lon="-6.0327440">
        <ele>254.3</ele>
        <time>2019-09-04T08:41:37Z</time>
      </trkpt>
      <trkpt lat="43.2337510" lon="-6.0327970">
        <ele>254.3</ele>
        <time>2019-09-04T08:41:38Z</time>
      </trkpt>
      <trkpt lat="43.2336950" lon="-6.0328470">
        <ele>254.3</ele>
        <time>2019-09-04T08:41:39Z</time>
      </trkpt>
      <trkpt lat="43.2336380" lon="-6.0328890">
        <ele>254.3</ele>
        <time>2019-09-04T08:41:40Z</time>
      </trkpt>
      <trkpt lat="43.2335820" lon="-6.0329310">
        <ele>254.3</ele>
        <time>2019-09-04T08:41:41Z</time>
      </trkpt>
      <trkpt lat="43.2335260" lon="-6.0329680">
        <ele>254.3</ele>
        <time>2019-09-04T08:41:42Z</time>
      </trkpt>
      <trkpt lat="43.2334690" lon="-6.0330030">
        <ele>256.7</ele>
        <time>2019-09-04T08:41:43Z</time>
      </trkpt>
      <trkpt lat="43.2334080" lon="-6.0330370">
        <ele>256.7</ele>
        <time>2019-09-04T08:41:44Z</time>
      </trkpt>
      <trkpt lat="43.2333410" lon="-6.0330690">
        <ele>256.7</ele>
        <time>2019-09-04T08:41:45Z</time>
      </trkpt>
      <trkpt lat="43.2332750" lon="-6.0331000">
        <ele>256.7</ele>
        <time>2019-09-04T08:41:46Z</time>
      </trkpt>
      <trkpt lat="43.2332130" lon="-6.0331300">
        <ele>256.7</ele>
        <time>2019-09-04T08:41:47Z</time>
      </trkpt>
      <trkpt lat="43.2331570" lon="-6.0331580">
        <ele>256.7</ele>
        <time>2019-09-04T08:41:48Z</time>
      </trkpt>
      <trkpt lat="43.2330960" lon="-6.0331910">
        <ele>256.7</ele>
        <time>2019-09-04T08:41:49Z</time>
      </trkpt>
      <trkpt lat="43.2330340" lon="-6.0332260">
        <ele>256.7</ele>
        <time>2019-09-04T08:41:50Z</time>
      </trkpt>
      <trkpt lat="43.2329730" lon="-6.0332640">
        <ele>256.7</ele>
        <time>2019-09-04T08:41:51Z</time>
      </trkpt>
      <trkpt lat="43.2329160" lon="-6.0333030">
        <ele>256.7</ele>
        <time>2019-09-04T08:41:52Z</time>
      </trkpt>
      <trkpt lat="43.2328040" lon="-6.0333820">
        <ele>256.7</ele>
        <time>2019-09-04T08:41:54Z</time>
      </trkpt>
      <trkpt lat="43.2327480" lon="-6.0334180">
        <ele>256.7</ele>
        <time>2019-09-04T08:41:55Z</time>
      </trkpt>
      <trkpt lat="43.2326910" lon="-6.0334530">
        <ele>256.7</ele>
        <time>2019-09-04T08:41:56Z</time>
      </trkpt>
      <trkpt lat="43.2304230" lon="-6.0362370">
        <ele>256.7</ele>
        <time>2019-09-04T08:42:41Z</time>
      </trkpt>
      <trkpt lat="43.2298240" lon="-6.0371800">
        <ele>256.7</ele>
        <time>2019-09-04T08:42:57Z</time>
      </trkpt>
      <trkpt lat="43.2297220" lon="-6.0372450">
        <ele>253.7</ele>
        <time>2019-09-04T08:43:00Z</time>
      </trkpt>
      <trkpt lat="43.2296240" lon="-6.0372980">
        <ele>253.7</ele>
        <time>2019-09-04T08:43:02Z</time>
      </trkpt>
      <trkpt lat="43.2295780" lon="-6.0373220">
        <ele>253.7</ele>
        <time>2019-09-04T08:43:03Z</time>
      </trkpt>
      <trkpt lat="43.2295270" lon="-6.0373480">
        <ele>251.1</ele>
        <time>2019-09-04T08:43:04Z</time>
      </trkpt>
      <trkpt lat="43.2294140" lon="-6.0374040">
        <ele>251.1</ele>
        <time>2019-09-04T08:43:06Z</time>
      </trkpt>
      <trkpt lat="43.2293580" lon="-6.0374330">
        <ele>251.1</ele>
        <time>2019-09-04T08:43:07Z</time>
      </trkpt>
      <trkpt lat="43.2293020" lon="-6.0374640">
        <ele>251.1</ele>
        <time>2019-09-04T08:43:08Z</time>
      </trkpt>
      <trkpt lat="43.2292450" lon="-6.0374980">
        <ele>251.1</ele>
        <time>2019-09-04T08:43:09Z</time>
      </trkpt>
      <trkpt lat="43.2291890" lon="-6.0375350">
        <ele>251.1</ele>
        <time>2019-09-04T08:43:10Z</time>
      </trkpt>
      <trkpt lat="43.2291330" lon="-6.0375750">
        <ele>251.1</ele>
        <time>2019-09-04T08:43:11Z</time>
      </trkpt>
      <trkpt lat="43.2290820" lon="-6.0376180">
        <ele>251.1</ele>
        <time>2019-09-04T08:43:12Z</time>
      </trkpt>
      <trkpt lat="43.2290250" lon="-6.0376660">
        <ele>251.1</ele>
        <time>2019-09-04T08:43:13Z</time>
      </trkpt>
      <trkpt lat="43.2289790" lon="-6.0377170">
        <ele>251.1</ele>
        <time>2019-09-04T08:43:14Z</time>
      </trkpt>
      <trkpt lat="43.2289280" lon="-6.0377710">
        <ele>251.1</ele>
        <time>2019-09-04T08:43:15Z</time>
      </trkpt>
      <trkpt lat="43.2288770" lon="-6.0378250">
        <ele>251.1</ele>
        <time>2019-09-04T08:43:16Z</time>
      </trkpt>
      <trkpt lat="43.2288310" lon="-6.0378800">
        <ele>251.1</ele>
        <time>2019-09-04T08:43:17Z</time>
      </trkpt>
      <trkpt lat="43.2287850" lon="-6.0379360">
        <ele>251.1</ele>
        <time>2019-09-04T08:43:18Z</time>
      </trkpt>
      <trkpt lat="43.2287390" lon="-6.0379900">
        <ele>251.1</ele>
        <time>2019-09-04T08:43:19Z</time>
      </trkpt>
      <trkpt lat="43.2286920" lon="-6.0380420">
        <ele>251.1</ele>
        <time>2019-09-04T08:43:20Z</time>
      </trkpt>
      <trkpt lat="43.2286460" lon="-6.0380920">
        <ele>251.1</ele>
        <time>2019-09-04T08:43:21Z</time>
      </trkpt>
      <trkpt lat="43.2286000" lon="-6.0381390">
        <ele>251.1</ele>
        <time>2019-09-04T08:43:22Z</time>
      </trkpt>
      <trkpt lat="43.2285440" lon="-6.0381830">
        <ele>251.1</ele>
        <time>2019-09-04T08:43:23Z</time>
      </trkpt>
      <trkpt lat="43.2284980" lon="-6.0382220">
        <ele>251.1</ele>
        <time>2019-09-04T08:43:24Z</time>
      </trkpt>
      <trkpt lat="43.2284420" lon="-6.0382570">
        <ele>251.1</ele>
        <time>2019-09-04T08:43:25Z</time>
      </trkpt>
      <trkpt lat="43.2283960" lon="-6.0382870">
        <ele>251.1</ele>
        <time>2019-09-04T08:43:26Z</time>
      </trkpt>
      <trkpt lat="43.2283390" lon="-6.0383160">
        <ele>251.1</ele>
        <time>2019-09-04T08:43:27Z</time>
      </trkpt>
      <trkpt lat="43.2282830" lon="-6.0383420">
        <ele>251.1</ele>
        <time>2019-09-04T08:43:28Z</time>
      </trkpt>
      <trkpt lat="43.2282320" lon="-6.0383670">
        <ele>251.1</ele>
        <time>2019-09-04T08:43:29Z</time>
      </trkpt>
      <trkpt lat="43.2281750" lon="-6.0383940">
        <ele>251.1</ele>
        <time>2019-09-04T08:43:30Z</time>
      </trkpt>
      <trkpt lat="43.2281190" lon="-6.0384180">
        <ele>251.1</ele>
        <time>2019-09-04T08:43:31Z</time>
      </trkpt>
      <trkpt lat="43.2280580" lon="-6.0384410">
        <ele>251.1</ele>
        <time>2019-09-04T08:43:32Z</time>
      </trkpt>
      <trkpt lat="43.2280010" lon="-6.0384630">
        <ele>251.1</ele>
        <time>2019-09-04T08:43:33Z</time>
      </trkpt>
      <trkpt lat="43.2278890" lon="-6.0385070">
        <ele>251.1</ele>
        <time>2019-09-04T08:43:35Z</time>
      </trkpt>
      <trkpt lat="43.2278320" lon="-6.0385270">
        <ele>251.1</ele>
        <time>2019-09-04T08:43:36Z</time>
      </trkpt>
      <trkpt lat="43.2277760" lon="-6.0385500">
        <ele>251.1</ele>
        <time>2019-09-04T08:43:37Z</time>
      </trkpt>
      <trkpt lat="43.2277150" lon="-6.0385730">
        <ele>253.3</ele>
        <time>2019-09-04T08:43:38Z</time>
      </trkpt>
      <trkpt lat="43.2276580" lon="-6.0385960">
        <ele>253.3</ele>
        <time>2019-09-04T08:43:39Z</time>
      </trkpt>
      <trkpt lat="43.2276020" lon="-6.0386200">
        <ele>253.3</ele>
        <time>2019-09-04T08:43:40Z</time>
      </trkpt>
      <trkpt lat="43.2275400" lon="-6.0386410">
        <ele>253.3</ele>
        <time>2019-09-04T08:43:41Z</time>
      </trkpt>
      <trkpt lat="43.2274840" lon="-6.0386600">
        <ele>253.3</ele>
        <time>2019-09-04T08:43:42Z</time>
      </trkpt>
      <trkpt lat="43.2274280" lon="-6.0386760">
        <ele>253.3</ele>
        <time>2019-09-04T08:43:43Z</time>
      </trkpt>
      <trkpt lat="43.2273660" lon="-6.0386890">
        <ele>253.3</ele>
        <time>2019-09-04T08:43:44Z</time>
      </trkpt>
      <trkpt lat="43.2273050" lon="-6.0386990">
        <ele>253.3</ele>
        <time>2019-09-04T08:43:45Z</time>
      </trkpt>
      <trkpt lat="43.2272440" lon="-6.0387070">
        <ele>253.3</ele>
        <time>2019-09-04T08:43:46Z</time>
      </trkpt>
      <trkpt lat="43.2271820" lon="-6.0387120">
        <ele>255.4</ele>
        <time>2019-09-04T08:43:47Z</time>
      </trkpt>
      <trkpt lat="43.2271160" lon="-6.0387150">
        <ele>255.4</ele>
        <time>2019-09-04T08:43:48Z</time>
      </trkpt>
      <trkpt lat="43.2270540" lon="-6.0387160">
        <ele>255.4</ele>
        <time>2019-09-04T08:43:49Z</time>
      </trkpt>
      <trkpt lat="43.2269930" lon="-6.0387140">
        <ele>255.4</ele>
        <time>2019-09-04T08:43:50Z</time>
      </trkpt>
      <trkpt lat="43.2269260" lon="-6.0387120">
        <ele>255.4</ele>
        <time>2019-09-04T08:43:51Z</time>
      </trkpt>
      <trkpt lat="43.2268600" lon="-6.0387090">
        <ele>255.4</ele>
        <time>2019-09-04T08:43:52Z</time>
      </trkpt>
      <trkpt lat="43.2267930" lon="-6.0387070">
        <ele>255.4</ele>
        <time>2019-09-04T08:43:53Z</time>
      </trkpt>
      <trkpt lat="43.2267260" lon="-6.0387050">
        <ele>255.4</ele>
        <time>2019-09-04T08:43:54Z</time>
      </trkpt>
      <trkpt lat="43.2266650" lon="-6.0387020">
        <ele>255.4</ele>
        <time>2019-09-04T08:43:55Z</time>
      </trkpt>
      <trkpt lat="43.2265930" lon="-6.0386990">
        <ele>255.4</ele>
        <time>2019-09-04T08:43:56Z</time>
      </trkpt>
      <trkpt lat="43.2265320" lon="-6.0386970">
        <ele>255.4</ele>
        <time>2019-09-04T08:43:57Z</time>
      </trkpt>
      <trkpt lat="43.2264600" lon="-6.0386930">
        <ele>255.4</ele>
        <time>2019-09-04T08:43:58Z</time>
      </trkpt>
      <trkpt lat="43.2263880" lon="-6.0386910">
        <ele>257.5</ele>
        <time>2019-09-04T08:43:59Z</time>
      </trkpt>
      <trkpt lat="43.2263270" lon="-6.0386890">
        <ele>257.5</ele>
        <time>2019-09-04T08:44:00Z</time>
      </trkpt>
      <trkpt lat="43.2262550" lon="-6.0386870">
        <ele>257.5</ele>
        <time>2019-09-04T08:44:01Z</time>
      </trkpt>
      <trkpt lat="43.2261940" lon="-6.0386870">
        <ele>257.5</ele>
        <time>2019-09-04T08:44:02Z</time>
      </trkpt>
      <trkpt lat="43.2261220" lon="-6.0386850">
        <ele>257.5</ele>
        <time>2019-09-04T08:44:03Z</time>
      </trkpt>
      <trkpt lat="43.2260560" lon="-6.0386840">
        <ele>257.5</ele>
        <time>2019-09-04T08:44:04Z</time>
      </trkpt>
      <trkpt lat="43.2259840" lon="-6.0386820">
        <ele>257.5</ele>
        <time>2019-09-04T08:44:05Z</time>
      </trkpt>
      <trkpt lat="43.2259280" lon="-6.0386820">
        <ele>257.5</ele>
        <time>2019-09-04T08:44:06Z</time>
      </trkpt>
      <trkpt lat="43.2258610" lon="-6.0386780">
        <ele>257.5</ele>
        <time>2019-09-04T08:44:07Z</time>
      </trkpt>
      <trkpt lat="43.2257890" lon="-6.0386750">
        <ele>257.5</ele>
        <time>2019-09-04T08:44:08Z</time>
      </trkpt>
      <trkpt lat="43.2257230" lon="-6.0386720">
        <ele>257.5</ele>
        <time>2019-09-04T08:44:09Z</time>
      </trkpt>
      <trkpt lat="43.2256560" lon="-6.0386710">
        <ele>257.5</ele>
        <time>2019-09-04T08:44:10Z</time>
      </trkpt>
      <trkpt lat="43.2255950" lon="-6.0386690">
        <ele>257.5</ele>
        <time>2019-09-04T08:44:11Z</time>
      </trkpt>
      <trkpt lat="43.2255230" lon="-6.0386680">
        <ele>257.5</ele>
        <time>2019-09-04T08:44:12Z</time>
      </trkpt>
      <trkpt lat="43.2254620" lon="-6.0386650">
        <ele>257.5</ele>
        <time>2019-09-04T08:44:13Z</time>
      </trkpt>
      <trkpt lat="43.2253950" lon="-6.0386620">
        <ele>257.5</ele>
        <time>2019-09-04T08:44:14Z</time>
      </trkpt>
      <trkpt lat="43.2253290" lon="-6.0386570">
        <ele>257.5</ele>
        <time>2019-09-04T08:44:15Z</time>
      </trkpt>
      <trkpt lat="43.2252670" lon="-6.0386490">
        <ele>257.5</ele>
        <time>2019-09-04T08:44:16Z</time>
      </trkpt>
      <trkpt lat="43.2252060" lon="-6.0386370">
        <ele>257.5</ele>
        <time>2019-09-04T08:44:17Z</time>
      </trkpt>
      <trkpt lat="43.2251440" lon="-6.0386230">
        <ele>257.5</ele>
        <time>2019-09-04T08:44:18Z</time>
      </trkpt>
      <trkpt lat="43.2250880" lon="-6.0386030">
        <ele>257.5</ele>
        <time>2019-09-04T08:44:19Z</time>
      </trkpt>
      <trkpt lat="43.2250270" lon="-6.0385790">
        <ele>257.5</ele>
        <time>2019-09-04T08:44:20Z</time>
      </trkpt>
      <trkpt lat="43.2249700" lon="-6.0385500">
        <ele>257.5</ele>
        <time>2019-09-04T08:44:21Z</time>
      </trkpt>
      <trkpt lat="43.2248520" lon="-6.0384880">
        <ele>257.5</ele>
        <time>2019-09-04T08:44:23Z</time>
      </trkpt>
      <trkpt lat="43.2247960" lon="-6.0384540">
        <ele>259.5</ele>
        <time>2019-09-04T08:44:24Z</time>
      </trkpt>
      <trkpt lat="43.2246890" lon="-6.0383940">
        <ele>259.5</ele>
        <time>2019-09-04T08:44:26Z</time>
      </trkpt>
      <trkpt lat="43.2246270" lon="-6.0383640">
        <ele>259.5</ele>
        <time>2019-09-04T08:44:27Z</time>
      </trkpt>
      <trkpt lat="43.2245710" lon="-6.0383340">
        <ele>259.5</ele>
        <time>2019-09-04T08:44:28Z</time>
      </trkpt>
      <trkpt lat="43.2245150" lon="-6.0383060">
        <ele>259.5</ele>
        <time>2019-09-04T08:44:29Z</time>
      </trkpt>
      <trkpt lat="43.2244580" lon="-6.0382780">
        <ele>259.5</ele>
        <time>2019-09-04T08:44:30Z</time>
      </trkpt>
      <trkpt lat="43.2243400" lon="-6.0382280">
        <ele>259.5</ele>
        <time>2019-09-04T08:44:32Z</time>
      </trkpt>
      <trkpt lat="43.2242840" lon="-6.0382040">
        <ele>259.5</ele>
        <time>2019-09-04T08:44:33Z</time>
      </trkpt>
      <trkpt lat="43.2242230" lon="-6.0381800">
        <ele>259.5</ele>
        <time>2019-09-04T08:44:34Z</time>
      </trkpt>
      <trkpt lat="43.2241660" lon="-6.0381570">
        <ele>259.5</ele>
        <time>2019-09-04T08:44:35Z</time>
      </trkpt>
      <trkpt lat="43.2241150" lon="-6.0381340">
        <ele>259.5</ele>
        <time>2019-09-04T08:44:36Z</time>
      </trkpt>
      <trkpt lat="43.2240540" lon="-6.0381110">
        <ele>259.5</ele>
        <time>2019-09-04T08:44:37Z</time>
      </trkpt>
      <trkpt lat="43.2239920" lon="-6.0380900">
        <ele>259.5</ele>
        <time>2019-09-04T08:44:38Z</time>
      </trkpt>
      <trkpt lat="43.2239310" lon="-6.0380720">
        <ele>259.5</ele>
        <time>2019-09-04T08:44:39Z</time>
      </trkpt>
      <trkpt lat="43.2238690" lon="-6.0380570">
        <ele>259.5</ele>
        <time>2019-09-04T08:44:40Z</time>
      </trkpt>
      <trkpt lat="43.2238080" lon="-6.0380470">
        <ele>259.5</ele>
        <time>2019-09-04T08:44:41Z</time>
      </trkpt>
      <trkpt lat="43.2237410" lon="-6.0380400">
        <ele>259.5</ele>
        <time>2019-09-04T08:44:42Z</time>
      </trkpt>
      <trkpt lat="43.2236800" lon="-6.0380390">
        <ele>259.5</ele>
        <time>2019-09-04T08:44:43Z</time>
      </trkpt>
      <trkpt lat="43.2236240" lon="-6.0380410">
        <ele>259.5</ele>
        <time>2019-09-04T08:44:44Z</time>
      </trkpt>
      <trkpt lat="43.2235570" lon="-6.0380500">
        <ele>259.5</ele>
        <time>2019-09-04T08:44:45Z</time>
      </trkpt>
      <trkpt lat="43.2234910" lon="-6.0380610">
        <ele>259.5</ele>
        <time>2019-09-04T08:44:46Z</time>
      </trkpt>
      <trkpt lat="43.2234340" lon="-6.0380760">
        <ele>259.5</ele>
        <time>2019-09-04T08:44:47Z</time>
      </trkpt>
      <trkpt lat="43.2233680" lon="-6.0380900">
        <ele>259.5</ele>
        <time>2019-09-04T08:44:48Z</time>
      </trkpt>
      <trkpt lat="43.2233060" lon="-6.0381040">
        <ele>259.5</ele>
        <time>2019-09-04T08:44:49Z</time>
      </trkpt>
      <trkpt lat="43.2232450" lon="-6.0381180">
        <ele>259.5</ele>
        <time>2019-09-04T08:44:50Z</time>
      </trkpt>
      <trkpt lat="43.2231780" lon="-6.0381310">
        <ele>259.5</ele>
        <time>2019-09-04T08:44:51Z</time>
      </trkpt>
      <trkpt lat="43.2231170" lon="-6.0381430">
        <ele>259.5</ele>
        <time>2019-09-04T08:44:52Z</time>
      </trkpt>
      <trkpt lat="43.2229890" lon="-6.0381600">
        <ele>259.5</ele>
        <time>2019-09-04T08:44:54Z</time>
      </trkpt>
      <trkpt lat="43.2229220" lon="-6.0381640">
        <ele>259.5</ele>
        <time>2019-09-04T08:44:55Z</time>
      </trkpt>
      <trkpt lat="43.2228610" lon="-6.0381660">
        <ele>261.5</ele>
        <time>2019-09-04T08:44:56Z</time>
      </trkpt>
      <trkpt lat="43.2227940" lon="-6.0381660">
        <ele>261.5</ele>
        <time>2019-09-04T08:44:57Z</time>
      </trkpt>
      <trkpt lat="43.2227230" lon="-6.0381640">
        <ele>261.5</ele>
        <time>2019-09-04T08:44:58Z</time>
      </trkpt>
      <trkpt lat="43.2226610" lon="-6.0381610">
        <ele>261.5</ele>
        <time>2019-09-04T08:44:59Z</time>
      </trkpt>
      <trkpt lat="43.2225950" lon="-6.0381570">
        <ele>261.5</ele>
        <time>2019-09-04T08:45:00Z</time>
      </trkpt>
      <trkpt lat="43.2224560" lon="-6.0381500">
        <ele>261.5</ele>
        <time>2019-09-04T08:45:02Z</time>
      </trkpt>
      <trkpt lat="43.2223950" lon="-6.0381450">
        <ele>261.5</ele>
        <time>2019-09-04T08:45:03Z</time>
      </trkpt>
      <trkpt lat="43.2223280" lon="-6.0381410">
        <ele>261.5</ele>
        <time>2019-09-04T08:45:04Z</time>
      </trkpt>
      <trkpt lat="43.2222620" lon="-6.0381350">
        <ele>261.5</ele>
        <time>2019-09-04T08:45:05Z</time>
      </trkpt>
      <trkpt lat="43.2221900" lon="-6.0381290">
        <ele>261.5</ele>
        <time>2019-09-04T08:45:06Z</time>
      </trkpt>
      <trkpt lat="43.2221240" lon="-6.0381230">
        <ele>261.5</ele>
        <time>2019-09-04T08:45:07Z</time>
      </trkpt>
      <trkpt lat="43.2220520" lon="-6.0381160">
        <ele>261.5</ele>
        <time>2019-09-04T08:45:08Z</time>
      </trkpt>
      <trkpt lat="43.2219900" lon="-6.0381100">
        <ele>261.5</ele>
        <time>2019-09-04T08:45:09Z</time>
      </trkpt>
      <trkpt lat="43.2218570" lon="-6.0380980">
        <ele>261.5</ele>
        <time>2019-09-04T08:45:11Z</time>
      </trkpt>
      <trkpt lat="43.2217860" lon="-6.0380900">
        <ele>261.5</ele>
        <time>2019-09-04T08:45:12Z</time>
      </trkpt>
      <trkpt lat="43.2217190" lon="-6.0380820">
        <ele>261.5</ele>
        <time>2019-09-04T08:45:13Z</time>
      </trkpt>
      <trkpt lat="43.2216470" lon="-6.0380750">
        <ele>261.5</ele>
        <time>2019-09-04T08:45:14Z</time>
      </trkpt>
      <trkpt lat="43.2215760" lon="-6.0380680">
        <ele>261.5</ele>
        <time>2019-09-04T08:45:15Z</time>
      </trkpt>
      <trkpt lat="43.2215090" lon="-6.0380630">
        <ele>261.5</ele>
        <time>2019-09-04T08:45:16Z</time>
      </trkpt>
      <trkpt lat="43.2214370" lon="-6.0380580">
        <ele>261.5</ele>
        <time>2019-09-04T08:45:17Z</time>
      </trkpt>
      <trkpt lat="43.2213660" lon="-6.0380540">
        <ele>261.5</ele>
        <time>2019-09-04T08:45:18Z</time>
      </trkpt>
      <trkpt lat="43.2212940" lon="-6.0380500">
        <ele>261.5</ele>
        <time>2019-09-04T08:45:19Z</time>
      </trkpt>
      <trkpt lat="43.2211510" lon="-6.0380470">
        <ele>261.5</ele>
        <time>2019-09-04T08:45:21Z</time>
      </trkpt>
      <trkpt lat="43.2210790" lon="-6.0380480">
        <ele>261.5</ele>
        <time>2019-09-04T08:45:22Z</time>
      </trkpt>
      <trkpt lat="43.2210120" lon="-6.0380510">
        <ele>261.5</ele>
        <time>2019-09-04T08:45:23Z</time>
      </trkpt>
      <trkpt lat="43.2209410" lon="-6.0380560">
        <ele>261.5</ele>
        <time>2019-09-04T08:45:24Z</time>
      </trkpt>
      <trkpt lat="43.2208690" lon="-6.0380600">
        <ele>261.5</ele>
        <time>2019-09-04T08:45:25Z</time>
      </trkpt>
      <trkpt lat="43.2207920" lon="-6.0380650">
        <ele>261.5</ele>
        <time>2019-09-04T08:45:26Z</time>
      </trkpt>
      <trkpt lat="43.2207210" lon="-6.0380710">
        <ele>261.5</ele>
        <time>2019-09-04T08:45:27Z</time>
      </trkpt>
      <trkpt lat="43.2206440" lon="-6.0380780">
        <ele>261.5</ele>
        <time>2019-09-04T08:45:28Z</time>
      </trkpt>
      <trkpt lat="43.2205770" lon="-6.0380840">
        <ele>261.5</ele>
        <time>2019-09-04T08:45:29Z</time>
      </trkpt>
      <trkpt lat="43.2205060" lon="-6.0380890">
        <ele>261.5</ele>
        <time>2019-09-04T08:45:30Z</time>
      </trkpt>
      <trkpt lat="43.2204340" lon="-6.0380940">
        <ele>261.5</ele>
        <time>2019-09-04T08:45:31Z</time>
      </trkpt>
      <trkpt lat="43.2203620" lon="-6.0380970">
        <ele>261.5</ele>
        <time>2019-09-04T08:45:32Z</time>
      </trkpt>
      <trkpt lat="43.2202960" lon="-6.0380990">
        <ele>261.5</ele>
        <time>2019-09-04T08:45:33Z</time>
      </trkpt>
      <trkpt lat="43.2202240" lon="-6.0380990">
        <ele>261.5</ele>
        <time>2019-09-04T08:45:34Z</time>
      </trkpt>
      <trkpt lat="43.2201570" lon="-6.0380970">
        <ele>261.5</ele>
        <time>2019-09-04T08:45:35Z</time>
      </trkpt>
      <trkpt lat="43.2200910" lon="-6.0380950">
        <ele>261.5</ele>
        <time>2019-09-04T08:45:36Z</time>
      </trkpt>
      <trkpt lat="43.2200240" lon="-6.0380920">
        <ele>261.5</ele>
        <time>2019-09-04T08:45:37Z</time>
      </trkpt>
      <trkpt lat="43.2199530" lon="-6.0380880">
        <ele>261.5</ele>
        <time>2019-09-04T08:45:38Z</time>
      </trkpt>
      <trkpt lat="43.2198860" lon="-6.0380860">
        <ele>261.5</ele>
        <time>2019-09-04T08:45:39Z</time>
      </trkpt>
      <trkpt lat="43.2198200" lon="-6.0380860">
        <ele>261.5</ele>
        <time>2019-09-04T08:45:40Z</time>
      </trkpt>
      <trkpt lat="43.2197480" lon="-6.0380890">
        <ele>261.5</ele>
        <time>2019-09-04T08:45:41Z</time>
      </trkpt>
      <trkpt lat="43.2196710" lon="-6.0380990">
        <ele>261.5</ele>
        <time>2019-09-04T08:45:42Z</time>
      </trkpt>
      <trkpt lat="43.2196040" lon="-6.0381110">
        <ele>261.5</ele>
        <time>2019-09-04T08:45:43Z</time>
      </trkpt>
      <trkpt lat="43.2195380" lon="-6.0381270">
        <ele>261.5</ele>
        <time>2019-09-04T08:45:44Z</time>
      </trkpt>
      <trkpt lat="43.2194610" lon="-6.0381460">
        <ele>261.5</ele>
        <time>2019-09-04T08:45:45Z</time>
      </trkpt>
      <trkpt lat="43.2194000" lon="-6.0381660">
        <ele>261.5</ele>
        <time>2019-09-04T08:45:46Z</time>
      </trkpt>
      <trkpt lat="43.2193280" lon="-6.0381870">
        <ele>261.5</ele>
        <time>2019-09-04T08:45:47Z</time>
      </trkpt>
      <trkpt lat="43.2192610" lon="-6.0382090">
        <ele>261.5</ele>
        <time>2019-09-04T08:45:48Z</time>
      </trkpt>
      <trkpt lat="43.2191900" lon="-6.0382340">
        <ele>261.5</ele>
        <time>2019-09-04T08:45:49Z</time>
      </trkpt>
      <trkpt lat="43.2191230" lon="-6.0382550">
        <ele>261.5</ele>
        <time>2019-09-04T08:45:50Z</time>
      </trkpt>
      <trkpt lat="43.2190570" lon="-6.0382710">
        <ele>261.5</ele>
        <time>2019-09-04T08:45:51Z</time>
      </trkpt>
      <trkpt lat="43.2189850" lon="-6.0382800">
        <ele>261.5</ele>
        <time>2019-09-04T08:45:52Z</time>
      </trkpt>
      <trkpt lat="43.2189080" lon="-6.0382720">
        <ele>261.5</ele>
        <time>2019-09-04T08:45:53Z</time>
      </trkpt>
      <trkpt lat="43.2188420" lon="-6.0382600">
        <ele>261.5</ele>
        <time>2019-09-04T08:45:54Z</time>
      </trkpt>
      <trkpt lat="43.2187750" lon="-6.0382430">
        <ele>252.9</ele>
        <time>2019-09-04T08:45:55Z</time>
      </trkpt>
      <trkpt lat="43.2187080" lon="-6.0382210">
        <ele>252.9</ele>
        <time>2019-09-04T08:45:56Z</time>
      </trkpt>
      <trkpt lat="43.2186420" lon="-6.0381930">
        <ele>252.9</ele>
        <time>2019-09-04T08:45:57Z</time>
      </trkpt>
      <trkpt lat="43.2185700" lon="-6.0381600">
        <ele>252.9</ele>
        <time>2019-09-04T08:45:58Z</time>
      </trkpt>
      <trkpt lat="43.2184990" lon="-6.0381240">
        <ele>254.9</ele>
        <time>2019-09-04T08:45:59Z</time>
      </trkpt>
      <trkpt lat="43.2184320" lon="-6.0380900">
        <ele>254.9</ele>
        <time>2019-09-04T08:46:00Z</time>
      </trkpt>
      <trkpt lat="43.2183710" lon="-6.0380560">
        <ele>254.9</ele>
        <time>2019-09-04T08:46:01Z</time>
      </trkpt>
      <trkpt lat="43.2182990" lon="-6.0380180">
        <ele>254.9</ele>
        <time>2019-09-04T08:46:02Z</time>
      </trkpt>
      <trkpt lat="43.2182320" lon="-6.0379810">
        <ele>254.9</ele>
        <time>2019-09-04T08:46:03Z</time>
      </trkpt>
      <trkpt lat="43.2181660" lon="-6.0379470">
        <ele>254.9</ele>
        <time>2019-09-04T08:46:04Z</time>
      </trkpt>
      <trkpt lat="43.2180990" lon="-6.0379120">
        <ele>254.9</ele>
        <time>2019-09-04T08:46:05Z</time>
      </trkpt>
      <trkpt lat="43.2180380" lon="-6.0378760">
        <ele>254.9</ele>
        <time>2019-09-04T08:46:06Z</time>
      </trkpt>
      <trkpt lat="43.2179710" lon="-6.0378370">
        <ele>254.9</ele>
        <time>2019-09-04T08:46:07Z</time>
      </trkpt>
      <trkpt lat="43.2179100" lon="-6.0378010">
        <ele>254.9</ele>
        <time>2019-09-04T08:46:08Z</time>
      </trkpt>
      <trkpt lat="43.2178480" lon="-6.0377620">
        <ele>254.9</ele>
        <time>2019-09-04T08:46:09Z</time>
      </trkpt>
      <trkpt lat="43.2177870" lon="-6.0377220">
        <ele>254.9</ele>
        <time>2019-09-04T08:46:10Z</time>
      </trkpt>
      <trkpt lat="43.2177250" lon="-6.0376830">
        <ele>254.9</ele>
        <time>2019-09-04T08:46:11Z</time>
      </trkpt>
      <trkpt lat="43.2176590" lon="-6.0376440">
        <ele>254.9</ele>
        <time>2019-09-04T08:46:12Z</time>
      </trkpt>
      <trkpt lat="43.2175970" lon="-6.0376060">
        <ele>254.9</ele>
        <time>2019-09-04T08:46:13Z</time>
      </trkpt>
      <trkpt lat="43.2175360" lon="-6.0375700">
        <ele>254.9</ele>
        <time>2019-09-04T08:46:14Z</time>
      </trkpt>
      <trkpt lat="43.2174800" lon="-6.0375370">
        <ele>254.9</ele>
        <time>2019-09-04T08:46:15Z</time>
      </trkpt>
      <trkpt lat="43.2174230" lon="-6.0375060">
        <ele>254.9</ele>
        <time>2019-09-04T08:46:16Z</time>
      </trkpt>
      <trkpt lat="43.2173670" lon="-6.0374760">
        <ele>254.9</ele>
        <time>2019-09-04T08:46:17Z</time>
      </trkpt>
      <trkpt lat="43.2173110" lon="-6.0374500">
        <ele>254.9</ele>
        <time>2019-09-04T08:46:18Z</time>
      </trkpt>
      <trkpt lat="43.2172600" lon="-6.0374230">
        <ele>254.9</ele>
        <time>2019-09-04T08:46:19Z</time>
      </trkpt>
      <trkpt lat="43.2172080" lon="-6.0373990">
        <ele>254.9</ele>
        <time>2019-09-04T08:46:20Z</time>
      </trkpt>
      <trkpt lat="43.2171570" lon="-6.0373770">
        <ele>254.9</ele>
        <time>2019-09-04T08:46:21Z</time>
      </trkpt>
      <trkpt lat="43.2171060" lon="-6.0373560">
        <ele>254.9</ele>
        <time>2019-09-04T08:46:22Z</time>
      </trkpt>
      <trkpt lat="43.2170600" lon="-6.0373380">
        <ele>254.9</ele>
        <time>2019-09-04T08:46:23Z</time>
      </trkpt>
      <trkpt lat="43.2170090" lon="-6.0373200">
        <ele>254.9</ele>
        <time>2019-09-04T08:46:24Z</time>
      </trkpt>
      <trkpt lat="43.2169060" lon="-6.0372900">
        <ele>254.9</ele>
        <time>2019-09-04T08:46:26Z</time>
      </trkpt>
      <trkpt lat="43.2168600" lon="-6.0372820">
        <ele>254.9</ele>
        <time>2019-09-04T08:46:27Z</time>
      </trkpt>
      <trkpt lat="43.2167070" lon="-6.0372670">
        <ele>254.9</ele>
        <time>2019-09-04T08:46:30Z</time>
      </trkpt>
      <trkpt lat="43.2166600" lon="-6.0372650">
        <ele>254.9</ele>
        <time>2019-09-04T08:46:31Z</time>
      </trkpt>
      <trkpt lat="43.2165580" lon="-6.0372670">
        <ele>254.9</ele>
        <time>2019-09-04T08:46:33Z</time>
      </trkpt>
      <trkpt lat="43.2164860" lon="-6.0373060">
        <ele>254.9</ele>
        <time>2019-09-04T08:46:35Z</time>
      </trkpt>
      <trkpt lat="43.2164400" lon="-6.0373900">
        <ele>254.9</ele>
        <time>2019-09-04T08:46:37Z</time>
      </trkpt>
      <trkpt lat="43.2164300" lon="-6.0375060">
        <ele>254.9</ele>
        <time>2019-09-04T08:46:39Z</time>
      </trkpt>
      <trkpt lat="43.2164450" lon="-6.0377080">
        <ele>254.9</ele>
        <time>2019-09-04T08:46:42Z</time>
      </trkpt>
      <trkpt lat="43.2164610" lon="-6.0378590">
        <ele>254.9</ele>
        <time>2019-09-04T08:46:44Z</time>
      </trkpt>
      <trkpt lat="43.2164710" lon="-6.0379320">
        <ele>257.0</ele>
        <time>2019-09-04T08:46:45Z</time>
      </trkpt>
      <trkpt lat="43.2164860" lon="-6.0380130">
        <ele>257.0</ele>
        <time>2019-09-04T08:46:46Z</time>
      </trkpt>
      <trkpt lat="43.2164970" lon="-6.0380960">
        <ele>257.0</ele>
        <time>2019-09-04T08:46:47Z</time>
      </trkpt>
      <trkpt lat="43.2165070" lon="-6.0381780">
        <ele>257.0</ele>
        <time>2019-09-04T08:46:48Z</time>
      </trkpt>
      <trkpt lat="43.2165220" lon="-6.0382600">
        <ele>257.0</ele>
        <time>2019-09-04T08:46:49Z</time>
      </trkpt>
      <trkpt lat="43.2165380" lon="-6.0383370">
        <ele>257.0</ele>
        <time>2019-09-04T08:46:50Z</time>
      </trkpt>
      <trkpt lat="43.2165530" lon="-6.0384210">
        <ele>257.0</ele>
        <time>2019-09-04T08:46:51Z</time>
      </trkpt>
      <trkpt lat="43.2165730" lon="-6.0385050">
        <ele>257.0</ele>
        <time>2019-09-04T08:46:52Z</time>
      </trkpt>
      <trkpt lat="43.2165890" lon="-6.0385890">
        <ele>257.0</ele>
        <time>2019-09-04T08:46:53Z</time>
      </trkpt>
      <trkpt lat="43.2166040" lon="-6.0386720">
        <ele>257.0</ele>
        <time>2019-09-04T08:46:54Z</time>
      </trkpt>
      <trkpt lat="43.2166200" lon="-6.0387550">
        <ele>257.0</ele>
        <time>2019-09-04T08:46:55Z</time>
      </trkpt>
      <trkpt lat="43.2166350" lon="-6.0388400">
        <ele>257.0</ele>
        <time>2019-09-04T08:46:56Z</time>
      </trkpt>
      <trkpt lat="43.2166500" lon="-6.0389240">
        <ele>257.0</ele>
        <time>2019-09-04T08:46:57Z</time>
      </trkpt>
      <trkpt lat="43.2166660" lon="-6.0390030">
        <ele>257.0</ele>
        <time>2019-09-04T08:46:58Z</time>
      </trkpt>
      <trkpt lat="43.2166960" lon="-6.0391760">
        <ele>257.0</ele>
        <time>2019-09-04T08:47:00Z</time>
      </trkpt>
      <trkpt lat="43.2167070" lon="-6.0392630">
        <ele>257.0</ele>
        <time>2019-09-04T08:47:01Z</time>
      </trkpt>
      <trkpt lat="43.2167170" lon="-6.0393500">
        <ele>257.0</ele>
        <time>2019-09-04T08:47:02Z</time>
      </trkpt>
      <trkpt lat="43.2167220" lon="-6.0394370">
        <ele>257.0</ele>
        <time>2019-09-04T08:47:03Z</time>
      </trkpt>
      <trkpt lat="43.2167370" lon="-6.0395240">
        <ele>257.0</ele>
        <time>2019-09-04T08:47:04Z</time>
      </trkpt>
      <trkpt lat="43.2167420" lon="-6.0396120">
        <ele>257.0</ele>
        <time>2019-09-04T08:47:05Z</time>
      </trkpt>
      <trkpt lat="43.2167530" lon="-6.0397000">
        <ele>257.0</ele>
        <time>2019-09-04T08:47:06Z</time>
      </trkpt>
      <trkpt lat="43.2167630" lon="-6.0397880">
        <ele>257.0</ele>
        <time>2019-09-04T08:47:07Z</time>
      </trkpt>
      <trkpt lat="43.2167680" lon="-6.0398710">
        <ele>257.0</ele>
        <time>2019-09-04T08:47:08Z</time>
      </trkpt>
      <trkpt lat="43.2167780" lon="-6.0399620">
        <ele>257.0</ele>
        <time>2019-09-04T08:47:09Z</time>
      </trkpt>
      <trkpt lat="43.2167880" lon="-6.0400530">
        <ele>257.0</ele>
        <time>2019-09-04T08:47:10Z</time>
      </trkpt>
      <trkpt lat="43.2167990" lon="-6.0401430">
        <ele>257.0</ele>
        <time>2019-09-04T08:47:11Z</time>
      </trkpt>
      <trkpt lat="43.2168040" lon="-6.0402330">
        <ele>257.0</ele>
        <time>2019-09-04T08:47:12Z</time>
      </trkpt>
      <trkpt lat="43.2168140" lon="-6.0403230">
        <ele>257.0</ele>
        <time>2019-09-04T08:47:13Z</time>
      </trkpt>
      <trkpt lat="43.2168240" lon="-6.0404110">
        <ele>257.0</ele>
        <time>2019-09-04T08:47:14Z</time>
      </trkpt>
      <trkpt lat="43.2168290" lon="-6.0405010">
        <ele>257.0</ele>
        <time>2019-09-04T08:47:15Z</time>
      </trkpt>
      <trkpt lat="43.2168400" lon="-6.0405910">
        <ele>257.0</ele>
        <time>2019-09-04T08:47:16Z</time>
      </trkpt>
      <trkpt lat="43.2168450" lon="-6.0406750">
        <ele>257.0</ele>
        <time>2019-09-04T08:47:17Z</time>
      </trkpt>
      <trkpt lat="43.2168550" lon="-6.0407660">
        <ele>257.0</ele>
        <time>2019-09-04T08:47:18Z</time>
      </trkpt>
      <trkpt lat="43.2168600" lon="-6.0408490">
        <ele>257.0</ele>
        <time>2019-09-04T08:47:19Z</time>
      </trkpt>
      <trkpt lat="43.2168760" lon="-6.0410260">
        <ele>257.0</ele>
        <time>2019-09-04T08:47:21Z</time>
      </trkpt>
      <trkpt lat="43.2168810" lon="-6.0411140">
        <ele>257.0</ele>
        <time>2019-09-04T08:47:22Z</time>
      </trkpt>
      <trkpt lat="43.2168860" lon="-6.0411990">
        <ele>257.0</ele>
        <time>2019-09-04T08:47:23Z</time>
      </trkpt>
      <trkpt lat="43.2168860" lon="-6.0413680">
        <ele>257.0</ele>
        <time>2019-09-04T08:47:25Z</time>
      </trkpt>
      <trkpt lat="43.2168700" lon="-6.0415350">
        <ele>257.0</ele>
        <time>2019-09-04T08:47:27Z</time>
      </trkpt>
      <trkpt lat="43.2168600" lon="-6.0416150">
        <ele>257.0</ele>
        <time>2019-09-04T08:47:28Z</time>
      </trkpt>
      <trkpt lat="43.2168450" lon="-6.0416950">
        <ele>257.0</ele>
        <time>2019-09-04T08:47:29Z</time>
      </trkpt>
      <trkpt lat="43.2168240" lon="-6.0417730">
        <ele>257.0</ele>
        <time>2019-09-04T08:47:30Z</time>
      </trkpt>
      <trkpt lat="43.2167990" lon="-6.0418430">
        <ele>257.0</ele>
        <time>2019-09-04T08:47:31Z</time>
      </trkpt>
      <trkpt lat="43.2167580" lon="-6.0419370">
        <ele>257.0</ele>
        <time>2019-09-04T08:47:33Z</time>
      </trkpt>
      <trkpt lat="43.2167220" lon="-6.0420200">
        <ele>257.0</ele>
        <time>2019-09-04T08:47:34Z</time>
      </trkpt>
      <trkpt lat="43.2166810" lon="-6.0420950">
        <ele>257.0</ele>
        <time>2019-09-04T08:47:35Z</time>
      </trkpt>
      <trkpt lat="43.2166350" lon="-6.0421610">
        <ele>257.0</ele>
        <time>2019-09-04T08:47:36Z</time>
      </trkpt>
      <trkpt lat="43.2165890" lon="-6.0422200">
        <ele>257.0</ele>
        <time>2019-09-04T08:47:37Z</time>
      </trkpt>
      <trkpt lat="43.2165430" lon="-6.0422720">
        <ele>257.0</ele>
        <time>2019-09-04T08:47:38Z</time>
      </trkpt>
      <trkpt lat="43.2164400" lon="-6.0423580">
        <ele>257.0</ele>
        <time>2019-09-04T08:47:40Z</time>
      </trkpt>
      <trkpt lat="43.2163840" lon="-6.0423930">
        <ele>257.0</ele>
        <time>2019-09-04T08:47:41Z</time>
      </trkpt>
      <trkpt lat="43.2163280" lon="-6.0424230">
        <ele>257.0</ele>
        <time>2019-09-04T08:47:42Z</time>
      </trkpt>
      <trkpt lat="43.2162710" lon="-6.0424490">
        <ele>257.0</ele>
        <time>2019-09-04T08:47:43Z</time>
      </trkpt>
      <trkpt lat="43.2162150" lon="-6.0424730">
        <ele>257.0</ele>
        <time>2019-09-04T08:47:44Z</time>
      </trkpt>
      <trkpt lat="43.2161540" lon="-6.0424930">
        <ele>257.0</ele>
        <time>2019-09-04T08:47:45Z</time>
      </trkpt>
      <trkpt lat="43.2160970" lon="-6.0425110">
        <ele>257.0</ele>
        <time>2019-09-04T08:47:46Z</time>
      </trkpt>
      <trkpt lat="43.2160360" lon="-6.0425270">
        <ele>257.0</ele>
        <time>2019-09-04T08:47:47Z</time>
      </trkpt>
      <trkpt lat="43.2159800" lon="-6.0425410">
        <ele>259.0</ele>
        <time>2019-09-04T08:47:48Z</time>
      </trkpt>
      <trkpt lat="43.2159180" lon="-6.0425550">
        <ele>259.0</ele>
        <time>2019-09-04T08:47:49Z</time>
      </trkpt>
      <trkpt lat="43.2158570" lon="-6.0425680">
        <ele>259.0</ele>
        <time>2019-09-04T08:47:50Z</time>
      </trkpt>
      <trkpt lat="43.2158000" lon="-6.0425800">
        <ele>259.0</ele>
        <time>2019-09-04T08:47:51Z</time>
      </trkpt>
      <trkpt lat="43.2157390" lon="-6.0425930">
        <ele>259.0</ele>
        <time>2019-09-04T08:47:52Z</time>
      </trkpt>
      <trkpt lat="43.2156830" lon="-6.0426040">
        <ele>259.0</ele>
        <time>2019-09-04T08:47:53Z</time>
      </trkpt>
      <trkpt lat="43.2156210" lon="-6.0426120">
        <ele>259.0</ele>
        <time>2019-09-04T08:47:54Z</time>
      </trkpt>
      <trkpt lat="43.2155650" lon="-6.0426200">
        <ele>259.0</ele>
        <time>2019-09-04T08:47:55Z</time>
      </trkpt>
      <trkpt lat="43.2155030" lon="-6.0426270">
        <ele>259.0</ele>
        <time>2019-09-04T08:47:56Z</time>
      </trkpt>
      <trkpt lat="43.2154470" lon="-6.0426320">
        <ele>259.0</ele>
        <time>2019-09-04T08:47:57Z</time>
      </trkpt>
      <trkpt lat="43.2153910" lon="-6.0426370">
        <ele>259.0</ele>
        <time>2019-09-04T08:47:58Z</time>
      </trkpt>
      <trkpt lat="43.2153340" lon="-6.0426410">
        <ele>259.0</ele>
        <time>2019-09-04T08:47:59Z</time>
      </trkpt>
      <trkpt lat="43.2152270" lon="-6.0426510">
        <ele>259.0</ele>
        <time>2019-09-04T08:48:01Z</time>
      </trkpt>
      <trkpt lat="43.2151040" lon="-6.0426620">
        <ele>259.0</ele>
        <time>2019-09-04T08:48:03Z</time>
      </trkpt>
      <trkpt lat="43.2150430" lon="-6.0426690">
        <ele>259.0</ele>
        <time>2019-09-04T08:48:04Z</time>
      </trkpt>
      <trkpt lat="43.2149810" lon="-6.0426760">
        <ele>259.0</ele>
        <time>2019-09-04T08:48:05Z</time>
      </trkpt>
      <trkpt lat="43.2149150" lon="-6.0426840">
        <ele>259.0</ele>
        <time>2019-09-04T08:48:06Z</time>
      </trkpt>
      <trkpt lat="43.2148530" lon="-6.0426930">
        <ele>259.0</ele>
        <time>2019-09-04T08:48:07Z</time>
      </trkpt>
      <trkpt lat="43.2147920" lon="-6.0427070">
        <ele>259.0</ele>
        <time>2019-09-04T08:48:08Z</time>
      </trkpt>
      <trkpt lat="43.2147250" lon="-6.0427240">
        <ele>259.0</ele>
        <time>2019-09-04T08:48:09Z</time>
      </trkpt>
      <trkpt lat="43.2146640" lon="-6.0427480">
        <ele>259.0</ele>
        <time>2019-09-04T08:48:10Z</time>
      </trkpt>
      <trkpt lat="43.2146020" lon="-6.0427780">
        <ele>259.0</ele>
        <time>2019-09-04T08:48:11Z</time>
      </trkpt>
      <trkpt lat="43.2145460" lon="-6.0428170">
        <ele>259.0</ele>
        <time>2019-09-04T08:48:12Z</time>
      </trkpt>
      <trkpt lat="43.2144950" lon="-6.0428630">
        <ele>259.0</ele>
        <time>2019-09-04T08:48:13Z</time>
      </trkpt>
      <trkpt lat="43.2144440" lon="-6.0429160">
        <ele>259.0</ele>
        <time>2019-09-04T08:48:14Z</time>
      </trkpt>
      <trkpt lat="43.2144030" lon="-6.0429720">
        <ele>259.0</ele>
        <time>2019-09-04T08:48:15Z</time>
      </trkpt>
      <trkpt lat="43.2143620" lon="-6.0430410">
        <ele>259.0</ele>
        <time>2019-09-04T08:48:16Z</time>
      </trkpt>
      <trkpt lat="43.2143310" lon="-6.0431170">
        <ele>259.0</ele>
        <time>2019-09-04T08:48:17Z</time>
      </trkpt>
      <trkpt lat="43.2143000" lon="-6.0431990">
        <ele>259.0</ele>
        <time>2019-09-04T08:48:18Z</time>
      </trkpt>
      <trkpt lat="43.2142850" lon="-6.0432850">
        <ele>259.0</ele>
        <time>2019-09-04T08:48:19Z</time>
      </trkpt>
      <trkpt lat="43.2142690" lon="-6.0433730">
        <ele>259.0</ele>
        <time>2019-09-04T08:48:20Z</time>
      </trkpt>
      <trkpt lat="43.2142640" lon="-6.0434660">
        <ele>259.0</ele>
        <time>2019-09-04T08:48:21Z</time>
      </trkpt>
      <trkpt lat="43.2142590" lon="-6.0435600">
        <ele>259.0</ele>
        <time>2019-09-04T08:48:22Z</time>
      </trkpt>
      <trkpt lat="43.2142540" lon="-6.0436490">
        <ele>259.0</ele>
        <time>2019-09-04T08:48:23Z</time>
      </trkpt>
      <trkpt lat="43.2142490" lon="-6.0437410">
        <ele>259.0</ele>
        <time>2019-09-04T08:48:24Z</time>
      </trkpt>
      <trkpt lat="43.2142230" lon="-6.0439340">
        <ele>259.0</ele>
        <time>2019-09-04T08:48:26Z</time>
      </trkpt>
      <trkpt lat="43.2142080" lon="-6.0440340">
        <ele>259.0</ele>
        <time>2019-09-04T08:48:27Z</time>
      </trkpt>
      <trkpt lat="43.2141820" lon="-6.0441270">
        <ele>259.0</ele>
        <time>2019-09-04T08:48:28Z</time>
      </trkpt>
      <trkpt lat="43.2141670" lon="-6.0442200">
        <ele>259.0</ele>
        <time>2019-09-04T08:48:29Z</time>
      </trkpt>
      <trkpt lat="43.2141410" lon="-6.0443210">
        <ele>259.0</ele>
        <time>2019-09-04T08:48:30Z</time>
      </trkpt>
      <trkpt lat="43.2141160" lon="-6.0444230">
        <ele>259.0</ele>
        <time>2019-09-04T08:48:31Z</time>
      </trkpt>
      <trkpt lat="43.2140900" lon="-6.0445200">
        <ele>261.9</ele>
        <time>2019-09-04T08:48:32Z</time>
      </trkpt>
      <trkpt lat="43.2140600" lon="-6.0446260">
        <ele>261.9</ele>
        <time>2019-09-04T08:48:33Z</time>
      </trkpt>
      <trkpt lat="43.2140440" lon="-6.0447220">
        <ele>261.9</ele>
        <time>2019-09-04T08:48:34Z</time>
      </trkpt>
      <trkpt lat="43.2140190" lon="-6.0448280">
        <ele>261.9</ele>
        <time>2019-09-04T08:48:35Z</time>
      </trkpt>
      <trkpt lat="43.2140030" lon="-6.0449340">
        <ele>261.9</ele>
        <time>2019-09-04T08:48:36Z</time>
      </trkpt>
      <trkpt lat="43.2139880" lon="-6.0450410">
        <ele>261.9</ele>
        <time>2019-09-04T08:48:37Z</time>
      </trkpt>
      <trkpt lat="43.2139830" lon="-6.0451500">
        <ele>261.9</ele>
        <time>2019-09-04T08:48:38Z</time>
      </trkpt>
      <trkpt lat="43.2139880" lon="-6.0452580">
        <ele>261.9</ele>
        <time>2019-09-04T08:48:39Z</time>
      </trkpt>
      <trkpt lat="43.2139930" lon="-6.0453610">
        <ele>261.9</ele>
        <time>2019-09-04T08:48:40Z</time>
      </trkpt>
      <trkpt lat="43.2140030" lon="-6.0454540">
        <ele>261.9</ele>
        <time>2019-09-04T08:48:41Z</time>
      </trkpt>
      <trkpt lat="43.2140190" lon="-6.0455540">
        <ele>261.9</ele>
        <time>2019-09-04T08:48:42Z</time>
      </trkpt>
      <trkpt lat="43.2140440" lon="-6.0456510">
        <ele>261.9</ele>
        <time>2019-09-04T08:48:43Z</time>
      </trkpt>
      <trkpt lat="43.2140700" lon="-6.0457430">
        <ele>261.9</ele>
        <time>2019-09-04T08:48:44Z</time>
      </trkpt>
      <trkpt lat="43.2141000" lon="-6.0458410">
        <ele>261.9</ele>
        <time>2019-09-04T08:48:45Z</time>
      </trkpt>
      <trkpt lat="43.2141210" lon="-6.0459320">
        <ele>261.9</ele>
        <time>2019-09-04T08:48:46Z</time>
      </trkpt>
      <trkpt lat="43.2141360" lon="-6.0460330">
        <ele>261.9</ele>
        <time>2019-09-04T08:48:47Z</time>
      </trkpt>
      <trkpt lat="43.2141570" lon="-6.0461340">
        <ele>261.9</ele>
        <time>2019-09-04T08:48:48Z</time>
      </trkpt>
      <trkpt lat="43.2141720" lon="-6.0462310">
        <ele>261.9</ele>
        <time>2019-09-04T08:48:49Z</time>
      </trkpt>
      <trkpt lat="43.2142030" lon="-6.0464140">
        <ele>261.9</ele>
        <time>2019-09-04T08:48:51Z</time>
      </trkpt>
      <trkpt lat="43.2142180" lon="-6.0465020">
        <ele>261.9</ele>
        <time>2019-09-04T08:48:52Z</time>
      </trkpt>
      <trkpt lat="43.2142540" lon="-6.0466870">
        <ele>261.9</ele>
        <time>2019-09-04T08:48:54Z</time>
      </trkpt>
      <trkpt lat="43.2142750" lon="-6.0467830">
        <ele>261.9</ele>
        <time>2019-09-04T08:48:55Z</time>
      </trkpt>
      <trkpt lat="43.2142900" lon="-6.0468780">
        <ele>261.9</ele>
        <time>2019-09-04T08:48:56Z</time>
      </trkpt>
      <trkpt lat="43.2143050" lon="-6.0469720">
        <ele>261.9</ele>
        <time>2019-09-04T08:48:57Z</time>
      </trkpt>
      <trkpt lat="43.2143260" lon="-6.0470640">
        <ele>261.9</ele>
        <time>2019-09-04T08:48:58Z</time>
      </trkpt>
      <trkpt lat="43.2143560" lon="-6.0472450">
        <ele>261.9</ele>
        <time>2019-09-04T08:49:00Z</time>
      </trkpt>
      <trkpt lat="43.2143920" lon="-6.0474250">
        <ele>261.9</ele>
        <time>2019-09-04T08:49:02Z</time>
      </trkpt>
      <trkpt lat="43.2144080" lon="-6.0475160">
        <ele>261.9</ele>
        <time>2019-09-04T08:49:03Z</time>
      </trkpt>
      <trkpt lat="43.2144280" lon="-6.0476050">
        <ele>264.4</ele>
        <time>2019-09-04T08:49:04Z</time>
      </trkpt>
      <trkpt lat="43.2144490" lon="-6.0476930">
        <ele>264.4</ele>
        <time>2019-09-04T08:49:05Z</time>
      </trkpt>
      <trkpt lat="43.2144640" lon="-6.0477750">
        <ele>264.4</ele>
        <time>2019-09-04T08:49:06Z</time>
      </trkpt>
      <trkpt lat="43.2144790" lon="-6.0478660">
        <ele>264.4</ele>
        <time>2019-09-04T08:49:07Z</time>
      </trkpt>
      <trkpt lat="43.2144840" lon="-6.0479560">
        <ele>264.4</ele>
        <time>2019-09-04T08:49:08Z</time>
      </trkpt>
      <trkpt lat="43.2144950" lon="-6.0480470">
        <ele>264.4</ele>
        <time>2019-09-04T08:49:09Z</time>
      </trkpt>
      <trkpt lat="43.2144950" lon="-6.0481370">
        <ele>264.4</ele>
        <time>2019-09-04T08:49:10Z</time>
      </trkpt>
      <trkpt lat="43.2144900" lon="-6.0482260">
        <ele>264.4</ele>
        <time>2019-09-04T08:49:11Z</time>
      </trkpt>
      <trkpt lat="43.2144790" lon="-6.0483140">
        <ele>264.4</ele>
        <time>2019-09-04T08:49:12Z</time>
      </trkpt>
      <trkpt lat="43.2144640" lon="-6.0484010">
        <ele>264.4</ele>
        <time>2019-09-04T08:49:13Z</time>
      </trkpt>
      <trkpt lat="43.2144490" lon="-6.0484860">
        <ele>264.4</ele>
        <time>2019-09-04T08:49:14Z</time>
      </trkpt>
      <trkpt lat="43.2144280" lon="-6.0485650">
        <ele>264.4</ele>
        <time>2019-09-04T08:49:15Z</time>
      </trkpt>
      <trkpt lat="43.2144030" lon="-6.0486500">
        <ele>264.4</ele>
        <time>2019-09-04T08:49:16Z</time>
      </trkpt>
      <trkpt lat="43.2143770" lon="-6.0487250">
        <ele>264.4</ele>
        <time>2019-09-04T08:49:17Z</time>
      </trkpt>
      <trkpt lat="43.2143410" lon="-6.0488070">
        <ele>264.4</ele>
        <time>2019-09-04T08:49:18Z</time>
      </trkpt>
      <trkpt lat="43.2143050" lon="-6.0488820">
        <ele>264.4</ele>
        <time>2019-09-04T08:49:19Z</time>
      </trkpt>
      <trkpt lat="43.2142690" lon="-6.0489620">
        <ele>264.4</ele>
        <time>2019-09-04T08:49:20Z</time>
      </trkpt>
      <trkpt lat="43.2142030" lon="-6.0491230">
        <ele>264.4</ele>
        <time>2019-09-04T08:49:22Z</time>
      </trkpt>
      <trkpt lat="43.2141720" lon="-6.0491980">
        <ele>264.4</ele>
        <time>2019-09-04T08:49:23Z</time>
      </trkpt>
      <trkpt lat="43.2141360" lon="-6.0492810">
        <ele>264.4</ele>
        <time>2019-09-04T08:49:24Z</time>
      </trkpt>
      <trkpt lat="43.2141060" lon="-6.0493650">
        <ele>264.4</ele>
        <time>2019-09-04T08:49:25Z</time>
      </trkpt>
      <trkpt lat="43.2140800" lon="-6.0494480">
        <ele>264.4</ele>
        <time>2019-09-04T08:49:26Z</time>
      </trkpt>
      <trkpt lat="43.2140540" lon="-6.0495230">
        <ele>264.4</ele>
        <time>2019-09-04T08:49:27Z</time>
      </trkpt>
      <trkpt lat="43.2140240" lon="-6.0496060">
        <ele>264.4</ele>
        <time>2019-09-04T08:49:28Z</time>
      </trkpt>
      <trkpt lat="43.2139720" lon="-6.0497700">
        <ele>264.4</ele>
        <time>2019-09-04T08:49:30Z</time>
      </trkpt>
      <trkpt lat="43.2139420" lon="-6.0498540">
        <ele>264.4</ele>
        <time>2019-09-04T08:49:31Z</time>
      </trkpt>
      <trkpt lat="43.2139210" lon="-6.0499380">
        <ele>264.4</ele>
        <time>2019-09-04T08:49:32Z</time>
      </trkpt>
      <trkpt lat="43.2138960" lon="-6.0500160">
        <ele>264.4</ele>
        <time>2019-09-04T08:49:33Z</time>
      </trkpt>
      <trkpt lat="43.2138650" lon="-6.0500950">
        <ele>264.4</ele>
        <time>2019-09-04T08:49:34Z</time>
      </trkpt>
      <trkpt lat="43.2138390" lon="-6.0501750">
        <ele>264.4</ele>
        <time>2019-09-04T08:49:35Z</time>
      </trkpt>
      <trkpt lat="43.2138140" lon="-6.0502560">
        <ele>264.4</ele>
        <time>2019-09-04T08:49:36Z</time>
      </trkpt>
      <trkpt lat="43.2137830" lon="-6.0503400">
        <ele>264.4</ele>
        <time>2019-09-04T08:49:37Z</time>
      </trkpt>
      <trkpt lat="43.2137160" lon="-6.0504990">
        <ele>266.5</ele>
        <time>2019-09-04T08:49:39Z</time>
      </trkpt>
      <trkpt lat="43.2136760" lon="-6.0505750">
        <ele>266.5</ele>
        <time>2019-09-04T08:49:40Z</time>
      </trkpt>
      <trkpt lat="43.2136400" lon="-6.0506430">
        <ele>266.5</ele>
        <time>2019-09-04T08:49:41Z</time>
      </trkpt>
      <trkpt lat="43.2136040" lon="-6.0507100">
        <ele>266.5</ele>
        <time>2019-09-04T08:49:42Z</time>
      </trkpt>
      <trkpt lat="43.2135630" lon="-6.0507760">
        <ele>266.5</ele>
        <time>2019-09-04T08:49:43Z</time>
      </trkpt>
      <trkpt lat="43.2135170" lon="-6.0508420">
        <ele>266.5</ele>
        <time>2019-09-04T08:49:44Z</time>
      </trkpt>
      <trkpt lat="43.2134660" lon="-6.0509080">
        <ele>266.5</ele>
        <time>2019-09-04T08:49:45Z</time>
      </trkpt>
      <trkpt lat="43.2134140" lon="-6.0509680">
        <ele>266.5</ele>
        <time>2019-09-04T08:49:46Z</time>
      </trkpt>
      <trkpt lat="43.2133630" lon="-6.0510240">
        <ele>266.5</ele>
        <time>2019-09-04T08:49:47Z</time>
      </trkpt>
      <trkpt lat="43.2132510" lon="-6.0511240">
        <ele>266.5</ele>
        <time>2019-09-04T08:49:49Z</time>
      </trkpt>
      <trkpt lat="43.2131940" lon="-6.0511670">
        <ele>266.5</ele>
        <time>2019-09-04T08:49:50Z</time>
      </trkpt>
      <trkpt lat="43.2131380" lon="-6.0512050">
        <ele>266.5</ele>
        <time>2019-09-04T08:49:51Z</time>
      </trkpt>
      <trkpt lat="43.2130820" lon="-6.0512380">
        <ele>266.5</ele>
        <time>2019-09-04T08:49:52Z</time>
      </trkpt>
      <trkpt lat="43.2130200" lon="-6.0512670">
        <ele>266.5</ele>
        <time>2019-09-04T08:49:53Z</time>
      </trkpt>
      <trkpt lat="43.2129590" lon="-6.0512920">
        <ele>266.5</ele>
        <time>2019-09-04T08:49:54Z</time>
      </trkpt>
      <trkpt lat="43.2128360" lon="-6.0513330">
        <ele>266.5</ele>
        <time>2019-09-04T08:49:56Z</time>
      </trkpt>
      <trkpt lat="43.2127740" lon="-6.0513480">
        <ele>266.5</ele>
        <time>2019-09-04T08:49:57Z</time>
      </trkpt>
      <trkpt lat="43.2127130" lon="-6.0513590">
        <ele>266.5</ele>
        <time>2019-09-04T08:49:58Z</time>
      </trkpt>
      <trkpt lat="43.2126460" lon="-6.0513670">
        <ele>266.5</ele>
        <time>2019-09-04T08:49:59Z</time>
      </trkpt>
      <trkpt lat="43.2125240" lon="-6.0513770">
        <ele>268.5</ele>
        <time>2019-09-04T08:50:01Z</time>
      </trkpt>
      <trkpt lat="43.2124620" lon="-6.0513790">
        <ele>268.5</ele>
        <time>2019-09-04T08:50:02Z</time>
      </trkpt>
      <trkpt lat="43.2123900" lon="-6.0513810">
        <ele>268.5</ele>
        <time>2019-09-04T08:50:03Z</time>
      </trkpt>
      <trkpt lat="43.2123290" lon="-6.0513850">
        <ele>268.5</ele>
        <time>2019-09-04T08:50:04Z</time>
      </trkpt>
      <trkpt lat="43.2122680" lon="-6.0513900">
        <ele>268.5</ele>
        <time>2019-09-04T08:50:05Z</time>
      </trkpt>
      <trkpt lat="43.2122010" lon="-6.0513990">
        <ele>268.5</ele>
        <time>2019-09-04T08:50:06Z</time>
      </trkpt>
      <trkpt lat="43.2121400" lon="-6.0514160">
        <ele>268.5</ele>
        <time>2019-09-04T08:50:07Z</time>
      </trkpt>
      <trkpt lat="43.2120170" lon="-6.0514660">
        <ele>268.5</ele>
        <time>2019-09-04T08:50:09Z</time>
      </trkpt>
      <trkpt lat="43.2119650" lon="-6.0515010">
        <ele>268.5</ele>
        <time>2019-09-04T08:50:10Z</time>
      </trkpt>
      <trkpt lat="43.2119140" lon="-6.0515390">
        <ele>268.5</ele>
        <time>2019-09-04T08:50:11Z</time>
      </trkpt>
      <trkpt lat="43.2118680" lon="-6.0515840">
        <ele>268.5</ele>
        <time>2019-09-04T08:50:12Z</time>
      </trkpt>
      <trkpt lat="43.2118020" lon="-6.0516830">
        <ele>268.5</ele>
        <time>2019-09-04T08:50:14Z</time>
      </trkpt>
      <trkpt lat="43.2117610" lon="-6.0518000">
        <ele>268.5</ele>
        <time>2019-09-04T08:50:16Z</time>
      </trkpt>
      <trkpt lat="43.2117400" lon="-6.0519340">
        <ele>268.5</ele>
        <time>2019-09-04T08:50:18Z</time>
      </trkpt>
      <trkpt lat="43.2117350" lon="-6.0520740">
        <ele>268.5</ele>
        <time>2019-09-04T08:50:20Z</time>
      </trkpt>
      <trkpt lat="43.2117560" lon="-6.0522270">
        <ele>268.5</ele>
        <time>2019-09-04T08:50:22Z</time>
      </trkpt>
      <trkpt lat="43.2117710" lon="-6.0523020">
        <ele>268.5</ele>
        <time>2019-09-04T08:50:23Z</time>
      </trkpt>
      <trkpt lat="43.2117960" lon="-6.0523750">
        <ele>271.0</ele>
        <time>2019-09-04T08:50:24Z</time>
      </trkpt>
      <trkpt lat="43.2118170" lon="-6.0524440">
        <ele>271.0</ele>
        <time>2019-09-04T08:50:25Z</time>
      </trkpt>
      <trkpt lat="43.2118480" lon="-6.0525180">
        <ele>271.0</ele>
        <time>2019-09-04T08:50:26Z</time>
      </trkpt>
      <trkpt lat="43.2118780" lon="-6.0525910">
        <ele>271.0</ele>
        <time>2019-09-04T08:50:27Z</time>
      </trkpt>
      <trkpt lat="43.2119040" lon="-6.0526640">
        <ele>271.0</ele>
        <time>2019-09-04T08:50:28Z</time>
      </trkpt>
      <trkpt lat="43.2119350" lon="-6.0527360">
        <ele>271.0</ele>
        <time>2019-09-04T08:50:29Z</time>
      </trkpt>
      <trkpt lat="43.2119650" lon="-6.0528070">
        <ele>271.0</ele>
        <time>2019-09-04T08:50:30Z</time>
      </trkpt>
      <trkpt lat="43.2119960" lon="-6.0528780">
        <ele>271.0</ele>
        <time>2019-09-04T08:50:31Z</time>
      </trkpt>
      <trkpt lat="43.2120270" lon="-6.0529500">
        <ele>271.0</ele>
        <time>2019-09-04T08:50:32Z</time>
      </trkpt>
      <trkpt lat="43.2120580" lon="-6.0530210">
        <ele>271.0</ele>
        <time>2019-09-04T08:50:33Z</time>
      </trkpt>
      <trkpt lat="43.2121140" lon="-6.0531580">
        <ele>271.0</ele>
        <time>2019-09-04T08:50:35Z</time>
      </trkpt>
      <trkpt lat="43.2121450" lon="-6.0532310">
        <ele>271.0</ele>
        <time>2019-09-04T08:50:36Z</time>
      </trkpt>
      <trkpt lat="43.2121750" lon="-6.0533020">
        <ele>271.0</ele>
        <time>2019-09-04T08:50:37Z</time>
      </trkpt>
      <trkpt lat="43.2122060" lon="-6.0533720">
        <ele>271.0</ele>
        <time>2019-09-04T08:50:38Z</time>
      </trkpt>
      <trkpt lat="43.2122370" lon="-6.0534370">
        <ele>271.0</ele>
        <time>2019-09-04T08:50:39Z</time>
      </trkpt>
      <trkpt lat="43.2122680" lon="-6.0535020">
        <ele>271.0</ele>
        <time>2019-09-04T08:50:40Z</time>
      </trkpt>
      <trkpt lat="43.2122980" lon="-6.0535720">
        <ele>271.0</ele>
        <time>2019-09-04T08:50:41Z</time>
      </trkpt>
      <trkpt lat="43.2123600" lon="-6.0537120">
        <ele>271.0</ele>
        <time>2019-09-04T08:50:43Z</time>
      </trkpt>
      <trkpt lat="43.2124160" lon="-6.0538430">
        <ele>271.0</ele>
        <time>2019-09-04T08:50:45Z</time>
      </trkpt>
      <trkpt lat="43.2124720" lon="-6.0539820">
        <ele>271.0</ele>
        <time>2019-09-04T08:50:47Z</time>
      </trkpt>
      <trkpt lat="43.2125290" lon="-6.0541250">
        <ele>271.0</ele>
        <time>2019-09-04T08:50:49Z</time>
      </trkpt>
      <trkpt lat="43.2125540" lon="-6.0541990">
        <ele>271.0</ele>
        <time>2019-09-04T08:50:50Z</time>
      </trkpt>
      <trkpt lat="43.2125800" lon="-6.0542750">
        <ele>271.0</ele>
        <time>2019-09-04T08:50:51Z</time>
      </trkpt>
      <trkpt lat="43.2126110" lon="-6.0544270">
        <ele>273.0</ele>
        <time>2019-09-04T08:50:53Z</time>
      </trkpt>
      <trkpt lat="43.2126260" lon="-6.0544980">
        <ele>273.0</ele>
        <time>2019-09-04T08:50:54Z</time>
      </trkpt>
      <trkpt lat="43.2126360" lon="-6.0545710">
        <ele>273.0</ele>
        <time>2019-09-04T08:50:55Z</time>
      </trkpt>
      <trkpt lat="43.2126360" lon="-6.0546510">
        <ele>273.0</ele>
        <time>2019-09-04T08:50:56Z</time>
      </trkpt>
      <trkpt lat="43.2126360" lon="-6.0547250">
        <ele>273.0</ele>
        <time>2019-09-04T08:50:57Z</time>
      </trkpt>
      <trkpt lat="43.2126260" lon="-6.0547990">
        <ele>273.0</ele>
        <time>2019-09-04T08:50:58Z</time>
      </trkpt>
      <trkpt lat="43.2126110" lon="-6.0548720">
        <ele>273.0</ele>
        <time>2019-09-04T08:50:59Z</time>
      </trkpt>
      <trkpt lat="43.2125900" lon="-6.0549430">
        <ele>273.0</ele>
        <time>2019-09-04T08:51:00Z</time>
      </trkpt>
      <trkpt lat="43.2125340" lon="-6.0550780">
        <ele>273.0</ele>
        <time>2019-09-04T08:51:02Z</time>
      </trkpt>
      <trkpt lat="43.2124980" lon="-6.0551370">
        <ele>273.0</ele>
        <time>2019-09-04T08:51:03Z</time>
      </trkpt>
      <trkpt lat="43.2124620" lon="-6.0551900">
        <ele>273.0</ele>
        <time>2019-09-04T08:51:04Z</time>
      </trkpt>
      <trkpt lat="43.2124160" lon="-6.0552370">
        <ele>273.0</ele>
        <time>2019-09-04T08:51:05Z</time>
      </trkpt>
      <trkpt lat="43.2123650" lon="-6.0552820">
        <ele>273.0</ele>
        <time>2019-09-04T08:51:06Z</time>
      </trkpt>
      <trkpt lat="43.2123080" lon="-6.0553170">
        <ele>273.0</ele>
        <time>2019-09-04T08:51:07Z</time>
      </trkpt>
      <trkpt lat="43.2122570" lon="-6.0553430">
        <ele>273.0</ele>
        <time>2019-09-04T08:51:08Z</time>
      </trkpt>
      <trkpt lat="43.2122010" lon="-6.0553620">
        <ele>273.0</ele>
        <time>2019-09-04T08:51:09Z</time>
      </trkpt>
      <trkpt lat="43.2121450" lon="-6.0553750">
        <ele>273.0</ele>
        <time>2019-09-04T08:51:10Z</time>
      </trkpt>
      <trkpt lat="43.2120830" lon="-6.0553840">
        <ele>273.0</ele>
        <time>2019-09-04T08:51:11Z</time>
      </trkpt>
      <trkpt lat="43.2120170" lon="-6.0553890">
        <ele>275.5</ele>
        <time>2019-09-04T08:51:12Z</time>
      </trkpt>
      <trkpt lat="43.2118890" lon="-6.0553920">
        <ele>275.5</ele>
        <time>2019-09-04T08:51:14Z</time>
      </trkpt>
      <trkpt lat="43.2118270" lon="-6.0553880">
        <ele>275.5</ele>
        <time>2019-09-04T08:51:15Z</time>
      </trkpt>
      <trkpt lat="43.2117610" lon="-6.0553830">
        <ele>275.5</ele>
        <time>2019-09-04T08:51:16Z</time>
      </trkpt>
      <trkpt lat="43.2116990" lon="-6.0553750">
        <ele>275.5</ele>
        <time>2019-09-04T08:51:17Z</time>
      </trkpt>
      <trkpt lat="43.2116380" lon="-6.0553700">
        <ele>275.5</ele>
        <time>2019-09-04T08:51:18Z</time>
      </trkpt>
      <trkpt lat="43.2115760" lon="-6.0553660">
        <ele>275.5</ele>
        <time>2019-09-04T08:51:19Z</time>
      </trkpt>
      <trkpt lat="43.2114480" lon="-6.0553530">
        <ele>275.5</ele>
        <time>2019-09-04T08:51:21Z</time>
      </trkpt>
      <trkpt lat="43.2113200" lon="-6.0553390">
        <ele>275.5</ele>
        <time>2019-09-04T08:51:23Z</time>
      </trkpt>
      <trkpt lat="43.2112540" lon="-6.0553320">
        <ele>275.5</ele>
        <time>2019-09-04T08:51:24Z</time>
      </trkpt>
      <trkpt lat="43.2111920" lon="-6.0553280">
        <ele>275.5</ele>
        <time>2019-09-04T08:51:25Z</time>
      </trkpt>
      <trkpt lat="43.2111260" lon="-6.0553250">
        <ele>275.5</ele>
        <time>2019-09-04T08:51:26Z</time>
      </trkpt>
      <trkpt lat="43.2110540" lon="-6.0553240">
        <ele>275.5</ele>
        <time>2019-09-04T08:51:27Z</time>
      </trkpt>
      <trkpt lat="43.2109930" lon="-6.0553270">
        <ele>275.5</ele>
        <time>2019-09-04T08:51:28Z</time>
      </trkpt>
      <trkpt lat="43.2109310" lon="-6.0553330">
        <ele>275.5</ele>
        <time>2019-09-04T08:51:29Z</time>
      </trkpt>
      <trkpt lat="43.2108700" lon="-6.0553450">
        <ele>275.5</ele>
        <time>2019-09-04T08:51:30Z</time>
      </trkpt>
      <trkpt lat="43.2108030" lon="-6.0553650">
        <ele>275.5</ele>
        <time>2019-09-04T08:51:31Z</time>
      </trkpt>
      <trkpt lat="43.2107370" lon="-6.0553910">
        <ele>275.5</ele>
        <time>2019-09-04T08:51:32Z</time>
      </trkpt>
      <trkpt lat="43.2106850" lon="-6.0554180">
        <ele>275.5</ele>
        <time>2019-09-04T08:51:33Z</time>
      </trkpt>
      <trkpt lat="43.2106240" lon="-6.0554540">
        <ele>275.5</ele>
        <time>2019-09-04T08:51:34Z</time>
      </trkpt>
      <trkpt lat="43.2105730" lon="-6.0554910">
        <ele>275.5</ele>
        <time>2019-09-04T08:51:35Z</time>
      </trkpt>
      <trkpt lat="43.2105160" lon="-6.0555370">
        <ele>277.5</ele>
        <time>2019-09-04T08:51:36Z</time>
      </trkpt>
      <trkpt lat="43.2104700" lon="-6.0555860">
        <ele>277.5</ele>
        <time>2019-09-04T08:51:37Z</time>
      </trkpt>
      <trkpt lat="43.2103730" lon="-6.0556950">
        <ele>277.5</ele>
        <time>2019-09-04T08:51:39Z</time>
      </trkpt>
      <trkpt lat="43.2102960" lon="-6.0558210">
        <ele>277.5</ele>
        <time>2019-09-04T08:51:41Z</time>
      </trkpt>
      <trkpt lat="43.2102660" lon="-6.0558840">
        <ele>277.5</ele>
        <time>2019-09-04T08:51:42Z</time>
      </trkpt>
      <trkpt lat="43.2102040" lon="-6.0560280">
        <ele>277.5</ele>
        <time>2019-09-04T08:51:44Z</time>
      </trkpt>
      <trkpt lat="43.2101730" lon="-6.0561020">
        <ele>277.5</ele>
        <time>2019-09-04T08:51:45Z</time>
      </trkpt>
      <trkpt lat="43.2101270" lon="-6.0562460">
        <ele>277.5</ele>
        <time>2019-09-04T08:51:47Z</time>
      </trkpt>
      <trkpt lat="43.2100970" lon="-6.0563250">
        <ele>277.5</ele>
        <time>2019-09-04T08:51:48Z</time>
      </trkpt>
      <trkpt lat="43.2100760" lon="-6.0564000">
        <ele>277.5</ele>
        <time>2019-09-04T08:51:49Z</time>
      </trkpt>
      <trkpt lat="43.2100250" lon="-6.0565520">
        <ele>277.5</ele>
        <time>2019-09-04T08:51:51Z</time>
      </trkpt>
      <trkpt lat="43.2100040" lon="-6.0566290">
        <ele>277.5</ele>
        <time>2019-09-04T08:51:52Z</time>
      </trkpt>
      <trkpt lat="43.2099530" lon="-6.0567880">
        <ele>277.5</ele>
        <time>2019-09-04T08:51:54Z</time>
      </trkpt>
      <trkpt lat="43.2099330" lon="-6.0568680">
        <ele>277.5</ele>
        <time>2019-09-04T08:51:55Z</time>
      </trkpt>
      <trkpt lat="43.2098870" lon="-6.0570250">
        <ele>277.5</ele>
        <time>2019-09-04T08:51:57Z</time>
      </trkpt>
      <trkpt lat="43.2098510" lon="-6.0571740">
        <ele>277.5</ele>
        <time>2019-09-04T08:51:59Z</time>
      </trkpt>
      <trkpt lat="43.2098050" lon="-6.0573290">
        <ele>280.2</ele>
        <time>2019-09-04T08:52:01Z</time>
      </trkpt>
      <trkpt lat="43.2097540" lon="-6.0574770">
        <ele>280.2</ele>
        <time>2019-09-04T08:52:03Z</time>
      </trkpt>
      <trkpt lat="43.2097080" lon="-6.0576280">
        <ele>280.2</ele>
        <time>2019-09-04T08:52:05Z</time>
      </trkpt>
      <trkpt lat="43.2096460" lon="-6.0577720">
        <ele>280.2</ele>
        <time>2019-09-04T08:52:07Z</time>
      </trkpt>
      <trkpt lat="43.2095850" lon="-6.0579040">
        <ele>280.2</ele>
        <time>2019-09-04T08:52:09Z</time>
      </trkpt>
      <trkpt lat="43.2095030" lon="-6.0580210">
        <ele>280.2</ele>
        <time>2019-09-04T08:52:11Z</time>
      </trkpt>
      <trkpt lat="43.2094570" lon="-6.0580730">
        <ele>280.2</ele>
        <time>2019-09-04T08:52:12Z</time>
      </trkpt>
      <trkpt lat="43.2093590" lon="-6.0581600">
        <ele>280.2</ele>
        <time>2019-09-04T08:52:14Z</time>
      </trkpt>
      <trkpt lat="43.2093030" lon="-6.0581950">
        <ele>280.2</ele>
        <time>2019-09-04T08:52:15Z</time>
      </trkpt>
      <trkpt lat="43.2091960" lon="-6.0582430">
        <ele>280.2</ele>
        <time>2019-09-04T08:52:17Z</time>
      </trkpt>
      <trkpt lat="43.2090730" lon="-6.0582640">
        <ele>280.2</ele>
        <time>2019-09-04T08:52:19Z</time>
      </trkpt>
      <trkpt lat="43.2089500" lon="-6.0582530">
        <ele>280.2</ele>
        <time>2019-09-04T08:52:21Z</time>
      </trkpt>
      <trkpt lat="43.2088880" lon="-6.0582370">
        <ele>282.2</ele>
        <time>2019-09-04T08:52:22Z</time>
      </trkpt>
      <trkpt lat="43.2087760" lon="-6.0581830">
        <ele>282.2</ele>
        <time>2019-09-04T08:52:24Z</time>
      </trkpt>
      <trkpt lat="43.2087190" lon="-6.0581450">
        <ele>282.2</ele>
        <time>2019-09-04T08:52:25Z</time>
      </trkpt>
      <trkpt lat="43.2086170" lon="-6.0580500">
        <ele>282.2</ele>
        <time>2019-09-04T08:52:27Z</time>
      </trkpt>
      <trkpt lat="43.2085200" lon="-6.0579320">
        <ele>282.2</ele>
        <time>2019-09-04T08:52:29Z</time>
      </trkpt>
      <trkpt lat="43.2082840" lon="-6.0576130">
        <ele>282.2</ele>
        <time>2019-09-04T08:52:32Z</time>
      </trkpt>
      <trkpt lat="43.2082690" lon="-6.0575970">
        <ele>282.2</ele>
        <time>2019-09-04T08:52:33Z</time>
      </trkpt>
      <trkpt lat="43.2081660" lon="-6.0574810">
        <ele>282.2</ele>
        <time>2019-09-04T08:52:36Z</time>
      </trkpt>
      <trkpt lat="43.2080590" lon="-6.0573980">
        <ele>282.2</ele>
        <time>2019-09-04T08:52:38Z</time>
      </trkpt>
      <trkpt lat="43.2079360" lon="-6.0573320">
        <ele>282.2</ele>
        <time>2019-09-04T08:52:40Z</time>
      </trkpt>
      <trkpt lat="43.2078080" lon="-6.0572810">
        <ele>282.2</ele>
        <time>2019-09-04T08:52:42Z</time>
      </trkpt>
      <trkpt lat="43.2076700" lon="-6.0572390">
        <ele>284.3</ele>
        <time>2019-09-04T08:52:44Z</time>
      </trkpt>
      <trkpt lat="43.2075420" lon="-6.0572060">
        <ele>284.3</ele>
        <time>2019-09-04T08:52:46Z</time>
      </trkpt>
      <trkpt lat="43.2074040" lon="-6.0571690">
        <ele>284.3</ele>
        <time>2019-09-04T08:52:48Z</time>
      </trkpt>
      <trkpt lat="43.2072810" lon="-6.0571170">
        <ele>284.3</ele>
        <time>2019-09-04T08:52:50Z</time>
      </trkpt>
      <trkpt lat="43.2071580" lon="-6.0570430">
        <ele>284.3</ele>
        <time>2019-09-04T08:52:52Z</time>
      </trkpt>
      <trkpt lat="43.2070400" lon="-6.0569620">
        <ele>284.3</ele>
        <time>2019-09-04T08:52:54Z</time>
      </trkpt>
      <trkpt lat="43.2069790" lon="-6.0569180">
        <ele>284.3</ele>
        <time>2019-09-04T08:52:55Z</time>
      </trkpt>
      <trkpt lat="43.2069220" lon="-6.0568770">
        <ele>284.3</ele>
        <time>2019-09-04T08:52:56Z</time>
      </trkpt>
      <trkpt lat="43.2068040" lon="-6.0567820">
        <ele>284.3</ele>
        <time>2019-09-04T08:52:58Z</time>
      </trkpt>
      <trkpt lat="43.2066820" lon="-6.0566970">
        <ele>284.3</ele>
        <time>2019-09-04T08:53:00Z</time>
      </trkpt>
      <trkpt lat="43.2066250" lon="-6.0566570">
        <ele>286.3</ele>
        <time>2019-09-04T08:53:01Z</time>
      </trkpt>
      <trkpt lat="43.2065020" lon="-6.0565760">
        <ele>286.3</ele>
        <time>2019-09-04T08:53:03Z</time>
      </trkpt>
      <trkpt lat="43.2064460" lon="-6.0565330">
        <ele>286.3</ele>
        <time>2019-09-04T08:53:04Z</time>
      </trkpt>
      <trkpt lat="43.2063280" lon="-6.0564420">
        <ele>286.3</ele>
        <time>2019-09-04T08:53:06Z</time>
      </trkpt>
      <trkpt lat="43.2062110" lon="-6.0563540">
        <ele>286.3</ele>
        <time>2019-09-04T08:53:08Z</time>
      </trkpt>
      <trkpt lat="43.2060930" lon="-6.0562730">
        <ele>286.3</ele>
        <time>2019-09-04T08:53:10Z</time>
      </trkpt>
      <trkpt lat="43.2060360" lon="-6.0562310">
        <ele>286.3</ele>
        <time>2019-09-04T08:53:11Z</time>
      </trkpt>
      <trkpt lat="43.2059190" lon="-6.0561450">
        <ele>286.3</ele>
        <time>2019-09-04T08:53:13Z</time>
      </trkpt>
      <trkpt lat="43.2058060" lon="-6.0560560">
        <ele>286.3</ele>
        <time>2019-09-04T08:53:15Z</time>
      </trkpt>
      <trkpt lat="43.2057500" lon="-6.0560110">
        <ele>286.3</ele>
        <time>2019-09-04T08:53:16Z</time>
      </trkpt>
      <trkpt lat="43.2056990" lon="-6.0559660">
        <ele>286.3</ele>
        <time>2019-09-04T08:53:17Z</time>
      </trkpt>
      <trkpt lat="43.2055810" lon="-6.0558810">
        <ele>286.3</ele>
        <time>2019-09-04T08:53:19Z</time>
      </trkpt>
      <trkpt lat="43.2054630" lon="-6.0558120">
        <ele>288.9</ele>
        <time>2019-09-04T08:53:21Z</time>
      </trkpt>
      <trkpt lat="43.2054020" lon="-6.0557860">
        <ele>288.9</ele>
        <time>2019-09-04T08:53:22Z</time>
      </trkpt>
      <trkpt lat="43.2053450" lon="-6.0557680">
        <ele>288.9</ele>
        <time>2019-09-04T08:53:23Z</time>
      </trkpt>
      <trkpt lat="43.2052840" lon="-6.0557550">
        <ele>288.9</ele>
        <time>2019-09-04T08:53:24Z</time>
      </trkpt>
      <trkpt lat="43.2052170" lon="-6.0557480">
        <ele>288.9</ele>
        <time>2019-09-04T08:53:25Z</time>
      </trkpt>
      <trkpt lat="43.2051560" lon="-6.0557500">
        <ele>288.9</ele>
        <time>2019-09-04T08:53:26Z</time>
      </trkpt>
      <trkpt lat="43.2050330" lon="-6.0557780">
        <ele>288.9</ele>
        <time>2019-09-04T08:53:28Z</time>
      </trkpt>
      <trkpt lat="43.2049200" lon="-6.0558370">
        <ele>288.9</ele>
        <time>2019-09-04T08:53:30Z</time>
      </trkpt>
      <trkpt lat="43.2048130" lon="-6.0559240">
        <ele>288.9</ele>
        <time>2019-09-04T08:53:32Z</time>
      </trkpt>
      <trkpt lat="43.2047210" lon="-6.0560290">
        <ele>288.9</ele>
        <time>2019-09-04T08:53:34Z</time>
      </trkpt>
      <trkpt lat="43.2046340" lon="-6.0561560">
        <ele>288.9</ele>
        <time>2019-09-04T08:53:36Z</time>
      </trkpt>
      <trkpt lat="43.2045570" lon="-6.0562880">
        <ele>288.9</ele>
        <time>2019-09-04T08:53:38Z</time>
      </trkpt>
      <trkpt lat="43.2044900" lon="-6.0564350">
        <ele>288.9</ele>
        <time>2019-09-04T08:53:40Z</time>
      </trkpt>
      <trkpt lat="43.2044240" lon="-6.0565800">
        <ele>288.9</ele>
        <time>2019-09-04T08:53:42Z</time>
      </trkpt>
      <trkpt lat="43.2043930" lon="-6.0566530">
        <ele>288.9</ele>
        <time>2019-09-04T08:53:43Z</time>
      </trkpt>
      <trkpt lat="43.2043570" lon="-6.0567300">
        <ele>288.9</ele>
        <time>2019-09-04T08:53:44Z</time>
      </trkpt>
      <trkpt lat="43.2043260" lon="-6.0568060">
        <ele>288.9</ele>
        <time>2019-09-04T08:53:45Z</time>
      </trkpt>
      <trkpt lat="43.2042960" lon="-6.0568830">
        <ele>288.9</ele>
        <time>2019-09-04T08:53:46Z</time>
      </trkpt>
      <trkpt lat="43.2042340" lon="-6.0570300">
        <ele>291.0</ele>
        <time>2019-09-04T08:53:48Z</time>
      </trkpt>
      <trkpt lat="43.2042040" lon="-6.0571080">
        <ele>291.0</ele>
        <time>2019-09-04T08:53:49Z</time>
      </trkpt>
      <trkpt lat="43.2041730" lon="-6.0571840">
        <ele>291.0</ele>
        <time>2019-09-04T08:53:50Z</time>
      </trkpt>
      <trkpt lat="43.2041420" lon="-6.0572590">
        <ele>291.0</ele>
        <time>2019-09-04T08:53:51Z</time>
      </trkpt>
      <trkpt lat="43.2041110" lon="-6.0573320">
        <ele>291.0</ele>
        <time>2019-09-04T08:53:52Z</time>
      </trkpt>
      <trkpt lat="43.2040810" lon="-6.0574000">
        <ele>291.0</ele>
        <time>2019-09-04T08:53:53Z</time>
      </trkpt>
      <trkpt lat="43.2040190" lon="-6.0575440">
        <ele>291.0</ele>
        <time>2019-09-04T08:53:55Z</time>
      </trkpt>
      <trkpt lat="43.2039880" lon="-6.0576240">
        <ele>291.0</ele>
        <time>2019-09-04T08:53:56Z</time>
      </trkpt>
      <trkpt lat="43.2039680" lon="-6.0577030">
        <ele>291.0</ele>
        <time>2019-09-04T08:53:57Z</time>
      </trkpt>
      <trkpt lat="43.2039480" lon="-6.0577780">
        <ele>291.0</ele>
        <time>2019-09-04T08:53:58Z</time>
      </trkpt>
      <trkpt lat="43.2039320" lon="-6.0578550">
        <ele>291.0</ele>
        <time>2019-09-04T08:53:59Z</time>
      </trkpt>
      <trkpt lat="43.2039010" lon="-6.0580270">
        <ele>291.0</ele>
        <time>2019-09-04T08:54:01Z</time>
      </trkpt>
      <trkpt lat="43.2038860" lon="-6.0581150">
        <ele>291.0</ele>
        <time>2019-09-04T08:54:02Z</time>
      </trkpt>
      <trkpt lat="43.2038810" lon="-6.0581960">
        <ele>291.0</ele>
        <time>2019-09-04T08:54:03Z</time>
      </trkpt>
      <trkpt lat="43.2038660" lon="-6.0583760">
        <ele>291.0</ele>
        <time>2019-09-04T08:54:05Z</time>
      </trkpt>
      <trkpt lat="43.2038550" lon="-6.0584630">
        <ele>291.0</ele>
        <time>2019-09-04T08:54:06Z</time>
      </trkpt>
      <trkpt lat="43.2038450" lon="-6.0585520">
        <ele>293.0</ele>
        <time>2019-09-04T08:54:07Z</time>
      </trkpt>
      <trkpt lat="43.2038400" lon="-6.0586380">
        <ele>293.0</ele>
        <time>2019-09-04T08:54:08Z</time>
      </trkpt>
      <trkpt lat="43.2038250" lon="-6.0588060">
        <ele>293.0</ele>
        <time>2019-09-04T08:54:10Z</time>
      </trkpt>
      <trkpt lat="43.2038040" lon="-6.0589680">
        <ele>293.0</ele>
        <time>2019-09-04T08:54:12Z</time>
      </trkpt>
      <trkpt lat="43.2037940" lon="-6.0590520">
        <ele>293.0</ele>
        <time>2019-09-04T08:54:13Z</time>
      </trkpt>
      <trkpt lat="43.2037840" lon="-6.0592060">
        <ele>293.0</ele>
        <time>2019-09-04T08:54:15Z</time>
      </trkpt>
      <trkpt lat="43.2037790" lon="-6.0592880">
        <ele>293.0</ele>
        <time>2019-09-04T08:54:16Z</time>
      </trkpt>
      <trkpt lat="43.2037630" lon="-6.0594410">
        <ele>293.0</ele>
        <time>2019-09-04T08:54:18Z</time>
      </trkpt>
      <trkpt lat="43.2037430" lon="-6.0595970">
        <ele>293.0</ele>
        <time>2019-09-04T08:54:20Z</time>
      </trkpt>
      <trkpt lat="43.2037320" lon="-6.0596770">
        <ele>293.0</ele>
        <time>2019-09-04T08:54:21Z</time>
      </trkpt>
      <trkpt lat="43.2037170" lon="-6.0597560">
        <ele>293.0</ele>
        <time>2019-09-04T08:54:22Z</time>
      </trkpt>
      <trkpt lat="43.2036760" lon="-6.0599060">
        <ele>295.0</ele>
        <time>2019-09-04T08:54:24Z</time>
      </trkpt>
      <trkpt lat="43.2036560" lon="-6.0599740">
        <ele>295.0</ele>
        <time>2019-09-04T08:54:25Z</time>
      </trkpt>
      <trkpt lat="43.2036040" lon="-6.0601090">
        <ele>295.0</ele>
        <time>2019-09-04T08:54:27Z</time>
      </trkpt>
      <trkpt lat="43.2035430" lon="-6.0602360">
        <ele>295.0</ele>
        <time>2019-09-04T08:54:29Z</time>
      </trkpt>
      <trkpt lat="43.2035020" lon="-6.0603000">
        <ele>295.0</ele>
        <time>2019-09-04T08:54:30Z</time>
      </trkpt>
      <trkpt lat="43.2034660" lon="-6.0603600">
        <ele>295.0</ele>
        <time>2019-09-04T08:54:31Z</time>
      </trkpt>
      <trkpt lat="43.2033840" lon="-6.0604670">
        <ele>295.0</ele>
        <time>2019-09-04T08:54:33Z</time>
      </trkpt>
      <trkpt lat="43.2033430" lon="-6.0605130">
        <ele>295.0</ele>
        <time>2019-09-04T08:54:34Z</time>
      </trkpt>
      <trkpt lat="43.2032920" lon="-6.0605610">
        <ele>295.0</ele>
        <time>2019-09-04T08:54:35Z</time>
      </trkpt>
      <trkpt lat="43.2031950" lon="-6.0606430">
        <ele>295.0</ele>
        <time>2019-09-04T08:54:37Z</time>
      </trkpt>
      <trkpt lat="43.2031440" lon="-6.0606760">
        <ele>297.0</ele>
        <time>2019-09-04T08:54:38Z</time>
      </trkpt>
      <trkpt lat="43.2030870" lon="-6.0607080">
        <ele>297.0</ele>
        <time>2019-09-04T08:54:39Z</time>
      </trkpt>
      <trkpt lat="43.2030310" lon="-6.0607390">
        <ele>297.0</ele>
        <time>2019-09-04T08:54:40Z</time>
      </trkpt>
      <trkpt lat="43.2029290" lon="-6.0607950">
        <ele>297.0</ele>
        <time>2019-09-04T08:54:42Z</time>
      </trkpt>
      <trkpt lat="43.2028210" lon="-6.0608500">
        <ele>297.0</ele>
        <time>2019-09-04T08:54:44Z</time>
      </trkpt>
      <trkpt lat="43.2027650" lon="-6.0608780">
        <ele>297.0</ele>
        <time>2019-09-04T08:54:45Z</time>
      </trkpt>
      <trkpt lat="43.2026620" lon="-6.0609360">
        <ele>297.0</ele>
        <time>2019-09-04T08:54:47Z</time>
      </trkpt>
      <trkpt lat="43.2026160" lon="-6.0609660">
        <ele>299.0</ele>
        <time>2019-09-04T08:54:48Z</time>
      </trkpt>
      <trkpt lat="43.2025240" lon="-6.0610230">
        <ele>299.0</ele>
        <time>2019-09-04T08:54:50Z</time>
      </trkpt>
      <trkpt lat="43.2024320" lon="-6.0610840">
        <ele>299.0</ele>
        <time>2019-09-04T08:54:52Z</time>
      </trkpt>
      <trkpt lat="43.2023860" lon="-6.0611140">
        <ele>299.0</ele>
        <time>2019-09-04T08:54:53Z</time>
      </trkpt>
      <trkpt lat="43.2022940" lon="-6.0611770">
        <ele>299.0</ele>
        <time>2019-09-04T08:54:55Z</time>
      </trkpt>
      <trkpt lat="43.2022070" lon="-6.0612410">
        <ele>299.0</ele>
        <time>2019-09-04T08:54:57Z</time>
      </trkpt>
      <trkpt lat="43.2021610" lon="-6.0612780">
        <ele>299.0</ele>
        <time>2019-09-04T08:54:58Z</time>
      </trkpt>
      <trkpt lat="43.2020740" lon="-6.0613540">
        <ele>299.0</ele>
        <time>2019-09-04T08:55:00Z</time>
      </trkpt>
      <trkpt lat="43.2020280" lon="-6.0613920">
        <ele>299.0</ele>
        <time>2019-09-04T08:55:01Z</time>
      </trkpt>
      <trkpt lat="43.2019870" lon="-6.0614320">
        <ele>301.1</ele>
        <time>2019-09-04T08:55:02Z</time>
      </trkpt>
      <trkpt lat="43.2019050" lon="-6.0615150">
        <ele>301.1</ele>
        <time>2019-09-04T08:55:04Z</time>
      </trkpt>
      <trkpt lat="43.2018640" lon="-6.0615580">
        <ele>301.1</ele>
        <time>2019-09-04T08:55:05Z</time>
      </trkpt>
      <trkpt lat="43.2017510" lon="-6.0616910">
        <ele>301.1</ele>
        <time>2019-09-04T08:55:08Z</time>
      </trkpt>
      <trkpt lat="43.2017150" lon="-6.0617400">
        <ele>301.1</ele>
        <time>2019-09-04T08:55:09Z</time>
      </trkpt>
      <trkpt lat="43.2016440" lon="-6.0618350">
        <ele>301.1</ele>
        <time>2019-09-04T08:55:11Z</time>
      </trkpt>
      <trkpt lat="43.2016030" lon="-6.0618900">
        <ele>301.1</ele>
        <time>2019-09-04T08:55:12Z</time>
      </trkpt>
      <trkpt lat="43.2015310" lon="-6.0620020">
        <ele>301.1</ele>
        <time>2019-09-04T08:55:14Z</time>
      </trkpt>
      <trkpt lat="43.2014540" lon="-6.0621180">
        <ele>301.1</ele>
        <time>2019-09-04T08:55:16Z</time>
      </trkpt>
      <trkpt lat="43.2013720" lon="-6.0622370">
        <ele>301.1</ele>
        <time>2019-09-04T08:55:18Z</time>
      </trkpt>
      <trkpt lat="43.2013410" lon="-6.0622960">
        <ele>301.1</ele>
        <time>2019-09-04T08:55:19Z</time>
      </trkpt>
      <trkpt lat="43.2012650" lon="-6.0624180">
        <ele>303.1</ele>
        <time>2019-09-04T08:55:21Z</time>
      </trkpt>
      <trkpt lat="43.2011780" lon="-6.0625560">
        <ele>303.1</ele>
        <time>2019-09-04T08:55:23Z</time>
      </trkpt>
      <trkpt lat="43.2011420" lon="-6.0626280">
        <ele>303.1</ele>
        <time>2019-09-04T08:55:24Z</time>
      </trkpt>
      <trkpt lat="43.2011060" lon="-6.0626980">
        <ele>303.1</ele>
        <time>2019-09-04T08:55:25Z</time>
      </trkpt>
      <trkpt lat="43.2010750" lon="-6.0627750">
        <ele>303.1</ele>
        <time>2019-09-04T08:55:26Z</time>
      </trkpt>
      <trkpt lat="43.2010440" lon="-6.0628550">
        <ele>303.1</ele>
        <time>2019-09-04T08:55:27Z</time>
      </trkpt>
      <trkpt lat="43.2010190" lon="-6.0629340">
        <ele>303.1</ele>
        <time>2019-09-04T08:55:28Z</time>
      </trkpt>
      <trkpt lat="43.2009980" lon="-6.0630210">
        <ele>303.1</ele>
        <time>2019-09-04T08:55:29Z</time>
      </trkpt>
      <trkpt lat="43.2009680" lon="-6.0631920">
        <ele>303.1</ele>
        <time>2019-09-04T08:55:31Z</time>
      </trkpt>
      <trkpt lat="43.2009570" lon="-6.0633750">
        <ele>303.1</ele>
        <time>2019-09-04T08:55:33Z</time>
      </trkpt>
      <trkpt lat="43.2009680" lon="-6.0635510">
        <ele>303.1</ele>
        <time>2019-09-04T08:55:35Z</time>
      </trkpt>
      <trkpt lat="43.2009830" lon="-6.0637160">
        <ele>303.1</ele>
        <time>2019-09-04T08:55:37Z</time>
      </trkpt>
      <trkpt lat="43.2009980" lon="-6.0638800">
        <ele>303.1</ele>
        <time>2019-09-04T08:55:39Z</time>
      </trkpt>
      <trkpt lat="43.2010090" lon="-6.0639620">
        <ele>303.1</ele>
        <time>2019-09-04T08:55:40Z</time>
      </trkpt>
      <trkpt lat="43.2010240" lon="-6.0641230">
        <ele>303.1</ele>
        <time>2019-09-04T08:55:42Z</time>
      </trkpt>
      <trkpt lat="43.2010290" lon="-6.0642040">
        <ele>303.1</ele>
        <time>2019-09-04T08:55:43Z</time>
      </trkpt>
      <trkpt lat="43.2010340" lon="-6.0643620">
        <ele>305.9</ele>
        <time>2019-09-04T08:55:45Z</time>
      </trkpt>
      <trkpt lat="43.2010390" lon="-6.0645230">
        <ele>305.9</ele>
        <time>2019-09-04T08:55:47Z</time>
      </trkpt>
      <trkpt lat="43.2010340" lon="-6.0646880">
        <ele>305.9</ele>
        <time>2019-09-04T08:55:49Z</time>
      </trkpt>
      <trkpt lat="43.2010240" lon="-6.0648460">
        <ele>305.9</ele>
        <time>2019-09-04T08:55:51Z</time>
      </trkpt>
      <trkpt lat="43.2010140" lon="-6.0650030">
        <ele>305.9</ele>
        <time>2019-09-04T08:55:53Z</time>
      </trkpt>
      <trkpt lat="43.2010090" lon="-6.0650820">
        <ele>305.9</ele>
        <time>2019-09-04T08:55:54Z</time>
      </trkpt>
      <trkpt lat="43.2009980" lon="-6.0652340">
        <ele>305.9</ele>
        <time>2019-09-04T08:55:56Z</time>
      </trkpt>
      <trkpt lat="43.2009830" lon="-6.0653910">
        <ele>305.9</ele>
        <time>2019-09-04T08:55:58Z</time>
      </trkpt>
      <trkpt lat="43.2009680" lon="-6.0655500">
        <ele>305.9</ele>
        <time>2019-09-04T08:56:00Z</time>
      </trkpt>
      <trkpt lat="43.2009520" lon="-6.0657090">
        <ele>308.0</ele>
        <time>2019-09-04T08:56:02Z</time>
      </trkpt>
      <trkpt lat="43.2009420" lon="-6.0657880">
        <ele>308.0</ele>
        <time>2019-09-04T08:56:03Z</time>
      </trkpt>
      <trkpt lat="43.2009370" lon="-6.0658680">
        <ele>308.0</ele>
        <time>2019-09-04T08:56:04Z</time>
      </trkpt>
      <trkpt lat="43.2009270" lon="-6.0660330">
        <ele>308.0</ele>
        <time>2019-09-04T08:56:06Z</time>
      </trkpt>
      <trkpt lat="43.2009220" lon="-6.0661990">
        <ele>308.0</ele>
        <time>2019-09-04T08:56:08Z</time>
      </trkpt>
      <trkpt lat="43.2009110" lon="-6.0663600">
        <ele>308.0</ele>
        <time>2019-09-04T08:56:10Z</time>
      </trkpt>
      <trkpt lat="43.2009110" lon="-6.0664400">
        <ele>308.0</ele>
        <time>2019-09-04T08:56:11Z</time>
      </trkpt>
      <trkpt lat="43.2009110" lon="-6.0666110">
        <ele>308.0</ele>
        <time>2019-09-04T08:56:13Z</time>
      </trkpt>
      <trkpt lat="43.2009110" lon="-6.0667740">
        <ele>308.0</ele>
        <time>2019-09-04T08:56:15Z</time>
      </trkpt>
      <trkpt lat="43.2009060" lon="-6.0669370">
        <ele>308.0</ele>
        <time>2019-09-04T08:56:17Z</time>
      </trkpt>
      <trkpt lat="43.2008960" lon="-6.0670160">
        <ele>308.0</ele>
        <time>2019-09-04T08:56:18Z</time>
      </trkpt>
      <trkpt lat="43.2008650" lon="-6.0671830">
        <ele>308.0</ele>
        <time>2019-09-04T08:56:20Z</time>
      </trkpt>
      <trkpt lat="43.2008240" lon="-6.0673340">
        <ele>308.0</ele>
        <time>2019-09-04T08:56:22Z</time>
      </trkpt>
      <trkpt lat="43.2007990" lon="-6.0674040">
        <ele>308.0</ele>
        <time>2019-09-04T08:56:23Z</time>
      </trkpt>
      <trkpt lat="43.2007420" lon="-6.0675390">
        <ele>308.0</ele>
        <time>2019-09-04T08:56:25Z</time>
      </trkpt>
      <trkpt lat="43.2006660" lon="-6.0676690">
        <ele>308.0</ele>
        <time>2019-09-04T08:56:27Z</time>
      </trkpt>
      <trkpt lat="43.2006250" lon="-6.0677240">
        <ele>308.0</ele>
        <time>2019-09-04T08:56:28Z</time>
      </trkpt>
      <trkpt lat="43.2005270" lon="-6.0678300">
        <ele>310.0</ele>
        <time>2019-09-04T08:56:30Z</time>
      </trkpt>
      <trkpt lat="43.2004300" lon="-6.0679160">
        <ele>310.0</ele>
        <time>2019-09-04T08:56:32Z</time>
      </trkpt>
      <trkpt lat="43.2003170" lon="-6.0679810">
        <ele>310.0</ele>
        <time>2019-09-04T08:56:34Z</time>
      </trkpt>
      <trkpt lat="43.2002050" lon="-6.0680280">
        <ele>310.0</ele>
        <time>2019-09-04T08:56:36Z</time>
      </trkpt>
      <trkpt lat="43.2000820" lon="-6.0680590">
        <ele>310.0</ele>
        <time>2019-09-04T08:56:38Z</time>
      </trkpt>
      <trkpt lat="43.1999590" lon="-6.0680770">
        <ele>310.0</ele>
        <time>2019-09-04T08:56:40Z</time>
      </trkpt>
      <trkpt lat="43.1998360" lon="-6.0680880">
        <ele>310.0</ele>
        <time>2019-09-04T08:56:42Z</time>
      </trkpt>
      <trkpt lat="43.1997130" lon="-6.0680920">
        <ele>310.0</ele>
        <time>2019-09-04T08:56:44Z</time>
      </trkpt>
      <trkpt lat="43.1995900" lon="-6.0680980">
        <ele>310.0</ele>
        <time>2019-09-04T08:56:46Z</time>
      </trkpt>
      <trkpt lat="43.1994680" lon="-6.0681200">
        <ele>310.0</ele>
        <time>2019-09-04T08:56:48Z</time>
      </trkpt>
      <trkpt lat="43.1993500" lon="-6.0681660">
        <ele>312.0</ele>
        <time>2019-09-04T08:56:50Z</time>
      </trkpt>
      <trkpt lat="43.1992320" lon="-6.0682340">
        <ele>312.0</ele>
        <time>2019-09-04T08:56:52Z</time>
      </trkpt>
      <trkpt lat="43.1991300" lon="-6.0683160">
        <ele>312.0</ele>
        <time>2019-09-04T08:56:54Z</time>
      </trkpt>
      <trkpt lat="43.1990270" lon="-6.0683980">
        <ele>312.0</ele>
        <time>2019-09-04T08:56:56Z</time>
      </trkpt>
      <trkpt lat="43.1989200" lon="-6.0684740">
        <ele>312.0</ele>
        <time>2019-09-04T08:56:58Z</time>
      </trkpt>
      <trkpt lat="43.1988740" lon="-6.0685060">
        <ele>312.0</ele>
        <time>2019-09-04T08:56:59Z</time>
      </trkpt>
      <trkpt lat="43.1987610" lon="-6.0685630">
        <ele>312.0</ele>
        <time>2019-09-04T08:57:01Z</time>
      </trkpt>
      <trkpt lat="43.1986480" lon="-6.0686010">
        <ele>312.0</ele>
        <time>2019-09-04T08:57:03Z</time>
      </trkpt>
      <trkpt lat="43.1985460" lon="-6.0686160">
        <ele>312.0</ele>
        <time>2019-09-04T08:57:05Z</time>
      </trkpt>
      <trkpt lat="43.1984230" lon="-6.0686120">
        <ele>312.0</ele>
        <time>2019-09-04T08:57:07Z</time>
      </trkpt>
      <trkpt lat="43.1983100" lon="-6.0685840">
        <ele>312.0</ele>
        <time>2019-09-04T08:57:09Z</time>
      </trkpt>
      <trkpt lat="43.1982590" lon="-6.0685620">
        <ele>312.0</ele>
        <time>2019-09-04T08:57:10Z</time>
      </trkpt>
      <trkpt lat="43.1982030" lon="-6.0685340">
        <ele>312.0</ele>
        <time>2019-09-04T08:57:11Z</time>
      </trkpt>
      <trkpt lat="43.1981570" lon="-6.0685030">
        <ele>312.0</ele>
        <time>2019-09-04T08:57:12Z</time>
      </trkpt>
      <trkpt lat="43.1981060" lon="-6.0684720">
        <ele>312.0</ele>
        <time>2019-09-04T08:57:13Z</time>
      </trkpt>
      <trkpt lat="43.1980030" lon="-6.0683970">
        <ele>312.0</ele>
        <time>2019-09-04T08:57:15Z</time>
      </trkpt>
      <trkpt lat="43.1979060" lon="-6.0683170">
        <ele>314.0</ele>
        <time>2019-09-04T08:57:17Z</time>
      </trkpt>
      <trkpt lat="43.1978550" lon="-6.0682750">
        <ele>314.0</ele>
        <time>2019-09-04T08:57:18Z</time>
      </trkpt>
      <trkpt lat="43.1977570" lon="-6.0681860">
        <ele>314.0</ele>
        <time>2019-09-04T08:57:20Z</time>
      </trkpt>
      <trkpt lat="43.1977060" lon="-6.0681410">
        <ele>314.0</ele>
        <time>2019-09-04T08:57:21Z</time>
      </trkpt>
      <trkpt lat="43.1976550" lon="-6.0680940">
        <ele>314.0</ele>
        <time>2019-09-04T08:57:22Z</time>
      </trkpt>
      <trkpt lat="43.1975580" lon="-6.0680060">
        <ele>314.0</ele>
        <time>2019-09-04T08:57:24Z</time>
      </trkpt>
      <trkpt lat="43.1974600" lon="-6.0679230">
        <ele>314.0</ele>
        <time>2019-09-04T08:57:26Z</time>
      </trkpt>
      <trkpt lat="43.1974140" lon="-6.0678820">
        <ele>314.0</ele>
        <time>2019-09-04T08:57:27Z</time>
      </trkpt>
      <trkpt lat="43.1973630" lon="-6.0678390">
        <ele>316.1</ele>
        <time>2019-09-04T08:57:28Z</time>
      </trkpt>
      <trkpt lat="43.1973070" lon="-6.0678040">
        <ele>316.1</ele>
        <time>2019-09-04T08:57:29Z</time>
      </trkpt>
      <trkpt lat="43.1972510" lon="-6.0677720">
        <ele>316.1</ele>
        <time>2019-09-04T08:57:30Z</time>
      </trkpt>
      <trkpt lat="43.1971990" lon="-6.0677440">
        <ele>316.1</ele>
        <time>2019-09-04T08:57:31Z</time>
      </trkpt>
      <trkpt lat="43.1971480" lon="-6.0677160">
        <ele>316.1</ele>
        <time>2019-09-04T08:57:32Z</time>
      </trkpt>
      <trkpt lat="43.1970410" lon="-6.0676500">
        <ele>316.1</ele>
        <time>2019-09-04T08:57:34Z</time>
      </trkpt>
      <trkpt lat="43.1969890" lon="-6.0676100">
        <ele>316.1</ele>
        <time>2019-09-04T08:57:35Z</time>
      </trkpt>
      <trkpt lat="43.1969430" lon="-6.0675650">
        <ele>316.1</ele>
        <time>2019-09-04T08:57:36Z</time>
      </trkpt>
      <trkpt lat="43.1968970" lon="-6.0675030">
        <ele>316.1</ele>
        <time>2019-09-04T08:57:37Z</time>
      </trkpt>
      <trkpt lat="43.1968510" lon="-6.0674590">
        <ele>316.1</ele>
        <time>2019-09-04T08:57:38Z</time>
      </trkpt>
      <trkpt lat="43.1967950" lon="-6.0674460">
        <ele>318.1</ele>
        <time>2019-09-04T08:57:39Z</time>
      </trkpt>
      <trkpt lat="43.1966820" lon="-6.0674910">
        <ele>318.1</ele>
        <time>2019-09-04T08:57:41Z</time>
      </trkpt>
      <trkpt lat="43.1965700" lon="-6.0676610">
        <ele>318.1</ele>
        <time>2019-09-04T08:57:43Z</time>
      </trkpt>
      <trkpt lat="43.1965240" lon="-6.0677400">
        <ele>318.1</ele>
        <time>2019-09-04T08:57:44Z</time>
      </trkpt>
      <trkpt lat="43.1964720" lon="-6.0678060">
        <ele>318.1</ele>
        <time>2019-09-04T08:57:45Z</time>
      </trkpt>
      <trkpt lat="43.1964260" lon="-6.0678680">
        <ele>318.1</ele>
        <time>2019-09-04T08:57:46Z</time>
      </trkpt>
      <trkpt lat="43.1963440" lon="-6.0679800">
        <ele>318.1</ele>
        <time>2019-09-04T08:57:48Z</time>
      </trkpt>
      <trkpt lat="43.1963080" lon="-6.0680330">
        <ele>318.1</ele>
        <time>2019-09-04T08:57:49Z</time>
      </trkpt>
      <trkpt lat="43.1962780" lon="-6.0680860">
        <ele>318.1</ele>
        <time>2019-09-04T08:57:50Z</time>
      </trkpt>
      <trkpt lat="43.1962420" lon="-6.0681410">
        <ele>318.1</ele>
        <time>2019-09-04T08:57:51Z</time>
      </trkpt>
      <trkpt lat="43.1962210" lon="-6.0681990">
        <ele>318.1</ele>
        <time>2019-09-04T08:57:52Z</time>
      </trkpt>
      <trkpt lat="43.1961800" lon="-6.0683210">
        <ele>320.4</ele>
        <time>2019-09-04T08:57:54Z</time>
      </trkpt>
      <trkpt lat="43.1961600" lon="-6.0684430">
        <ele>320.4</ele>
        <time>2019-09-04T08:57:56Z</time>
      </trkpt>
      <trkpt lat="43.1961400" lon="-6.0685670">
        <ele>320.4</ele>
        <time>2019-09-04T08:57:58Z</time>
      </trkpt>
      <trkpt lat="43.1961190" lon="-6.0686840">
        <ele>320.4</ele>
        <time>2019-09-04T08:58:00Z</time>
      </trkpt>
      <trkpt lat="43.1960930" lon="-6.0687900">
        <ele>320.4</ele>
        <time>2019-09-04T08:58:02Z</time>
      </trkpt>
      <trkpt lat="43.1960630" lon="-6.0688920">
        <ele>320.4</ele>
        <time>2019-09-04T08:58:04Z</time>
      </trkpt>
      <trkpt lat="43.1960170" lon="-6.0689880">
        <ele>320.4</ele>
        <time>2019-09-04T08:58:06Z</time>
      </trkpt>
      <trkpt lat="43.1959710" lon="-6.0690820">
        <ele>320.4</ele>
        <time>2019-09-04T08:58:08Z</time>
      </trkpt>
      <trkpt lat="43.1959090" lon="-6.0691640">
        <ele>322.8</ele>
        <time>2019-09-04T08:58:10Z</time>
      </trkpt>
      <trkpt lat="43.1958430" lon="-6.0692400">
        <ele>322.8</ele>
        <time>2019-09-04T08:58:12Z</time>
      </trkpt>
      <trkpt lat="43.1957610" lon="-6.0693140">
        <ele>322.8</ele>
        <time>2019-09-04T08:58:14Z</time>
      </trkpt>
      <trkpt lat="43.1956630" lon="-6.0693770">
        <ele>322.8</ele>
        <time>2019-09-04T08:58:16Z</time>
      </trkpt>
      <trkpt lat="43.1956170" lon="-6.0694040">
        <ele>322.8</ele>
        <time>2019-09-04T08:58:17Z</time>
      </trkpt>
      <trkpt lat="43.1955050" lon="-6.0694580">
        <ele>322.8</ele>
        <time>2019-09-04T08:58:19Z</time>
      </trkpt>
      <trkpt lat="43.1953920" lon="-6.0695100">
        <ele>322.8</ele>
        <time>2019-09-04T08:58:21Z</time>
      </trkpt>
      <trkpt lat="43.1953410" lon="-6.0695360">
        <ele>322.8</ele>
        <time>2019-09-04T08:58:22Z</time>
      </trkpt>
      <trkpt lat="43.1952840" lon="-6.0695620">
        <ele>322.8</ele>
        <time>2019-09-04T08:58:23Z</time>
      </trkpt>
      <trkpt lat="43.1952330" lon="-6.0695900">
        <ele>322.8</ele>
        <time>2019-09-04T08:58:24Z</time>
      </trkpt>
      <trkpt lat="43.1951310" lon="-6.0696480">
        <ele>325.4</ele>
        <time>2019-09-04T08:58:26Z</time>
      </trkpt>
      <trkpt lat="43.1950800" lon="-6.0696800">
        <ele>325.4</ele>
        <time>2019-09-04T08:58:27Z</time>
      </trkpt>
      <trkpt lat="43.1950280" lon="-6.0697120">
        <ele>325.4</ele>
        <time>2019-09-04T08:58:28Z</time>
      </trkpt>
      <trkpt lat="43.1949360" lon="-6.0697740">
        <ele>325.4</ele>
        <time>2019-09-04T08:58:30Z</time>
      </trkpt>
      <trkpt lat="43.1948850" lon="-6.0698110">
        <ele>325.4</ele>
        <time>2019-09-04T08:58:31Z</time>
      </trkpt>
      <trkpt lat="43.1948340" lon="-6.0698480">
        <ele>325.4</ele>
        <time>2019-09-04T08:58:32Z</time>
      </trkpt>
      <trkpt lat="43.1947880" lon="-6.0698820">
        <ele>325.4</ele>
        <time>2019-09-04T08:58:33Z</time>
      </trkpt>
      <trkpt lat="43.1947420" lon="-6.0699190">
        <ele>325.4</ele>
        <time>2019-09-04T08:58:34Z</time>
      </trkpt>
      <trkpt lat="43.1946910" lon="-6.0699530">
        <ele>325.4</ele>
        <time>2019-09-04T08:58:35Z</time>
      </trkpt>
      <trkpt lat="43.1946440" lon="-6.0699850">
        <ele>325.4</ele>
        <time>2019-09-04T08:58:36Z</time>
      </trkpt>
      <trkpt lat="43.1945060" lon="-6.0700830">
        <ele>325.4</ele>
        <time>2019-09-04T08:58:39Z</time>
      </trkpt>
      <trkpt lat="43.1944140" lon="-6.0701460">
        <ele>327.9</ele>
        <time>2019-09-04T08:58:41Z</time>
      </trkpt>
      <trkpt lat="43.1943170" lon="-6.0702110">
        <ele>327.9</ele>
        <time>2019-09-04T08:58:43Z</time>
      </trkpt>
      <trkpt lat="43.1942710" lon="-6.0702430">
        <ele>327.9</ele>
        <time>2019-09-04T08:58:44Z</time>
      </trkpt>
      <trkpt lat="43.1942250" lon="-6.0702740">
        <ele>327.9</ele>
        <time>2019-09-04T08:58:45Z</time>
      </trkpt>
      <trkpt lat="43.1941730" lon="-6.0703080">
        <ele>327.9</ele>
        <time>2019-09-04T08:58:46Z</time>
      </trkpt>
      <trkpt lat="43.1940860" lon="-6.0703740">
        <ele>327.9</ele>
        <time>2019-09-04T08:58:48Z</time>
      </trkpt>
      <trkpt lat="43.1940350" lon="-6.0704150">
        <ele>327.9</ele>
        <time>2019-09-04T08:58:49Z</time>
      </trkpt>
      <trkpt lat="43.1939890" lon="-6.0704550">
        <ele>327.9</ele>
        <time>2019-09-04T08:58:50Z</time>
      </trkpt>
      <trkpt lat="43.1939430" lon="-6.0705020">
        <ele>327.9</ele>
        <time>2019-09-04T08:58:51Z</time>
      </trkpt>
      <trkpt lat="43.1938610" lon="-6.0705980">
        <ele>327.9</ele>
        <time>2019-09-04T08:58:53Z</time>
      </trkpt>
      <trkpt lat="43.1937790" lon="-6.0707160">
        <ele>327.9</ele>
        <time>2019-09-04T08:58:55Z</time>
      </trkpt>
      <trkpt lat="43.1937130" lon="-6.0708440">
        <ele>330.4</ele>
        <time>2019-09-04T08:58:57Z</time>
      </trkpt>
      <trkpt lat="43.1936510" lon="-6.0709760">
        <ele>330.4</ele>
        <time>2019-09-04T08:58:59Z</time>
      </trkpt>
      <trkpt lat="43.1936200" lon="-6.0710490">
        <ele>330.4</ele>
        <time>2019-09-04T08:59:00Z</time>
      </trkpt>
      <trkpt lat="43.1935740" lon="-6.0712060">
        <ele>330.4</ele>
        <time>2019-09-04T08:59:02Z</time>
      </trkpt>
      <trkpt lat="43.1935490" lon="-6.0713700">
        <ele>330.4</ele>
        <time>2019-09-04T08:59:04Z</time>
      </trkpt>
      <trkpt lat="43.1935330" lon="-6.0715420">
        <ele>330.4</ele>
        <time>2019-09-04T08:59:06Z</time>
      </trkpt>
      <trkpt lat="43.1935230" lon="-6.0717290">
        <ele>330.4</ele>
        <time>2019-09-04T08:59:08Z</time>
      </trkpt>
      <trkpt lat="43.1935280" lon="-6.0719230">
        <ele>330.4</ele>
        <time>2019-09-04T08:59:10Z</time>
      </trkpt>
      <trkpt lat="43.1935330" lon="-6.0721200">
        <ele>330.4</ele>
        <time>2019-09-04T08:59:12Z</time>
      </trkpt>
      <trkpt lat="43.1935440" lon="-6.0723120">
        <ele>332.9</ele>
        <time>2019-09-04T08:59:14Z</time>
      </trkpt>
      <trkpt lat="43.1935540" lon="-6.0725100">
        <ele>332.9</ele>
        <time>2019-09-04T08:59:16Z</time>
      </trkpt>
      <trkpt lat="43.1935590" lon="-6.0727010">
        <ele>332.9</ele>
        <time>2019-09-04T08:59:18Z</time>
      </trkpt>
      <trkpt lat="43.1935590" lon="-6.0728930">
        <ele>332.9</ele>
        <time>2019-09-04T08:59:20Z</time>
      </trkpt>
      <trkpt lat="43.1935440" lon="-6.0730800">
        <ele>332.9</ele>
        <time>2019-09-04T08:59:22Z</time>
      </trkpt>
      <trkpt lat="43.1935080" lon="-6.0732640">
        <ele>332.9</ele>
        <time>2019-09-04T08:59:24Z</time>
      </trkpt>
      <trkpt lat="43.1934820" lon="-6.0733500">
        <ele>332.9</ele>
        <time>2019-09-04T08:59:25Z</time>
      </trkpt>
      <trkpt lat="43.1934260" lon="-6.0734990">
        <ele>332.9</ele>
        <time>2019-09-04T08:59:27Z</time>
      </trkpt>
      <trkpt lat="43.1933440" lon="-6.0736430">
        <ele>334.9</ele>
        <time>2019-09-04T08:59:29Z</time>
      </trkpt>
      <trkpt lat="43.1932570" lon="-6.0737610">
        <ele>334.9</ele>
        <time>2019-09-04T08:59:31Z</time>
      </trkpt>
      <trkpt lat="43.1931600" lon="-6.0738570">
        <ele>334.9</ele>
        <time>2019-09-04T08:59:33Z</time>
      </trkpt>
      <trkpt lat="43.1931030" lon="-6.0738970">
        <ele>334.9</ele>
        <time>2019-09-04T08:59:34Z</time>
      </trkpt>
      <trkpt lat="43.1929910" lon="-6.0739670">
        <ele>334.9</ele>
        <time>2019-09-04T08:59:36Z</time>
      </trkpt>
      <trkpt lat="43.1929400" lon="-6.0739930">
        <ele>334.9</ele>
        <time>2019-09-04T08:59:37Z</time>
      </trkpt>
      <trkpt lat="43.1928830" lon="-6.0740110">
        <ele>334.9</ele>
        <time>2019-09-04T08:59:38Z</time>
      </trkpt>
      <trkpt lat="43.1927650" lon="-6.0740280">
        <ele>334.9</ele>
        <time>2019-09-04T08:59:40Z</time>
      </trkpt>
      <trkpt lat="43.1926480" lon="-6.0740170">
        <ele>334.9</ele>
        <time>2019-09-04T08:59:42Z</time>
      </trkpt>
      <trkpt lat="43.1925400" lon="-6.0739940">
        <ele>334.9</ele>
        <time>2019-09-04T08:59:44Z</time>
      </trkpt>
      <trkpt lat="43.1924840" lon="-6.0739800">
        <ele>337.3</ele>
        <time>2019-09-04T08:59:45Z</time>
      </trkpt>
      <trkpt lat="43.1924220" lon="-6.0739620">
        <ele>337.3</ele>
        <time>2019-09-04T08:59:46Z</time>
      </trkpt>
      <trkpt lat="43.1923200" lon="-6.0739280">
        <ele>337.3</ele>
        <time>2019-09-04T08:59:48Z</time>
      </trkpt>
      <trkpt lat="43.1922020" lon="-6.0738940">
        <ele>337.3</ele>
        <time>2019-09-04T08:59:50Z</time>
      </trkpt>
      <trkpt lat="43.1921510" lon="-6.0738750">
        <ele>337.3</ele>
        <time>2019-09-04T08:59:51Z</time>
      </trkpt>
      <trkpt lat="43.1920380" lon="-6.0738380">
        <ele>337.3</ele>
        <time>2019-09-04T08:59:53Z</time>
      </trkpt>
      <trkpt lat="43.1919770" lon="-6.0738200">
        <ele>337.3</ele>
        <time>2019-09-04T08:59:54Z</time>
      </trkpt>
      <trkpt lat="43.1918690" lon="-6.0737910">
        <ele>337.3</ele>
        <time>2019-09-04T08:59:56Z</time>
      </trkpt>
      <trkpt lat="43.1917570" lon="-6.0737700">
        <ele>337.3</ele>
        <time>2019-09-04T08:59:58Z</time>
      </trkpt>
      <trkpt lat="43.1917060" lon="-6.0737640">
        <ele>337.3</ele>
        <time>2019-09-04T08:59:59Z</time>
      </trkpt>
      <trkpt lat="43.1915930" lon="-6.0737590">
        <ele>339.5</ele>
        <time>2019-09-04T09:00:01Z</time>
      </trkpt>
      <trkpt lat="43.1915420" lon="-6.0737630">
        <ele>339.5</ele>
        <time>2019-09-04T09:00:02Z</time>
      </trkpt>
      <trkpt lat="43.1914340" lon="-6.0737850">
        <ele>339.5</ele>
        <time>2019-09-04T09:00:04Z</time>
      </trkpt>
      <trkpt lat="43.1913320" lon="-6.0738290">
        <ele>339.5</ele>
        <time>2019-09-04T09:00:06Z</time>
      </trkpt>
      <trkpt lat="43.1912810" lon="-6.0738600">
        <ele>339.5</ele>
        <time>2019-09-04T09:00:07Z</time>
      </trkpt>
      <trkpt lat="43.1911830" lon="-6.0739350">
        <ele>339.5</ele>
        <time>2019-09-04T09:00:09Z</time>
      </trkpt>
      <trkpt lat="43.1911420" lon="-6.0739800">
        <ele>339.5</ele>
        <time>2019-09-04T09:00:10Z</time>
      </trkpt>
      <trkpt lat="43.1911070" lon="-6.0740270">
        <ele>339.5</ele>
        <time>2019-09-04T09:00:11Z</time>
      </trkpt>
      <trkpt lat="43.1910250" lon="-6.0741380">
        <ele>339.5</ele>
        <time>2019-09-04T09:00:13Z</time>
      </trkpt>
      <trkpt lat="43.1909630" lon="-6.0742610">
        <ele>339.5</ele>
        <time>2019-09-04T09:00:15Z</time>
      </trkpt>
      <trkpt lat="43.1909120" lon="-6.0743970">
        <ele>341.6</ele>
        <time>2019-09-04T09:00:17Z</time>
      </trkpt>
      <trkpt lat="43.1908860" lon="-6.0744720">
        <ele>341.6</ele>
        <time>2019-09-04T09:00:18Z</time>
      </trkpt>
      <trkpt lat="43.1908510" lon="-6.0746140">
        <ele>341.6</ele>
        <time>2019-09-04T09:00:20Z</time>
      </trkpt>
      <trkpt lat="43.1908200" lon="-6.0747710">
        <ele>341.6</ele>
        <time>2019-09-04T09:00:22Z</time>
      </trkpt>
      <trkpt lat="43.1908040" lon="-6.0748460">
        <ele>341.6</ele>
        <time>2019-09-04T09:00:23Z</time>
      </trkpt>
      <trkpt lat="43.1907890" lon="-6.0749230">
        <ele>341.6</ele>
        <time>2019-09-04T09:00:24Z</time>
      </trkpt>
      <trkpt lat="43.1907580" lon="-6.0750820">
        <ele>341.6</ele>
        <time>2019-09-04T09:00:26Z</time>
      </trkpt>
      <trkpt lat="43.1907230" lon="-6.0752360">
        <ele>341.6</ele>
        <time>2019-09-04T09:00:28Z</time>
      </trkpt>
      <trkpt lat="43.1906970" lon="-6.0753920">
        <ele>341.6</ele>
        <time>2019-09-04T09:00:30Z</time>
      </trkpt>
      <trkpt lat="43.1906760" lon="-6.0754750">
        <ele>341.6</ele>
        <time>2019-09-04T09:00:31Z</time>
      </trkpt>
      <trkpt lat="43.1906460" lon="-6.0756320">
        <ele>343.6</ele>
        <time>2019-09-04T09:00:33Z</time>
      </trkpt>
      <trkpt lat="43.1906150" lon="-6.0757880">
        <ele>343.6</ele>
        <time>2019-09-04T09:00:35Z</time>
      </trkpt>
      <trkpt lat="43.1906000" lon="-6.0758690">
        <ele>343.6</ele>
        <time>2019-09-04T09:00:36Z</time>
      </trkpt>
      <trkpt lat="43.1905840" lon="-6.0759480">
        <ele>343.6</ele>
        <time>2019-09-04T09:00:37Z</time>
      </trkpt>
      <trkpt lat="43.1905640" lon="-6.0760260">
        <ele>343.6</ele>
        <time>2019-09-04T09:00:38Z</time>
      </trkpt>
      <trkpt lat="43.1905230" lon="-6.0761730">
        <ele>343.6</ele>
        <time>2019-09-04T09:00:40Z</time>
      </trkpt>
      <trkpt lat="43.1904970" lon="-6.0762470">
        <ele>343.6</ele>
        <time>2019-09-04T09:00:41Z</time>
      </trkpt>
      <trkpt lat="43.1904410" lon="-6.0763850">
        <ele>343.6</ele>
        <time>2019-09-04T09:00:43Z</time>
      </trkpt>
      <trkpt lat="43.1904050" lon="-6.0764490">
        <ele>343.6</ele>
        <time>2019-09-04T09:00:44Z</time>
      </trkpt>
      <trkpt lat="43.1903640" lon="-6.0765080">
        <ele>343.6</ele>
        <time>2019-09-04T09:00:45Z</time>
      </trkpt>
      <trkpt lat="43.1903230" lon="-6.0765620">
        <ele>343.6</ele>
        <time>2019-09-04T09:00:46Z</time>
      </trkpt>
      <trkpt lat="43.1902310" lon="-6.0766530">
        <ele>343.6</ele>
        <time>2019-09-04T09:00:48Z</time>
      </trkpt>
      <trkpt lat="43.1901240" lon="-6.0767220">
        <ele>345.8</ele>
        <time>2019-09-04T09:00:50Z</time>
      </trkpt>
      <trkpt lat="43.1900720" lon="-6.0767490">
        <ele>345.8</ele>
        <time>2019-09-04T09:00:51Z</time>
      </trkpt>
      <trkpt lat="43.1899550" lon="-6.0767900">
        <ele>345.8</ele>
        <time>2019-09-04T09:00:53Z</time>
      </trkpt>
      <trkpt lat="43.1898930" lon="-6.0768010">
        <ele>345.8</ele>
        <time>2019-09-04T09:00:54Z</time>
      </trkpt>
      <trkpt lat="43.1898370" lon="-6.0768060">
        <ele>345.8</ele>
        <time>2019-09-04T09:00:55Z</time>
      </trkpt>
      <trkpt lat="43.1897860" lon="-6.0768050">
        <ele>345.8</ele>
        <time>2019-09-04T09:00:56Z</time>
      </trkpt>
      <trkpt lat="43.1897290" lon="-6.0767970">
        <ele>345.8</ele>
        <time>2019-09-04T09:00:57Z</time>
      </trkpt>
      <trkpt lat="43.1896730" lon="-6.0767800">
        <ele>345.8</ele>
        <time>2019-09-04T09:00:58Z</time>
      </trkpt>
      <trkpt lat="43.1896220" lon="-6.0767560">
        <ele>345.8</ele>
        <time>2019-09-04T09:00:59Z</time>
      </trkpt>
      <trkpt lat="43.1895650" lon="-6.0767290">
        <ele>345.8</ele>
        <time>2019-09-04T09:01:00Z</time>
      </trkpt>
      <trkpt lat="43.1894630" lon="-6.0766640">
        <ele>345.8</ele>
        <time>2019-09-04T09:01:02Z</time>
      </trkpt>
      <trkpt lat="43.1894170" lon="-6.0766320">
        <ele>345.8</ele>
        <time>2019-09-04T09:01:03Z</time>
      </trkpt>
      <trkpt lat="43.1893610" lon="-6.0765960">
        <ele>345.8</ele>
        <time>2019-09-04T09:01:04Z</time>
      </trkpt>
      <trkpt lat="43.1893090" lon="-6.0765600">
        <ele>348.2</ele>
        <time>2019-09-04T09:01:05Z</time>
      </trkpt>
      <trkpt lat="43.1892580" lon="-6.0765270">
        <ele>348.2</ele>
        <time>2019-09-04T09:01:06Z</time>
      </trkpt>
      <trkpt lat="43.1892070" lon="-6.0764990">
        <ele>348.2</ele>
        <time>2019-09-04T09:01:07Z</time>
      </trkpt>
      <trkpt lat="43.1891000" lon="-6.0764600">
        <ele>348.2</ele>
        <time>2019-09-04T09:01:09Z</time>
      </trkpt>
      <trkpt lat="43.1889870" lon="-6.0764410">
        <ele>348.2</ele>
        <time>2019-09-04T09:01:11Z</time>
      </trkpt>
      <trkpt lat="43.1888790" lon="-6.0764450">
        <ele>348.2</ele>
        <time>2019-09-04T09:01:13Z</time>
      </trkpt>
      <trkpt lat="43.1887720" lon="-6.0764810">
        <ele>348.2</ele>
        <time>2019-09-04T09:01:15Z</time>
      </trkpt>
      <trkpt lat="43.1887260" lon="-6.0765090">
        <ele>348.2</ele>
        <time>2019-09-04T09:01:16Z</time>
      </trkpt>
      <trkpt lat="43.1886280" lon="-6.0765800">
        <ele>348.2</ele>
        <time>2019-09-04T09:01:18Z</time>
      </trkpt>
      <trkpt lat="43.1885820" lon="-6.0766250">
        <ele>348.2</ele>
        <time>2019-09-04T09:01:19Z</time>
      </trkpt>
      <trkpt lat="43.1885410" lon="-6.0766730">
        <ele>348.2</ele>
        <time>2019-09-04T09:01:20Z</time>
      </trkpt>
      <trkpt lat="43.1885060" lon="-6.0767220">
        <ele>350.6</ele>
        <time>2019-09-04T09:01:21Z</time>
      </trkpt>
      <trkpt lat="43.1884750" lon="-6.0767760">
        <ele>350.6</ele>
        <time>2019-09-04T09:01:22Z</time>
      </trkpt>
      <trkpt lat="43.1884240" lon="-6.0769000">
        <ele>350.6</ele>
        <time>2019-09-04T09:01:24Z</time>
      </trkpt>
      <trkpt lat="43.1883980" lon="-6.0769640">
        <ele>350.6</ele>
        <time>2019-09-04T09:01:25Z</time>
      </trkpt>
      <trkpt lat="43.1883780" lon="-6.0770280">
        <ele>350.6</ele>
        <time>2019-09-04T09:01:26Z</time>
      </trkpt>
      <trkpt lat="43.1883570" lon="-6.0770920">
        <ele>350.6</ele>
        <time>2019-09-04T09:01:27Z</time>
      </trkpt>
      <trkpt lat="43.1883260" lon="-6.0772130">
        <ele>350.6</ele>
        <time>2019-09-04T09:01:29Z</time>
      </trkpt>
      <trkpt lat="43.1883110" lon="-6.0772670">
        <ele>350.6</ele>
        <time>2019-09-04T09:01:30Z</time>
      </trkpt>
      <trkpt lat="43.1871850" lon="-6.0783880">
        <ele>350.6</ele>
        <time>2019-09-04T09:02:03Z</time>
      </trkpt>
      <trkpt lat="43.1866060" lon="-6.0784640">
        <ele>350.6</ele>
        <time>2019-09-04T09:02:19Z</time>
      </trkpt>
      <trkpt lat="43.1865450" lon="-6.0785200">
        <ele>350.6</ele>
        <time>2019-09-04T09:02:22Z</time>
      </trkpt>
      <trkpt lat="43.1864830" lon="-6.0785750">
        <ele>350.6</ele>
        <time>2019-09-04T09:02:24Z</time>
      </trkpt>
      <trkpt lat="43.1864220" lon="-6.0786390">
        <ele>350.6</ele>
        <time>2019-09-04T09:02:26Z</time>
      </trkpt>
      <trkpt lat="43.1863500" lon="-6.0787160">
        <ele>353.4</ele>
        <time>2019-09-04T09:02:28Z</time>
      </trkpt>
      <trkpt lat="43.1862840" lon="-6.0787890">
        <ele>355.6</ele>
        <time>2019-09-04T09:02:30Z</time>
      </trkpt>
      <trkpt lat="43.1862120" lon="-6.0788620">
        <ele>357.8</ele>
        <time>2019-09-04T09:02:32Z</time>
      </trkpt>
      <trkpt lat="43.1861400" lon="-6.0789250">
        <ele>360.2</ele>
        <time>2019-09-04T09:02:34Z</time>
      </trkpt>
      <trkpt lat="43.1860740" lon="-6.0789840">
        <ele>360.2</ele>
        <time>2019-09-04T09:02:36Z</time>
      </trkpt>
      <trkpt lat="43.1860020" lon="-6.0790360">
        <ele>362.3</ele>
        <time>2019-09-04T09:02:38Z</time>
      </trkpt>
      <trkpt lat="43.1859300" lon="-6.0790790">
        <ele>362.3</ele>
        <time>2019-09-04T09:02:40Z</time>
      </trkpt>
      <trkpt lat="43.1858530" lon="-6.0791190">
        <ele>362.3</ele>
        <time>2019-09-04T09:02:42Z</time>
      </trkpt>
      <trkpt lat="43.1857820" lon="-6.0791510">
        <ele>362.3</ele>
        <time>2019-09-04T09:02:44Z</time>
      </trkpt>
      <trkpt lat="43.1857000" lon="-6.0791800">
        <ele>362.3</ele>
        <time>2019-09-04T09:02:46Z</time>
      </trkpt>
      <trkpt lat="43.1856180" lon="-6.0792060">
        <ele>362.3</ele>
        <time>2019-09-04T09:02:48Z</time>
      </trkpt>
      <trkpt lat="43.1855410" lon="-6.0792320">
        <ele>362.3</ele>
        <time>2019-09-04T09:02:50Z</time>
      </trkpt>
      <trkpt lat="43.1854640" lon="-6.0792610">
        <ele>362.3</ele>
        <time>2019-09-04T09:02:52Z</time>
      </trkpt>
      <trkpt lat="43.1853880" lon="-6.0792860">
        <ele>362.3</ele>
        <time>2019-09-04T09:02:54Z</time>
      </trkpt>
      <trkpt lat="43.1853110" lon="-6.0793110">
        <ele>362.3</ele>
        <time>2019-09-04T09:02:56Z</time>
      </trkpt>
      <trkpt lat="43.1852340" lon="-6.0793370">
        <ele>362.3</ele>
        <time>2019-09-04T09:02:58Z</time>
      </trkpt>
      <trkpt lat="43.1851570" lon="-6.0793610">
        <ele>362.3</ele>
        <time>2019-09-04T09:03:00Z</time>
      </trkpt>
      <trkpt lat="43.1850850" lon="-6.0793870">
        <ele>362.3</ele>
        <time>2019-09-04T09:03:02Z</time>
      </trkpt>
      <trkpt lat="43.1850140" lon="-6.0794180">
        <ele>362.3</ele>
        <time>2019-09-04T09:03:04Z</time>
      </trkpt>
      <trkpt lat="43.1849420" lon="-6.0794490">
        <ele>362.3</ele>
        <time>2019-09-04T09:03:06Z</time>
      </trkpt>
      <trkpt lat="43.1848700" lon="-6.0794820">
        <ele>362.3</ele>
        <time>2019-09-04T09:03:08Z</time>
      </trkpt>
      <trkpt lat="43.1847940" lon="-6.0795170">
        <ele>362.3</ele>
        <time>2019-09-04T09:03:10Z</time>
      </trkpt>
      <trkpt lat="43.1847170" lon="-6.0795530">
        <ele>362.3</ele>
        <time>2019-09-04T09:03:12Z</time>
      </trkpt>
      <trkpt lat="43.1846090" lon="-6.0796120">
        <ele>362.3</ele>
        <time>2019-09-04T09:03:15Z</time>
      </trkpt>
      <trkpt lat="43.1845320" lon="-6.0796510">
        <ele>362.3</ele>
        <time>2019-09-04T09:03:17Z</time>
      </trkpt>
      <trkpt lat="43.1844510" lon="-6.0796880">
        <ele>362.3</ele>
        <time>2019-09-04T09:03:19Z</time>
      </trkpt>
      <trkpt lat="43.1843790" lon="-6.0797290">
        <ele>362.3</ele>
        <time>2019-09-04T09:03:21Z</time>
      </trkpt>
      <trkpt lat="43.1842970" lon="-6.0797750">
        <ele>362.3</ele>
        <time>2019-09-04T09:03:23Z</time>
      </trkpt>
      <trkpt lat="43.1842250" lon="-6.0798170">
        <ele>362.3</ele>
        <time>2019-09-04T09:03:25Z</time>
      </trkpt>
      <trkpt lat="43.1841020" lon="-6.0798750">
        <ele>362.3</ele>
        <time>2019-09-04T09:03:28Z</time>
      </trkpt>
      <trkpt lat="43.1840150" lon="-6.0799190">
        <ele>362.3</ele>
        <time>2019-09-04T09:03:30Z</time>
      </trkpt>
      <trkpt lat="43.1839390" lon="-6.0799620">
        <ele>362.3</ele>
        <time>2019-09-04T09:03:32Z</time>
      </trkpt>
      <trkpt lat="43.1838570" lon="-6.0800030">
        <ele>362.3</ele>
        <time>2019-09-04T09:03:34Z</time>
      </trkpt>
      <trkpt lat="43.1790440" lon="-6.0824050">
        <ele>362.3</ele>
        <time>2019-09-04T09:04:57Z</time>
      </trkpt>
      <trkpt lat="43.1783320" lon="-6.0830180">
        <ele>362.3</ele>
        <time>2019-09-04T09:05:13Z</time>
      </trkpt>
      <trkpt lat="43.1782400" lon="-6.0830790">
        <ele>359.2</ele>
        <time>2019-09-04T09:05:16Z</time>
      </trkpt>
      <trkpt lat="43.1781530" lon="-6.0831640">
        <ele>354.5</ele>
        <time>2019-09-04T09:05:18Z</time>
      </trkpt>
      <trkpt lat="43.1780610" lon="-6.0832350">
        <ele>349.6</ele>
        <time>2019-09-04T09:05:20Z</time>
      </trkpt>
      <trkpt lat="43.1780150" lon="-6.0832580">
        <ele>347.6</ele>
        <time>2019-09-04T09:05:21Z</time>
      </trkpt>
      <trkpt lat="43.1779690" lon="-6.0832760">
        <ele>347.6</ele>
        <time>2019-09-04T09:05:22Z</time>
      </trkpt>
      <trkpt lat="43.1778660" lon="-6.0833040">
        <ele>344.0</ele>
        <time>2019-09-04T09:05:24Z</time>
      </trkpt>
      <trkpt lat="43.1777640" lon="-6.0833240">
        <ele>341.0</ele>
        <time>2019-09-04T09:05:26Z</time>
      </trkpt>
      <trkpt lat="43.1777180" lon="-6.0833380">
        <ele>336.6</ele>
        <time>2019-09-04T09:05:27Z</time>
      </trkpt>
      <trkpt lat="43.1776260" lon="-6.0833880">
        <ele>333.9</ele>
        <time>2019-09-04T09:05:29Z</time>
      </trkpt>
      <trkpt lat="43.1775800" lon="-6.0834180">
        <ele>333.9</ele>
        <time>2019-09-04T09:05:30Z</time>
      </trkpt>
      <trkpt lat="43.1774820" lon="-6.0834930">
        <ele>331.8</ele>
        <time>2019-09-04T09:05:32Z</time>
      </trkpt>
      <trkpt lat="43.1773900" lon="-6.0835700">
        <ele>329.6</ele>
        <time>2019-09-04T09:05:34Z</time>
      </trkpt>
      <trkpt lat="43.1773440" lon="-6.0836100">
        <ele>329.6</ele>
        <time>2019-09-04T09:05:35Z</time>
      </trkpt>
      <trkpt lat="43.1772980" lon="-6.0836500">
        <ele>329.6</ele>
        <time>2019-09-04T09:05:36Z</time>
      </trkpt>
      <trkpt lat="43.1772470" lon="-6.0836940">
        <ele>329.6</ele>
        <time>2019-09-04T09:05:37Z</time>
      </trkpt>
      <trkpt lat="43.1771960" lon="-6.0837380">
        <ele>327.3</ele>
        <time>2019-09-04T09:05:38Z</time>
      </trkpt>
      <trkpt lat="43.1771550" lon="-6.0837780">
        <ele>327.3</ele>
        <time>2019-09-04T09:05:39Z</time>
      </trkpt>
      <trkpt lat="43.1770570" lon="-6.0838600">
        <ele>327.3</ele>
        <time>2019-09-04T09:05:41Z</time>
      </trkpt>
      <trkpt lat="43.1770110" lon="-6.0839020">
        <ele>325.0</ele>
        <time>2019-09-04T09:05:42Z</time>
      </trkpt>
      <trkpt lat="43.1769650" lon="-6.0839450">
        <ele>325.0</ele>
        <time>2019-09-04T09:05:43Z</time>
      </trkpt>
      <trkpt lat="43.1768630" lon="-6.0840310">
        <ele>325.0</ele>
        <time>2019-09-04T09:05:45Z</time>
      </trkpt>
      <trkpt lat="43.1768170" lon="-6.0840790">
        <ele>325.0</ele>
        <time>2019-09-04T09:05:46Z</time>
      </trkpt>
      <trkpt lat="43.1767650" lon="-6.0841280">
        <ele>325.0</ele>
        <time>2019-09-04T09:05:47Z</time>
      </trkpt>
      <trkpt lat="43.1767240" lon="-6.0841760">
        <ele>322.9</ele>
        <time>2019-09-04T09:05:48Z</time>
      </trkpt>
      <trkpt lat="43.1766840" lon="-6.0842350">
        <ele>322.9</ele>
        <time>2019-09-04T09:05:49Z</time>
      </trkpt>
      <trkpt lat="43.1766530" lon="-6.0842970">
        <ele>322.9</ele>
        <time>2019-09-04T09:05:50Z</time>
      </trkpt>
      <trkpt lat="43.1766320" lon="-6.0843580">
        <ele>322.9</ele>
        <time>2019-09-04T09:05:51Z</time>
      </trkpt>
      <trkpt lat="43.1766270" lon="-6.0845000">
        <ele>322.9</ele>
        <time>2019-09-04T09:05:53Z</time>
      </trkpt>
      <trkpt lat="43.1766320" lon="-6.0846530">
        <ele>322.9</ele>
        <time>2019-09-04T09:05:55Z</time>
      </trkpt>
      <trkpt lat="43.1766320" lon="-6.0847280">
        <ele>322.9</ele>
        <time>2019-09-04T09:05:56Z</time>
      </trkpt>
      <trkpt lat="43.1766220" lon="-6.0848120">
        <ele>320.7</ele>
        <time>2019-09-04T09:05:57Z</time>
      </trkpt>
      <trkpt lat="43.1766070" lon="-6.0849750">
        <ele>320.7</ele>
        <time>2019-09-04T09:05:59Z</time>
      </trkpt>
      <trkpt lat="43.1765860" lon="-6.0851390">
        <ele>320.7</ele>
        <time>2019-09-04T09:06:01Z</time>
      </trkpt>
      <trkpt lat="43.1765660" lon="-6.0853140">
        <ele>320.7</ele>
        <time>2019-09-04T09:06:03Z</time>
      </trkpt>
      <trkpt lat="43.1765450" lon="-6.0854870">
        <ele>320.7</ele>
        <time>2019-09-04T09:06:05Z</time>
      </trkpt>
      <trkpt lat="43.1765300" lon="-6.0856630">
        <ele>320.7</ele>
        <time>2019-09-04T09:06:07Z</time>
      </trkpt>
      <trkpt lat="43.1765090" lon="-6.0858340">
        <ele>320.7</ele>
        <time>2019-09-04T09:06:09Z</time>
      </trkpt>
      <trkpt lat="43.1764990" lon="-6.0859260">
        <ele>320.7</ele>
        <time>2019-09-04T09:06:10Z</time>
      </trkpt>
      <trkpt lat="43.1764890" lon="-6.0860180">
        <ele>320.7</ele>
        <time>2019-09-04T09:06:11Z</time>
      </trkpt>
      <trkpt lat="43.1764790" lon="-6.0861090">
        <ele>320.7</ele>
        <time>2019-09-04T09:06:12Z</time>
      </trkpt>
      <trkpt lat="43.1764680" lon="-6.0861980">
        <ele>320.7</ele>
        <time>2019-09-04T09:06:13Z</time>
      </trkpt>
      <trkpt lat="43.1764530" lon="-6.0862870">
        <ele>320.7</ele>
        <time>2019-09-04T09:06:14Z</time>
      </trkpt>
      <trkpt lat="43.1764330" lon="-6.0863740">
        <ele>320.7</ele>
        <time>2019-09-04T09:06:15Z</time>
      </trkpt>
      <trkpt lat="43.1764120" lon="-6.0864590">
        <ele>320.7</ele>
        <time>2019-09-04T09:06:16Z</time>
      </trkpt>
      <trkpt lat="43.1763870" lon="-6.0865430">
        <ele>320.7</ele>
        <time>2019-09-04T09:06:17Z</time>
      </trkpt>
      <trkpt lat="43.1763610" lon="-6.0866200">
        <ele>320.7</ele>
        <time>2019-09-04T09:06:18Z</time>
      </trkpt>
      <trkpt lat="43.1763250" lon="-6.0867000">
        <ele>320.7</ele>
        <time>2019-09-04T09:06:19Z</time>
      </trkpt>
      <trkpt lat="43.1762940" lon="-6.0867730">
        <ele>320.7</ele>
        <time>2019-09-04T09:06:20Z</time>
      </trkpt>
      <trkpt lat="43.1762480" lon="-6.0868460">
        <ele>320.7</ele>
        <time>2019-09-04T09:06:21Z</time>
      </trkpt>
      <trkpt lat="43.1762070" lon="-6.0869150">
        <ele>320.7</ele>
        <time>2019-09-04T09:06:22Z</time>
      </trkpt>
      <trkpt lat="43.1761610" lon="-6.0869730">
        <ele>320.7</ele>
        <time>2019-09-04T09:06:23Z</time>
      </trkpt>
      <trkpt lat="43.1760540" lon="-6.0870850">
        <ele>320.7</ele>
        <time>2019-09-04T09:06:25Z</time>
      </trkpt>
      <trkpt lat="43.1759920" lon="-6.0871340">
        <ele>320.7</ele>
        <time>2019-09-04T09:06:26Z</time>
      </trkpt>
      <trkpt lat="43.1759360" lon="-6.0871770">
        <ele>320.7</ele>
        <time>2019-09-04T09:06:27Z</time>
      </trkpt>
      <trkpt lat="43.1758230" lon="-6.0872650">
        <ele>320.7</ele>
        <time>2019-09-04T09:06:29Z</time>
      </trkpt>
      <trkpt lat="43.1757720" lon="-6.0873100">
        <ele>320.7</ele>
        <time>2019-09-04T09:06:30Z</time>
      </trkpt>
      <trkpt lat="43.1757210" lon="-6.0873570">
        <ele>320.7</ele>
        <time>2019-09-04T09:06:31Z</time>
      </trkpt>
      <trkpt lat="43.1756650" lon="-6.0874030">
        <ele>320.7</ele>
        <time>2019-09-04T09:06:32Z</time>
      </trkpt>
      <trkpt lat="43.1756130" lon="-6.0874500">
        <ele>320.7</ele>
        <time>2019-09-04T09:06:33Z</time>
      </trkpt>
      <trkpt lat="43.1755160" lon="-6.0875440">
        <ele>320.7</ele>
        <time>2019-09-04T09:06:35Z</time>
      </trkpt>
      <trkpt lat="43.1754700" lon="-6.0875920">
        <ele>320.7</ele>
        <time>2019-09-04T09:06:36Z</time>
      </trkpt>
      <trkpt lat="43.1753570" lon="-6.0876740">
        <ele>320.7</ele>
        <time>2019-09-04T09:06:38Z</time>
      </trkpt>
      <trkpt lat="43.1752910" lon="-6.0877050">
        <ele>320.7</ele>
        <time>2019-09-04T09:06:39Z</time>
      </trkpt>
      <trkpt lat="43.1752290" lon="-6.0877320">
        <ele>320.7</ele>
        <time>2019-09-04T09:06:40Z</time>
      </trkpt>
      <trkpt lat="43.1751580" lon="-6.0877640">
        <ele>320.7</ele>
        <time>2019-09-04T09:06:41Z</time>
      </trkpt>
      <trkpt lat="43.1750350" lon="-6.0878370">
        <ele>320.7</ele>
        <time>2019-09-04T09:06:43Z</time>
      </trkpt>
      <trkpt lat="43.1749940" lon="-6.0878800">
        <ele>320.7</ele>
        <time>2019-09-04T09:06:44Z</time>
      </trkpt>
      <trkpt lat="43.1749170" lon="-6.0879880">
        <ele>320.7</ele>
        <time>2019-09-04T09:06:46Z</time>
      </trkpt>
      <trkpt lat="43.1748510" lon="-6.0881070">
        <ele>320.7</ele>
        <time>2019-09-04T09:06:48Z</time>
      </trkpt>
      <trkpt lat="43.1748300" lon="-6.0881630">
        <ele>320.7</ele>
        <time>2019-09-04T09:06:49Z</time>
      </trkpt>
      <trkpt lat="43.1747430" lon="-6.0883390">
        <ele>320.7</ele>
        <time>2019-09-04T09:06:52Z</time>
      </trkpt>
      <trkpt lat="43.1747170" lon="-6.0883910">
        <ele>320.7</ele>
        <time>2019-09-04T09:06:53Z</time>
      </trkpt>
      <trkpt lat="43.1746610" lon="-6.0885040">
        <ele>320.7</ele>
        <time>2019-09-04T09:06:55Z</time>
      </trkpt>
      <trkpt lat="43.1746050" lon="-6.0886180">
        <ele>322.8</ele>
        <time>2019-09-04T09:06:57Z</time>
      </trkpt>
      <trkpt lat="43.1745480" lon="-6.0887240">
        <ele>322.8</ele>
        <time>2019-09-04T09:06:59Z</time>
      </trkpt>
      <trkpt lat="43.1744870" lon="-6.0888360">
        <ele>322.8</ele>
        <time>2019-09-04T09:07:01Z</time>
      </trkpt>
      <trkpt lat="43.1744410" lon="-6.0889400">
        <ele>322.8</ele>
        <time>2019-09-04T09:07:03Z</time>
      </trkpt>
      <trkpt lat="43.1743850" lon="-6.0890510">
        <ele>322.8</ele>
        <time>2019-09-04T09:07:05Z</time>
      </trkpt>
      <trkpt lat="43.1743330" lon="-6.0891580">
        <ele>322.8</ele>
        <time>2019-09-04T09:07:07Z</time>
      </trkpt>
      <trkpt lat="43.1742920" lon="-6.0892690">
        <ele>322.8</ele>
        <time>2019-09-04T09:07:09Z</time>
      </trkpt>
      <trkpt lat="43.1742620" lon="-6.0893890">
        <ele>322.8</ele>
        <time>2019-09-04T09:07:11Z</time>
      </trkpt>
      <trkpt lat="43.1742460" lon="-6.0895100">
        <ele>322.8</ele>
        <time>2019-09-04T09:07:13Z</time>
      </trkpt>
      <trkpt lat="43.1742460" lon="-6.0896420">
        <ele>322.8</ele>
        <time>2019-09-04T09:07:15Z</time>
      </trkpt>
      <trkpt lat="43.1742460" lon="-6.0897080">
        <ele>322.8</ele>
        <time>2019-09-04T09:07:16Z</time>
      </trkpt>
      <trkpt lat="43.1742570" lon="-6.0898410">
        <ele>322.8</ele>
        <time>2019-09-04T09:07:18Z</time>
      </trkpt>
      <trkpt lat="43.1742720" lon="-6.0899750">
        <ele>322.8</ele>
        <time>2019-09-04T09:07:20Z</time>
      </trkpt>
      <trkpt lat="43.1742820" lon="-6.0900410">
        <ele>322.8</ele>
        <time>2019-09-04T09:07:21Z</time>
      </trkpt>
      <trkpt lat="43.1743030" lon="-6.0901720">
        <ele>324.8</ele>
        <time>2019-09-04T09:07:23Z</time>
      </trkpt>
      <trkpt lat="43.1743180" lon="-6.0903060">
        <ele>324.8</ele>
        <time>2019-09-04T09:07:25Z</time>
      </trkpt>
      <trkpt lat="43.1743330" lon="-6.0904390">
        <ele>324.8</ele>
        <time>2019-09-04T09:07:27Z</time>
      </trkpt>
      <trkpt lat="43.1743490" lon="-6.0905790">
        <ele>324.8</ele>
        <time>2019-09-04T09:07:29Z</time>
      </trkpt>
      <trkpt lat="43.1743490" lon="-6.0907210">
        <ele>324.8</ele>
        <time>2019-09-04T09:07:31Z</time>
      </trkpt>
      <trkpt lat="43.1743490" lon="-6.0908580">
        <ele>324.8</ele>
        <time>2019-09-04T09:07:33Z</time>
      </trkpt>
      <trkpt lat="43.1743330" lon="-6.0910040">
        <ele>324.8</ele>
        <time>2019-09-04T09:07:35Z</time>
      </trkpt>
      <trkpt lat="43.1743180" lon="-6.0911510">
        <ele>324.8</ele>
        <time>2019-09-04T09:07:37Z</time>
      </trkpt>
      <trkpt lat="43.1742870" lon="-6.0912980">
        <ele>324.8</ele>
        <time>2019-09-04T09:07:39Z</time>
      </trkpt>
      <trkpt lat="43.1742570" lon="-6.0914470">
        <ele>324.8</ele>
        <time>2019-09-04T09:07:41Z</time>
      </trkpt>
      <trkpt lat="43.1742260" lon="-6.0915970">
        <ele>326.8</ele>
        <time>2019-09-04T09:07:43Z</time>
      </trkpt>
      <trkpt lat="43.1741950" lon="-6.0917480">
        <ele>326.8</ele>
        <time>2019-09-04T09:07:45Z</time>
      </trkpt>
      <trkpt lat="43.1741800" lon="-6.0918250">
        <ele>326.8</ele>
        <time>2019-09-04T09:07:46Z</time>
      </trkpt>
      <trkpt lat="43.1741540" lon="-6.0919780">
        <ele>326.8</ele>
        <time>2019-09-04T09:07:48Z</time>
      </trkpt>
      <trkpt lat="43.1741490" lon="-6.0921320">
        <ele>326.8</ele>
        <time>2019-09-04T09:07:50Z</time>
      </trkpt>
      <trkpt lat="43.1741440" lon="-6.0922840">
        <ele>326.8</ele>
        <time>2019-09-04T09:07:52Z</time>
      </trkpt>
      <trkpt lat="43.1741440" lon="-6.0924350">
        <ele>326.8</ele>
        <time>2019-09-04T09:07:54Z</time>
      </trkpt>
      <trkpt lat="43.1741490" lon="-6.0925040">
        <ele>326.8</ele>
        <time>2019-09-04T09:07:55Z</time>
      </trkpt>
      <trkpt lat="43.1741490" lon="-6.0926570">
        <ele>326.8</ele>
        <time>2019-09-04T09:07:57Z</time>
      </trkpt>
      <trkpt lat="43.1741540" lon="-6.0928100">
        <ele>326.8</ele>
        <time>2019-09-04T09:07:59Z</time>
      </trkpt>
      <trkpt lat="43.1741540" lon="-6.0928850">
        <ele>326.8</ele>
        <time>2019-09-04T09:08:00Z</time>
      </trkpt>
      <trkpt lat="43.1741640" lon="-6.0929650">
        <ele>326.8</ele>
        <time>2019-09-04T09:08:01Z</time>
      </trkpt>
      <trkpt lat="43.1741700" lon="-6.0931160">
        <ele>326.8</ele>
        <time>2019-09-04T09:08:03Z</time>
      </trkpt>
      <trkpt lat="43.1741700" lon="-6.0932720">
        <ele>328.9</ele>
        <time>2019-09-04T09:08:05Z</time>
      </trkpt>
      <trkpt lat="43.1741640" lon="-6.0933480">
        <ele>328.9</ele>
        <time>2019-09-04T09:08:06Z</time>
      </trkpt>
      <trkpt lat="43.1741590" lon="-6.0934190">
        <ele>328.9</ele>
        <time>2019-09-04T09:08:07Z</time>
      </trkpt>
      <trkpt lat="43.1741390" lon="-6.0935640">
        <ele>328.9</ele>
        <time>2019-09-04T09:08:09Z</time>
      </trkpt>
      <trkpt lat="43.1741130" lon="-6.0937070">
        <ele>328.9</ele>
        <time>2019-09-04T09:08:11Z</time>
      </trkpt>
      <trkpt lat="43.1740670" lon="-6.0938500">
        <ele>328.9</ele>
        <time>2019-09-04T09:08:13Z</time>
      </trkpt>
      <trkpt lat="43.1740110" lon="-6.0939850">
        <ele>328.9</ele>
        <time>2019-09-04T09:08:15Z</time>
      </trkpt>
      <trkpt lat="43.1739440" lon="-6.0941090">
        <ele>328.9</ele>
        <time>2019-09-04T09:08:17Z</time>
      </trkpt>
      <trkpt lat="43.1738620" lon="-6.0942300">
        <ele>328.9</ele>
        <time>2019-09-04T09:08:19Z</time>
      </trkpt>
      <trkpt lat="43.1737750" lon="-6.0943400">
        <ele>328.9</ele>
        <time>2019-09-04T09:08:21Z</time>
      </trkpt>
      <trkpt lat="43.1736780" lon="-6.0944510">
        <ele>328.9</ele>
        <time>2019-09-04T09:08:23Z</time>
      </trkpt>
      <trkpt lat="43.1735710" lon="-6.0945600">
        <ele>328.9</ele>
        <time>2019-09-04T09:08:25Z</time>
      </trkpt>
      <trkpt lat="43.1734730" lon="-6.0946620">
        <ele>328.9</ele>
        <time>2019-09-04T09:08:27Z</time>
      </trkpt>
      <trkpt lat="43.1733660" lon="-6.0947740">
        <ele>328.9</ele>
        <time>2019-09-04T09:08:29Z</time>
      </trkpt>
      <trkpt lat="43.1732630" lon="-6.0948760">
        <ele>328.9</ele>
        <time>2019-09-04T09:08:31Z</time>
      </trkpt>
      <trkpt lat="43.1731510" lon="-6.0949810">
        <ele>330.9</ele>
        <time>2019-09-04T09:08:33Z</time>
      </trkpt>
      <trkpt lat="43.1730380" lon="-6.0950770">
        <ele>330.9</ele>
        <time>2019-09-04T09:08:35Z</time>
      </trkpt>
      <trkpt lat="43.1729200" lon="-6.0951650">
        <ele>330.9</ele>
        <time>2019-09-04T09:08:37Z</time>
      </trkpt>
      <trkpt lat="43.1728640" lon="-6.0952080">
        <ele>330.9</ele>
        <time>2019-09-04T09:08:38Z</time>
      </trkpt>
      <trkpt lat="43.1727410" lon="-6.0952880">
        <ele>330.9</ele>
        <time>2019-09-04T09:08:40Z</time>
      </trkpt>
      <trkpt lat="43.1726850" lon="-6.0953220">
        <ele>330.9</ele>
        <time>2019-09-04T09:08:41Z</time>
      </trkpt>
      <trkpt lat="43.1725670" lon="-6.0953890">
        <ele>330.9</ele>
        <time>2019-09-04T09:08:43Z</time>
      </trkpt>
      <trkpt lat="43.1724340" lon="-6.0954500">
        <ele>330.9</ele>
        <time>2019-09-04T09:08:45Z</time>
      </trkpt>
      <trkpt lat="43.1723110" lon="-6.0955020">
        <ele>330.9</ele>
        <time>2019-09-04T09:08:47Z</time>
      </trkpt>
      <trkpt lat="43.1722390" lon="-6.0955260">
        <ele>330.9</ele>
        <time>2019-09-04T09:08:48Z</time>
      </trkpt>
      <trkpt lat="43.1721060" lon="-6.0955670">
        <ele>330.9</ele>
        <time>2019-09-04T09:08:50Z</time>
      </trkpt>
      <trkpt lat="43.1719680" lon="-6.0956010">
        <ele>330.9</ele>
        <time>2019-09-04T09:08:52Z</time>
      </trkpt>
      <trkpt lat="43.1718400" lon="-6.0956280">
        <ele>330.9</ele>
        <time>2019-09-04T09:08:54Z</time>
      </trkpt>
      <trkpt lat="43.1717020" lon="-6.0956470">
        <ele>330.9</ele>
        <time>2019-09-04T09:08:56Z</time>
      </trkpt>
      <trkpt lat="43.1715640" lon="-6.0956580">
        <ele>330.9</ele>
        <time>2019-09-04T09:08:58Z</time>
      </trkpt>
      <trkpt lat="43.1714300" lon="-6.0956610">
        <ele>330.9</ele>
        <time>2019-09-04T09:09:00Z</time>
      </trkpt>
      <trkpt lat="43.1712970" lon="-6.0956570">
        <ele>330.9</ele>
        <time>2019-09-04T09:09:02Z</time>
      </trkpt>
      <trkpt lat="43.1711490" lon="-6.0956470">
        <ele>332.9</ele>
        <time>2019-09-04T09:09:04Z</time>
      </trkpt>
      <trkpt lat="43.1710110" lon="-6.0956130">
        <ele>332.9</ele>
        <time>2019-09-04T09:09:06Z</time>
      </trkpt>
      <trkpt lat="43.1708620" lon="-6.0956080">
        <ele>332.9</ele>
        <time>2019-09-04T09:09:08Z</time>
      </trkpt>
      <trkpt lat="43.1707240" lon="-6.0956160">
        <ele>332.9</ele>
        <time>2019-09-04T09:09:10Z</time>
      </trkpt>
      <trkpt lat="43.1705800" lon="-6.0956310">
        <ele>332.9</ele>
        <time>2019-09-04T09:09:12Z</time>
      </trkpt>
      <trkpt lat="43.1704270" lon="-6.0956630">
        <ele>332.9</ele>
        <time>2019-09-04T09:09:14Z</time>
      </trkpt>
      <trkpt lat="43.1702940" lon="-6.0957120">
        <ele>332.9</ele>
        <time>2019-09-04T09:09:16Z</time>
      </trkpt>
      <trkpt lat="43.1701560" lon="-6.0957730">
        <ele>332.9</ele>
        <time>2019-09-04T09:09:18Z</time>
      </trkpt>
      <trkpt lat="43.1700840" lon="-6.0958060">
        <ele>332.9</ele>
        <time>2019-09-04T09:09:19Z</time>
      </trkpt>
      <trkpt lat="43.1699510" lon="-6.0958690">
        <ele>332.9</ele>
        <time>2019-09-04T09:09:21Z</time>
      </trkpt>
      <trkpt lat="43.1698180" lon="-6.0959240">
        <ele>332.9</ele>
        <time>2019-09-04T09:09:23Z</time>
      </trkpt>
      <trkpt lat="43.1696840" lon="-6.0959620">
        <ele>332.9</ele>
        <time>2019-09-04T09:09:25Z</time>
      </trkpt>
      <trkpt lat="43.1696180" lon="-6.0959720">
        <ele>332.9</ele>
        <time>2019-09-04T09:09:26Z</time>
      </trkpt>
      <trkpt lat="43.1694800" lon="-6.0959720">
        <ele>332.9</ele>
        <time>2019-09-04T09:09:28Z</time>
      </trkpt>
      <trkpt lat="43.1693520" lon="-6.0959510">
        <ele>332.9</ele>
        <time>2019-09-04T09:09:30Z</time>
      </trkpt>
      <trkpt lat="43.1692240" lon="-6.0959110">
        <ele>332.9</ele>
        <time>2019-09-04T09:09:32Z</time>
      </trkpt>
      <trkpt lat="43.1691010" lon="-6.0958560">
        <ele>332.9</ele>
        <time>2019-09-04T09:09:34Z</time>
      </trkpt>
      <trkpt lat="43.1689730" lon="-6.0957810">
        <ele>332.9</ele>
        <time>2019-09-04T09:09:36Z</time>
      </trkpt>
      <trkpt lat="43.1688500" lon="-6.0957040">
        <ele>332.9</ele>
        <time>2019-09-04T09:09:38Z</time>
      </trkpt>
      <trkpt lat="43.1687270" lon="-6.0956300">
        <ele>332.9</ele>
        <time>2019-09-04T09:09:40Z</time>
      </trkpt>
      <trkpt lat="43.1686200" lon="-6.0955690">
        <ele>335.0</ele>
        <time>2019-09-04T09:09:42Z</time>
      </trkpt>
      <trkpt lat="43.1684970" lon="-6.0955180">
        <ele>335.0</ele>
        <time>2019-09-04T09:09:44Z</time>
      </trkpt>
      <trkpt lat="43.1684400" lon="-6.0954960">
        <ele>335.0</ele>
        <time>2019-09-04T09:09:45Z</time>
      </trkpt>
      <trkpt lat="43.1683790" lon="-6.0954770">
        <ele>335.0</ele>
        <time>2019-09-04T09:09:46Z</time>
      </trkpt>
      <trkpt lat="43.1683230" lon="-6.0954630">
        <ele>335.0</ele>
        <time>2019-09-04T09:09:47Z</time>
      </trkpt>
      <trkpt lat="43.1682660" lon="-6.0954520">
        <ele>335.0</ele>
        <time>2019-09-04T09:09:48Z</time>
      </trkpt>
      <trkpt lat="43.1682100" lon="-6.0954430">
        <ele>335.0</ele>
        <time>2019-09-04T09:09:49Z</time>
      </trkpt>
      <trkpt lat="43.1681540" lon="-6.0954370">
        <ele>335.0</ele>
        <time>2019-09-04T09:09:50Z</time>
      </trkpt>
      <trkpt lat="43.1680970" lon="-6.0954310">
        <ele>335.0</ele>
        <time>2019-09-04T09:09:51Z</time>
      </trkpt>
      <trkpt lat="43.1680460" lon="-6.0954270">
        <ele>335.0</ele>
        <time>2019-09-04T09:09:52Z</time>
      </trkpt>
      <trkpt lat="43.1679330" lon="-6.0954210">
        <ele>335.0</ele>
        <time>2019-09-04T09:09:54Z</time>
      </trkpt>
      <trkpt lat="43.1678870" lon="-6.0954200">
        <ele>335.0</ele>
        <time>2019-09-04T09:09:55Z</time>
      </trkpt>
      <trkpt lat="43.1678360" lon="-6.0954200">
        <ele>335.0</ele>
        <time>2019-09-04T09:09:56Z</time>
      </trkpt>
      <trkpt lat="43.1677800" lon="-6.0954180">
        <ele>335.0</ele>
        <time>2019-09-04T09:09:57Z</time>
      </trkpt>
      <trkpt lat="43.1677240" lon="-6.0954160">
        <ele>335.0</ele>
        <time>2019-09-04T09:09:58Z</time>
      </trkpt>
      <trkpt lat="43.1676720" lon="-6.0954140">
        <ele>335.0</ele>
        <time>2019-09-04T09:09:59Z</time>
      </trkpt>
      <trkpt lat="43.1676160" lon="-6.0954140">
        <ele>335.0</ele>
        <time>2019-09-04T09:10:00Z</time>
      </trkpt>
      <trkpt lat="43.1675650" lon="-6.0954160">
        <ele>335.0</ele>
        <time>2019-09-04T09:10:01Z</time>
      </trkpt>
      <trkpt lat="43.1674620" lon="-6.0954280">
        <ele>335.0</ele>
        <time>2019-09-04T09:10:03Z</time>
      </trkpt>
      <trkpt lat="43.1674110" lon="-6.0954390">
        <ele>335.0</ele>
        <time>2019-09-04T09:10:04Z</time>
      </trkpt>
      <trkpt lat="43.1673600" lon="-6.0954510">
        <ele>335.0</ele>
        <time>2019-09-04T09:10:05Z</time>
      </trkpt>
      <trkpt lat="43.1672730" lon="-6.0954890">
        <ele>335.0</ele>
        <time>2019-09-04T09:10:07Z</time>
      </trkpt>
      <trkpt lat="43.1671810" lon="-6.0955420">
        <ele>335.0</ele>
        <time>2019-09-04T09:10:09Z</time>
      </trkpt>
      <trkpt lat="43.1671350" lon="-6.0955770">
        <ele>335.0</ele>
        <time>2019-09-04T09:10:10Z</time>
      </trkpt>
      <trkpt lat="43.1670580" lon="-6.0956490">
        <ele>435.7</ele>
        <time>2019-09-04T09:10:12Z</time>
      </trkpt>
      <trkpt lat="43.1669860" lon="-6.0957410">
        <ele>435.7</ele>
        <time>2019-09-04T09:10:14Z</time>
      </trkpt>
      <trkpt lat="43.1669200" lon="-6.0958390">
        <ele>435.7</ele>
        <time>2019-09-04T09:10:16Z</time>
      </trkpt>
      <trkpt lat="43.1668530" lon="-6.0959440">
        <ele>437.7</ele>
        <time>2019-09-04T09:10:18Z</time>
      </trkpt>
      <trkpt lat="43.1667870" lon="-6.0960500">
        <ele>437.7</ele>
        <time>2019-09-04T09:10:20Z</time>
      </trkpt>
      <trkpt lat="43.1666740" lon="-6.0961890">
        <ele>437.7</ele>
        <time>2019-09-04T09:10:23Z</time>
      </trkpt>
      <trkpt lat="43.1665820" lon="-6.0962560">
        <ele>437.7</ele>
        <time>2019-09-04T09:10:25Z</time>
      </trkpt>
      <trkpt lat="43.1665360" lon="-6.0962820">
        <ele>437.7</ele>
        <time>2019-09-04T09:10:26Z</time>
      </trkpt>
      <trkpt lat="43.1664230" lon="-6.0963140">
        <ele>437.7</ele>
        <time>2019-09-04T09:10:28Z</time>
      </trkpt>
      <trkpt lat="43.1663100" lon="-6.0963260">
        <ele>437.7</ele>
        <time>2019-09-04T09:10:30Z</time>
      </trkpt>
      <trkpt lat="43.1662540" lon="-6.0963300">
        <ele>437.7</ele>
        <time>2019-09-04T09:10:31Z</time>
      </trkpt>
      <trkpt lat="43.1661360" lon="-6.0963330">
        <ele>437.7</ele>
        <time>2019-09-04T09:10:33Z</time>
      </trkpt>
      <trkpt lat="43.1660800" lon="-6.0963360">
        <ele>437.7</ele>
        <time>2019-09-04T09:10:34Z</time>
      </trkpt>
      <trkpt lat="43.1659520" lon="-6.0963460">
        <ele>437.7</ele>
        <time>2019-09-04T09:10:36Z</time>
      </trkpt>
      <trkpt lat="43.1658290" lon="-6.0963620">
        <ele>437.7</ele>
        <time>2019-09-04T09:10:38Z</time>
      </trkpt>
      <trkpt lat="43.1657630" lon="-6.0963720">
        <ele>437.7</ele>
        <time>2019-09-04T09:10:39Z</time>
      </trkpt>
      <trkpt lat="43.1656400" lon="-6.0963940">
        <ele>437.7</ele>
        <time>2019-09-04T09:10:41Z</time>
      </trkpt>
      <trkpt lat="43.1655730" lon="-6.0964080">
        <ele>437.7</ele>
        <time>2019-09-04T09:10:42Z</time>
      </trkpt>
      <trkpt lat="43.1655120" lon="-6.0964180">
        <ele>437.7</ele>
        <time>2019-09-04T09:10:43Z</time>
      </trkpt>
      <trkpt lat="43.1654450" lon="-6.0964300">
        <ele>437.7</ele>
        <time>2019-09-04T09:10:44Z</time>
      </trkpt>
      <trkpt lat="43.1653220" lon="-6.0964640">
        <ele>437.7</ele>
        <time>2019-09-04T09:10:46Z</time>
      </trkpt>
      <trkpt lat="43.1651890" lon="-6.0965130">
        <ele>439.7</ele>
        <time>2019-09-04T09:10:48Z</time>
      </trkpt>
      <trkpt lat="43.1650710" lon="-6.0965660">
        <ele>439.7</ele>
        <time>2019-09-04T09:10:50Z</time>
      </trkpt>
      <trkpt lat="43.1650150" lon="-6.0965930">
        <ele>439.7</ele>
        <time>2019-09-04T09:10:51Z</time>
      </trkpt>
      <trkpt lat="43.1649080" lon="-6.0966370">
        <ele>439.7</ele>
        <time>2019-09-04T09:10:53Z</time>
      </trkpt>
      <trkpt lat="43.1647900" lon="-6.0966650">
        <ele>439.7</ele>
        <time>2019-09-04T09:10:55Z</time>
      </trkpt>
      <trkpt lat="43.1646820" lon="-6.0966800">
        <ele>439.7</ele>
        <time>2019-09-04T09:10:57Z</time>
      </trkpt>
      <trkpt lat="43.1646210" lon="-6.0966850">
        <ele>439.7</ele>
        <time>2019-09-04T09:10:58Z</time>
      </trkpt>
      <trkpt lat="43.1645080" lon="-6.0966920">
        <ele>439.7</ele>
        <time>2019-09-04T09:11:00Z</time>
      </trkpt>
      <trkpt lat="43.1644010" lon="-6.0967000">
        <ele>439.7</ele>
        <time>2019-09-04T09:11:02Z</time>
      </trkpt>
      <trkpt lat="43.1642880" lon="-6.0967030">
        <ele>442.2</ele>
        <time>2019-09-04T09:11:04Z</time>
      </trkpt>
      <trkpt lat="43.1641800" lon="-6.0967010">
        <ele>442.2</ele>
        <time>2019-09-04T09:11:06Z</time>
      </trkpt>
      <trkpt lat="43.1640120" lon="-6.0966660">
        <ele>442.2</ele>
        <time>2019-09-04T09:11:09Z</time>
      </trkpt>
      <trkpt lat="43.1639600" lon="-6.0966460">
        <ele>442.2</ele>
        <time>2019-09-04T09:11:10Z</time>
      </trkpt>
      <trkpt lat="43.1638530" lon="-6.0965880">
        <ele>442.2</ele>
        <time>2019-09-04T09:11:12Z</time>
      </trkpt>
      <trkpt lat="43.1637560" lon="-6.0965100">
        <ele>442.2</ele>
        <time>2019-09-04T09:11:14Z</time>
      </trkpt>
      <trkpt lat="43.1637090" lon="-6.0964650">
        <ele>442.2</ele>
        <time>2019-09-04T09:11:15Z</time>
      </trkpt>
      <trkpt lat="43.1636280" lon="-6.0963650">
        <ele>442.2</ele>
        <time>2019-09-04T09:11:17Z</time>
      </trkpt>
      <trkpt lat="43.1635920" lon="-6.0963080">
        <ele>442.2</ele>
        <time>2019-09-04T09:11:18Z</time>
      </trkpt>
      <trkpt lat="43.1635510" lon="-6.0962500">
        <ele>444.9</ele>
        <time>2019-09-04T09:11:19Z</time>
      </trkpt>
      <trkpt lat="43.1635150" lon="-6.0961950">
        <ele>444.9</ele>
        <time>2019-09-04T09:11:20Z</time>
      </trkpt>
      <trkpt lat="43.1634790" lon="-6.0961360">
        <ele>444.9</ele>
        <time>2019-09-04T09:11:21Z</time>
      </trkpt>
      <trkpt lat="43.1634430" lon="-6.0960830">
        <ele>444.9</ele>
        <time>2019-09-04T09:11:22Z</time>
      </trkpt>
      <trkpt lat="43.1634020" lon="-6.0960320">
        <ele>444.9</ele>
        <time>2019-09-04T09:11:23Z</time>
      </trkpt>
      <trkpt lat="43.1633610" lon="-6.0959830">
        <ele>444.9</ele>
        <time>2019-09-04T09:11:24Z</time>
      </trkpt>
      <trkpt lat="43.1633200" lon="-6.0959390">
        <ele>444.9</ele>
        <time>2019-09-04T09:11:25Z</time>
      </trkpt>
      <trkpt lat="43.1632740" lon="-6.0958980">
        <ele>444.9</ele>
        <time>2019-09-04T09:11:26Z</time>
      </trkpt>
      <trkpt lat="43.1632230" lon="-6.0958600">
        <ele>444.9</ele>
        <time>2019-09-04T09:11:27Z</time>
      </trkpt>
      <trkpt lat="43.1631770" lon="-6.0958280">
        <ele>444.9</ele>
        <time>2019-09-04T09:11:28Z</time>
      </trkpt>
      <trkpt lat="43.1631260" lon="-6.0957950">
        <ele>444.9</ele>
        <time>2019-09-04T09:11:29Z</time>
      </trkpt>
      <trkpt lat="43.1630800" lon="-6.0957630">
        <ele>444.9</ele>
        <time>2019-09-04T09:11:30Z</time>
      </trkpt>
      <trkpt lat="43.1630340" lon="-6.0957340">
        <ele>444.9</ele>
        <time>2019-09-04T09:11:31Z</time>
      </trkpt>
      <trkpt lat="43.1629310" lon="-6.0956880">
        <ele>444.9</ele>
        <time>2019-09-04T09:11:33Z</time>
      </trkpt>
      <trkpt lat="43.1628340" lon="-6.0956690">
        <ele>447.4</ele>
        <time>2019-09-04T09:11:35Z</time>
      </trkpt>
      <trkpt lat="43.1627320" lon="-6.0956930">
        <ele>447.4</ele>
        <time>2019-09-04T09:11:37Z</time>
      </trkpt>
      <trkpt lat="43.1626500" lon="-6.0957500">
        <ele>447.4</ele>
        <time>2019-09-04T09:11:39Z</time>
      </trkpt>
      <trkpt lat="43.1625630" lon="-6.0958350">
        <ele>447.4</ele>
        <time>2019-09-04T09:11:41Z</time>
      </trkpt>
      <trkpt lat="43.1625270" lon="-6.0958820">
        <ele>447.4</ele>
        <time>2019-09-04T09:11:42Z</time>
      </trkpt>
      <trkpt lat="43.1624860" lon="-6.0959320">
        <ele>447.4</ele>
        <time>2019-09-04T09:11:43Z</time>
      </trkpt>
      <trkpt lat="43.1624190" lon="-6.0960310">
        <ele>447.4</ele>
        <time>2019-09-04T09:11:45Z</time>
      </trkpt>
      <trkpt lat="43.1623830" lon="-6.0960810">
        <ele>447.4</ele>
        <time>2019-09-04T09:11:46Z</time>
      </trkpt>
      <trkpt lat="43.1623480" lon="-6.0961300">
        <ele>447.4</ele>
        <time>2019-09-04T09:11:47Z</time>
      </trkpt>
      <trkpt lat="43.1622810" lon="-6.0962270">
        <ele>447.4</ele>
        <time>2019-09-04T09:11:49Z</time>
      </trkpt>
      <trkpt lat="43.1622200" lon="-6.0963210">
        <ele>449.5</ele>
        <time>2019-09-04T09:11:51Z</time>
      </trkpt>
      <trkpt lat="43.1621220" lon="-6.0964650">
        <ele>449.5</ele>
        <time>2019-09-04T09:11:54Z</time>
      </trkpt>
      <trkpt lat="43.1620660" lon="-6.0965610">
        <ele>449.5</ele>
        <time>2019-09-04T09:11:56Z</time>
      </trkpt>
      <trkpt lat="43.1620040" lon="-6.0966530">
        <ele>449.5</ele>
        <time>2019-09-04T09:11:58Z</time>
      </trkpt>
      <trkpt lat="43.1619430" lon="-6.0967390">
        <ele>449.5</ele>
        <time>2019-09-04T09:12:00Z</time>
      </trkpt>
      <trkpt lat="43.1618870" lon="-6.0968270">
        <ele>449.5</ele>
        <time>2019-09-04T09:12:02Z</time>
      </trkpt>
      <trkpt lat="43.1618410" lon="-6.0969090">
        <ele>449.5</ele>
        <time>2019-09-04T09:12:04Z</time>
      </trkpt>
      <trkpt lat="43.1617590" lon="-6.0970320">
        <ele>449.5</ele>
        <time>2019-09-04T09:12:07Z</time>
      </trkpt>
      <trkpt lat="43.1617020" lon="-6.0971160">
        <ele>451.5</ele>
        <time>2019-09-04T09:12:09Z</time>
      </trkpt>
      <trkpt lat="43.1616150" lon="-6.0972380">
        <ele>458.5</ele>
        <time>2019-09-04T09:12:12Z</time>
      </trkpt>
      <trkpt lat="43.1615540" lon="-6.0973310">
        <ele>458.5</ele>
        <time>2019-09-04T09:12:14Z</time>
      </trkpt>
      <trkpt lat="43.1614980" lon="-6.0974200">
        <ele>458.5</ele>
        <time>2019-09-04T09:12:16Z</time>
      </trkpt>
      <trkpt lat="43.1614310" lon="-6.0975010">
        <ele>458.5</ele>
        <time>2019-09-04T09:12:18Z</time>
      </trkpt>
      <trkpt lat="43.1613590" lon="-6.0975540">
        <ele>458.5</ele>
        <time>2019-09-04T09:12:20Z</time>
      </trkpt>
      <trkpt lat="43.1612930" lon="-6.0975670">
        <ele>458.5</ele>
        <time>2019-09-04T09:12:22Z</time>
      </trkpt>
      <trkpt lat="43.1612010" lon="-6.0975160">
        <ele>460.5</ele>
        <time>2019-09-04T09:12:25Z</time>
      </trkpt>
      <trkpt lat="43.1611490" lon="-6.0974550">
        <ele>460.5</ele>
        <time>2019-09-04T09:12:27Z</time>
      </trkpt>
      <trkpt lat="43.1611030" lon="-6.0973860">
        <ele>460.5</ele>
        <time>2019-09-04T09:12:29Z</time>
      </trkpt>
      <trkpt lat="43.1610520" lon="-6.0973160">
        <ele>460.5</ele>
        <time>2019-09-04T09:12:31Z</time>
      </trkpt>
      <trkpt lat="43.1610060" lon="-6.0972470">
        <ele>460.5</ele>
        <time>2019-09-04T09:12:33Z</time>
      </trkpt>
      <trkpt lat="43.1609700" lon="-6.0971820">
        <ele>460.5</ele>
        <time>2019-09-04T09:12:35Z</time>
      </trkpt>
      <trkpt lat="43.1609090" lon="-6.0970960">
        <ele>460.5</ele>
        <time>2019-09-04T09:12:38Z</time>
      </trkpt>
      <trkpt lat="43.1608680" lon="-6.0970520">
        <ele>462.5</ele>
        <time>2019-09-04T09:12:40Z</time>
      </trkpt>
      <trkpt lat="43.1608170" lon="-6.0970200">
        <ele>462.5</ele>
        <time>2019-09-04T09:12:42Z</time>
      </trkpt>
      <trkpt lat="43.1607650" lon="-6.0969960">
        <ele>462.5</ele>
        <time>2019-09-04T09:12:44Z</time>
      </trkpt>
      <trkpt lat="43.1607040" lon="-6.0969620">
        <ele>462.5</ele>
        <time>2019-09-04T09:12:47Z</time>
      </trkpt>
      <trkpt lat="43.1606730" lon="-6.0969200">
        <ele>462.5</ele>
        <time>2019-09-04T09:12:50Z</time>
      </trkpt>
      <trkpt lat="43.1606890" lon="-6.0969100">
        <ele>462.5</ele>
        <time>2019-09-04T09:18:19Z</time>
      </trkpt>
      <trkpt lat="43.1607040" lon="-6.0969630">
        <ele>462.5</ele>
        <time>2019-09-04T09:18:25Z</time>
      </trkpt>
      <trkpt lat="43.1607810" lon="-6.0969920">
        <ele>464.6</ele>
        <time>2019-09-04T09:18:30Z</time>
      </trkpt>
      <trkpt lat="43.1608470" lon="-6.0970300">
        <ele>464.6</ele>
        <time>2019-09-04T09:18:33Z</time>
      </trkpt>
      <trkpt lat="43.1608930" lon="-6.0970730">
        <ele>464.6</ele>
        <time>2019-09-04T09:18:35Z</time>
      </trkpt>
      <trkpt lat="43.1609450" lon="-6.0971330">
        <ele>464.6</ele>
        <time>2019-09-04T09:18:37Z</time>
      </trkpt>
      <trkpt lat="43.1610320" lon="-6.0972430">
        <ele>464.6</ele>
        <time>2019-09-04T09:18:40Z</time>
      </trkpt>
      <trkpt lat="43.1610980" lon="-6.0973240">
        <ele>464.6</ele>
        <time>2019-09-04T09:18:42Z</time>
      </trkpt>
      <trkpt lat="43.1611650" lon="-6.0974070">
        <ele>464.6</ele>
        <time>2019-09-04T09:18:44Z</time>
      </trkpt>
      <trkpt lat="43.1612210" lon="-6.0974820">
        <ele>464.6</ele>
        <time>2019-09-04T09:18:46Z</time>
      </trkpt>
      <trkpt lat="43.1612980" lon="-6.0975620">
        <ele>464.6</ele>
        <time>2019-09-04T09:18:49Z</time>
      </trkpt>
      <trkpt lat="43.1613440" lon="-6.0975710">
        <ele>462.6</ele>
        <time>2019-09-04T09:18:51Z</time>
      </trkpt>
      <trkpt lat="43.1614050" lon="-6.0975370">
        <ele>462.6</ele>
        <time>2019-09-04T09:18:53Z</time>
      </trkpt>
      <trkpt lat="43.1614570" lon="-6.0974710">
        <ele>462.6</ele>
        <time>2019-09-04T09:18:55Z</time>
      </trkpt>
      <trkpt lat="43.1615130" lon="-6.0973910">
        <ele>460.5</ele>
        <time>2019-09-04T09:18:57Z</time>
      </trkpt>
      <trkpt lat="43.1616200" lon="-6.0972400">
        <ele>460.5</ele>
        <time>2019-09-04T09:19:00Z</time>
      </trkpt>
      <trkpt lat="43.1616920" lon="-6.0971330">
        <ele>460.5</ele>
        <time>2019-09-04T09:19:02Z</time>
      </trkpt>
      <trkpt lat="43.1617640" lon="-6.0970100">
        <ele>460.5</ele>
        <time>2019-09-04T09:19:04Z</time>
      </trkpt>
      <trkpt lat="43.1618100" lon="-6.0968660">
        <ele>460.5</ele>
        <time>2019-09-04T09:19:06Z</time>
      </trkpt>
      <trkpt lat="43.1618250" lon="-6.0967920">
        <ele>460.5</ele>
        <time>2019-09-04T09:19:07Z</time>
      </trkpt>
      <trkpt lat="43.1618100" lon="-6.0966500">
        <ele>458.4</ele>
        <time>2019-09-04T09:19:09Z</time>
      </trkpt>
      <trkpt lat="43.1617640" lon="-6.0965250">
        <ele>458.4</ele>
        <time>2019-09-04T09:19:11Z</time>
      </trkpt>
      <trkpt lat="43.1616360" lon="-6.0963990">
        <ele>458.4</ele>
        <time>2019-09-04T09:19:14Z</time>
      </trkpt>
      <trkpt lat="43.1615850" lon="-6.0963700">
        <ele>458.4</ele>
        <time>2019-09-04T09:19:15Z</time>
      </trkpt>
      <trkpt lat="43.1615280" lon="-6.0963480">
        <ele>458.4</ele>
        <time>2019-09-04T09:19:16Z</time>
      </trkpt>
      <trkpt lat="43.1614210" lon="-6.0963180">
        <ele>458.4</ele>
        <time>2019-09-04T09:19:18Z</time>
      </trkpt>
      <trkpt lat="43.1613080" lon="-6.0963050">
        <ele>458.4</ele>
        <time>2019-09-04T09:19:20Z</time>
      </trkpt>
      <trkpt lat="43.1611960" lon="-6.0963030">
        <ele>458.4</ele>
        <time>2019-09-04T09:19:22Z</time>
      </trkpt>
      <trkpt lat="43.1610830" lon="-6.0963050">
        <ele>458.4</ele>
        <time>2019-09-04T09:19:24Z</time>
      </trkpt>
      <trkpt lat="43.1610210" lon="-6.0963080">
        <ele>458.4</ele>
        <time>2019-09-04T09:19:25Z</time>
      </trkpt>
      <trkpt lat="43.1609650" lon="-6.0963120">
        <ele>458.4</ele>
        <time>2019-09-04T09:19:26Z</time>
      </trkpt>
      <trkpt lat="43.1609140" lon="-6.0963160">
        <ele>458.4</ele>
        <time>2019-09-04T09:19:27Z</time>
      </trkpt>
      <trkpt lat="43.1608520" lon="-6.0963190">
        <ele>458.4</ele>
        <time>2019-09-04T09:19:28Z</time>
      </trkpt>
      <trkpt lat="43.1608010" lon="-6.0963240">
        <ele>458.4</ele>
        <time>2019-09-04T09:19:29Z</time>
      </trkpt>
      <trkpt lat="43.1607500" lon="-6.0963280">
        <ele>458.4</ele>
        <time>2019-09-04T09:19:30Z</time>
      </trkpt>
      <trkpt lat="43.1606430" lon="-6.0963360">
        <ele>458.4</ele>
        <time>2019-09-04T09:19:32Z</time>
      </trkpt>
      <trkpt lat="43.1605300" lon="-6.0963440">
        <ele>458.4</ele>
        <time>2019-09-04T09:19:34Z</time>
      </trkpt>
      <trkpt lat="43.1604170" lon="-6.0963510">
        <ele>458.4</ele>
        <time>2019-09-04T09:19:36Z</time>
      </trkpt>
      <trkpt lat="43.1603000" lon="-6.0963620">
        <ele>458.4</ele>
        <time>2019-09-04T09:19:38Z</time>
      </trkpt>
      <trkpt lat="43.1602480" lon="-6.0963690">
        <ele>458.4</ele>
        <time>2019-09-04T09:19:39Z</time>
      </trkpt>
      <trkpt lat="43.1601920" lon="-6.0963780">
        <ele>458.4</ele>
        <time>2019-09-04T09:19:40Z</time>
      </trkpt>
      <trkpt lat="43.1600840" lon="-6.0963920">
        <ele>458.4</ele>
        <time>2019-09-04T09:19:42Z</time>
      </trkpt>
      <trkpt lat="43.1599770" lon="-6.0964040">
        <ele>458.4</ele>
        <time>2019-09-04T09:19:44Z</time>
      </trkpt>
      <trkpt lat="43.1598690" lon="-6.0964150">
        <ele>458.4</ele>
        <time>2019-09-04T09:19:46Z</time>
      </trkpt>
      <trkpt lat="43.1598180" lon="-6.0964220">
        <ele>458.4</ele>
        <time>2019-09-04T09:19:47Z</time>
      </trkpt>
      <trkpt lat="43.1597620" lon="-6.0964290">
        <ele>458.4</ele>
        <time>2019-09-04T09:19:48Z</time>
      </trkpt>
      <trkpt lat="43.1596540" lon="-6.0964430">
        <ele>458.4</ele>
        <time>2019-09-04T09:19:50Z</time>
      </trkpt>
      <trkpt lat="43.1595260" lon="-6.0964610">
        <ele>458.4</ele>
        <time>2019-09-04T09:19:53Z</time>
      </trkpt>
      <trkpt lat="43.1594600" lon="-6.0964710">
        <ele>458.4</ele>
        <time>2019-09-04T09:19:54Z</time>
      </trkpt>
      <trkpt lat="43.1593930" lon="-6.0964810">
        <ele>458.4</ele>
        <time>2019-09-04T09:19:55Z</time>
      </trkpt>
      <trkpt lat="43.1592810" lon="-6.0964990">
        <ele>458.4</ele>
        <time>2019-09-04T09:19:57Z</time>
      </trkpt>
      <trkpt lat="43.1591630" lon="-6.0965180">
        <ele>458.4</ele>
        <time>2019-09-04T09:19:59Z</time>
      </trkpt>
      <trkpt lat="43.1591070" lon="-6.0965270">
        <ele>458.4</ele>
        <time>2019-09-04T09:20:00Z</time>
      </trkpt>
      <trkpt lat="43.1589990" lon="-6.0965460">
        <ele>458.4</ele>
        <time>2019-09-04T09:20:02Z</time>
      </trkpt>
      <trkpt lat="43.1588920" lon="-6.0965660">
        <ele>458.4</ele>
        <time>2019-09-04T09:20:04Z</time>
      </trkpt>
      <trkpt lat="43.1587840" lon="-6.0965880">
        <ele>458.4</ele>
        <time>2019-09-04T09:20:06Z</time>
      </trkpt>
      <trkpt lat="43.1587280" lon="-6.0965980">
        <ele>458.4</ele>
        <time>2019-09-04T09:20:07Z</time>
      </trkpt>
      <trkpt lat="43.1586250" lon="-6.0966210">
        <ele>458.4</ele>
        <time>2019-09-04T09:20:09Z</time>
      </trkpt>
      <trkpt lat="43.1585130" lon="-6.0966410">
        <ele>458.4</ele>
        <time>2019-09-04T09:20:11Z</time>
      </trkpt>
      <trkpt lat="43.1584000" lon="-6.0966580">
        <ele>458.4</ele>
        <time>2019-09-04T09:20:13Z</time>
      </trkpt>
      <trkpt lat="43.1583490" lon="-6.0966660">
        <ele>458.4</ele>
        <time>2019-09-04T09:20:14Z</time>
      </trkpt>
      <trkpt lat="43.1582360" lon="-6.0966810">
        <ele>458.4</ele>
        <time>2019-09-04T09:20:16Z</time>
      </trkpt>
      <trkpt lat="43.1581290" lon="-6.0966960">
        <ele>458.4</ele>
        <time>2019-09-04T09:20:18Z</time>
      </trkpt>
      <trkpt lat="43.1580210" lon="-6.0967140">
        <ele>458.4</ele>
        <time>2019-09-04T09:20:20Z</time>
      </trkpt>
      <trkpt lat="43.1579080" lon="-6.0967340">
        <ele>458.4</ele>
        <time>2019-09-04T09:20:22Z</time>
      </trkpt>
      <trkpt lat="43.1577960" lon="-6.0967550">
        <ele>458.4</ele>
        <time>2019-09-04T09:20:24Z</time>
      </trkpt>
      <trkpt lat="43.1576880" lon="-6.0967760">
        <ele>458.4</ele>
        <time>2019-09-04T09:20:26Z</time>
      </trkpt>
      <trkpt lat="43.1576270" lon="-6.0967890">
        <ele>458.4</ele>
        <time>2019-09-04T09:20:27Z</time>
      </trkpt>
      <trkpt lat="43.1575650" lon="-6.0968020">
        <ele>458.4</ele>
        <time>2019-09-04T09:20:28Z</time>
      </trkpt>
      <trkpt lat="43.1574480" lon="-6.0968280">
        <ele>458.4</ele>
        <time>2019-09-04T09:20:30Z</time>
      </trkpt>
      <trkpt lat="43.1573350" lon="-6.0968520">
        <ele>458.4</ele>
        <time>2019-09-04T09:20:32Z</time>
      </trkpt>
      <trkpt lat="43.1572170" lon="-6.0968770">
        <ele>458.4</ele>
        <time>2019-09-04T09:20:34Z</time>
      </trkpt>
      <trkpt lat="43.1571050" lon="-6.0969050">
        <ele>458.4</ele>
        <time>2019-09-04T09:20:36Z</time>
      </trkpt>
      <trkpt lat="43.1569970" lon="-6.0969330">
        <ele>458.4</ele>
        <time>2019-09-04T09:20:38Z</time>
      </trkpt>
      <trkpt lat="43.1568740" lon="-6.0969630">
        <ele>458.4</ele>
        <time>2019-09-04T09:20:40Z</time>
      </trkpt>
      <trkpt lat="43.1568130" lon="-6.0969780">
        <ele>458.4</ele>
        <time>2019-09-04T09:20:41Z</time>
      </trkpt>
      <trkpt lat="43.1566950" lon="-6.0970040">
        <ele>458.4</ele>
        <time>2019-09-04T09:20:43Z</time>
      </trkpt>
      <trkpt lat="43.1565770" lon="-6.0970330">
        <ele>458.4</ele>
        <time>2019-09-04T09:20:45Z</time>
      </trkpt>
      <trkpt lat="43.1564700" lon="-6.0970600">
        <ele>458.4</ele>
        <time>2019-09-04T09:20:47Z</time>
      </trkpt>
      <trkpt lat="43.1563470" lon="-6.0970920">
        <ele>458.4</ele>
        <time>2019-09-04T09:20:49Z</time>
      </trkpt>
      <trkpt lat="43.1562910" lon="-6.0971050">
        <ele>458.4</ele>
        <time>2019-09-04T09:20:50Z</time>
      </trkpt>
      <trkpt lat="43.1562390" lon="-6.0971190">
        <ele>458.4</ele>
        <time>2019-09-04T09:20:51Z</time>
      </trkpt>
      <trkpt lat="43.1561830" lon="-6.0971320">
        <ele>458.4</ele>
        <time>2019-09-04T09:20:52Z</time>
      </trkpt>
      <trkpt lat="43.1560650" lon="-6.0971500">
        <ele>458.4</ele>
        <time>2019-09-04T09:20:54Z</time>
      </trkpt>
      <trkpt lat="43.1560090" lon="-6.0971550">
        <ele>458.4</ele>
        <time>2019-09-04T09:20:55Z</time>
      </trkpt>
      <trkpt lat="43.1559010" lon="-6.0971500">
        <ele>458.4</ele>
        <time>2019-09-04T09:20:57Z</time>
      </trkpt>
      <trkpt lat="43.1557990" lon="-6.0971280">
        <ele>458.4</ele>
        <time>2019-09-04T09:20:59Z</time>
      </trkpt>
      <trkpt lat="43.1556920" lon="-6.0970920">
        <ele>458.4</ele>
        <time>2019-09-04T09:21:01Z</time>
      </trkpt>
      <trkpt lat="43.1555890" lon="-6.0970500">
        <ele>458.4</ele>
        <time>2019-09-04T09:21:03Z</time>
      </trkpt>
      <trkpt lat="43.1554920" lon="-6.0970080">
        <ele>458.4</ele>
        <time>2019-09-04T09:21:05Z</time>
      </trkpt>
      <trkpt lat="43.1554410" lon="-6.0969880">
        <ele>458.4</ele>
        <time>2019-09-04T09:21:06Z</time>
      </trkpt>
      <trkpt lat="43.1553430" lon="-6.0969480">
        <ele>458.4</ele>
        <time>2019-09-04T09:21:08Z</time>
      </trkpt>
      <trkpt lat="43.1552410" lon="-6.0969090">
        <ele>458.4</ele>
        <time>2019-09-04T09:21:10Z</time>
      </trkpt>
      <trkpt lat="43.1551490" lon="-6.0968770">
        <ele>458.4</ele>
        <time>2019-09-04T09:21:12Z</time>
      </trkpt>
      <trkpt lat="43.1550410" lon="-6.0968490">
        <ele>458.4</ele>
        <time>2019-09-04T09:21:14Z</time>
      </trkpt>
      <trkpt lat="43.1549900" lon="-6.0968380">
        <ele>458.4</ele>
        <time>2019-09-04T09:21:15Z</time>
      </trkpt>
      <trkpt lat="43.1548830" lon="-6.0968130">
        <ele>458.4</ele>
        <time>2019-09-04T09:21:17Z</time>
      </trkpt>
      <trkpt lat="43.1547850" lon="-6.0967780">
        <ele>458.4</ele>
        <time>2019-09-04T09:21:19Z</time>
      </trkpt>
      <trkpt lat="43.1546880" lon="-6.0967200">
        <ele>458.4</ele>
        <time>2019-09-04T09:21:21Z</time>
      </trkpt>
      <trkpt lat="43.1545960" lon="-6.0966440">
        <ele>458.4</ele>
        <time>2019-09-04T09:21:23Z</time>
      </trkpt>
      <trkpt lat="43.1545500" lon="-6.0966000">
        <ele>458.4</ele>
        <time>2019-09-04T09:21:24Z</time>
      </trkpt>
      <trkpt lat="43.1544990" lon="-6.0965500">
        <ele>458.4</ele>
        <time>2019-09-04T09:21:25Z</time>
      </trkpt>
      <trkpt lat="43.1544120" lon="-6.0964470">
        <ele>458.4</ele>
        <time>2019-09-04T09:21:27Z</time>
      </trkpt>
      <trkpt lat="43.1543710" lon="-6.0964000">
        <ele>458.4</ele>
        <time>2019-09-04T09:21:28Z</time>
      </trkpt>
      <trkpt lat="43.1543300" lon="-6.0963510">
        <ele>460.4</ele>
        <time>2019-09-04T09:21:29Z</time>
      </trkpt>
      <trkpt lat="43.1542840" lon="-6.0962990">
        <ele>460.4</ele>
        <time>2019-09-04T09:21:30Z</time>
      </trkpt>
      <trkpt lat="43.1542370" lon="-6.0962520">
        <ele>460.4</ele>
        <time>2019-09-04T09:21:31Z</time>
      </trkpt>
      <trkpt lat="43.1541500" lon="-6.0961500">
        <ele>460.4</ele>
        <time>2019-09-04T09:21:33Z</time>
      </trkpt>
      <trkpt lat="43.1541090" lon="-6.0960970">
        <ele>460.4</ele>
        <time>2019-09-04T09:21:34Z</time>
      </trkpt>
      <trkpt lat="43.1540740" lon="-6.0960460">
        <ele>460.4</ele>
        <time>2019-09-04T09:21:35Z</time>
      </trkpt>
      <trkpt lat="43.1540430" lon="-6.0959850">
        <ele>460.4</ele>
        <time>2019-09-04T09:21:36Z</time>
      </trkpt>
      <trkpt lat="43.1540120" lon="-6.0959230">
        <ele>460.4</ele>
        <time>2019-09-04T09:21:37Z</time>
      </trkpt>
      <trkpt lat="43.1539810" lon="-6.0957730">
        <ele>460.4</ele>
        <time>2019-09-04T09:21:39Z</time>
      </trkpt>
      <trkpt lat="43.1539710" lon="-6.0956900">
        <ele>460.4</ele>
        <time>2019-09-04T09:21:40Z</time>
      </trkpt>
      <trkpt lat="43.1539610" lon="-6.0956040">
        <ele>460.4</ele>
        <time>2019-09-04T09:21:41Z</time>
      </trkpt>
      <trkpt lat="43.1539560" lon="-6.0955230">
        <ele>460.4</ele>
        <time>2019-09-04T09:21:42Z</time>
      </trkpt>
      <trkpt lat="43.1539560" lon="-6.0954390">
        <ele>460.4</ele>
        <time>2019-09-04T09:21:43Z</time>
      </trkpt>
      <trkpt lat="43.1539460" lon="-6.0953490">
        <ele>460.4</ele>
        <time>2019-09-04T09:21:44Z</time>
      </trkpt>
      <trkpt lat="43.1539400" lon="-6.0952580">
        <ele>460.4</ele>
        <time>2019-09-04T09:21:45Z</time>
      </trkpt>
      <trkpt lat="43.1539350" lon="-6.0951690">
        <ele>460.4</ele>
        <time>2019-09-04T09:21:46Z</time>
      </trkpt>
      <trkpt lat="43.1539300" lon="-6.0950870">
        <ele>460.4</ele>
        <time>2019-09-04T09:21:47Z</time>
      </trkpt>
      <trkpt lat="43.1539250" lon="-6.0950090">
        <ele>460.4</ele>
        <time>2019-09-04T09:21:48Z</time>
      </trkpt>
      <trkpt lat="43.1539200" lon="-6.0949280">
        <ele>460.4</ele>
        <time>2019-09-04T09:21:49Z</time>
      </trkpt>
      <trkpt lat="43.1539100" lon="-6.0947510">
        <ele>460.4</ele>
        <time>2019-09-04T09:21:51Z</time>
      </trkpt>
      <trkpt lat="43.1539000" lon="-6.0945800">
        <ele>460.4</ele>
        <time>2019-09-04T09:21:53Z</time>
      </trkpt>
      <trkpt lat="43.1538840" lon="-6.0944060">
        <ele>460.4</ele>
        <time>2019-09-04T09:21:55Z</time>
      </trkpt>
      <trkpt lat="43.1538690" lon="-6.0943160">
        <ele>460.4</ele>
        <time>2019-09-04T09:21:56Z</time>
      </trkpt>
      <trkpt lat="43.1538480" lon="-6.0942350">
        <ele>460.4</ele>
        <time>2019-09-04T09:21:57Z</time>
      </trkpt>
      <trkpt lat="43.1538280" lon="-6.0941630">
        <ele>460.4</ele>
        <time>2019-09-04T09:21:58Z</time>
      </trkpt>
      <trkpt lat="43.1538020" lon="-6.0940870">
        <ele>460.4</ele>
        <time>2019-09-04T09:21:59Z</time>
      </trkpt>
      <trkpt lat="43.1537720" lon="-6.0940140">
        <ele>460.4</ele>
        <time>2019-09-04T09:22:00Z</time>
      </trkpt>
      <trkpt lat="43.1537050" lon="-6.0938770">
        <ele>460.4</ele>
        <time>2019-09-04T09:22:02Z</time>
      </trkpt>
      <trkpt lat="43.1536380" lon="-6.0937400">
        <ele>460.4</ele>
        <time>2019-09-04T09:22:04Z</time>
      </trkpt>
      <trkpt lat="43.1536030" lon="-6.0936740">
        <ele>460.4</ele>
        <time>2019-09-04T09:22:05Z</time>
      </trkpt>
      <trkpt lat="43.1535360" lon="-6.0935440">
        <ele>460.4</ele>
        <time>2019-09-04T09:22:07Z</time>
      </trkpt>
      <trkpt lat="43.1535000" lon="-6.0934820">
        <ele>460.4</ele>
        <time>2019-09-04T09:22:08Z</time>
      </trkpt>
      <trkpt lat="43.1534280" lon="-6.0933530">
        <ele>460.4</ele>
        <time>2019-09-04T09:22:10Z</time>
      </trkpt>
      <trkpt lat="43.1533620" lon="-6.0932260">
        <ele>460.4</ele>
        <time>2019-09-04T09:22:12Z</time>
      </trkpt>
      <trkpt lat="43.1533260" lon="-6.0931670">
        <ele>460.4</ele>
        <time>2019-09-04T09:22:13Z</time>
      </trkpt>
      <trkpt lat="43.1532650" lon="-6.0930440">
        <ele>460.4</ele>
        <time>2019-09-04T09:22:15Z</time>
      </trkpt>
      <trkpt lat="43.1531930" lon="-6.0929220">
        <ele>460.4</ele>
        <time>2019-09-04T09:22:17Z</time>
      </trkpt>
      <trkpt lat="43.1531570" lon="-6.0928570">
        <ele>460.4</ele>
        <time>2019-09-04T09:22:18Z</time>
      </trkpt>
      <trkpt lat="43.1531260" lon="-6.0927970">
        <ele>460.4</ele>
        <time>2019-09-04T09:22:19Z</time>
      </trkpt>
      <trkpt lat="43.1530550" lon="-6.0926670">
        <ele>460.4</ele>
        <time>2019-09-04T09:22:21Z</time>
      </trkpt>
      <trkpt lat="43.1530140" lon="-6.0926040">
        <ele>460.4</ele>
        <time>2019-09-04T09:22:22Z</time>
      </trkpt>
      <trkpt lat="43.1529830" lon="-6.0925400">
        <ele>460.4</ele>
        <time>2019-09-04T09:22:23Z</time>
      </trkpt>
      <trkpt lat="43.1529470" lon="-6.0924780">
        <ele>460.4</ele>
        <time>2019-09-04T09:22:24Z</time>
      </trkpt>
      <trkpt lat="43.1528760" lon="-6.0923560">
        <ele>460.4</ele>
        <time>2019-09-04T09:22:26Z</time>
      </trkpt>
      <trkpt lat="43.1528140" lon="-6.0922300">
        <ele>460.4</ele>
        <time>2019-09-04T09:22:28Z</time>
      </trkpt>
      <trkpt lat="43.1527420" lon="-6.0921050">
        <ele>462.4</ele>
        <time>2019-09-04T09:22:30Z</time>
      </trkpt>
      <trkpt lat="43.1527120" lon="-6.0920400">
        <ele>462.4</ele>
        <time>2019-09-04T09:22:31Z</time>
      </trkpt>
      <trkpt lat="43.1526810" lon="-6.0919800">
        <ele>462.4</ele>
        <time>2019-09-04T09:22:32Z</time>
      </trkpt>
      <trkpt lat="43.1526450" lon="-6.0919150">
        <ele>462.4</ele>
        <time>2019-09-04T09:22:33Z</time>
      </trkpt>
      <trkpt lat="43.1526090" lon="-6.0918510">
        <ele>462.4</ele>
        <time>2019-09-04T09:22:34Z</time>
      </trkpt>
      <trkpt lat="43.1525480" lon="-6.0917300">
        <ele>462.4</ele>
        <time>2019-09-04T09:22:36Z</time>
      </trkpt>
      <trkpt lat="43.1525170" lon="-6.0916670">
        <ele>462.4</ele>
        <time>2019-09-04T09:22:37Z</time>
      </trkpt>
      <trkpt lat="43.1524810" lon="-6.0916080">
        <ele>462.4</ele>
        <time>2019-09-04T09:22:38Z</time>
      </trkpt>
      <trkpt lat="43.1524450" lon="-6.0915550">
        <ele>462.4</ele>
        <time>2019-09-04T09:22:39Z</time>
      </trkpt>
      <trkpt lat="43.1524040" lon="-6.0915010">
        <ele>462.4</ele>
        <time>2019-09-04T09:22:40Z</time>
      </trkpt>
      <trkpt lat="43.1523690" lon="-6.0914530">
        <ele>462.4</ele>
        <time>2019-09-04T09:22:41Z</time>
      </trkpt>
      <trkpt lat="43.1523230" lon="-6.0914090">
        <ele>462.4</ele>
        <time>2019-09-04T09:22:42Z</time>
      </trkpt>
      <trkpt lat="43.1522820" lon="-6.0913720">
        <ele>462.4</ele>
        <time>2019-09-04T09:22:43Z</time>
      </trkpt>
      <trkpt lat="43.1522410" lon="-6.0913370">
        <ele>462.4</ele>
        <time>2019-09-04T09:22:44Z</time>
      </trkpt>
      <trkpt lat="43.1521430" lon="-6.0912740">
        <ele>462.4</ele>
        <time>2019-09-04T09:22:46Z</time>
      </trkpt>
      <trkpt lat="43.1520970" lon="-6.0912470">
        <ele>462.4</ele>
        <time>2019-09-04T09:22:47Z</time>
      </trkpt>
      <trkpt lat="43.1520000" lon="-6.0912060">
        <ele>462.4</ele>
        <time>2019-09-04T09:22:49Z</time>
      </trkpt>
      <trkpt lat="43.1519490" lon="-6.0911900">
        <ele>462.4</ele>
        <time>2019-09-04T09:22:50Z</time>
      </trkpt>
      <trkpt lat="43.1518980" lon="-6.0911800">
        <ele>462.4</ele>
        <time>2019-09-04T09:22:51Z</time>
      </trkpt>
      <trkpt lat="43.1518000" lon="-6.0911740">
        <ele>462.4</ele>
        <time>2019-09-04T09:22:53Z</time>
      </trkpt>
      <trkpt lat="43.1516930" lon="-6.0911830">
        <ele>462.4</ele>
        <time>2019-09-04T09:22:55Z</time>
      </trkpt>
      <trkpt lat="43.1516470" lon="-6.0911890">
        <ele>462.4</ele>
        <time>2019-09-04T09:22:56Z</time>
      </trkpt>
      <trkpt lat="43.1515440" lon="-6.0912030">
        <ele>462.4</ele>
        <time>2019-09-04T09:22:58Z</time>
      </trkpt>
      <trkpt lat="43.1514930" lon="-6.0912090">
        <ele>462.4</ele>
        <time>2019-09-04T09:22:59Z</time>
      </trkpt>
      <trkpt lat="43.1513910" lon="-6.0912230">
        <ele>462.4</ele>
        <time>2019-09-04T09:23:01Z</time>
      </trkpt>
      <trkpt lat="43.1513450" lon="-6.0912290">
        <ele>462.4</ele>
        <time>2019-09-04T09:23:02Z</time>
      </trkpt>
      <trkpt lat="43.1512420" lon="-6.0912380">
        <ele>462.4</ele>
        <time>2019-09-04T09:23:04Z</time>
      </trkpt>
      <trkpt lat="43.1511860" lon="-6.0912410">
        <ele>462.4</ele>
        <time>2019-09-04T09:23:05Z</time>
      </trkpt>
      <trkpt lat="43.1510890" lon="-6.0912440">
        <ele>462.4</ele>
        <time>2019-09-04T09:23:07Z</time>
      </trkpt>
      <trkpt lat="43.1509910" lon="-6.0912410">
        <ele>464.5</ele>
        <time>2019-09-04T09:23:09Z</time>
      </trkpt>
      <trkpt lat="43.1509350" lon="-6.0912380">
        <ele>464.5</ele>
        <time>2019-09-04T09:23:10Z</time>
      </trkpt>
      <trkpt lat="43.1508330" lon="-6.0912300">
        <ele>464.5</ele>
        <time>2019-09-04T09:23:12Z</time>
      </trkpt>
      <trkpt lat="43.1507810" lon="-6.0912250">
        <ele>464.5</ele>
        <time>2019-09-04T09:23:13Z</time>
      </trkpt>
      <trkpt lat="43.1507300" lon="-6.0912190">
        <ele>464.5</ele>
        <time>2019-09-04T09:23:14Z</time>
      </trkpt>
      <trkpt lat="43.1506330" lon="-6.0912010">
        <ele>464.5</ele>
        <time>2019-09-04T09:23:16Z</time>
      </trkpt>
      <trkpt lat="43.1505820" lon="-6.0911890">
        <ele>464.5</ele>
        <time>2019-09-04T09:23:17Z</time>
      </trkpt>
      <trkpt lat="43.1504840" lon="-6.0911670">
        <ele>464.5</ele>
        <time>2019-09-04T09:23:19Z</time>
      </trkpt>
      <trkpt lat="43.1503770" lon="-6.0911430">
        <ele>464.5</ele>
        <time>2019-09-04T09:23:21Z</time>
      </trkpt>
      <trkpt lat="43.1503310" lon="-6.0911300">
        <ele>464.5</ele>
        <time>2019-09-04T09:23:22Z</time>
      </trkpt>
      <trkpt lat="43.1502280" lon="-6.0910980">
        <ele>464.5</ele>
        <time>2019-09-04T09:23:24Z</time>
      </trkpt>
      <trkpt lat="43.1501770" lon="-6.0910820">
        <ele>464.5</ele>
        <time>2019-09-04T09:23:25Z</time>
      </trkpt>
      <trkpt lat="43.1501260" lon="-6.0910650">
        <ele>464.5</ele>
        <time>2019-09-04T09:23:26Z</time>
      </trkpt>
      <trkpt lat="43.1500750" lon="-6.0910480">
        <ele>464.5</ele>
        <time>2019-09-04T09:23:27Z</time>
      </trkpt>
      <trkpt lat="43.1499720" lon="-6.0910100">
        <ele>464.5</ele>
        <time>2019-09-04T09:23:29Z</time>
      </trkpt>
      <trkpt lat="43.1499260" lon="-6.0909880">
        <ele>464.5</ele>
        <time>2019-09-04T09:23:30Z</time>
      </trkpt>
      <trkpt lat="43.1498750" lon="-6.0909610">
        <ele>464.5</ele>
        <time>2019-09-04T09:23:31Z</time>
      </trkpt>
      <trkpt lat="43.1497830" lon="-6.0908990">
        <ele>464.5</ele>
        <time>2019-09-04T09:23:33Z</time>
      </trkpt>
      <trkpt lat="43.1497420" lon="-6.0908680">
        <ele>464.5</ele>
        <time>2019-09-04T09:23:34Z</time>
      </trkpt>
      <trkpt lat="43.1496140" lon="-6.0907510">
        <ele>464.5</ele>
        <time>2019-09-04T09:23:37Z</time>
      </trkpt>
      <trkpt lat="43.1495320" lon="-6.0906570">
        <ele>464.5</ele>
        <time>2019-09-04T09:23:39Z</time>
      </trkpt>
      <trkpt lat="43.1494910" lon="-6.0906090">
        <ele>464.5</ele>
        <time>2019-09-04T09:23:40Z</time>
      </trkpt>
      <trkpt lat="43.1494500" lon="-6.0905640">
        <ele>464.5</ele>
        <time>2019-09-04T09:23:41Z</time>
      </trkpt>
      <trkpt lat="43.1493630" lon="-6.0904700">
        <ele>464.5</ele>
        <time>2019-09-04T09:23:43Z</time>
      </trkpt>
      <trkpt lat="43.1492810" lon="-6.0903720">
        <ele>464.5</ele>
        <time>2019-09-04T09:23:45Z</time>
      </trkpt>
      <trkpt lat="43.1492400" lon="-6.0903230">
        <ele>464.5</ele>
        <time>2019-09-04T09:23:46Z</time>
      </trkpt>
      <trkpt lat="43.1491990" lon="-6.0902760">
        <ele>464.5</ele>
        <time>2019-09-04T09:23:47Z</time>
      </trkpt>
      <trkpt lat="43.1491230" lon="-6.0901840">
        <ele>466.5</ele>
        <time>2019-09-04T09:23:49Z</time>
      </trkpt>
      <trkpt lat="43.1490820" lon="-6.0901400">
        <ele>466.5</ele>
        <time>2019-09-04T09:23:50Z</time>
      </trkpt>
      <trkpt lat="43.1490460" lon="-6.0900910">
        <ele>466.5</ele>
        <time>2019-09-04T09:23:51Z</time>
      </trkpt>
      <trkpt lat="43.1489740" lon="-6.0899940">
        <ele>466.5</ele>
        <time>2019-09-04T09:23:53Z</time>
      </trkpt>
      <trkpt lat="43.1489330" lon="-6.0899400">
        <ele>466.5</ele>
        <time>2019-09-04T09:23:54Z</time>
      </trkpt>
      <trkpt lat="43.1488970" lon="-6.0898850">
        <ele>466.5</ele>
        <time>2019-09-04T09:23:55Z</time>
      </trkpt>
      <trkpt lat="43.1488610" lon="-6.0898330">
        <ele>466.5</ele>
        <time>2019-09-04T09:23:56Z</time>
      </trkpt>
      <trkpt lat="43.1487900" lon="-6.0897180">
        <ele>466.5</ele>
        <time>2019-09-04T09:23:58Z</time>
      </trkpt>
      <trkpt lat="43.1487590" lon="-6.0896610">
        <ele>466.5</ele>
        <time>2019-09-04T09:23:59Z</time>
      </trkpt>
      <trkpt lat="43.1486980" lon="-6.0895490">
        <ele>466.5</ele>
        <time>2019-09-04T09:24:01Z</time>
      </trkpt>
      <trkpt lat="43.1486720" lon="-6.0894880">
        <ele>466.5</ele>
        <time>2019-09-04T09:24:02Z</time>
      </trkpt>
      <trkpt lat="43.1486410" lon="-6.0894270">
        <ele>466.5</ele>
        <time>2019-09-04T09:24:03Z</time>
      </trkpt>
      <trkpt lat="43.1485950" lon="-6.0893020">
        <ele>466.5</ele>
        <time>2019-09-04T09:24:05Z</time>
      </trkpt>
      <trkpt lat="43.1485700" lon="-6.0892370">
        <ele>466.5</ele>
        <time>2019-09-04T09:24:06Z</time>
      </trkpt>
      <trkpt lat="43.1485240" lon="-6.0891120">
        <ele>466.5</ele>
        <time>2019-09-04T09:24:08Z</time>
      </trkpt>
      <trkpt lat="43.1484770" lon="-6.0889800">
        <ele>466.5</ele>
        <time>2019-09-04T09:24:10Z</time>
      </trkpt>
      <trkpt lat="43.1484310" lon="-6.0888510">
        <ele>466.5</ele>
        <time>2019-09-04T09:24:12Z</time>
      </trkpt>
      <trkpt lat="43.1484110" lon="-6.0887850">
        <ele>466.5</ele>
        <time>2019-09-04T09:24:13Z</time>
      </trkpt>
      <trkpt lat="43.1483900" lon="-6.0887190">
        <ele>466.5</ele>
        <time>2019-09-04T09:24:14Z</time>
      </trkpt>
      <trkpt lat="43.1483650" lon="-6.0886530">
        <ele>468.6</ele>
        <time>2019-09-04T09:24:15Z</time>
      </trkpt>
      <trkpt lat="43.1483440" lon="-6.0885890">
        <ele>468.6</ele>
        <time>2019-09-04T09:24:16Z</time>
      </trkpt>
      <trkpt lat="43.1482980" lon="-6.0884630">
        <ele>468.6</ele>
        <time>2019-09-04T09:24:18Z</time>
      </trkpt>
      <trkpt lat="43.1482780" lon="-6.0883990">
        <ele>468.6</ele>
        <time>2019-09-04T09:24:19Z</time>
      </trkpt>
      <trkpt lat="43.1482320" lon="-6.0882780">
        <ele>468.6</ele>
        <time>2019-09-04T09:24:21Z</time>
      </trkpt>
      <trkpt lat="43.1481910" lon="-6.0881440">
        <ele>485.7</ele>
        <time>2019-09-04T09:24:23Z</time>
      </trkpt>
      <trkpt lat="43.1481450" lon="-6.0880130">
        <ele>485.7</ele>
        <time>2019-09-04T09:24:25Z</time>
      </trkpt>
      <trkpt lat="43.1481190" lon="-6.0879440">
        <ele>485.7</ele>
        <time>2019-09-04T09:24:26Z</time>
      </trkpt>
      <trkpt lat="43.1480990" lon="-6.0878800">
        <ele>485.7</ele>
        <time>2019-09-04T09:24:27Z</time>
      </trkpt>
      <trkpt lat="43.1480730" lon="-6.0878100">
        <ele>485.7</ele>
        <time>2019-09-04T09:24:28Z</time>
      </trkpt>
      <trkpt lat="43.1480270" lon="-6.0876760">
        <ele>485.7</ele>
        <time>2019-09-04T09:24:30Z</time>
      </trkpt>
      <trkpt lat="43.1479710" lon="-6.0875410">
        <ele>487.7</ele>
        <time>2019-09-04T09:24:32Z</time>
      </trkpt>
      <trkpt lat="43.1479500" lon="-6.0874820">
        <ele>487.7</ele>
        <time>2019-09-04T09:24:33Z</time>
      </trkpt>
      <trkpt lat="43.1478780" lon="-6.0873630">
        <ele>487.7</ele>
        <time>2019-09-04T09:24:35Z</time>
      </trkpt>
      <trkpt lat="43.1478480" lon="-6.0873130">
        <ele>487.7</ele>
        <time>2019-09-04T09:24:36Z</time>
      </trkpt>
      <trkpt lat="43.1477200" lon="-6.0871720">
        <ele>487.7</ele>
        <time>2019-09-04T09:24:39Z</time>
      </trkpt>
      <trkpt lat="43.1476280" lon="-6.0870910">
        <ele>487.7</ele>
        <time>2019-09-04T09:24:41Z</time>
      </trkpt>
      <trkpt lat="43.1475870" lon="-6.0870560">
        <ele>487.7</ele>
        <time>2019-09-04T09:24:42Z</time>
      </trkpt>
      <trkpt lat="43.1474940" lon="-6.0869820">
        <ele>487.7</ele>
        <time>2019-09-04T09:24:44Z</time>
      </trkpt>
      <trkpt lat="43.1474020" lon="-6.0869090">
        <ele>487.7</ele>
        <time>2019-09-04T09:24:46Z</time>
      </trkpt>
      <trkpt lat="43.1473100" lon="-6.0868370">
        <ele>487.7</ele>
        <time>2019-09-04T09:24:48Z</time>
      </trkpt>
      <trkpt lat="43.1472130" lon="-6.0867640">
        <ele>487.7</ele>
        <time>2019-09-04T09:24:50Z</time>
      </trkpt>
      <trkpt lat="43.1471160" lon="-6.0866900">
        <ele>487.7</ele>
        <time>2019-09-04T09:24:52Z</time>
      </trkpt>
      <trkpt lat="43.1470230" lon="-6.0866160">
        <ele>489.8</ele>
        <time>2019-09-04T09:24:54Z</time>
      </trkpt>
      <trkpt lat="43.1469260" lon="-6.0865430">
        <ele>489.8</ele>
        <time>2019-09-04T09:24:56Z</time>
      </trkpt>
      <trkpt lat="43.1468340" lon="-6.0864730">
        <ele>489.8</ele>
        <time>2019-09-04T09:24:58Z</time>
      </trkpt>
      <trkpt lat="43.1467880" lon="-6.0864360">
        <ele>489.8</ele>
        <time>2019-09-04T09:24:59Z</time>
      </trkpt>
      <trkpt lat="43.1467370" lon="-6.0863990">
        <ele>489.8</ele>
        <time>2019-09-04T09:25:00Z</time>
      </trkpt>
      <trkpt lat="43.1466390" lon="-6.0863280">
        <ele>489.8</ele>
        <time>2019-09-04T09:25:02Z</time>
      </trkpt>
      <trkpt lat="43.1465930" lon="-6.0862920">
        <ele>489.8</ele>
        <time>2019-09-04T09:25:03Z</time>
      </trkpt>
      <trkpt lat="43.1465010" lon="-6.0862240">
        <ele>489.8</ele>
        <time>2019-09-04T09:25:05Z</time>
      </trkpt>
      <trkpt lat="43.1464550" lon="-6.0861910">
        <ele>489.8</ele>
        <time>2019-09-04T09:25:06Z</time>
      </trkpt>
      <trkpt lat="43.1464090" lon="-6.0861580">
        <ele>489.8</ele>
        <time>2019-09-04T09:25:07Z</time>
      </trkpt>
      <trkpt lat="43.1463630" lon="-6.0861290">
        <ele>489.8</ele>
        <time>2019-09-04T09:25:08Z</time>
      </trkpt>
      <trkpt lat="43.1462660" lon="-6.0860650">
        <ele>489.8</ele>
        <time>2019-09-04T09:25:10Z</time>
      </trkpt>
      <trkpt lat="43.1462200" lon="-6.0860350">
        <ele>489.8</ele>
        <time>2019-09-04T09:25:11Z</time>
      </trkpt>
      <trkpt lat="43.1461680" lon="-6.0860080">
        <ele>489.8</ele>
        <time>2019-09-04T09:25:12Z</time>
      </trkpt>
      <trkpt lat="43.1461220" lon="-6.0859840">
        <ele>489.8</ele>
        <time>2019-09-04T09:25:13Z</time>
      </trkpt>
      <trkpt lat="43.1459690" lon="-6.0859120">
        <ele>491.8</ele>
        <time>2019-09-04T09:25:16Z</time>
      </trkpt>
      <trkpt lat="43.1459170" lon="-6.0858900">
        <ele>491.8</ele>
        <time>2019-09-04T09:25:17Z</time>
      </trkpt>
      <trkpt lat="43.1458150" lon="-6.0858480">
        <ele>491.8</ele>
        <time>2019-09-04T09:25:19Z</time>
      </trkpt>
      <trkpt lat="43.1457690" lon="-6.0858270">
        <ele>491.8</ele>
        <time>2019-09-04T09:25:20Z</time>
      </trkpt>
      <trkpt lat="43.1456670" lon="-6.0857860">
        <ele>491.8</ele>
        <time>2019-09-04T09:25:22Z</time>
      </trkpt>
      <trkpt lat="43.1455590" lon="-6.0857430">
        <ele>491.8</ele>
        <time>2019-09-04T09:25:24Z</time>
      </trkpt>
      <trkpt lat="43.1454570" lon="-6.0856990">
        <ele>491.8</ele>
        <time>2019-09-04T09:25:26Z</time>
      </trkpt>
      <trkpt lat="43.1454110" lon="-6.0856770">
        <ele>491.8</ele>
        <time>2019-09-04T09:25:27Z</time>
      </trkpt>
      <trkpt lat="43.1453080" lon="-6.0856300">
        <ele>491.8</ele>
        <time>2019-09-04T09:25:29Z</time>
      </trkpt>
      <trkpt lat="43.1452110" lon="-6.0855720">
        <ele>491.8</ele>
        <time>2019-09-04T09:25:31Z</time>
      </trkpt>
      <trkpt lat="43.1451240" lon="-6.0854980">
        <ele>493.8</ele>
        <time>2019-09-04T09:25:33Z</time>
      </trkpt>
      <trkpt lat="43.1450470" lon="-6.0854070">
        <ele>493.8</ele>
        <time>2019-09-04T09:25:35Z</time>
      </trkpt>
      <trkpt lat="43.1450060" lon="-6.0853570">
        <ele>493.8</ele>
        <time>2019-09-04T09:25:36Z</time>
      </trkpt>
      <trkpt lat="43.1449400" lon="-6.0852560">
        <ele>493.8</ele>
        <time>2019-09-04T09:25:38Z</time>
      </trkpt>
      <trkpt lat="43.1448730" lon="-6.0851490">
        <ele>493.8</ele>
        <time>2019-09-04T09:25:40Z</time>
      </trkpt>
      <trkpt lat="43.1448010" lon="-6.0850510">
        <ele>493.8</ele>
        <time>2019-09-04T09:25:42Z</time>
      </trkpt>
      <trkpt lat="43.1447240" lon="-6.0849590">
        <ele>493.8</ele>
        <time>2019-09-04T09:25:44Z</time>
      </trkpt>
      <trkpt lat="43.1446890" lon="-6.0849190">
        <ele>493.8</ele>
        <time>2019-09-04T09:25:45Z</time>
      </trkpt>
      <trkpt lat="43.1445610" lon="-6.0848230">
        <ele>493.8</ele>
        <time>2019-09-04T09:25:48Z</time>
      </trkpt>
      <trkpt lat="43.1444740" lon="-6.0847730">
        <ele>493.8</ele>
        <time>2019-09-04T09:25:50Z</time>
      </trkpt>
      <trkpt lat="43.1444280" lon="-6.0847500">
        <ele>496.7</ele>
        <time>2019-09-04T09:25:51Z</time>
      </trkpt>
      <trkpt lat="43.1443350" lon="-6.0847030">
        <ele>496.7</ele>
        <time>2019-09-04T09:25:53Z</time>
      </trkpt>
      <trkpt lat="43.1442380" lon="-6.0846680">
        <ele>496.7</ele>
        <time>2019-09-04T09:25:55Z</time>
      </trkpt>
      <trkpt lat="43.1441410" lon="-6.0846370">
        <ele>496.7</ele>
        <time>2019-09-04T09:25:57Z</time>
      </trkpt>
      <trkpt lat="43.1440490" lon="-6.0846150">
        <ele>496.7</ele>
        <time>2019-09-04T09:25:59Z</time>
      </trkpt>
      <trkpt lat="43.1439510" lon="-6.0845980">
        <ele>496.7</ele>
        <time>2019-09-04T09:26:01Z</time>
      </trkpt>
      <trkpt lat="43.1438590" lon="-6.0845920">
        <ele>496.7</ele>
        <time>2019-09-04T09:26:03Z</time>
      </trkpt>
      <trkpt lat="43.1437160" lon="-6.0846020">
        <ele>496.7</ele>
        <time>2019-09-04T09:26:06Z</time>
      </trkpt>
      <trkpt lat="43.1436130" lon="-6.0846150">
        <ele>498.9</ele>
        <time>2019-09-04T09:26:08Z</time>
      </trkpt>
      <trkpt lat="43.1435260" lon="-6.0846310">
        <ele>498.9</ele>
        <time>2019-09-04T09:26:10Z</time>
      </trkpt>
      <trkpt lat="43.1434340" lon="-6.0846440">
        <ele>498.9</ele>
        <time>2019-09-04T09:26:12Z</time>
      </trkpt>
      <trkpt lat="43.1433420" lon="-6.0846570">
        <ele>498.9</ele>
        <time>2019-09-04T09:26:14Z</time>
      </trkpt>
      <trkpt lat="43.1432500" lon="-6.0846680">
        <ele>498.9</ele>
        <time>2019-09-04T09:26:16Z</time>
      </trkpt>
      <trkpt lat="43.1431070" lon="-6.0846790">
        <ele>498.9</ele>
        <time>2019-09-04T09:26:19Z</time>
      </trkpt>
      <trkpt lat="43.1430090" lon="-6.0846820">
        <ele>498.9</ele>
        <time>2019-09-04T09:26:21Z</time>
      </trkpt>
      <trkpt lat="43.1429120" lon="-6.0846800">
        <ele>501.1</ele>
        <time>2019-09-04T09:26:23Z</time>
      </trkpt>
      <trkpt lat="43.1428200" lon="-6.0846710">
        <ele>501.1</ele>
        <time>2019-09-04T09:26:25Z</time>
      </trkpt>
      <trkpt lat="43.1427330" lon="-6.0846520">
        <ele>501.1</ele>
        <time>2019-09-04T09:26:27Z</time>
      </trkpt>
      <trkpt lat="43.1426410" lon="-6.0846200">
        <ele>501.1</ele>
        <time>2019-09-04T09:26:29Z</time>
      </trkpt>
      <trkpt lat="43.1425590" lon="-6.0845770">
        <ele>501.1</ele>
        <time>2019-09-04T09:26:31Z</time>
      </trkpt>
      <trkpt lat="43.1424870" lon="-6.0845200">
        <ele>501.1</ele>
        <time>2019-09-04T09:26:33Z</time>
      </trkpt>
      <trkpt lat="43.1423900" lon="-6.0843990">
        <ele>501.1</ele>
        <time>2019-09-04T09:26:36Z</time>
      </trkpt>
      <trkpt lat="43.1423440" lon="-6.0843040">
        <ele>501.1</ele>
        <time>2019-09-04T09:26:38Z</time>
      </trkpt>
      <trkpt lat="43.1423030" lon="-6.0842020">
        <ele>503.2</ele>
        <time>2019-09-04T09:26:40Z</time>
      </trkpt>
      <trkpt lat="43.1422670" lon="-6.0840970">
        <ele>503.2</ele>
        <time>2019-09-04T09:26:42Z</time>
      </trkpt>
      <trkpt lat="43.1422360" lon="-6.0839870">
        <ele>503.2</ele>
        <time>2019-09-04T09:26:44Z</time>
      </trkpt>
      <trkpt lat="43.1422050" lon="-6.0838780">
        <ele>503.2</ele>
        <time>2019-09-04T09:26:46Z</time>
      </trkpt>
      <trkpt lat="43.1421640" lon="-6.0837730">
        <ele>503.2</ele>
        <time>2019-09-04T09:26:48Z</time>
      </trkpt>
      <trkpt lat="43.1421290" lon="-6.0836810">
        <ele>503.2</ele>
        <time>2019-09-04T09:26:50Z</time>
      </trkpt>
      <trkpt lat="43.1420720" lon="-6.0835950">
        <ele>503.2</ele>
        <time>2019-09-04T09:26:52Z</time>
      </trkpt>
      <trkpt lat="43.1420110" lon="-6.0835260">
        <ele>503.2</ele>
        <time>2019-09-04T09:26:54Z</time>
      </trkpt>
      <trkpt lat="43.1419390" lon="-6.0834760">
        <ele>503.2</ele>
        <time>2019-09-04T09:26:56Z</time>
      </trkpt>
      <trkpt lat="43.1418370" lon="-6.0834140">
        <ele>505.2</ele>
        <time>2019-09-04T09:26:59Z</time>
      </trkpt>
      <trkpt lat="43.1417600" lon="-6.0833780">
        <ele>505.2</ele>
        <time>2019-09-04T09:27:01Z</time>
      </trkpt>
      <trkpt lat="43.1416930" lon="-6.0833480">
        <ele>505.2</ele>
        <time>2019-09-04T09:27:03Z</time>
      </trkpt>
      <trkpt lat="43.1416220" lon="-6.0833130">
        <ele>505.2</ele>
        <time>2019-09-04T09:27:05Z</time>
      </trkpt>
      <trkpt lat="43.1415190" lon="-6.0832290">
        <ele>505.2</ele>
        <time>2019-09-04T09:27:08Z</time>
      </trkpt>
      <trkpt lat="43.1414220" lon="-6.0831070">
        <ele>507.3</ele>
        <time>2019-09-04T09:27:11Z</time>
      </trkpt>
      <trkpt lat="43.1413710" lon="-6.0830120">
        <ele>507.3</ele>
        <time>2019-09-04T09:27:13Z</time>
      </trkpt>
      <trkpt lat="43.1413300" lon="-6.0829070">
        <ele>507.3</ele>
        <time>2019-09-04T09:27:15Z</time>
      </trkpt>
      <trkpt lat="43.1412940" lon="-6.0828010">
        <ele>507.3</ele>
        <time>2019-09-04T09:27:17Z</time>
      </trkpt>
      <trkpt lat="43.1412630" lon="-6.0826850">
        <ele>507.3</ele>
        <time>2019-09-04T09:27:19Z</time>
      </trkpt>
      <trkpt lat="43.1412380" lon="-6.0825760">
        <ele>507.3</ele>
        <time>2019-09-04T09:27:21Z</time>
      </trkpt>
      <trkpt lat="43.1412120" lon="-6.0824590">
        <ele>507.3</ele>
        <time>2019-09-04T09:27:23Z</time>
      </trkpt>
      <trkpt lat="43.1411810" lon="-6.0823460">
        <ele>507.3</ele>
        <time>2019-09-04T09:27:25Z</time>
      </trkpt>
      <trkpt lat="43.1411560" lon="-6.0822320">
        <ele>509.9</ele>
        <time>2019-09-04T09:27:27Z</time>
      </trkpt>
      <trkpt lat="43.1411300" lon="-6.0821200">
        <ele>509.9</ele>
        <time>2019-09-04T09:27:29Z</time>
      </trkpt>
      <trkpt lat="43.1411000" lon="-6.0820130">
        <ele>509.9</ele>
        <time>2019-09-04T09:27:31Z</time>
      </trkpt>
      <trkpt lat="43.1410380" lon="-6.0818700">
        <ele>509.9</ele>
        <time>2019-09-04T09:27:34Z</time>
      </trkpt>
      <trkpt lat="43.1409460" lon="-6.0817590">
        <ele>509.9</ele>
        <time>2019-09-04T09:27:37Z</time>
      </trkpt>
      <trkpt lat="43.1408740" lon="-6.0816940">
        <ele>509.9</ele>
        <time>2019-09-04T09:27:39Z</time>
      </trkpt>
      <trkpt lat="43.1408080" lon="-6.0816370">
        <ele>509.9</ele>
        <time>2019-09-04T09:27:41Z</time>
      </trkpt>
      <trkpt lat="43.1407410" lon="-6.0815830">
        <ele>512.4</ele>
        <time>2019-09-04T09:27:43Z</time>
      </trkpt>
      <trkpt lat="43.1406590" lon="-6.0815270">
        <ele>512.4</ele>
        <time>2019-09-04T09:27:45Z</time>
      </trkpt>
      <trkpt lat="43.1405470" lon="-6.0814550">
        <ele>512.4</ele>
        <time>2019-09-04T09:27:48Z</time>
      </trkpt>
      <trkpt lat="43.1404650" lon="-6.0814090">
        <ele>512.4</ele>
        <time>2019-09-04T09:27:50Z</time>
      </trkpt>
      <trkpt lat="43.1403880" lon="-6.0813700">
        <ele>512.4</ele>
        <time>2019-09-04T09:27:52Z</time>
      </trkpt>
      <trkpt lat="43.1403060" lon="-6.0813290">
        <ele>512.4</ele>
        <time>2019-09-04T09:27:54Z</time>
      </trkpt>
      <trkpt lat="43.1402340" lon="-6.0812820">
        <ele>512.4</ele>
        <time>2019-09-04T09:27:56Z</time>
      </trkpt>
      <trkpt lat="43.1401730" lon="-6.0812210">
        <ele>512.4</ele>
        <time>2019-09-04T09:27:58Z</time>
      </trkpt>
      <trkpt lat="43.1401160" lon="-6.0811430">
        <ele>514.8</ele>
        <time>2019-09-04T09:28:00Z</time>
      </trkpt>
      <trkpt lat="43.1400760" lon="-6.0810520">
        <ele>514.8</ele>
        <time>2019-09-04T09:28:02Z</time>
      </trkpt>
      <trkpt lat="43.1400240" lon="-6.0808970">
        <ele>514.8</ele>
        <time>2019-09-04T09:28:05Z</time>
      </trkpt>
      <trkpt lat="43.1399940" lon="-6.0807850">
        <ele>514.8</ele>
        <time>2019-09-04T09:28:07Z</time>
      </trkpt>
      <trkpt lat="43.1399420" lon="-6.0806050">
        <ele>514.8</ele>
        <time>2019-09-04T09:28:10Z</time>
      </trkpt>
      <trkpt lat="43.1399170" lon="-6.0804930">
        <ele>514.8</ele>
        <time>2019-09-04T09:28:12Z</time>
      </trkpt>
      <trkpt lat="43.1398810" lon="-6.0803760">
        <ele>514.8</ele>
        <time>2019-09-04T09:28:14Z</time>
      </trkpt>
      <trkpt lat="43.1398500" lon="-6.0802640">
        <ele>517.1</ele>
        <time>2019-09-04T09:28:16Z</time>
      </trkpt>
      <trkpt lat="43.1398090" lon="-6.0801640">
        <ele>517.1</ele>
        <time>2019-09-04T09:28:18Z</time>
      </trkpt>
      <trkpt lat="43.1397580" lon="-6.0800680">
        <ele>517.1</ele>
        <time>2019-09-04T09:28:20Z</time>
      </trkpt>
      <trkpt lat="43.1397020" lon="-6.0799930">
        <ele>517.1</ele>
        <time>2019-09-04T09:28:22Z</time>
      </trkpt>
      <trkpt lat="43.1395990" lon="-6.0799030">
        <ele>517.1</ele>
        <time>2019-09-04T09:28:25Z</time>
      </trkpt>
      <trkpt lat="43.1394870" lon="-6.0798320">
        <ele>517.1</ele>
        <time>2019-09-04T09:28:28Z</time>
      </trkpt>
      <trkpt lat="43.1394100" lon="-6.0797900">
        <ele>517.1</ele>
        <time>2019-09-04T09:28:30Z</time>
      </trkpt>
      <trkpt lat="43.1393330" lon="-6.0797480">
        <ele>519.6</ele>
        <time>2019-09-04T09:28:32Z</time>
      </trkpt>
      <trkpt lat="43.1392560" lon="-6.0796980">
        <ele>519.6</ele>
        <time>2019-09-04T09:28:34Z</time>
      </trkpt>
      <trkpt lat="43.1391850" lon="-6.0796420">
        <ele>519.6</ele>
        <time>2019-09-04T09:28:36Z</time>
      </trkpt>
      <trkpt lat="43.1391130" lon="-6.0795740">
        <ele>519.6</ele>
        <time>2019-09-04T09:28:38Z</time>
      </trkpt>
      <trkpt lat="43.1390520" lon="-6.0794940">
        <ele>519.6</ele>
        <time>2019-09-04T09:28:40Z</time>
      </trkpt>
      <trkpt lat="43.1390000" lon="-6.0794140">
        <ele>519.6</ele>
        <time>2019-09-04T09:28:42Z</time>
      </trkpt>
      <trkpt lat="43.1389490" lon="-6.0793180">
        <ele>519.6</ele>
        <time>2019-09-04T09:28:44Z</time>
      </trkpt>
      <trkpt lat="43.1389130" lon="-6.0792100">
        <ele>519.6</ele>
        <time>2019-09-04T09:28:46Z</time>
      </trkpt>
      <trkpt lat="43.1388930" lon="-6.0790910">
        <ele>522.0</ele>
        <time>2019-09-04T09:28:48Z</time>
      </trkpt>
      <trkpt lat="43.1388980" lon="-6.0789640">
        <ele>522.0</ele>
        <time>2019-09-04T09:28:50Z</time>
      </trkpt>
      <trkpt lat="43.1389130" lon="-6.0788410">
        <ele>522.0</ele>
        <time>2019-09-04T09:28:52Z</time>
      </trkpt>
      <trkpt lat="43.1389240" lon="-6.0787790">
        <ele>522.0</ele>
        <time>2019-09-04T09:28:53Z</time>
      </trkpt>
      <trkpt lat="43.1389440" lon="-6.0786500">
        <ele>522.0</ele>
        <time>2019-09-04T09:28:55Z</time>
      </trkpt>
      <trkpt lat="43.1389750" lon="-6.0785240">
        <ele>522.0</ele>
        <time>2019-09-04T09:28:57Z</time>
      </trkpt>
      <trkpt lat="43.1389950" lon="-6.0783970">
        <ele>522.0</ele>
        <time>2019-09-04T09:28:59Z</time>
      </trkpt>
      <trkpt lat="43.1390210" lon="-6.0782690">
        <ele>522.0</ele>
        <time>2019-09-04T09:29:01Z</time>
      </trkpt>
      <trkpt lat="43.1390310" lon="-6.0782070">
        <ele>522.0</ele>
        <time>2019-09-04T09:29:02Z</time>
      </trkpt>
      <trkpt lat="43.1390520" lon="-6.0780820">
        <ele>524.5</ele>
        <time>2019-09-04T09:29:04Z</time>
      </trkpt>
      <trkpt lat="43.1390720" lon="-6.0779010">
        <ele>524.5</ele>
        <time>2019-09-04T09:29:07Z</time>
      </trkpt>
      <trkpt lat="43.1390920" lon="-6.0777790">
        <ele>524.5</ele>
        <time>2019-09-04T09:29:09Z</time>
      </trkpt>
      <trkpt lat="43.1391030" lon="-6.0776590">
        <ele>524.5</ele>
        <time>2019-09-04T09:29:11Z</time>
      </trkpt>
      <trkpt lat="43.1391080" lon="-6.0775390">
        <ele>524.5</ele>
        <time>2019-09-04T09:29:13Z</time>
      </trkpt>
      <trkpt lat="43.1390980" lon="-6.0774120">
        <ele>524.5</ele>
        <time>2019-09-04T09:29:15Z</time>
      </trkpt>
      <trkpt lat="43.1390870" lon="-6.0772940">
        <ele>524.5</ele>
        <time>2019-09-04T09:29:17Z</time>
      </trkpt>
      <trkpt lat="43.1390670" lon="-6.0771780">
        <ele>527.2</ele>
        <time>2019-09-04T09:29:19Z</time>
      </trkpt>
      <trkpt lat="43.1390410" lon="-6.0770530">
        <ele>527.2</ele>
        <time>2019-09-04T09:29:21Z</time>
      </trkpt>
      <trkpt lat="43.1390160" lon="-6.0769380">
        <ele>527.2</ele>
        <time>2019-09-04T09:29:23Z</time>
      </trkpt>
      <trkpt lat="43.1389900" lon="-6.0768170">
        <ele>527.2</ele>
        <time>2019-09-04T09:29:25Z</time>
      </trkpt>
      <trkpt lat="43.1389590" lon="-6.0767030">
        <ele>527.2</ele>
        <time>2019-09-04T09:29:27Z</time>
      </trkpt>
      <trkpt lat="43.1389290" lon="-6.0765910">
        <ele>527.2</ele>
        <time>2019-09-04T09:29:29Z</time>
      </trkpt>
      <trkpt lat="43.1388980" lon="-6.0764790">
        <ele>527.2</ele>
        <time>2019-09-04T09:29:31Z</time>
      </trkpt>
      <trkpt lat="43.1388570" lon="-6.0763700">
        <ele>527.2</ele>
        <time>2019-09-04T09:29:33Z</time>
      </trkpt>
      <trkpt lat="43.1388210" lon="-6.0762600">
        <ele>529.6</ele>
        <time>2019-09-04T09:29:35Z</time>
      </trkpt>
      <trkpt lat="43.1387800" lon="-6.0761520">
        <ele>529.6</ele>
        <time>2019-09-04T09:29:37Z</time>
      </trkpt>
      <trkpt lat="43.1387240" lon="-6.0759940">
        <ele>529.6</ele>
        <time>2019-09-04T09:29:40Z</time>
      </trkpt>
      <trkpt lat="43.1386780" lon="-6.0758910">
        <ele>529.6</ele>
        <time>2019-09-04T09:29:42Z</time>
      </trkpt>
      <trkpt lat="43.1386370" lon="-6.0757860">
        <ele>529.6</ele>
        <time>2019-09-04T09:29:44Z</time>
      </trkpt>
      <trkpt lat="43.1386010" lon="-6.0756800">
        <ele>529.6</ele>
        <time>2019-09-04T09:29:46Z</time>
      </trkpt>
      <trkpt lat="43.1385600" lon="-6.0755850">
        <ele>529.6</ele>
        <time>2019-09-04T09:29:48Z</time>
      </trkpt>
      <trkpt lat="43.1385190" lon="-6.0754810">
        <ele>529.6</ele>
        <time>2019-09-04T09:29:50Z</time>
      </trkpt>
      <trkpt lat="43.1384830" lon="-6.0753890">
        <ele>532.2</ele>
        <time>2019-09-04T09:29:52Z</time>
      </trkpt>
      <trkpt lat="43.1384320" lon="-6.0753020">
        <ele>532.2</ele>
        <time>2019-09-04T09:29:54Z</time>
      </trkpt>
      <trkpt lat="43.1383760" lon="-6.0752250">
        <ele>532.2</ele>
        <time>2019-09-04T09:29:56Z</time>
      </trkpt>
      <trkpt lat="43.1383140" lon="-6.0751670">
        <ele>532.2</ele>
        <time>2019-09-04T09:29:58Z</time>
      </trkpt>
      <trkpt lat="43.1382430" lon="-6.0751250">
        <ele>532.2</ele>
        <time>2019-09-04T09:30:00Z</time>
      </trkpt>
      <trkpt lat="43.1381710" lon="-6.0750940">
        <ele>532.2</ele>
        <time>2019-09-04T09:30:02Z</time>
      </trkpt>
      <trkpt lat="43.1380940" lon="-6.0750700">
        <ele>532.2</ele>
        <time>2019-09-04T09:30:04Z</time>
      </trkpt>
      <trkpt lat="43.1379760" lon="-6.0750390">
        <ele>534.9</ele>
        <time>2019-09-04T09:30:07Z</time>
      </trkpt>
      <trkpt lat="43.1378940" lon="-6.0750170">
        <ele>534.9</ele>
        <time>2019-09-04T09:30:09Z</time>
      </trkpt>
      <trkpt lat="43.1378120" lon="-6.0749950">
        <ele>534.9</ele>
        <time>2019-09-04T09:30:11Z</time>
      </trkpt>
      <trkpt lat="43.1377360" lon="-6.0749730">
        <ele>534.9</ele>
        <time>2019-09-04T09:30:13Z</time>
      </trkpt>
      <trkpt lat="43.1376230" lon="-6.0749410">
        <ele>534.9</ele>
        <time>2019-09-04T09:30:16Z</time>
      </trkpt>
      <trkpt lat="43.1375510" lon="-6.0749180">
        <ele>534.9</ele>
        <time>2019-09-04T09:30:18Z</time>
      </trkpt>
      <trkpt lat="43.1374750" lon="-6.0748960">
        <ele>534.9</ele>
        <time>2019-09-04T09:30:20Z</time>
      </trkpt>
      <trkpt lat="43.1373620" lon="-6.0748650">
        <ele>537.6</ele>
        <time>2019-09-04T09:30:23Z</time>
      </trkpt>
      <trkpt lat="43.1372850" lon="-6.0748420">
        <ele>537.6</ele>
        <time>2019-09-04T09:30:25Z</time>
      </trkpt>
      <trkpt lat="43.1372190" lon="-6.0748150">
        <ele>537.6</ele>
        <time>2019-09-04T09:30:27Z</time>
      </trkpt>
      <trkpt lat="43.1371420" lon="-6.0747850">
        <ele>537.6</ele>
        <time>2019-09-04T09:30:29Z</time>
      </trkpt>
      <trkpt lat="43.1370700" lon="-6.0747530">
        <ele>537.6</ele>
        <time>2019-09-04T09:30:31Z</time>
      </trkpt>
      <trkpt lat="43.1369930" lon="-6.0747170">
        <ele>537.6</ele>
        <time>2019-09-04T09:30:33Z</time>
      </trkpt>
      <trkpt lat="43.1369160" lon="-6.0746780">
        <ele>537.6</ele>
        <time>2019-09-04T09:30:35Z</time>
      </trkpt>
      <trkpt lat="43.1368090" lon="-6.0746210">
        <ele>537.6</ele>
        <time>2019-09-04T09:30:38Z</time>
      </trkpt>
      <trkpt lat="43.1367320" lon="-6.0745820">
        <ele>540.5</ele>
        <time>2019-09-04T09:30:40Z</time>
      </trkpt>
      <trkpt lat="43.1366600" lon="-6.0745470">
        <ele>540.5</ele>
        <time>2019-09-04T09:30:42Z</time>
      </trkpt>
      <trkpt lat="43.1365890" lon="-6.0745110">
        <ele>540.5</ele>
        <time>2019-09-04T09:30:44Z</time>
      </trkpt>
      <trkpt lat="43.1365220" lon="-6.0744740">
        <ele>540.5</ele>
        <time>2019-09-04T09:30:46Z</time>
      </trkpt>
      <trkpt lat="43.1364200" lon="-6.0744120">
        <ele>540.5</ele>
        <time>2019-09-04T09:30:49Z</time>
      </trkpt>
      <trkpt lat="43.1363120" lon="-6.0743550">
        <ele>540.5</ele>
        <time>2019-09-04T09:30:52Z</time>
      </trkpt>
      <trkpt lat="43.1362460" lon="-6.0743140">
        <ele>540.5</ele>
        <time>2019-09-04T09:30:54Z</time>
      </trkpt>
      <trkpt lat="43.1361480" lon="-6.0742510">
        <ele>543.4</ele>
        <time>2019-09-04T09:30:57Z</time>
      </trkpt>
      <trkpt lat="43.1360720" lon="-6.0742040">
        <ele>543.4</ele>
        <time>2019-09-04T09:30:59Z</time>
      </trkpt>
      <trkpt lat="43.1360150" lon="-6.0741580">
        <ele>543.4</ele>
        <time>2019-09-04T09:31:01Z</time>
      </trkpt>
      <trkpt lat="43.1359390" lon="-6.0741060">
        <ele>543.4</ele>
        <time>2019-09-04T09:31:03Z</time>
      </trkpt>
      <trkpt lat="43.1358720" lon="-6.0740640">
        <ele>543.4</ele>
        <time>2019-09-04T09:31:05Z</time>
      </trkpt>
      <trkpt lat="43.1358000" lon="-6.0740430">
        <ele>543.4</ele>
        <time>2019-09-04T09:31:07Z</time>
      </trkpt>
      <trkpt lat="43.1357240" lon="-6.0740380">
        <ele>543.4</ele>
        <time>2019-09-04T09:31:09Z</time>
      </trkpt>
      <trkpt lat="43.1356420" lon="-6.0740440">
        <ele>546.3</ele>
        <time>2019-09-04T09:31:11Z</time>
      </trkpt>
      <trkpt lat="43.1355600" lon="-6.0740580">
        <ele>546.3</ele>
        <time>2019-09-04T09:31:13Z</time>
      </trkpt>
      <trkpt lat="43.1354680" lon="-6.0740700">
        <ele>546.3</ele>
        <time>2019-09-04T09:31:15Z</time>
      </trkpt>
      <trkpt lat="43.1353700" lon="-6.0740760">
        <ele>546.3</ele>
        <time>2019-09-04T09:31:17Z</time>
      </trkpt>
      <trkpt lat="43.1352680" lon="-6.0740740">
        <ele>546.3</ele>
        <time>2019-09-04T09:31:19Z</time>
      </trkpt>
      <trkpt lat="43.1351650" lon="-6.0740680">
        <ele>546.3</ele>
        <time>2019-09-04T09:31:21Z</time>
      </trkpt>
      <trkpt lat="43.1351140" lon="-6.0740650">
        <ele>546.3</ele>
        <time>2019-09-04T09:31:22Z</time>
      </trkpt>
      <trkpt lat="43.1350070" lon="-6.0740570">
        <ele>546.3</ele>
        <time>2019-09-04T09:31:24Z</time>
      </trkpt>
      <trkpt lat="43.1348940" lon="-6.0740470">
        <ele>546.3</ele>
        <time>2019-09-04T09:31:26Z</time>
      </trkpt>
      <trkpt lat="43.1348380" lon="-6.0740390">
        <ele>548.9</ele>
        <time>2019-09-04T09:31:27Z</time>
      </trkpt>
      <trkpt lat="43.1347250" lon="-6.0740200">
        <ele>548.9</ele>
        <time>2019-09-04T09:31:29Z</time>
      </trkpt>
      <trkpt lat="43.1346790" lon="-6.0740120">
        <ele>548.9</ele>
        <time>2019-09-04T09:31:30Z</time>
      </trkpt>
      <trkpt lat="43.1345660" lon="-6.0739920">
        <ele>548.9</ele>
        <time>2019-09-04T09:31:32Z</time>
      </trkpt>
      <trkpt lat="43.1345150" lon="-6.0739820">
        <ele>548.9</ele>
        <time>2019-09-04T09:31:33Z</time>
      </trkpt>
      <trkpt lat="43.1344030" lon="-6.0739620">
        <ele>548.9</ele>
        <time>2019-09-04T09:31:35Z</time>
      </trkpt>
      <trkpt lat="43.1343510" lon="-6.0739560">
        <ele>548.9</ele>
        <time>2019-09-04T09:31:36Z</time>
      </trkpt>
      <trkpt lat="43.1342490" lon="-6.0739580">
        <ele>548.9</ele>
        <time>2019-09-04T09:31:38Z</time>
      </trkpt>
      <trkpt lat="43.1341570" lon="-6.0739870">
        <ele>548.9</ele>
        <time>2019-09-04T09:31:40Z</time>
      </trkpt>
      <trkpt lat="43.1340800" lon="-6.0740380">
        <ele>548.9</ele>
        <time>2019-09-04T09:31:42Z</time>
      </trkpt>
      <trkpt lat="43.1340080" lon="-6.0741000">
        <ele>551.5</ele>
        <time>2019-09-04T09:31:44Z</time>
      </trkpt>
      <trkpt lat="43.1339370" lon="-6.0741640">
        <ele>551.5</ele>
        <time>2019-09-04T09:31:46Z</time>
      </trkpt>
      <trkpt lat="43.1338700" lon="-6.0742300">
        <ele>551.5</ele>
        <time>2019-09-04T09:31:48Z</time>
      </trkpt>
      <trkpt lat="43.1338040" lon="-6.0742940">
        <ele>551.5</ele>
        <time>2019-09-04T09:31:50Z</time>
      </trkpt>
      <trkpt lat="43.1337420" lon="-6.0743590">
        <ele>551.5</ele>
        <time>2019-09-04T09:31:52Z</time>
      </trkpt>
      <trkpt lat="43.1336810" lon="-6.0744240">
        <ele>551.5</ele>
        <time>2019-09-04T09:31:54Z</time>
      </trkpt>
      <trkpt lat="43.1336140" lon="-6.0744770">
        <ele>551.5</ele>
        <time>2019-09-04T09:31:56Z</time>
      </trkpt>
      <trkpt lat="43.1335420" lon="-6.0745180">
        <ele>551.5</ele>
        <time>2019-09-04T09:31:58Z</time>
      </trkpt>
      <trkpt lat="43.1334710" lon="-6.0745460">
        <ele>554.3</ele>
        <time>2019-09-04T09:32:00Z</time>
      </trkpt>
      <trkpt lat="43.1333530" lon="-6.0745530">
        <ele>554.3</ele>
        <time>2019-09-04T09:32:03Z</time>
      </trkpt>
      <trkpt lat="43.1332810" lon="-6.0745320">
        <ele>554.3</ele>
        <time>2019-09-04T09:32:05Z</time>
      </trkpt>
      <trkpt lat="43.1332100" lon="-6.0744980">
        <ele>554.3</ele>
        <time>2019-09-04T09:32:07Z</time>
      </trkpt>
      <trkpt lat="43.1331380" lon="-6.0744560">
        <ele>554.3</ele>
        <time>2019-09-04T09:32:09Z</time>
      </trkpt>
      <trkpt lat="43.1330660" lon="-6.0744130">
        <ele>554.3</ele>
        <time>2019-09-04T09:32:11Z</time>
      </trkpt>
      <trkpt lat="43.1329640" lon="-6.0743440">
        <ele>554.3</ele>
        <time>2019-09-04T09:32:14Z</time>
      </trkpt>
      <trkpt lat="43.1328560" lon="-6.0742850">
        <ele>557.2</ele>
        <time>2019-09-04T09:32:17Z</time>
      </trkpt>
      <trkpt lat="43.1327900" lon="-6.0742580">
        <ele>557.2</ele>
        <time>2019-09-04T09:32:19Z</time>
      </trkpt>
      <trkpt lat="43.1327180" lon="-6.0742400">
        <ele>557.2</ele>
        <time>2019-09-04T09:32:21Z</time>
      </trkpt>
      <trkpt lat="43.1326410" lon="-6.0742250">
        <ele>569.7</ele>
        <time>2019-09-04T09:32:23Z</time>
      </trkpt>
      <trkpt lat="43.1325700" lon="-6.0742120">
        <ele>569.7</ele>
        <time>2019-09-04T09:32:25Z</time>
      </trkpt>
      <trkpt lat="43.1324930" lon="-6.0741990">
        <ele>569.7</ele>
        <time>2019-09-04T09:32:27Z</time>
      </trkpt>
      <trkpt lat="43.1324210" lon="-6.0741860">
        <ele>569.7</ele>
        <time>2019-09-04T09:32:29Z</time>
      </trkpt>
      <trkpt lat="43.1323490" lon="-6.0741760">
        <ele>572.7</ele>
        <time>2019-09-04T09:32:31Z</time>
      </trkpt>
      <trkpt lat="43.1322420" lon="-6.0741700">
        <ele>572.7</ele>
        <time>2019-09-04T09:32:34Z</time>
      </trkpt>
      <trkpt lat="43.1321700" lon="-6.0741690">
        <ele>572.7</ele>
        <time>2019-09-04T09:32:36Z</time>
      </trkpt>
      <trkpt lat="43.1320990" lon="-6.0741720">
        <ele>572.7</ele>
        <time>2019-09-04T09:32:38Z</time>
      </trkpt>
      <trkpt lat="43.1320320" lon="-6.0741790">
        <ele>572.7</ele>
        <time>2019-09-04T09:32:40Z</time>
      </trkpt>
      <trkpt lat="43.1319600" lon="-6.0741860">
        <ele>572.7</ele>
        <time>2019-09-04T09:32:42Z</time>
      </trkpt>
      <trkpt lat="43.1318940" lon="-6.0741890">
        <ele>572.7</ele>
        <time>2019-09-04T09:32:44Z</time>
      </trkpt>
      <trkpt lat="43.1318220" lon="-6.0741840">
        <ele>572.7</ele>
        <time>2019-09-04T09:32:46Z</time>
      </trkpt>
      <trkpt lat="43.1317560" lon="-6.0741630">
        <ele>575.5</ele>
        <time>2019-09-04T09:32:48Z</time>
      </trkpt>
      <trkpt lat="43.1316940" lon="-6.0741260">
        <ele>575.5</ele>
        <time>2019-09-04T09:32:50Z</time>
      </trkpt>
      <trkpt lat="43.1316380" lon="-6.0740740">
        <ele>575.5</ele>
        <time>2019-09-04T09:32:52Z</time>
      </trkpt>
      <trkpt lat="43.1315870" lon="-6.0740100">
        <ele>575.5</ele>
        <time>2019-09-04T09:32:54Z</time>
      </trkpt>
      <trkpt lat="43.1315400" lon="-6.0739350">
        <ele>575.5</ele>
        <time>2019-09-04T09:32:56Z</time>
      </trkpt>
      <trkpt lat="43.1315000" lon="-6.0738560">
        <ele>575.5</ele>
        <time>2019-09-04T09:32:58Z</time>
      </trkpt>
      <trkpt lat="43.1314590" lon="-6.0737800">
        <ele>575.5</ele>
        <time>2019-09-04T09:33:00Z</time>
      </trkpt>
      <trkpt lat="43.1314120" lon="-6.0737120">
        <ele>575.5</ele>
        <time>2019-09-04T09:33:02Z</time>
      </trkpt>
      <trkpt lat="43.1313610" lon="-6.0736510">
        <ele>578.8</ele>
        <time>2019-09-04T09:33:04Z</time>
      </trkpt>
      <trkpt lat="43.1313000" lon="-6.0736040">
        <ele>578.8</ele>
        <time>2019-09-04T09:33:06Z</time>
      </trkpt>
      <trkpt lat="43.1312380" lon="-6.0735680">
        <ele>578.8</ele>
        <time>2019-09-04T09:33:08Z</time>
      </trkpt>
      <trkpt lat="43.1311770" lon="-6.0735350">
        <ele>578.8</ele>
        <time>2019-09-04T09:33:10Z</time>
      </trkpt>
      <trkpt lat="43.1311160" lon="-6.0735050">
        <ele>578.8</ele>
        <time>2019-09-04T09:33:12Z</time>
      </trkpt>
      <trkpt lat="43.1310490" lon="-6.0734760">
        <ele>578.8</ele>
        <time>2019-09-04T09:33:14Z</time>
      </trkpt>
      <trkpt lat="43.1309880" lon="-6.0734490">
        <ele>578.8</ele>
        <time>2019-09-04T09:33:16Z</time>
      </trkpt>
      <trkpt lat="43.1309210" lon="-6.0734210">
        <ele>578.8</ele>
        <time>2019-09-04T09:33:18Z</time>
      </trkpt>
      <trkpt lat="43.1308600" lon="-6.0733950">
        <ele>581.8</ele>
        <time>2019-09-04T09:33:20Z</time>
      </trkpt>
      <trkpt lat="43.1307980" lon="-6.0733650">
        <ele>581.8</ele>
        <time>2019-09-04T09:33:22Z</time>
      </trkpt>
      <trkpt lat="43.1307420" lon="-6.0733340">
        <ele>581.8</ele>
        <time>2019-09-04T09:33:24Z</time>
      </trkpt>
      <trkpt lat="43.1306850" lon="-6.0733010">
        <ele>581.8</ele>
        <time>2019-09-04T09:33:26Z</time>
      </trkpt>
      <trkpt lat="43.1306240" lon="-6.0732690">
        <ele>581.8</ele>
        <time>2019-09-04T09:33:28Z</time>
      </trkpt>
      <trkpt lat="43.1305630" lon="-6.0732350">
        <ele>581.8</ele>
        <time>2019-09-04T09:33:30Z</time>
      </trkpt>
      <trkpt lat="43.1305060" lon="-6.0731990">
        <ele>581.8</ele>
        <time>2019-09-04T09:33:32Z</time>
      </trkpt>
      <trkpt lat="43.1304450" lon="-6.0731610">
        <ele>581.8</ele>
        <time>2019-09-04T09:33:34Z</time>
      </trkpt>
      <trkpt lat="43.1303830" lon="-6.0731230">
        <ele>585.0</ele>
        <time>2019-09-04T09:33:36Z</time>
      </trkpt>
      <trkpt lat="43.1303270" lon="-6.0730850">
        <ele>585.0</ele>
        <time>2019-09-04T09:33:38Z</time>
      </trkpt>
      <trkpt lat="43.1302660" lon="-6.0730470">
        <ele>585.0</ele>
        <time>2019-09-04T09:33:40Z</time>
      </trkpt>
      <trkpt lat="43.1301790" lon="-6.0729920">
        <ele>585.0</ele>
        <time>2019-09-04T09:33:43Z</time>
      </trkpt>
      <trkpt lat="43.1300970" lon="-6.0729400">
        <ele>585.0</ele>
        <time>2019-09-04T09:33:46Z</time>
      </trkpt>
      <trkpt lat="43.1300400" lon="-6.0729050">
        <ele>585.0</ele>
        <time>2019-09-04T09:33:48Z</time>
      </trkpt>
      <trkpt lat="43.1299840" lon="-6.0728710">
        <ele>585.0</ele>
        <time>2019-09-04T09:33:50Z</time>
      </trkpt>
      <trkpt lat="43.1298970" lon="-6.0728200">
        <ele>588.1</ele>
        <time>2019-09-04T09:33:53Z</time>
      </trkpt>
      <trkpt lat="43.1298410" lon="-6.0727860">
        <ele>588.1</ele>
        <time>2019-09-04T09:33:55Z</time>
      </trkpt>
      <trkpt lat="43.1297840" lon="-6.0727510">
        <ele>588.1</ele>
        <time>2019-09-04T09:33:57Z</time>
      </trkpt>
      <trkpt lat="43.1297280" lon="-6.0727170">
        <ele>588.1</ele>
        <time>2019-09-04T09:33:59Z</time>
      </trkpt>
      <trkpt lat="43.1296720" lon="-6.0726800">
        <ele>588.1</ele>
        <time>2019-09-04T09:34:01Z</time>
      </trkpt>
      <trkpt lat="43.1296150" lon="-6.0726420">
        <ele>588.1</ele>
        <time>2019-09-04T09:34:03Z</time>
      </trkpt>
      <trkpt lat="43.1295640" lon="-6.0726030">
        <ele>588.1</ele>
        <time>2019-09-04T09:34:05Z</time>
      </trkpt>
      <trkpt lat="43.1294770" lon="-6.0725380">
        <ele>591.3</ele>
        <time>2019-09-04T09:34:08Z</time>
      </trkpt>
      <trkpt lat="43.1294260" lon="-6.0724930">
        <ele>591.3</ele>
        <time>2019-09-04T09:34:10Z</time>
      </trkpt>
      <trkpt lat="43.1293700" lon="-6.0724460">
        <ele>591.3</ele>
        <time>2019-09-04T09:34:12Z</time>
      </trkpt>
      <trkpt lat="43.1293240" lon="-6.0723940">
        <ele>591.3</ele>
        <time>2019-09-04T09:34:14Z</time>
      </trkpt>
      <trkpt lat="43.1292670" lon="-6.0723370">
        <ele>591.3</ele>
        <time>2019-09-04T09:34:16Z</time>
      </trkpt>
      <trkpt lat="43.1292210" lon="-6.0722800">
        <ele>591.3</ele>
        <time>2019-09-04T09:34:18Z</time>
      </trkpt>
      <trkpt lat="43.1291700" lon="-6.0722220">
        <ele>591.3</ele>
        <time>2019-09-04T09:34:20Z</time>
      </trkpt>
      <trkpt lat="43.1291190" lon="-6.0721640">
        <ele>591.3</ele>
        <time>2019-09-04T09:34:22Z</time>
      </trkpt>
      <trkpt lat="43.1290730" lon="-6.0721080">
        <ele>594.7</ele>
        <time>2019-09-04T09:34:24Z</time>
      </trkpt>
      <trkpt lat="43.1289960" lon="-6.0720240">
        <ele>594.7</ele>
        <time>2019-09-04T09:34:27Z</time>
      </trkpt>
      <trkpt lat="43.1289290" lon="-6.0719370">
        <ele>594.7</ele>
        <time>2019-09-04T09:34:30Z</time>
      </trkpt>
      <trkpt lat="43.1288830" lon="-6.0718790">
        <ele>594.7</ele>
        <time>2019-09-04T09:34:32Z</time>
      </trkpt>
      <trkpt lat="43.1288220" lon="-6.0717860">
        <ele>594.7</ele>
        <time>2019-09-04T09:34:35Z</time>
      </trkpt>
      <trkpt lat="43.1287860" lon="-6.0717130">
        <ele>594.7</ele>
        <time>2019-09-04T09:34:37Z</time>
      </trkpt>
      <trkpt lat="43.1287500" lon="-6.0716430">
        <ele>597.7</ele>
        <time>2019-09-04T09:34:39Z</time>
      </trkpt>
      <trkpt lat="43.1287090" lon="-6.0715680">
        <ele>597.7</ele>
        <time>2019-09-04T09:34:41Z</time>
      </trkpt>
      <trkpt lat="43.1286680" lon="-6.0714980">
        <ele>597.7</ele>
        <time>2019-09-04T09:34:43Z</time>
      </trkpt>
      <trkpt lat="43.1286270" lon="-6.0714360">
        <ele>597.7</ele>
        <time>2019-09-04T09:34:45Z</time>
      </trkpt>
      <trkpt lat="43.1285760" lon="-6.0713830">
        <ele>597.7</ele>
        <time>2019-09-04T09:34:47Z</time>
      </trkpt>
      <trkpt lat="43.1285200" lon="-6.0713410">
        <ele>597.7</ele>
        <time>2019-09-04T09:34:49Z</time>
      </trkpt>
      <trkpt lat="43.1284630" lon="-6.0713110">
        <ele>597.7</ele>
        <time>2019-09-04T09:34:51Z</time>
      </trkpt>
      <trkpt lat="43.1284070" lon="-6.0712860">
        <ele>597.7</ele>
        <time>2019-09-04T09:34:53Z</time>
      </trkpt>
      <trkpt lat="43.1283150" lon="-6.0712480">
        <ele>601.1</ele>
        <time>2019-09-04T09:34:56Z</time>
      </trkpt>
      <trkpt lat="43.1282280" lon="-6.0712010">
        <ele>601.1</ele>
        <time>2019-09-04T09:34:59Z</time>
      </trkpt>
      <trkpt lat="43.1281660" lon="-6.0711560">
        <ele>601.1</ele>
        <time>2019-09-04T09:35:01Z</time>
      </trkpt>
      <trkpt lat="43.1281150" lon="-6.0711070">
        <ele>601.1</ele>
        <time>2019-09-04T09:35:03Z</time>
      </trkpt>
      <trkpt lat="43.1280640" lon="-6.0710430">
        <ele>601.1</ele>
        <time>2019-09-04T09:35:05Z</time>
      </trkpt>
      <trkpt lat="43.1279920" lon="-6.0709390">
        <ele>601.1</ele>
        <time>2019-09-04T09:35:08Z</time>
      </trkpt>
      <trkpt lat="43.1279560" lon="-6.0708640">
        <ele>601.1</ele>
        <time>2019-09-04T09:35:10Z</time>
      </trkpt>
      <trkpt lat="43.1279210" lon="-6.0707900">
        <ele>604.3</ele>
        <time>2019-09-04T09:35:12Z</time>
      </trkpt>
      <trkpt lat="43.1278800" lon="-6.0707100">
        <ele>604.3</ele>
        <time>2019-09-04T09:35:14Z</time>
      </trkpt>
      <trkpt lat="43.1278440" lon="-6.0706310">
        <ele>604.3</ele>
        <time>2019-09-04T09:35:16Z</time>
      </trkpt>
      <trkpt lat="43.1278080" lon="-6.0705560">
        <ele>604.3</ele>
        <time>2019-09-04T09:35:18Z</time>
      </trkpt>
      <trkpt lat="43.1277720" lon="-6.0704810">
        <ele>604.3</ele>
        <time>2019-09-04T09:35:20Z</time>
      </trkpt>
      <trkpt lat="43.1277360" lon="-6.0704080">
        <ele>604.3</ele>
        <time>2019-09-04T09:35:22Z</time>
      </trkpt>
      <trkpt lat="43.1277000" lon="-6.0703390">
        <ele>604.3</ele>
        <time>2019-09-04T09:35:24Z</time>
      </trkpt>
      <trkpt lat="43.1276600" lon="-6.0702710">
        <ele>604.3</ele>
        <time>2019-09-04T09:35:26Z</time>
      </trkpt>
      <trkpt lat="43.1276190" lon="-6.0702040">
        <ele>607.5</ele>
        <time>2019-09-04T09:35:28Z</time>
      </trkpt>
      <trkpt lat="43.1275720" lon="-6.0701340">
        <ele>607.5</ele>
        <time>2019-09-04T09:35:30Z</time>
      </trkpt>
      <trkpt lat="43.1275320" lon="-6.0700680">
        <ele>607.5</ele>
        <time>2019-09-04T09:35:32Z</time>
      </trkpt>
      <trkpt lat="43.1274910" lon="-6.0700030">
        <ele>607.5</ele>
        <time>2019-09-04T09:35:34Z</time>
      </trkpt>
      <trkpt lat="43.1274550" lon="-6.0699350">
        <ele>607.5</ele>
        <time>2019-09-04T09:35:36Z</time>
      </trkpt>
      <trkpt lat="43.1273880" lon="-6.0698300">
        <ele>607.5</ele>
        <time>2019-09-04T09:35:39Z</time>
      </trkpt>
      <trkpt lat="43.1273470" lon="-6.0697580">
        <ele>607.5</ele>
        <time>2019-09-04T09:35:41Z</time>
      </trkpt>
      <trkpt lat="43.1273060" lon="-6.0696840">
        <ele>610.7</ele>
        <time>2019-09-04T09:35:43Z</time>
      </trkpt>
      <trkpt lat="43.1272650" lon="-6.0696090">
        <ele>610.7</ele>
        <time>2019-09-04T09:35:45Z</time>
      </trkpt>
      <trkpt lat="43.1272240" lon="-6.0695350">
        <ele>610.7</ele>
        <time>2019-09-04T09:35:47Z</time>
      </trkpt>
      <trkpt lat="43.1271680" lon="-6.0694240">
        <ele>610.7</ele>
        <time>2019-09-04T09:35:50Z</time>
      </trkpt>
      <trkpt lat="43.1271320" lon="-6.0693510">
        <ele>610.7</ele>
        <time>2019-09-04T09:35:52Z</time>
      </trkpt>
      <trkpt lat="43.1270960" lon="-6.0692720">
        <ele>610.7</ele>
        <time>2019-09-04T09:35:54Z</time>
      </trkpt>
      <trkpt lat="43.1270550" lon="-6.0691950">
        <ele>610.7</ele>
        <time>2019-09-04T09:35:56Z</time>
      </trkpt>
      <trkpt lat="43.1270250" lon="-6.0691190">
        <ele>610.7</ele>
        <time>2019-09-04T09:35:58Z</time>
      </trkpt>
      <trkpt lat="43.1269940" lon="-6.0690380">
        <ele>614.1</ele>
        <time>2019-09-04T09:36:00Z</time>
      </trkpt>
      <trkpt lat="43.1269680" lon="-6.0689510">
        <ele>614.1</ele>
        <time>2019-09-04T09:36:02Z</time>
      </trkpt>
      <trkpt lat="43.1269530" lon="-6.0688670">
        <ele>614.1</ele>
        <time>2019-09-04T09:36:04Z</time>
      </trkpt>
      <trkpt lat="43.1269320" lon="-6.0687740">
        <ele>614.1</ele>
        <time>2019-09-04T09:36:06Z</time>
      </trkpt>
      <trkpt lat="43.1269170" lon="-6.0686840">
        <ele>614.1</ele>
        <time>2019-09-04T09:36:08Z</time>
      </trkpt>
      <trkpt lat="43.1269120" lon="-6.0685930">
        <ele>614.1</ele>
        <time>2019-09-04T09:36:10Z</time>
      </trkpt>
      <trkpt lat="43.1269020" lon="-6.0684960">
        <ele>614.1</ele>
        <time>2019-09-04T09:36:12Z</time>
      </trkpt>
      <trkpt lat="43.1268920" lon="-6.0684110">
        <ele>614.1</ele>
        <time>2019-09-04T09:36:14Z</time>
      </trkpt>
      <trkpt lat="43.1268810" lon="-6.0683170">
        <ele>617.5</ele>
        <time>2019-09-04T09:36:16Z</time>
      </trkpt>
      <trkpt lat="43.1268710" lon="-6.0682270">
        <ele>617.5</ele>
        <time>2019-09-04T09:36:18Z</time>
      </trkpt>
      <trkpt lat="43.1268560" lon="-6.0681400">
        <ele>617.5</ele>
        <time>2019-09-04T09:36:20Z</time>
      </trkpt>
      <trkpt lat="43.1268350" lon="-6.0680470">
        <ele>617.5</ele>
        <time>2019-09-04T09:36:22Z</time>
      </trkpt>
      <trkpt lat="43.1268040" lon="-6.0679690">
        <ele>617.5</ele>
        <time>2019-09-04T09:36:24Z</time>
      </trkpt>
      <trkpt lat="43.1267580" lon="-6.0679030">
        <ele>617.5</ele>
        <time>2019-09-04T09:36:26Z</time>
      </trkpt>
      <trkpt lat="43.1266870" lon="-6.0678280">
        <ele>617.5</ele>
        <time>2019-09-04T09:36:29Z</time>
      </trkpt>
      <trkpt lat="43.1266300" lon="-6.0677930">
        <ele>621.0</ele>
        <time>2019-09-04T09:36:31Z</time>
      </trkpt>
      <trkpt lat="43.1265740" lon="-6.0677660">
        <ele>621.0</ele>
        <time>2019-09-04T09:36:33Z</time>
      </trkpt>
      <trkpt lat="43.1265130" lon="-6.0677410">
        <ele>621.0</ele>
        <time>2019-09-04T09:36:35Z</time>
      </trkpt>
      <trkpt lat="43.1264560" lon="-6.0677120">
        <ele>621.0</ele>
        <time>2019-09-04T09:36:37Z</time>
      </trkpt>
      <trkpt lat="43.1264000" lon="-6.0676770">
        <ele>621.0</ele>
        <time>2019-09-04T09:36:39Z</time>
      </trkpt>
      <trkpt lat="43.1263440" lon="-6.0676310">
        <ele>621.0</ele>
        <time>2019-09-04T09:36:41Z</time>
      </trkpt>
      <trkpt lat="43.1262870" lon="-6.0675790">
        <ele>621.0</ele>
        <time>2019-09-04T09:36:43Z</time>
      </trkpt>
      <trkpt lat="43.1262360" lon="-6.0675240">
        <ele>621.0</ele>
        <time>2019-09-04T09:36:45Z</time>
      </trkpt>
      <trkpt lat="43.1261850" lon="-6.0674670">
        <ele>624.5</ele>
        <time>2019-09-04T09:36:47Z</time>
      </trkpt>
      <trkpt lat="43.1261390" lon="-6.0674110">
        <ele>624.5</ele>
        <time>2019-09-04T09:36:49Z</time>
      </trkpt>
      <trkpt lat="43.1260880" lon="-6.0673590">
        <ele>624.5</ele>
        <time>2019-09-04T09:36:51Z</time>
      </trkpt>
      <trkpt lat="43.1260420" lon="-6.0673150">
        <ele>624.5</ele>
        <time>2019-09-04T09:36:53Z</time>
      </trkpt>
      <trkpt lat="43.1259900" lon="-6.0672650">
        <ele>624.5</ele>
        <time>2019-09-04T09:36:55Z</time>
      </trkpt>
      <trkpt lat="43.1259440" lon="-6.0672150">
        <ele>624.5</ele>
        <time>2019-09-04T09:36:57Z</time>
      </trkpt>
      <trkpt lat="43.1258980" lon="-6.0671600">
        <ele>624.5</ele>
        <time>2019-09-04T09:36:59Z</time>
      </trkpt>
      <trkpt lat="43.1258520" lon="-6.0671020">
        <ele>624.5</ele>
        <time>2019-09-04T09:37:01Z</time>
      </trkpt>
      <trkpt lat="43.1258110" lon="-6.0670370">
        <ele>628.3</ele>
        <time>2019-09-04T09:37:03Z</time>
      </trkpt>
      <trkpt lat="43.1257750" lon="-6.0669660">
        <ele>628.3</ele>
        <time>2019-09-04T09:37:05Z</time>
      </trkpt>
      <trkpt lat="43.1257450" lon="-6.0668870">
        <ele>628.3</ele>
        <time>2019-09-04T09:37:07Z</time>
      </trkpt>
      <trkpt lat="43.1257190" lon="-6.0668090">
        <ele>628.3</ele>
        <time>2019-09-04T09:37:09Z</time>
      </trkpt>
      <trkpt lat="43.1256830" lon="-6.0666760">
        <ele>628.3</ele>
        <time>2019-09-04T09:37:12Z</time>
      </trkpt>
      <trkpt lat="43.1256630" lon="-6.0665920">
        <ele>628.3</ele>
        <time>2019-09-04T09:37:14Z</time>
      </trkpt>
      <trkpt lat="43.1256420" lon="-6.0665040">
        <ele>628.3</ele>
        <time>2019-09-04T09:37:16Z</time>
      </trkpt>
      <trkpt lat="43.1256220" lon="-6.0664160">
        <ele>628.3</ele>
        <time>2019-09-04T09:37:18Z</time>
      </trkpt>
      <trkpt lat="43.1256010" lon="-6.0663300">
        <ele>632.0</ele>
        <time>2019-09-04T09:37:20Z</time>
      </trkpt>
      <trkpt lat="43.1255860" lon="-6.0662390">
        <ele>632.0</ele>
        <time>2019-09-04T09:37:22Z</time>
      </trkpt>
      <trkpt lat="43.1255710" lon="-6.0661500">
        <ele>632.0</ele>
        <time>2019-09-04T09:37:24Z</time>
      </trkpt>
      <trkpt lat="43.1255550" lon="-6.0660650">
        <ele>632.0</ele>
        <time>2019-09-04T09:37:26Z</time>
      </trkpt>
      <trkpt lat="43.1255400" lon="-6.0659780">
        <ele>632.0</ele>
        <time>2019-09-04T09:37:28Z</time>
      </trkpt>
      <trkpt lat="43.1255190" lon="-6.0658940">
        <ele>632.0</ele>
        <time>2019-09-04T09:37:30Z</time>
      </trkpt>
      <trkpt lat="43.1255040" lon="-6.0658030">
        <ele>632.0</ele>
        <time>2019-09-04T09:37:32Z</time>
      </trkpt>
      <trkpt lat="43.1254840" lon="-6.0657180">
        <ele>632.0</ele>
        <time>2019-09-04T09:37:34Z</time>
      </trkpt>
      <trkpt lat="43.1254680" lon="-6.0656320">
        <ele>635.4</ele>
        <time>2019-09-04T09:37:36Z</time>
      </trkpt>
      <trkpt lat="43.1254480" lon="-6.0655460">
        <ele>635.4</ele>
        <time>2019-09-04T09:37:38Z</time>
      </trkpt>
      <trkpt lat="43.1254320" lon="-6.0654640">
        <ele>635.4</ele>
        <time>2019-09-04T09:37:40Z</time>
      </trkpt>
      <trkpt lat="43.1254170" lon="-6.0653820">
        <ele>635.4</ele>
        <time>2019-09-04T09:37:42Z</time>
      </trkpt>
      <trkpt lat="43.1254020" lon="-6.0652950">
        <ele>635.4</ele>
        <time>2019-09-04T09:37:44Z</time>
      </trkpt>
      <trkpt lat="43.1253760" lon="-6.0651720">
        <ele>635.4</ele>
        <time>2019-09-04T09:37:47Z</time>
      </trkpt>
      <trkpt lat="43.1253610" lon="-6.0650940">
        <ele>635.4</ele>
        <time>2019-09-04T09:37:49Z</time>
      </trkpt>
      <trkpt lat="43.1253400" lon="-6.0649700">
        <ele>638.8</ele>
        <time>2019-09-04T09:37:52Z</time>
      </trkpt>
      <trkpt lat="43.1253250" lon="-6.0648900">
        <ele>638.8</ele>
        <time>2019-09-04T09:37:54Z</time>
      </trkpt>
      <trkpt lat="43.1253040" lon="-6.0647580">
        <ele>638.8</ele>
        <time>2019-09-04T09:37:57Z</time>
      </trkpt>
      <trkpt lat="43.1252890" lon="-6.0646730">
        <ele>638.8</ele>
        <time>2019-09-04T09:37:59Z</time>
      </trkpt>
      <trkpt lat="43.1252740" lon="-6.0645880">
        <ele>638.8</ele>
        <time>2019-09-04T09:38:01Z</time>
      </trkpt>
      <trkpt lat="43.1252580" lon="-6.0645050">
        <ele>638.8</ele>
        <time>2019-09-04T09:38:03Z</time>
      </trkpt>
      <trkpt lat="43.1252430" lon="-6.0644280">
        <ele>638.8</ele>
        <time>2019-09-04T09:38:05Z</time>
      </trkpt>
      <trkpt lat="43.1252220" lon="-6.0643460">
        <ele>642.4</ele>
        <time>2019-09-04T09:38:07Z</time>
      </trkpt>
      <trkpt lat="43.1252020" lon="-6.0642670">
        <ele>642.4</ele>
        <time>2019-09-04T09:38:09Z</time>
      </trkpt>
      <trkpt lat="43.1251760" lon="-6.0641890">
        <ele>642.4</ele>
        <time>2019-09-04T09:38:11Z</time>
      </trkpt>
      <trkpt lat="43.1251400" lon="-6.0640680">
        <ele>642.4</ele>
        <time>2019-09-04T09:38:14Z</time>
      </trkpt>
      <trkpt lat="43.1251200" lon="-6.0639870">
        <ele>642.4</ele>
        <time>2019-09-04T09:38:16Z</time>
      </trkpt>
      <trkpt lat="43.1251050" lon="-6.0639060">
        <ele>642.4</ele>
        <time>2019-09-04T09:38:18Z</time>
      </trkpt>
      <trkpt lat="43.1251000" lon="-6.0638210">
        <ele>642.4</ele>
        <time>2019-09-04T09:38:20Z</time>
      </trkpt>
      <trkpt lat="43.1251050" lon="-6.0636870">
        <ele>645.6</ele>
        <time>2019-09-04T09:38:23Z</time>
      </trkpt>
      <trkpt lat="43.1251100" lon="-6.0635950">
        <ele>645.6</ele>
        <time>2019-09-04T09:38:25Z</time>
      </trkpt>
      <trkpt lat="43.1251300" lon="-6.0634990">
        <ele>645.6</ele>
        <time>2019-09-04T09:38:27Z</time>
      </trkpt>
      <trkpt lat="43.1251510" lon="-6.0634020">
        <ele>645.6</ele>
        <time>2019-09-04T09:38:29Z</time>
      </trkpt>
      <trkpt lat="43.1251760" lon="-6.0633060">
        <ele>645.6</ele>
        <time>2019-09-04T09:38:31Z</time>
      </trkpt>
      <trkpt lat="43.1251970" lon="-6.0632080">
        <ele>645.6</ele>
        <time>2019-09-04T09:38:33Z</time>
      </trkpt>
      <trkpt lat="43.1252220" lon="-6.0631090">
        <ele>645.6</ele>
        <time>2019-09-04T09:38:35Z</time>
      </trkpt>
      <trkpt lat="43.1252430" lon="-6.0630140">
        <ele>645.6</ele>
        <time>2019-09-04T09:38:37Z</time>
      </trkpt>
      <trkpt lat="43.1252680" lon="-6.0629260">
        <ele>649.2</ele>
        <time>2019-09-04T09:38:39Z</time>
      </trkpt>
      <trkpt lat="43.1252840" lon="-6.0628290">
        <ele>649.2</ele>
        <time>2019-09-04T09:38:41Z</time>
      </trkpt>
      <trkpt lat="43.1253040" lon="-6.0627310">
        <ele>649.2</ele>
        <time>2019-09-04T09:38:43Z</time>
      </trkpt>
      <trkpt lat="43.1253300" lon="-6.0626380">
        <ele>649.2</ele>
        <time>2019-09-04T09:38:45Z</time>
      </trkpt>
      <trkpt lat="43.1253450" lon="-6.0625430">
        <ele>649.2</ele>
        <time>2019-09-04T09:38:47Z</time>
      </trkpt>
      <trkpt lat="43.1253710" lon="-6.0624510">
        <ele>649.2</ele>
        <time>2019-09-04T09:38:49Z</time>
      </trkpt>
      <trkpt lat="43.1254170" lon="-6.0623120">
        <ele>649.2</ele>
        <time>2019-09-04T09:38:52Z</time>
      </trkpt>
      <trkpt lat="43.1254580" lon="-6.0622180">
        <ele>649.2</ele>
        <time>2019-09-04T09:38:54Z</time>
      </trkpt>
      <trkpt lat="43.1255090" lon="-6.0621300">
        <ele>652.5</ele>
        <time>2019-09-04T09:38:56Z</time>
      </trkpt>
      <trkpt lat="43.1255710" lon="-6.0620450">
        <ele>652.5</ele>
        <time>2019-09-04T09:38:58Z</time>
      </trkpt>
      <trkpt lat="43.1256830" lon="-6.0619140">
        <ele>652.5</ele>
        <time>2019-09-04T09:39:01Z</time>
      </trkpt>
      <trkpt lat="43.1257750" lon="-6.0618250">
        <ele>652.5</ele>
        <time>2019-09-04T09:39:03Z</time>
      </trkpt>
      <trkpt lat="43.1258620" lon="-6.0617420">
        <ele>652.5</ele>
        <time>2019-09-04T09:39:05Z</time>
      </trkpt>
      <trkpt lat="43.1259600" lon="-6.0616560">
        <ele>652.5</ele>
        <time>2019-09-04T09:39:07Z</time>
      </trkpt>
      <trkpt lat="43.1260620" lon="-6.0615720">
        <ele>652.5</ele>
        <time>2019-09-04T09:39:09Z</time>
      </trkpt>
      <trkpt lat="43.1261750" lon="-6.0614840">
        <ele>655.9</ele>
        <time>2019-09-04T09:39:11Z</time>
      </trkpt>
      <trkpt lat="43.1262870" lon="-6.0613960">
        <ele>655.9</ele>
        <time>2019-09-04T09:39:13Z</time>
      </trkpt>
      <trkpt lat="43.1263950" lon="-6.0613180">
        <ele>655.9</ele>
        <time>2019-09-04T09:39:15Z</time>
      </trkpt>
      <trkpt lat="43.1264560" lon="-6.0612760">
        <ele>655.9</ele>
        <time>2019-09-04T09:39:16Z</time>
      </trkpt>
      <trkpt lat="43.1265740" lon="-6.0611900">
        <ele>655.9</ele>
        <time>2019-09-04T09:39:18Z</time>
      </trkpt>
      <trkpt lat="43.1266870" lon="-6.0610930">
        <ele>655.9</ele>
        <time>2019-09-04T09:39:20Z</time>
      </trkpt>
      <trkpt lat="43.1267890" lon="-6.0609790">
        <ele>655.9</ele>
        <time>2019-09-04T09:39:22Z</time>
      </trkpt>
      <trkpt lat="43.1268660" lon="-6.0608520">
        <ele>655.9</ele>
        <time>2019-09-04T09:39:24Z</time>
      </trkpt>
      <trkpt lat="43.1269120" lon="-6.0607050">
        <ele>655.9</ele>
        <time>2019-09-04T09:39:26Z</time>
      </trkpt>
      <trkpt lat="43.1269120" lon="-6.0605540">
        <ele>659.1</ele>
        <time>2019-09-04T09:39:28Z</time>
      </trkpt>
      <trkpt lat="43.1268970" lon="-6.0604880">
        <ele>659.1</ele>
        <time>2019-09-04T09:39:29Z</time>
      </trkpt>
      <trkpt lat="43.1268660" lon="-6.0604290">
        <ele>659.1</ele>
        <time>2019-09-04T09:39:30Z</time>
      </trkpt>
      <trkpt lat="43.1267380" lon="-6.0603010">
        <ele>659.1</ele>
        <time>2019-09-04T09:39:33Z</time>
      </trkpt>
      <trkpt lat="43.1266460" lon="-6.0602600">
        <ele>659.1</ele>
        <time>2019-09-04T09:39:35Z</time>
      </trkpt>
      <trkpt lat="43.1265540" lon="-6.0602380">
        <ele>659.1</ele>
        <time>2019-09-04T09:39:37Z</time>
      </trkpt>
      <trkpt lat="43.1265080" lon="-6.0602290">
        <ele>659.1</ele>
        <time>2019-09-04T09:39:38Z</time>
      </trkpt>
      <trkpt lat="43.1264200" lon="-6.0602100">
        <ele>659.1</ele>
        <time>2019-09-04T09:39:40Z</time>
      </trkpt>
      <trkpt lat="43.1263330" lon="-6.0601880">
        <ele>659.1</ele>
        <time>2019-09-04T09:39:42Z</time>
      </trkpt>
      <trkpt lat="43.1262460" lon="-6.0601600">
        <ele>662.2</ele>
        <time>2019-09-04T09:39:44Z</time>
      </trkpt>
      <trkpt lat="43.1261540" lon="-6.0601300">
        <ele>662.2</ele>
        <time>2019-09-04T09:39:46Z</time>
      </trkpt>
      <trkpt lat="43.1260720" lon="-6.0601020">
        <ele>662.2</ele>
        <time>2019-09-04T09:39:48Z</time>
      </trkpt>
      <trkpt lat="43.1259900" lon="-6.0600780">
        <ele>662.2</ele>
        <time>2019-09-04T09:39:50Z</time>
      </trkpt>
      <trkpt lat="43.1259080" lon="-6.0600680">
        <ele>662.2</ele>
        <time>2019-09-04T09:39:52Z</time>
      </trkpt>
      <trkpt lat="43.1258270" lon="-6.0600760">
        <ele>662.2</ele>
        <time>2019-09-04T09:39:54Z</time>
      </trkpt>
      <trkpt lat="43.1257500" lon="-6.0600960">
        <ele>662.2</ele>
        <time>2019-09-04T09:39:56Z</time>
      </trkpt>
      <trkpt lat="43.1256730" lon="-6.0601250">
        <ele>662.2</ele>
        <time>2019-09-04T09:39:58Z</time>
      </trkpt>
      <trkpt lat="43.1256010" lon="-6.0601570">
        <ele>665.4</ele>
        <time>2019-09-04T09:40:00Z</time>
      </trkpt>
      <trkpt lat="43.1255240" lon="-6.0601880">
        <ele>665.4</ele>
        <time>2019-09-04T09:40:02Z</time>
      </trkpt>
      <trkpt lat="43.1254480" lon="-6.0602110">
        <ele>665.4</ele>
        <time>2019-09-04T09:40:04Z</time>
      </trkpt>
      <trkpt lat="43.1253760" lon="-6.0602300">
        <ele>665.4</ele>
        <time>2019-09-04T09:40:06Z</time>
      </trkpt>
      <trkpt lat="43.1252990" lon="-6.0602460">
        <ele>665.4</ele>
        <time>2019-09-04T09:40:08Z</time>
      </trkpt>
      <trkpt lat="43.1252170" lon="-6.0602570">
        <ele>665.4</ele>
        <time>2019-09-04T09:40:10Z</time>
      </trkpt>
      <trkpt lat="43.1251400" lon="-6.0602640">
        <ele>665.4</ele>
        <time>2019-09-04T09:40:12Z</time>
      </trkpt>
      <trkpt lat="43.1250640" lon="-6.0602710">
        <ele>665.4</ele>
        <time>2019-09-04T09:40:14Z</time>
      </trkpt>
      <trkpt lat="43.1249870" lon="-6.0602770">
        <ele>668.4</ele>
        <time>2019-09-04T09:40:16Z</time>
      </trkpt>
      <trkpt lat="43.1248790" lon="-6.0602530">
        <ele>668.4</ele>
        <time>2019-09-04T09:40:19Z</time>
      </trkpt>
      <trkpt lat="43.1248230" lon="-6.0602000">
        <ele>668.4</ele>
        <time>2019-09-04T09:40:21Z</time>
      </trkpt>
      <trkpt lat="43.1247560" lon="-6.0600670">
        <ele>668.4</ele>
        <time>2019-09-04T09:40:24Z</time>
      </trkpt>
      <trkpt lat="43.1247210" lon="-6.0599400">
        <ele>668.4</ele>
        <time>2019-09-04T09:40:26Z</time>
      </trkpt>
      <trkpt lat="43.1246950" lon="-6.0597980">
        <ele>668.4</ele>
        <time>2019-09-04T09:40:28Z</time>
      </trkpt>
      <trkpt lat="43.1246690" lon="-6.0596560">
        <ele>668.4</ele>
        <time>2019-09-04T09:40:30Z</time>
      </trkpt>
      <trkpt lat="43.1246230" lon="-6.0595100">
        <ele>671.4</ele>
        <time>2019-09-04T09:40:32Z</time>
      </trkpt>
      <trkpt lat="43.1245980" lon="-6.0594400">
        <ele>671.4</ele>
        <time>2019-09-04T09:40:33Z</time>
      </trkpt>
      <trkpt lat="43.1245410" lon="-6.0593130">
        <ele>671.4</ele>
        <time>2019-09-04T09:40:35Z</time>
      </trkpt>
      <trkpt lat="43.1244850" lon="-6.0591710">
        <ele>671.4</ele>
        <time>2019-09-04T09:40:37Z</time>
      </trkpt>
      <trkpt lat="43.1244340" lon="-6.0590320">
        <ele>671.4</ele>
        <time>2019-09-04T09:40:39Z</time>
      </trkpt>
      <trkpt lat="43.1244080" lon="-6.0589660">
        <ele>671.4</ele>
        <time>2019-09-04T09:40:40Z</time>
      </trkpt>
      <trkpt lat="43.1243420" lon="-6.0588250">
        <ele>671.4</ele>
        <time>2019-09-04T09:40:42Z</time>
      </trkpt>
      <trkpt lat="43.1242800" lon="-6.0586910">
        <ele>671.4</ele>
        <time>2019-09-04T09:40:44Z</time>
      </trkpt>
      <trkpt lat="43.1242140" lon="-6.0585540">
        <ele>671.4</ele>
        <time>2019-09-04T09:40:46Z</time>
      </trkpt>
      <trkpt lat="43.1241470" lon="-6.0584250">
        <ele>674.0</ele>
        <time>2019-09-04T09:40:48Z</time>
      </trkpt>
      <trkpt lat="43.1240810" lon="-6.0582950">
        <ele>674.0</ele>
        <time>2019-09-04T09:40:50Z</time>
      </trkpt>
      <trkpt lat="43.1240090" lon="-6.0581590">
        <ele>674.0</ele>
        <time>2019-09-04T09:40:52Z</time>
      </trkpt>
      <trkpt lat="43.1239480" lon="-6.0580160">
        <ele>674.0</ele>
        <time>2019-09-04T09:40:54Z</time>
      </trkpt>
      <trkpt lat="43.1238910" lon="-6.0578680">
        <ele>674.0</ele>
        <time>2019-09-04T09:40:56Z</time>
      </trkpt>
      <trkpt lat="43.1238350" lon="-6.0577180">
        <ele>674.0</ele>
        <time>2019-09-04T09:40:58Z</time>
      </trkpt>
      <trkpt lat="43.1237730" lon="-6.0575740">
        <ele>674.0</ele>
        <time>2019-09-04T09:41:00Z</time>
      </trkpt>
      <trkpt lat="43.1237120" lon="-6.0574070">
        <ele>674.0</ele>
        <time>2019-09-04T09:41:02Z</time>
      </trkpt>
      <trkpt lat="43.1236860" lon="-6.0573250">
        <ele>676.5</ele>
        <time>2019-09-04T09:41:03Z</time>
      </trkpt>
      <trkpt lat="43.1236250" lon="-6.0571400">
        <ele>676.5</ele>
        <time>2019-09-04T09:41:05Z</time>
      </trkpt>
      <trkpt lat="43.1235280" lon="-6.0569570">
        <ele>676.5</ele>
        <time>2019-09-04T09:41:07Z</time>
      </trkpt>
      <trkpt lat="43.1234360" lon="-6.0567780">
        <ele>676.5</ele>
        <time>2019-09-04T09:41:09Z</time>
      </trkpt>
      <trkpt lat="43.1233380" lon="-6.0565860">
        <ele>676.5</ele>
        <time>2019-09-04T09:41:11Z</time>
      </trkpt>
      <trkpt lat="43.1232310" lon="-6.0563780">
        <ele>676.5</ele>
        <time>2019-09-04T09:41:13Z</time>
      </trkpt>
      <trkpt lat="43.1231740" lon="-6.0562600">
        <ele>676.5</ele>
        <time>2019-09-04T09:41:14Z</time>
      </trkpt>
      <trkpt lat="43.1231030" lon="-6.0560120">
        <ele>676.5</ele>
        <time>2019-09-04T09:41:16Z</time>
      </trkpt>
      <trkpt lat="43.1230260" lon="-6.0557570">
        <ele>676.5</ele>
        <time>2019-09-04T09:41:18Z</time>
      </trkpt>
      <trkpt lat="43.1228930" lon="-6.0555120">
        <ele>678.5</ele>
        <time>2019-09-04T09:41:20Z</time>
      </trkpt>
      <trkpt lat="43.1227290" lon="-6.0552930">
        <ele>678.5</ele>
        <time>2019-09-04T09:41:22Z</time>
      </trkpt>
      <trkpt lat="43.1225700" lon="-6.0551020">
        <ele>676.7</ele>
        <time>2019-09-04T09:41:24Z</time>
      </trkpt>
      <trkpt lat="43.1224270" lon="-6.0549180">
        <ele>676.7</ele>
        <time>2019-09-04T09:41:26Z</time>
      </trkpt>
      <trkpt lat="43.1222840" lon="-6.0547390">
        <ele>676.7</ele>
        <time>2019-09-04T09:41:28Z</time>
      </trkpt>
      <trkpt lat="43.1222220" lon="-6.0546460">
        <ele>676.7</ele>
        <time>2019-09-04T09:41:29Z</time>
      </trkpt>
      <trkpt lat="43.1221200" lon="-6.0544280">
        <ele>676.7</ele>
        <time>2019-09-04T09:41:31Z</time>
      </trkpt>
      <trkpt lat="43.1219920" lon="-6.0540560">
        <ele>676.7</ele>
        <time>2019-09-04T09:41:36Z</time>
      </trkpt>
      <trkpt lat="43.1219510" lon="-6.0538660">
        <ele>676.7</ele>
        <time>2019-09-04T09:41:37Z</time>
      </trkpt>
      <trkpt lat="43.1219100" lon="-6.0536760">
        <ele>678.8</ele>
        <time>2019-09-04T09:41:38Z</time>
      </trkpt>
      <trkpt lat="43.1218940" lon="-6.0535280">
        <ele>678.8</ele>
        <time>2019-09-04T09:41:39Z</time>
      </trkpt>
      <trkpt lat="43.1218790" lon="-6.0534000">
        <ele>678.8</ele>
        <time>2019-09-04T09:41:40Z</time>
      </trkpt>
      <trkpt lat="43.1218430" lon="-6.0531810">
        <ele>678.8</ele>
        <time>2019-09-04T09:41:42Z</time>
      </trkpt>
      <trkpt lat="43.1218280" lon="-6.0530750">
        <ele>678.8</ele>
        <time>2019-09-04T09:41:43Z</time>
      </trkpt>
      <trkpt lat="43.1217920" lon="-6.0528740">
        <ele>678.8</ele>
        <time>2019-09-04T09:41:45Z</time>
      </trkpt>
      <trkpt lat="43.1217050" lon="-6.0527050">
        <ele>678.8</ele>
        <time>2019-09-04T09:41:47Z</time>
      </trkpt>
      <trkpt lat="43.1215870" lon="-6.0525650">
        <ele>678.8</ele>
        <time>2019-09-04T09:41:49Z</time>
      </trkpt>
      <trkpt lat="43.1214690" lon="-6.0524390">
        <ele>678.8</ele>
        <time>2019-09-04T09:41:51Z</time>
      </trkpt>
      <trkpt lat="43.1214080" lon="-6.0523810">
        <ele>678.8</ele>
        <time>2019-09-04T09:41:52Z</time>
      </trkpt>
      <trkpt lat="43.1213520" lon="-6.0523240">
        <ele>678.8</ele>
        <time>2019-09-04T09:41:53Z</time>
      </trkpt>
      <trkpt lat="43.1212440" lon="-6.0522230">
        <ele>678.8</ele>
        <time>2019-09-04T09:41:55Z</time>
      </trkpt>
      <trkpt lat="43.1211320" lon="-6.0521190">
        <ele>678.8</ele>
        <time>2019-09-04T09:41:57Z</time>
      </trkpt>
      <trkpt lat="43.1210800" lon="-6.0520730">
        <ele>678.8</ele>
        <time>2019-09-04T09:41:58Z</time>
      </trkpt>
      <trkpt lat="43.1210340" lon="-6.0520310">
        <ele>678.8</ele>
        <time>2019-09-04T09:41:59Z</time>
      </trkpt>
      <trkpt lat="43.1209270" lon="-6.0519500">
        <ele>678.8</ele>
        <time>2019-09-04T09:42:01Z</time>
      </trkpt>
      <trkpt lat="43.1208190" lon="-6.0518850">
        <ele>678.8</ele>
        <time>2019-09-04T09:42:03Z</time>
      </trkpt>
      <trkpt lat="43.1207630" lon="-6.0518580">
        <ele>680.8</ele>
        <time>2019-09-04T09:42:04Z</time>
      </trkpt>
      <trkpt lat="43.1206500" lon="-6.0518180">
        <ele>680.8</ele>
        <time>2019-09-04T09:42:06Z</time>
      </trkpt>
      <trkpt lat="43.1205990" lon="-6.0517990">
        <ele>680.8</ele>
        <time>2019-09-04T09:42:07Z</time>
      </trkpt>
      <trkpt lat="43.1205430" lon="-6.0517830">
        <ele>680.8</ele>
        <time>2019-09-04T09:42:08Z</time>
      </trkpt>
      <trkpt lat="43.1204400" lon="-6.0517500">
        <ele>680.8</ele>
        <time>2019-09-04T09:42:10Z</time>
      </trkpt>
      <trkpt lat="43.1203380" lon="-6.0517220">
        <ele>680.8</ele>
        <time>2019-09-04T09:42:12Z</time>
      </trkpt>
      <trkpt lat="43.1202360" lon="-6.0516920">
        <ele>680.8</ele>
        <time>2019-09-04T09:42:14Z</time>
      </trkpt>
      <trkpt lat="43.1201330" lon="-6.0516610">
        <ele>680.8</ele>
        <time>2019-09-04T09:42:16Z</time>
      </trkpt>
      <trkpt lat="43.1200310" lon="-6.0516360">
        <ele>680.8</ele>
        <time>2019-09-04T09:42:18Z</time>
      </trkpt>
      <trkpt lat="43.1199390" lon="-6.0516030">
        <ele>680.8</ele>
        <time>2019-09-04T09:42:20Z</time>
      </trkpt>
      <trkpt lat="43.1198520" lon="-6.0515630">
        <ele>680.8</ele>
        <time>2019-09-04T09:42:22Z</time>
      </trkpt>
      <trkpt lat="43.1197640" lon="-6.0515380">
        <ele>680.8</ele>
        <time>2019-09-04T09:42:24Z</time>
      </trkpt>
      <trkpt lat="43.1196420" lon="-6.0515190">
        <ele>683.5</ele>
        <time>2019-09-04T09:42:27Z</time>
      </trkpt>
      <trkpt lat="43.1195650" lon="-6.0515000">
        <ele>683.5</ele>
        <time>2019-09-04T09:42:29Z</time>
      </trkpt>
      <trkpt lat="43.1194620" lon="-6.0514380">
        <ele>683.5</ele>
        <time>2019-09-04T09:42:32Z</time>
      </trkpt>
      <trkpt lat="43.1194110" lon="-6.0513800">
        <ele>683.5</ele>
        <time>2019-09-04T09:42:34Z</time>
      </trkpt>
      <trkpt lat="43.1188940" lon="-6.0509680">
        <ele>683.5</ele>
        <time>2019-09-04T09:42:51Z</time>
      </trkpt>
      <trkpt lat="43.1188840" lon="-6.0509690">
        <ele>683.5</ele>
        <time>2019-09-04T09:42:52Z</time>
      </trkpt>
      <trkpt lat="43.1187920" lon="-6.0509780">
        <ele>683.5</ele>
        <time>2019-09-04T09:42:55Z</time>
      </trkpt>
      <trkpt lat="43.1187100" lon="-6.0509810">
        <ele>683.5</ele>
        <time>2019-09-04T09:42:57Z</time>
      </trkpt>
      <trkpt lat="43.1186280" lon="-6.0509720">
        <ele>685.5</ele>
        <time>2019-09-04T09:42:59Z</time>
      </trkpt>
      <trkpt lat="43.1185510" lon="-6.0509560">
        <ele>685.5</ele>
        <time>2019-09-04T09:43:01Z</time>
      </trkpt>
      <trkpt lat="43.1184790" lon="-6.0509560">
        <ele>685.5</ele>
        <time>2019-09-04T09:43:03Z</time>
      </trkpt>
      <trkpt lat="43.1184130" lon="-6.0509550">
        <ele>685.5</ele>
        <time>2019-09-04T09:43:05Z</time>
      </trkpt>
      <trkpt lat="43.1183510" lon="-6.0509450">
        <ele>685.5</ele>
        <time>2019-09-04T09:43:07Z</time>
      </trkpt>
      <trkpt lat="43.1182950" lon="-6.0509310">
        <ele>687.6</ele>
        <time>2019-09-04T09:43:09Z</time>
      </trkpt>
      <trkpt lat="43.1182390" lon="-6.0509130">
        <ele>687.6</ele>
        <time>2019-09-04T09:43:11Z</time>
      </trkpt>
      <trkpt lat="43.1181880" lon="-6.0508900">
        <ele>687.6</ele>
        <time>2019-09-04T09:43:13Z</time>
      </trkpt>
      <trkpt lat="43.1181360" lon="-6.0508630">
        <ele>687.6</ele>
        <time>2019-09-04T09:43:15Z</time>
      </trkpt>
      <trkpt lat="43.1180800" lon="-6.0508350">
        <ele>687.6</ele>
        <time>2019-09-04T09:43:17Z</time>
      </trkpt>
      <trkpt lat="43.1180290" lon="-6.0508100">
        <ele>687.6</ele>
        <time>2019-09-04T09:43:19Z</time>
      </trkpt>
      <trkpt lat="43.1179780" lon="-6.0507850">
        <ele>689.7</ele>
        <time>2019-09-04T09:43:21Z</time>
      </trkpt>
      <trkpt lat="43.1179260" lon="-6.0507580">
        <ele>689.7</ele>
        <time>2019-09-04T09:43:23Z</time>
      </trkpt>
      <trkpt lat="43.1178800" lon="-6.0507290">
        <ele>689.7</ele>
        <time>2019-09-04T09:43:25Z</time>
      </trkpt>
      <trkpt lat="43.1178090" lon="-6.0506960">
        <ele>689.7</ele>
        <time>2019-09-04T09:43:28Z</time>
      </trkpt>
      <trkpt lat="43.1177570" lon="-6.0506800">
        <ele>689.7</ele>
        <time>2019-09-04T09:43:30Z</time>
      </trkpt>
      <trkpt lat="43.1176910" lon="-6.0506640">
        <ele>691.8</ele>
        <time>2019-09-04T09:43:33Z</time>
      </trkpt>
      <trkpt lat="43.1176240" lon="-6.0506490">
        <ele>691.8</ele>
        <time>2019-09-04T09:43:36Z</time>
      </trkpt>
      <trkpt lat="43.1175530" lon="-6.0506330">
        <ele>691.8</ele>
        <time>2019-09-04T09:43:39Z</time>
      </trkpt>
      <trkpt lat="43.1174810" lon="-6.0506150">
        <ele>691.8</ele>
        <time>2019-09-04T09:43:42Z</time>
      </trkpt>
      <trkpt lat="43.1174140" lon="-6.0505950">
        <ele>693.9</ele>
        <time>2019-09-04T09:43:45Z</time>
      </trkpt>
      <trkpt lat="43.1173480" lon="-6.0505720">
        <ele>693.9</ele>
        <time>2019-09-04T09:43:48Z</time>
      </trkpt>
      <trkpt lat="43.1172810" lon="-6.0505520">
        <ele>696.1</ele>
        <time>2019-09-04T09:43:51Z</time>
      </trkpt>
      <trkpt lat="43.1172250" lon="-6.0505230">
        <ele>696.1</ele>
        <time>2019-09-04T09:43:53Z</time>
      </trkpt>
      <trkpt lat="43.1171690" lon="-6.0504770">
        <ele>696.1</ele>
        <time>2019-09-04T09:43:55Z</time>
      </trkpt>
      <trkpt lat="43.1171120" lon="-6.0503890">
        <ele>696.1</ele>
        <time>2019-09-04T09:43:57Z</time>
      </trkpt>
      <trkpt lat="43.1170460" lon="-6.0502820">
        <ele>696.1</ele>
        <time>2019-09-04T09:43:59Z</time>
      </trkpt>
      <trkpt lat="43.1169890" lon="-6.0501630">
        <ele>698.2</ele>
        <time>2019-09-04T09:44:01Z</time>
      </trkpt>
      <trkpt lat="43.1169640" lon="-6.0501060">
        <ele>698.2</ele>
        <time>2019-09-04T09:44:02Z</time>
      </trkpt>
      <trkpt lat="43.1169330" lon="-6.0500630">
        <ele>698.2</ele>
        <time>2019-09-04T09:44:03Z</time>
      </trkpt>
      <trkpt lat="43.1168820" lon="-6.0500290">
        <ele>698.2</ele>
        <time>2019-09-04T09:44:05Z</time>
      </trkpt>
      <trkpt lat="43.1168150" lon="-6.0500220">
        <ele>698.2</ele>
        <time>2019-09-04T09:44:08Z</time>
      </trkpt>
      <trkpt lat="43.1167540" lon="-6.0500150">
        <ele>698.2</ele>
        <time>2019-09-04T09:44:11Z</time>
      </trkpt>
      <trkpt lat="43.1166920" lon="-6.0500120">
        <ele>700.3</ele>
        <time>2019-09-04T09:44:14Z</time>
      </trkpt>
      <trkpt lat="43.1166310" lon="-6.0500010">
        <ele>700.3</ele>
        <time>2019-09-04T09:44:17Z</time>
      </trkpt>
      <trkpt lat="43.1165590" lon="-6.0499900">
        <ele>700.3</ele>
        <time>2019-09-04T09:44:20Z</time>
      </trkpt>
      <trkpt lat="43.1165030" lon="-6.0499830">
        <ele>700.3</ele>
        <time>2019-09-04T09:44:23Z</time>
      </trkpt>
      <trkpt lat="43.1164310" lon="-6.0499810">
        <ele>700.3</ele>
        <time>2019-09-04T09:44:26Z</time>
      </trkpt>
      <trkpt lat="43.1163600" lon="-6.0499810">
        <ele>700.3</ele>
        <time>2019-09-04T09:44:29Z</time>
      </trkpt>
      <trkpt lat="43.1162930" lon="-6.0499720">
        <ele>700.3</ele>
        <time>2019-09-04T09:44:32Z</time>
      </trkpt>
      <trkpt lat="43.1162160" lon="-6.0499550">
        <ele>700.3</ele>
        <time>2019-09-04T09:44:35Z</time>
      </trkpt>
      <trkpt lat="43.1161450" lon="-6.0499370">
        <ele>702.3</ele>
        <time>2019-09-04T09:44:38Z</time>
      </trkpt>
      <trkpt lat="43.1160930" lon="-6.0499400">
        <ele>702.3</ele>
        <time>2019-09-04T09:44:40Z</time>
      </trkpt>
      <trkpt lat="43.1160220" lon="-6.0499510">
        <ele>702.3</ele>
        <time>2019-09-04T09:44:43Z</time>
      </trkpt>
      <trkpt lat="43.1159500" lon="-6.0499760">
        <ele>702.3</ele>
        <time>2019-09-04T09:44:46Z</time>
      </trkpt>
      <trkpt lat="43.1158780" lon="-6.0500040">
        <ele>702.3</ele>
        <time>2019-09-04T09:44:49Z</time>
      </trkpt>
      <trkpt lat="43.1158270" lon="-6.0500190">
        <ele>702.3</ele>
        <time>2019-09-04T09:44:51Z</time>
      </trkpt>
      <trkpt lat="43.1157710" lon="-6.0500280">
        <ele>702.3</ele>
        <time>2019-09-04T09:44:53Z</time>
      </trkpt>
      <trkpt lat="43.1156990" lon="-6.0500360">
        <ele>704.4</ele>
        <time>2019-09-04T09:44:56Z</time>
      </trkpt>
      <trkpt lat="43.1156330" lon="-6.0500350">
        <ele>704.4</ele>
        <time>2019-09-04T09:44:59Z</time>
      </trkpt>
      <trkpt lat="43.1155610" lon="-6.0500260">
        <ele>704.4</ele>
        <time>2019-09-04T09:45:02Z</time>
      </trkpt>
      <trkpt lat="43.1154640" lon="-6.0500080">
        <ele>704.4</ele>
        <time>2019-09-04T09:45:06Z</time>
      </trkpt>
      <trkpt lat="43.1153770" lon="-6.0500090">
        <ele>704.4</ele>
        <time>2019-09-04T09:45:10Z</time>
      </trkpt>
      <trkpt lat="43.1152900" lon="-6.0500030">
        <ele>704.4</ele>
        <time>2019-09-04T09:45:14Z</time>
      </trkpt>
      <trkpt lat="43.1152030" lon="-6.0499940">
        <ele>704.4</ele>
        <time>2019-09-04T09:45:18Z</time>
      </trkpt>
      <trkpt lat="43.1151050" lon="-6.0499960">
        <ele>704.4</ele>
        <time>2019-09-04T09:45:22Z</time>
      </trkpt>
      <trkpt lat="43.1150540" lon="-6.0499950">
        <ele>704.4</ele>
        <time>2019-09-04T09:45:24Z</time>
      </trkpt>
      <trkpt lat="43.1149620" lon="-6.0499880">
        <ele>704.4</ele>
        <time>2019-09-04T09:45:28Z</time>
      </trkpt>
      <trkpt lat="43.1148750" lon="-6.0499580">
        <ele>704.4</ele>
        <time>2019-09-04T09:45:32Z</time>
      </trkpt>
      <trkpt lat="43.1148130" lon="-6.0499230">
        <ele>704.4</ele>
        <time>2019-09-04T09:45:35Z</time>
      </trkpt>
      <trkpt lat="43.1147520" lon="-6.0498870">
        <ele>706.4</ele>
        <time>2019-09-04T09:45:38Z</time>
      </trkpt>
      <trkpt lat="43.1147060" lon="-6.0498630">
        <ele>706.4</ele>
        <time>2019-09-04T09:45:40Z</time>
      </trkpt>
      <trkpt lat="43.1146340" lon="-6.0498230">
        <ele>706.4</ele>
        <time>2019-09-04T09:45:43Z</time>
      </trkpt>
      <trkpt lat="43.1145420" lon="-6.0497820">
        <ele>706.4</ele>
        <time>2019-09-04T09:45:47Z</time>
      </trkpt>
      <trkpt lat="43.1144500" lon="-6.0497550">
        <ele>706.4</ele>
        <time>2019-09-04T09:45:51Z</time>
      </trkpt>
      <trkpt lat="43.1144040" lon="-6.0497360">
        <ele>706.4</ele>
        <time>2019-09-04T09:45:53Z</time>
      </trkpt>
      <trkpt lat="43.1143420" lon="-6.0497020">
        <ele>706.4</ele>
        <time>2019-09-04T09:45:56Z</time>
      </trkpt>
      <trkpt lat="43.1142960" lon="-6.0496750">
        <ele>706.4</ele>
        <time>2019-09-04T09:45:58Z</time>
      </trkpt>
      <trkpt lat="43.1142090" lon="-6.0496200">
        <ele>706.4</ele>
        <time>2019-09-04T09:46:02Z</time>
      </trkpt>
      <trkpt lat="43.1141380" lon="-6.0495780">
        <ele>708.5</ele>
        <time>2019-09-04T09:46:05Z</time>
      </trkpt>
      <trkpt lat="43.1140760" lon="-6.0495380">
        <ele>708.5</ele>
        <time>2019-09-04T09:46:08Z</time>
      </trkpt>
      <trkpt lat="43.1140350" lon="-6.0495080">
        <ele>708.5</ele>
        <time>2019-09-04T09:46:10Z</time>
      </trkpt>
      <trkpt lat="43.1139480" lon="-6.0494530">
        <ele>708.5</ele>
        <time>2019-09-04T09:46:14Z</time>
      </trkpt>
      <trkpt lat="43.1138660" lon="-6.0493990">
        <ele>708.5</ele>
        <time>2019-09-04T09:46:18Z</time>
      </trkpt>
      <trkpt lat="43.1138000" lon="-6.0493380">
        <ele>708.5</ele>
        <time>2019-09-04T09:46:22Z</time>
      </trkpt>
      <trkpt lat="43.1137380" lon="-6.0492780">
        <ele>710.5</ele>
        <time>2019-09-04T09:46:26Z</time>
      </trkpt>
      <trkpt lat="43.1136610" lon="-6.0492350">
        <ele>710.5</ele>
        <time>2019-09-04T09:46:30Z</time>
      </trkpt>
      <trkpt lat="43.1135800" lon="-6.0491760">
        <ele>710.5</ele>
        <time>2019-09-04T09:46:34Z</time>
      </trkpt>
      <trkpt lat="43.1135030" lon="-6.0490960">
        <ele>710.5</ele>
        <time>2019-09-04T09:46:38Z</time>
      </trkpt>
      <trkpt lat="43.1134260" lon="-6.0490150">
        <ele>710.5</ele>
        <time>2019-09-04T09:46:42Z</time>
      </trkpt>
      <trkpt lat="43.1133700" lon="-6.0489690">
        <ele>710.5</ele>
        <time>2019-09-04T09:46:45Z</time>
      </trkpt>
      <trkpt lat="43.1132830" lon="-6.0489220">
        <ele>712.5</ele>
        <time>2019-09-04T09:46:49Z</time>
      </trkpt>
      <trkpt lat="43.1132260" lon="-6.0488950">
        <ele>712.5</ele>
        <time>2019-09-04T09:46:52Z</time>
      </trkpt>
      <trkpt lat="43.1131550" lon="-6.0488760">
        <ele>712.5</ele>
        <time>2019-09-04T09:46:55Z</time>
      </trkpt>
      <trkpt lat="43.1130680" lon="-6.0488490">
        <ele>712.5</ele>
        <time>2019-09-04T09:46:59Z</time>
      </trkpt>
      <trkpt lat="43.1129860" lon="-6.0488010">
        <ele>712.5</ele>
        <time>2019-09-04T09:47:03Z</time>
      </trkpt>
      <trkpt lat="43.1129090" lon="-6.0487440">
        <ele>712.5</ele>
        <time>2019-09-04T09:47:07Z</time>
      </trkpt>
      <trkpt lat="43.1128220" lon="-6.0486910">
        <ele>714.6</ele>
        <time>2019-09-04T09:47:11Z</time>
      </trkpt>
      <trkpt lat="43.1127300" lon="-6.0486570">
        <ele>714.6</ele>
        <time>2019-09-04T09:47:15Z</time>
      </trkpt>
      <trkpt lat="43.1126530" lon="-6.0486270">
        <ele>714.6</ele>
        <time>2019-09-04T09:47:19Z</time>
      </trkpt>
      <trkpt lat="43.1125810" lon="-6.0486130">
        <ele>714.6</ele>
        <time>2019-09-04T09:47:22Z</time>
      </trkpt>
      <trkpt lat="43.1125040" lon="-6.0486070">
        <ele>714.6</ele>
        <time>2019-09-04T09:47:25Z</time>
      </trkpt>
      <trkpt lat="43.1124020" lon="-6.0485890">
        <ele>714.6</ele>
        <time>2019-09-04T09:47:29Z</time>
      </trkpt>
      <trkpt lat="43.1123050" lon="-6.0485820">
        <ele>716.6</ele>
        <time>2019-09-04T09:47:33Z</time>
      </trkpt>
      <trkpt lat="43.1122530" lon="-6.0485790">
        <ele>716.6</ele>
        <time>2019-09-04T09:47:35Z</time>
      </trkpt>
      <trkpt lat="43.1121460" lon="-6.0485680">
        <ele>716.6</ele>
        <time>2019-09-04T09:47:39Z</time>
      </trkpt>
      <trkpt lat="43.1120950" lon="-6.0485650">
        <ele>716.6</ele>
        <time>2019-09-04T09:47:41Z</time>
      </trkpt>
      <trkpt lat="43.1120440" lon="-6.0485570">
        <ele>716.6</ele>
        <time>2019-09-04T09:47:43Z</time>
      </trkpt>
      <trkpt lat="43.1119460" lon="-6.0485310">
        <ele>716.6</ele>
        <time>2019-09-04T09:47:47Z</time>
      </trkpt>
      <trkpt lat="43.1118950" lon="-6.0485090">
        <ele>718.7</ele>
        <time>2019-09-04T09:47:49Z</time>
      </trkpt>
      <trkpt lat="43.1118440" lon="-6.0484830">
        <ele>718.7</ele>
        <time>2019-09-04T09:47:51Z</time>
      </trkpt>
      <trkpt lat="43.1117930" lon="-6.0484540">
        <ele>718.7</ele>
        <time>2019-09-04T09:47:53Z</time>
      </trkpt>
      <trkpt lat="43.1117210" lon="-6.0484080">
        <ele>718.7</ele>
        <time>2019-09-04T09:47:56Z</time>
      </trkpt>
      <trkpt lat="43.1116800" lon="-6.0483730">
        <ele>718.7</ele>
        <time>2019-09-04T09:47:58Z</time>
      </trkpt>
      <trkpt lat="43.1115930" lon="-6.0483070">
        <ele>718.7</ele>
        <time>2019-09-04T09:48:02Z</time>
      </trkpt>
      <trkpt lat="43.1115520" lon="-6.0482730">
        <ele>718.7</ele>
        <time>2019-09-04T09:48:04Z</time>
      </trkpt>
      <trkpt lat="43.1114600" lon="-6.0482230">
        <ele>720.7</ele>
        <time>2019-09-04T09:48:08Z</time>
      </trkpt>
      <trkpt lat="43.1113980" lon="-6.0482060">
        <ele>720.7</ele>
        <time>2019-09-04T09:48:10Z</time>
      </trkpt>
      <trkpt lat="43.1113420" lon="-6.0481960">
        <ele>720.7</ele>
        <time>2019-09-04T09:48:12Z</time>
      </trkpt>
      <trkpt lat="43.1112860" lon="-6.0481880">
        <ele>720.7</ele>
        <time>2019-09-04T09:48:14Z</time>
      </trkpt>
      <trkpt lat="43.1112290" lon="-6.0481760">
        <ele>720.7</ele>
        <time>2019-09-04T09:48:16Z</time>
      </trkpt>
      <trkpt lat="43.1111730" lon="-6.0481590">
        <ele>720.7</ele>
        <time>2019-09-04T09:48:18Z</time>
      </trkpt>
      <trkpt lat="43.1111220" lon="-6.0481370">
        <ele>720.7</ele>
        <time>2019-09-04T09:48:20Z</time>
      </trkpt>
      <trkpt lat="43.1110250" lon="-6.0480790">
        <ele>720.7</ele>
        <time>2019-09-04T09:48:24Z</time>
      </trkpt>
      <trkpt lat="43.1109680" lon="-6.0480470">
        <ele>724.3</ele>
        <time>2019-09-04T09:48:26Z</time>
      </trkpt>
      <trkpt lat="43.1109170" lon="-6.0480190">
        <ele>724.3</ele>
        <time>2019-09-04T09:48:28Z</time>
      </trkpt>
      <trkpt lat="43.1108660" lon="-6.0479900">
        <ele>724.3</ele>
        <time>2019-09-04T09:48:30Z</time>
      </trkpt>
      <trkpt lat="43.1107740" lon="-6.0479330">
        <ele>724.3</ele>
        <time>2019-09-04T09:48:34Z</time>
      </trkpt>
      <trkpt lat="43.1107280" lon="-6.0479100">
        <ele>724.3</ele>
        <time>2019-09-04T09:48:36Z</time>
      </trkpt>
      <trkpt lat="43.1106410" lon="-6.0478750">
        <ele>724.3</ele>
        <time>2019-09-04T09:48:39Z</time>
      </trkpt>
      <trkpt lat="43.1105890" lon="-6.0478570">
        <ele>724.3</ele>
        <time>2019-09-04T09:48:41Z</time>
      </trkpt>
      <trkpt lat="43.1105330" lon="-6.0478440">
        <ele>727.6</ele>
        <time>2019-09-04T09:48:43Z</time>
      </trkpt>
      <trkpt lat="43.1104560" lon="-6.0478200">
        <ele>727.6</ele>
        <time>2019-09-04T09:48:46Z</time>
      </trkpt>
      <trkpt lat="43.1103690" lon="-6.0477880">
        <ele>727.6</ele>
        <time>2019-09-04T09:48:49Z</time>
      </trkpt>
      <trkpt lat="43.1103130" lon="-6.0477720">
        <ele>727.6</ele>
        <time>2019-09-04T09:48:51Z</time>
      </trkpt>
      <trkpt lat="43.1102620" lon="-6.0477500">
        <ele>727.6</ele>
        <time>2019-09-04T09:48:53Z</time>
      </trkpt>
      <trkpt lat="43.1101800" lon="-6.0477110">
        <ele>727.6</ele>
        <time>2019-09-04T09:48:57Z</time>
      </trkpt>
      <trkpt lat="43.1100830" lon="-6.0476730">
        <ele>731.0</ele>
        <time>2019-09-04T09:49:01Z</time>
      </trkpt>
      <trkpt lat="43.1100310" lon="-6.0476530">
        <ele>731.0</ele>
        <time>2019-09-04T09:49:03Z</time>
      </trkpt>
      <trkpt lat="43.1099750" lon="-6.0476340">
        <ele>731.0</ele>
        <time>2019-09-04T09:49:05Z</time>
      </trkpt>
      <trkpt lat="43.1099190" lon="-6.0476130">
        <ele>731.0</ele>
        <time>2019-09-04T09:49:07Z</time>
      </trkpt>
      <trkpt lat="43.1098680" lon="-6.0475870">
        <ele>731.0</ele>
        <time>2019-09-04T09:49:09Z</time>
      </trkpt>
      <trkpt lat="43.1098160" lon="-6.0475650">
        <ele>731.0</ele>
        <time>2019-09-04T09:49:11Z</time>
      </trkpt>
      <trkpt lat="43.1097400" lon="-6.0475400">
        <ele>734.0</ele>
        <time>2019-09-04T09:49:14Z</time>
      </trkpt>
      <trkpt lat="43.1096880" lon="-6.0475330">
        <ele>734.0</ele>
        <time>2019-09-04T09:49:16Z</time>
      </trkpt>
      <trkpt lat="43.1096120" lon="-6.0475330">
        <ele>734.0</ele>
        <time>2019-09-04T09:49:19Z</time>
      </trkpt>
      <trkpt lat="43.1095600" lon="-6.0475310">
        <ele>734.0</ele>
        <time>2019-09-04T09:49:21Z</time>
      </trkpt>
      <trkpt lat="43.1094680" lon="-6.0475280">
        <ele>734.0</ele>
        <time>2019-09-04T09:49:25Z</time>
      </trkpt>
      <trkpt lat="43.1093710" lon="-6.0475230">
        <ele>734.0</ele>
        <time>2019-09-04T09:49:29Z</time>
      </trkpt>
      <trkpt lat="43.1092890" lon="-6.0475140">
        <ele>737.1</ele>
        <time>2019-09-04T09:49:33Z</time>
      </trkpt>
      <trkpt lat="43.1091970" lon="-6.0474980">
        <ele>737.1</ele>
        <time>2019-09-04T09:49:37Z</time>
      </trkpt>
      <trkpt lat="43.1091100" lon="-6.0474970">
        <ele>737.1</ele>
        <time>2019-09-04T09:49:41Z</time>
      </trkpt>
      <trkpt lat="43.1090640" lon="-6.0475030">
        <ele>737.1</ele>
        <time>2019-09-04T09:49:43Z</time>
      </trkpt>
      <trkpt lat="43.1089920" lon="-6.0475120">
        <ele>740.0</ele>
        <time>2019-09-04T09:49:46Z</time>
      </trkpt>
      <trkpt lat="43.1089410" lon="-6.0475180">
        <ele>740.0</ele>
        <time>2019-09-04T09:49:48Z</time>
      </trkpt>
      <trkpt lat="43.1088840" lon="-6.0475230">
        <ele>740.0</ele>
        <time>2019-09-04T09:49:50Z</time>
      </trkpt>
      <trkpt lat="43.1087820" lon="-6.0475220">
        <ele>740.0</ele>
        <time>2019-09-04T09:49:54Z</time>
      </trkpt>
      <trkpt lat="43.1087360" lon="-6.0475130">
        <ele>740.0</ele>
        <time>2019-09-04T09:49:56Z</time>
      </trkpt>
      <trkpt lat="43.1086440" lon="-6.0474920">
        <ele>740.0</ele>
        <time>2019-09-04T09:50:00Z</time>
      </trkpt>
      <trkpt lat="43.1085770" lon="-6.0474660">
        <ele>743.3</ele>
        <time>2019-09-04T09:50:03Z</time>
      </trkpt>
      <trkpt lat="43.1084850" lon="-6.0474250">
        <ele>743.3</ele>
        <time>2019-09-04T09:50:07Z</time>
      </trkpt>
      <trkpt lat="43.1084390" lon="-6.0474030">
        <ele>743.3</ele>
        <time>2019-09-04T09:50:09Z</time>
      </trkpt>
      <trkpt lat="43.1083470" lon="-6.0473570">
        <ele>743.3</ele>
        <time>2019-09-04T09:50:13Z</time>
      </trkpt>
      <trkpt lat="43.1082750" lon="-6.0473250">
        <ele>743.3</ele>
        <time>2019-09-04T09:50:16Z</time>
      </trkpt>
      <trkpt lat="43.1082290" lon="-6.0473050">
        <ele>746.2</ele>
        <time>2019-09-04T09:50:18Z</time>
      </trkpt>
      <trkpt lat="43.1081780" lon="-6.0472860">
        <ele>746.2</ele>
        <time>2019-09-04T09:50:20Z</time>
      </trkpt>
      <trkpt lat="43.1080960" lon="-6.0472590">
        <ele>746.2</ele>
        <time>2019-09-04T09:50:23Z</time>
      </trkpt>
      <trkpt lat="43.1080450" lon="-6.0472440">
        <ele>746.2</ele>
        <time>2019-09-04T09:50:25Z</time>
      </trkpt>
      <trkpt lat="43.1079940" lon="-6.0472290">
        <ele>746.2</ele>
        <time>2019-09-04T09:50:27Z</time>
      </trkpt>
      <trkpt lat="43.1079120" lon="-6.0472070">
        <ele>746.2</ele>
        <time>2019-09-04T09:50:30Z</time>
      </trkpt>
      <trkpt lat="43.1078660" lon="-6.0471900">
        <ele>746.2</ele>
        <time>2019-09-04T09:50:32Z</time>
      </trkpt>
      <trkpt lat="43.1077680" lon="-6.0471610">
        <ele>749.7</ele>
        <time>2019-09-04T09:50:36Z</time>
      </trkpt>
      <trkpt lat="43.1076710" lon="-6.0471230">
        <ele>749.7</ele>
        <time>2019-09-04T09:50:40Z</time>
      </trkpt>
      <trkpt lat="43.1076150" lon="-6.0471010">
        <ele>749.7</ele>
        <time>2019-09-04T09:50:42Z</time>
      </trkpt>
      <trkpt lat="43.1075690" lon="-6.0470770">
        <ele>749.7</ele>
        <time>2019-09-04T09:50:44Z</time>
      </trkpt>
      <trkpt lat="43.1075170" lon="-6.0470530">
        <ele>749.7</ele>
        <time>2019-09-04T09:50:46Z</time>
      </trkpt>
      <trkpt lat="43.1074660" lon="-6.0470320">
        <ele>749.7</ele>
        <time>2019-09-04T09:50:48Z</time>
      </trkpt>
      <trkpt lat="43.1074150" lon="-6.0470140">
        <ele>753.6</ele>
        <time>2019-09-04T09:50:50Z</time>
      </trkpt>
      <trkpt lat="43.1073640" lon="-6.0469970">
        <ele>753.6</ele>
        <time>2019-09-04T09:50:52Z</time>
      </trkpt>
      <trkpt lat="43.1072920" lon="-6.0469800">
        <ele>753.6</ele>
        <time>2019-09-04T09:50:55Z</time>
      </trkpt>
      <trkpt lat="43.1072150" lon="-6.0469810">
        <ele>753.6</ele>
        <time>2019-09-04T09:50:58Z</time>
      </trkpt>
      <trkpt lat="43.1071540" lon="-6.0469920">
        <ele>753.6</ele>
        <time>2019-09-04T09:51:00Z</time>
      </trkpt>
      <trkpt lat="43.1070980" lon="-6.0470090">
        <ele>753.6</ele>
        <time>2019-09-04T09:51:02Z</time>
      </trkpt>
      <trkpt lat="43.1070460" lon="-6.0470330">
        <ele>753.6</ele>
        <time>2019-09-04T09:51:04Z</time>
      </trkpt>
      <trkpt lat="43.1069850" lon="-6.0470600">
        <ele>757.4</ele>
        <time>2019-09-04T09:51:06Z</time>
      </trkpt>
      <trkpt lat="43.1069290" lon="-6.0470850">
        <ele>757.4</ele>
        <time>2019-09-04T09:51:08Z</time>
      </trkpt>
      <trkpt lat="43.1068770" lon="-6.0471100">
        <ele>757.4</ele>
        <time>2019-09-04T09:51:10Z</time>
      </trkpt>
      <trkpt lat="43.1068210" lon="-6.0471350">
        <ele>757.4</ele>
        <time>2019-09-04T09:51:12Z</time>
      </trkpt>
      <trkpt lat="43.1067650" lon="-6.0471620">
        <ele>757.4</ele>
        <time>2019-09-04T09:51:14Z</time>
      </trkpt>
      <trkpt lat="43.1067140" lon="-6.0471870">
        <ele>757.4</ele>
        <time>2019-09-04T09:51:16Z</time>
      </trkpt>
      <trkpt lat="43.1066270" lon="-6.0472240">
        <ele>757.4</ele>
        <time>2019-09-04T09:51:19Z</time>
      </trkpt>
      <trkpt lat="43.1065650" lon="-6.0472480">
        <ele>757.4</ele>
        <time>2019-09-04T09:51:21Z</time>
      </trkpt>
      <trkpt lat="43.1065090" lon="-6.0472670">
        <ele>760.7</ele>
        <time>2019-09-04T09:51:23Z</time>
      </trkpt>
      <trkpt lat="43.1064520" lon="-6.0472810">
        <ele>760.7</ele>
        <time>2019-09-04T09:51:25Z</time>
      </trkpt>
      <trkpt lat="43.1063960" lon="-6.0472900">
        <ele>760.7</ele>
        <time>2019-09-04T09:51:27Z</time>
      </trkpt>
      <trkpt lat="43.1063350" lon="-6.0472950">
        <ele>760.7</ele>
        <time>2019-09-04T09:51:29Z</time>
      </trkpt>
      <trkpt lat="43.1062680" lon="-6.0472950">
        <ele>760.7</ele>
        <time>2019-09-04T09:51:31Z</time>
      </trkpt>
      <trkpt lat="43.1062120" lon="-6.0472970">
        <ele>760.7</ele>
        <time>2019-09-04T09:51:33Z</time>
      </trkpt>
      <trkpt lat="43.1061500" lon="-6.0473030">
        <ele>760.7</ele>
        <time>2019-09-04T09:51:35Z</time>
      </trkpt>
      <trkpt lat="43.1060580" lon="-6.0473160">
        <ele>764.0</ele>
        <time>2019-09-04T09:51:38Z</time>
      </trkpt>
      <trkpt lat="43.1059970" lon="-6.0473260">
        <ele>764.0</ele>
        <time>2019-09-04T09:51:40Z</time>
      </trkpt>
      <trkpt lat="43.1059300" lon="-6.0473360">
        <ele>764.0</ele>
        <time>2019-09-04T09:51:42Z</time>
      </trkpt>
      <trkpt lat="43.1058330" lon="-6.0473480">
        <ele>764.0</ele>
        <time>2019-09-04T09:51:45Z</time>
      </trkpt>
      <trkpt lat="43.1057310" lon="-6.0473670">
        <ele>764.0</ele>
        <time>2019-09-04T09:51:48Z</time>
      </trkpt>
      <trkpt lat="43.1056640" lon="-6.0473790">
        <ele>764.0</ele>
        <time>2019-09-04T09:51:50Z</time>
      </trkpt>
      <trkpt lat="43.1055920" lon="-6.0473900">
        <ele>764.0</ele>
        <time>2019-09-04T09:51:52Z</time>
      </trkpt>
      <trkpt lat="43.1055210" lon="-6.0473960">
        <ele>767.4</ele>
        <time>2019-09-04T09:51:54Z</time>
      </trkpt>
      <trkpt lat="43.1054030" lon="-6.0473930">
        <ele>767.4</ele>
        <time>2019-09-04T09:51:57Z</time>
      </trkpt>
      <trkpt lat="43.1053260" lon="-6.0473790">
        <ele>767.4</ele>
        <time>2019-09-04T09:51:59Z</time>
      </trkpt>
      <trkpt lat="43.1052490" lon="-6.0473570">
        <ele>767.4</ele>
        <time>2019-09-04T09:52:01Z</time>
      </trkpt>
      <trkpt lat="43.1051720" lon="-6.0473310">
        <ele>767.4</ele>
        <time>2019-09-04T09:52:03Z</time>
      </trkpt>
      <trkpt lat="43.1050550" lon="-6.0472830">
        <ele>767.4</ele>
        <time>2019-09-04T09:52:06Z</time>
      </trkpt>
      <trkpt lat="43.1049780" lon="-6.0472510">
        <ele>767.4</ele>
        <time>2019-09-04T09:52:08Z</time>
      </trkpt>
      <trkpt lat="43.1049060" lon="-6.0472190">
        <ele>770.8</ele>
        <time>2019-09-04T09:52:10Z</time>
      </trkpt>
      <trkpt lat="43.1048290" lon="-6.0471870">
        <ele>770.8</ele>
        <time>2019-09-04T09:52:12Z</time>
      </trkpt>
      <trkpt lat="43.1047580" lon="-6.0471550">
        <ele>770.8</ele>
        <time>2019-09-04T09:52:14Z</time>
      </trkpt>
      <trkpt lat="43.1046810" lon="-6.0471140">
        <ele>770.8</ele>
        <time>2019-09-04T09:52:16Z</time>
      </trkpt>
      <trkpt lat="43.1046040" lon="-6.0470710">
        <ele>770.8</ele>
        <time>2019-09-04T09:52:18Z</time>
      </trkpt>
      <trkpt lat="43.1045320" lon="-6.0470160">
        <ele>770.8</ele>
        <time>2019-09-04T09:52:20Z</time>
      </trkpt>
      <trkpt lat="43.1044510" lon="-6.0469550">
        <ele>770.8</ele>
        <time>2019-09-04T09:52:22Z</time>
      </trkpt>
      <trkpt lat="43.1043740" lon="-6.0469000">
        <ele>770.8</ele>
        <time>2019-09-04T09:52:24Z</time>
      </trkpt>
      <trkpt lat="43.1042870" lon="-6.0468510">
        <ele>774.1</ele>
        <time>2019-09-04T09:52:26Z</time>
      </trkpt>
      <trkpt lat="43.1041890" lon="-6.0468130">
        <ele>774.1</ele>
        <time>2019-09-04T09:52:28Z</time>
      </trkpt>
      <trkpt lat="43.1041430" lon="-6.0467990">
        <ele>774.1</ele>
        <time>2019-09-04T09:52:29Z</time>
      </trkpt>
      <trkpt lat="43.1040510" lon="-6.0467760">
        <ele>774.1</ele>
        <time>2019-09-04T09:52:31Z</time>
      </trkpt>
      <trkpt lat="43.1039030" lon="-6.0467490">
        <ele>774.1</ele>
        <time>2019-09-04T09:52:34Z</time>
      </trkpt>
      <trkpt lat="43.1038000" lon="-6.0467330">
        <ele>774.1</ele>
        <time>2019-09-04T09:52:36Z</time>
      </trkpt>
      <trkpt lat="43.1037490" lon="-6.0467270">
        <ele>774.1</ele>
        <time>2019-09-04T09:52:37Z</time>
      </trkpt>
      <trkpt lat="43.1036470" lon="-6.0467230">
        <ele>774.1</ele>
        <time>2019-09-04T09:52:39Z</time>
      </trkpt>
      <trkpt lat="43.1035900" lon="-6.0467210">
        <ele>774.1</ele>
        <time>2019-09-04T09:52:40Z</time>
      </trkpt>
      <trkpt lat="43.1034980" lon="-6.0467170">
        <ele>777.5</ele>
        <time>2019-09-04T09:52:42Z</time>
      </trkpt>
      <trkpt lat="43.1033500" lon="-6.0466990">
        <ele>777.5</ele>
        <time>2019-09-04T09:52:45Z</time>
      </trkpt>
      <trkpt lat="43.1032680" lon="-6.0466750">
        <ele>777.5</ele>
        <time>2019-09-04T09:52:47Z</time>
      </trkpt>
      <trkpt lat="43.1031860" lon="-6.0466400">
        <ele>777.5</ele>
        <time>2019-09-04T09:52:49Z</time>
      </trkpt>
      <trkpt lat="43.1030780" lon="-6.0465730">
        <ele>777.5</ele>
        <time>2019-09-04T09:52:52Z</time>
      </trkpt>
      <trkpt lat="43.1030220" lon="-6.0465220">
        <ele>777.5</ele>
        <time>2019-09-04T09:52:54Z</time>
      </trkpt>
      <trkpt lat="43.1029400" lon="-6.0464310">
        <ele>777.5</ele>
        <time>2019-09-04T09:52:57Z</time>
      </trkpt>
      <trkpt lat="43.1028840" lon="-6.0463650">
        <ele>780.7</ele>
        <time>2019-09-04T09:52:59Z</time>
      </trkpt>
      <trkpt lat="43.1028120" lon="-6.0462720">
        <ele>780.7</ele>
        <time>2019-09-04T09:53:02Z</time>
      </trkpt>
      <trkpt lat="43.1027400" lon="-6.0461740">
        <ele>780.7</ele>
        <time>2019-09-04T09:53:05Z</time>
      </trkpt>
      <trkpt lat="43.1026890" lon="-6.0461150">
        <ele>780.7</ele>
        <time>2019-09-04T09:53:07Z</time>
      </trkpt>
      <trkpt lat="43.1026380" lon="-6.0460620">
        <ele>780.7</ele>
        <time>2019-09-04T09:53:09Z</time>
      </trkpt>
      <trkpt lat="43.1025820" lon="-6.0460160">
        <ele>780.7</ele>
        <time>2019-09-04T09:53:11Z</time>
      </trkpt>
      <trkpt lat="43.1025250" lon="-6.0459750">
        <ele>780.7</ele>
        <time>2019-09-04T09:53:13Z</time>
      </trkpt>
      <trkpt lat="43.1024380" lon="-6.0459170">
        <ele>784.3</ele>
        <time>2019-09-04T09:53:16Z</time>
      </trkpt>
      <trkpt lat="43.1023460" lon="-6.0458600">
        <ele>784.3</ele>
        <time>2019-09-04T09:53:19Z</time>
      </trkpt>
      <trkpt lat="43.1022590" lon="-6.0458050">
        <ele>784.3</ele>
        <time>2019-09-04T09:53:22Z</time>
      </trkpt>
      <trkpt lat="43.1021720" lon="-6.0457540">
        <ele>784.3</ele>
        <time>2019-09-04T09:53:25Z</time>
      </trkpt>
      <trkpt lat="43.1021210" lon="-6.0457220">
        <ele>784.3</ele>
        <time>2019-09-04T09:53:27Z</time>
      </trkpt>
      <trkpt lat="43.1020650" lon="-6.0456900">
        <ele>784.3</ele>
        <time>2019-09-04T09:53:29Z</time>
      </trkpt>
      <trkpt lat="43.1020030" lon="-6.0456600">
        <ele>787.4</ele>
        <time>2019-09-04T09:53:31Z</time>
      </trkpt>
      <trkpt lat="43.1019060" lon="-6.0456120">
        <ele>787.4</ele>
        <time>2019-09-04T09:53:34Z</time>
      </trkpt>
      <trkpt lat="43.1018440" lon="-6.0455820">
        <ele>787.4</ele>
        <time>2019-09-04T09:53:36Z</time>
      </trkpt>
      <trkpt lat="43.1017880" lon="-6.0455500">
        <ele>787.4</ele>
        <time>2019-09-04T09:53:38Z</time>
      </trkpt>
      <trkpt lat="43.1017270" lon="-6.0455160">
        <ele>787.4</ele>
        <time>2019-09-04T09:53:40Z</time>
      </trkpt>
      <trkpt lat="43.1016700" lon="-6.0454810">
        <ele>787.4</ele>
        <time>2019-09-04T09:53:42Z</time>
      </trkpt>
      <trkpt lat="43.1016140" lon="-6.0454380">
        <ele>787.4</ele>
        <time>2019-09-04T09:53:44Z</time>
      </trkpt>
      <trkpt lat="43.1015680" lon="-6.0453890">
        <ele>790.8</ele>
        <time>2019-09-04T09:53:46Z</time>
      </trkpt>
      <trkpt lat="43.1015270" lon="-6.0453360">
        <ele>790.8</ele>
        <time>2019-09-04T09:53:48Z</time>
      </trkpt>
      <trkpt lat="43.1014860" lon="-6.0452840">
        <ele>790.8</ele>
        <time>2019-09-04T09:53:50Z</time>
      </trkpt>
      <trkpt lat="43.1014450" lon="-6.0452310">
        <ele>790.8</ele>
        <time>2019-09-04T09:53:52Z</time>
      </trkpt>
      <trkpt lat="43.1013790" lon="-6.0451440">
        <ele>790.8</ele>
        <time>2019-09-04T09:53:55Z</time>
      </trkpt>
      <trkpt lat="43.1013380" lon="-6.0450860">
        <ele>790.8</ele>
        <time>2019-09-04T09:53:57Z</time>
      </trkpt>
      <trkpt lat="43.1013020" lon="-6.0450330">
        <ele>790.8</ele>
        <time>2019-09-04T09:53:59Z</time>
      </trkpt>
      <trkpt lat="43.1012610" lon="-6.0449770">
        <ele>790.8</ele>
        <time>2019-09-04T09:54:01Z</time>
      </trkpt>
      <trkpt lat="43.1012100" lon="-6.0448860">
        <ele>793.9</ele>
        <time>2019-09-04T09:54:04Z</time>
      </trkpt>
      <trkpt lat="43.1011790" lon="-6.0448200">
        <ele>793.9</ele>
        <time>2019-09-04T09:54:06Z</time>
      </trkpt>
      <trkpt lat="43.1011430" lon="-6.0447550">
        <ele>793.9</ele>
        <time>2019-09-04T09:54:08Z</time>
      </trkpt>
      <trkpt lat="43.1011170" lon="-6.0446850">
        <ele>793.9</ele>
        <time>2019-09-04T09:54:10Z</time>
      </trkpt>
      <trkpt lat="43.1010920" lon="-6.0446090">
        <ele>793.9</ele>
        <time>2019-09-04T09:54:12Z</time>
      </trkpt>
      <trkpt lat="43.1010710" lon="-6.0445350">
        <ele>793.9</ele>
        <time>2019-09-04T09:54:14Z</time>
      </trkpt>
      <trkpt lat="43.1010560" lon="-6.0444620">
        <ele>793.9</ele>
        <time>2019-09-04T09:54:16Z</time>
      </trkpt>
      <trkpt lat="43.1010360" lon="-6.0443870">
        <ele>797.0</ele>
        <time>2019-09-04T09:54:18Z</time>
      </trkpt>
      <trkpt lat="43.1010200" lon="-6.0443080">
        <ele>797.0</ele>
        <time>2019-09-04T09:54:20Z</time>
      </trkpt>
      <trkpt lat="43.1010050" lon="-6.0442300">
        <ele>797.0</ele>
        <time>2019-09-04T09:54:22Z</time>
      </trkpt>
      <trkpt lat="43.1009890" lon="-6.0441570">
        <ele>797.0</ele>
        <time>2019-09-04T09:54:24Z</time>
      </trkpt>
      <trkpt lat="43.1009690" lon="-6.0440840">
        <ele>797.0</ele>
        <time>2019-09-04T09:54:26Z</time>
      </trkpt>
      <trkpt lat="43.1009480" lon="-6.0440130">
        <ele>797.0</ele>
        <time>2019-09-04T09:54:28Z</time>
      </trkpt>
      <trkpt lat="43.1009280" lon="-6.0439380">
        <ele>797.0</ele>
        <time>2019-09-04T09:54:30Z</time>
      </trkpt>
      <trkpt lat="43.1008970" lon="-6.0438250">
        <ele>797.0</ele>
        <time>2019-09-04T09:54:33Z</time>
      </trkpt>
      <trkpt lat="43.1008720" lon="-6.0437520">
        <ele>800.0</ele>
        <time>2019-09-04T09:54:35Z</time>
      </trkpt>
      <trkpt lat="43.1008510" lon="-6.0436780">
        <ele>800.0</ele>
        <time>2019-09-04T09:54:37Z</time>
      </trkpt>
      <trkpt lat="43.1008310" lon="-6.0436030">
        <ele>800.0</ele>
        <time>2019-09-04T09:54:39Z</time>
      </trkpt>
      <trkpt lat="43.1007950" lon="-6.0434920">
        <ele>800.0</ele>
        <time>2019-09-04T09:54:42Z</time>
      </trkpt>
      <trkpt lat="43.1007740" lon="-6.0434230">
        <ele>800.0</ele>
        <time>2019-09-04T09:54:44Z</time>
      </trkpt>
      <trkpt lat="43.1007490" lon="-6.0433590">
        <ele>800.0</ele>
        <time>2019-09-04T09:54:46Z</time>
      </trkpt>
      <trkpt lat="43.1007230" lon="-6.0432930">
        <ele>800.0</ele>
        <time>2019-09-04T09:54:48Z</time>
      </trkpt>
      <trkpt lat="43.1006920" lon="-6.0432260">
        <ele>802.9</ele>
        <time>2019-09-04T09:54:50Z</time>
      </trkpt>
      <trkpt lat="43.1006520" lon="-6.0431260">
        <ele>802.9</ele>
        <time>2019-09-04T09:54:53Z</time>
      </trkpt>
      <trkpt lat="43.1006110" lon="-6.0430210">
        <ele>802.9</ele>
        <time>2019-09-04T09:54:56Z</time>
      </trkpt>
      <trkpt lat="43.1005900" lon="-6.0429500">
        <ele>802.9</ele>
        <time>2019-09-04T09:54:58Z</time>
      </trkpt>
      <trkpt lat="43.1005640" lon="-6.0428770">
        <ele>802.9</ele>
        <time>2019-09-04T09:55:00Z</time>
      </trkpt>
      <trkpt lat="43.1005440" lon="-6.0428030">
        <ele>802.9</ele>
        <time>2019-09-04T09:55:02Z</time>
      </trkpt>
      <trkpt lat="43.1005240" lon="-6.0427290">
        <ele>802.9</ele>
        <time>2019-09-04T09:55:04Z</time>
      </trkpt>
      <trkpt lat="43.1005030" lon="-6.0426580">
        <ele>806.0</ele>
        <time>2019-09-04T09:55:06Z</time>
      </trkpt>
      <trkpt lat="43.1004880" lon="-6.0425830">
        <ele>806.0</ele>
        <time>2019-09-04T09:55:08Z</time>
      </trkpt>
      <trkpt lat="43.1004720" lon="-6.0425090">
        <ele>806.0</ele>
        <time>2019-09-04T09:55:10Z</time>
      </trkpt>
      <trkpt lat="43.1004520" lon="-6.0424360">
        <ele>806.0</ele>
        <time>2019-09-04T09:55:12Z</time>
      </trkpt>
      <trkpt lat="43.1004310" lon="-6.0423640">
        <ele>806.0</ele>
        <time>2019-09-04T09:55:14Z</time>
      </trkpt>
      <trkpt lat="43.1004110" lon="-6.0422910">
        <ele>806.0</ele>
        <time>2019-09-04T09:55:16Z</time>
      </trkpt>
      <trkpt lat="43.1003900" lon="-6.0422170">
        <ele>806.0</ele>
        <time>2019-09-04T09:55:18Z</time>
      </trkpt>
      <trkpt lat="43.1003700" lon="-6.0421460">
        <ele>806.0</ele>
        <time>2019-09-04T09:55:20Z</time>
      </trkpt>
      <trkpt lat="43.1003440" lon="-6.0420730">
        <ele>809.0</ele>
        <time>2019-09-04T09:55:22Z</time>
      </trkpt>
      <trkpt lat="43.1003240" lon="-6.0420040">
        <ele>809.0</ele>
        <time>2019-09-04T09:55:24Z</time>
      </trkpt>
      <trkpt lat="43.1002980" lon="-6.0419370">
        <ele>809.0</ele>
        <time>2019-09-04T09:55:26Z</time>
      </trkpt>
      <trkpt lat="43.1002730" lon="-6.0418730">
        <ele>809.0</ele>
        <time>2019-09-04T09:55:28Z</time>
      </trkpt>
      <trkpt lat="43.1002470" lon="-6.0418100">
        <ele>809.0</ele>
        <time>2019-09-04T09:55:30Z</time>
      </trkpt>
      <trkpt lat="43.1001960" lon="-6.0417200">
        <ele>809.0</ele>
        <time>2019-09-04T09:55:33Z</time>
      </trkpt>
      <trkpt lat="43.1001600" lon="-6.0416630">
        <ele>809.0</ele>
        <time>2019-09-04T09:55:35Z</time>
      </trkpt>
      <trkpt lat="43.1000880" lon="-6.0415880">
        <ele>812.4</ele>
        <time>2019-09-04T09:55:38Z</time>
      </trkpt>
      <trkpt lat="43.1000420" lon="-6.0415510">
        <ele>812.4</ele>
        <time>2019-09-04T09:55:40Z</time>
      </trkpt>
      <trkpt lat="43.0999600" lon="-6.0415160">
        <ele>812.4</ele>
        <time>2019-09-04T09:55:43Z</time>
      </trkpt>
      <trkpt lat="43.0999040" lon="-6.0415010">
        <ele>812.4</ele>
        <time>2019-09-04T09:55:45Z</time>
      </trkpt>
      <trkpt lat="43.0998430" lon="-6.0414920">
        <ele>812.4</ele>
        <time>2019-09-04T09:55:47Z</time>
      </trkpt>
      <trkpt lat="43.0997810" lon="-6.0414920">
        <ele>812.4</ele>
        <time>2019-09-04T09:55:49Z</time>
      </trkpt>
      <trkpt lat="43.0997200" lon="-6.0414970">
        <ele>812.4</ele>
        <time>2019-09-04T09:55:51Z</time>
      </trkpt>
      <trkpt lat="43.0996580" lon="-6.0415030">
        <ele>812.4</ele>
        <time>2019-09-04T09:55:53Z</time>
      </trkpt>
      <trkpt lat="43.0996070" lon="-6.0415110">
        <ele>815.2</ele>
        <time>2019-09-04T09:55:55Z</time>
      </trkpt>
      <trkpt lat="43.0995510" lon="-6.0415160">
        <ele>815.2</ele>
        <time>2019-09-04T09:55:57Z</time>
      </trkpt>
      <trkpt lat="43.0994890" lon="-6.0415230">
        <ele>815.2</ele>
        <time>2019-09-04T09:55:59Z</time>
      </trkpt>
      <trkpt lat="43.0994380" lon="-6.0415300">
        <ele>815.2</ele>
        <time>2019-09-04T09:56:01Z</time>
      </trkpt>
      <trkpt lat="43.0993820" lon="-6.0415400">
        <ele>815.2</ele>
        <time>2019-09-04T09:56:03Z</time>
      </trkpt>
      <trkpt lat="43.0993250" lon="-6.0415560">
        <ele>815.2</ele>
        <time>2019-09-04T09:56:05Z</time>
      </trkpt>
      <trkpt lat="43.0992490" lon="-6.0415880">
        <ele>815.2</ele>
        <time>2019-09-04T09:56:08Z</time>
      </trkpt>
      <trkpt lat="43.0991920" lon="-6.0416170">
        <ele>818.0</ele>
        <time>2019-09-04T09:56:10Z</time>
      </trkpt>
      <trkpt lat="43.0991460" lon="-6.0416500">
        <ele>818.0</ele>
        <time>2019-09-04T09:56:12Z</time>
      </trkpt>
      <trkpt lat="43.0991000" lon="-6.0416900">
        <ele>818.0</ele>
        <time>2019-09-04T09:56:14Z</time>
      </trkpt>
      <trkpt lat="43.0990440" lon="-6.0417680">
        <ele>818.0</ele>
        <time>2019-09-04T09:56:17Z</time>
      </trkpt>
      <trkpt lat="43.0990130" lon="-6.0418340">
        <ele>818.0</ele>
        <time>2019-09-04T09:56:19Z</time>
      </trkpt>
      <trkpt lat="43.0989980" lon="-6.0419000">
        <ele>818.0</ele>
        <time>2019-09-04T09:56:21Z</time>
      </trkpt>
      <trkpt lat="43.0989820" lon="-6.0419780">
        <ele>818.0</ele>
        <time>2019-09-04T09:56:23Z</time>
      </trkpt>
      <trkpt lat="43.0989670" lon="-6.0420890">
        <ele>821.0</ele>
        <time>2019-09-04T09:56:26Z</time>
      </trkpt>
      <trkpt lat="43.0989520" lon="-6.0421610">
        <ele>821.0</ele>
        <time>2019-09-04T09:56:28Z</time>
      </trkpt>
      <trkpt lat="43.0989360" lon="-6.0422320">
        <ele>821.0</ele>
        <time>2019-09-04T09:56:30Z</time>
      </trkpt>
      <trkpt lat="43.0989060" lon="-6.0423030">
        <ele>821.0</ele>
        <time>2019-09-04T09:56:32Z</time>
      </trkpt>
      <trkpt lat="43.0988650" lon="-6.0424030">
        <ele>821.0</ele>
        <time>2019-09-04T09:56:35Z</time>
      </trkpt>
      <trkpt lat="43.0988340" lon="-6.0424680">
        <ele>821.0</ele>
        <time>2019-09-04T09:56:37Z</time>
      </trkpt>
      <trkpt lat="43.0988030" lon="-6.0425310">
        <ele>821.0</ele>
        <time>2019-09-04T09:56:39Z</time>
      </trkpt>
      <trkpt lat="43.0987420" lon="-6.0426210">
        <ele>824.2</ele>
        <time>2019-09-04T09:56:42Z</time>
      </trkpt>
      <trkpt lat="43.0987060" lon="-6.0426730">
        <ele>824.2</ele>
        <time>2019-09-04T09:56:44Z</time>
      </trkpt>
      <trkpt lat="43.0986340" lon="-6.0427460">
        <ele>824.2</ele>
        <time>2019-09-04T09:56:47Z</time>
      </trkpt>
      <trkpt lat="43.0985680" lon="-6.0428060">
        <ele>824.2</ele>
        <time>2019-09-04T09:56:50Z</time>
      </trkpt>
      <trkpt lat="43.0985160" lon="-6.0428430">
        <ele>824.2</ele>
        <time>2019-09-04T09:56:52Z</time>
      </trkpt>
      <trkpt lat="43.0984650" lon="-6.0428720">
        <ele>824.2</ele>
        <time>2019-09-04T09:56:54Z</time>
      </trkpt>
      <trkpt lat="43.0984140" lon="-6.0428980">
        <ele>824.2</ele>
        <time>2019-09-04T09:56:56Z</time>
      </trkpt>
      <trkpt lat="43.0983630" lon="-6.0429200">
        <ele>827.4</ele>
        <time>2019-09-04T09:56:58Z</time>
      </trkpt>
      <trkpt lat="43.0983070" lon="-6.0429450">
        <ele>827.4</ele>
        <time>2019-09-04T09:57:00Z</time>
      </trkpt>
      <trkpt lat="43.0982500" lon="-6.0429730">
        <ele>827.4</ele>
        <time>2019-09-04T09:57:02Z</time>
      </trkpt>
      <trkpt lat="43.0982040" lon="-6.0430030">
        <ele>827.4</ele>
        <time>2019-09-04T09:57:04Z</time>
      </trkpt>
      <trkpt lat="43.0981530" lon="-6.0430420">
        <ele>827.4</ele>
        <time>2019-09-04T09:57:06Z</time>
      </trkpt>
      <trkpt lat="43.0981070" lon="-6.0430840">
        <ele>827.4</ele>
        <time>2019-09-04T09:57:08Z</time>
      </trkpt>
      <trkpt lat="43.0980560" lon="-6.0431240">
        <ele>827.4</ele>
        <time>2019-09-04T09:57:10Z</time>
      </trkpt>
      <trkpt lat="43.0980100" lon="-6.0431560">
        <ele>827.4</ele>
        <time>2019-09-04T09:57:12Z</time>
      </trkpt>
      <trkpt lat="43.0979280" lon="-6.0431900">
        <ele>830.4</ele>
        <time>2019-09-04T09:57:15Z</time>
      </trkpt>
      <trkpt lat="43.0978710" lon="-6.0432080">
        <ele>830.4</ele>
        <time>2019-09-04T09:57:17Z</time>
      </trkpt>
      <trkpt lat="43.0977840" lon="-6.0432370">
        <ele>830.4</ele>
        <time>2019-09-04T09:57:20Z</time>
      </trkpt>
      <trkpt lat="43.0977230" lon="-6.0432580">
        <ele>830.4</ele>
        <time>2019-09-04T09:57:22Z</time>
      </trkpt>
      <trkpt lat="43.0976310" lon="-6.0432880">
        <ele>830.4</ele>
        <time>2019-09-04T09:57:25Z</time>
      </trkpt>
      <trkpt lat="43.0975740" lon="-6.0433090">
        <ele>830.4</ele>
        <time>2019-09-04T09:57:27Z</time>
      </trkpt>
      <trkpt lat="43.0975130" lon="-6.0433380">
        <ele>830.4</ele>
        <time>2019-09-04T09:57:29Z</time>
      </trkpt>
      <trkpt lat="43.0974520" lon="-6.0433730">
        <ele>833.4</ele>
        <time>2019-09-04T09:57:31Z</time>
      </trkpt>
      <trkpt lat="43.0974000" lon="-6.0434180">
        <ele>833.4</ele>
        <time>2019-09-04T09:57:33Z</time>
      </trkpt>
      <trkpt lat="43.0973540" lon="-6.0434750">
        <ele>833.4</ele>
        <time>2019-09-04T09:57:35Z</time>
      </trkpt>
      <trkpt lat="43.0973180" lon="-6.0435450">
        <ele>833.4</ele>
        <time>2019-09-04T09:57:37Z</time>
      </trkpt>
      <trkpt lat="43.0972880" lon="-6.0436280">
        <ele>833.4</ele>
        <time>2019-09-04T09:57:39Z</time>
      </trkpt>
      <trkpt lat="43.0972720" lon="-6.0437130">
        <ele>833.4</ele>
        <time>2019-09-04T09:57:41Z</time>
      </trkpt>
      <trkpt lat="43.0972720" lon="-6.0437990">
        <ele>833.4</ele>
        <time>2019-09-04T09:57:43Z</time>
      </trkpt>
      <trkpt lat="43.0972720" lon="-6.0438800">
        <ele>833.4</ele>
        <time>2019-09-04T09:57:45Z</time>
      </trkpt>
      <trkpt lat="43.0972880" lon="-6.0439670">
        <ele>836.5</ele>
        <time>2019-09-04T09:57:47Z</time>
      </trkpt>
      <trkpt lat="43.0973030" lon="-6.0440560">
        <ele>836.5</ele>
        <time>2019-09-04T09:57:49Z</time>
      </trkpt>
      <trkpt lat="43.0973340" lon="-6.0441900">
        <ele>836.5</ele>
        <time>2019-09-04T09:57:52Z</time>
      </trkpt>
      <trkpt lat="43.0973440" lon="-6.0442840">
        <ele>836.5</ele>
        <time>2019-09-04T09:57:54Z</time>
      </trkpt>
      <trkpt lat="43.0973490" lon="-6.0443740">
        <ele>836.5</ele>
        <time>2019-09-04T09:57:56Z</time>
      </trkpt>
      <trkpt lat="43.0973390" lon="-6.0444560">
        <ele>836.5</ele>
        <time>2019-09-04T09:57:58Z</time>
      </trkpt>
      <trkpt lat="43.0973180" lon="-6.0445430">
        <ele>836.5</ele>
        <time>2019-09-04T09:58:00Z</time>
      </trkpt>
      <trkpt lat="43.0972930" lon="-6.0446250">
        <ele>839.4</ele>
        <time>2019-09-04T09:58:02Z</time>
      </trkpt>
      <trkpt lat="43.0972620" lon="-6.0447080">
        <ele>839.4</ele>
        <time>2019-09-04T09:58:04Z</time>
      </trkpt>
      <trkpt lat="43.0972210" lon="-6.0447900">
        <ele>839.4</ele>
        <time>2019-09-04T09:58:06Z</time>
      </trkpt>
      <trkpt lat="43.0971800" lon="-6.0448700">
        <ele>839.4</ele>
        <time>2019-09-04T09:58:08Z</time>
      </trkpt>
      <trkpt lat="43.0971140" lon="-6.0449800">
        <ele>839.4</ele>
        <time>2019-09-04T09:58:11Z</time>
      </trkpt>
      <trkpt lat="43.0970270" lon="-6.0450590">
        <ele>839.4</ele>
        <time>2019-09-04T09:58:14Z</time>
      </trkpt>
      <trkpt lat="43.0969600" lon="-6.0450770">
        <ele>839.4</ele>
        <time>2019-09-04T09:58:16Z</time>
      </trkpt>
      <trkpt lat="43.0968880" lon="-6.0450580">
        <ele>842.4</ele>
        <time>2019-09-04T09:58:18Z</time>
      </trkpt>
      <trkpt lat="43.0968270" lon="-6.0450010">
        <ele>842.4</ele>
        <time>2019-09-04T09:58:20Z</time>
      </trkpt>
      <trkpt lat="43.0967810" lon="-6.0449160">
        <ele>842.4</ele>
        <time>2019-09-04T09:58:22Z</time>
      </trkpt>
      <trkpt lat="43.0967600" lon="-6.0448050">
        <ele>842.4</ele>
        <time>2019-09-04T09:58:24Z</time>
      </trkpt>
      <trkpt lat="43.0967650" lon="-6.0446860">
        <ele>842.4</ele>
        <time>2019-09-04T09:58:26Z</time>
      </trkpt>
      <trkpt lat="43.0967810" lon="-6.0445700">
        <ele>842.4</ele>
        <time>2019-09-04T09:58:28Z</time>
      </trkpt>
      <trkpt lat="43.0968060" lon="-6.0444510">
        <ele>842.4</ele>
        <time>2019-09-04T09:58:30Z</time>
      </trkpt>
      <trkpt lat="43.0968270" lon="-6.0443360">
        <ele>842.4</ele>
        <time>2019-09-04T09:58:32Z</time>
      </trkpt>
      <trkpt lat="43.0968520" lon="-6.0442150">
        <ele>845.0</ele>
        <time>2019-09-04T09:58:34Z</time>
      </trkpt>
      <trkpt lat="43.0968580" lon="-6.0440450">
        <ele>845.0</ele>
        <time>2019-09-04T09:58:37Z</time>
      </trkpt>
      <trkpt lat="43.0968420" lon="-6.0438750">
        <ele>845.0</ele>
        <time>2019-09-04T09:58:40Z</time>
      </trkpt>
      <trkpt lat="43.0968270" lon="-6.0437710">
        <ele>845.0</ele>
        <time>2019-09-04T09:58:42Z</time>
      </trkpt>
      <trkpt lat="43.0968170" lon="-6.0436720">
        <ele>845.0</ele>
        <time>2019-09-04T09:58:44Z</time>
      </trkpt>
      <trkpt lat="43.0968120" lon="-6.0435850">
        <ele>845.0</ele>
        <time>2019-09-04T09:58:46Z</time>
      </trkpt>
      <trkpt lat="43.0968220" lon="-6.0434920">
        <ele>845.0</ele>
        <time>2019-09-04T09:58:48Z</time>
      </trkpt>
      <trkpt lat="43.0968370" lon="-6.0434030">
        <ele>847.5</ele>
        <time>2019-09-04T09:58:50Z</time>
      </trkpt>
      <trkpt lat="43.0968630" lon="-6.0432640">
        <ele>847.5</ele>
        <time>2019-09-04T09:58:53Z</time>
      </trkpt>
      <trkpt lat="43.0968830" lon="-6.0431810">
        <ele>847.5</ele>
        <time>2019-09-04T09:58:55Z</time>
      </trkpt>
      <trkpt lat="43.0969140" lon="-6.0430570">
        <ele>847.5</ele>
        <time>2019-09-04T09:58:58Z</time>
      </trkpt>
      <trkpt lat="43.0969450" lon="-6.0429840">
        <ele>847.5</ele>
        <time>2019-09-04T09:59:00Z</time>
      </trkpt>
      <trkpt lat="43.0969750" lon="-6.0429150">
        <ele>847.5</ele>
        <time>2019-09-04T09:59:02Z</time>
      </trkpt>
      <trkpt lat="43.0970160" lon="-6.0428510">
        <ele>847.5</ele>
        <time>2019-09-04T09:59:04Z</time>
      </trkpt>
      <trkpt lat="43.0970780" lon="-6.0427580">
        <ele>850.3</ele>
        <time>2019-09-04T09:59:07Z</time>
      </trkpt>
      <trkpt lat="43.0971440" lon="-6.0426640">
        <ele>850.3</ele>
        <time>2019-09-04T09:59:10Z</time>
      </trkpt>
      <trkpt lat="43.0971850" lon="-6.0425630">
        <ele>850.3</ele>
        <time>2019-09-04T09:59:13Z</time>
      </trkpt>
      <trkpt lat="43.0971800" lon="-6.0424620">
        <ele>850.3</ele>
        <time>2019-09-04T09:59:16Z</time>
      </trkpt>
      <trkpt lat="43.0971290" lon="-6.0423930">
        <ele>850.3</ele>
        <time>2019-09-04T09:59:19Z</time>
      </trkpt>
      <trkpt lat="43.0970570" lon="-6.0423600">
        <ele>853.4</ele>
        <time>2019-09-04T09:59:22Z</time>
      </trkpt>
      <trkpt lat="43.0970060" lon="-6.0423550">
        <ele>853.4</ele>
        <time>2019-09-04T09:59:24Z</time>
      </trkpt>
      <trkpt lat="43.0969500" lon="-6.0423560">
        <ele>853.4</ele>
        <time>2019-09-04T09:59:26Z</time>
      </trkpt>
      <trkpt lat="43.0968930" lon="-6.0423540">
        <ele>853.4</ele>
        <time>2019-09-04T09:59:28Z</time>
      </trkpt>
      <trkpt lat="43.0968060" lon="-6.0423410">
        <ele>853.4</ele>
        <time>2019-09-04T09:59:31Z</time>
      </trkpt>
      <trkpt lat="43.0967500" lon="-6.0423240">
        <ele>853.4</ele>
        <time>2019-09-04T09:59:33Z</time>
      </trkpt>
      <trkpt lat="43.0966990" lon="-6.0423070">
        <ele>853.4</ele>
        <time>2019-09-04T09:59:35Z</time>
      </trkpt>
      <trkpt lat="43.0966480" lon="-6.0422920">
        <ele>853.4</ele>
        <time>2019-09-04T09:59:37Z</time>
      </trkpt>
      <trkpt lat="43.0965910" lon="-6.0422850">
        <ele>856.4</ele>
        <time>2019-09-04T09:59:39Z</time>
      </trkpt>
      <trkpt lat="43.0965400" lon="-6.0422980">
        <ele>856.4</ele>
        <time>2019-09-04T09:59:41Z</time>
      </trkpt>
      <trkpt lat="43.0964940" lon="-6.0423240">
        <ele>856.4</ele>
        <time>2019-09-04T09:59:43Z</time>
      </trkpt>
      <trkpt lat="43.0964220" lon="-6.0424150">
        <ele>856.4</ele>
        <time>2019-09-04T09:59:47Z</time>
      </trkpt>
      <trkpt lat="43.0963560" lon="-6.0425230">
        <ele>856.4</ele>
        <time>2019-09-04T09:59:51Z</time>
      </trkpt>
      <trkpt lat="43.0963000" lon="-6.0425990">
        <ele>859.5</ele>
        <time>2019-09-04T09:59:54Z</time>
      </trkpt>
      <trkpt lat="43.0962430" lon="-6.0426700">
        <ele>859.5</ele>
        <time>2019-09-04T09:59:57Z</time>
      </trkpt>
      <trkpt lat="43.0962070" lon="-6.0427140">
        <ele>859.5</ele>
        <time>2019-09-04T09:59:59Z</time>
      </trkpt>
      <trkpt lat="43.0961250" lon="-6.0427990">
        <ele>859.5</ele>
        <time>2019-09-04T10:00:03Z</time>
      </trkpt>
      <trkpt lat="43.0960900" lon="-6.0428420">
        <ele>859.5</ele>
        <time>2019-09-04T10:00:05Z</time>
      </trkpt>
      <trkpt lat="43.0960080" lon="-6.0429090">
        <ele>859.5</ele>
        <time>2019-09-04T10:00:09Z</time>
      </trkpt>
      <trkpt lat="43.0959620" lon="-6.0429290">
        <ele>862.6</ele>
        <time>2019-09-04T10:00:11Z</time>
      </trkpt>
      <trkpt lat="43.0958590" lon="-6.0429270">
        <ele>862.6</ele>
        <time>2019-09-04T10:00:15Z</time>
      </trkpt>
      <trkpt lat="43.0957770" lon="-6.0428450">
        <ele>862.6</ele>
        <time>2019-09-04T10:00:19Z</time>
      </trkpt>
      <trkpt lat="43.0957620" lon="-6.0427850">
        <ele>862.6</ele>
        <time>2019-09-04T10:00:21Z</time>
      </trkpt>
      <trkpt lat="43.0957770" lon="-6.0426590">
        <ele>862.6</ele>
        <time>2019-09-04T10:00:25Z</time>
      </trkpt>
      <trkpt lat="43.0958030" lon="-6.0426000">
        <ele>865.9</ele>
        <time>2019-09-04T10:00:27Z</time>
      </trkpt>
      <trkpt lat="43.0958690" lon="-6.0424880">
        <ele>865.9</ele>
        <time>2019-09-04T10:00:31Z</time>
      </trkpt>
      <trkpt lat="43.0959100" lon="-6.0424350">
        <ele>865.9</ele>
        <time>2019-09-04T10:00:33Z</time>
      </trkpt>
      <trkpt lat="43.0959410" lon="-6.0423820">
        <ele>865.9</ele>
        <time>2019-09-04T10:00:35Z</time>
      </trkpt>
      <trkpt lat="43.0959870" lon="-6.0422940">
        <ele>865.9</ele>
        <time>2019-09-04T10:00:38Z</time>
      </trkpt>
      <trkpt lat="43.0960440" lon="-6.0421680">
        <ele>869.1</ele>
        <time>2019-09-04T10:00:42Z</time>
      </trkpt>
      <trkpt lat="43.0960690" lon="-6.0420990">
        <ele>869.1</ele>
        <time>2019-09-04T10:00:44Z</time>
      </trkpt>
      <trkpt lat="43.0961050" lon="-6.0420040">
        <ele>869.1</ele>
        <time>2019-09-04T10:00:47Z</time>
      </trkpt>
      <trkpt lat="43.0961360" lon="-6.0419410">
        <ele>869.1</ele>
        <time>2019-09-04T10:00:49Z</time>
      </trkpt>
      <trkpt lat="43.0961660" lon="-6.0418820">
        <ele>869.1</ele>
        <time>2019-09-04T10:00:51Z</time>
      </trkpt>
      <trkpt lat="43.0962020" lon="-6.0418280">
        <ele>869.1</ele>
        <time>2019-09-04T10:00:53Z</time>
      </trkpt>
      <trkpt lat="43.0962890" lon="-6.0417470">
        <ele>869.1</ele>
        <time>2019-09-04T10:00:57Z</time>
      </trkpt>
      <trkpt lat="43.0963300" lon="-6.0417110">
        <ele>872.1</ele>
        <time>2019-09-04T10:00:59Z</time>
      </trkpt>
      <trkpt lat="43.0963760" lon="-6.0416730">
        <ele>872.1</ele>
        <time>2019-09-04T10:01:01Z</time>
      </trkpt>
      <trkpt lat="43.0964220" lon="-6.0416370">
        <ele>872.1</ele>
        <time>2019-09-04T10:01:03Z</time>
      </trkpt>
      <trkpt lat="43.0964680" lon="-6.0416000">
        <ele>872.1</ele>
        <time>2019-09-04T10:01:05Z</time>
      </trkpt>
      <trkpt lat="43.0965150" lon="-6.0415660">
        <ele>872.1</ele>
        <time>2019-09-04T10:01:07Z</time>
      </trkpt>
      <trkpt lat="43.0966020" lon="-6.0414910">
        <ele>872.1</ele>
        <time>2019-09-04T10:01:11Z</time>
      </trkpt>
      <trkpt lat="43.0966430" lon="-6.0414450">
        <ele>872.1</ele>
        <time>2019-09-04T10:01:13Z</time>
      </trkpt>
      <trkpt lat="43.0966940" lon="-6.0413650">
        <ele>875.2</ele>
        <time>2019-09-04T10:01:16Z</time>
      </trkpt>
      <trkpt lat="43.0967400" lon="-6.0412740">
        <ele>875.2</ele>
        <time>2019-09-04T10:01:19Z</time>
      </trkpt>
      <trkpt lat="43.0967650" lon="-6.0412130">
        <ele>875.2</ele>
        <time>2019-09-04T10:01:21Z</time>
      </trkpt>
      <trkpt lat="43.0968270" lon="-6.0410860">
        <ele>875.2</ele>
        <time>2019-09-04T10:01:25Z</time>
      </trkpt>
      <trkpt lat="43.0968580" lon="-6.0410230">
        <ele>875.2</ele>
        <time>2019-09-04T10:01:27Z</time>
      </trkpt>
      <trkpt lat="43.0968830" lon="-6.0409650">
        <ele>875.2</ele>
        <time>2019-09-04T10:01:29Z</time>
      </trkpt>
      <trkpt lat="43.0969190" lon="-6.0409100">
        <ele>878.3</ele>
        <time>2019-09-04T10:01:31Z</time>
      </trkpt>
      <trkpt lat="43.0969910" lon="-6.0407990">
        <ele>878.3</ele>
        <time>2019-09-04T10:01:35Z</time>
      </trkpt>
      <trkpt lat="43.0970320" lon="-6.0407540">
        <ele>878.3</ele>
        <time>2019-09-04T10:01:37Z</time>
      </trkpt>
      <trkpt lat="43.0970780" lon="-6.0407120">
        <ele>878.3</ele>
        <time>2019-09-04T10:01:39Z</time>
      </trkpt>
      <trkpt lat="43.0971190" lon="-6.0406720">
        <ele>878.3</ele>
        <time>2019-09-04T10:01:41Z</time>
      </trkpt>
      <trkpt lat="43.0971700" lon="-6.0406370">
        <ele>878.3</ele>
        <time>2019-09-04T10:01:43Z</time>
      </trkpt>
      <trkpt lat="43.0972160" lon="-6.0406020">
        <ele>878.3</ele>
        <time>2019-09-04T10:01:45Z</time>
      </trkpt>
      <trkpt lat="43.0972620" lon="-6.0405640">
        <ele>881.3</ele>
        <time>2019-09-04T10:01:47Z</time>
      </trkpt>
      <trkpt lat="43.0973030" lon="-6.0405180">
        <ele>881.3</ele>
        <time>2019-09-04T10:01:49Z</time>
      </trkpt>
      <trkpt lat="43.0973390" lon="-6.0404630">
        <ele>881.3</ele>
        <time>2019-09-04T10:01:51Z</time>
      </trkpt>
      <trkpt lat="43.0973640" lon="-6.0404030">
        <ele>881.3</ele>
        <time>2019-09-04T10:01:53Z</time>
      </trkpt>
      <trkpt lat="43.0973800" lon="-6.0403320">
        <ele>881.3</ele>
        <time>2019-09-04T10:01:55Z</time>
      </trkpt>
      <trkpt lat="43.0973750" lon="-6.0402660">
        <ele>881.3</ele>
        <time>2019-09-04T10:01:57Z</time>
      </trkpt>
      <trkpt lat="43.0973490" lon="-6.0401260">
        <ele>881.3</ele>
        <time>2019-09-04T10:02:01Z</time>
      </trkpt>
      <trkpt lat="43.0973290" lon="-6.0400580">
        <ele>884.3</ele>
        <time>2019-09-04T10:02:03Z</time>
      </trkpt>
      <trkpt lat="43.0973030" lon="-6.0399890">
        <ele>884.3</ele>
        <time>2019-09-04T10:02:05Z</time>
      </trkpt>
      <trkpt lat="43.0972720" lon="-6.0399280">
        <ele>884.3</ele>
        <time>2019-09-04T10:02:07Z</time>
      </trkpt>
      <trkpt lat="43.0972470" lon="-6.0398680">
        <ele>884.3</ele>
        <time>2019-09-04T10:02:09Z</time>
      </trkpt>
      <trkpt lat="43.0972210" lon="-6.0398100">
        <ele>884.3</ele>
        <time>2019-09-04T10:02:11Z</time>
      </trkpt>
      <trkpt lat="43.0971600" lon="-6.0396940">
        <ele>884.3</ele>
        <time>2019-09-04T10:02:15Z</time>
      </trkpt>
      <trkpt lat="43.0971290" lon="-6.0396380">
        <ele>884.3</ele>
        <time>2019-09-04T10:02:17Z</time>
      </trkpt>
      <trkpt lat="43.0970620" lon="-6.0395260">
        <ele>887.5</ele>
        <time>2019-09-04T10:02:21Z</time>
      </trkpt>
      <trkpt lat="43.0970060" lon="-6.0394150">
        <ele>887.5</ele>
        <time>2019-09-04T10:02:25Z</time>
      </trkpt>
      <trkpt lat="43.0969450" lon="-6.0393070">
        <ele>887.5</ele>
        <time>2019-09-04T10:02:29Z</time>
      </trkpt>
      <trkpt lat="43.0969190" lon="-6.0392440">
        <ele>887.5</ele>
        <time>2019-09-04T10:02:31Z</time>
      </trkpt>
      <trkpt lat="43.0968930" lon="-6.0391760">
        <ele>887.5</ele>
        <time>2019-09-04T10:02:33Z</time>
      </trkpt>
      <trkpt lat="43.0968730" lon="-6.0391100">
        <ele>890.8</ele>
        <time>2019-09-04T10:02:35Z</time>
      </trkpt>
      <trkpt lat="43.0968520" lon="-6.0390490">
        <ele>890.8</ele>
        <time>2019-09-04T10:02:37Z</time>
      </trkpt>
      <trkpt lat="43.0968270" lon="-6.0389840">
        <ele>890.8</ele>
        <time>2019-09-04T10:02:39Z</time>
      </trkpt>
      <trkpt lat="43.0968010" lon="-6.0389250">
        <ele>890.8</ele>
        <time>2019-09-04T10:02:41Z</time>
      </trkpt>
      <trkpt lat="43.0967650" lon="-6.0388330">
        <ele>890.8</ele>
        <time>2019-09-04T10:02:44Z</time>
      </trkpt>
      <trkpt lat="43.0967300" lon="-6.0387390">
        <ele>890.8</ele>
        <time>2019-09-04T10:02:47Z</time>
      </trkpt>
      <trkpt lat="43.0966780" lon="-6.0386200">
        <ele>922.5</ele>
        <time>2019-09-04T10:02:51Z</time>
      </trkpt>
      <trkpt lat="43.0966480" lon="-6.0385620">
        <ele>922.5</ele>
        <time>2019-09-04T10:02:53Z</time>
      </trkpt>
      <trkpt lat="43.0966120" lon="-6.0384760">
        <ele>922.5</ele>
        <time>2019-09-04T10:02:56Z</time>
      </trkpt>
      <trkpt lat="43.0965810" lon="-6.0384150">
        <ele>922.5</ele>
        <time>2019-09-04T10:02:58Z</time>
      </trkpt>
      <trkpt lat="43.0965500" lon="-6.0383560">
        <ele>922.5</ele>
        <time>2019-09-04T10:03:00Z</time>
      </trkpt>
      <trkpt lat="43.0965150" lon="-6.0382680">
        <ele>922.5</ele>
        <time>2019-09-04T10:03:03Z</time>
      </trkpt>
      <trkpt lat="43.0964840" lon="-6.0381860">
        <ele>926.0</ele>
        <time>2019-09-04T10:03:06Z</time>
      </trkpt>
      <trkpt lat="43.0964380" lon="-6.0381090">
        <ele>926.0</ele>
        <time>2019-09-04T10:03:09Z</time>
      </trkpt>
      <trkpt lat="43.0963870" lon="-6.0380330">
        <ele>926.0</ele>
        <time>2019-09-04T10:03:12Z</time>
      </trkpt>
      <trkpt lat="43.0963400" lon="-6.0379620">
        <ele>926.0</ele>
        <time>2019-09-04T10:03:15Z</time>
      </trkpt>
      <trkpt lat="43.0962890" lon="-6.0378840">
        <ele>926.0</ele>
        <time>2019-09-04T10:03:18Z</time>
      </trkpt>
      <trkpt lat="43.0962590" lon="-6.0378250">
        <ele>926.0</ele>
        <time>2019-09-04T10:03:20Z</time>
      </trkpt>
      <trkpt lat="43.0962280" lon="-6.0377300">
        <ele>928.1</ele>
        <time>2019-09-04T10:03:23Z</time>
      </trkpt>
      <trkpt lat="43.0962120" lon="-6.0376650">
        <ele>930.1</ele>
        <time>2019-09-04T10:03:25Z</time>
      </trkpt>
      <trkpt lat="43.0962020" lon="-6.0375690">
        <ele>930.1</ele>
        <time>2019-09-04T10:03:28Z</time>
      </trkpt>
      <trkpt lat="43.0962020" lon="-6.0374680">
        <ele>930.1</ele>
        <time>2019-09-04T10:03:31Z</time>
      </trkpt>
      <trkpt lat="43.0961970" lon="-6.0373710">
        <ele>930.1</ele>
        <time>2019-09-04T10:03:34Z</time>
      </trkpt>
      <trkpt lat="43.0961610" lon="-6.0372790">
        <ele>930.1</ele>
        <time>2019-09-04T10:03:37Z</time>
      </trkpt>
      <trkpt lat="43.0961360" lon="-6.0372250">
        <ele>932.9</ele>
        <time>2019-09-04T10:03:39Z</time>
      </trkpt>
      <trkpt lat="43.0960900" lon="-6.0371480">
        <ele>932.9</ele>
        <time>2019-09-04T10:03:42Z</time>
      </trkpt>
      <trkpt lat="43.0960490" lon="-6.0370690">
        <ele>932.9</ele>
        <time>2019-09-04T10:03:45Z</time>
      </trkpt>
      <trkpt lat="43.0960030" lon="-6.0369880">
        <ele>932.9</ele>
        <time>2019-09-04T10:03:48Z</time>
      </trkpt>
      <trkpt lat="43.0959620" lon="-6.0369040">
        <ele>932.9</ele>
        <time>2019-09-04T10:03:51Z</time>
      </trkpt>
      <trkpt lat="43.0959260" lon="-6.0368190">
        <ele>936.3</ele>
        <time>2019-09-04T10:03:54Z</time>
      </trkpt>
      <trkpt lat="43.0958950" lon="-6.0367290">
        <ele>936.3</ele>
        <time>2019-09-04T10:03:57Z</time>
      </trkpt>
      <trkpt lat="43.0958590" lon="-6.0366410">
        <ele>936.3</ele>
        <time>2019-09-04T10:04:00Z</time>
      </trkpt>
      <trkpt lat="43.0958230" lon="-6.0365540">
        <ele>936.3</ele>
        <time>2019-09-04T10:04:03Z</time>
      </trkpt>
      <trkpt lat="43.0957930" lon="-6.0364660">
        <ele>936.3</ele>
        <time>2019-09-04T10:04:06Z</time>
      </trkpt>
      <trkpt lat="43.0957310" lon="-6.0363710">
        <ele>939.9</ele>
        <time>2019-09-04T10:04:10Z</time>
      </trkpt>
      <trkpt lat="43.0956800" lon="-6.0363210">
        <ele>939.9</ele>
        <time>2019-09-04T10:04:13Z</time>
      </trkpt>
      <trkpt lat="43.0956130" lon="-6.0362980">
        <ele>939.9</ele>
        <time>2019-09-04T10:04:16Z</time>
      </trkpt>
      <trkpt lat="43.0955370" lon="-6.0363000">
        <ele>939.9</ele>
        <time>2019-09-04T10:04:19Z</time>
      </trkpt>
      <trkpt lat="43.0954850" lon="-6.0363140">
        <ele>939.9</ele>
        <time>2019-09-04T10:04:21Z</time>
      </trkpt>
      <trkpt lat="43.0954340" lon="-6.0363330">
        <ele>939.9</ele>
        <time>2019-09-04T10:04:23Z</time>
      </trkpt>
      <trkpt lat="43.0953780" lon="-6.0363520">
        <ele>939.9</ele>
        <time>2019-09-04T10:04:25Z</time>
      </trkpt>
      <trkpt lat="43.0953320" lon="-6.0363650">
        <ele>943.3</ele>
        <time>2019-09-04T10:04:27Z</time>
      </trkpt>
      <trkpt lat="43.0952760" lon="-6.0363700">
        <ele>943.3</ele>
        <time>2019-09-04T10:04:29Z</time>
      </trkpt>
      <trkpt lat="43.0952240" lon="-6.0363690">
        <ele>943.3</ele>
        <time>2019-09-04T10:04:31Z</time>
      </trkpt>
      <trkpt lat="43.0951220" lon="-6.0363480">
        <ele>943.3</ele>
        <time>2019-09-04T10:04:35Z</time>
      </trkpt>
      <trkpt lat="43.0950710" lon="-6.0363300">
        <ele>943.3</ele>
        <time>2019-09-04T10:04:37Z</time>
      </trkpt>
      <trkpt lat="43.0950200" lon="-6.0363050">
        <ele>943.3</ele>
        <time>2019-09-04T10:04:39Z</time>
      </trkpt>
      <trkpt lat="43.0949530" lon="-6.0362600">
        <ele>946.7</ele>
        <time>2019-09-04T10:04:42Z</time>
      </trkpt>
      <trkpt lat="43.0948860" lon="-6.0361960">
        <ele>946.7</ele>
        <time>2019-09-04T10:04:45Z</time>
      </trkpt>
      <trkpt lat="43.0948560" lon="-6.0361470">
        <ele>946.7</ele>
        <time>2019-09-04T10:04:47Z</time>
      </trkpt>
      <trkpt lat="43.0948150" lon="-6.0360600">
        <ele>946.7</ele>
        <time>2019-09-04T10:04:50Z</time>
      </trkpt>
      <trkpt lat="43.0947740" lon="-6.0359650">
        <ele>946.7</ele>
        <time>2019-09-04T10:04:53Z</time>
      </trkpt>
      <trkpt lat="43.0947280" lon="-6.0358780">
        <ele>946.7</ele>
        <time>2019-09-04T10:04:56Z</time>
      </trkpt>
      <trkpt lat="43.0946870" lon="-6.0358260">
        <ele>949.8</ele>
        <time>2019-09-04T10:04:58Z</time>
      </trkpt>
      <trkpt lat="43.0946300" lon="-6.0357590">
        <ele>949.8</ele>
        <time>2019-09-04T10:05:01Z</time>
      </trkpt>
      <trkpt lat="43.0945890" lon="-6.0357210">
        <ele>949.8</ele>
        <time>2019-09-04T10:05:03Z</time>
      </trkpt>
      <trkpt lat="43.0945430" lon="-6.0356860">
        <ele>949.8</ele>
        <time>2019-09-04T10:05:05Z</time>
      </trkpt>
      <trkpt lat="43.0944920" lon="-6.0356540">
        <ele>949.8</ele>
        <time>2019-09-04T10:05:07Z</time>
      </trkpt>
      <trkpt lat="43.0944360" lon="-6.0356350">
        <ele>949.8</ele>
        <time>2019-09-04T10:05:09Z</time>
      </trkpt>
      <trkpt lat="43.0943800" lon="-6.0356350">
        <ele>949.8</ele>
        <time>2019-09-04T10:05:11Z</time>
      </trkpt>
      <trkpt lat="43.0942870" lon="-6.0356510">
        <ele>953.1</ele>
        <time>2019-09-04T10:05:14Z</time>
      </trkpt>
      <trkpt lat="43.0942260" lon="-6.0356700">
        <ele>953.1</ele>
        <time>2019-09-04T10:05:16Z</time>
      </trkpt>
      <trkpt lat="43.0941640" lon="-6.0356950">
        <ele>953.1</ele>
        <time>2019-09-04T10:05:18Z</time>
      </trkpt>
      <trkpt lat="43.0940670" lon="-6.0357350">
        <ele>953.1</ele>
        <time>2019-09-04T10:05:21Z</time>
      </trkpt>
      <trkpt lat="43.0940060" lon="-6.0357680">
        <ele>953.1</ele>
        <time>2019-09-04T10:05:23Z</time>
      </trkpt>
      <trkpt lat="43.0939440" lon="-6.0357990">
        <ele>953.1</ele>
        <time>2019-09-04T10:05:25Z</time>
      </trkpt>
      <trkpt lat="43.0938570" lon="-6.0358340">
        <ele>953.1</ele>
        <time>2019-09-04T10:05:28Z</time>
      </trkpt>
      <trkpt lat="43.0938010" lon="-6.0358430">
        <ele>956.5</ele>
        <time>2019-09-04T10:05:30Z</time>
      </trkpt>
      <trkpt lat="43.0937290" lon="-6.0358390">
        <ele>956.5</ele>
        <time>2019-09-04T10:05:33Z</time>
      </trkpt>
      <trkpt lat="43.0936680" lon="-6.0358150">
        <ele>956.5</ele>
        <time>2019-09-04T10:05:36Z</time>
      </trkpt>
      <trkpt lat="43.0935910" lon="-6.0357840">
        <ele>956.5</ele>
        <time>2019-09-04T10:05:39Z</time>
      </trkpt>
      <trkpt lat="43.0935350" lon="-6.0357590">
        <ele>956.5</ele>
        <time>2019-09-04T10:05:41Z</time>
      </trkpt>
      <trkpt lat="43.0934730" lon="-6.0357350">
        <ele>956.5</ele>
        <time>2019-09-04T10:05:43Z</time>
      </trkpt>
      <trkpt lat="43.0934220" lon="-6.0357070">
        <ele>956.5</ele>
        <time>2019-09-04T10:05:45Z</time>
      </trkpt>
      <trkpt lat="43.0933710" lon="-6.0356680">
        <ele>960.1</ele>
        <time>2019-09-04T10:05:47Z</time>
      </trkpt>
      <trkpt lat="43.0933250" lon="-6.0356260">
        <ele>960.1</ele>
        <time>2019-09-04T10:05:49Z</time>
      </trkpt>
      <trkpt lat="43.0932790" lon="-6.0355840">
        <ele>960.1</ele>
        <time>2019-09-04T10:05:51Z</time>
      </trkpt>
      <trkpt lat="43.0932330" lon="-6.0355380">
        <ele>960.1</ele>
        <time>2019-09-04T10:05:53Z</time>
      </trkpt>
      <trkpt lat="43.0931920" lon="-6.0354900">
        <ele>960.1</ele>
        <time>2019-09-04T10:05:55Z</time>
      </trkpt>
      <trkpt lat="43.0931460" lon="-6.0354460">
        <ele>960.1</ele>
        <time>2019-09-04T10:05:57Z</time>
      </trkpt>
      <trkpt lat="43.0930940" lon="-6.0354000">
        <ele>962.1</ele>
        <time>2019-09-04T10:05:59Z</time>
      </trkpt>
      <trkpt lat="43.0930480" lon="-6.0353610">
        <ele>962.1</ele>
        <time>2019-09-04T10:06:01Z</time>
      </trkpt>
      <trkpt lat="43.0929820" lon="-6.0352990">
        <ele>964.5</ele>
        <time>2019-09-04T10:06:04Z</time>
      </trkpt>
      <trkpt lat="43.0929360" lon="-6.0352610">
        <ele>964.5</ele>
        <time>2019-09-04T10:06:06Z</time>
      </trkpt>
      <trkpt lat="43.0928790" lon="-6.0352020">
        <ele>964.5</ele>
        <time>2019-09-04T10:06:09Z</time>
      </trkpt>
      <trkpt lat="43.0928180" lon="-6.0351460">
        <ele>964.5</ele>
        <time>2019-09-04T10:06:12Z</time>
      </trkpt>
      <trkpt lat="43.0927720" lon="-6.0351100">
        <ele>964.5</ele>
        <time>2019-09-04T10:06:14Z</time>
      </trkpt>
      <trkpt lat="43.0927260" lon="-6.0350720">
        <ele>966.6</ele>
        <time>2019-09-04T10:06:16Z</time>
      </trkpt>
      <trkpt lat="43.0926490" lon="-6.0349900">
        <ele>968.8</ele>
        <time>2019-09-04T10:06:20Z</time>
      </trkpt>
      <trkpt lat="43.0926030" lon="-6.0349510">
        <ele>968.8</ele>
        <time>2019-09-04T10:06:22Z</time>
      </trkpt>
      <trkpt lat="43.0925410" lon="-6.0348950">
        <ele>968.8</ele>
        <time>2019-09-04T10:06:25Z</time>
      </trkpt>
      <trkpt lat="43.0925000" lon="-6.0348520">
        <ele>968.8</ele>
        <time>2019-09-04T10:06:27Z</time>
      </trkpt>
      <trkpt lat="43.0924390" lon="-6.0347840">
        <ele>968.8</ele>
        <time>2019-09-04T10:06:30Z</time>
      </trkpt>
      <trkpt lat="43.0923780" lon="-6.0347150">
        <ele>970.9</ele>
        <time>2019-09-04T10:06:33Z</time>
      </trkpt>
      <trkpt lat="43.0923420" lon="-6.0346630">
        <ele>972.9</ele>
        <time>2019-09-04T10:06:35Z</time>
      </trkpt>
      <trkpt lat="43.0923060" lon="-6.0345790">
        <ele>972.9</ele>
        <time>2019-09-04T10:06:38Z</time>
      </trkpt>
      <trkpt lat="43.0922850" lon="-6.0345180">
        <ele>972.9</ele>
        <time>2019-09-04T10:06:40Z</time>
      </trkpt>
      <trkpt lat="43.0922600" lon="-6.0344230">
        <ele>972.9</ele>
        <time>2019-09-04T10:06:43Z</time>
      </trkpt>
      <trkpt lat="43.0922440" lon="-6.0343210">
        <ele>972.9</ele>
        <time>2019-09-04T10:06:46Z</time>
      </trkpt>
      <trkpt lat="43.0922340" lon="-6.0342550">
        <ele>972.9</ele>
        <time>2019-09-04T10:06:48Z</time>
      </trkpt>
      <trkpt lat="43.0921980" lon="-6.0341270">
        <ele>976.8</ele>
        <time>2019-09-04T10:06:52Z</time>
      </trkpt>
      <trkpt lat="43.0921570" lon="-6.0340020">
        <ele>976.8</ele>
        <time>2019-09-04T10:06:56Z</time>
      </trkpt>
      <trkpt lat="43.0921110" lon="-6.0338810">
        <ele>976.8</ele>
        <time>2019-09-04T10:07:00Z</time>
      </trkpt>
      <trkpt lat="43.0920860" lon="-6.0338230">
        <ele>976.8</ele>
        <time>2019-09-04T10:07:02Z</time>
      </trkpt>
      <trkpt lat="43.0920400" lon="-6.0336990">
        <ele>980.5</ele>
        <time>2019-09-04T10:07:06Z</time>
      </trkpt>
      <trkpt lat="43.0920140" lon="-6.0336340">
        <ele>980.5</ele>
        <time>2019-09-04T10:07:08Z</time>
      </trkpt>
      <trkpt lat="43.0919940" lon="-6.0335370">
        <ele>980.5</ele>
        <time>2019-09-04T10:07:11Z</time>
      </trkpt>
      <trkpt lat="43.0919780" lon="-6.0334700">
        <ele>980.5</ele>
        <time>2019-09-04T10:07:13Z</time>
      </trkpt>
      <trkpt lat="43.0919730" lon="-6.0333720">
        <ele>980.5</ele>
        <time>2019-09-04T10:07:16Z</time>
      </trkpt>
      <trkpt lat="43.0919630" lon="-6.0332400">
        <ele>980.5</ele>
        <time>2019-09-04T10:07:20Z</time>
      </trkpt>
      <trkpt lat="43.0919480" lon="-6.0331780">
        <ele>984.1</ele>
        <time>2019-09-04T10:07:22Z</time>
      </trkpt>
      <trkpt lat="43.0919070" lon="-6.0330650">
        <ele>984.1</ele>
        <time>2019-09-04T10:07:26Z</time>
      </trkpt>
      <trkpt lat="43.0918400" lon="-6.0329840">
        <ele>984.1</ele>
        <time>2019-09-04T10:07:30Z</time>
      </trkpt>
      <trkpt lat="43.0917530" lon="-6.0329320">
        <ele>984.1</ele>
        <time>2019-09-04T10:07:34Z</time>
      </trkpt>
      <trkpt lat="43.0916660" lon="-6.0328900">
        <ele>987.7</ele>
        <time>2019-09-04T10:07:38Z</time>
      </trkpt>
      <trkpt lat="43.0916200" lon="-6.0328700">
        <ele>987.7</ele>
        <time>2019-09-04T10:07:40Z</time>
      </trkpt>
      <trkpt lat="43.0915280" lon="-6.0328200">
        <ele>987.7</ele>
        <time>2019-09-04T10:07:44Z</time>
      </trkpt>
      <trkpt lat="43.0914410" lon="-6.0327690">
        <ele>987.7</ele>
        <time>2019-09-04T10:07:48Z</time>
      </trkpt>
      <trkpt lat="43.0913790" lon="-6.0327240">
        <ele>987.7</ele>
        <time>2019-09-04T10:07:51Z</time>
      </trkpt>
      <trkpt lat="43.0913180" lon="-6.0326750">
        <ele>991.4</ele>
        <time>2019-09-04T10:07:54Z</time>
      </trkpt>
      <trkpt lat="43.0912360" lon="-6.0326050">
        <ele>991.4</ele>
        <time>2019-09-04T10:07:58Z</time>
      </trkpt>
      <trkpt lat="43.0911740" lon="-6.0325590">
        <ele>991.4</ele>
        <time>2019-09-04T10:08:01Z</time>
      </trkpt>
      <trkpt lat="43.0910980" lon="-6.0325000">
        <ele>991.4</ele>
        <time>2019-09-04T10:08:05Z</time>
      </trkpt>
      <trkpt lat="43.0910160" lon="-6.0324480">
        <ele>991.4</ele>
        <time>2019-09-04T10:08:09Z</time>
      </trkpt>
      <trkpt lat="43.0909240" lon="-6.0324030">
        <ele>994.8</ele>
        <time>2019-09-04T10:08:13Z</time>
      </trkpt>
      <trkpt lat="43.0908360" lon="-6.0323800">
        <ele>994.8</ele>
        <time>2019-09-04T10:08:17Z</time>
      </trkpt>
      <trkpt lat="43.0907440" lon="-6.0323680">
        <ele>994.8</ele>
        <time>2019-09-04T10:08:21Z</time>
      </trkpt>
      <trkpt lat="43.0906780" lon="-6.0323710">
        <ele>994.8</ele>
        <time>2019-09-04T10:08:24Z</time>
      </trkpt>
      <trkpt lat="43.0905800" lon="-6.0323970">
        <ele>998.0</ele>
        <time>2019-09-04T10:08:28Z</time>
      </trkpt>
      <trkpt lat="43.0904880" lon="-6.0324360">
        <ele>998.0</ele>
        <time>2019-09-04T10:08:32Z</time>
      </trkpt>
      <trkpt lat="43.0904010" lon="-6.0324990">
        <ele>998.0</ele>
        <time>2019-09-04T10:08:36Z</time>
      </trkpt>
      <trkpt lat="43.0903450" lon="-6.0325630">
        <ele>998.0</ele>
        <time>2019-09-04T10:08:39Z</time>
      </trkpt>
      <trkpt lat="43.0902840" lon="-6.0326600">
        <ele>1001.2</ele>
        <time>2019-09-04T10:08:43Z</time>
      </trkpt>
      <trkpt lat="43.0902370" lon="-6.0327370">
        <ele>1001.2</ele>
        <time>2019-09-04T10:08:46Z</time>
      </trkpt>
      <trkpt lat="43.0902120" lon="-6.0327910">
        <ele>1001.2</ele>
        <time>2019-09-04T10:08:48Z</time>
      </trkpt>
      <trkpt lat="43.0901500" lon="-6.0328910">
        <ele>1001.2</ele>
        <time>2019-09-04T10:08:52Z</time>
      </trkpt>
      <trkpt lat="43.0901040" lon="-6.0329640">
        <ele>1001.2</ele>
        <time>2019-09-04T10:08:55Z</time>
      </trkpt>
      <trkpt lat="43.0900330" lon="-6.0330500">
        <ele>1004.9</ele>
        <time>2019-09-04T10:08:59Z</time>
      </trkpt>
      <trkpt lat="43.0899810" lon="-6.0331080">
        <ele>1004.9</ele>
        <time>2019-09-04T10:09:02Z</time>
      </trkpt>
      <trkpt lat="43.0899150" lon="-6.0331570">
        <ele>1004.9</ele>
        <time>2019-09-04T10:09:05Z</time>
      </trkpt>
      <trkpt lat="43.0898530" lon="-6.0331980">
        <ele>1004.9</ele>
        <time>2019-09-04T10:09:08Z</time>
      </trkpt>
      <trkpt lat="43.0897610" lon="-6.0332260">
        <ele>1004.9</ele>
        <time>2019-09-04T10:09:12Z</time>
      </trkpt>
      <trkpt lat="43.0896950" lon="-6.0332360">
        <ele>1008.7</ele>
        <time>2019-09-04T10:09:15Z</time>
      </trkpt>
      <trkpt lat="43.0896280" lon="-6.0332600">
        <ele>1008.7</ele>
        <time>2019-09-04T10:09:18Z</time>
      </trkpt>
      <trkpt lat="43.0895720" lon="-6.0333070">
        <ele>1008.7</ele>
        <time>2019-09-04T10:09:21Z</time>
      </trkpt>
      <trkpt lat="43.0895160" lon="-6.0333700">
        <ele>1008.7</ele>
        <time>2019-09-04T10:09:24Z</time>
      </trkpt>
      <trkpt lat="43.0894690" lon="-6.0334450">
        <ele>1008.7</ele>
        <time>2019-09-04T10:09:27Z</time>
      </trkpt>
      <trkpt lat="43.0894340" lon="-6.0335200">
        <ele>1012.4</ele>
        <time>2019-09-04T10:09:30Z</time>
      </trkpt>
      <trkpt lat="43.0893880" lon="-6.0335990">
        <ele>1012.4</ele>
        <time>2019-09-04T10:09:33Z</time>
      </trkpt>
      <trkpt lat="43.0893570" lon="-6.0336570">
        <ele>1012.4</ele>
        <time>2019-09-04T10:09:35Z</time>
      </trkpt>
      <trkpt lat="43.0893210" lon="-6.0337410">
        <ele>1012.4</ele>
        <time>2019-09-04T10:09:38Z</time>
      </trkpt>
      <trkpt lat="43.0892850" lon="-6.0338190">
        <ele>1012.4</ele>
        <time>2019-09-04T10:09:41Z</time>
      </trkpt>
      <trkpt lat="43.0892390" lon="-6.0338960">
        <ele>1012.4</ele>
        <time>2019-09-04T10:09:44Z</time>
      </trkpt>
      <trkpt lat="43.0891930" lon="-6.0339650">
        <ele>1016.3</ele>
        <time>2019-09-04T10:09:47Z</time>
      </trkpt>
      <trkpt lat="43.0891620" lon="-6.0340100">
        <ele>1016.3</ele>
        <time>2019-09-04T10:09:49Z</time>
      </trkpt>
      <trkpt lat="43.0891060" lon="-6.0340750">
        <ele>1016.3</ele>
        <time>2019-09-04T10:09:52Z</time>
      </trkpt>
      <trkpt lat="43.0890750" lon="-6.0341150">
        <ele>1016.3</ele>
        <time>2019-09-04T10:09:54Z</time>
      </trkpt>
      <trkpt lat="43.0890140" lon="-6.0341710">
        <ele>1016.3</ele>
        <time>2019-09-04T10:09:57Z</time>
      </trkpt>
      <trkpt lat="43.0889730" lon="-6.0342050">
        <ele>1016.3</ele>
        <time>2019-09-04T10:09:59Z</time>
      </trkpt>
      <trkpt lat="43.0889110" lon="-6.0342520">
        <ele>1020.0</ele>
        <time>2019-09-04T10:10:02Z</time>
      </trkpt>
      <trkpt lat="43.0888190" lon="-6.0343020">
        <ele>1020.0</ele>
        <time>2019-09-04T10:10:03Z</time>
      </trkpt>
      <trkpt lat="43.0887530" lon="-6.0343240">
        <ele>1020.0</ele>
        <time>2019-09-04T10:10:07Z</time>
      </trkpt>
      <trkpt lat="43.0886660" lon="-6.0343440">
        <ele>1020.0</ele>
        <time>2019-09-04T10:10:11Z</time>
      </trkpt>
      <trkpt lat="43.0885990" lon="-6.0343560">
        <ele>1020.0</ele>
        <time>2019-09-04T10:10:14Z</time>
      </trkpt>
      <trkpt lat="43.0885070" lon="-6.0343740">
        <ele>1023.7</ele>
        <time>2019-09-04T10:10:18Z</time>
      </trkpt>
      <trkpt lat="43.0884350" lon="-6.0343870">
        <ele>1023.7</ele>
        <time>2019-09-04T10:10:21Z</time>
      </trkpt>
      <trkpt lat="43.0883430" lon="-6.0344010">
        <ele>1023.7</ele>
        <time>2019-09-04T10:10:25Z</time>
      </trkpt>
      <trkpt lat="43.0882760" lon="-6.0344100">
        <ele>1023.7</ele>
        <time>2019-09-04T10:10:28Z</time>
      </trkpt>
      <trkpt lat="43.0881840" lon="-6.0344210">
        <ele>1023.7</ele>
        <time>2019-09-04T10:10:32Z</time>
      </trkpt>
      <trkpt lat="43.0880920" lon="-6.0344330">
        <ele>1027.3</ele>
        <time>2019-09-04T10:10:36Z</time>
      </trkpt>
      <trkpt lat="43.0880050" lon="-6.0344510">
        <ele>1027.3</ele>
        <time>2019-09-04T10:10:40Z</time>
      </trkpt>
      <trkpt lat="43.0879130" lon="-6.0344670">
        <ele>1027.3</ele>
        <time>2019-09-04T10:10:44Z</time>
      </trkpt>
      <trkpt lat="43.0878160" lon="-6.0344950">
        <ele>1027.3</ele>
        <time>2019-09-04T10:10:48Z</time>
      </trkpt>
      <trkpt lat="43.0877490" lon="-6.0345240">
        <ele>1033.7</ele>
        <time>2019-09-04T10:10:51Z</time>
      </trkpt>
      <trkpt lat="43.0876520" lon="-6.0345680">
        <ele>1033.7</ele>
        <time>2019-09-04T10:10:55Z</time>
      </trkpt>
      <trkpt lat="43.0875600" lon="-6.0346110">
        <ele>1033.7</ele>
        <time>2019-09-04T10:10:59Z</time>
      </trkpt>
      <trkpt lat="43.0874680" lon="-6.0346530">
        <ele>1033.7</ele>
        <time>2019-09-04T10:11:03Z</time>
      </trkpt>
      <trkpt lat="43.0873700" lon="-6.0346960">
        <ele>1036.9</ele>
        <time>2019-09-04T10:11:07Z</time>
      </trkpt>
      <trkpt lat="43.0872780" lon="-6.0347360">
        <ele>1036.9</ele>
        <time>2019-09-04T10:11:11Z</time>
      </trkpt>
      <trkpt lat="43.0871810" lon="-6.0347710">
        <ele>1036.9</ele>
        <time>2019-09-04T10:11:15Z</time>
      </trkpt>
      <trkpt lat="43.0870940" lon="-6.0348060">
        <ele>1036.9</ele>
        <time>2019-09-04T10:11:19Z</time>
      </trkpt>
      <trkpt lat="43.0869960" lon="-6.0348390">
        <ele>1039.6</ele>
        <time>2019-09-04T10:11:23Z</time>
      </trkpt>
      <trkpt lat="43.0869090" lon="-6.0348700">
        <ele>1039.6</ele>
        <time>2019-09-04T10:11:27Z</time>
      </trkpt>
      <trkpt lat="43.0868430" lon="-6.0348910">
        <ele>1039.6</ele>
        <time>2019-09-04T10:11:30Z</time>
      </trkpt>
      <trkpt lat="43.0867710" lon="-6.0349110">
        <ele>1039.6</ele>
        <time>2019-09-04T10:11:33Z</time>
      </trkpt>
      <trkpt lat="43.0866790" lon="-6.0349390">
        <ele>1042.3</ele>
        <time>2019-09-04T10:11:37Z</time>
      </trkpt>
      <trkpt lat="43.0865870" lon="-6.0349680">
        <ele>1042.3</ele>
        <time>2019-09-04T10:11:41Z</time>
      </trkpt>
      <trkpt lat="43.0865200" lon="-6.0349830">
        <ele>1042.3</ele>
        <time>2019-09-04T10:11:44Z</time>
      </trkpt>
      <trkpt lat="43.0864280" lon="-6.0350020">
        <ele>1042.3</ele>
        <time>2019-09-04T10:11:48Z</time>
      </trkpt>
      <trkpt lat="43.0863310" lon="-6.0350050">
        <ele>1042.3</ele>
        <time>2019-09-04T10:11:52Z</time>
      </trkpt>
      <trkpt lat="43.0862440" lon="-6.0350070">
        <ele>1045.3</ele>
        <time>2019-09-04T10:11:56Z</time>
      </trkpt>
      <trkpt lat="43.0861570" lon="-6.0349980">
        <ele>1045.3</ele>
        <time>2019-09-04T10:12:00Z</time>
      </trkpt>
      <trkpt lat="43.0860900" lon="-6.0349670">
        <ele>1045.3</ele>
        <time>2019-09-04T10:12:03Z</time>
      </trkpt>
      <trkpt lat="43.0860190" lon="-6.0348830">
        <ele>1045.3</ele>
        <time>2019-09-04T10:12:07Z</time>
      </trkpt>
      <trkpt lat="43.0859930" lon="-6.0348220">
        <ele>1047.3</ele>
        <time>2019-09-04T10:12:09Z</time>
      </trkpt>
      <trkpt lat="43.0859830" lon="-6.0347300">
        <ele>1047.3</ele>
        <time>2019-09-04T10:12:12Z</time>
      </trkpt>
      <trkpt lat="43.0859980" lon="-6.0346680">
        <ele>1049.3</ele>
        <time>2019-09-04T10:12:14Z</time>
      </trkpt>
      <trkpt lat="43.0860540" lon="-6.0345640">
        <ele>1049.3</ele>
        <time>2019-09-04T10:12:18Z</time>
      </trkpt>
      <trkpt lat="43.0860900" lon="-6.0345130">
        <ele>1049.3</ele>
        <time>2019-09-04T10:12:20Z</time>
      </trkpt>
      <trkpt lat="43.0861570" lon="-6.0344080">
        <ele>1049.3</ele>
        <time>2019-09-04T10:12:24Z</time>
      </trkpt>
      <trkpt lat="43.0861880" lon="-6.0343490">
        <ele>1052.2</ele>
        <time>2019-09-04T10:12:26Z</time>
      </trkpt>
      <trkpt lat="43.0862130" lon="-6.0342870">
        <ele>1052.2</ele>
        <time>2019-09-04T10:12:28Z</time>
      </trkpt>
      <trkpt lat="43.0862340" lon="-6.0342230">
        <ele>1052.2</ele>
        <time>2019-09-04T10:12:30Z</time>
      </trkpt>
      <trkpt lat="43.0862490" lon="-6.0340920">
        <ele>1052.2</ele>
        <time>2019-09-04T10:12:34Z</time>
      </trkpt>
      <trkpt lat="43.0862180" lon="-6.0339580">
        <ele>1052.2</ele>
        <time>2019-09-04T10:12:38Z</time>
      </trkpt>
      <trkpt lat="43.0861930" lon="-6.0338980">
        <ele>1052.2</ele>
        <time>2019-09-04T10:12:40Z</time>
      </trkpt>
      <trkpt lat="43.0861310" lon="-6.0337840">
        <ele>1055.8</ele>
        <time>2019-09-04T10:12:44Z</time>
      </trkpt>
      <trkpt lat="43.0860950" lon="-6.0337280">
        <ele>1055.8</ele>
        <time>2019-09-04T10:12:46Z</time>
      </trkpt>
      <trkpt lat="43.0860540" lon="-6.0336450">
        <ele>1055.8</ele>
        <time>2019-09-04T10:12:49Z</time>
      </trkpt>
      <trkpt lat="43.0860340" lon="-6.0335890">
        <ele>1055.8</ele>
        <time>2019-09-04T10:12:51Z</time>
      </trkpt>
      <trkpt lat="43.0859930" lon="-6.0334660">
        <ele>1055.8</ele>
        <time>2019-09-04T10:12:55Z</time>
      </trkpt>
      <trkpt lat="43.0859620" lon="-6.0333380">
        <ele>1059.3</ele>
        <time>2019-09-04T10:12:59Z</time>
      </trkpt>
      <trkpt lat="43.0859520" lon="-6.0332730">
        <ele>1059.3</ele>
        <time>2019-09-04T10:13:01Z</time>
      </trkpt>
      <trkpt lat="43.0859320" lon="-6.0331350">
        <ele>1059.3</ele>
        <time>2019-09-04T10:13:05Z</time>
      </trkpt>
      <trkpt lat="43.0859260" lon="-6.0330650">
        <ele>1059.3</ele>
        <time>2019-09-04T10:13:07Z</time>
      </trkpt>
      <trkpt lat="43.0859160" lon="-6.0329950">
        <ele>1059.3</ele>
        <time>2019-09-04T10:13:09Z</time>
      </trkpt>
      <trkpt lat="43.0859060" lon="-6.0328570">
        <ele>1062.5</ele>
        <time>2019-09-04T10:13:13Z</time>
      </trkpt>
      <trkpt lat="43.0859060" lon="-6.0327230">
        <ele>1062.5</ele>
        <time>2019-09-04T10:13:17Z</time>
      </trkpt>
      <trkpt lat="43.0859210" lon="-6.0326240">
        <ele>1062.5</ele>
        <time>2019-09-04T10:13:20Z</time>
      </trkpt>
      <trkpt lat="43.0859470" lon="-6.0325310">
        <ele>1062.5</ele>
        <time>2019-09-04T10:13:23Z</time>
      </trkpt>
      <trkpt lat="43.0859780" lon="-6.0324500">
        <ele>1062.5</ele>
        <time>2019-09-04T10:13:26Z</time>
      </trkpt>
      <trkpt lat="43.0860340" lon="-6.0322850">
        <ele>1065.7</ele>
        <time>2019-09-04T10:13:43Z</time>
      </trkpt>
      <trkpt lat="43.0860490" lon="-6.0321750">
        <ele>1065.7</ele>
        <time>2019-09-04T10:13:47Z</time>
      </trkpt>
      <trkpt lat="43.0860390" lon="-6.0320440">
        <ele>1069.0</ele>
        <time>2019-09-04T10:13:51Z</time>
      </trkpt>
      <trkpt lat="43.0860240" lon="-6.0319740">
        <ele>1069.0</ele>
        <time>2019-09-04T10:13:53Z</time>
      </trkpt>
      <trkpt lat="43.0859830" lon="-6.0318750">
        <ele>1069.0</ele>
        <time>2019-09-04T10:13:56Z</time>
      </trkpt>
      <trkpt lat="43.0859620" lon="-6.0318040">
        <ele>1069.0</ele>
        <time>2019-09-04T10:13:58Z</time>
      </trkpt>
      <trkpt lat="43.0859370" lon="-6.0317300">
        <ele>1069.0</ele>
        <time>2019-09-04T10:14:00Z</time>
      </trkpt>
      <trkpt lat="43.0859210" lon="-6.0316220">
        <ele>1069.0</ele>
        <time>2019-09-04T10:14:03Z</time>
      </trkpt>
      <trkpt lat="43.0859210" lon="-6.0315210">
        <ele>1072.4</ele>
        <time>2019-09-04T10:14:06Z</time>
      </trkpt>
      <trkpt lat="43.0859370" lon="-6.0313840">
        <ele>1072.4</ele>
        <time>2019-09-04T10:14:10Z</time>
      </trkpt>
      <trkpt lat="43.0859570" lon="-6.0312530">
        <ele>1072.4</ele>
        <time>2019-09-04T10:14:14Z</time>
      </trkpt>
      <trkpt lat="43.0859520" lon="-6.0311570">
        <ele>1072.4</ele>
        <time>2019-09-04T10:14:17Z</time>
      </trkpt>
      <trkpt lat="43.0859260" lon="-6.0310250">
        <ele>1075.5</ele>
        <time>2019-09-04T10:14:21Z</time>
      </trkpt>
      <trkpt lat="43.0859110" lon="-6.0309570">
        <ele>1075.5</ele>
        <time>2019-09-04T10:14:23Z</time>
      </trkpt>
      <trkpt lat="43.0859010" lon="-6.0308870">
        <ele>1075.5</ele>
        <time>2019-09-04T10:14:25Z</time>
      </trkpt>
      <trkpt lat="43.0859060" lon="-6.0308160">
        <ele>1075.5</ele>
        <time>2019-09-04T10:14:27Z</time>
      </trkpt>
      <trkpt lat="43.0859320" lon="-6.0307180">
        <ele>1075.5</ele>
        <time>2019-09-04T10:14:30Z</time>
      </trkpt>
      <trkpt lat="43.0859780" lon="-6.0306490">
        <ele>1075.5</ele>
        <time>2019-09-04T10:14:33Z</time>
      </trkpt>
      <trkpt lat="43.0860240" lon="-6.0306230">
        <ele>1075.5</ele>
        <time>2019-09-04T10:14:35Z</time>
      </trkpt>
      <trkpt lat="43.0861260" lon="-6.0306190">
        <ele>1078.8</ele>
        <time>2019-09-04T10:14:39Z</time>
      </trkpt>
      <trkpt lat="43.0862030" lon="-6.0306470">
        <ele>1078.8</ele>
        <time>2019-09-04T10:14:42Z</time>
      </trkpt>
      <trkpt lat="43.0862490" lon="-6.0306770">
        <ele>1078.8</ele>
        <time>2019-09-04T10:14:44Z</time>
      </trkpt>
      <trkpt lat="43.0863050" lon="-6.0307080">
        <ele>1078.8</ele>
        <time>2019-09-04T10:14:46Z</time>
      </trkpt>
      <trkpt lat="43.0863510" lon="-6.0307400">
        <ele>1078.8</ele>
        <time>2019-09-04T10:14:48Z</time>
      </trkpt>
      <trkpt lat="43.0864080" lon="-6.0307740">
        <ele>1078.8</ele>
        <time>2019-09-04T10:14:50Z</time>
      </trkpt>
      <trkpt lat="43.0864540" lon="-6.0308070">
        <ele>1082.0</ele>
        <time>2019-09-04T10:14:52Z</time>
      </trkpt>
      <trkpt lat="43.0865360" lon="-6.0308540">
        <ele>1082.0</ele>
        <time>2019-09-04T10:14:55Z</time>
      </trkpt>
      <trkpt lat="43.0865920" lon="-6.0308860">
        <ele>1082.0</ele>
        <time>2019-09-04T10:14:57Z</time>
      </trkpt>
      <trkpt lat="43.0866430" lon="-6.0309180">
        <ele>1082.0</ele>
        <time>2019-09-04T10:14:59Z</time>
      </trkpt>
      <trkpt lat="43.0866940" lon="-6.0309520">
        <ele>1082.0</ele>
        <time>2019-09-04T10:15:01Z</time>
      </trkpt>
      <trkpt lat="43.0867460" lon="-6.0309860">
        <ele>1082.0</ele>
        <time>2019-09-04T10:15:03Z</time>
      </trkpt>
      <trkpt lat="43.0868020" lon="-6.0310230">
        <ele>1082.0</ele>
        <time>2019-09-04T10:15:05Z</time>
      </trkpt>
      <trkpt lat="43.0868740" lon="-6.0310740">
        <ele>1084.9</ele>
        <time>2019-09-04T10:15:08Z</time>
      </trkpt>
      <trkpt lat="43.0869300" lon="-6.0311070">
        <ele>1084.9</ele>
        <time>2019-09-04T10:15:10Z</time>
      </trkpt>
      <trkpt lat="43.0870020" lon="-6.0311600">
        <ele>1084.9</ele>
        <time>2019-09-04T10:15:13Z</time>
      </trkpt>
      <trkpt lat="43.0870530" lon="-6.0311920">
        <ele>1084.9</ele>
        <time>2019-09-04T10:15:15Z</time>
      </trkpt>
      <trkpt lat="43.0870990" lon="-6.0312240">
        <ele>1084.9</ele>
        <time>2019-09-04T10:15:17Z</time>
      </trkpt>
      <trkpt lat="43.0871500" lon="-6.0312550">
        <ele>1084.9</ele>
        <time>2019-09-04T10:15:19Z</time>
      </trkpt>
      <trkpt lat="43.0872010" lon="-6.0312860">
        <ele>1084.9</ele>
        <time>2019-09-04T10:15:21Z</time>
      </trkpt>
      <trkpt lat="43.0872830" lon="-6.0313370">
        <ele>1087.9</ele>
        <time>2019-09-04T10:15:24Z</time>
      </trkpt>
      <trkpt lat="43.0873340" lon="-6.0313690">
        <ele>1087.9</ele>
        <time>2019-09-04T10:15:26Z</time>
      </trkpt>
      <trkpt lat="43.0873860" lon="-6.0314050">
        <ele>1087.9</ele>
        <time>2019-09-04T10:15:28Z</time>
      </trkpt>
      <trkpt lat="43.0874420" lon="-6.0314420">
        <ele>1087.9</ele>
        <time>2019-09-04T10:15:30Z</time>
      </trkpt>
      <trkpt lat="43.0874930" lon="-6.0314790">
        <ele>1087.9</ele>
        <time>2019-09-04T10:15:32Z</time>
      </trkpt>
      <trkpt lat="43.0875440" lon="-6.0315170">
        <ele>1087.9</ele>
        <time>2019-09-04T10:15:34Z</time>
      </trkpt>
      <trkpt lat="43.0875960" lon="-6.0315520">
        <ele>1087.9</ele>
        <time>2019-09-04T10:15:36Z</time>
      </trkpt>
      <trkpt lat="43.0876470" lon="-6.0315860">
        <ele>1087.9</ele>
        <time>2019-09-04T10:15:38Z</time>
      </trkpt>
      <trkpt lat="43.0877240" lon="-6.0316170">
        <ele>1090.9</ele>
        <time>2019-09-04T10:15:41Z</time>
      </trkpt>
      <trkpt lat="43.0877750" lon="-6.0316180">
        <ele>1090.9</ele>
        <time>2019-09-04T10:15:43Z</time>
      </trkpt>
      <trkpt lat="43.0878570" lon="-6.0315510">
        <ele>1090.9</ele>
        <time>2019-09-04T10:15:47Z</time>
      </trkpt>
      <trkpt lat="43.0878770" lon="-6.0314340">
        <ele>1090.9</ele>
        <time>2019-09-04T10:15:51Z</time>
      </trkpt>
      <trkpt lat="43.0878310" lon="-6.0313270">
        <ele>1090.9</ele>
        <time>2019-09-04T10:15:55Z</time>
      </trkpt>
      <trkpt lat="43.0877900" lon="-6.0312760">
        <ele>1094.1</ele>
        <time>2019-09-04T10:15:57Z</time>
      </trkpt>
      <trkpt lat="43.0877490" lon="-6.0312330">
        <ele>1094.1</ele>
        <time>2019-09-04T10:15:59Z</time>
      </trkpt>
      <trkpt lat="43.0877030" lon="-6.0311920">
        <ele>1094.1</ele>
        <time>2019-09-04T10:16:01Z</time>
      </trkpt>
      <trkpt lat="43.0876620" lon="-6.0311530">
        <ele>1094.1</ele>
        <time>2019-09-04T10:16:03Z</time>
      </trkpt>
      <trkpt lat="43.0876160" lon="-6.0311130">
        <ele>1094.1</ele>
        <time>2019-09-04T10:16:05Z</time>
      </trkpt>
      <trkpt lat="43.0875700" lon="-6.0310750">
        <ele>1094.1</ele>
        <time>2019-09-04T10:16:07Z</time>
      </trkpt>
      <trkpt lat="43.0875290" lon="-6.0310360">
        <ele>1094.1</ele>
        <time>2019-09-04T10:16:09Z</time>
      </trkpt>
      <trkpt lat="43.0874620" lon="-6.0309690">
        <ele>1097.2</ele>
        <time>2019-09-04T10:16:12Z</time>
      </trkpt>
      <trkpt lat="43.0874270" lon="-6.0309250">
        <ele>1097.2</ele>
        <time>2019-09-04T10:16:14Z</time>
      </trkpt>
      <trkpt lat="43.0873860" lon="-6.0308780">
        <ele>1097.2</ele>
        <time>2019-09-04T10:16:16Z</time>
      </trkpt>
      <trkpt lat="43.0873450" lon="-6.0308300">
        <ele>1097.2</ele>
        <time>2019-09-04T10:16:18Z</time>
      </trkpt>
      <trkpt lat="43.0872880" lon="-6.0307590">
        <ele>1097.2</ele>
        <time>2019-09-04T10:16:21Z</time>
      </trkpt>
      <trkpt lat="43.0872470" lon="-6.0307100">
        <ele>1097.2</ele>
        <time>2019-09-04T10:16:23Z</time>
      </trkpt>
      <trkpt lat="43.0872120" lon="-6.0306590">
        <ele>1097.2</ele>
        <time>2019-09-04T10:16:25Z</time>
      </trkpt>
      <trkpt lat="43.0871760" lon="-6.0306100">
        <ele>1097.2</ele>
        <time>2019-09-04T10:16:27Z</time>
      </trkpt>
      <trkpt lat="43.0871350" lon="-6.0305640">
        <ele>1100.5</ele>
        <time>2019-09-04T10:16:29Z</time>
      </trkpt>
      <trkpt lat="43.0870780" lon="-6.0305000">
        <ele>1100.5</ele>
        <time>2019-09-04T10:16:32Z</time>
      </trkpt>
      <trkpt lat="43.0870270" lon="-6.0304380">
        <ele>1100.5</ele>
        <time>2019-09-04T10:16:35Z</time>
      </trkpt>
      <trkpt lat="43.0869660" lon="-6.0303810">
        <ele>1100.5</ele>
        <time>2019-09-04T10:16:38Z</time>
      </trkpt>
      <trkpt lat="43.0868990" lon="-6.0303350">
        <ele>1100.5</ele>
        <time>2019-09-04T10:16:41Z</time>
      </trkpt>
      <trkpt lat="43.0868330" lon="-6.0303030">
        <ele>1103.6</ele>
        <time>2019-09-04T10:16:44Z</time>
      </trkpt>
      <trkpt lat="43.0867610" lon="-6.0302800">
        <ele>1103.6</ele>
        <time>2019-09-04T10:16:47Z</time>
      </trkpt>
      <trkpt lat="43.0866940" lon="-6.0302550">
        <ele>1103.6</ele>
        <time>2019-09-04T10:16:50Z</time>
      </trkpt>
      <trkpt lat="43.0866280" lon="-6.0302270">
        <ele>1103.6</ele>
        <time>2019-09-04T10:16:53Z</time>
      </trkpt>
      <trkpt lat="43.0865820" lon="-6.0302050">
        <ele>1103.6</ele>
        <time>2019-09-04T10:16:55Z</time>
      </trkpt>
      <trkpt lat="43.0864950" lon="-6.0301550">
        <ele>1103.6</ele>
        <time>2019-09-04T10:16:59Z</time>
      </trkpt>
      <trkpt lat="43.0864490" lon="-6.0301240">
        <ele>1106.6</ele>
        <time>2019-09-04T10:17:01Z</time>
      </trkpt>
      <trkpt lat="43.0863820" lon="-6.0300730">
        <ele>1106.6</ele>
        <time>2019-09-04T10:17:04Z</time>
      </trkpt>
      <trkpt lat="43.0863410" lon="-6.0300390">
        <ele>1106.6</ele>
        <time>2019-09-04T10:17:06Z</time>
      </trkpt>
      <trkpt lat="43.0862590" lon="-6.0299670">
        <ele>1106.6</ele>
        <time>2019-09-04T10:17:10Z</time>
      </trkpt>
      <trkpt lat="43.0862180" lon="-6.0299300">
        <ele>1106.6</ele>
        <time>2019-09-04T10:17:12Z</time>
      </trkpt>
      <trkpt lat="43.0861410" lon="-6.0298520">
        <ele>1109.9</ele>
        <time>2019-09-04T10:17:16Z</time>
      </trkpt>
      <trkpt lat="43.0861060" lon="-6.0298120">
        <ele>1109.9</ele>
        <time>2019-09-04T10:17:18Z</time>
      </trkpt>
      <trkpt lat="43.0860290" lon="-6.0297360">
        <ele>1109.9</ele>
        <time>2019-09-04T10:17:22Z</time>
      </trkpt>
      <trkpt lat="43.0859570" lon="-6.0296560">
        <ele>1109.9</ele>
        <time>2019-09-04T10:17:26Z</time>
      </trkpt>
      <trkpt lat="43.0858750" lon="-6.0295810">
        <ele>1109.9</ele>
        <time>2019-09-04T10:17:30Z</time>
      </trkpt>
      <trkpt lat="43.0858340" lon="-6.0295510">
        <ele>1112.5</ele>
        <time>2019-09-04T10:17:32Z</time>
      </trkpt>
      <trkpt lat="43.0857680" lon="-6.0295120">
        <ele>1112.5</ele>
        <time>2019-09-04T10:17:35Z</time>
      </trkpt>
      <trkpt lat="43.0856760" lon="-6.0294820">
        <ele>1112.5</ele>
        <time>2019-09-04T10:17:39Z</time>
      </trkpt>
      <trkpt lat="43.0856240" lon="-6.0294750">
        <ele>1112.5</ele>
        <time>2019-09-04T10:17:41Z</time>
      </trkpt>
      <trkpt lat="43.0855270" lon="-6.0294600">
        <ele>1112.5</ele>
        <time>2019-09-04T10:17:45Z</time>
      </trkpt>
      <trkpt lat="43.0854350" lon="-6.0294430">
        <ele>1115.5</ele>
        <time>2019-09-04T10:17:49Z</time>
      </trkpt>
      <trkpt lat="43.0853320" lon="-6.0294210">
        <ele>1115.5</ele>
        <time>2019-09-04T10:17:53Z</time>
      </trkpt>
      <trkpt lat="43.0852450" lon="-6.0293930">
        <ele>1115.5</ele>
        <time>2019-09-04T10:17:57Z</time>
      </trkpt>
      <trkpt lat="43.0851940" lon="-6.0293790">
        <ele>1115.5</ele>
        <time>2019-09-04T10:17:59Z</time>
      </trkpt>
      <trkpt lat="43.0851070" lon="-6.0293460">
        <ele>1115.5</ele>
        <time>2019-09-04T10:18:03Z</time>
      </trkpt>
      <trkpt lat="43.0850610" lon="-6.0293270">
        <ele>1118.4</ele>
        <time>2019-09-04T10:18:05Z</time>
      </trkpt>
      <trkpt lat="43.0849690" lon="-6.0292850">
        <ele>1118.4</ele>
        <time>2019-09-04T10:18:09Z</time>
      </trkpt>
      <trkpt lat="43.0849020" lon="-6.0292530">
        <ele>1118.4</ele>
        <time>2019-09-04T10:18:12Z</time>
      </trkpt>
      <trkpt lat="43.0848510" lon="-6.0292310">
        <ele>1118.4</ele>
        <time>2019-09-04T10:18:14Z</time>
      </trkpt>
      <trkpt lat="43.0847800" lon="-6.0291990">
        <ele>1118.4</ele>
        <time>2019-09-04T10:18:17Z</time>
      </trkpt>
      <trkpt lat="43.0846870" lon="-6.0291610">
        <ele>1121.1</ele>
        <time>2019-09-04T10:18:21Z</time>
      </trkpt>
      <trkpt lat="43.0846160" lon="-6.0291300">
        <ele>1121.1</ele>
        <time>2019-09-04T10:18:24Z</time>
      </trkpt>
      <trkpt lat="43.0845700" lon="-6.0291100">
        <ele>1121.1</ele>
        <time>2019-09-04T10:18:26Z</time>
      </trkpt>
      <trkpt lat="43.0844770" lon="-6.0290690">
        <ele>1121.1</ele>
        <time>2019-09-04T10:18:30Z</time>
      </trkpt>
      <trkpt lat="43.0844060" lon="-6.0290340">
        <ele>1121.1</ele>
        <time>2019-09-04T10:18:33Z</time>
      </trkpt>
      <trkpt lat="43.0843600" lon="-6.0290100">
        <ele>1121.1</ele>
        <time>2019-09-04T10:18:35Z</time>
      </trkpt>
      <trkpt lat="43.0843190" lon="-6.0289880">
        <ele>1124.0</ele>
        <time>2019-09-04T10:18:37Z</time>
      </trkpt>
      <trkpt lat="43.0842160" lon="-6.0289570">
        <ele>1124.0</ele>
        <time>2019-09-04T10:18:41Z</time>
      </trkpt>
      <trkpt lat="43.0841400" lon="-6.0289360">
        <ele>1124.0</ele>
        <time>2019-09-04T10:18:44Z</time>
      </trkpt>
      <trkpt lat="43.0840930" lon="-6.0289240">
        <ele>1124.0</ele>
        <time>2019-09-04T10:18:46Z</time>
      </trkpt>
      <trkpt lat="43.0840420" lon="-6.0289140">
        <ele>1124.0</ele>
        <time>2019-09-04T10:18:48Z</time>
      </trkpt>
      <trkpt lat="43.0839710" lon="-6.0289020">
        <ele>1124.0</ele>
        <time>2019-09-04T10:18:51Z</time>
      </trkpt>
      <trkpt lat="43.0839190" lon="-6.0288980">
        <ele>1127.2</ele>
        <time>2019-09-04T10:18:53Z</time>
      </trkpt>
      <trkpt lat="43.0838680" lon="-6.0288970">
        <ele>1127.2</ele>
        <time>2019-09-04T10:18:55Z</time>
      </trkpt>
      <trkpt lat="43.0837710" lon="-6.0288980">
        <ele>1127.2</ele>
        <time>2019-09-04T10:18:59Z</time>
      </trkpt>
      <trkpt lat="43.0837250" lon="-6.0289010">
        <ele>1127.2</ele>
        <time>2019-09-04T10:19:01Z</time>
      </trkpt>
      <trkpt lat="43.0836280" lon="-6.0289100">
        <ele>1127.2</ele>
        <time>2019-09-04T10:19:05Z</time>
      </trkpt>
      <trkpt lat="43.0835760" lon="-6.0289150">
        <ele>1127.2</ele>
        <time>2019-09-04T10:19:07Z</time>
      </trkpt>
      <trkpt lat="43.0835250" lon="-6.0289210">
        <ele>1130.2</ele>
        <time>2019-09-04T10:19:09Z</time>
      </trkpt>
      <trkpt lat="43.0834230" lon="-6.0289290">
        <ele>1130.2</ele>
        <time>2019-09-04T10:19:13Z</time>
      </trkpt>
      <trkpt lat="43.0833720" lon="-6.0289330">
        <ele>1130.2</ele>
        <time>2019-09-04T10:19:15Z</time>
      </trkpt>
      <trkpt lat="43.0832790" lon="-6.0289460">
        <ele>1130.2</ele>
        <time>2019-09-04T10:19:19Z</time>
      </trkpt>
      <trkpt lat="43.0831970" lon="-6.0289540">
        <ele>1130.2</ele>
        <time>2019-09-04T10:19:22Z</time>
      </trkpt>
      <trkpt lat="43.0831460" lon="-6.0289580">
        <ele>1133.2</ele>
        <time>2019-09-04T10:19:24Z</time>
      </trkpt>
      <trkpt lat="43.0830900" lon="-6.0289620">
        <ele>1133.2</ele>
        <time>2019-09-04T10:19:26Z</time>
      </trkpt>
      <trkpt lat="43.0830390" lon="-6.0289660">
        <ele>1133.2</ele>
        <time>2019-09-04T10:19:28Z</time>
      </trkpt>
      <trkpt lat="43.0829360" lon="-6.0289730">
        <ele>1133.2</ele>
        <time>2019-09-04T10:19:32Z</time>
      </trkpt>
      <trkpt lat="43.0828900" lon="-6.0289770">
        <ele>1133.2</ele>
        <time>2019-09-04T10:19:34Z</time>
      </trkpt>
      <trkpt lat="43.0827880" lon="-6.0289830">
        <ele>1133.2</ele>
        <time>2019-09-04T10:19:38Z</time>
      </trkpt>
      <trkpt lat="43.0826910" lon="-6.0289890">
        <ele>1136.2</ele>
        <time>2019-09-04T10:19:42Z</time>
      </trkpt>
      <trkpt lat="43.0826440" lon="-6.0289910">
        <ele>1136.2</ele>
        <time>2019-09-04T10:19:44Z</time>
      </trkpt>
      <trkpt lat="43.0825470" lon="-6.0289980">
        <ele>1136.2</ele>
        <time>2019-09-04T10:19:48Z</time>
      </trkpt>
      <trkpt lat="43.0824960" lon="-6.0290010">
        <ele>1136.2</ele>
        <time>2019-09-04T10:19:50Z</time>
      </trkpt>
      <trkpt lat="43.0824040" lon="-6.0290050">
        <ele>1136.2</ele>
        <time>2019-09-04T10:19:54Z</time>
      </trkpt>
      <trkpt lat="43.0823120" lon="-6.0290110">
        <ele>1139.1</ele>
        <time>2019-09-04T10:19:58Z</time>
      </trkpt>
      <trkpt lat="43.0822350" lon="-6.0290140">
        <ele>1139.1</ele>
        <time>2019-09-04T10:20:01Z</time>
      </trkpt>
      <trkpt lat="43.0821380" lon="-6.0290200">
        <ele>1139.1</ele>
        <time>2019-09-04T10:20:05Z</time>
      </trkpt>
      <trkpt lat="43.0820400" lon="-6.0290220">
        <ele>1139.1</ele>
        <time>2019-09-04T10:20:09Z</time>
      </trkpt>
      <trkpt lat="43.0819940" lon="-6.0290240">
        <ele>1139.1</ele>
        <time>2019-09-04T10:20:11Z</time>
      </trkpt>
      <trkpt lat="43.0819020" lon="-6.0290320">
        <ele>1142.1</ele>
        <time>2019-09-04T10:20:15Z</time>
      </trkpt>
      <trkpt lat="43.0818510" lon="-6.0290370">
        <ele>1142.1</ele>
        <time>2019-09-04T10:20:17Z</time>
      </trkpt>
      <trkpt lat="43.0817740" lon="-6.0290500">
        <ele>1142.1</ele>
        <time>2019-09-04T10:20:20Z</time>
      </trkpt>
      <trkpt lat="43.0817280" lon="-6.0290610">
        <ele>1142.1</ele>
        <time>2019-09-04T10:20:22Z</time>
      </trkpt>
      <trkpt lat="43.0816510" lon="-6.0290840">
        <ele>1142.1</ele>
        <time>2019-09-04T10:20:25Z</time>
      </trkpt>
      <trkpt lat="43.0815800" lon="-6.0291120">
        <ele>1145.3</ele>
        <time>2019-09-04T10:20:28Z</time>
      </trkpt>
      <trkpt lat="43.0815130" lon="-6.0291470">
        <ele>1145.3</ele>
        <time>2019-09-04T10:20:31Z</time>
      </trkpt>
      <trkpt lat="43.0814720" lon="-6.0291720">
        <ele>1145.3</ele>
        <time>2019-09-04T10:20:33Z</time>
      </trkpt>
      <trkpt lat="43.0814000" lon="-6.0292090">
        <ele>1145.3</ele>
        <time>2019-09-04T10:20:36Z</time>
      </trkpt>
      <trkpt lat="43.0813290" lon="-6.0292440">
        <ele>1145.3</ele>
        <time>2019-09-04T10:20:39Z</time>
      </trkpt>
      <trkpt lat="43.0812620" lon="-6.0292790">
        <ele>1145.3</ele>
        <time>2019-09-04T10:20:42Z</time>
      </trkpt>
      <trkpt lat="43.0812160" lon="-6.0293020">
        <ele>1148.5</ele>
        <time>2019-09-04T10:20:44Z</time>
      </trkpt>
      <trkpt lat="43.0811240" lon="-6.0293580">
        <ele>1148.5</ele>
        <time>2019-09-04T10:20:48Z</time>
      </trkpt>
      <trkpt lat="43.0810570" lon="-6.0294040">
        <ele>1148.5</ele>
        <time>2019-09-04T10:20:51Z</time>
      </trkpt>
      <trkpt lat="43.0809750" lon="-6.0294630">
        <ele>1145.9</ele>
        <time>2019-09-04T10:20:55Z</time>
      </trkpt>
      <trkpt lat="43.0808880" lon="-6.0295250">
        <ele>1145.9</ele>
        <time>2019-09-04T10:20:59Z</time>
      </trkpt>
      <trkpt lat="43.0808010" lon="-6.0295850">
        <ele>1149.2</ele>
        <time>2019-09-04T10:21:03Z</time>
      </trkpt>
      <trkpt lat="43.0807550" lon="-6.0296170">
        <ele>1149.2</ele>
        <time>2019-09-04T10:21:05Z</time>
      </trkpt>
      <trkpt lat="43.0806680" lon="-6.0296750">
        <ele>1149.2</ele>
        <time>2019-09-04T10:21:09Z</time>
      </trkpt>
      <trkpt lat="43.0806220" lon="-6.0297050">
        <ele>1149.2</ele>
        <time>2019-09-04T10:21:11Z</time>
      </trkpt>
      <trkpt lat="43.0805610" lon="-6.0297510">
        <ele>1149.2</ele>
        <time>2019-09-04T10:21:14Z</time>
      </trkpt>
      <trkpt lat="43.0804680" lon="-6.0298070">
        <ele>1152.1</ele>
        <time>2019-09-04T10:21:18Z</time>
      </trkpt>
      <trkpt lat="43.0803760" lon="-6.0298390">
        <ele>1152.1</ele>
        <time>2019-09-04T10:21:22Z</time>
      </trkpt>
      <trkpt lat="43.0803200" lon="-6.0298420">
        <ele>1152.1</ele>
        <time>2019-09-04T10:21:24Z</time>
      </trkpt>
      <trkpt lat="43.0802430" lon="-6.0298280">
        <ele>1152.1</ele>
        <time>2019-09-04T10:21:27Z</time>
      </trkpt>
      <trkpt lat="43.0801920" lon="-6.0298150">
        <ele>1152.1</ele>
        <time>2019-09-04T10:21:29Z</time>
      </trkpt>
      <trkpt lat="43.0801410" lon="-6.0298020">
        <ele>1152.1</ele>
        <time>2019-09-04T10:21:31Z</time>
      </trkpt>
      <trkpt lat="43.0800900" lon="-6.0297860">
        <ele>1155.3</ele>
        <time>2019-09-04T10:21:33Z</time>
      </trkpt>
      <trkpt lat="43.0800380" lon="-6.0297700">
        <ele>1155.3</ele>
        <time>2019-09-04T10:21:35Z</time>
      </trkpt>
      <trkpt lat="43.0799870" lon="-6.0297550">
        <ele>1155.3</ele>
        <time>2019-09-04T10:21:37Z</time>
      </trkpt>
      <trkpt lat="43.0799050" lon="-6.0297450">
        <ele>1155.3</ele>
        <time>2019-09-04T10:21:40Z</time>
      </trkpt>
      <trkpt lat="43.0798540" lon="-6.0297430">
        <ele>1155.3</ele>
        <time>2019-09-04T10:21:42Z</time>
      </trkpt>
      <trkpt lat="43.0797980" lon="-6.0297430">
        <ele>1155.3</ele>
        <time>2019-09-04T10:21:44Z</time>
      </trkpt>
      <trkpt lat="43.0797520" lon="-6.0297430">
        <ele>1155.3</ele>
        <time>2019-09-04T10:21:46Z</time>
      </trkpt>
      <trkpt lat="43.0797000" lon="-6.0297440">
        <ele>1158.2</ele>
        <time>2019-09-04T10:21:48Z</time>
      </trkpt>
      <trkpt lat="43.0796190" lon="-6.0297440">
        <ele>1158.2</ele>
        <time>2019-09-04T10:21:51Z</time>
      </trkpt>
      <trkpt lat="43.0795720" lon="-6.0297450">
        <ele>1158.2</ele>
        <time>2019-09-04T10:21:53Z</time>
      </trkpt>
      <trkpt lat="43.0794960" lon="-6.0297460">
        <ele>1158.2</ele>
        <time>2019-09-04T10:21:56Z</time>
      </trkpt>
      <trkpt lat="43.0794240" lon="-6.0297540">
        <ele>1158.2</ele>
        <time>2019-09-04T10:21:59Z</time>
      </trkpt>
      <trkpt lat="43.0793780" lon="-6.0297610">
        <ele>1158.2</ele>
        <time>2019-09-04T10:22:01Z</time>
      </trkpt>
      <trkpt lat="43.0793060" lon="-6.0297670">
        <ele>1161.5</ele>
        <time>2019-09-04T10:22:04Z</time>
      </trkpt>
      <trkpt lat="43.0792290" lon="-6.0297740">
        <ele>1161.5</ele>
        <time>2019-09-04T10:22:07Z</time>
      </trkpt>
      <trkpt lat="43.0791830" lon="-6.0297820">
        <ele>1161.5</ele>
        <time>2019-09-04T10:22:09Z</time>
      </trkpt>
      <trkpt lat="43.0791170" lon="-6.0297910">
        <ele>1161.5</ele>
        <time>2019-09-04T10:22:12Z</time>
      </trkpt>
      <trkpt lat="43.0790450" lon="-6.0298020">
        <ele>1161.5</ele>
        <time>2019-09-04T10:22:15Z</time>
      </trkpt>
      <trkpt lat="43.0789940" lon="-6.0298090">
        <ele>1161.5</ele>
        <time>2019-09-04T10:22:17Z</time>
      </trkpt>
      <trkpt lat="43.0789270" lon="-6.0298140">
        <ele>1164.6</ele>
        <time>2019-09-04T10:22:20Z</time>
      </trkpt>
      <trkpt lat="43.0788610" lon="-6.0298150">
        <ele>1164.6</ele>
        <time>2019-09-04T10:22:23Z</time>
      </trkpt>
      <trkpt lat="43.0787940" lon="-6.0298110">
        <ele>1164.6</ele>
        <time>2019-09-04T10:22:26Z</time>
      </trkpt>
      <trkpt lat="43.0787280" lon="-6.0297980">
        <ele>1164.6</ele>
        <time>2019-09-04T10:22:29Z</time>
      </trkpt>
      <trkpt lat="43.0786610" lon="-6.0297760">
        <ele>1164.6</ele>
        <time>2019-09-04T10:22:32Z</time>
      </trkpt>
      <trkpt lat="43.0785950" lon="-6.0297400">
        <ele>1164.6</ele>
        <time>2019-09-04T10:22:35Z</time>
      </trkpt>
      <trkpt lat="43.0785020" lon="-6.0296900">
        <ele>1167.6</ele>
        <time>2019-09-04T10:22:39Z</time>
      </trkpt>
      <trkpt lat="43.0784560" lon="-6.0296660">
        <ele>1167.6</ele>
        <time>2019-09-04T10:22:41Z</time>
      </trkpt>
      <trkpt lat="43.0783850" lon="-6.0296310">
        <ele>1167.6</ele>
        <time>2019-09-04T10:22:44Z</time>
      </trkpt>
      <trkpt lat="43.0783080" lon="-6.0296000">
        <ele>1167.6</ele>
        <time>2019-09-04T10:22:47Z</time>
      </trkpt>
      <trkpt lat="43.0782360" lon="-6.0295800">
        <ele>1167.6</ele>
        <time>2019-09-04T10:22:50Z</time>
      </trkpt>
      <trkpt lat="43.0781850" lon="-6.0295740">
        <ele>1170.8</ele>
        <time>2019-09-04T10:22:52Z</time>
      </trkpt>
      <trkpt lat="43.0781080" lon="-6.0295800">
        <ele>1170.8</ele>
        <time>2019-09-04T10:22:55Z</time>
      </trkpt>
      <trkpt lat="43.0780620" lon="-6.0295920">
        <ele>1170.8</ele>
        <time>2019-09-04T10:22:57Z</time>
      </trkpt>
      <trkpt lat="43.0779850" lon="-6.0296280">
        <ele>1170.8</ele>
        <time>2019-09-04T10:23:00Z</time>
      </trkpt>
      <trkpt lat="43.0779440" lon="-6.0296600">
        <ele>1170.8</ele>
        <time>2019-09-04T10:23:02Z</time>
      </trkpt>
      <trkpt lat="43.0778980" lon="-6.0296930">
        <ele>1170.8</ele>
        <time>2019-09-04T10:23:04Z</time>
      </trkpt>
      <trkpt lat="43.0778470" lon="-6.0297610">
        <ele>1170.8</ele>
        <time>2019-09-04T10:23:07Z</time>
      </trkpt>
      <trkpt lat="43.0778210" lon="-6.0298520">
        <ele>1174.0</ele>
        <time>2019-09-04T10:23:10Z</time>
      </trkpt>
      <trkpt lat="43.0778060" lon="-6.0299180">
        <ele>1174.0</ele>
        <time>2019-09-04T10:23:12Z</time>
      </trkpt>
      <trkpt lat="43.0777960" lon="-6.0299870">
        <ele>1174.0</ele>
        <time>2019-09-04T10:23:14Z</time>
      </trkpt>
      <trkpt lat="43.0777860" lon="-6.0300900">
        <ele>1174.0</ele>
        <time>2019-09-04T10:23:17Z</time>
      </trkpt>
      <trkpt lat="43.0777860" lon="-6.0301580">
        <ele>1174.0</ele>
        <time>2019-09-04T10:23:19Z</time>
      </trkpt>
      <trkpt lat="43.0777910" lon="-6.0302620">
        <ele>1174.0</ele>
        <time>2019-09-04T10:23:22Z</time>
      </trkpt>
      <trkpt lat="43.0777960" lon="-6.0303270">
        <ele>1177.1</ele>
        <time>2019-09-04T10:23:24Z</time>
      </trkpt>
      <trkpt lat="43.0778160" lon="-6.0304260">
        <ele>1177.1</ele>
        <time>2019-09-04T10:23:27Z</time>
      </trkpt>
      <trkpt lat="43.0778320" lon="-6.0304920">
        <ele>1177.1</ele>
        <time>2019-09-04T10:23:29Z</time>
      </trkpt>
      <trkpt lat="43.0778520" lon="-6.0305910">
        <ele>1177.1</ele>
        <time>2019-09-04T10:23:32Z</time>
      </trkpt>
      <trkpt lat="43.0778680" lon="-6.0306570">
        <ele>1177.1</ele>
        <time>2019-09-04T10:23:34Z</time>
      </trkpt>
      <trkpt lat="43.0778880" lon="-6.0307530">
        <ele>1177.1</ele>
        <time>2019-09-04T10:23:37Z</time>
      </trkpt>
      <trkpt lat="43.0779030" lon="-6.0308450">
        <ele>1180.3</ele>
        <time>2019-09-04T10:23:40Z</time>
      </trkpt>
      <trkpt lat="43.0779290" lon="-6.0309350">
        <ele>1180.3</ele>
        <time>2019-09-04T10:23:43Z</time>
      </trkpt>
      <trkpt lat="43.0779550" lon="-6.0310310">
        <ele>1180.3</ele>
        <time>2019-09-04T10:23:46Z</time>
      </trkpt>
      <trkpt lat="43.0779700" lon="-6.0310960">
        <ele>1180.3</ele>
        <time>2019-09-04T10:23:48Z</time>
      </trkpt>
      <trkpt lat="43.0779800" lon="-6.0311630">
        <ele>1180.3</ele>
        <time>2019-09-04T10:23:50Z</time>
      </trkpt>
      <trkpt lat="43.0780010" lon="-6.0312650">
        <ele>1180.3</ele>
        <time>2019-09-04T10:23:53Z</time>
      </trkpt>
      <trkpt lat="43.0780210" lon="-6.0313310">
        <ele>1180.3</ele>
        <time>2019-09-04T10:23:55Z</time>
      </trkpt>
      <trkpt lat="43.0780360" lon="-6.0313980">
        <ele>1183.6</ele>
        <time>2019-09-04T10:23:57Z</time>
      </trkpt>
      <trkpt lat="43.0780570" lon="-6.0314670">
        <ele>1183.6</ele>
        <time>2019-09-04T10:23:59Z</time>
      </trkpt>
      <trkpt lat="43.0780720" lon="-6.0315370">
        <ele>1183.6</ele>
        <time>2019-09-04T10:24:01Z</time>
      </trkpt>
      <trkpt lat="43.0780930" lon="-6.0316030">
        <ele>1183.6</ele>
        <time>2019-09-04T10:24:03Z</time>
      </trkpt>
      <trkpt lat="43.0781130" lon="-6.0317070">
        <ele>1183.6</ele>
        <time>2019-09-04T10:24:06Z</time>
      </trkpt>
      <trkpt lat="43.0781290" lon="-6.0317790">
        <ele>1183.6</ele>
        <time>2019-09-04T10:24:08Z</time>
      </trkpt>
      <trkpt lat="43.0781390" lon="-6.0318480">
        <ele>1183.6</ele>
        <time>2019-09-04T10:24:10Z</time>
      </trkpt>
      <trkpt lat="43.0781540" lon="-6.0319160">
        <ele>1186.9</ele>
        <time>2019-09-04T10:24:12Z</time>
      </trkpt>
      <trkpt lat="43.0781590" lon="-6.0319870">
        <ele>1186.9</ele>
        <time>2019-09-04T10:24:14Z</time>
      </trkpt>
      <trkpt lat="43.0781640" lon="-6.0320580">
        <ele>1186.9</ele>
        <time>2019-09-04T10:24:16Z</time>
      </trkpt>
      <trkpt lat="43.0781700" lon="-6.0321630">
        <ele>1186.9</ele>
        <time>2019-09-04T10:24:19Z</time>
      </trkpt>
      <trkpt lat="43.0781750" lon="-6.0322310">
        <ele>1186.9</ele>
        <time>2019-09-04T10:24:21Z</time>
      </trkpt>
      <trkpt lat="43.0781800" lon="-6.0323280">
        <ele>1186.9</ele>
        <time>2019-09-04T10:24:24Z</time>
      </trkpt>
      <trkpt lat="43.0781800" lon="-6.0324310">
        <ele>1186.9</ele>
        <time>2019-09-04T10:24:27Z</time>
      </trkpt>
      <trkpt lat="43.0781850" lon="-6.0324930">
        <ele>1190.3</ele>
        <time>2019-09-04T10:24:29Z</time>
      </trkpt>
      <trkpt lat="43.0781850" lon="-6.0325950">
        <ele>1190.3</ele>
        <time>2019-09-04T10:24:32Z</time>
      </trkpt>
      <trkpt lat="43.0781850" lon="-6.0326950">
        <ele>1190.3</ele>
        <time>2019-09-04T10:24:35Z</time>
      </trkpt>
      <trkpt lat="43.0781850" lon="-6.0327910">
        <ele>1190.3</ele>
        <time>2019-09-04T10:24:38Z</time>
      </trkpt>
      <trkpt lat="43.0781750" lon="-6.0328900">
        <ele>1190.3</ele>
        <time>2019-09-04T10:24:41Z</time>
      </trkpt>
      <trkpt lat="43.0781540" lon="-6.0329910">
        <ele>1193.5</ele>
        <time>2019-09-04T10:24:44Z</time>
      </trkpt>
      <trkpt lat="43.0781390" lon="-6.0330550">
        <ele>1193.5</ele>
        <time>2019-09-04T10:24:46Z</time>
      </trkpt>
      <trkpt lat="43.0781130" lon="-6.0331480">
        <ele>1193.5</ele>
        <time>2019-09-04T10:24:49Z</time>
      </trkpt>
      <trkpt lat="43.0780880" lon="-6.0332380">
        <ele>1193.5</ele>
        <time>2019-09-04T10:24:52Z</time>
      </trkpt>
      <trkpt lat="43.0780620" lon="-6.0333250">
        <ele>1193.5</ele>
        <time>2019-09-04T10:24:55Z</time>
      </trkpt>
      <trkpt lat="43.0780310" lon="-6.0334070">
        <ele>1193.5</ele>
        <time>2019-09-04T10:24:58Z</time>
      </trkpt>
      <trkpt lat="43.0779900" lon="-6.0334910">
        <ele>1196.9</ele>
        <time>2019-09-04T10:25:01Z</time>
      </trkpt>
      <trkpt lat="43.0779550" lon="-6.0335740">
        <ele>1196.9</ele>
        <time>2019-09-04T10:25:04Z</time>
      </trkpt>
      <trkpt lat="43.0779290" lon="-6.0336320">
        <ele>1196.9</ele>
        <time>2019-09-04T10:25:06Z</time>
      </trkpt>
      <trkpt lat="43.0778930" lon="-6.0337160">
        <ele>1196.9</ele>
        <time>2019-09-04T10:25:09Z</time>
      </trkpt>
      <trkpt lat="43.0778680" lon="-6.0337710">
        <ele>1196.9</ele>
        <time>2019-09-04T10:25:11Z</time>
      </trkpt>
      <trkpt lat="43.0778370" lon="-6.0338590">
        <ele>1196.9</ele>
        <time>2019-09-04T10:25:14Z</time>
      </trkpt>
      <trkpt lat="43.0778160" lon="-6.0339490">
        <ele>1200.4</ele>
        <time>2019-09-04T10:25:17Z</time>
      </trkpt>
      <trkpt lat="43.0778010" lon="-6.0340470">
        <ele>1200.4</ele>
        <time>2019-09-04T10:25:20Z</time>
      </trkpt>
      <trkpt lat="43.0777910" lon="-6.0341110">
        <ele>1200.4</ele>
        <time>2019-09-04T10:25:22Z</time>
      </trkpt>
      <trkpt lat="43.0777960" lon="-6.0342430">
        <ele>1200.4</ele>
        <time>2019-09-04T10:25:26Z</time>
      </trkpt>
      <trkpt lat="43.0778010" lon="-6.0343050">
        <ele>1200.4</ele>
        <time>2019-09-04T10:25:28Z</time>
      </trkpt>
      <trkpt lat="43.0778060" lon="-6.0344430">
        <ele>1203.8</ele>
        <time>2019-09-04T10:25:32Z</time>
      </trkpt>
      <trkpt lat="43.0778110" lon="-6.0345750">
        <ele>1203.8</ele>
        <time>2019-09-04T10:25:36Z</time>
      </trkpt>
      <trkpt lat="43.0778010" lon="-6.0346870">
        <ele>1203.8</ele>
        <time>2019-09-04T10:25:40Z</time>
      </trkpt>
      <trkpt lat="43.0777910" lon="-6.0347530">
        <ele>1203.8</ele>
        <time>2019-09-04T10:25:42Z</time>
      </trkpt>
      <trkpt lat="43.0777750" lon="-6.0348250">
        <ele>1203.8</ele>
        <time>2019-09-04T10:25:44Z</time>
      </trkpt>
      <trkpt lat="43.0777500" lon="-6.0349310">
        <ele>1203.8</ele>
        <time>2019-09-04T10:25:47Z</time>
      </trkpt>
      <trkpt lat="43.0777240" lon="-6.0350020">
        <ele>1207.3</ele>
        <time>2019-09-04T10:25:49Z</time>
      </trkpt>
      <trkpt lat="43.0776780" lon="-6.0351100">
        <ele>1207.3</ele>
        <time>2019-09-04T10:25:52Z</time>
      </trkpt>
      <trkpt lat="43.0776270" lon="-6.0352200">
        <ele>1207.3</ele>
        <time>2019-09-04T10:25:55Z</time>
      </trkpt>
      <trkpt lat="43.0775710" lon="-6.0353310">
        <ele>1207.3</ele>
        <time>2019-09-04T10:25:58Z</time>
      </trkpt>
      <trkpt lat="43.0775240" lon="-6.0354040">
        <ele>1207.3</ele>
        <time>2019-09-04T10:26:00Z</time>
      </trkpt>
      <trkpt lat="43.0774780" lon="-6.0354710">
        <ele>1207.3</ele>
        <time>2019-09-04T10:26:02Z</time>
      </trkpt>
      <trkpt lat="43.0774170" lon="-6.0355380">
        <ele>1207.3</ele>
        <time>2019-09-04T10:26:04Z</time>
      </trkpt>
      <trkpt lat="43.0773610" lon="-6.0355980">
        <ele>1210.7</ele>
        <time>2019-09-04T10:26:06Z</time>
      </trkpt>
      <trkpt lat="43.0772840" lon="-6.0356410">
        <ele>1210.7</ele>
        <time>2019-09-04T10:26:08Z</time>
      </trkpt>
      <trkpt lat="43.0772070" lon="-6.0356510">
        <ele>1210.7</ele>
        <time>2019-09-04T10:26:10Z</time>
      </trkpt>
      <trkpt lat="43.0771350" lon="-6.0356200">
        <ele>1210.7</ele>
        <time>2019-09-04T10:26:12Z</time>
      </trkpt>
      <trkpt lat="43.0770640" lon="-6.0355550">
        <ele>1210.7</ele>
        <time>2019-09-04T10:26:14Z</time>
      </trkpt>
      <trkpt lat="43.0770230" lon="-6.0354690">
        <ele>1210.7</ele>
        <time>2019-09-04T10:26:16Z</time>
      </trkpt>
      <trkpt lat="43.0769870" lon="-6.0353260">
        <ele>1210.7</ele>
        <time>2019-09-04T10:26:19Z</time>
      </trkpt>
      <trkpt lat="43.0769660" lon="-6.0351950">
        <ele>1213.9</ele>
        <time>2019-09-04T10:26:22Z</time>
      </trkpt>
      <trkpt lat="43.0769510" lon="-6.0351110">
        <ele>1213.9</ele>
        <time>2019-09-04T10:26:24Z</time>
      </trkpt>
      <trkpt lat="43.0769410" lon="-6.0350280">
        <ele>1213.9</ele>
        <time>2019-09-04T10:26:26Z</time>
      </trkpt>
      <trkpt lat="43.0769250" lon="-6.0349470">
        <ele>1213.9</ele>
        <time>2019-09-04T10:26:28Z</time>
      </trkpt>
      <trkpt lat="43.0769100" lon="-6.0348700">
        <ele>1213.9</ele>
        <time>2019-09-04T10:26:30Z</time>
      </trkpt>
      <trkpt lat="43.0768950" lon="-6.0347980">
        <ele>1213.9</ele>
        <time>2019-09-04T10:26:32Z</time>
      </trkpt>
      <trkpt lat="43.0768840" lon="-6.0347120">
        <ele>1213.9</ele>
        <time>2019-09-04T10:26:35Z</time>
      </trkpt>
      <trkpt lat="43.0768740" lon="-6.0346250">
        <ele>1213.9</ele>
        <time>2019-09-04T10:26:37Z</time>
      </trkpt>
      <trkpt lat="43.0768690" lon="-6.0345460">
        <ele>1217.1</ele>
        <time>2019-09-04T10:26:39Z</time>
      </trkpt>
      <trkpt lat="43.0768640" lon="-6.0344700">
        <ele>1217.1</ele>
        <time>2019-09-04T10:26:41Z</time>
      </trkpt>
      <trkpt lat="43.0768640" lon="-6.0343990">
        <ele>1217.1</ele>
        <time>2019-09-04T10:26:43Z</time>
      </trkpt>
      <trkpt lat="43.0768540" lon="-6.0343330">
        <ele>1217.1</ele>
        <time>2019-09-04T10:26:45Z</time>
      </trkpt>
      <trkpt lat="43.0768330" lon="-6.0342320">
        <ele>1217.1</ele>
        <time>2019-09-04T10:26:48Z</time>
      </trkpt>
      <trkpt lat="43.0768180" lon="-6.0341660">
        <ele>1217.1</ele>
        <time>2019-09-04T10:26:50Z</time>
      </trkpt>
      <trkpt lat="43.0767870" lon="-6.0340640">
        <ele>1217.1</ele>
        <time>2019-09-04T10:26:53Z</time>
      </trkpt>
      <trkpt lat="43.0767670" lon="-6.0340020">
        <ele>1220.1</ele>
        <time>2019-09-04T10:26:55Z</time>
      </trkpt>
      <trkpt lat="43.0767360" lon="-6.0339050">
        <ele>1220.1</ele>
        <time>2019-09-04T10:26:58Z</time>
      </trkpt>
      <trkpt lat="43.0767160" lon="-6.0338080">
        <ele>1220.1</ele>
        <time>2019-09-04T10:27:01Z</time>
      </trkpt>
      <trkpt lat="43.0766900" lon="-6.0337400">
        <ele>1220.1</ele>
        <time>2019-09-04T10:27:03Z</time>
      </trkpt>
      <trkpt lat="43.0766690" lon="-6.0336760">
        <ele>1220.1</ele>
        <time>2019-09-04T10:27:05Z</time>
      </trkpt>
      <trkpt lat="43.0766390" lon="-6.0335890">
        <ele>1220.1</ele>
        <time>2019-09-04T10:27:08Z</time>
      </trkpt>
      <trkpt lat="43.0765670" lon="-6.0334920">
        <ele>1223.1</ele>
        <time>2019-09-04T10:27:12Z</time>
      </trkpt>
      <trkpt lat="43.0765210" lon="-6.0334590">
        <ele>1223.1</ele>
        <time>2019-09-04T10:27:14Z</time>
      </trkpt>
      <trkpt lat="43.0764440" lon="-6.0334360">
        <ele>1223.1</ele>
        <time>2019-09-04T10:27:17Z</time>
      </trkpt>
      <trkpt lat="43.0763980" lon="-6.0334300">
        <ele>1223.1</ele>
        <time>2019-09-04T10:27:19Z</time>
      </trkpt>
      <trkpt lat="43.0762960" lon="-6.0334350">
        <ele>1223.1</ele>
        <time>2019-09-04T10:27:23Z</time>
      </trkpt>
      <trkpt lat="43.0761930" lon="-6.0334430">
        <ele>1226.2</ele>
        <time>2019-09-04T10:27:27Z</time>
      </trkpt>
      <trkpt lat="43.0761010" lon="-6.0334680">
        <ele>1226.2</ele>
        <time>2019-09-04T10:27:31Z</time>
      </trkpt>
      <trkpt lat="43.0759990" lon="-6.0335050">
        <ele>1226.2</ele>
        <time>2019-09-04T10:27:35Z</time>
      </trkpt>
      <trkpt lat="43.0759370" lon="-6.0335200">
        <ele>1226.2</ele>
        <time>2019-09-04T10:27:37Z</time>
      </trkpt>
      <trkpt lat="43.0758860" lon="-6.0335310">
        <ele>1226.2</ele>
        <time>2019-09-04T10:27:39Z</time>
      </trkpt>
      <trkpt lat="43.0758300" lon="-6.0335370">
        <ele>1226.2</ele>
        <time>2019-09-04T10:27:41Z</time>
      </trkpt>
      <trkpt lat="43.0757790" lon="-6.0335410">
        <ele>1229.4</ele>
        <time>2019-09-04T10:27:43Z</time>
      </trkpt>
      <trkpt lat="43.0756860" lon="-6.0335370">
        <ele>1229.4</ele>
        <time>2019-09-04T10:27:47Z</time>
      </trkpt>
      <trkpt lat="43.0756350" lon="-6.0335320">
        <ele>1229.4</ele>
        <time>2019-09-04T10:27:49Z</time>
      </trkpt>
      <trkpt lat="43.0755330" lon="-6.0335190">
        <ele>1229.4</ele>
        <time>2019-09-04T10:27:53Z</time>
      </trkpt>
      <trkpt lat="43.0754710" lon="-6.0335000">
        <ele>1231.5</ele>
        <time>2019-09-04T10:27:56Z</time>
      </trkpt>
      <trkpt lat="43.0753890" lon="-6.0334550">
        <ele>1233.6</ele>
        <time>2019-09-04T10:28:00Z</time>
      </trkpt>
      <trkpt lat="43.0753380" lon="-6.0334300">
        <ele>1233.6</ele>
        <time>2019-09-04T10:28:02Z</time>
      </trkpt>
      <trkpt lat="43.0752460" lon="-6.0333850">
        <ele>1233.6</ele>
        <time>2019-09-04T10:28:06Z</time>
      </trkpt>
      <trkpt lat="43.0751590" lon="-6.0333360">
        <ele>1233.6</ele>
        <time>2019-09-04T10:28:10Z</time>
      </trkpt>
      <trkpt lat="43.0750670" lon="-6.0333050">
        <ele>1235.7</ele>
        <time>2019-09-04T10:28:14Z</time>
      </trkpt>
      <trkpt lat="43.0749700" lon="-6.0332790">
        <ele>1237.7</ele>
        <time>2019-09-04T10:28:18Z</time>
      </trkpt>
      <trkpt lat="43.0749180" lon="-6.0332670">
        <ele>1237.7</ele>
        <time>2019-09-04T10:28:20Z</time>
      </trkpt>
      <trkpt lat="43.0748260" lon="-6.0332430">
        <ele>1237.7</ele>
        <time>2019-09-04T10:28:24Z</time>
      </trkpt>
      <trkpt lat="43.0747490" lon="-6.0332290">
        <ele>1237.7</ele>
        <time>2019-09-04T10:28:27Z</time>
      </trkpt>
      <trkpt lat="43.0746420" lon="-6.0331950">
        <ele>1239.9</ele>
        <time>2019-09-04T10:28:31Z</time>
      </trkpt>
      <trkpt lat="43.0745910" lon="-6.0331680">
        <ele>1242.0</ele>
        <time>2019-09-04T10:28:33Z</time>
      </trkpt>
      <trkpt lat="43.0745340" lon="-6.0331400">
        <ele>1242.0</ele>
        <time>2019-09-04T10:28:35Z</time>
      </trkpt>
      <trkpt lat="43.0744580" lon="-6.0330940">
        <ele>1242.0</ele>
        <time>2019-09-04T10:28:38Z</time>
      </trkpt>
      <trkpt lat="43.0744170" lon="-6.0330570">
        <ele>1242.0</ele>
        <time>2019-09-04T10:28:40Z</time>
      </trkpt>
      <trkpt lat="43.0743760" lon="-6.0330140">
        <ele>1242.0</ele>
        <time>2019-09-04T10:28:42Z</time>
      </trkpt>
      <trkpt lat="43.0743400" lon="-6.0329660">
        <ele>1244.2</ele>
        <time>2019-09-04T10:28:44Z</time>
      </trkpt>
      <trkpt lat="43.0742780" lon="-6.0328490">
        <ele>1246.4</ele>
        <time>2019-09-04T10:28:48Z</time>
      </trkpt>
      <trkpt lat="43.0742630" lon="-6.0327890">
        <ele>1246.4</ele>
        <time>2019-09-04T10:28:50Z</time>
      </trkpt>
      <trkpt lat="43.0742630" lon="-6.0326910">
        <ele>1246.4</ele>
        <time>2019-09-04T10:28:53Z</time>
      </trkpt>
      <trkpt lat="43.0742780" lon="-6.0325590">
        <ele>1246.4</ele>
        <time>2019-09-04T10:28:57Z</time>
      </trkpt>
      <trkpt lat="43.0742940" lon="-6.0324920">
        <ele>1246.4</ele>
        <time>2019-09-04T10:28:59Z</time>
      </trkpt>
      <trkpt lat="43.0743190" lon="-6.0324280">
        <ele>1246.4</ele>
        <time>2019-09-04T10:29:01Z</time>
      </trkpt>
      <trkpt lat="43.0743500" lon="-6.0323650">
        <ele>1249.8</ele>
        <time>2019-09-04T10:29:03Z</time>
      </trkpt>
      <trkpt lat="43.0743910" lon="-6.0323120">
        <ele>1249.8</ele>
        <time>2019-09-04T10:29:05Z</time>
      </trkpt>
      <trkpt lat="43.0744320" lon="-6.0322560">
        <ele>1249.8</ele>
        <time>2019-09-04T10:29:07Z</time>
      </trkpt>
      <trkpt lat="43.0744930" lon="-6.0321770">
        <ele>1249.8</ele>
        <time>2019-09-04T10:29:10Z</time>
      </trkpt>
      <trkpt lat="43.0745290" lon="-6.0321180">
        <ele>1249.8</ele>
        <time>2019-09-04T10:29:12Z</time>
      </trkpt>
      <trkpt lat="43.0745600" lon="-6.0320600">
        <ele>1249.8</ele>
        <time>2019-09-04T10:29:14Z</time>
      </trkpt>
      <trkpt lat="43.0745750" lon="-6.0319940">
        <ele>1249.8</ele>
        <time>2019-09-04T10:29:16Z</time>
      </trkpt>
      <trkpt lat="43.0745860" lon="-6.0319250">
        <ele>1252.6</ele>
        <time>2019-09-04T10:29:18Z</time>
      </trkpt>
      <trkpt lat="43.0745860" lon="-6.0318560">
        <ele>1252.6</ele>
        <time>2019-09-04T10:29:20Z</time>
      </trkpt>
      <trkpt lat="43.0745600" lon="-6.0317250">
        <ele>1252.6</ele>
        <time>2019-09-04T10:29:24Z</time>
      </trkpt>
      <trkpt lat="43.0745400" lon="-6.0316610">
        <ele>1252.6</ele>
        <time>2019-09-04T10:29:26Z</time>
      </trkpt>
      <trkpt lat="43.0745140" lon="-6.0315970">
        <ele>1252.6</ele>
        <time>2019-09-04T10:29:28Z</time>
      </trkpt>
      <trkpt lat="43.0744880" lon="-6.0315360">
        <ele>1252.6</ele>
        <time>2019-09-04T10:29:30Z</time>
      </trkpt>
      <trkpt lat="43.0744580" lon="-6.0314740">
        <ele>1252.6</ele>
        <time>2019-09-04T10:29:32Z</time>
      </trkpt>
      <trkpt lat="43.0744320" lon="-6.0314080">
        <ele>1255.8</ele>
        <time>2019-09-04T10:29:34Z</time>
      </trkpt>
      <trkpt lat="43.0744060" lon="-6.0313450">
        <ele>1255.8</ele>
        <time>2019-09-04T10:29:36Z</time>
      </trkpt>
      <trkpt lat="43.0743710" lon="-6.0312830">
        <ele>1255.8</ele>
        <time>2019-09-04T10:29:38Z</time>
      </trkpt>
      <trkpt lat="43.0743350" lon="-6.0312250">
        <ele>1255.8</ele>
        <time>2019-09-04T10:29:40Z</time>
      </trkpt>
      <trkpt lat="43.0743040" lon="-6.0311650">
        <ele>1255.8</ele>
        <time>2019-09-04T10:29:42Z</time>
      </trkpt>
      <trkpt lat="43.0742780" lon="-6.0311060">
        <ele>1255.8</ele>
        <time>2019-09-04T10:29:44Z</time>
      </trkpt>
      <trkpt lat="43.0742530" lon="-6.0310410">
        <ele>1255.8</ele>
        <time>2019-09-04T10:29:46Z</time>
      </trkpt>
      <trkpt lat="43.0742320" lon="-6.0309780">
        <ele>1255.8</ele>
        <time>2019-09-04T10:29:48Z</time>
      </trkpt>
      <trkpt lat="43.0742020" lon="-6.0308430">
        <ele>1258.9</ele>
        <time>2019-09-04T10:29:52Z</time>
      </trkpt>
      <trkpt lat="43.0741910" lon="-6.0307710">
        <ele>1258.9</ele>
        <time>2019-09-04T10:29:54Z</time>
      </trkpt>
      <trkpt lat="43.0741810" lon="-6.0307010">
        <ele>1258.9</ele>
        <time>2019-09-04T10:29:56Z</time>
      </trkpt>
      <trkpt lat="43.0741660" lon="-6.0305980">
        <ele>1258.9</ele>
        <time>2019-09-04T10:29:59Z</time>
      </trkpt>
      <trkpt lat="43.0741450" lon="-6.0305310">
        <ele>1258.9</ele>
        <time>2019-09-04T10:30:01Z</time>
      </trkpt>
      <trkpt lat="43.0741250" lon="-6.0304640">
        <ele>1258.9</ele>
        <time>2019-09-04T10:30:03Z</time>
      </trkpt>
      <trkpt lat="43.0741040" lon="-6.0303980">
        <ele>1258.9</ele>
        <time>2019-09-04T10:30:05Z</time>
      </trkpt>
      <trkpt lat="43.0740840" lon="-6.0303350">
        <ele>1262.2</ele>
        <time>2019-09-04T10:30:07Z</time>
      </trkpt>
      <trkpt lat="43.0740280" lon="-6.0302430">
        <ele>1262.2</ele>
        <time>2019-09-04T10:30:10Z</time>
      </trkpt>
      <trkpt lat="43.0739970" lon="-6.0301860">
        <ele>1262.2</ele>
        <time>2019-09-04T10:30:12Z</time>
      </trkpt>
      <trkpt lat="43.0739350" lon="-6.0300740">
        <ele>1262.2</ele>
        <time>2019-09-04T10:30:16Z</time>
      </trkpt>
      <trkpt lat="43.0739050" lon="-6.0300200">
        <ele>1262.2</ele>
        <time>2019-09-04T10:30:18Z</time>
      </trkpt>
      <trkpt lat="43.0738590" lon="-6.0299390">
        <ele>1262.2</ele>
        <time>2019-09-04T10:30:21Z</time>
      </trkpt>
      <trkpt lat="43.0738280" lon="-6.0298840">
        <ele>1265.5</ele>
        <time>2019-09-04T10:30:23Z</time>
      </trkpt>
      <trkpt lat="43.0737770" lon="-6.0298040">
        <ele>1265.5</ele>
        <time>2019-09-04T10:30:26Z</time>
      </trkpt>
      <trkpt lat="43.0737360" lon="-6.0297530">
        <ele>1265.5</ele>
        <time>2019-09-04T10:30:28Z</time>
      </trkpt>
      <trkpt lat="43.0737000" lon="-6.0297040">
        <ele>1265.5</ele>
        <time>2019-09-04T10:30:30Z</time>
      </trkpt>
      <trkpt lat="43.0736640" lon="-6.0296540">
        <ele>1265.5</ele>
        <time>2019-09-04T10:30:32Z</time>
      </trkpt>
      <trkpt lat="43.0735920" lon="-6.0295560">
        <ele>1265.5</ele>
        <time>2019-09-04T10:30:36Z</time>
      </trkpt>
      <trkpt lat="43.0735560" lon="-6.0295050">
        <ele>1269.2</ele>
        <time>2019-09-04T10:30:38Z</time>
      </trkpt>
      <trkpt lat="43.0735210" lon="-6.0294500">
        <ele>1269.2</ele>
        <time>2019-09-04T10:30:40Z</time>
      </trkpt>
      <trkpt lat="43.0734750" lon="-6.0294020">
        <ele>1269.2</ele>
        <time>2019-09-04T10:30:42Z</time>
      </trkpt>
      <trkpt lat="43.0734280" lon="-6.0293610">
        <ele>1269.2</ele>
        <time>2019-09-04T10:30:44Z</time>
      </trkpt>
      <trkpt lat="43.0733820" lon="-6.0293190">
        <ele>1269.2</ele>
        <time>2019-09-04T10:30:46Z</time>
      </trkpt>
      <trkpt lat="43.0733360" lon="-6.0292760">
        <ele>1269.2</ele>
        <time>2019-09-04T10:30:48Z</time>
      </trkpt>
      <trkpt lat="43.0732900" lon="-6.0292380">
        <ele>1269.2</ele>
        <time>2019-09-04T10:30:50Z</time>
      </trkpt>
      <trkpt lat="43.0732440" lon="-6.0292070">
        <ele>1269.2</ele>
        <time>2019-09-04T10:30:52Z</time>
      </trkpt>
      <trkpt lat="43.0731980" lon="-6.0291790">
        <ele>1272.7</ele>
        <time>2019-09-04T10:30:54Z</time>
      </trkpt>
      <trkpt lat="43.0731520" lon="-6.0291540">
        <ele>1272.7</ele>
        <time>2019-09-04T10:30:56Z</time>
      </trkpt>
      <trkpt lat="43.0730800" lon="-6.0291190">
        <ele>1272.7</ele>
        <time>2019-09-04T10:30:59Z</time>
      </trkpt>
      <trkpt lat="43.0730190" lon="-6.0290820">
        <ele>1272.7</ele>
        <time>2019-09-04T10:31:02Z</time>
      </trkpt>
      <trkpt lat="43.0729270" lon="-6.0290390">
        <ele>1272.7</ele>
        <time>2019-09-04T10:31:06Z</time>
      </trkpt>
      <trkpt lat="43.0728810" lon="-6.0290270">
        <ele>1272.7</ele>
        <time>2019-09-04T10:31:08Z</time>
      </trkpt>
      <trkpt lat="43.0727880" lon="-6.0290150">
        <ele>1276.2</ele>
        <time>2019-09-04T10:31:12Z</time>
      </trkpt>
      <trkpt lat="43.0726910" lon="-6.0290040">
        <ele>1276.2</ele>
        <time>2019-09-04T10:31:16Z</time>
      </trkpt>
      <trkpt lat="43.0725840" lon="-6.0289870">
        <ele>1276.2</ele>
        <time>2019-09-04T10:31:20Z</time>
      </trkpt>
      <trkpt lat="43.0725380" lon="-6.0289750">
        <ele>1276.2</ele>
        <time>2019-09-04T10:31:22Z</time>
      </trkpt>
      <trkpt lat="43.0724860" lon="-6.0289590">
        <ele>1276.2</ele>
        <time>2019-09-04T10:31:24Z</time>
      </trkpt>
      <trkpt lat="43.0723890" lon="-6.0289090">
        <ele>1279.7</ele>
        <time>2019-09-04T10:31:28Z</time>
      </trkpt>
      <trkpt lat="43.0723070" lon="-6.0288460">
        <ele>1279.7</ele>
        <time>2019-09-04T10:31:32Z</time>
      </trkpt>
      <trkpt lat="43.0722300" lon="-6.0287800">
        <ele>1279.7</ele>
        <time>2019-09-04T10:31:36Z</time>
      </trkpt>
      <trkpt lat="43.0721640" lon="-6.0287440">
        <ele>1279.7</ele>
        <time>2019-09-04T10:31:39Z</time>
      </trkpt>
      <trkpt lat="43.0720770" lon="-6.0287060">
        <ele>1283.0</ele>
        <time>2019-09-04T10:31:43Z</time>
      </trkpt>
      <trkpt lat="43.0720050" lon="-6.0286920">
        <ele>1283.0</ele>
        <time>2019-09-04T10:31:46Z</time>
      </trkpt>
      <trkpt lat="43.0719280" lon="-6.0286760">
        <ele>1283.0</ele>
        <time>2019-09-04T10:31:49Z</time>
      </trkpt>
      <trkpt lat="43.0718820" lon="-6.0286580">
        <ele>1283.0</ele>
        <time>2019-09-04T10:31:51Z</time>
      </trkpt>
      <trkpt lat="43.0717900" lon="-6.0286080">
        <ele>1283.0</ele>
        <time>2019-09-04T10:31:55Z</time>
      </trkpt>
      <trkpt lat="43.0717030" lon="-6.0285570">
        <ele>1287.0</ele>
        <time>2019-09-04T10:31:59Z</time>
      </trkpt>
      <trkpt lat="43.0716570" lon="-6.0285270">
        <ele>1287.0</ele>
        <time>2019-09-04T10:32:01Z</time>
      </trkpt>
      <trkpt lat="43.0716060" lon="-6.0284990">
        <ele>1287.0</ele>
        <time>2019-09-04T10:32:03Z</time>
      </trkpt>
      <trkpt lat="43.0715140" lon="-6.0284510">
        <ele>1287.0</ele>
        <time>2019-09-04T10:32:07Z</time>
      </trkpt>
      <trkpt lat="43.0714620" lon="-6.0284310">
        <ele>1287.0</ele>
        <time>2019-09-04T10:32:09Z</time>
      </trkpt>
      <trkpt lat="43.0714060" lon="-6.0284120">
        <ele>1287.0</ele>
        <time>2019-09-04T10:32:11Z</time>
      </trkpt>
      <trkpt lat="43.0713290" lon="-6.0283780">
        <ele>1290.9</ele>
        <time>2019-09-04T10:32:14Z</time>
      </trkpt>
      <trkpt lat="43.0712780" lon="-6.0283460">
        <ele>1290.9</ele>
        <time>2019-09-04T10:32:16Z</time>
      </trkpt>
      <trkpt lat="43.0711960" lon="-6.0282760">
        <ele>1290.9</ele>
        <time>2019-09-04T10:32:19Z</time>
      </trkpt>
      <trkpt lat="43.0711450" lon="-6.0282300">
        <ele>1290.9</ele>
        <time>2019-09-04T10:32:21Z</time>
      </trkpt>
      <trkpt lat="43.0710890" lon="-6.0281850">
        <ele>1290.9</ele>
        <time>2019-09-04T10:32:23Z</time>
      </trkpt>
      <trkpt lat="43.0710320" lon="-6.0281480">
        <ele>1290.9</ele>
        <time>2019-09-04T10:32:25Z</time>
      </trkpt>
      <trkpt lat="43.0709860" lon="-6.0281160">
        <ele>1290.9</ele>
        <time>2019-09-04T10:32:27Z</time>
      </trkpt>
      <trkpt lat="43.0709300" lon="-6.0280840">
        <ele>1290.9</ele>
        <time>2019-09-04T10:32:29Z</time>
      </trkpt>
      <trkpt lat="43.0708840" lon="-6.0280560">
        <ele>1294.7</ele>
        <time>2019-09-04T10:32:31Z</time>
      </trkpt>
      <trkpt lat="43.0708330" lon="-6.0280340">
        <ele>1294.7</ele>
        <time>2019-09-04T10:32:33Z</time>
      </trkpt>
      <trkpt lat="43.0707870" lon="-6.0280190">
        <ele>1294.7</ele>
        <time>2019-09-04T10:32:35Z</time>
      </trkpt>
      <trkpt lat="43.0706840" lon="-6.0279760">
        <ele>1294.7</ele>
        <time>2019-09-04T10:32:39Z</time>
      </trkpt>
      <trkpt lat="43.0705970" lon="-6.0278980">
        <ele>1294.7</ele>
        <time>2019-09-04T10:32:43Z</time>
      </trkpt>
      <trkpt lat="43.0705360" lon="-6.0277940">
        <ele>1298.4</ele>
        <time>2019-09-04T10:32:47Z</time>
      </trkpt>
      <trkpt lat="43.0705100" lon="-6.0277090">
        <ele>1298.4</ele>
        <time>2019-09-04T10:32:50Z</time>
      </trkpt>
      <trkpt lat="43.0704950" lon="-6.0275830">
        <ele>1298.4</ele>
        <time>2019-09-04T10:32:54Z</time>
      </trkpt>
      <trkpt lat="43.0704840" lon="-6.0274850">
        <ele>1298.4</ele>
        <time>2019-09-04T10:32:57Z</time>
      </trkpt>
      <trkpt lat="43.0704490" lon="-6.0273640">
        <ele>1298.4</ele>
        <time>2019-09-04T10:33:01Z</time>
      </trkpt>
      <trkpt lat="43.0704230" lon="-6.0272800">
        <ele>1301.7</ele>
        <time>2019-09-04T10:33:04Z</time>
      </trkpt>
      <trkpt lat="43.0703770" lon="-6.0271680">
        <ele>1301.7</ele>
        <time>2019-09-04T10:33:08Z</time>
      </trkpt>
      <trkpt lat="43.0703260" lon="-6.0270590">
        <ele>1301.7</ele>
        <time>2019-09-04T10:33:12Z</time>
      </trkpt>
      <trkpt lat="43.0702800" lon="-6.0269480">
        <ele>1301.7</ele>
        <time>2019-09-04T10:33:16Z</time>
      </trkpt>
      <trkpt lat="43.0702490" lon="-6.0268900">
        <ele>1304.3</ele>
        <time>2019-09-04T10:33:18Z</time>
      </trkpt>
      <trkpt lat="43.0701980" lon="-6.0267740">
        <ele>1304.3</ele>
        <time>2019-09-04T10:33:22Z</time>
      </trkpt>
      <trkpt lat="43.0701570" lon="-6.0266590">
        <ele>1304.3</ele>
        <time>2019-09-04T10:33:26Z</time>
      </trkpt>
      <trkpt lat="43.0701160" lon="-6.0265430">
        <ele>1304.3</ele>
        <time>2019-09-04T10:33:30Z</time>
      </trkpt>
      <trkpt lat="43.0700800" lon="-6.0264180">
        <ele>1306.7</ele>
        <time>2019-09-04T10:33:34Z</time>
      </trkpt>
      <trkpt lat="43.0700490" lon="-6.0262940">
        <ele>1306.7</ele>
        <time>2019-09-04T10:33:38Z</time>
      </trkpt>
      <trkpt lat="43.0700340" lon="-6.0261640">
        <ele>1306.7</ele>
        <time>2019-09-04T10:33:42Z</time>
      </trkpt>
      <trkpt lat="43.0700390" lon="-6.0260630">
        <ele>1306.7</ele>
        <time>2019-09-04T10:33:45Z</time>
      </trkpt>
      <trkpt lat="43.0700390" lon="-6.0259220">
        <ele>1306.7</ele>
        <time>2019-09-04T10:33:49Z</time>
      </trkpt>
      <trkpt lat="43.0700390" lon="-6.0257880">
        <ele>1308.8</ele>
        <time>2019-09-04T10:33:53Z</time>
      </trkpt>
      <trkpt lat="43.0700130" lon="-6.0256590">
        <ele>1308.8</ele>
        <time>2019-09-04T10:33:57Z</time>
      </trkpt>
      <trkpt lat="43.0699780" lon="-6.0255370">
        <ele>1308.8</ele>
        <time>2019-09-04T10:34:01Z</time>
      </trkpt>
      <trkpt lat="43.0699520" lon="-6.0254780">
        <ele>1308.8</ele>
        <time>2019-09-04T10:34:03Z</time>
      </trkpt>
      <trkpt lat="43.0699060" lon="-6.0253890">
        <ele>1308.8</ele>
        <time>2019-09-04T10:34:06Z</time>
      </trkpt>
      <trkpt lat="43.0698750" lon="-6.0253350">
        <ele>1308.8</ele>
        <time>2019-09-04T10:34:08Z</time>
      </trkpt>
      <trkpt lat="43.0698390" lon="-6.0252870">
        <ele>1310.9</ele>
        <time>2019-09-04T10:34:10Z</time>
      </trkpt>
      <trkpt lat="43.0697880" lon="-6.0252230">
        <ele>1310.9</ele>
        <time>2019-09-04T10:34:13Z</time>
      </trkpt>
      <trkpt lat="43.0697270" lon="-6.0251650">
        <ele>1310.9</ele>
        <time>2019-09-04T10:34:16Z</time>
      </trkpt>
      <trkpt lat="43.0696700" lon="-6.0251130">
        <ele>1310.9</ele>
        <time>2019-09-04T10:34:19Z</time>
      </trkpt>
      <trkpt lat="43.0696140" lon="-6.0250690">
        <ele>1314.2</ele>
        <time>2019-09-04T10:34:22Z</time>
      </trkpt>
      <trkpt lat="43.0695580" lon="-6.0250260">
        <ele>1314.2</ele>
        <time>2019-09-04T10:34:25Z</time>
      </trkpt>
      <trkpt lat="43.0694960" lon="-6.0249900">
        <ele>1314.2</ele>
        <time>2019-09-04T10:34:28Z</time>
      </trkpt>
      <trkpt lat="43.0694300" lon="-6.0249580">
        <ele>1314.2</ele>
        <time>2019-09-04T10:34:31Z</time>
      </trkpt>
      <trkpt lat="43.0693680" lon="-6.0249250">
        <ele>1314.2</ele>
        <time>2019-09-04T10:34:34Z</time>
      </trkpt>
      <trkpt lat="43.0692970" lon="-6.0248950">
        <ele>1314.2</ele>
        <time>2019-09-04T10:34:37Z</time>
      </trkpt>
      <trkpt lat="43.0692510" lon="-6.0248760">
        <ele>1318.1</ele>
        <time>2019-09-04T10:34:39Z</time>
      </trkpt>
      <trkpt lat="43.0691890" lon="-6.0248540">
        <ele>1318.1</ele>
        <time>2019-09-04T10:34:42Z</time>
      </trkpt>
      <trkpt lat="43.0691170" lon="-6.0248490">
        <ele>1318.1</ele>
        <time>2019-09-04T10:34:45Z</time>
      </trkpt>
      <trkpt lat="43.0690510" lon="-6.0248440">
        <ele>1318.1</ele>
        <time>2019-09-04T10:34:48Z</time>
      </trkpt>
      <trkpt lat="43.0689790" lon="-6.0248450">
        <ele>1318.1</ele>
        <time>2019-09-04T10:34:51Z</time>
      </trkpt>
      <trkpt lat="43.0689280" lon="-6.0248490">
        <ele>1318.1</ele>
        <time>2019-09-04T10:34:53Z</time>
      </trkpt>
      <trkpt lat="43.0688770" lon="-6.0248540">
        <ele>1321.5</ele>
        <time>2019-09-04T10:34:55Z</time>
      </trkpt>
      <trkpt lat="43.0688000" lon="-6.0248620">
        <ele>1321.5</ele>
        <time>2019-09-04T10:34:58Z</time>
      </trkpt>
      <trkpt lat="43.0687490" lon="-6.0248650">
        <ele>1321.5</ele>
        <time>2019-09-04T10:35:00Z</time>
      </trkpt>
      <trkpt lat="43.0686770" lon="-6.0248650">
        <ele>1321.5</ele>
        <time>2019-09-04T10:35:03Z</time>
      </trkpt>
      <trkpt lat="43.0686000" lon="-6.0248670">
        <ele>1321.5</ele>
        <time>2019-09-04T10:35:06Z</time>
      </trkpt>
      <trkpt lat="43.0685540" lon="-6.0248720">
        <ele>1321.5</ele>
        <time>2019-09-04T10:35:08Z</time>
      </trkpt>
      <trkpt lat="43.0684770" lon="-6.0248840">
        <ele>1324.9</ele>
        <time>2019-09-04T10:35:11Z</time>
      </trkpt>
      <trkpt lat="43.0684060" lon="-6.0248970">
        <ele>1324.9</ele>
        <time>2019-09-04T10:35:14Z</time>
      </trkpt>
      <trkpt lat="43.0683340" lon="-6.0249160">
        <ele>1324.9</ele>
        <time>2019-09-04T10:35:17Z</time>
      </trkpt>
      <trkpt lat="43.0682730" lon="-6.0249500">
        <ele>1324.9</ele>
        <time>2019-09-04T10:35:20Z</time>
      </trkpt>
      <trkpt lat="43.0682060" lon="-6.0249930">
        <ele>1324.9</ele>
        <time>2019-09-04T10:35:23Z</time>
      </trkpt>
      <trkpt lat="43.0681400" lon="-6.0250300">
        <ele>1328.1</ele>
        <time>2019-09-04T10:35:26Z</time>
      </trkpt>
      <trkpt lat="43.0680470" lon="-6.0250750">
        <ele>1328.1</ele>
        <time>2019-09-04T10:35:30Z</time>
      </trkpt>
      <trkpt lat="43.0680010" lon="-6.0250980">
        <ele>1328.1</ele>
        <time>2019-09-04T10:35:32Z</time>
      </trkpt>
      <trkpt lat="43.0679140" lon="-6.0251430">
        <ele>1328.1</ele>
        <time>2019-09-04T10:35:36Z</time>
      </trkpt>
      <trkpt lat="43.0678680" lon="-6.0251610">
        <ele>1328.1</ele>
        <time>2019-09-04T10:35:38Z</time>
      </trkpt>
      <trkpt lat="43.0677710" lon="-6.0251710">
        <ele>1331.1</ele>
        <time>2019-09-04T10:35:42Z</time>
      </trkpt>
      <trkpt lat="43.0677250" lon="-6.0251650">
        <ele>1331.1</ele>
        <time>2019-09-04T10:35:44Z</time>
      </trkpt>
      <trkpt lat="43.0676330" lon="-6.0251330">
        <ele>1331.1</ele>
        <time>2019-09-04T10:35:48Z</time>
      </trkpt>
      <trkpt lat="43.0675870" lon="-6.0251030">
        <ele>1331.1</ele>
        <time>2019-09-04T10:35:50Z</time>
      </trkpt>
      <trkpt lat="43.0675150" lon="-6.0250250">
        <ele>1331.1</ele>
        <time>2019-09-04T10:35:54Z</time>
      </trkpt>
      <trkpt lat="43.0674690" lon="-6.0249820">
        <ele>1331.1</ele>
        <time>2019-09-04T10:35:56Z</time>
      </trkpt>
      <trkpt lat="43.0674180" lon="-6.0249150">
        <ele>1334.4</ele>
        <time>2019-09-04T10:35:59Z</time>
      </trkpt>
      <trkpt lat="43.0673820" lon="-6.0248640">
        <ele>1334.4</ele>
        <time>2019-09-04T10:36:01Z</time>
      </trkpt>
      <trkpt lat="43.0673410" lon="-6.0247880">
        <ele>1334.4</ele>
        <time>2019-09-04T10:36:04Z</time>
      </trkpt>
      <trkpt lat="43.0672950" lon="-6.0247100">
        <ele>1334.4</ele>
        <time>2019-09-04T10:36:07Z</time>
      </trkpt>
      <trkpt lat="43.0672380" lon="-6.0246050">
        <ele>1334.4</ele>
        <time>2019-09-04T10:36:11Z</time>
      </trkpt>
      <trkpt lat="43.0672130" lon="-6.0245460">
        <ele>1336.4</ele>
        <time>2019-09-04T10:36:13Z</time>
      </trkpt>
      <trkpt lat="43.0671770" lon="-6.0244280">
        <ele>1336.4</ele>
        <time>2019-09-04T10:36:17Z</time>
      </trkpt>
      <trkpt lat="43.0671560" lon="-6.0243670">
        <ele>1338.5</ele>
        <time>2019-09-04T10:36:19Z</time>
      </trkpt>
      <trkpt lat="43.0671260" lon="-6.0242550">
        <ele>1338.5</ele>
        <time>2019-09-04T10:36:23Z</time>
      </trkpt>
      <trkpt lat="43.0670850" lon="-6.0241400">
        <ele>1338.5</ele>
        <time>2019-09-04T10:36:27Z</time>
      </trkpt>
      <trkpt lat="43.0670440" lon="-6.0240220">
        <ele>1340.8</ele>
        <time>2019-09-04T10:36:31Z</time>
      </trkpt>
      <trkpt lat="43.0670030" lon="-6.0239380">
        <ele>1340.8</ele>
        <time>2019-09-04T10:36:34Z</time>
      </trkpt>
      <trkpt lat="43.0669770" lon="-6.0238870">
        <ele>1340.8</ele>
        <time>2019-09-04T10:36:36Z</time>
      </trkpt>
      <trkpt lat="43.0669310" lon="-6.0237800">
        <ele>1340.8</ele>
        <time>2019-09-04T10:36:40Z</time>
      </trkpt>
      <trkpt lat="43.0668900" lon="-6.0236720">
        <ele>1340.8</ele>
        <time>2019-09-04T10:36:44Z</time>
      </trkpt>
      <trkpt lat="43.0668750" lon="-6.0236060">
        <ele>1340.8</ele>
        <time>2019-09-04T10:36:46Z</time>
      </trkpt>
      <trkpt lat="43.0668600" lon="-6.0235370">
        <ele>1343.6</ele>
        <time>2019-09-04T10:36:48Z</time>
      </trkpt>
      <trkpt lat="43.0668440" lon="-6.0234700">
        <ele>1343.6</ele>
        <time>2019-09-04T10:36:50Z</time>
      </trkpt>
      <trkpt lat="43.0668080" lon="-6.0233410">
        <ele>1343.6</ele>
        <time>2019-09-04T10:36:54Z</time>
      </trkpt>
      <trkpt lat="43.0667670" lon="-6.0232220">
        <ele>1343.6</ele>
        <time>2019-09-04T10:36:58Z</time>
      </trkpt>
      <trkpt lat="43.0667060" lon="-6.0231190">
        <ele>1343.6</ele>
        <time>2019-09-04T10:37:02Z</time>
      </trkpt>
      <trkpt lat="43.0666750" lon="-6.0230690">
        <ele>1346.6</ele>
        <time>2019-09-04T10:37:04Z</time>
      </trkpt>
      <trkpt lat="43.0666040" lon="-6.0229750">
        <ele>1346.6</ele>
        <time>2019-09-04T10:37:08Z</time>
      </trkpt>
      <trkpt lat="43.0665470" lon="-6.0229150">
        <ele>1346.6</ele>
        <time>2019-09-04T10:37:11Z</time>
      </trkpt>
      <trkpt lat="43.0664910" lon="-6.0228630">
        <ele>1346.6</ele>
        <time>2019-09-04T10:37:14Z</time>
      </trkpt>
      <trkpt lat="43.0664040" lon="-6.0227970">
        <ele>1346.6</ele>
        <time>2019-09-04T10:37:18Z</time>
      </trkpt>
      <trkpt lat="43.0663630" lon="-6.0227670">
        <ele>1349.4</ele>
        <time>2019-09-04T10:37:20Z</time>
      </trkpt>
      <trkpt lat="43.0663010" lon="-6.0227230">
        <ele>1349.4</ele>
        <time>2019-09-04T10:37:23Z</time>
      </trkpt>
      <trkpt lat="43.0662250" lon="-6.0226500">
        <ele>1349.4</ele>
        <time>2019-09-04T10:37:27Z</time>
      </trkpt>
      <trkpt lat="43.0661480" lon="-6.0225730">
        <ele>1349.4</ele>
        <time>2019-09-04T10:37:31Z</time>
      </trkpt>
      <trkpt lat="43.0661070" lon="-6.0225340">
        <ele>1349.4</ele>
        <time>2019-09-04T10:37:33Z</time>
      </trkpt>
      <trkpt lat="43.0660300" lon="-6.0224550">
        <ele>1352.8</ele>
        <time>2019-09-04T10:37:37Z</time>
      </trkpt>
      <trkpt lat="43.0659580" lon="-6.0223780">
        <ele>1352.8</ele>
        <time>2019-09-04T10:37:41Z</time>
      </trkpt>
      <trkpt lat="43.0659230" lon="-6.0223410">
        <ele>1352.8</ele>
        <time>2019-09-04T10:37:43Z</time>
      </trkpt>
      <trkpt lat="43.0658460" lon="-6.0222620">
        <ele>1352.8</ele>
        <time>2019-09-04T10:37:47Z</time>
      </trkpt>
      <trkpt lat="43.0658050" lon="-6.0222260">
        <ele>1354.9</ele>
        <time>2019-09-04T10:37:49Z</time>
      </trkpt>
      <trkpt lat="43.0657230" lon="-6.0221590">
        <ele>1354.9</ele>
        <time>2019-09-04T10:37:53Z</time>
      </trkpt>
      <trkpt lat="43.0656560" lon="-6.0221090">
        <ele>1356.9</ele>
        <time>2019-09-04T10:37:56Z</time>
      </trkpt>
      <trkpt lat="43.0656100" lon="-6.0220770">
        <ele>1356.9</ele>
        <time>2019-09-04T10:37:58Z</time>
      </trkpt>
      <trkpt lat="43.0655640" lon="-6.0220440">
        <ele>1356.9</ele>
        <time>2019-09-04T10:38:00Z</time>
      </trkpt>
      <trkpt lat="43.0654920" lon="-6.0219990">
        <ele>1356.9</ele>
        <time>2019-09-04T10:38:03Z</time>
      </trkpt>
      <trkpt lat="43.0654210" lon="-6.0219640">
        <ele>1356.9</ele>
        <time>2019-09-04T10:38:06Z</time>
      </trkpt>
      <trkpt lat="43.0653700" lon="-6.0219460">
        <ele>1359.9</ele>
        <time>2019-09-04T10:38:08Z</time>
      </trkpt>
      <trkpt lat="43.0652670" lon="-6.0219320">
        <ele>1359.9</ele>
        <time>2019-09-04T10:38:12Z</time>
      </trkpt>
      <trkpt lat="43.0652210" lon="-6.0219390">
        <ele>1359.9</ele>
        <time>2019-09-04T10:38:14Z</time>
      </trkpt>
      <trkpt lat="43.0651190" lon="-6.0219730">
        <ele>1359.9</ele>
        <time>2019-09-04T10:38:18Z</time>
      </trkpt>
      <trkpt lat="43.0650730" lon="-6.0219960">
        <ele>1359.9</ele>
        <time>2019-09-04T10:38:20Z</time>
      </trkpt>
      <trkpt lat="43.0649750" lon="-6.0220200">
        <ele>1363.3</ele>
        <time>2019-09-04T10:38:24Z</time>
      </trkpt>
      <trkpt lat="43.0648880" lon="-6.0219830">
        <ele>1363.3</ele>
        <time>2019-09-04T10:38:28Z</time>
      </trkpt>
      <trkpt lat="43.0648370" lon="-6.0219240">
        <ele>1363.3</ele>
        <time>2019-09-04T10:38:31Z</time>
      </trkpt>
      <trkpt lat="43.0647860" lon="-6.0218240">
        <ele>1363.3</ele>
        <time>2019-09-04T10:38:35Z</time>
      </trkpt>
      <trkpt lat="43.0647500" lon="-6.0217120">
        <ele>1366.7</ele>
        <time>2019-09-04T10:38:39Z</time>
      </trkpt>
      <trkpt lat="43.0647040" lon="-6.0216000">
        <ele>1366.7</ele>
        <time>2019-09-04T10:38:43Z</time>
      </trkpt>
      <trkpt lat="43.0646530" lon="-6.0215280">
        <ele>1366.7</ele>
        <time>2019-09-04T10:38:46Z</time>
      </trkpt>
      <trkpt lat="43.0645710" lon="-6.0214690">
        <ele>1366.7</ele>
        <time>2019-09-04T10:38:50Z</time>
      </trkpt>
      <trkpt lat="43.0644740" lon="-6.0214480">
        <ele>1366.7</ele>
        <time>2019-09-04T10:38:54Z</time>
      </trkpt>
      <trkpt lat="43.0643810" lon="-6.0214560">
        <ele>1369.9</ele>
        <time>2019-09-04T10:38:58Z</time>
      </trkpt>
      <trkpt lat="43.0642790" lon="-6.0214710">
        <ele>1369.9</ele>
        <time>2019-09-04T10:39:02Z</time>
      </trkpt>
      <trkpt lat="43.0642280" lon="-6.0214780">
        <ele>1369.9</ele>
        <time>2019-09-04T10:39:04Z</time>
      </trkpt>
      <trkpt lat="43.0641310" lon="-6.0214840">
        <ele>1369.9</ele>
        <time>2019-09-04T10:39:08Z</time>
      </trkpt>
      <trkpt lat="43.0640840" lon="-6.0214850">
        <ele>1369.9</ele>
        <time>2019-09-04T10:39:10Z</time>
      </trkpt>
      <trkpt lat="43.0639970" lon="-6.0214820">
        <ele>1373.3</ele>
        <time>2019-09-04T10:39:14Z</time>
      </trkpt>
      <trkpt lat="43.0639210" lon="-6.0214760">
        <ele>1373.3</ele>
        <time>2019-09-04T10:39:17Z</time>
      </trkpt>
      <trkpt lat="43.0638340" lon="-6.0214640">
        <ele>1373.3</ele>
        <time>2019-09-04T10:39:21Z</time>
      </trkpt>
      <trkpt lat="43.0637720" lon="-6.0214410">
        <ele>1373.3</ele>
        <time>2019-09-04T10:39:24Z</time>
      </trkpt>
      <trkpt lat="43.0637110" lon="-6.0213680">
        <ele>1376.7</ele>
        <time>2019-09-04T10:39:28Z</time>
      </trkpt>
      <trkpt lat="43.0636800" lon="-6.0212840">
        <ele>1376.7</ele>
        <time>2019-09-04T10:39:31Z</time>
      </trkpt>
      <trkpt lat="43.0636750" lon="-6.0211940">
        <ele>1376.7</ele>
        <time>2019-09-04T10:39:34Z</time>
      </trkpt>
      <trkpt lat="43.0637060" lon="-6.0210760">
        <ele>1376.7</ele>
        <time>2019-09-04T10:39:38Z</time>
      </trkpt>
      <trkpt lat="43.0637310" lon="-6.0210180">
        <ele>1376.7</ele>
        <time>2019-09-04T10:39:40Z</time>
      </trkpt>
      <trkpt lat="43.0637770" lon="-6.0209380">
        <ele>1376.7</ele>
        <time>2019-09-04T10:39:43Z</time>
      </trkpt>
      <trkpt lat="43.0638180" lon="-6.0208510">
        <ele>1379.7</ele>
        <time>2019-09-04T10:39:46Z</time>
      </trkpt>
      <trkpt lat="43.0638390" lon="-6.0207920">
        <ele>1379.7</ele>
        <time>2019-09-04T10:39:48Z</time>
      </trkpt>
      <trkpt lat="43.0638640" lon="-6.0207000">
        <ele>1379.7</ele>
        <time>2019-09-04T10:39:51Z</time>
      </trkpt>
      <trkpt lat="43.0638800" lon="-6.0206020">
        <ele>1379.7</ele>
        <time>2019-09-04T10:39:54Z</time>
      </trkpt>
      <trkpt lat="43.0638950" lon="-6.0205060">
        <ele>1379.7</ele>
        <time>2019-09-04T10:39:57Z</time>
      </trkpt>
      <trkpt lat="43.0639160" lon="-6.0204120">
        <ele>1382.7</ele>
        <time>2019-09-04T10:40:00Z</time>
      </trkpt>
      <trkpt lat="43.0639360" lon="-6.0203160">
        <ele>1382.7</ele>
        <time>2019-09-04T10:40:03Z</time>
      </trkpt>
      <trkpt lat="43.0639210" lon="-6.0202210">
        <ele>1382.7</ele>
        <time>2019-09-04T10:40:06Z</time>
      </trkpt>
      <trkpt lat="43.0638900" lon="-6.0201410">
        <ele>1382.7</ele>
        <time>2019-09-04T10:40:09Z</time>
      </trkpt>
      <trkpt lat="43.0638340" lon="-6.0200950">
        <ele>1382.7</ele>
        <time>2019-09-04T10:40:12Z</time>
      </trkpt>
      <trkpt lat="43.0637670" lon="-6.0200870">
        <ele>1382.7</ele>
        <time>2019-09-04T10:40:15Z</time>
      </trkpt>
      <trkpt lat="43.0637160" lon="-6.0200900">
        <ele>1386.0</ele>
        <time>2019-09-04T10:40:17Z</time>
      </trkpt>
      <trkpt lat="43.0636190" lon="-6.0201090">
        <ele>1386.0</ele>
        <time>2019-09-04T10:40:21Z</time>
      </trkpt>
      <trkpt lat="43.0635420" lon="-6.0201320">
        <ele>1386.0</ele>
        <time>2019-09-04T10:40:24Z</time>
      </trkpt>
      <trkpt lat="43.0634750" lon="-6.0201600">
        <ele>1386.0</ele>
        <time>2019-09-04T10:40:27Z</time>
      </trkpt>
      <trkpt lat="43.0634040" lon="-6.0201950">
        <ele>1386.0</ele>
        <time>2019-09-04T10:40:30Z</time>
      </trkpt>
      <trkpt lat="43.0633220" lon="-6.0202540">
        <ele>1389.4</ele>
        <time>2019-09-04T10:40:34Z</time>
      </trkpt>
      <trkpt lat="43.0632450" lon="-6.0203210">
        <ele>1389.4</ele>
        <time>2019-09-04T10:40:38Z</time>
      </trkpt>
      <trkpt lat="43.0631780" lon="-6.0203970">
        <ele>1389.4</ele>
        <time>2019-09-04T10:40:42Z</time>
      </trkpt>
      <trkpt lat="43.0631220" lon="-6.0204930">
        <ele>1389.4</ele>
        <time>2019-09-04T10:40:46Z</time>
      </trkpt>
      <trkpt lat="43.0630860" lon="-6.0205700">
        <ele>1392.9</ele>
        <time>2019-09-04T10:40:49Z</time>
      </trkpt>
      <trkpt lat="43.0630400" lon="-6.0206760">
        <ele>1392.9</ele>
        <time>2019-09-04T10:40:53Z</time>
      </trkpt>
      <trkpt lat="43.0629940" lon="-6.0207810">
        <ele>1392.8</ele>
        <time>2019-09-04T10:40:57Z</time>
      </trkpt>
      <trkpt lat="43.0629630" lon="-6.0208330">
        <ele>1392.8</ele>
        <time>2019-09-04T10:40:59Z</time>
      </trkpt>
      <trkpt lat="43.0629070" lon="-6.0208980">
        <ele>1392.8</ele>
        <time>2019-09-04T10:41:02Z</time>
      </trkpt>
      <trkpt lat="43.0628300" lon="-6.0209470">
        <ele>1396.3</ele>
        <time>2019-09-04T10:41:06Z</time>
      </trkpt>
      <trkpt lat="43.0627430" lon="-6.0209590">
        <ele>1396.3</ele>
        <time>2019-09-04T10:41:10Z</time>
      </trkpt>
      <trkpt lat="43.0626610" lon="-6.0209540">
        <ele>1396.3</ele>
        <time>2019-09-04T10:41:14Z</time>
      </trkpt>
      <trkpt lat="43.0625640" lon="-6.0209510">
        <ele>1396.3</ele>
        <time>2019-09-04T10:41:18Z</time>
      </trkpt>
      <trkpt lat="43.0624920" lon="-6.0209380">
        <ele>1399.4</ele>
        <time>2019-09-04T10:41:21Z</time>
      </trkpt>
      <trkpt lat="43.0624000" lon="-6.0209050">
        <ele>1399.4</ele>
        <time>2019-09-04T10:41:25Z</time>
      </trkpt>
      <trkpt lat="43.0623390" lon="-6.0208660">
        <ele>1399.4</ele>
        <time>2019-09-04T10:41:28Z</time>
      </trkpt>
      <trkpt lat="43.0622620" lon="-6.0207870">
        <ele>1399.4</ele>
        <time>2019-09-04T10:41:32Z</time>
      </trkpt>
      <trkpt lat="43.0622050" lon="-6.0206930">
        <ele>1402.4</ele>
        <time>2019-09-04T10:41:36Z</time>
      </trkpt>
      <trkpt lat="43.0621800" lon="-6.0206400">
        <ele>1402.4</ele>
        <time>2019-09-04T10:41:38Z</time>
      </trkpt>
      <trkpt lat="43.0621240" lon="-6.0205400">
        <ele>1402.4</ele>
        <time>2019-09-04T10:41:42Z</time>
      </trkpt>
      <trkpt lat="43.0620830" lon="-6.0204360">
        <ele>1402.4</ele>
        <time>2019-09-04T10:41:46Z</time>
      </trkpt>
      <trkpt lat="43.0620470" lon="-6.0203260">
        <ele>1402.4</ele>
        <time>2019-09-04T10:41:50Z</time>
      </trkpt>
      <trkpt lat="43.0619960" lon="-6.0202130">
        <ele>1405.8</ele>
        <time>2019-09-04T10:41:54Z</time>
      </trkpt>
      <trkpt lat="43.0619550" lon="-6.0200940">
        <ele>1405.8</ele>
        <time>2019-09-04T10:41:58Z</time>
      </trkpt>
      <trkpt lat="43.0619390" lon="-6.0200310">
        <ele>1405.8</ele>
        <time>2019-09-04T10:42:00Z</time>
      </trkpt>
      <trkpt lat="43.0619240" lon="-6.0199300">
        <ele>1405.8</ele>
        <time>2019-09-04T10:42:03Z</time>
      </trkpt>
      <trkpt lat="43.0619190" lon="-6.0198620">
        <ele>1405.8</ele>
        <time>2019-09-04T10:42:05Z</time>
      </trkpt>
      <trkpt lat="43.0619030" lon="-6.0197260">
        <ele>1409.2</ele>
        <time>2019-09-04T10:42:09Z</time>
      </trkpt>
      <trkpt lat="43.0618620" lon="-6.0195970">
        <ele>1409.2</ele>
        <time>2019-09-04T10:42:13Z</time>
      </trkpt>
      <trkpt lat="43.0618320" lon="-6.0195420">
        <ele>1409.2</ele>
        <time>2019-09-04T10:42:15Z</time>
      </trkpt>
      <trkpt lat="43.0617860" lon="-6.0194640">
        <ele>1409.2</ele>
        <time>2019-09-04T10:42:18Z</time>
      </trkpt>
      <trkpt lat="43.0617500" lon="-6.0194140">
        <ele>1409.2</ele>
        <time>2019-09-04T10:42:20Z</time>
      </trkpt>
      <trkpt lat="43.0617140" lon="-6.0193650">
        <ele>1409.2</ele>
        <time>2019-09-04T10:42:22Z</time>
      </trkpt>
      <trkpt lat="43.0616370" lon="-6.0192670">
        <ele>1412.5</ele>
        <time>2019-09-04T10:42:26Z</time>
      </trkpt>
      <trkpt lat="43.0615910" lon="-6.0192190">
        <ele>1412.5</ele>
        <time>2019-09-04T10:42:28Z</time>
      </trkpt>
      <trkpt lat="43.0615500" lon="-6.0191820">
        <ele>1412.5</ele>
        <time>2019-09-04T10:42:30Z</time>
      </trkpt>
      <trkpt lat="43.0614840" lon="-6.0191270">
        <ele>1412.5</ele>
        <time>2019-09-04T10:42:33Z</time>
      </trkpt>
      <trkpt lat="43.0614480" lon="-6.0190910">
        <ele>1412.5</ele>
        <time>2019-09-04T10:42:35Z</time>
      </trkpt>
      <trkpt lat="43.0613660" lon="-6.0190090">
        <ele>1412.5</ele>
        <time>2019-09-04T10:42:39Z</time>
      </trkpt>
      <trkpt lat="43.0612990" lon="-6.0189200">
        <ele>1416.1</ele>
        <time>2019-09-04T10:42:43Z</time>
      </trkpt>
      <trkpt lat="43.0612530" lon="-6.0188530">
        <ele>1416.1</ele>
        <time>2019-09-04T10:42:46Z</time>
      </trkpt>
      <trkpt lat="43.0611920" lon="-6.0187690">
        <ele>1416.1</ele>
        <time>2019-09-04T10:42:50Z</time>
      </trkpt>
      <trkpt lat="43.0611400" lon="-6.0187120">
        <ele>1416.1</ele>
        <time>2019-09-04T10:42:53Z</time>
      </trkpt>
      <trkpt lat="43.0610840" lon="-6.0186570">
        <ele>1419.0</ele>
        <time>2019-09-04T10:42:56Z</time>
      </trkpt>
      <trkpt lat="43.0610020" lon="-6.0185890">
        <ele>1419.0</ele>
        <time>2019-09-04T10:43:00Z</time>
      </trkpt>
      <trkpt lat="43.0609310" lon="-6.0185270">
        <ele>1419.0</ele>
        <time>2019-09-04T10:43:04Z</time>
      </trkpt>
      <trkpt lat="43.0608690" lon="-6.0184750">
        <ele>1419.0</ele>
        <time>2019-09-04T10:43:07Z</time>
      </trkpt>
      <trkpt lat="43.0608130" lon="-6.0184240">
        <ele>1419.0</ele>
        <time>2019-09-04T10:43:10Z</time>
      </trkpt>
      <trkpt lat="43.0607560" lon="-6.0183760">
        <ele>1421.8</ele>
        <time>2019-09-04T10:43:13Z</time>
      </trkpt>
      <trkpt lat="43.0607000" lon="-6.0183260">
        <ele>1421.8</ele>
        <time>2019-09-04T10:43:16Z</time>
      </trkpt>
      <trkpt lat="43.0606440" lon="-6.0182780">
        <ele>1421.8</ele>
        <time>2019-09-04T10:43:19Z</time>
      </trkpt>
      <trkpt lat="43.0605880" lon="-6.0182330">
        <ele>1421.8</ele>
        <time>2019-09-04T10:43:22Z</time>
      </trkpt>
      <trkpt lat="43.0605210" lon="-6.0181880">
        <ele>1421.8</ele>
        <time>2019-09-04T10:43:25Z</time>
      </trkpt>
      <trkpt lat="43.0604490" lon="-6.0181510">
        <ele>1423.8</ele>
        <time>2019-09-04T10:43:28Z</time>
      </trkpt>
      <trkpt lat="43.0604030" lon="-6.0181280">
        <ele>1423.8</ele>
        <time>2019-09-04T10:43:30Z</time>
      </trkpt>
      <trkpt lat="43.0603320" lon="-6.0180990">
        <ele>1423.8</ele>
        <time>2019-09-04T10:43:33Z</time>
      </trkpt>
      <trkpt lat="43.0602650" lon="-6.0180800">
        <ele>1423.8</ele>
        <time>2019-09-04T10:43:36Z</time>
      </trkpt>
      <trkpt lat="43.0601880" lon="-6.0180710">
        <ele>1425.9</ele>
        <time>2019-09-04T10:43:39Z</time>
      </trkpt>
      <trkpt lat="43.0601370" lon="-6.0180650">
        <ele>1425.9</ele>
        <time>2019-09-04T10:43:41Z</time>
      </trkpt>
      <trkpt lat="43.0600650" lon="-6.0180650">
        <ele>1428.1</ele>
        <time>2019-09-04T10:43:44Z</time>
      </trkpt>
      <trkpt lat="43.0599990" lon="-6.0180790">
        <ele>1428.1</ele>
        <time>2019-09-04T10:43:47Z</time>
      </trkpt>
      <trkpt lat="43.0599530" lon="-6.0180900">
        <ele>1428.1</ele>
        <time>2019-09-04T10:43:49Z</time>
      </trkpt>
      <trkpt lat="43.0598810" lon="-6.0181020">
        <ele>1428.1</ele>
        <time>2019-09-04T10:43:52Z</time>
      </trkpt>
      <trkpt lat="43.0598350" lon="-6.0181030">
        <ele>1428.1</ele>
        <time>2019-09-04T10:43:54Z</time>
      </trkpt>
      <trkpt lat="43.0597630" lon="-6.0180970">
        <ele>1428.1</ele>
        <time>2019-09-04T10:43:57Z</time>
      </trkpt>
      <trkpt lat="43.0596810" lon="-6.0180770">
        <ele>1431.6</ele>
        <time>2019-09-04T10:44:00Z</time>
      </trkpt>
      <trkpt lat="43.0596350" lon="-6.0180610">
        <ele>1431.6</ele>
        <time>2019-09-04T10:44:02Z</time>
      </trkpt>
      <trkpt lat="43.0595840" lon="-6.0180410">
        <ele>1431.6</ele>
        <time>2019-09-04T10:44:04Z</time>
      </trkpt>
      <trkpt lat="43.0595170" lon="-6.0180030">
        <ele>1431.6</ele>
        <time>2019-09-04T10:44:07Z</time>
      </trkpt>
      <trkpt lat="43.0594410" lon="-6.0179660">
        <ele>1431.6</ele>
        <time>2019-09-04T10:44:10Z</time>
      </trkpt>
      <trkpt lat="43.0593430" lon="-6.0179160">
        <ele>1431.6</ele>
        <time>2019-09-04T10:44:14Z</time>
      </trkpt>
      <trkpt lat="43.0592970" lon="-6.0178860">
        <ele>1433.6</ele>
        <time>2019-09-04T10:44:16Z</time>
      </trkpt>
      <trkpt lat="43.0592360" lon="-6.0178410">
        <ele>1435.7</ele>
        <time>2019-09-04T10:44:19Z</time>
      </trkpt>
      <trkpt lat="43.0591740" lon="-6.0177890">
        <ele>1435.7</ele>
        <time>2019-09-04T10:44:22Z</time>
      </trkpt>
      <trkpt lat="43.0590870" lon="-6.0177130">
        <ele>1435.7</ele>
        <time>2019-09-04T10:44:26Z</time>
      </trkpt>
      <trkpt lat="43.0590310" lon="-6.0176560">
        <ele>1435.7</ele>
        <time>2019-09-04T10:44:29Z</time>
      </trkpt>
      <trkpt lat="43.0589640" lon="-6.0175900">
        <ele>1439.3</ele>
        <time>2019-09-04T10:44:32Z</time>
      </trkpt>
      <trkpt lat="43.0589290" lon="-6.0175440">
        <ele>1439.3</ele>
        <time>2019-09-04T10:44:34Z</time>
      </trkpt>
      <trkpt lat="43.0588770" lon="-6.0174680">
        <ele>1439.3</ele>
        <time>2019-09-04T10:44:37Z</time>
      </trkpt>
      <trkpt lat="43.0588420" lon="-6.0173790">
        <ele>1439.3</ele>
        <time>2019-09-04T10:44:40Z</time>
      </trkpt>
      <trkpt lat="43.0588310" lon="-6.0173180">
        <ele>1439.3</ele>
        <time>2019-09-04T10:44:42Z</time>
      </trkpt>
      <trkpt lat="43.0588420" lon="-6.0171850">
        <ele>1439.3</ele>
        <time>2019-09-04T10:44:46Z</time>
      </trkpt>
      <trkpt lat="43.0588620" lon="-6.0171260">
        <ele>1442.5</ele>
        <time>2019-09-04T10:44:48Z</time>
      </trkpt>
      <trkpt lat="43.0588980" lon="-6.0170040">
        <ele>1442.5</ele>
        <time>2019-09-04T10:44:52Z</time>
      </trkpt>
      <trkpt lat="43.0589180" lon="-6.0169410">
        <ele>1442.5</ele>
        <time>2019-09-04T10:44:54Z</time>
      </trkpt>
      <trkpt lat="43.0589390" lon="-6.0168760">
        <ele>1442.5</ele>
        <time>2019-09-04T10:44:56Z</time>
      </trkpt>
      <trkpt lat="43.0589490" lon="-6.0167420">
        <ele>1442.5</ele>
        <time>2019-09-04T10:45:00Z</time>
      </trkpt>
      <trkpt lat="43.0589440" lon="-6.0166020">
        <ele>1445.9</ele>
        <time>2019-09-04T10:45:04Z</time>
      </trkpt>
      <trkpt lat="43.0589390" lon="-6.0164970">
        <ele>1445.9</ele>
        <time>2019-09-04T10:45:07Z</time>
      </trkpt>
      <trkpt lat="43.0589290" lon="-6.0163960">
        <ele>1445.9</ele>
        <time>2019-09-04T10:45:10Z</time>
      </trkpt>
      <trkpt lat="43.0589340" lon="-6.0162660">
        <ele>1445.9</ele>
        <time>2019-09-04T10:45:14Z</time>
      </trkpt>
      <trkpt lat="43.0589490" lon="-6.0161680">
        <ele>1445.9</ele>
        <time>2019-09-04T10:45:17Z</time>
      </trkpt>
      <trkpt lat="43.0589950" lon="-6.0160480">
        <ele>1449.7</ele>
        <time>2019-09-04T10:45:21Z</time>
      </trkpt>
      <trkpt lat="43.0590520" lon="-6.0159430">
        <ele>1449.7</ele>
        <time>2019-09-04T10:45:25Z</time>
      </trkpt>
      <trkpt lat="43.0591180" lon="-6.0158420">
        <ele>1449.7</ele>
        <time>2019-09-04T10:45:29Z</time>
      </trkpt>
      <trkpt lat="43.0591490" lon="-6.0157910">
        <ele>1449.7</ele>
        <time>2019-09-04T10:45:31Z</time>
      </trkpt>
      <trkpt lat="43.0592200" lon="-6.0156970">
        <ele>1451.8</ele>
        <time>2019-09-04T10:45:35Z</time>
      </trkpt>
      <trkpt lat="43.0592820" lon="-6.0155990">
        <ele>1453.8</ele>
        <time>2019-09-04T10:45:39Z</time>
      </trkpt>
      <trkpt lat="43.0593130" lon="-6.0155210">
        <ele>1453.8</ele>
        <time>2019-09-04T10:45:42Z</time>
      </trkpt>
      <trkpt lat="43.0593480" lon="-6.0154340">
        <ele>1453.8</ele>
        <time>2019-09-04T10:45:45Z</time>
      </trkpt>
      <trkpt lat="43.0593890" lon="-6.0153160">
        <ele>1453.8</ele>
        <time>2019-09-04T10:45:49Z</time>
      </trkpt>
      <trkpt lat="43.0594050" lon="-6.0152580">
        <ele>1453.8</ele>
        <time>2019-09-04T10:45:51Z</time>
      </trkpt>
      <trkpt lat="43.0594360" lon="-6.0151350">
        <ele>1457.1</ele>
        <time>2019-09-04T10:45:55Z</time>
      </trkpt>
      <trkpt lat="43.0594660" lon="-6.0150120">
        <ele>1457.1</ele>
        <time>2019-09-04T10:45:59Z</time>
      </trkpt>
      <trkpt lat="43.0594920" lon="-6.0149170">
        <ele>1457.1</ele>
        <time>2019-09-04T10:46:02Z</time>
      </trkpt>
      <trkpt lat="43.0595230" lon="-6.0147940">
        <ele>1457.1</ele>
        <time>2019-09-04T10:46:06Z</time>
      </trkpt>
      <trkpt lat="43.0595430" lon="-6.0146660">
        <ele>1460.6</ele>
        <time>2019-09-04T10:46:10Z</time>
      </trkpt>
      <trkpt lat="43.0595530" lon="-6.0146000">
        <ele>1460.6</ele>
        <time>2019-09-04T10:46:12Z</time>
      </trkpt>
      <trkpt lat="43.0595790" lon="-6.0144770">
        <ele>1460.6</ele>
        <time>2019-09-04T10:46:16Z</time>
      </trkpt>
      <trkpt lat="43.0596300" lon="-6.0143750">
        <ele>1460.6</ele>
        <time>2019-09-04T10:46:20Z</time>
      </trkpt>
      <trkpt lat="43.0596970" lon="-6.0143300">
        <ele>1464.0</ele>
        <time>2019-09-04T10:46:24Z</time>
      </trkpt>
      <trkpt lat="43.0597630" lon="-6.0143370">
        <ele>1464.0</ele>
        <time>2019-09-04T10:46:27Z</time>
      </trkpt>
      <trkpt lat="43.0598550" lon="-6.0143780">
        <ele>1464.0</ele>
        <time>2019-09-04T10:46:31Z</time>
      </trkpt>
      <trkpt lat="43.0599480" lon="-6.0144160">
        <ele>1464.0</ele>
        <time>2019-09-04T10:46:35Z</time>
      </trkpt>
      <trkpt lat="43.0600350" lon="-6.0144490">
        <ele>1466.0</ele>
        <time>2019-09-04T10:46:39Z</time>
      </trkpt>
      <trkpt lat="43.0601270" lon="-6.0144680">
        <ele>1468.2</ele>
        <time>2019-09-04T10:46:43Z</time>
      </trkpt>
      <trkpt lat="43.0602190" lon="-6.0144610">
        <ele>1468.2</ele>
        <time>2019-09-04T10:46:47Z</time>
      </trkpt>
      <trkpt lat="43.0603060" lon="-6.0144490">
        <ele>1468.2</ele>
        <time>2019-09-04T10:46:51Z</time>
      </trkpt>
      <trkpt lat="43.0603980" lon="-6.0144380">
        <ele>1468.2</ele>
        <time>2019-09-04T10:46:55Z</time>
      </trkpt>
      <trkpt lat="43.0604850" lon="-6.0144160">
        <ele>1471.3</ele>
        <time>2019-09-04T10:46:59Z</time>
      </trkpt>
      <trkpt lat="43.0605820" lon="-6.0143860">
        <ele>1471.3</ele>
        <time>2019-09-04T10:47:03Z</time>
      </trkpt>
      <trkpt lat="43.0606280" lon="-6.0143700">
        <ele>1471.3</ele>
        <time>2019-09-04T10:47:05Z</time>
      </trkpt>
      <trkpt lat="43.0607000" lon="-6.0143490">
        <ele>1471.3</ele>
        <time>2019-09-04T10:47:08Z</time>
      </trkpt>
      <trkpt lat="43.0607720" lon="-6.0143280">
        <ele>1473.3</ele>
        <time>2019-09-04T10:47:11Z</time>
      </trkpt>
      <trkpt lat="43.0608690" lon="-6.0143010">
        <ele>1475.3</ele>
        <time>2019-09-04T10:47:15Z</time>
      </trkpt>
      <trkpt lat="43.0609150" lon="-6.0142840">
        <ele>1475.3</ele>
        <time>2019-09-04T10:47:17Z</time>
      </trkpt>
      <trkpt lat="43.0609610" lon="-6.0142670">
        <ele>1475.3</ele>
        <time>2019-09-04T10:47:19Z</time>
      </trkpt>
      <trkpt lat="43.0610430" lon="-6.0142310">
        <ele>1475.3</ele>
        <time>2019-09-04T10:47:23Z</time>
      </trkpt>
      <trkpt lat="43.0611250" lon="-6.0142050">
        <ele>1475.3</ele>
        <time>2019-09-04T10:47:27Z</time>
      </trkpt>
      <trkpt lat="43.0611710" lon="-6.0141920">
        <ele>1479.4</ele>
        <time>2019-09-04T10:47:29Z</time>
      </trkpt>
      <trkpt lat="43.0612220" lon="-6.0141820">
        <ele>1479.4</ele>
        <time>2019-09-04T10:47:31Z</time>
      </trkpt>
      <trkpt lat="43.0613200" lon="-6.0141670">
        <ele>1479.4</ele>
        <time>2019-09-04T10:47:35Z</time>
      </trkpt>
      <trkpt lat="43.0614220" lon="-6.0141480">
        <ele>1479.4</ele>
        <time>2019-09-04T10:47:39Z</time>
      </trkpt>
      <trkpt lat="43.0615190" lon="-6.0141130">
        <ele>1479.4</ele>
        <time>2019-09-04T10:47:43Z</time>
      </trkpt>
      <trkpt lat="43.0615910" lon="-6.0140820">
        <ele>1483.4</ele>
        <time>2019-09-04T10:47:46Z</time>
      </trkpt>
      <trkpt lat="43.0616630" lon="-6.0140450">
        <ele>1483.4</ele>
        <time>2019-09-04T10:47:49Z</time>
      </trkpt>
      <trkpt lat="43.0617400" lon="-6.0139940">
        <ele>1483.4</ele>
        <time>2019-09-04T10:47:53Z</time>
      </trkpt>
      <trkpt lat="43.0617960" lon="-6.0139440">
        <ele>1483.4</ele>
        <time>2019-09-04T10:47:56Z</time>
      </trkpt>
      <trkpt lat="43.0618570" lon="-6.0138610">
        <ele>1483.4</ele>
        <time>2019-09-04T10:48:00Z</time>
      </trkpt>
      <trkpt lat="43.0619340" lon="-6.0137740">
        <ele>1486.9</ele>
        <time>2019-09-04T10:48:04Z</time>
      </trkpt>
      <trkpt lat="43.0619960" lon="-6.0136870">
        <ele>1486.9</ele>
        <time>2019-09-04T10:48:08Z</time>
      </trkpt>
      <trkpt lat="43.0620620" lon="-6.0135950">
        <ele>1486.9</ele>
        <time>2019-09-04T10:48:12Z</time>
      </trkpt>
      <trkpt lat="43.0620930" lon="-6.0135430">
        <ele>1486.9</ele>
        <time>2019-09-04T10:48:14Z</time>
      </trkpt>
      <trkpt lat="43.0621390" lon="-6.0134660">
        <ele>1490.5</ele>
        <time>2019-09-04T10:48:17Z</time>
      </trkpt>
      <trkpt lat="43.0621950" lon="-6.0133640">
        <ele>1490.5</ele>
        <time>2019-09-04T10:48:21Z</time>
      </trkpt>
      <trkpt lat="43.0622360" lon="-6.0132880">
        <ele>1490.5</ele>
        <time>2019-09-04T10:48:24Z</time>
      </trkpt>
      <trkpt lat="43.0622770" lon="-6.0132060">
        <ele>1490.5</ele>
        <time>2019-09-04T10:48:27Z</time>
      </trkpt>
      <trkpt lat="43.0623230" lon="-6.0130890">
        <ele>1490.5</ele>
        <time>2019-09-04T10:48:31Z</time>
      </trkpt>
      <trkpt lat="43.0623540" lon="-6.0130000">
        <ele>1493.8</ele>
        <time>2019-09-04T10:48:34Z</time>
      </trkpt>
      <trkpt lat="43.0624050" lon="-6.0128940">
        <ele>1493.8</ele>
        <time>2019-09-04T10:48:38Z</time>
      </trkpt>
      <trkpt lat="43.0624360" lon="-6.0128400">
        <ele>1493.8</ele>
        <time>2019-09-04T10:48:40Z</time>
      </trkpt>
      <trkpt lat="43.0624970" lon="-6.0127480">
        <ele>1493.8</ele>
        <time>2019-09-04T10:48:44Z</time>
      </trkpt>
      <trkpt lat="43.0625590" lon="-6.0126530">
        <ele>1493.8</ele>
        <time>2019-09-04T10:48:48Z</time>
      </trkpt>
      <trkpt lat="43.0625890" lon="-6.0126040">
        <ele>1496.9</ele>
        <time>2019-09-04T10:48:50Z</time>
      </trkpt>
      <trkpt lat="43.0626360" lon="-6.0125230">
        <ele>1496.9</ele>
        <time>2019-09-04T10:48:53Z</time>
      </trkpt>
      <trkpt lat="43.0626920" lon="-6.0124070">
        <ele>1496.9</ele>
        <time>2019-09-04T10:48:57Z</time>
      </trkpt>
      <trkpt lat="43.0627120" lon="-6.0123480">
        <ele>1496.9</ele>
        <time>2019-09-04T10:48:59Z</time>
      </trkpt>
      <trkpt lat="43.0627380" lon="-6.0122530">
        <ele>1496.9</ele>
        <time>2019-09-04T10:49:02Z</time>
      </trkpt>
      <trkpt lat="43.0627690" lon="-6.0121250">
        <ele>1500.8</ele>
        <time>2019-09-04T10:49:06Z</time>
      </trkpt>
      <trkpt lat="43.0627840" lon="-6.0119940">
        <ele>1500.8</ele>
        <time>2019-09-04T10:49:10Z</time>
      </trkpt>
      <trkpt lat="43.0627840" lon="-6.0118640">
        <ele>1500.8</ele>
        <time>2019-09-04T10:49:14Z</time>
      </trkpt>
      <trkpt lat="43.0627790" lon="-6.0117980">
        <ele>1500.8</ele>
        <time>2019-09-04T10:49:16Z</time>
      </trkpt>
      <trkpt lat="43.0627690" lon="-6.0116670">
        <ele>1500.8</ele>
        <time>2019-09-04T10:49:20Z</time>
      </trkpt>
      <trkpt lat="43.0627530" lon="-6.0116010">
        <ele>1504.1</ele>
        <time>2019-09-04T10:49:22Z</time>
      </trkpt>
      <trkpt lat="43.0627380" lon="-6.0114720">
        <ele>1504.1</ele>
        <time>2019-09-04T10:49:26Z</time>
      </trkpt>
      <trkpt lat="43.0627230" lon="-6.0113430">
        <ele>1504.1</ele>
        <time>2019-09-04T10:49:30Z</time>
      </trkpt>
      <trkpt lat="43.0627330" lon="-6.0112760">
        <ele>1504.1</ele>
        <time>2019-09-04T10:49:32Z</time>
      </trkpt>
      <trkpt lat="43.0627530" lon="-6.0111810">
        <ele>1504.1</ele>
        <time>2019-09-04T10:49:35Z</time>
      </trkpt>
      <trkpt lat="43.0627890" lon="-6.0110890">
        <ele>1507.0</ele>
        <time>2019-09-04T10:49:38Z</time>
      </trkpt>
      <trkpt lat="43.0628200" lon="-6.0110320">
        <ele>1507.0</ele>
        <time>2019-09-04T10:49:40Z</time>
      </trkpt>
      <trkpt lat="43.0628610" lon="-6.0109500">
        <ele>1507.0</ele>
        <time>2019-09-04T10:49:43Z</time>
      </trkpt>
      <trkpt lat="43.0629070" lon="-6.0108640">
        <ele>1507.0</ele>
        <time>2019-09-04T10:49:46Z</time>
      </trkpt>
      <trkpt lat="43.0629320" lon="-6.0108040">
        <ele>1507.0</ele>
        <time>2019-09-04T10:49:48Z</time>
      </trkpt>
      <trkpt lat="43.0629630" lon="-6.0107440">
        <ele>1507.0</ele>
        <time>2019-09-04T10:49:50Z</time>
      </trkpt>
      <trkpt lat="43.0629990" lon="-6.0106840">
        <ele>1507.0</ele>
        <time>2019-09-04T10:49:52Z</time>
      </trkpt>
      <trkpt lat="43.0630350" lon="-6.0106230">
        <ele>1510.0</ele>
        <time>2019-09-04T10:49:54Z</time>
      </trkpt>
      <trkpt lat="43.0630660" lon="-6.0105630">
        <ele>1510.0</ele>
        <time>2019-09-04T10:49:56Z</time>
      </trkpt>
      <trkpt lat="43.0630960" lon="-6.0104990">
        <ele>1510.0</ele>
        <time>2019-09-04T10:49:58Z</time>
      </trkpt>
      <trkpt lat="43.0631220" lon="-6.0104350">
        <ele>1510.0</ele>
        <time>2019-09-04T10:50:00Z</time>
      </trkpt>
      <trkpt lat="43.0631480" lon="-6.0103690">
        <ele>1510.0</ele>
        <time>2019-09-04T10:50:02Z</time>
      </trkpt>
      <trkpt lat="43.0631730" lon="-6.0103030">
        <ele>1510.0</ele>
        <time>2019-09-04T10:50:04Z</time>
      </trkpt>
      <trkpt lat="43.0631830" lon="-6.0102320">
        <ele>1510.0</ele>
        <time>2019-09-04T10:50:06Z</time>
      </trkpt>
      <trkpt lat="43.0631880" lon="-6.0101620">
        <ele>1510.0</ele>
        <time>2019-09-04T10:50:08Z</time>
      </trkpt>
      <trkpt lat="43.0631880" lon="-6.0100580">
        <ele>1513.6</ele>
        <time>2019-09-04T10:50:11Z</time>
      </trkpt>
      <trkpt lat="43.0631880" lon="-6.0099890">
        <ele>1513.6</ele>
        <time>2019-09-04T10:50:13Z</time>
      </trkpt>
      <trkpt lat="43.0631680" lon="-6.0099000">
        <ele>1513.6</ele>
        <time>2019-09-04T10:50:16Z</time>
      </trkpt>
      <trkpt lat="43.0631220" lon="-6.0098260">
        <ele>1513.6</ele>
        <time>2019-09-04T10:50:19Z</time>
      </trkpt>
      <trkpt lat="43.0630600" lon="-6.0097870">
        <ele>1513.6</ele>
        <time>2019-09-04T10:50:22Z</time>
      </trkpt>
      <trkpt lat="43.0629940" lon="-6.0097830">
        <ele>1517.0</ele>
        <time>2019-09-04T10:50:25Z</time>
      </trkpt>
      <trkpt lat="43.0629170" lon="-6.0098000">
        <ele>1517.0</ele>
        <time>2019-09-04T10:50:28Z</time>
      </trkpt>
      <trkpt lat="43.0628710" lon="-6.0098160">
        <ele>1517.0</ele>
        <time>2019-09-04T10:50:30Z</time>
      </trkpt>
      <trkpt lat="43.0627790" lon="-6.0098390">
        <ele>1517.0</ele>
        <time>2019-09-04T10:50:34Z</time>
      </trkpt>
      <trkpt lat="43.0626820" lon="-6.0098490">
        <ele>1517.0</ele>
        <time>2019-09-04T10:50:38Z</time>
      </trkpt>
      <trkpt lat="43.0625890" lon="-6.0098360">
        <ele>1520.1</ele>
        <time>2019-09-04T10:50:42Z</time>
      </trkpt>
      <trkpt lat="43.0624970" lon="-6.0098100">
        <ele>1520.1</ele>
        <time>2019-09-04T10:50:46Z</time>
      </trkpt>
      <trkpt lat="43.0624260" lon="-6.0097890">
        <ele>1520.1</ele>
        <time>2019-09-04T10:50:49Z</time>
      </trkpt>
      <trkpt lat="43.0623280" lon="-6.0097680">
        <ele>1520.1</ele>
        <time>2019-09-04T10:50:53Z</time>
      </trkpt>
      <trkpt lat="43.0622620" lon="-6.0097510">
        <ele>1520.1</ele>
        <time>2019-09-04T10:50:56Z</time>
      </trkpt>
      <trkpt lat="43.0621900" lon="-6.0097300">
        <ele>1523.0</ele>
        <time>2019-09-04T10:50:59Z</time>
      </trkpt>
      <trkpt lat="43.0621290" lon="-6.0096880">
        <ele>1523.0</ele>
        <time>2019-09-04T10:51:02Z</time>
      </trkpt>
      <trkpt lat="43.0620670" lon="-6.0095900">
        <ele>1523.0</ele>
        <time>2019-09-04T10:51:06Z</time>
      </trkpt>
      <trkpt lat="43.0620520" lon="-6.0095300">
        <ele>1523.0</ele>
        <time>2019-09-04T10:51:08Z</time>
      </trkpt>
      <trkpt lat="43.0620470" lon="-6.0094040">
        <ele>1523.0</ele>
        <time>2019-09-04T10:51:12Z</time>
      </trkpt>
      <trkpt lat="43.0620620" lon="-6.0092760">
        <ele>1526.2</ele>
        <time>2019-09-04T10:51:16Z</time>
      </trkpt>
      <trkpt lat="43.0620770" lon="-6.0091790">
        <ele>1526.2</ele>
        <time>2019-09-04T10:51:19Z</time>
      </trkpt>
      <trkpt lat="43.0620980" lon="-6.0090460">
        <ele>1526.2</ele>
        <time>2019-09-04T10:51:23Z</time>
      </trkpt>
      <trkpt lat="43.0621290" lon="-6.0089220">
        <ele>1526.2</ele>
        <time>2019-09-04T10:51:27Z</time>
      </trkpt>
      <trkpt lat="43.0621440" lon="-6.0088590">
        <ele>1529.4</ele>
        <time>2019-09-04T10:51:29Z</time>
      </trkpt>
      <trkpt lat="43.0621850" lon="-6.0087340">
        <ele>1529.4</ele>
        <time>2019-09-04T10:51:33Z</time>
      </trkpt>
      <trkpt lat="43.0622310" lon="-6.0086130">
        <ele>1529.4</ele>
        <time>2019-09-04T10:51:37Z</time>
      </trkpt>
      <trkpt lat="43.0622770" lon="-6.0084850">
        <ele>1529.4</ele>
        <time>2019-09-04T10:51:41Z</time>
      </trkpt>
      <trkpt lat="43.0622920" lon="-6.0084180">
        <ele>1529.4</ele>
        <time>2019-09-04T10:51:43Z</time>
      </trkpt>
      <trkpt lat="43.0623030" lon="-6.0082830">
        <ele>1532.7</ele>
        <time>2019-09-04T10:51:47Z</time>
      </trkpt>
      <trkpt lat="43.0622980" lon="-6.0082170">
        <ele>1532.7</ele>
        <time>2019-09-04T10:51:49Z</time>
      </trkpt>
      <trkpt lat="43.0622870" lon="-6.0080830">
        <ele>1532.7</ele>
        <time>2019-09-04T10:51:53Z</time>
      </trkpt>
      <trkpt lat="43.0622770" lon="-6.0079510">
        <ele>1533.5</ele>
        <time>2019-09-04T10:51:57Z</time>
      </trkpt>
      <trkpt lat="43.0622870" lon="-6.0078860">
        <ele>1533.5</ele>
        <time>2019-09-04T10:51:59Z</time>
      </trkpt>
      <trkpt lat="43.0623130" lon="-6.0077580">
        <ele>1536.2</ele>
        <time>2019-09-04T10:52:03Z</time>
      </trkpt>
      <trkpt lat="43.0623330" lon="-6.0076960">
        <ele>1536.2</ele>
        <time>2019-09-04T10:52:05Z</time>
      </trkpt>
      <trkpt lat="43.0623590" lon="-6.0076020">
        <ele>1536.2</ele>
        <time>2019-09-04T10:52:08Z</time>
      </trkpt>
      <trkpt lat="43.0623690" lon="-6.0075000">
        <ele>1536.2</ele>
        <time>2019-09-04T10:52:11Z</time>
      </trkpt>
      <trkpt lat="43.0623640" lon="-6.0073980">
        <ele>1536.2</ele>
        <time>2019-09-04T10:52:14Z</time>
      </trkpt>
      <trkpt lat="43.0623490" lon="-6.0073320">
        <ele>1536.2</ele>
        <time>2019-09-04T10:52:16Z</time>
      </trkpt>
      <trkpt lat="43.0623130" lon="-6.0072000">
        <ele>1539.2</ele>
        <time>2019-09-04T10:52:20Z</time>
      </trkpt>
      <trkpt lat="43.0622920" lon="-6.0071330">
        <ele>1539.2</ele>
        <time>2019-09-04T10:52:22Z</time>
      </trkpt>
      <trkpt lat="43.0622670" lon="-6.0070660">
        <ele>1539.2</ele>
        <time>2019-09-04T10:52:24Z</time>
      </trkpt>
      <trkpt lat="43.0622460" lon="-6.0070000">
        <ele>1539.2</ele>
        <time>2019-09-04T10:52:26Z</time>
      </trkpt>
      <trkpt lat="43.0622160" lon="-6.0069320">
        <ele>1539.2</ele>
        <time>2019-09-04T10:52:28Z</time>
      </trkpt>
      <trkpt lat="43.0621850" lon="-6.0068720">
        <ele>1539.2</ele>
        <time>2019-09-04T10:52:30Z</time>
      </trkpt>
      <trkpt lat="43.0621540" lon="-6.0068170">
        <ele>1539.2</ele>
        <time>2019-09-04T10:52:32Z</time>
      </trkpt>
      <trkpt lat="43.0620880" lon="-6.0067120">
        <ele>1542.1</ele>
        <time>2019-09-04T10:52:36Z</time>
      </trkpt>
      <trkpt lat="43.0620520" lon="-6.0066630">
        <ele>1542.1</ele>
        <time>2019-09-04T10:52:38Z</time>
      </trkpt>
      <trkpt lat="43.0619900" lon="-6.0065950">
        <ele>1542.1</ele>
        <time>2019-09-04T10:52:41Z</time>
      </trkpt>
      <trkpt lat="43.0619340" lon="-6.0065320">
        <ele>1542.1</ele>
        <time>2019-09-04T10:52:44Z</time>
      </trkpt>
      <trkpt lat="43.0618730" lon="-6.0064700">
        <ele>1542.1</ele>
        <time>2019-09-04T10:52:47Z</time>
      </trkpt>
      <trkpt lat="43.0618160" lon="-6.0064090">
        <ele>1544.7</ele>
        <time>2019-09-04T10:52:50Z</time>
      </trkpt>
      <trkpt lat="43.0617800" lon="-6.0063690">
        <ele>1544.7</ele>
        <time>2019-09-04T10:52:52Z</time>
      </trkpt>
      <trkpt lat="43.0617040" lon="-6.0062820">
        <ele>1544.7</ele>
        <time>2019-09-04T10:52:56Z</time>
      </trkpt>
      <trkpt lat="43.0616630" lon="-6.0062370">
        <ele>1544.7</ele>
        <time>2019-09-04T10:52:58Z</time>
      </trkpt>
      <trkpt lat="43.0616320" lon="-6.0061910">
        <ele>1544.7</ele>
        <time>2019-09-04T10:53:00Z</time>
      </trkpt>
      <trkpt lat="43.0615600" lon="-6.0060980">
        <ele>1544.7</ele>
        <time>2019-09-04T10:53:04Z</time>
      </trkpt>
      <trkpt lat="43.0615190" lon="-6.0060520">
        <ele>1547.8</ele>
        <time>2019-09-04T10:53:06Z</time>
      </trkpt>
      <trkpt lat="43.0614840" lon="-6.0060090">
        <ele>1547.8</ele>
        <time>2019-09-04T10:53:08Z</time>
      </trkpt>
      <trkpt lat="43.0614070" lon="-6.0059280">
        <ele>1547.8</ele>
        <time>2019-09-04T10:53:12Z</time>
      </trkpt>
      <trkpt lat="43.0613660" lon="-6.0058900">
        <ele>1547.8</ele>
        <time>2019-09-04T10:53:14Z</time>
      </trkpt>
      <trkpt lat="43.0612740" lon="-6.0058210">
        <ele>1547.8</ele>
        <time>2019-09-04T10:53:18Z</time>
      </trkpt>
      <trkpt lat="43.0611970" lon="-6.0057550">
        <ele>1550.9</ele>
        <time>2019-09-04T10:53:22Z</time>
      </trkpt>
      <trkpt lat="43.0611100" lon="-6.0056940">
        <ele>1550.9</ele>
        <time>2019-09-04T10:53:26Z</time>
      </trkpt>
      <trkpt lat="43.0610280" lon="-6.0056300">
        <ele>1550.9</ele>
        <time>2019-09-04T10:53:30Z</time>
      </trkpt>
      <trkpt lat="43.0609610" lon="-6.0055940">
        <ele>1550.9</ele>
        <time>2019-09-04T10:53:33Z</time>
      </trkpt>
      <trkpt lat="43.0608950" lon="-6.0055730">
        <ele>1550.9</ele>
        <time>2019-09-04T10:53:36Z</time>
      </trkpt>
      <trkpt lat="43.0608230" lon="-6.0055580">
        <ele>1554.1</ele>
        <time>2019-09-04T10:53:39Z</time>
      </trkpt>
      <trkpt lat="43.0607560" lon="-6.0055500">
        <ele>1554.1</ele>
        <time>2019-09-04T10:53:42Z</time>
      </trkpt>
      <trkpt lat="43.0606900" lon="-6.0055510">
        <ele>1554.1</ele>
        <time>2019-09-04T10:53:45Z</time>
      </trkpt>
      <trkpt lat="43.0606440" lon="-6.0055540">
        <ele>1554.1</ele>
        <time>2019-09-04T10:53:47Z</time>
      </trkpt>
      <trkpt lat="43.0605720" lon="-6.0055540">
        <ele>1554.1</ele>
        <time>2019-09-04T10:53:50Z</time>
      </trkpt>
      <trkpt lat="43.0604950" lon="-6.0055460">
        <ele>1557.4</ele>
        <time>2019-09-04T10:53:53Z</time>
      </trkpt>
      <trkpt lat="43.0604030" lon="-6.0055210">
        <ele>1559.1</ele>
        <time>2019-09-04T10:53:57Z</time>
      </trkpt>
      <trkpt lat="43.0603570" lon="-6.0055050">
        <ele>1559.1</ele>
        <time>2019-09-04T10:53:59Z</time>
      </trkpt>
      <trkpt lat="43.0602600" lon="-6.0054710">
        <ele>1559.1</ele>
        <time>2019-09-04T10:54:03Z</time>
      </trkpt>
      <trkpt lat="43.0601680" lon="-6.0054370">
        <ele>1559.1</ele>
        <time>2019-09-04T10:54:07Z</time>
      </trkpt>
      <trkpt lat="43.0600760" lon="-6.0053950">
        <ele>1562.3</ele>
        <time>2019-09-04T10:54:11Z</time>
      </trkpt>
      <trkpt lat="43.0599780" lon="-6.0053520">
        <ele>1562.3</ele>
        <time>2019-09-04T10:54:15Z</time>
      </trkpt>
      <trkpt lat="43.0599270" lon="-6.0053300">
        <ele>1562.3</ele>
        <time>2019-09-04T10:54:17Z</time>
      </trkpt>
      <trkpt lat="43.0598350" lon="-6.0052880">
        <ele>1562.3</ele>
        <time>2019-09-04T10:54:21Z</time>
      </trkpt>
      <trkpt lat="43.0597840" lon="-6.0052700">
        <ele>1562.3</ele>
        <time>2019-09-04T10:54:23Z</time>
      </trkpt>
      <trkpt lat="43.0597070" lon="-6.0052450">
        <ele>1565.5</ele>
        <time>2019-09-04T10:54:26Z</time>
      </trkpt>
      <trkpt lat="43.0596560" lon="-6.0052320">
        <ele>1565.5</ele>
        <time>2019-09-04T10:54:28Z</time>
      </trkpt>
      <trkpt lat="43.0596100" lon="-6.0052250">
        <ele>1565.5</ele>
        <time>2019-09-04T10:54:30Z</time>
      </trkpt>
      <trkpt lat="43.0595120" lon="-6.0052350">
        <ele>1565.5</ele>
        <time>2019-09-04T10:54:34Z</time>
      </trkpt>
      <trkpt lat="43.0594410" lon="-6.0052590">
        <ele>1565.5</ele>
        <time>2019-09-04T10:54:37Z</time>
      </trkpt>
      <trkpt lat="43.0594000" lon="-6.0052810">
        <ele>1565.5</ele>
        <time>2019-09-04T10:54:39Z</time>
      </trkpt>
      <trkpt lat="43.0593130" lon="-6.0053320">
        <ele>1568.9</ele>
        <time>2019-09-04T10:54:43Z</time>
      </trkpt>
      <trkpt lat="43.0592260" lon="-6.0053820">
        <ele>1568.9</ele>
        <time>2019-09-04T10:54:47Z</time>
      </trkpt>
      <trkpt lat="43.0591390" lon="-6.0054100">
        <ele>1568.9</ele>
        <time>2019-09-04T10:54:51Z</time>
      </trkpt>
      <trkpt lat="43.0590460" lon="-6.0053960">
        <ele>1568.9</ele>
        <time>2019-09-04T10:54:55Z</time>
      </trkpt>
      <trkpt lat="43.0590050" lon="-6.0053730">
        <ele>1572.4</ele>
        <time>2019-09-04T10:54:57Z</time>
      </trkpt>
      <trkpt lat="43.0589340" lon="-6.0052910">
        <ele>1572.4</ele>
        <time>2019-09-04T10:55:01Z</time>
      </trkpt>
      <trkpt lat="43.0588720" lon="-6.0051820">
        <ele>1572.4</ele>
        <time>2019-09-04T10:55:05Z</time>
      </trkpt>
      <trkpt lat="43.0588360" lon="-6.0051230">
        <ele>1572.4</ele>
        <time>2019-09-04T10:55:07Z</time>
      </trkpt>
      <trkpt lat="43.0588060" lon="-6.0050640">
        <ele>1572.4</ele>
        <time>2019-09-04T10:55:09Z</time>
      </trkpt>
      <trkpt lat="43.0587700" lon="-6.0050050">
        <ele>1572.4</ele>
        <time>2019-09-04T10:55:11Z</time>
      </trkpt>
      <trkpt lat="43.0587340" lon="-6.0049450">
        <ele>1576.0</ele>
        <time>2019-09-04T10:55:13Z</time>
      </trkpt>
      <trkpt lat="43.0586880" lon="-6.0048540">
        <ele>1576.0</ele>
        <time>2019-09-04T10:55:16Z</time>
      </trkpt>
      <trkpt lat="43.0586570" lon="-6.0047950">
        <ele>1576.0</ele>
        <time>2019-09-04T10:55:18Z</time>
      </trkpt>
      <trkpt lat="43.0586270" lon="-6.0047300">
        <ele>1576.0</ele>
        <time>2019-09-04T10:55:20Z</time>
      </trkpt>
      <trkpt lat="43.0585960" lon="-6.0046700">
        <ele>1576.0</ele>
        <time>2019-09-04T10:55:22Z</time>
      </trkpt>
      <trkpt lat="43.0585650" lon="-6.0046070">
        <ele>1576.0</ele>
        <time>2019-09-04T10:55:24Z</time>
      </trkpt>
      <trkpt lat="43.0585290" lon="-6.0045460">
        <ele>1576.0</ele>
        <time>2019-09-04T10:55:26Z</time>
      </trkpt>
      <trkpt lat="43.0584930" lon="-6.0044900">
        <ele>1576.0</ele>
        <time>2019-09-04T10:55:28Z</time>
      </trkpt>
      <trkpt lat="43.0584630" lon="-6.0044380">
        <ele>1579.4</ele>
        <time>2019-09-04T10:55:30Z</time>
      </trkpt>
      <trkpt lat="43.0583810" lon="-6.0043550">
        <ele>1579.4</ele>
        <time>2019-09-04T10:55:34Z</time>
      </trkpt>
      <trkpt lat="43.0583300" lon="-6.0043280">
        <ele>1579.4</ele>
        <time>2019-09-04T10:55:36Z</time>
      </trkpt>
      <trkpt lat="43.0582780" lon="-6.0043120">
        <ele>1579.4</ele>
        <time>2019-09-04T10:55:38Z</time>
      </trkpt>
      <trkpt lat="43.0581960" lon="-6.0043010">
        <ele>1579.4</ele>
        <time>2019-09-04T10:55:41Z</time>
      </trkpt>
      <trkpt lat="43.0581350" lon="-6.0043010">
        <ele>1579.4</ele>
        <time>2019-09-04T10:55:43Z</time>
      </trkpt>
      <trkpt lat="43.0580790" lon="-6.0043080">
        <ele>1582.8</ele>
        <time>2019-09-04T10:55:45Z</time>
      </trkpt>
      <trkpt lat="43.0580220" lon="-6.0043190">
        <ele>1582.8</ele>
        <time>2019-09-04T10:55:47Z</time>
      </trkpt>
      <trkpt lat="43.0579660" lon="-6.0043330">
        <ele>1582.8</ele>
        <time>2019-09-04T10:55:49Z</time>
      </trkpt>
      <trkpt lat="43.0579050" lon="-6.0043490">
        <ele>1582.8</ele>
        <time>2019-09-04T10:55:51Z</time>
      </trkpt>
      <trkpt lat="43.0578480" lon="-6.0043680">
        <ele>1582.8</ele>
        <time>2019-09-04T10:55:53Z</time>
      </trkpt>
      <trkpt lat="43.0577560" lon="-6.0044080">
        <ele>1582.8</ele>
        <time>2019-09-04T10:55:56Z</time>
      </trkpt>
      <trkpt lat="43.0577000" lon="-6.0044430">
        <ele>1585.4</ele>
        <time>2019-09-04T10:55:58Z</time>
      </trkpt>
      <trkpt lat="43.0576490" lon="-6.0044770">
        <ele>1585.4</ele>
        <time>2019-09-04T10:56:00Z</time>
      </trkpt>
      <trkpt lat="43.0575870" lon="-6.0044930">
        <ele>1588.6</ele>
        <time>2019-09-04T10:56:04Z</time>
      </trkpt>
      <trkpt lat="43.0577200" lon="-6.0043210">
        <ele>1591.7</ele>
        <time>2019-09-04T10:59:02Z</time>
      </trkpt>
      <trkpt lat="43.0577200" lon="-6.0043280">
        <ele>1591.7</ele>
        <time>2019-09-04T10:59:03Z</time>
      </trkpt>
      <trkpt lat="43.0577360" lon="-6.0043310">
        <ele>1591.7</ele>
        <time>2019-09-04T10:59:04Z</time>
      </trkpt>
      <trkpt lat="43.0577510" lon="-6.0043310">
        <ele>1591.7</ele>
        <time>2019-09-04T10:59:05Z</time>
      </trkpt>
      <trkpt lat="43.0577720" lon="-6.0043290">
        <ele>1591.7</ele>
        <time>2019-09-04T10:59:06Z</time>
      </trkpt>
      <trkpt lat="43.0577920" lon="-6.0043240">
        <ele>1591.7</ele>
        <time>2019-09-04T10:59:07Z</time>
      </trkpt>
      <trkpt lat="43.0578180" lon="-6.0043180">
        <ele>1591.7</ele>
        <time>2019-09-04T10:59:08Z</time>
      </trkpt>
      <trkpt lat="43.0578690" lon="-6.0043060">
        <ele>1591.7</ele>
        <time>2019-09-04T10:59:10Z</time>
      </trkpt>
      <trkpt lat="43.0579400" lon="-6.0042920">
        <ele>1591.7</ele>
        <time>2019-09-04T10:59:12Z</time>
      </trkpt>
      <trkpt lat="43.0580170" lon="-6.0042780">
        <ele>1591.7</ele>
        <time>2019-09-04T10:59:14Z</time>
      </trkpt>
      <trkpt lat="43.0580990" lon="-6.0042650">
        <ele>1591.7</ele>
        <time>2019-09-04T10:59:16Z</time>
      </trkpt>
      <trkpt lat="43.0581910" lon="-6.0042600">
        <ele>1591.7</ele>
        <time>2019-09-04T10:59:18Z</time>
      </trkpt>
      <trkpt lat="43.0582780" lon="-6.0042740">
        <ele>1591.7</ele>
        <time>2019-09-04T10:59:20Z</time>
      </trkpt>
      <trkpt lat="43.0584120" lon="-6.0043530">
        <ele>1591.7</ele>
        <time>2019-09-04T10:59:23Z</time>
      </trkpt>
      <trkpt lat="43.0584930" lon="-6.0044480">
        <ele>1591.7</ele>
        <time>2019-09-04T10:59:25Z</time>
      </trkpt>
      <trkpt lat="43.0585340" lon="-6.0045060">
        <ele>1591.7</ele>
        <time>2019-09-04T10:59:26Z</time>
      </trkpt>
      <trkpt lat="43.0586110" lon="-6.0046410">
        <ele>1591.7</ele>
        <time>2019-09-04T10:59:28Z</time>
      </trkpt>
      <trkpt lat="43.0586520" lon="-6.0047200">
        <ele>1591.7</ele>
        <time>2019-09-04T10:59:29Z</time>
      </trkpt>
      <trkpt lat="43.0586980" lon="-6.0048120">
        <ele>1591.7</ele>
        <time>2019-09-04T10:59:30Z</time>
      </trkpt>
      <trkpt lat="43.0587490" lon="-6.0049050">
        <ele>1591.7</ele>
        <time>2019-09-04T10:59:31Z</time>
      </trkpt>
      <trkpt lat="43.0587960" lon="-6.0049960">
        <ele>1591.7</ele>
        <time>2019-09-04T10:59:32Z</time>
      </trkpt>
      <trkpt lat="43.0588420" lon="-6.0050800">
        <ele>1591.7</ele>
        <time>2019-09-04T10:59:33Z</time>
      </trkpt>
      <trkpt lat="43.0588830" lon="-6.0051550">
        <ele>1591.7</ele>
        <time>2019-09-04T10:59:34Z</time>
      </trkpt>
      <trkpt lat="43.0589240" lon="-6.0052210">
        <ele>1591.7</ele>
        <time>2019-09-04T10:59:35Z</time>
      </trkpt>
      <trkpt lat="43.0589590" lon="-6.0052600">
        <ele>1591.7</ele>
        <time>2019-09-04T10:59:36Z</time>
      </trkpt>
      <trkpt lat="43.0590000" lon="-6.0053040">
        <ele>1591.7</ele>
        <time>2019-09-04T10:59:37Z</time>
      </trkpt>
      <trkpt lat="43.0590920" lon="-6.0053520">
        <ele>1591.7</ele>
        <time>2019-09-04T10:59:39Z</time>
      </trkpt>
      <trkpt lat="43.0592000" lon="-6.0053410">
        <ele>1591.7</ele>
        <time>2019-09-04T10:59:41Z</time>
      </trkpt>
      <trkpt lat="43.0592670" lon="-6.0053180">
        <ele>1591.7</ele>
        <time>2019-09-04T10:59:42Z</time>
      </trkpt>
      <trkpt lat="43.0593230" lon="-6.0052930">
        <ele>1591.7</ele>
        <time>2019-09-04T10:59:43Z</time>
      </trkpt>
      <trkpt lat="43.0593840" lon="-6.0052660">
        <ele>1586.8</ele>
        <time>2019-09-04T10:59:44Z</time>
      </trkpt>
      <trkpt lat="43.0594610" lon="-6.0052430">
        <ele>1584.2</ele>
        <time>2019-09-04T10:59:45Z</time>
      </trkpt>
      <trkpt lat="43.0595380" lon="-6.0052270">
        <ele>1582.4</ele>
        <time>2019-09-04T10:59:46Z</time>
      </trkpt>
      <trkpt lat="43.0596150" lon="-6.0052150">
        <ele>1581.0</ele>
        <time>2019-09-04T10:59:47Z</time>
      </trkpt>
      <trkpt lat="43.0597020" lon="-6.0052190">
        <ele>1581.0</ele>
        <time>2019-09-04T10:59:48Z</time>
      </trkpt>
      <trkpt lat="43.0598660" lon="-6.0052580">
        <ele>1579.0</ele>
        <time>2019-09-04T10:59:50Z</time>
      </trkpt>
      <trkpt lat="43.0599420" lon="-6.0052900">
        <ele>1577.4</ele>
        <time>2019-09-04T10:59:51Z</time>
      </trkpt>
      <trkpt lat="43.0600350" lon="-6.0053280">
        <ele>1577.4</ele>
        <time>2019-09-04T10:59:52Z</time>
      </trkpt>
      <trkpt lat="43.0601220" lon="-6.0053670">
        <ele>1575.9</ele>
        <time>2019-09-04T10:59:53Z</time>
      </trkpt>
      <trkpt lat="43.0602090" lon="-6.0054060">
        <ele>1575.9</ele>
        <time>2019-09-04T10:59:54Z</time>
      </trkpt>
      <trkpt lat="43.0602800" lon="-6.0054430">
        <ele>1574.0</ele>
        <time>2019-09-04T10:59:55Z</time>
      </trkpt>
      <trkpt lat="43.0603520" lon="-6.0054760">
        <ele>1574.0</ele>
        <time>2019-09-04T10:59:56Z</time>
      </trkpt>
      <trkpt lat="43.0604340" lon="-6.0055010">
        <ele>1572.5</ele>
        <time>2019-09-04T10:59:57Z</time>
      </trkpt>
      <trkpt lat="43.0605160" lon="-6.0055190">
        <ele>1572.5</ele>
        <time>2019-09-04T10:59:58Z</time>
      </trkpt>
      <trkpt lat="43.0605980" lon="-6.0055280">
        <ele>1570.7</ele>
        <time>2019-09-04T10:59:59Z</time>
      </trkpt>
      <trkpt lat="43.0606800" lon="-6.0055330">
        <ele>1570.7</ele>
        <time>2019-09-04T11:00:00Z</time>
      </trkpt>
      <trkpt lat="43.0607670" lon="-6.0055410">
        <ele>1569.2</ele>
        <time>2019-09-04T11:00:01Z</time>
      </trkpt>
      <trkpt lat="43.0608540" lon="-6.0055560">
        <ele>1569.2</ele>
        <time>2019-09-04T11:00:02Z</time>
      </trkpt>
      <trkpt lat="43.0609310" lon="-6.0055800">
        <ele>1567.9</ele>
        <time>2019-09-04T11:00:03Z</time>
      </trkpt>
      <trkpt lat="43.0610120" lon="-6.0056170">
        <ele>1567.9</ele>
        <time>2019-09-04T11:00:04Z</time>
      </trkpt>
      <trkpt lat="43.0610940" lon="-6.0056650">
        <ele>1566.6</ele>
        <time>2019-09-04T11:00:05Z</time>
      </trkpt>
      <trkpt lat="43.0611870" lon="-6.0057270">
        <ele>1566.6</ele>
        <time>2019-09-04T11:00:06Z</time>
      </trkpt>
      <trkpt lat="43.0612680" lon="-6.0057890">
        <ele>1565.1</ele>
        <time>2019-09-04T11:00:07Z</time>
      </trkpt>
      <trkpt lat="43.0613500" lon="-6.0058620">
        <ele>1565.1</ele>
        <time>2019-09-04T11:00:08Z</time>
      </trkpt>
      <trkpt lat="43.0614370" lon="-6.0059380">
        <ele>1563.9</ele>
        <time>2019-09-04T11:00:09Z</time>
      </trkpt>
      <trkpt lat="43.0615090" lon="-6.0060190">
        <ele>1563.9</ele>
        <time>2019-09-04T11:00:10Z</time>
      </trkpt>
      <trkpt lat="43.0615810" lon="-6.0060990">
        <ele>1562.3</ele>
        <time>2019-09-04T11:00:11Z</time>
      </trkpt>
      <trkpt lat="43.0617240" lon="-6.0062630">
        <ele>1560.9</ele>
        <time>2019-09-04T11:00:13Z</time>
      </trkpt>
      <trkpt lat="43.0618730" lon="-6.0064300">
        <ele>1559.7</ele>
        <time>2019-09-04T11:00:15Z</time>
      </trkpt>
      <trkpt lat="43.0620060" lon="-6.0065860">
        <ele>1558.1</ele>
        <time>2019-09-04T11:00:17Z</time>
      </trkpt>
      <trkpt lat="43.0621340" lon="-6.0067600">
        <ele>1556.7</ele>
        <time>2019-09-04T11:00:19Z</time>
      </trkpt>
      <trkpt lat="43.0621850" lon="-6.0068540">
        <ele>1556.7</ele>
        <time>2019-09-04T11:00:20Z</time>
      </trkpt>
      <trkpt lat="43.0622770" lon="-6.0070620">
        <ele>1555.3</ele>
        <time>2019-09-04T11:00:22Z</time>
      </trkpt>
      <trkpt lat="43.0623490" lon="-6.0072740">
        <ele>1551.9</ele>
        <time>2019-09-04T11:00:24Z</time>
      </trkpt>
      <trkpt lat="43.0623800" lon="-6.0074710">
        <ele>1551.9</ele>
        <time>2019-09-04T11:00:26Z</time>
      </trkpt>
      <trkpt lat="43.0623740" lon="-6.0076770">
        <ele>1551.9</ele>
        <time>2019-09-04T11:00:28Z</time>
      </trkpt>
      <trkpt lat="43.0623490" lon="-6.0079020">
        <ele>1551.9</ele>
        <time>2019-09-04T11:00:30Z</time>
      </trkpt>
      <trkpt lat="43.0623390" lon="-6.0081280">
        <ele>1551.9</ele>
        <time>2019-09-04T11:00:32Z</time>
      </trkpt>
      <trkpt lat="43.0623330" lon="-6.0082400">
        <ele>1551.9</ele>
        <time>2019-09-04T11:00:33Z</time>
      </trkpt>
      <trkpt lat="43.0623280" lon="-6.0083510">
        <ele>1551.9</ele>
        <time>2019-09-04T11:00:34Z</time>
      </trkpt>
      <trkpt lat="43.0622870" lon="-6.0085640">
        <ele>1549.5</ele>
        <time>2019-09-04T11:00:36Z</time>
      </trkpt>
      <trkpt lat="43.0622160" lon="-6.0087860">
        <ele>1543.9</ele>
        <time>2019-09-04T11:00:38Z</time>
      </trkpt>
      <trkpt lat="43.0621540" lon="-6.0090140">
        <ele>1540.8</ele>
        <time>2019-09-04T11:00:40Z</time>
      </trkpt>
      <trkpt lat="43.0621080" lon="-6.0092410">
        <ele>1539.6</ele>
        <time>2019-09-04T11:00:42Z</time>
      </trkpt>
      <trkpt lat="43.0620880" lon="-6.0094370">
        <ele>1537.4</ele>
        <time>2019-09-04T11:00:44Z</time>
      </trkpt>
      <trkpt lat="43.0621340" lon="-6.0095920">
        <ele>1535.7</ele>
        <time>2019-09-04T11:00:46Z</time>
      </trkpt>
      <trkpt lat="43.0622410" lon="-6.0096840">
        <ele>1534.5</ele>
        <time>2019-09-04T11:00:48Z</time>
      </trkpt>
      <trkpt lat="43.0623490" lon="-6.0097470">
        <ele>1534.5</ele>
        <time>2019-09-04T11:00:50Z</time>
      </trkpt>
      <trkpt lat="43.0625020" lon="-6.0097900">
        <ele>1534.5</ele>
        <time>2019-09-04T11:00:52Z</time>
      </trkpt>
      <trkpt lat="43.0626760" lon="-6.0098110">
        <ele>1534.5</ele>
        <time>2019-09-04T11:00:54Z</time>
      </trkpt>
      <trkpt lat="43.0628450" lon="-6.0097920">
        <ele>1534.5</ele>
        <time>2019-09-04T11:00:56Z</time>
      </trkpt>
      <trkpt lat="43.0630040" lon="-6.0097750">
        <ele>1534.5</ele>
        <time>2019-09-04T11:00:58Z</time>
      </trkpt>
      <trkpt lat="43.0631120" lon="-6.0098280">
        <ele>1534.5</ele>
        <time>2019-09-04T11:01:00Z</time>
      </trkpt>
      <trkpt lat="43.0631480" lon="-6.0098750">
        <ele>1533.0</ele>
        <time>2019-09-04T11:01:01Z</time>
      </trkpt>
      <trkpt lat="43.0632040" lon="-6.0100770">
        <ele>1531.8</ele>
        <time>2019-09-04T11:01:04Z</time>
      </trkpt>
      <trkpt lat="43.0631990" lon="-6.0102580">
        <ele>1531.8</ele>
        <time>2019-09-04T11:01:06Z</time>
      </trkpt>
      <trkpt lat="43.0631730" lon="-6.0103490">
        <ele>1530.5</ele>
        <time>2019-09-04T11:01:07Z</time>
      </trkpt>
      <trkpt lat="43.0631420" lon="-6.0104470">
        <ele>1530.5</ele>
        <time>2019-09-04T11:01:08Z</time>
      </trkpt>
      <trkpt lat="43.0630500" lon="-6.0106590">
        <ele>1526.9</ele>
        <time>2019-09-04T11:01:10Z</time>
      </trkpt>
      <trkpt lat="43.0629430" lon="-6.0108710">
        <ele>1523.8</ele>
        <time>2019-09-04T11:01:12Z</time>
      </trkpt>
      <trkpt lat="43.0628400" lon="-6.0110820">
        <ele>1520.9</ele>
        <time>2019-09-04T11:01:14Z</time>
      </trkpt>
      <trkpt lat="43.0627740" lon="-6.0113000">
        <ele>1519.8</ele>
        <time>2019-09-04T11:01:16Z</time>
      </trkpt>
      <trkpt lat="43.0627580" lon="-6.0115230">
        <ele>1517.9</ele>
        <time>2019-09-04T11:01:18Z</time>
      </trkpt>
      <trkpt lat="43.0627690" lon="-6.0117580">
        <ele>1516.4</ele>
        <time>2019-09-04T11:01:20Z</time>
      </trkpt>
      <trkpt lat="43.0627690" lon="-6.0119940">
        <ele>1514.9</ele>
        <time>2019-09-04T11:01:22Z</time>
      </trkpt>
      <trkpt lat="43.0627330" lon="-6.0122270">
        <ele>1513.3</ele>
        <time>2019-09-04T11:01:24Z</time>
      </trkpt>
      <trkpt lat="43.0626510" lon="-6.0124570">
        <ele>1512.1</ele>
        <time>2019-09-04T11:01:26Z</time>
      </trkpt>
      <trkpt lat="43.0625430" lon="-6.0126800">
        <ele>1510.7</ele>
        <time>2019-09-04T11:01:28Z</time>
      </trkpt>
      <trkpt lat="43.0624310" lon="-6.0129080">
        <ele>1508.9</ele>
        <time>2019-09-04T11:01:30Z</time>
      </trkpt>
      <trkpt lat="43.0623800" lon="-6.0130260">
        <ele>1508.9</ele>
        <time>2019-09-04T11:01:31Z</time>
      </trkpt>
      <trkpt lat="43.0622570" lon="-6.0132710">
        <ele>1506.9</ele>
        <time>2019-09-04T11:01:33Z</time>
      </trkpt>
      <trkpt lat="43.0621850" lon="-6.0133940">
        <ele>1505.4</ele>
        <time>2019-09-04T11:01:34Z</time>
      </trkpt>
      <trkpt lat="43.0620420" lon="-6.0136230">
        <ele>1503.7</ele>
        <time>2019-09-04T11:01:36Z</time>
      </trkpt>
      <trkpt lat="43.0618980" lon="-6.0138170">
        <ele>1501.8</ele>
        <time>2019-09-04T11:01:38Z</time>
      </trkpt>
      <trkpt lat="43.0617340" lon="-6.0139740">
        <ele>1499.9</ele>
        <time>2019-09-04T11:01:40Z</time>
      </trkpt>
      <trkpt lat="43.0616470" lon="-6.0140340">
        <ele>1499.9</ele>
        <time>2019-09-04T11:01:41Z</time>
      </trkpt>
      <trkpt lat="43.0615550" lon="-6.0140810">
        <ele>1499.9</ele>
        <time>2019-09-04T11:01:42Z</time>
      </trkpt>
      <trkpt lat="43.0614630" lon="-6.0141150">
        <ele>1498.3</ele>
        <time>2019-09-04T11:01:43Z</time>
      </trkpt>
      <trkpt lat="43.0613560" lon="-6.0141450">
        <ele>1498.3</ele>
        <time>2019-09-04T11:01:44Z</time>
      </trkpt>
      <trkpt lat="43.0611510" lon="-6.0142020">
        <ele>1496.7</ele>
        <time>2019-09-04T11:01:46Z</time>
      </trkpt>
      <trkpt lat="43.0610330" lon="-6.0142370">
        <ele>1496.7</ele>
        <time>2019-09-04T11:01:47Z</time>
      </trkpt>
      <trkpt lat="43.0608030" lon="-6.0143120">
        <ele>1495.3</ele>
        <time>2019-09-04T11:01:49Z</time>
      </trkpt>
      <trkpt lat="43.0606900" lon="-6.0143480">
        <ele>1493.6</ele>
        <time>2019-09-04T11:01:50Z</time>
      </trkpt>
      <trkpt lat="43.0604700" lon="-6.0144080">
        <ele>1491.6</ele>
        <time>2019-09-04T11:01:52Z</time>
      </trkpt>
      <trkpt lat="43.0602650" lon="-6.0144470">
        <ele>1489.7</ele>
        <time>2019-09-04T11:01:54Z</time>
      </trkpt>
      <trkpt lat="43.0600550" lon="-6.0144390">
        <ele>1488.0</ele>
        <time>2019-09-04T11:01:56Z</time>
      </trkpt>
      <trkpt lat="43.0598710" lon="-6.0143900">
        <ele>1485.9</ele>
        <time>2019-09-04T11:01:58Z</time>
      </trkpt>
      <trkpt lat="43.0597220" lon="-6.0143580">
        <ele>1484.6</ele>
        <time>2019-09-04T11:02:00Z</time>
      </trkpt>
      <trkpt lat="43.0595990" lon="-6.0144490">
        <ele>1482.7</ele>
        <time>2019-09-04T11:02:02Z</time>
      </trkpt>
      <trkpt lat="43.0595890" lon="-6.0145070">
        <ele>1481.5</ele>
        <time>2019-09-04T11:02:03Z</time>
      </trkpt>
      <trkpt lat="43.0595530" lon="-6.0146500">
        <ele>1481.5</ele>
        <time>2019-09-04T11:02:05Z</time>
      </trkpt>
      <trkpt lat="43.0594760" lon="-6.0148520">
        <ele>1480.1</ele>
        <time>2019-09-04T11:02:07Z</time>
      </trkpt>
      <trkpt lat="43.0594050" lon="-6.0150800">
        <ele>1478.9</ele>
        <time>2019-09-04T11:02:09Z</time>
      </trkpt>
      <trkpt lat="43.0593740" lon="-6.0151940">
        <ele>1477.6</ele>
        <time>2019-09-04T11:02:10Z</time>
      </trkpt>
      <trkpt lat="43.0592970" lon="-6.0154270">
        <ele>1476.2</ele>
        <time>2019-09-04T11:02:12Z</time>
      </trkpt>
      <trkpt lat="43.0592510" lon="-6.0155420">
        <ele>1476.2</ele>
        <time>2019-09-04T11:02:13Z</time>
      </trkpt>
      <trkpt lat="43.0591490" lon="-6.0157790">
        <ele>1474.9</ele>
        <time>2019-09-04T11:02:15Z</time>
      </trkpt>
      <trkpt lat="43.0590460" lon="-6.0159990">
        <ele>1472.9</ele>
        <time>2019-09-04T11:02:17Z</time>
      </trkpt>
      <trkpt lat="43.0589850" lon="-6.0162070">
        <ele>1471.0</ele>
        <time>2019-09-04T11:02:19Z</time>
      </trkpt>
      <trkpt lat="43.0589700" lon="-6.0164270">
        <ele>1469.3</ele>
        <time>2019-09-04T11:02:21Z</time>
      </trkpt>
      <trkpt lat="43.0589700" lon="-6.0166520">
        <ele>1467.3</ele>
        <time>2019-09-04T11:02:23Z</time>
      </trkpt>
      <trkpt lat="43.0589490" lon="-6.0168830">
        <ele>1465.7</ele>
        <time>2019-09-04T11:02:25Z</time>
      </trkpt>
      <trkpt lat="43.0589080" lon="-6.0171010">
        <ele>1464.2</ele>
        <time>2019-09-04T11:02:27Z</time>
      </trkpt>
      <trkpt lat="43.0588980" lon="-6.0172980">
        <ele>1462.6</ele>
        <time>2019-09-04T11:02:29Z</time>
      </trkpt>
      <trkpt lat="43.0589640" lon="-6.0174720">
        <ele>1461.3</ele>
        <time>2019-09-04T11:02:31Z</time>
      </trkpt>
      <trkpt lat="43.0590670" lon="-6.0176250">
        <ele>1460.0</ele>
        <time>2019-09-04T11:02:33Z</time>
      </trkpt>
      <trkpt lat="43.0592100" lon="-6.0177680">
        <ele>1458.5</ele>
        <time>2019-09-04T11:02:35Z</time>
      </trkpt>
      <trkpt lat="43.0593740" lon="-6.0178950">
        <ele>1457.0</ele>
        <time>2019-09-04T11:02:37Z</time>
      </trkpt>
      <trkpt lat="43.0595640" lon="-6.0180080">
        <ele>1455.4</ele>
        <time>2019-09-04T11:02:39Z</time>
      </trkpt>
      <trkpt lat="43.0596560" lon="-6.0180490">
        <ele>1455.4</ele>
        <time>2019-09-04T11:02:40Z</time>
      </trkpt>
      <trkpt lat="43.0598500" lon="-6.0180860">
        <ele>1453.9</ele>
        <time>2019-09-04T11:02:42Z</time>
      </trkpt>
      <trkpt lat="43.0599420" lon="-6.0180860">
        <ele>1452.6</ele>
        <time>2019-09-04T11:02:43Z</time>
      </trkpt>
      <trkpt lat="43.0601270" lon="-6.0180830">
        <ele>1450.9</ele>
        <time>2019-09-04T11:02:45Z</time>
      </trkpt>
      <trkpt lat="43.0603210" lon="-6.0181170">
        <ele>1449.8</ele>
        <time>2019-09-04T11:02:47Z</time>
      </trkpt>
      <trkpt lat="43.0605260" lon="-6.0182060">
        <ele>1449.8</ele>
        <time>2019-09-04T11:02:49Z</time>
      </trkpt>
      <trkpt lat="43.0606280" lon="-6.0182670">
        <ele>1447.9</ele>
        <time>2019-09-04T11:02:50Z</time>
      </trkpt>
      <trkpt lat="43.0608180" lon="-6.0184040">
        <ele>1446.2</ele>
        <time>2019-09-04T11:02:52Z</time>
      </trkpt>
      <trkpt lat="43.0610180" lon="-6.0185570">
        <ele>1444.9</ele>
        <time>2019-09-04T11:02:54Z</time>
      </trkpt>
      <trkpt lat="43.0611810" lon="-6.0187170">
        <ele>1442.8</ele>
        <time>2019-09-04T11:02:56Z</time>
      </trkpt>
      <trkpt lat="43.0613350" lon="-6.0188950">
        <ele>1440.9</ele>
        <time>2019-09-04T11:02:58Z</time>
      </trkpt>
      <trkpt lat="43.0614680" lon="-6.0190470">
        <ele>1440.9</ele>
        <time>2019-09-04T11:03:00Z</time>
      </trkpt>
      <trkpt lat="43.0616170" lon="-6.0191970">
        <ele>1440.9</ele>
        <time>2019-09-04T11:03:02Z</time>
      </trkpt>
      <trkpt lat="43.0617600" lon="-6.0193720">
        <ele>1440.9</ele>
        <time>2019-09-04T11:03:04Z</time>
      </trkpt>
      <trkpt lat="43.0618730" lon="-6.0195630">
        <ele>1440.9</ele>
        <time>2019-09-04T11:03:06Z</time>
      </trkpt>
      <trkpt lat="43.0619550" lon="-6.0197930">
        <ele>1440.9</ele>
        <time>2019-09-04T11:03:08Z</time>
      </trkpt>
      <trkpt lat="43.0620160" lon="-6.0200570">
        <ele>1435.7</ele>
        <time>2019-09-04T11:03:10Z</time>
      </trkpt>
      <trkpt lat="43.0620980" lon="-6.0203240">
        <ele>1431.9</ele>
        <time>2019-09-04T11:03:12Z</time>
      </trkpt>
      <trkpt lat="43.0621390" lon="-6.0204560">
        <ele>1430.1</ele>
        <time>2019-09-04T11:03:13Z</time>
      </trkpt>
      <trkpt lat="43.0621950" lon="-6.0205760">
        <ele>1428.4</ele>
        <time>2019-09-04T11:03:14Z</time>
      </trkpt>
      <trkpt lat="43.0622460" lon="-6.0206840">
        <ele>1427.0</ele>
        <time>2019-09-04T11:03:15Z</time>
      </trkpt>
      <trkpt lat="43.0623030" lon="-6.0207730">
        <ele>1427.0</ele>
        <time>2019-09-04T11:03:16Z</time>
      </trkpt>
      <trkpt lat="43.0624360" lon="-6.0208920">
        <ele>1423.3</ele>
        <time>2019-09-04T11:03:18Z</time>
      </trkpt>
      <trkpt lat="43.0625180" lon="-6.0209250">
        <ele>1423.3</ele>
        <time>2019-09-04T11:03:19Z</time>
      </trkpt>
      <trkpt lat="43.0626820" lon="-6.0209500">
        <ele>1421.3</ele>
        <time>2019-09-04T11:03:21Z</time>
      </trkpt>
      <trkpt lat="43.0627640" lon="-6.0209340">
        <ele>1419.5</ele>
        <time>2019-09-04T11:03:22Z</time>
      </trkpt>
      <trkpt lat="43.0628400" lon="-6.0209000">
        <ele>1419.5</ele>
        <time>2019-09-04T11:03:23Z</time>
      </trkpt>
      <trkpt lat="43.0629790" lon="-6.0207510">
        <ele>1417.9</ele>
        <time>2019-09-04T11:03:25Z</time>
      </trkpt>
      <trkpt lat="43.0631010" lon="-6.0205630">
        <ele>1416.3</ele>
        <time>2019-09-04T11:03:27Z</time>
      </trkpt>
      <trkpt lat="43.0632350" lon="-6.0203490">
        <ele>1414.9</ele>
        <time>2019-09-04T11:03:29Z</time>
      </trkpt>
      <trkpt lat="43.0633060" lon="-6.0202630">
        <ele>1413.3</ele>
        <time>2019-09-04T11:03:30Z</time>
      </trkpt>
      <trkpt lat="43.0634750" lon="-6.0201370">
        <ele>1411.3</ele>
        <time>2019-09-04T11:03:32Z</time>
      </trkpt>
      <trkpt lat="43.0636540" lon="-6.0200660">
        <ele>1409.3</ele>
        <time>2019-09-04T11:03:34Z</time>
      </trkpt>
      <trkpt lat="43.0637310" lon="-6.0200560">
        <ele>1409.3</ele>
        <time>2019-09-04T11:03:35Z</time>
      </trkpt>
      <trkpt lat="43.0638640" lon="-6.0201100">
        <ele>1407.5</ele>
        <time>2019-09-04T11:03:37Z</time>
      </trkpt>
      <trkpt lat="43.0639050" lon="-6.0201710">
        <ele>1406.0</ele>
        <time>2019-09-04T11:03:38Z</time>
      </trkpt>
      <trkpt lat="43.0639360" lon="-6.0202490">
        <ele>1406.0</ele>
        <time>2019-09-04T11:03:39Z</time>
      </trkpt>
      <trkpt lat="43.0639460" lon="-6.0204420">
        <ele>1404.9</ele>
        <time>2019-09-04T11:03:41Z</time>
      </trkpt>
      <trkpt lat="43.0639050" lon="-6.0206640">
        <ele>1403.3</ele>
        <time>2019-09-04T11:03:43Z</time>
      </trkpt>
      <trkpt lat="43.0638390" lon="-6.0208880">
        <ele>1401.9</ele>
        <time>2019-09-04T11:03:45Z</time>
      </trkpt>
      <trkpt lat="43.0638130" lon="-6.0209900">
        <ele>1401.9</ele>
        <time>2019-09-04T11:03:46Z</time>
      </trkpt>
      <trkpt lat="43.0637930" lon="-6.0210940">
        <ele>1399.9</ele>
        <time>2019-09-04T11:03:47Z</time>
      </trkpt>
      <trkpt lat="43.0638030" lon="-6.0212730">
        <ele>1398.0</ele>
        <time>2019-09-04T11:03:49Z</time>
      </trkpt>
      <trkpt lat="43.0639100" lon="-6.0213890">
        <ele>1398.0</ele>
        <time>2019-09-04T11:03:51Z</time>
      </trkpt>
      <trkpt lat="43.0639720" lon="-6.0214210">
        <ele>1396.7</ele>
        <time>2019-09-04T11:03:52Z</time>
      </trkpt>
      <trkpt lat="43.0640380" lon="-6.0214440">
        <ele>1396.7</ele>
        <time>2019-09-04T11:03:53Z</time>
      </trkpt>
      <trkpt lat="43.0641920" lon="-6.0214570">
        <ele>1396.7</ele>
        <time>2019-09-04T11:03:55Z</time>
      </trkpt>
      <trkpt lat="43.0643660" lon="-6.0214410">
        <ele>1396.7</ele>
        <time>2019-09-04T11:03:57Z</time>
      </trkpt>
      <trkpt lat="43.0645250" lon="-6.0214440">
        <ele>1395.5</ele>
        <time>2019-09-04T11:03:59Z</time>
      </trkpt>
      <trkpt lat="43.0646580" lon="-6.0215160">
        <ele>1392.3</ele>
        <time>2019-09-04T11:04:01Z</time>
      </trkpt>
      <trkpt lat="43.0647650" lon="-6.0216520">
        <ele>1391.0</ele>
        <time>2019-09-04T11:04:03Z</time>
      </trkpt>
      <trkpt lat="43.0648120" lon="-6.0217360">
        <ele>1388.8</ele>
        <time>2019-09-04T11:04:04Z</time>
      </trkpt>
      <trkpt lat="43.0648580" lon="-6.0218170">
        <ele>1387.5</ele>
        <time>2019-09-04T11:04:05Z</time>
      </trkpt>
      <trkpt lat="43.0649090" lon="-6.0218840">
        <ele>1386.3</ele>
        <time>2019-09-04T11:04:06Z</time>
      </trkpt>
      <trkpt lat="43.0650160" lon="-6.0219350">
        <ele>1384.5</ele>
        <time>2019-09-04T11:04:08Z</time>
      </trkpt>
      <trkpt lat="43.0651390" lon="-6.0219390">
        <ele>1383.1</ele>
        <time>2019-09-04T11:04:10Z</time>
      </trkpt>
      <trkpt lat="43.0652880" lon="-6.0219480">
        <ele>1381.9</ele>
        <time>2019-09-04T11:04:12Z</time>
      </trkpt>
      <trkpt lat="43.0653950" lon="-6.0219760">
        <ele>1381.9</ele>
        <time>2019-09-04T11:04:13Z</time>
      </trkpt>
      <trkpt lat="43.0655900" lon="-6.0220650">
        <ele>1380.4</ele>
        <time>2019-09-04T11:04:15Z</time>
      </trkpt>
      <trkpt lat="43.0657790" lon="-6.0221950">
        <ele>1379.2</ele>
        <time>2019-09-04T11:04:17Z</time>
      </trkpt>
      <trkpt lat="43.0659580" lon="-6.0223430">
        <ele>1377.9</ele>
        <time>2019-09-04T11:04:19Z</time>
      </trkpt>
      <trkpt lat="43.0660610" lon="-6.0224250">
        <ele>1377.9</ele>
        <time>2019-09-04T11:04:20Z</time>
      </trkpt>
      <trkpt lat="43.0662710" lon="-6.0225970">
        <ele>1376.3</ele>
        <time>2019-09-04T11:04:22Z</time>
      </trkpt>
      <trkpt lat="43.0664700" lon="-6.0227760">
        <ele>1373.9</ele>
        <time>2019-09-04T11:04:24Z</time>
      </trkpt>
      <trkpt lat="43.0666500" lon="-6.0229580">
        <ele>1372.4</ele>
        <time>2019-09-04T11:04:26Z</time>
      </trkpt>
      <trkpt lat="43.0667260" lon="-6.0230560">
        <ele>1372.4</ele>
        <time>2019-09-04T11:04:27Z</time>
      </trkpt>
      <trkpt lat="43.0667930" lon="-6.0231530">
        <ele>1372.4</ele>
        <time>2019-09-04T11:04:28Z</time>
      </trkpt>
      <trkpt lat="43.0669060" lon="-6.0233920">
        <ele>1369.7</ele>
        <time>2019-09-04T11:04:30Z</time>
      </trkpt>
      <trkpt lat="43.0670030" lon="-6.0236520">
        <ele>1367.7</ele>
        <time>2019-09-04T11:04:32Z</time>
      </trkpt>
      <trkpt lat="43.0671050" lon="-6.0239280">
        <ele>1365.1</ele>
        <time>2019-09-04T11:04:34Z</time>
      </trkpt>
      <trkpt lat="43.0671970" lon="-6.0241940">
        <ele>1362.5</ele>
        <time>2019-09-04T11:04:36Z</time>
      </trkpt>
      <trkpt lat="43.0672840" lon="-6.0244340">
        <ele>1360.4</ele>
        <time>2019-09-04T11:04:38Z</time>
      </trkpt>
      <trkpt lat="43.0674070" lon="-6.0246780">
        <ele>1358.6</ele>
        <time>2019-09-04T11:04:40Z</time>
      </trkpt>
      <trkpt lat="43.0675350" lon="-6.0248950">
        <ele>1356.3</ele>
        <time>2019-09-04T11:04:42Z</time>
      </trkpt>
      <trkpt lat="43.0676580" lon="-6.0250640">
        <ele>1353.6</ele>
        <time>2019-09-04T11:04:44Z</time>
      </trkpt>
      <trkpt lat="43.0678020" lon="-6.0251360">
        <ele>1352.1</ele>
        <time>2019-09-04T11:04:46Z</time>
      </trkpt>
      <trkpt lat="43.0679600" lon="-6.0251210">
        <ele>1352.1</ele>
        <time>2019-09-04T11:04:48Z</time>
      </trkpt>
      <trkpt lat="43.0680520" lon="-6.0250890">
        <ele>1352.1</ele>
        <time>2019-09-04T11:04:49Z</time>
      </trkpt>
      <trkpt lat="43.0682320" lon="-6.0250060">
        <ele>1350.8</ele>
        <time>2019-09-04T11:04:51Z</time>
      </trkpt>
      <trkpt lat="43.0683340" lon="-6.0249630">
        <ele>1350.8</ele>
        <time>2019-09-04T11:04:52Z</time>
      </trkpt>
      <trkpt lat="43.0685340" lon="-6.0248980">
        <ele>1350.8</ele>
        <time>2019-09-04T11:04:54Z</time>
      </trkpt>
      <trkpt lat="43.0687540" lon="-6.0248560">
        <ele>1349.4</ele>
        <time>2019-09-04T11:04:56Z</time>
      </trkpt>
      <trkpt lat="43.0688610" lon="-6.0248390">
        <ele>1347.5</ele>
        <time>2019-09-04T11:04:57Z</time>
      </trkpt>
      <trkpt lat="43.0690760" lon="-6.0248220">
        <ele>1344.9</ele>
        <time>2019-09-04T11:04:59Z</time>
      </trkpt>
      <trkpt lat="43.0691840" lon="-6.0248280">
        <ele>1343.8</ele>
        <time>2019-09-04T11:05:00Z</time>
      </trkpt>
      <trkpt lat="43.0694090" lon="-6.0248840">
        <ele>1342.1</ele>
        <time>2019-09-04T11:05:02Z</time>
      </trkpt>
      <trkpt lat="43.0696090" lon="-6.0249880">
        <ele>1339.6</ele>
        <time>2019-09-04T11:05:04Z</time>
      </trkpt>
      <trkpt lat="43.0697880" lon="-6.0251330">
        <ele>1338.4</ele>
        <time>2019-09-04T11:05:06Z</time>
      </trkpt>
      <trkpt lat="43.0699320" lon="-6.0253230">
        <ele>1336.3</ele>
        <time>2019-09-04T11:05:08Z</time>
      </trkpt>
      <trkpt lat="43.0700290" lon="-6.0255420">
        <ele>1334.3</ele>
        <time>2019-09-04T11:05:10Z</time>
      </trkpt>
      <trkpt lat="43.0700850" lon="-6.0258040">
        <ele>1332.5</ele>
        <time>2019-09-04T11:05:12Z</time>
      </trkpt>
      <trkpt lat="43.0701110" lon="-6.0260480">
        <ele>1330.3</ele>
        <time>2019-09-04T11:05:14Z</time>
      </trkpt>
      <trkpt lat="43.0701570" lon="-6.0263040">
        <ele>1328.7</ele>
        <time>2019-09-04T11:05:16Z</time>
      </trkpt>
      <trkpt lat="43.0702180" lon="-6.0265540">
        <ele>1327.2</ele>
        <time>2019-09-04T11:05:18Z</time>
      </trkpt>
      <trkpt lat="43.0702950" lon="-6.0268060">
        <ele>1325.6</ele>
        <time>2019-09-04T11:05:20Z</time>
      </trkpt>
      <trkpt lat="43.0703360" lon="-6.0269290">
        <ele>1325.6</ele>
        <time>2019-09-04T11:05:21Z</time>
      </trkpt>
      <trkpt lat="43.0704130" lon="-6.0271620">
        <ele>1322.4</ele>
        <time>2019-09-04T11:05:23Z</time>
      </trkpt>
      <trkpt lat="43.0704840" lon="-6.0273840">
        <ele>1320.0</ele>
        <time>2019-09-04T11:05:25Z</time>
      </trkpt>
      <trkpt lat="43.0705360" lon="-6.0276020">
        <ele>1317.9</ele>
        <time>2019-09-04T11:05:27Z</time>
      </trkpt>
      <trkpt lat="43.0705970" lon="-6.0278070">
        <ele>1316.1</ele>
        <time>2019-09-04T11:05:29Z</time>
      </trkpt>
      <trkpt lat="43.0706430" lon="-6.0278870">
        <ele>1316.1</ele>
        <time>2019-09-04T11:05:30Z</time>
      </trkpt>
      <trkpt lat="43.0707000" lon="-6.0279500">
        <ele>1314.9</ele>
        <time>2019-09-04T11:05:31Z</time>
      </trkpt>
      <trkpt lat="43.0708430" lon="-6.0280400">
        <ele>1314.9</ele>
        <time>2019-09-04T11:05:33Z</time>
      </trkpt>
      <trkpt lat="43.0710020" lon="-6.0281370">
        <ele>1313.5</ele>
        <time>2019-09-04T11:05:35Z</time>
      </trkpt>
      <trkpt lat="43.0711450" lon="-6.0282520">
        <ele>1312.2</ele>
        <time>2019-09-04T11:05:37Z</time>
      </trkpt>
      <trkpt lat="43.0712830" lon="-6.0283550">
        <ele>1310.9</ele>
        <time>2019-09-04T11:05:39Z</time>
      </trkpt>
      <trkpt lat="43.0714370" lon="-6.0284480">
        <ele>1309.5</ele>
        <time>2019-09-04T11:05:41Z</time>
      </trkpt>
      <trkpt lat="43.0715960" lon="-6.0285370">
        <ele>1308.1</ele>
        <time>2019-09-04T11:05:43Z</time>
      </trkpt>
      <trkpt lat="43.0717590" lon="-6.0286230">
        <ele>1306.6</ele>
        <time>2019-09-04T11:05:45Z</time>
      </trkpt>
      <trkpt lat="43.0719180" lon="-6.0286870">
        <ele>1306.6</ele>
        <time>2019-09-04T11:05:47Z</time>
      </trkpt>
      <trkpt lat="43.0720920" lon="-6.0287360">
        <ele>1304.9</ele>
        <time>2019-09-04T11:05:49Z</time>
      </trkpt>
      <trkpt lat="43.0722710" lon="-6.0288100">
        <ele>1303.8</ele>
        <time>2019-09-04T11:05:51Z</time>
      </trkpt>
      <trkpt lat="43.0724660" lon="-6.0288800">
        <ele>1302.5</ele>
        <time>2019-09-04T11:05:53Z</time>
      </trkpt>
      <trkpt lat="43.0726660" lon="-6.0289310">
        <ele>1302.5</ele>
        <time>2019-09-04T11:05:55Z</time>
      </trkpt>
      <trkpt lat="43.0727680" lon="-6.0289560">
        <ele>1301.3</ele>
        <time>2019-09-04T11:05:56Z</time>
      </trkpt>
      <trkpt lat="43.0728700" lon="-6.0289820">
        <ele>1301.3</ele>
        <time>2019-09-04T11:05:57Z</time>
      </trkpt>
      <trkpt lat="43.0730800" lon="-6.0290460">
        <ele>1301.3</ele>
        <time>2019-09-04T11:05:59Z</time>
      </trkpt>
      <trkpt lat="43.0732950" lon="-6.0291270">
        <ele>1301.3</ele>
        <time>2019-09-04T11:06:01Z</time>
      </trkpt>
      <trkpt lat="43.0734850" lon="-6.0292430">
        <ele>1298.9</ele>
        <time>2019-09-04T11:06:03Z</time>
      </trkpt>
      <trkpt lat="43.0735720" lon="-6.0293250">
        <ele>1297.2</ele>
        <time>2019-09-04T11:06:04Z</time>
      </trkpt>
      <trkpt lat="43.0737200" lon="-6.0295040">
        <ele>1294.5</ele>
        <time>2019-09-04T11:06:06Z</time>
      </trkpt>
      <trkpt lat="43.0737870" lon="-6.0295960">
        <ele>1292.9</ele>
        <time>2019-09-04T11:06:07Z</time>
      </trkpt>
      <trkpt lat="43.0739050" lon="-6.0297890">
        <ele>1290.0</ele>
        <time>2019-09-04T11:06:09Z</time>
      </trkpt>
      <trkpt lat="43.0739970" lon="-6.0299810">
        <ele>1288.7</ele>
        <time>2019-09-04T11:06:11Z</time>
      </trkpt>
      <trkpt lat="43.0740740" lon="-6.0301640">
        <ele>1286.6</ele>
        <time>2019-09-04T11:06:13Z</time>
      </trkpt>
      <trkpt lat="43.0741250" lon="-6.0303340">
        <ele>1284.7</ele>
        <time>2019-09-04T11:06:15Z</time>
      </trkpt>
      <trkpt lat="43.0741500" lon="-6.0305070">
        <ele>1283.2</ele>
        <time>2019-09-04T11:06:17Z</time>
      </trkpt>
      <trkpt lat="43.0741960" lon="-6.0306910">
        <ele>1281.9</ele>
        <time>2019-09-04T11:06:19Z</time>
      </trkpt>
      <trkpt lat="43.0742480" lon="-6.0308740">
        <ele>1280.8</ele>
        <time>2019-09-04T11:06:21Z</time>
      </trkpt>
      <trkpt lat="43.0743190" lon="-6.0310640">
        <ele>1279.3</ele>
        <time>2019-09-04T11:06:23Z</time>
      </trkpt>
      <trkpt lat="43.0743550" lon="-6.0311780">
        <ele>1279.3</ele>
        <time>2019-09-04T11:06:24Z</time>
      </trkpt>
      <trkpt lat="43.0744580" lon="-6.0314070">
        <ele>1277.9</ele>
        <time>2019-09-04T11:06:26Z</time>
      </trkpt>
      <trkpt lat="43.0745450" lon="-6.0315990">
        <ele>1276.2</ele>
        <time>2019-09-04T11:06:28Z</time>
      </trkpt>
      <trkpt lat="43.0746010" lon="-6.0317930">
        <ele>1274.6</ele>
        <time>2019-09-04T11:06:30Z</time>
      </trkpt>
      <trkpt lat="43.0746060" lon="-6.0318990">
        <ele>1274.6</ele>
        <time>2019-09-04T11:06:31Z</time>
      </trkpt>
      <trkpt lat="43.0745750" lon="-6.0320900">
        <ele>1273.2</ele>
        <time>2019-09-04T11:06:33Z</time>
      </trkpt>
      <trkpt lat="43.0744990" lon="-6.0322720">
        <ele>1271.7</ele>
        <time>2019-09-04T11:06:35Z</time>
      </trkpt>
      <trkpt lat="43.0744270" lon="-6.0324540">
        <ele>1271.7</ele>
        <time>2019-09-04T11:06:37Z</time>
      </trkpt>
      <trkpt lat="43.0743910" lon="-6.0326570">
        <ele>1270.4</ele>
        <time>2019-09-04T11:06:39Z</time>
      </trkpt>
      <trkpt lat="43.0743910" lon="-6.0327580">
        <ele>1269.0</ele>
        <time>2019-09-04T11:06:40Z</time>
      </trkpt>
      <trkpt lat="43.0744320" lon="-6.0329470">
        <ele>1267.9</ele>
        <time>2019-09-04T11:06:42Z</time>
      </trkpt>
      <trkpt lat="43.0745290" lon="-6.0331060">
        <ele>1267.9</ele>
        <time>2019-09-04T11:06:44Z</time>
      </trkpt>
      <trkpt lat="43.0746730" lon="-6.0332060">
        <ele>1266.0</ele>
        <time>2019-09-04T11:06:46Z</time>
      </trkpt>
      <trkpt lat="43.0748360" lon="-6.0332610">
        <ele>1264.8</ele>
        <time>2019-09-04T11:06:48Z</time>
      </trkpt>
      <trkpt lat="43.0750160" lon="-6.0333200">
        <ele>1263.3</ele>
        <time>2019-09-04T11:06:50Z</time>
      </trkpt>
      <trkpt lat="43.0752100" lon="-6.0333960">
        <ele>1262.1</ele>
        <time>2019-09-04T11:06:52Z</time>
      </trkpt>
      <trkpt lat="43.0754000" lon="-6.0334570">
        <ele>1260.9</ele>
        <time>2019-09-04T11:06:54Z</time>
      </trkpt>
      <trkpt lat="43.0756040" lon="-6.0335040">
        <ele>1259.1</ele>
        <time>2019-09-04T11:06:56Z</time>
      </trkpt>
      <trkpt lat="43.0757890" lon="-6.0335290">
        <ele>1257.3</ele>
        <time>2019-09-04T11:06:58Z</time>
      </trkpt>
      <trkpt lat="43.0759730" lon="-6.0335210">
        <ele>1255.3</ele>
        <time>2019-09-04T11:07:00Z</time>
      </trkpt>
      <trkpt lat="43.0761520" lon="-6.0335030">
        <ele>1253.9</ele>
        <time>2019-09-04T11:07:02Z</time>
      </trkpt>
      <trkpt lat="43.0763320" lon="-6.0334890">
        <ele>1251.9</ele>
        <time>2019-09-04T11:07:04Z</time>
      </trkpt>
      <trkpt lat="43.0764190" lon="-6.0334940">
        <ele>1251.9</ele>
        <time>2019-09-04T11:07:05Z</time>
      </trkpt>
      <trkpt lat="43.0765570" lon="-6.0335480">
        <ele>1250.1</ele>
        <time>2019-09-04T11:07:07Z</time>
      </trkpt>
      <trkpt lat="43.0766180" lon="-6.0336040">
        <ele>1248.8</ele>
        <time>2019-09-04T11:07:08Z</time>
      </trkpt>
      <trkpt lat="43.0767100" lon="-6.0337610">
        <ele>1247.6</ele>
        <time>2019-09-04T11:07:10Z</time>
      </trkpt>
      <trkpt lat="43.0767920" lon="-6.0339730">
        <ele>1248.2</ele>
        <time>2019-09-04T11:07:12Z</time>
      </trkpt>
      <trkpt lat="43.0768230" lon="-6.0340930">
        <ele>1248.2</ele>
        <time>2019-09-04T11:07:13Z</time>
      </trkpt>
      <trkpt lat="43.0768490" lon="-6.0342110">
        <ele>1246.8</ele>
        <time>2019-09-04T11:07:14Z</time>
      </trkpt>
      <trkpt lat="43.0769000" lon="-6.0344870">
        <ele>1245.6</ele>
        <time>2019-09-04T11:07:16Z</time>
      </trkpt>
      <trkpt lat="43.0769510" lon="-6.0347670">
        <ele>1243.7</ele>
        <time>2019-09-04T11:07:18Z</time>
      </trkpt>
      <trkpt lat="43.0769920" lon="-6.0350340">
        <ele>1241.5</ele>
        <time>2019-09-04T11:07:20Z</time>
      </trkpt>
      <trkpt lat="43.0770230" lon="-6.0352650">
        <ele>1239.5</ele>
        <time>2019-09-04T11:07:22Z</time>
      </trkpt>
      <trkpt lat="43.0770740" lon="-6.0354670">
        <ele>1237.8</ele>
        <time>2019-09-04T11:07:24Z</time>
      </trkpt>
      <trkpt lat="43.0771460" lon="-6.0355990">
        <ele>1237.8</ele>
        <time>2019-09-04T11:07:26Z</time>
      </trkpt>
      <trkpt lat="43.0772170" lon="-6.0356570">
        <ele>1236.6</ele>
        <time>2019-09-04T11:07:28Z</time>
      </trkpt>
      <trkpt lat="43.0772890" lon="-6.0356670">
        <ele>1236.6</ele>
        <time>2019-09-04T11:07:30Z</time>
      </trkpt>
      <trkpt lat="43.0773760" lon="-6.0355940">
        <ele>1236.6</ele>
        <time>2019-09-04T11:07:32Z</time>
      </trkpt>
      <trkpt lat="43.0775090" lon="-6.0353380">
        <ele>1236.6</ele>
        <time>2019-09-04T11:07:34Z</time>
      </trkpt>
      <trkpt lat="43.0776120" lon="-6.0351120">
        <ele>1236.6</ele>
        <time>2019-09-04T11:07:36Z</time>
      </trkpt>
      <trkpt lat="43.0777040" lon="-6.0348920">
        <ele>1235.3</ele>
        <time>2019-09-04T11:07:38Z</time>
      </trkpt>
      <trkpt lat="43.0777450" lon="-6.0347750">
        <ele>1235.3</ele>
        <time>2019-09-04T11:07:39Z</time>
      </trkpt>
      <trkpt lat="43.0778010" lon="-6.0345430">
        <ele>1235.3</ele>
        <time>2019-09-04T11:07:41Z</time>
      </trkpt>
      <trkpt lat="43.0778060" lon="-6.0344200">
        <ele>1233.5</ele>
        <time>2019-09-04T11:07:42Z</time>
      </trkpt>
      <trkpt lat="43.0778160" lon="-6.0341740">
        <ele>1233.5</ele>
        <time>2019-09-04T11:07:44Z</time>
      </trkpt>
      <trkpt lat="43.0778270" lon="-6.0340510">
        <ele>1231.8</ele>
        <time>2019-09-04T11:07:45Z</time>
      </trkpt>
      <trkpt lat="43.0778730" lon="-6.0338120">
        <ele>1231.8</ele>
        <time>2019-09-04T11:07:47Z</time>
      </trkpt>
      <trkpt lat="43.0779600" lon="-6.0335710">
        <ele>1230.5</ele>
        <time>2019-09-04T11:07:49Z</time>
      </trkpt>
      <trkpt lat="43.0780010" lon="-6.0334430">
        <ele>1230.5</ele>
        <time>2019-09-04T11:07:50Z</time>
      </trkpt>
      <trkpt lat="43.0780470" lon="-6.0333130">
        <ele>1229.3</ele>
        <time>2019-09-04T11:07:51Z</time>
      </trkpt>
      <trkpt lat="43.0780880" lon="-6.0331790">
        <ele>1229.3</ele>
        <time>2019-09-04T11:07:52Z</time>
      </trkpt>
      <trkpt lat="43.0781240" lon="-6.0330420">
        <ele>1227.8</ele>
        <time>2019-09-04T11:07:53Z</time>
      </trkpt>
      <trkpt lat="43.0781640" lon="-6.0327570">
        <ele>1225.9</ele>
        <time>2019-09-04T11:07:55Z</time>
      </trkpt>
      <trkpt lat="43.0781800" lon="-6.0326170">
        <ele>1225.9</ele>
        <time>2019-09-04T11:07:56Z</time>
      </trkpt>
      <trkpt lat="43.0781800" lon="-6.0323100">
        <ele>1224.1</ele>
        <time>2019-09-04T11:07:58Z</time>
      </trkpt>
      <trkpt lat="43.0781700" lon="-6.0321490">
        <ele>1222.6</ele>
        <time>2019-09-04T11:07:59Z</time>
      </trkpt>
      <trkpt lat="43.0781540" lon="-6.0319900">
        <ele>1222.6</ele>
        <time>2019-09-04T11:08:00Z</time>
      </trkpt>
      <trkpt lat="43.0781340" lon="-6.0318320">
        <ele>1220.8</ele>
        <time>2019-09-04T11:08:01Z</time>
      </trkpt>
      <trkpt lat="43.0781030" lon="-6.0316840">
        <ele>1220.8</ele>
        <time>2019-09-04T11:08:02Z</time>
      </trkpt>
      <trkpt lat="43.0780670" lon="-6.0315220">
        <ele>1219.0</ele>
        <time>2019-09-04T11:08:03Z</time>
      </trkpt>
      <trkpt lat="43.0779850" lon="-6.0311990">
        <ele>1217.0</ele>
        <time>2019-09-04T11:08:05Z</time>
      </trkpt>
      <trkpt lat="43.0779490" lon="-6.0310440">
        <ele>1217.0</ele>
        <time>2019-09-04T11:08:06Z</time>
      </trkpt>
      <trkpt lat="43.0779140" lon="-6.0309030">
        <ele>1214.5</ele>
        <time>2019-09-04T11:08:07Z</time>
      </trkpt>
      <trkpt lat="43.0778830" lon="-6.0307590">
        <ele>1214.5</ele>
        <time>2019-09-04T11:08:08Z</time>
      </trkpt>
      <trkpt lat="43.0778520" lon="-6.0306230">
        <ele>1212.4</ele>
        <time>2019-09-04T11:08:09Z</time>
      </trkpt>
      <trkpt lat="43.0778060" lon="-6.0303520">
        <ele>1210.9</ele>
        <time>2019-09-04T11:08:11Z</time>
      </trkpt>
      <trkpt lat="43.0777960" lon="-6.0300990">
        <ele>1210.9</ele>
        <time>2019-09-04T11:08:13Z</time>
      </trkpt>
      <trkpt lat="43.0778320" lon="-6.0298670">
        <ele>1208.8</ele>
        <time>2019-09-04T11:08:15Z</time>
      </trkpt>
      <trkpt lat="43.0778680" lon="-6.0297710">
        <ele>1207.0</ele>
        <time>2019-09-04T11:08:16Z</time>
      </trkpt>
      <trkpt lat="43.0779850" lon="-6.0296280">
        <ele>1205.8</ele>
        <time>2019-09-04T11:08:18Z</time>
      </trkpt>
      <trkpt lat="43.0780570" lon="-6.0295840">
        <ele>1205.8</ele>
        <time>2019-09-04T11:08:19Z</time>
      </trkpt>
      <trkpt lat="43.0781540" lon="-6.0295900">
        <ele>1205.8</ele>
        <time>2019-09-04T11:08:20Z</time>
      </trkpt>
      <trkpt lat="43.0783440" lon="-6.0296280">
        <ele>1204.0</ele>
        <time>2019-09-04T11:08:22Z</time>
      </trkpt>
      <trkpt lat="43.0784360" lon="-6.0296610">
        <ele>1204.0</ele>
        <time>2019-09-04T11:08:23Z</time>
      </trkpt>
      <trkpt lat="43.0785280" lon="-6.0296960">
        <ele>1202.6</ele>
        <time>2019-09-04T11:08:24Z</time>
      </trkpt>
      <trkpt lat="43.0787380" lon="-6.0297820">
        <ele>1201.0</ele>
        <time>2019-09-04T11:08:26Z</time>
      </trkpt>
      <trkpt lat="43.0789530" lon="-6.0298160">
        <ele>1199.7</ele>
        <time>2019-09-04T11:08:28Z</time>
      </trkpt>
      <trkpt lat="43.0790660" lon="-6.0298190">
        <ele>1199.7</ele>
        <time>2019-09-04T11:08:29Z</time>
      </trkpt>
      <trkpt lat="43.0791880" lon="-6.0298140">
        <ele>1197.8</ele>
        <time>2019-09-04T11:08:30Z</time>
      </trkpt>
      <trkpt lat="43.0794240" lon="-6.0297960">
        <ele>1196.3</ele>
        <time>2019-09-04T11:08:32Z</time>
      </trkpt>
      <trkpt lat="43.0796900" lon="-6.0297790">
        <ele>1195.0</ele>
        <time>2019-09-04T11:08:34Z</time>
      </trkpt>
      <trkpt lat="43.0799310" lon="-6.0297880">
        <ele>1193.8</ele>
        <time>2019-09-04T11:08:36Z</time>
      </trkpt>
      <trkpt lat="43.0801560" lon="-6.0298180">
        <ele>1192.3</ele>
        <time>2019-09-04T11:08:38Z</time>
      </trkpt>
      <trkpt lat="43.0802640" lon="-6.0298250">
        <ele>1192.3</ele>
        <time>2019-09-04T11:08:39Z</time>
      </trkpt>
      <trkpt lat="43.0803660" lon="-6.0298160">
        <ele>1191.0</ele>
        <time>2019-09-04T11:08:40Z</time>
      </trkpt>
      <trkpt lat="43.0805500" lon="-6.0297520">
        <ele>1191.0</ele>
        <time>2019-09-04T11:08:42Z</time>
      </trkpt>
      <trkpt lat="43.0807350" lon="-6.0296500">
        <ele>1188.6</ele>
        <time>2019-09-04T11:08:44Z</time>
      </trkpt>
      <trkpt lat="43.0808220" lon="-6.0295970">
        <ele>1187.0</ele>
        <time>2019-09-04T11:08:45Z</time>
      </trkpt>
      <trkpt lat="43.0810110" lon="-6.0294750">
        <ele>1184.5</ele>
        <time>2019-09-04T11:08:47Z</time>
      </trkpt>
      <trkpt lat="43.0812160" lon="-6.0293450">
        <ele>1182.5</ele>
        <time>2019-09-04T11:08:49Z</time>
      </trkpt>
      <trkpt lat="43.0814210" lon="-6.0292290">
        <ele>1180.2</ele>
        <time>2019-09-04T11:08:51Z</time>
      </trkpt>
      <trkpt lat="43.0815280" lon="-6.0291730">
        <ele>1180.2</ele>
        <time>2019-09-04T11:08:52Z</time>
      </trkpt>
      <trkpt lat="43.0816360" lon="-6.0291240">
        <ele>1178.4</ele>
        <time>2019-09-04T11:08:53Z</time>
      </trkpt>
      <trkpt lat="43.0817430" lon="-6.0290850">
        <ele>1178.4</ele>
        <time>2019-09-04T11:08:54Z</time>
      </trkpt>
      <trkpt lat="43.0819690" lon="-6.0290320">
        <ele>1177.0</ele>
        <time>2019-09-04T11:08:56Z</time>
      </trkpt>
      <trkpt lat="43.0822040" lon="-6.0290020">
        <ele>1175.4</ele>
        <time>2019-09-04T11:08:58Z</time>
      </trkpt>
      <trkpt lat="43.0823120" lon="-6.0289920">
        <ele>1174.0</ele>
        <time>2019-09-04T11:08:59Z</time>
      </trkpt>
      <trkpt lat="43.0824290" lon="-6.0289820">
        <ele>1174.0</ele>
        <time>2019-09-04T11:09:00Z</time>
      </trkpt>
      <trkpt lat="43.0825570" lon="-6.0289750">
        <ele>1172.3</ele>
        <time>2019-09-04T11:09:01Z</time>
      </trkpt>
      <trkpt lat="43.0828030" lon="-6.0289590">
        <ele>1170.1</ele>
        <time>2019-09-04T11:09:03Z</time>
      </trkpt>
      <trkpt lat="43.0829160" lon="-6.0289520">
        <ele>1170.1</ele>
        <time>2019-09-04T11:09:04Z</time>
      </trkpt>
      <trkpt lat="43.0831410" lon="-6.0289340">
        <ele>1167.8</ele>
        <time>2019-09-04T11:09:06Z</time>
      </trkpt>
      <trkpt lat="43.0833720" lon="-6.0289130">
        <ele>1165.6</ele>
        <time>2019-09-04T11:09:08Z</time>
      </trkpt>
      <trkpt lat="43.0834790" lon="-6.0289040">
        <ele>1163.8</ele>
        <time>2019-09-04T11:09:09Z</time>
      </trkpt>
      <trkpt lat="43.0835870" lon="-6.0288980">
        <ele>1163.8</ele>
        <time>2019-09-04T11:09:10Z</time>
      </trkpt>
      <trkpt lat="43.0837910" lon="-6.0288930">
        <ele>1161.9</ele>
        <time>2019-09-04T11:09:12Z</time>
      </trkpt>
      <trkpt lat="43.0840010" lon="-6.0289040">
        <ele>1160.1</ele>
        <time>2019-09-04T11:09:14Z</time>
      </trkpt>
      <trkpt lat="43.0842060" lon="-6.0289480">
        <ele>1158.6</ele>
        <time>2019-09-04T11:09:16Z</time>
      </trkpt>
      <trkpt lat="43.0844210" lon="-6.0290220">
        <ele>1156.6</ele>
        <time>2019-09-04T11:09:18Z</time>
      </trkpt>
      <trkpt lat="43.0846410" lon="-6.0291150">
        <ele>1154.9</ele>
        <time>2019-09-04T11:09:20Z</time>
      </trkpt>
      <trkpt lat="43.0848720" lon="-6.0292180">
        <ele>1153.4</ele>
        <time>2019-09-04T11:09:22Z</time>
      </trkpt>
      <trkpt lat="43.0850970" lon="-6.0293150">
        <ele>1151.4</ele>
        <time>2019-09-04T11:09:24Z</time>
      </trkpt>
      <trkpt lat="43.0853170" lon="-6.0293920">
        <ele>1149.7</ele>
        <time>2019-09-04T11:09:26Z</time>
      </trkpt>
      <trkpt lat="43.0855370" lon="-6.0294530">
        <ele>1147.7</ele>
        <time>2019-09-04T11:09:28Z</time>
      </trkpt>
      <trkpt lat="43.0857370" lon="-6.0295330">
        <ele>1145.8</ele>
        <time>2019-09-04T11:09:30Z</time>
      </trkpt>
      <trkpt lat="43.0859260" lon="-6.0296560">
        <ele>1143.9</ele>
        <time>2019-09-04T11:09:32Z</time>
      </trkpt>
      <trkpt lat="43.0861060" lon="-6.0298010">
        <ele>1142.2</ele>
        <time>2019-09-04T11:09:34Z</time>
      </trkpt>
      <trkpt lat="43.0862950" lon="-6.0299620">
        <ele>1140.6</ele>
        <time>2019-09-04T11:09:36Z</time>
      </trkpt>
      <trkpt lat="43.0863920" lon="-6.0300380">
        <ele>1138.9</ele>
        <time>2019-09-04T11:09:37Z</time>
      </trkpt>
      <trkpt lat="43.0865770" lon="-6.0301660">
        <ele>1136.8</ele>
        <time>2019-09-04T11:09:39Z</time>
      </trkpt>
      <trkpt lat="43.0867560" lon="-6.0302710">
        <ele>1136.8</ele>
        <time>2019-09-04T11:09:41Z</time>
      </trkpt>
      <trkpt lat="43.0868430" lon="-6.0303270">
        <ele>1136.8</ele>
        <time>2019-09-04T11:09:42Z</time>
      </trkpt>
      <trkpt lat="43.0870220" lon="-6.0304580">
        <ele>1136.8</ele>
        <time>2019-09-04T11:09:44Z</time>
      </trkpt>
      <trkpt lat="43.0870990" lon="-6.0305310">
        <ele>1136.8</ele>
        <time>2019-09-04T11:09:45Z</time>
      </trkpt>
      <trkpt lat="43.0871860" lon="-6.0306220">
        <ele>1136.8</ele>
        <time>2019-09-04T11:09:46Z</time>
      </trkpt>
      <trkpt lat="43.0873400" lon="-6.0308020">
        <ele>1135.7</ele>
        <time>2019-09-04T11:09:48Z</time>
      </trkpt>
      <trkpt lat="43.0875190" lon="-6.0309820">
        <ele>1133.7</ele>
        <time>2019-09-04T11:09:50Z</time>
      </trkpt>
      <trkpt lat="43.0876880" lon="-6.0311370">
        <ele>1132.2</ele>
        <time>2019-09-04T11:09:52Z</time>
      </trkpt>
      <trkpt lat="43.0878160" lon="-6.0312730">
        <ele>1132.2</ele>
        <time>2019-09-04T11:09:54Z</time>
      </trkpt>
      <trkpt lat="43.0878720" lon="-6.0314160">
        <ele>1127.9</ele>
        <time>2019-09-04T11:09:56Z</time>
      </trkpt>
      <trkpt lat="43.0878360" lon="-6.0315460">
        <ele>1125.2</ele>
        <time>2019-09-04T11:09:58Z</time>
      </trkpt>
      <trkpt lat="43.0877490" lon="-6.0316080">
        <ele>1125.2</ele>
        <time>2019-09-04T11:10:00Z</time>
      </trkpt>
      <trkpt lat="43.0876210" lon="-6.0315580">
        <ele>1125.2</ele>
        <time>2019-09-04T11:10:02Z</time>
      </trkpt>
      <trkpt lat="43.0874780" lon="-6.0314790">
        <ele>1123.9</ele>
        <time>2019-09-04T11:10:04Z</time>
      </trkpt>
      <trkpt lat="43.0873190" lon="-6.0313730">
        <ele>1123.9</ele>
        <time>2019-09-04T11:10:06Z</time>
      </trkpt>
      <trkpt lat="43.0871600" lon="-6.0312700">
        <ele>1123.9</ele>
        <time>2019-09-04T11:10:08Z</time>
      </trkpt>
      <trkpt lat="43.0869810" lon="-6.0311530">
        <ele>1122.5</ele>
        <time>2019-09-04T11:10:10Z</time>
      </trkpt>
      <trkpt lat="43.0868020" lon="-6.0310380">
        <ele>1121.2</ele>
        <time>2019-09-04T11:10:12Z</time>
      </trkpt>
      <trkpt lat="43.0867100" lon="-6.0309780">
        <ele>1121.2</ele>
        <time>2019-09-04T11:10:13Z</time>
      </trkpt>
      <trkpt lat="43.0865100" lon="-6.0308520">
        <ele>1118.3</ele>
        <time>2019-09-04T11:10:15Z</time>
      </trkpt>
      <trkpt lat="43.0864230" lon="-6.0307940">
        <ele>1114.6</ele>
        <time>2019-09-04T11:10:16Z</time>
      </trkpt>
      <trkpt lat="43.0862750" lon="-6.0307010">
        <ele>1110.7</ele>
        <time>2019-09-04T11:10:18Z</time>
      </trkpt>
      <trkpt lat="43.0861260" lon="-6.0306580">
        <ele>1107.9</ele>
        <time>2019-09-04T11:10:20Z</time>
      </trkpt>
      <trkpt lat="43.0860750" lon="-6.0306850">
        <ele>1107.9</ele>
        <time>2019-09-04T11:10:21Z</time>
      </trkpt>
      <trkpt lat="43.0860290" lon="-6.0307280">
        <ele>1106.0</ele>
        <time>2019-09-04T11:10:22Z</time>
      </trkpt>
      <trkpt lat="43.0859880" lon="-6.0308720">
        <ele>1104.8</ele>
        <time>2019-09-04T11:10:24Z</time>
      </trkpt>
      <trkpt lat="43.0859930" lon="-6.0310590">
        <ele>1104.8</ele>
        <time>2019-09-04T11:10:26Z</time>
      </trkpt>
      <trkpt lat="43.0859830" lon="-6.0312720">
        <ele>1104.8</ele>
        <time>2019-09-04T11:10:28Z</time>
      </trkpt>
      <trkpt lat="43.0859620" lon="-6.0315020">
        <ele>1103.6</ele>
        <time>2019-09-04T11:10:30Z</time>
      </trkpt>
      <trkpt lat="43.0859670" lon="-6.0316140">
        <ele>1103.6</ele>
        <time>2019-09-04T11:10:31Z</time>
      </trkpt>
      <trkpt lat="43.0859830" lon="-6.0317220">
        <ele>1103.6</ele>
        <time>2019-09-04T11:10:32Z</time>
      </trkpt>
      <trkpt lat="43.0860190" lon="-6.0319270">
        <ele>1103.6</ele>
        <time>2019-09-04T11:10:34Z</time>
      </trkpt>
      <trkpt lat="43.0860390" lon="-6.0320380">
        <ele>1103.6</ele>
        <time>2019-09-04T11:10:35Z</time>
      </trkpt>
      <trkpt lat="43.0860390" lon="-6.0322630">
        <ele>1099.9</ele>
        <time>2019-09-04T11:10:37Z</time>
      </trkpt>
      <trkpt lat="43.0860030" lon="-6.0324760">
        <ele>1098.8</ele>
        <time>2019-09-04T11:10:39Z</time>
      </trkpt>
      <trkpt lat="43.0859620" lon="-6.0327210">
        <ele>1096.8</ele>
        <time>2019-09-04T11:10:41Z</time>
      </trkpt>
      <trkpt lat="43.0859520" lon="-6.0329750">
        <ele>1094.8</ele>
        <time>2019-09-04T11:10:43Z</time>
      </trkpt>
      <trkpt lat="43.0859570" lon="-6.0331010">
        <ele>1092.8</ele>
        <time>2019-09-04T11:10:44Z</time>
      </trkpt>
      <trkpt lat="43.0859780" lon="-6.0333390">
        <ele>1090.9</ele>
        <time>2019-09-04T11:10:46Z</time>
      </trkpt>
      <trkpt lat="43.0860390" lon="-6.0335760">
        <ele>1088.8</ele>
        <time>2019-09-04T11:10:48Z</time>
      </trkpt>
      <trkpt lat="43.0861260" lon="-6.0337900">
        <ele>1086.8</ele>
        <time>2019-09-04T11:10:50Z</time>
      </trkpt>
      <trkpt lat="43.0861720" lon="-6.0338820">
        <ele>1086.8</ele>
        <time>2019-09-04T11:10:51Z</time>
      </trkpt>
      <trkpt lat="43.0862030" lon="-6.0339730">
        <ele>1085.1</ele>
        <time>2019-09-04T11:10:52Z</time>
      </trkpt>
      <trkpt lat="43.0862340" lon="-6.0341770">
        <ele>1085.1</ele>
        <time>2019-09-04T11:10:54Z</time>
      </trkpt>
      <trkpt lat="43.0862230" lon="-6.0342770">
        <ele>1083.8</ele>
        <time>2019-09-04T11:10:55Z</time>
      </trkpt>
      <trkpt lat="43.0861980" lon="-6.0343740">
        <ele>1083.8</ele>
        <time>2019-09-04T11:10:56Z</time>
      </trkpt>
      <trkpt lat="43.0861620" lon="-6.0344650">
        <ele>1083.8</ele>
        <time>2019-09-04T11:10:57Z</time>
      </trkpt>
      <trkpt lat="43.0860950" lon="-6.0346320">
        <ele>1082.4</ele>
        <time>2019-09-04T11:10:59Z</time>
      </trkpt>
      <trkpt lat="43.0860800" lon="-6.0347960">
        <ele>1082.4</ele>
        <time>2019-09-04T11:11:01Z</time>
      </trkpt>
      <trkpt lat="43.0861360" lon="-6.0349110">
        <ele>1082.4</ele>
        <time>2019-09-04T11:11:03Z</time>
      </trkpt>
      <trkpt lat="43.0861820" lon="-6.0349170">
        <ele>1082.4</ele>
        <time>2019-09-04T11:11:04Z</time>
      </trkpt>
      <trkpt lat="43.0863050" lon="-6.0349490">
        <ele>1082.4</ele>
        <time>2019-09-04T11:11:06Z</time>
      </trkpt>
      <trkpt lat="43.0864640" lon="-6.0349540">
        <ele>1081.2</ele>
        <time>2019-09-04T11:11:08Z</time>
      </trkpt>
      <trkpt lat="43.0865560" lon="-6.0349420">
        <ele>1081.2</ele>
        <time>2019-09-04T11:11:09Z</time>
      </trkpt>
      <trkpt lat="43.0867460" lon="-6.0348980">
        <ele>1081.2</ele>
        <time>2019-09-04T11:11:11Z</time>
      </trkpt>
      <trkpt lat="43.0869450" lon="-6.0348390">
        <ele>1079.8</ele>
        <time>2019-09-04T11:11:13Z</time>
      </trkpt>
      <trkpt lat="43.0871600" lon="-6.0347670">
        <ele>1079.8</ele>
        <time>2019-09-04T11:11:15Z</time>
      </trkpt>
      <trkpt lat="43.0873860" lon="-6.0346780">
        <ele>1079.8</ele>
        <time>2019-09-04T11:11:17Z</time>
      </trkpt>
      <trkpt lat="43.0876060" lon="-6.0345810">
        <ele>1078.6</ele>
        <time>2019-09-04T11:11:19Z</time>
      </trkpt>
      <trkpt lat="43.0878160" lon="-6.0344970">
        <ele>1078.6</ele>
        <time>2019-09-04T11:11:21Z</time>
      </trkpt>
      <trkpt lat="43.0880360" lon="-6.0344350">
        <ele>1071.4</ele>
        <time>2019-09-04T11:11:23Z</time>
      </trkpt>
      <trkpt lat="43.0882660" lon="-6.0343920">
        <ele>1067.0</ele>
        <time>2019-09-04T11:11:25Z</time>
      </trkpt>
      <trkpt lat="43.0883740" lon="-6.0343720">
        <ele>1064.9</ele>
        <time>2019-09-04T11:11:26Z</time>
      </trkpt>
      <trkpt lat="43.0885940" lon="-6.0343390">
        <ele>1061.2</ele>
        <time>2019-09-04T11:11:28Z</time>
      </trkpt>
      <trkpt lat="43.0888040" lon="-6.0342870">
        <ele>1058.1</ele>
        <time>2019-09-04T11:11:30Z</time>
      </trkpt>
      <trkpt lat="43.0889880" lon="-6.0341950">
        <ele>1055.6</ele>
        <time>2019-09-04T11:11:32Z</time>
      </trkpt>
      <trkpt lat="43.0890700" lon="-6.0341360">
        <ele>1054.4</ele>
        <time>2019-09-04T11:11:33Z</time>
      </trkpt>
      <trkpt lat="43.0891520" lon="-6.0340610">
        <ele>1054.4</ele>
        <time>2019-09-04T11:11:34Z</time>
      </trkpt>
      <trkpt lat="43.0893060" lon="-6.0338700">
        <ele>1052.8</ele>
        <time>2019-09-04T11:11:36Z</time>
      </trkpt>
      <trkpt lat="43.0893720" lon="-6.0337740">
        <ele>1050.6</ele>
        <time>2019-09-04T11:11:37Z</time>
      </trkpt>
      <trkpt lat="43.0894390" lon="-6.0336630">
        <ele>1049.2</ele>
        <time>2019-09-04T11:11:38Z</time>
      </trkpt>
      <trkpt lat="43.0895770" lon="-6.0334640">
        <ele>1048.0</ele>
        <time>2019-09-04T11:11:40Z</time>
      </trkpt>
      <trkpt lat="43.0897360" lon="-6.0332920">
        <ele>1046.0</ele>
        <time>2019-09-04T11:11:42Z</time>
      </trkpt>
      <trkpt lat="43.0899000" lon="-6.0331330">
        <ele>1044.2</ele>
        <time>2019-09-04T11:11:44Z</time>
      </trkpt>
      <trkpt lat="43.0900680" lon="-6.0329510">
        <ele>1042.6</ele>
        <time>2019-09-04T11:11:46Z</time>
      </trkpt>
      <trkpt lat="43.0901500" lon="-6.0328450">
        <ele>1041.0</ele>
        <time>2019-09-04T11:11:47Z</time>
      </trkpt>
      <trkpt lat="43.0902890" lon="-6.0326450">
        <ele>1039.0</ele>
        <time>2019-09-04T11:11:49Z</time>
      </trkpt>
      <trkpt lat="43.0904370" lon="-6.0324860">
        <ele>1037.2</ele>
        <time>2019-09-04T11:11:51Z</time>
      </trkpt>
      <trkpt lat="43.0906010" lon="-6.0323920">
        <ele>1035.1</ele>
        <time>2019-09-04T11:11:53Z</time>
      </trkpt>
      <trkpt lat="43.0906880" lon="-6.0323710">
        <ele>1035.1</ele>
        <time>2019-09-04T11:11:54Z</time>
      </trkpt>
      <trkpt lat="43.0907800" lon="-6.0323680">
        <ele>1033.8</ele>
        <time>2019-09-04T11:11:55Z</time>
      </trkpt>
      <trkpt lat="43.0909590" lon="-6.0324050">
        <ele>1033.8</ele>
        <time>2019-09-04T11:11:57Z</time>
      </trkpt>
      <trkpt lat="43.0910570" lon="-6.0324450">
        <ele>1033.8</ele>
        <time>2019-09-04T11:11:58Z</time>
      </trkpt>
      <trkpt lat="43.0911540" lon="-6.0325040">
        <ele>1033.8</ele>
        <time>2019-09-04T11:11:59Z</time>
      </trkpt>
      <trkpt lat="43.0913480" lon="-6.0326410">
        <ele>1033.8</ele>
        <time>2019-09-04T11:12:01Z</time>
      </trkpt>
      <trkpt lat="43.0915480" lon="-6.0327610">
        <ele>1032.6</ele>
        <time>2019-09-04T11:12:03Z</time>
      </trkpt>
      <trkpt lat="43.0917320" lon="-6.0328590">
        <ele>1032.6</ele>
        <time>2019-09-04T11:12:05Z</time>
      </trkpt>
      <trkpt lat="43.0918090" lon="-6.0329050">
        <ele>1030.8</ele>
        <time>2019-09-04T11:12:06Z</time>
      </trkpt>
      <trkpt lat="43.0919370" lon="-6.0330280">
        <ele>1030.8</ele>
        <time>2019-09-04T11:12:08Z</time>
      </trkpt>
      <trkpt lat="43.0919880" lon="-6.0331090">
        <ele>1030.8</ele>
        <time>2019-09-04T11:12:09Z</time>
      </trkpt>
      <trkpt lat="43.0920240" lon="-6.0332030">
        <ele>1030.8</ele>
        <time>2019-09-04T11:12:10Z</time>
      </trkpt>
      <trkpt lat="43.0920550" lon="-6.0333090">
        <ele>1026.8</ele>
        <time>2019-09-04T11:12:11Z</time>
      </trkpt>
      <trkpt lat="43.0920810" lon="-6.0334250">
        <ele>1024.2</ele>
        <time>2019-09-04T11:12:12Z</time>
      </trkpt>
      <trkpt lat="43.0921420" lon="-6.0336580">
        <ele>1020.4</ele>
        <time>2019-09-04T11:12:14Z</time>
      </trkpt>
      <trkpt lat="43.0922140" lon="-6.0339280">
        <ele>1017.0</ele>
        <time>2019-09-04T11:12:16Z</time>
      </trkpt>
      <trkpt lat="43.0922750" lon="-6.0342020">
        <ele>1014.2</ele>
        <time>2019-09-04T11:12:18Z</time>
      </trkpt>
      <trkpt lat="43.0923060" lon="-6.0343340">
        <ele>1012.8</ele>
        <time>2019-09-04T11:12:19Z</time>
      </trkpt>
      <trkpt lat="43.0923670" lon="-6.0345860">
        <ele>1011.5</ele>
        <time>2019-09-04T11:12:21Z</time>
      </trkpt>
      <trkpt lat="43.0924600" lon="-6.0348070">
        <ele>1009.6</ele>
        <time>2019-09-04T11:12:23Z</time>
      </trkpt>
      <trkpt lat="43.0926030" lon="-6.0349920">
        <ele>1008.0</ele>
        <time>2019-09-04T11:12:25Z</time>
      </trkpt>
      <trkpt lat="43.0927620" lon="-6.0351540">
        <ele>1006.4</ele>
        <time>2019-09-04T11:12:27Z</time>
      </trkpt>
      <trkpt lat="43.0929510" lon="-6.0353200">
        <ele>1004.7</ele>
        <time>2019-09-04T11:12:29Z</time>
      </trkpt>
      <trkpt lat="43.0931460" lon="-6.0354750">
        <ele>1002.8</ele>
        <time>2019-09-04T11:12:31Z</time>
      </trkpt>
      <trkpt lat="43.0933350" lon="-6.0356330">
        <ele>1000.7</ele>
        <time>2019-09-04T11:12:33Z</time>
      </trkpt>
      <trkpt lat="43.0935040" lon="-6.0357560">
        <ele>998.5</ele>
        <time>2019-09-04T11:12:35Z</time>
      </trkpt>
      <trkpt lat="43.0935960" lon="-6.0358000">
        <ele>996.2</ele>
        <time>2019-09-04T11:12:36Z</time>
      </trkpt>
      <trkpt lat="43.0937860" lon="-6.0358410">
        <ele>994.6</ele>
        <time>2019-09-04T11:12:38Z</time>
      </trkpt>
      <trkpt lat="43.0939700" lon="-6.0358200">
        <ele>992.9</ele>
        <time>2019-09-04T11:12:40Z</time>
      </trkpt>
      <trkpt lat="43.0940570" lon="-6.0357950">
        <ele>992.9</ele>
        <time>2019-09-04T11:12:41Z</time>
      </trkpt>
      <trkpt lat="43.0941390" lon="-6.0357660">
        <ele>991.3</ele>
        <time>2019-09-04T11:12:42Z</time>
      </trkpt>
      <trkpt lat="43.0942310" lon="-6.0357350">
        <ele>991.3</ele>
        <time>2019-09-04T11:12:43Z</time>
      </trkpt>
      <trkpt lat="43.0944050" lon="-6.0357040">
        <ele>989.6</ele>
        <time>2019-09-04T11:12:45Z</time>
      </trkpt>
      <trkpt lat="43.0945590" lon="-6.0357360">
        <ele>988.0</ele>
        <time>2019-09-04T11:12:47Z</time>
      </trkpt>
      <trkpt lat="43.0946410" lon="-6.0357860">
        <ele>986.8</ele>
        <time>2019-09-04T11:12:48Z</time>
      </trkpt>
      <trkpt lat="43.0947690" lon="-6.0359210">
        <ele>984.8</ele>
        <time>2019-09-04T11:12:50Z</time>
      </trkpt>
      <trkpt lat="43.0948810" lon="-6.0360940">
        <ele>982.9</ele>
        <time>2019-09-04T11:12:52Z</time>
      </trkpt>
      <trkpt lat="43.0950140" lon="-6.0362390">
        <ele>981.4</ele>
        <time>2019-09-04T11:12:54Z</time>
      </trkpt>
      <trkpt lat="43.0951680" lon="-6.0363240">
        <ele>980.2</ele>
        <time>2019-09-04T11:12:56Z</time>
      </trkpt>
      <trkpt lat="43.0953320" lon="-6.0363420">
        <ele>978.5</ele>
        <time>2019-09-04T11:12:58Z</time>
      </trkpt>
      <trkpt lat="43.0954190" lon="-6.0363350">
        <ele>978.5</ele>
        <time>2019-09-04T11:12:59Z</time>
      </trkpt>
      <trkpt lat="43.0955780" lon="-6.0363240">
        <ele>977.2</ele>
        <time>2019-09-04T11:13:01Z</time>
      </trkpt>
      <trkpt lat="43.0957160" lon="-6.0363770">
        <ele>975.8</ele>
        <time>2019-09-04T11:13:03Z</time>
      </trkpt>
      <trkpt lat="43.0958230" lon="-6.0365090">
        <ele>974.0</ele>
        <time>2019-09-04T11:13:05Z</time>
      </trkpt>
      <trkpt lat="43.0959260" lon="-6.0367050">
        <ele>972.6</ele>
        <time>2019-09-04T11:13:07Z</time>
      </trkpt>
      <trkpt lat="43.0960330" lon="-6.0369150">
        <ele>971.4</ele>
        <time>2019-09-04T11:13:09Z</time>
      </trkpt>
      <trkpt lat="43.0961410" lon="-6.0371390">
        <ele>969.7</ele>
        <time>2019-09-04T11:13:11Z</time>
      </trkpt>
      <trkpt lat="43.0962120" lon="-6.0373690">
        <ele>968.0</ele>
        <time>2019-09-04T11:13:13Z</time>
      </trkpt>
      <trkpt lat="43.0962430" lon="-6.0374870">
        <ele>968.0</ele>
        <time>2019-09-04T11:13:14Z</time>
      </trkpt>
      <trkpt lat="43.0962890" lon="-6.0377180">
        <ele>966.2</ele>
        <time>2019-09-04T11:13:16Z</time>
      </trkpt>
      <trkpt lat="43.0963760" lon="-6.0379300">
        <ele>964.9</ele>
        <time>2019-09-04T11:13:18Z</time>
      </trkpt>
      <trkpt lat="43.0964220" lon="-6.0380250">
        <ele>963.4</ele>
        <time>2019-09-04T11:13:19Z</time>
      </trkpt>
      <trkpt lat="43.0964790" lon="-6.0381320">
        <ele>963.4</ele>
        <time>2019-09-04T11:13:20Z</time>
      </trkpt>
      <trkpt lat="43.0965960" lon="-6.0383650">
        <ele>961.8</ele>
        <time>2019-09-04T11:13:22Z</time>
      </trkpt>
      <trkpt lat="43.0967040" lon="-6.0386160">
        <ele>960.5</ele>
        <time>2019-09-04T11:13:24Z</time>
      </trkpt>
      <trkpt lat="43.0968120" lon="-6.0388880">
        <ele>958.8</ele>
        <time>2019-09-04T11:13:26Z</time>
      </trkpt>
      <trkpt lat="43.0969140" lon="-6.0391610">
        <ele>957.7</ele>
        <time>2019-09-04T11:13:28Z</time>
      </trkpt>
      <trkpt lat="43.0970370" lon="-6.0394200">
        <ele>955.8</ele>
        <time>2019-09-04T11:13:30Z</time>
      </trkpt>
      <trkpt lat="43.0971650" lon="-6.0396740">
        <ele>953.9</ele>
        <time>2019-09-04T11:13:32Z</time>
      </trkpt>
      <trkpt lat="43.0972310" lon="-6.0397970">
        <ele>951.9</ele>
        <time>2019-09-04T11:13:33Z</time>
      </trkpt>
      <trkpt lat="43.0973340" lon="-6.0400150">
        <ele>949.4</ele>
        <time>2019-09-04T11:13:35Z</time>
      </trkpt>
      <trkpt lat="43.0974000" lon="-6.0402230">
        <ele>947.0</ele>
        <time>2019-09-04T11:13:37Z</time>
      </trkpt>
      <trkpt lat="43.0974000" lon="-6.0404100">
        <ele>947.0</ele>
        <time>2019-09-04T11:13:39Z</time>
      </trkpt>
      <trkpt lat="43.0973240" lon="-6.0405660">
        <ele>945.6</ele>
        <time>2019-09-04T11:13:41Z</time>
      </trkpt>
      <trkpt lat="43.0972620" lon="-6.0406390">
        <ele>945.6</ele>
        <time>2019-09-04T11:13:42Z</time>
      </trkpt>
      <trkpt lat="43.0971240" lon="-6.0407870">
        <ele>945.6</ele>
        <time>2019-09-04T11:13:44Z</time>
      </trkpt>
      <trkpt lat="43.0970570" lon="-6.0408770">
        <ele>945.6</ele>
        <time>2019-09-04T11:13:45Z</time>
      </trkpt>
      <trkpt lat="43.0969290" lon="-6.0410890">
        <ele>945.6</ele>
        <time>2019-09-04T11:13:47Z</time>
      </trkpt>
      <trkpt lat="43.0967860" lon="-6.0413280">
        <ele>945.6</ele>
        <time>2019-09-04T11:13:49Z</time>
      </trkpt>
      <trkpt lat="43.0967040" lon="-6.0414430">
        <ele>945.6</ele>
        <time>2019-09-04T11:13:50Z</time>
      </trkpt>
      <trkpt lat="43.0966170" lon="-6.0415440">
        <ele>944.4</ele>
        <time>2019-09-04T11:13:51Z</time>
      </trkpt>
      <trkpt lat="43.0964530" lon="-6.0417110">
        <ele>941.1</ele>
        <time>2019-09-04T11:13:53Z</time>
      </trkpt>
      <trkpt lat="43.0962890" lon="-6.0418870">
        <ele>937.8</ele>
        <time>2019-09-04T11:13:55Z</time>
      </trkpt>
      <trkpt lat="43.0961610" lon="-6.0420830">
        <ele>934.9</ele>
        <time>2019-09-04T11:13:57Z</time>
      </trkpt>
      <trkpt lat="43.0960540" lon="-6.0422880">
        <ele>932.4</ele>
        <time>2019-09-04T11:13:59Z</time>
      </trkpt>
      <trkpt lat="43.0959460" lon="-6.0424700">
        <ele>931.2</ele>
        <time>2019-09-04T11:14:01Z</time>
      </trkpt>
      <trkpt lat="43.0958590" lon="-6.0426270">
        <ele>928.9</ele>
        <time>2019-09-04T11:14:03Z</time>
      </trkpt>
      <trkpt lat="43.0958440" lon="-6.0427560">
        <ele>927.1</ele>
        <time>2019-09-04T11:14:05Z</time>
      </trkpt>
      <trkpt lat="43.0958900" lon="-6.0428510">
        <ele>925.8</ele>
        <time>2019-09-04T11:14:07Z</time>
      </trkpt>
      <trkpt lat="43.0959820" lon="-6.0428790">
        <ele>924.7</ele>
        <time>2019-09-04T11:14:09Z</time>
      </trkpt>
      <trkpt lat="43.0961660" lon="-6.0427260">
        <ele>924.7</ele>
        <time>2019-09-04T11:14:12Z</time>
      </trkpt>
      <trkpt lat="43.0962890" lon="-6.0425960">
        <ele>923.4</ele>
        <time>2019-09-04T11:14:14Z</time>
      </trkpt>
      <trkpt lat="43.0964070" lon="-6.0424520">
        <ele>923.4</ele>
        <time>2019-09-04T11:14:16Z</time>
      </trkpt>
      <trkpt lat="43.0964680" lon="-6.0423900">
        <ele>923.4</ele>
        <time>2019-09-04T11:14:17Z</time>
      </trkpt>
      <trkpt lat="43.0966070" lon="-6.0423230">
        <ele>921.7</ele>
        <time>2019-09-04T11:14:19Z</time>
      </trkpt>
      <trkpt lat="43.0967650" lon="-6.0423220">
        <ele>919.8</ele>
        <time>2019-09-04T11:14:21Z</time>
      </trkpt>
      <trkpt lat="43.0969240" lon="-6.0423300">
        <ele>917.5</ele>
        <time>2019-09-04T11:14:23Z</time>
      </trkpt>
      <trkpt lat="43.0970010" lon="-6.0423330">
        <ele>915.4</ele>
        <time>2019-09-04T11:14:24Z</time>
      </trkpt>
      <trkpt lat="43.0971240" lon="-6.0423620">
        <ele>913.8</ele>
        <time>2019-09-04T11:14:26Z</time>
      </trkpt>
      <trkpt lat="43.0971850" lon="-6.0424740">
        <ele>913.8</ele>
        <time>2019-09-04T11:14:28Z</time>
      </trkpt>
      <trkpt lat="43.0971650" lon="-6.0426020">
        <ele>913.8</ele>
        <time>2019-09-04T11:14:30Z</time>
      </trkpt>
      <trkpt lat="43.0971030" lon="-6.0427680">
        <ele>913.8</ele>
        <time>2019-09-04T11:14:32Z</time>
      </trkpt>
      <trkpt lat="43.0970270" lon="-6.0429520">
        <ele>913.8</ele>
        <time>2019-09-04T11:14:34Z</time>
      </trkpt>
      <trkpt lat="43.0969450" lon="-6.0431800">
        <ele>913.8</ele>
        <time>2019-09-04T11:14:36Z</time>
      </trkpt>
      <trkpt lat="43.0969190" lon="-6.0432890">
        <ele>912.3</ele>
        <time>2019-09-04T11:14:37Z</time>
      </trkpt>
      <trkpt lat="43.0968990" lon="-6.0434030">
        <ele>912.3</ele>
        <time>2019-09-04T11:14:38Z</time>
      </trkpt>
      <trkpt lat="43.0968880" lon="-6.0436450">
        <ele>907.8</ele>
        <time>2019-09-04T11:14:40Z</time>
      </trkpt>
      <trkpt lat="43.0968990" lon="-6.0437740">
        <ele>906.4</ele>
        <time>2019-09-04T11:14:41Z</time>
      </trkpt>
      <trkpt lat="43.0968990" lon="-6.0439000">
        <ele>905.1</ele>
        <time>2019-09-04T11:14:42Z</time>
      </trkpt>
      <trkpt lat="43.0968990" lon="-6.0440260">
        <ele>905.1</ele>
        <time>2019-09-04T11:14:43Z</time>
      </trkpt>
      <trkpt lat="43.0968730" lon="-6.0442840">
        <ele>903.4</ele>
        <time>2019-09-04T11:14:45Z</time>
      </trkpt>
      <trkpt lat="43.0968320" lon="-6.0445270">
        <ele>902.0</ele>
        <time>2019-09-04T11:14:47Z</time>
      </trkpt>
      <trkpt lat="43.0968060" lon="-6.0447480">
        <ele>902.0</ele>
        <time>2019-09-04T11:14:49Z</time>
      </trkpt>
      <trkpt lat="43.0968370" lon="-6.0449240">
        <ele>900.8</ele>
        <time>2019-09-04T11:14:51Z</time>
      </trkpt>
      <trkpt lat="43.0968830" lon="-6.0449720">
        <ele>900.8</ele>
        <time>2019-09-04T11:14:52Z</time>
      </trkpt>
      <trkpt lat="43.0969910" lon="-6.0450070">
        <ele>900.8</ele>
        <time>2019-09-04T11:14:54Z</time>
      </trkpt>
      <trkpt lat="43.0970880" lon="-6.0449590">
        <ele>900.8</ele>
        <time>2019-09-04T11:14:56Z</time>
      </trkpt>
      <trkpt lat="43.0971390" lon="-6.0449090">
        <ele>900.8</ele>
        <time>2019-09-04T11:14:57Z</time>
      </trkpt>
      <trkpt lat="43.0972310" lon="-6.0447710">
        <ele>900.8</ele>
        <time>2019-09-04T11:14:59Z</time>
      </trkpt>
      <trkpt lat="43.0972520" lon="-6.0446890">
        <ele>900.8</ele>
        <time>2019-09-04T11:15:00Z</time>
      </trkpt>
      <trkpt lat="43.0973030" lon="-6.0444880">
        <ele>900.8</ele>
        <time>2019-09-04T11:15:02Z</time>
      </trkpt>
      <trkpt lat="43.0973180" lon="-6.0442710">
        <ele>899.2</ele>
        <time>2019-09-04T11:15:04Z</time>
      </trkpt>
      <trkpt lat="43.0973080" lon="-6.0440220">
        <ele>898.0</ele>
        <time>2019-09-04T11:15:06Z</time>
      </trkpt>
      <trkpt lat="43.0973030" lon="-6.0439100">
        <ele>896.7</ele>
        <time>2019-09-04T11:15:07Z</time>
      </trkpt>
      <trkpt lat="43.0973080" lon="-6.0436760">
        <ele>896.7</ele>
        <time>2019-09-04T11:15:09Z</time>
      </trkpt>
      <trkpt lat="43.0973640" lon="-6.0434780">
        <ele>895.3</ele>
        <time>2019-09-04T11:15:11Z</time>
      </trkpt>
      <trkpt lat="43.0974770" lon="-6.0433380">
        <ele>895.3</ele>
        <time>2019-09-04T11:15:13Z</time>
      </trkpt>
      <trkpt lat="43.0976360" lon="-6.0432500">
        <ele>895.3</ele>
        <time>2019-09-04T11:15:15Z</time>
      </trkpt>
      <trkpt lat="43.0977280" lon="-6.0432150">
        <ele>895.3</ele>
        <time>2019-09-04T11:15:16Z</time>
      </trkpt>
      <trkpt lat="43.0979170" lon="-6.0431440">
        <ele>894.1</ele>
        <time>2019-09-04T11:15:18Z</time>
      </trkpt>
      <trkpt lat="43.0981070" lon="-6.0430320">
        <ele>894.1</ele>
        <time>2019-09-04T11:15:20Z</time>
      </trkpt>
      <trkpt lat="43.0983010" lon="-6.0429200">
        <ele>894.1</ele>
        <time>2019-09-04T11:15:22Z</time>
      </trkpt>
      <trkpt lat="43.0985060" lon="-6.0427860">
        <ele>890.5</ele>
        <time>2019-09-04T11:15:24Z</time>
      </trkpt>
      <trkpt lat="43.0986910" lon="-6.0426200">
        <ele>887.9</ele>
        <time>2019-09-04T11:15:26Z</time>
      </trkpt>
      <trkpt lat="43.0988340" lon="-6.0424400">
        <ele>885.9</ele>
        <time>2019-09-04T11:15:28Z</time>
      </trkpt>
      <trkpt lat="43.0988950" lon="-6.0423350">
        <ele>885.9</ele>
        <time>2019-09-04T11:15:29Z</time>
      </trkpt>
      <trkpt lat="43.0989770" lon="-6.0421210">
        <ele>884.3</ele>
        <time>2019-09-04T11:15:31Z</time>
      </trkpt>
      <trkpt lat="43.0990030" lon="-6.0420220">
        <ele>882.4</ele>
        <time>2019-09-04T11:15:32Z</time>
      </trkpt>
      <trkpt lat="43.0990640" lon="-6.0418300">
        <ele>881.1</ele>
        <time>2019-09-04T11:15:34Z</time>
      </trkpt>
      <trkpt lat="43.0991050" lon="-6.0417430">
        <ele>881.1</ele>
        <time>2019-09-04T11:15:35Z</time>
      </trkpt>
      <trkpt lat="43.0991560" lon="-6.0416720">
        <ele>881.1</ele>
        <time>2019-09-04T11:15:36Z</time>
      </trkpt>
      <trkpt lat="43.0992790" lon="-6.0415690">
        <ele>881.1</ele>
        <time>2019-09-04T11:15:38Z</time>
      </trkpt>
      <trkpt lat="43.0994430" lon="-6.0415090">
        <ele>881.1</ele>
        <time>2019-09-04T11:15:40Z</time>
      </trkpt>
      <trkpt lat="43.0996280" lon="-6.0414750">
        <ele>879.8</ele>
        <time>2019-09-04T11:15:42Z</time>
      </trkpt>
      <trkpt lat="43.0998170" lon="-6.0414670">
        <ele>879.8</ele>
        <time>2019-09-04T11:15:44Z</time>
      </trkpt>
      <trkpt lat="43.1000010" lon="-6.0415050">
        <ele>878.2</ele>
        <time>2019-09-04T11:15:46Z</time>
      </trkpt>
      <trkpt lat="43.1001600" lon="-6.0416080">
        <ele>876.6</ele>
        <time>2019-09-04T11:15:48Z</time>
      </trkpt>
      <trkpt lat="43.1002880" lon="-6.0417910">
        <ele>876.6</ele>
        <time>2019-09-04T11:15:50Z</time>
      </trkpt>
      <trkpt lat="43.1003850" lon="-6.0420150">
        <ele>873.9</ele>
        <time>2019-09-04T11:15:52Z</time>
      </trkpt>
      <trkpt lat="43.1004720" lon="-6.0422940">
        <ele>872.5</ele>
        <time>2019-09-04T11:15:54Z</time>
      </trkpt>
      <trkpt lat="43.1005080" lon="-6.0424290">
        <ele>870.2</ele>
        <time>2019-09-04T11:15:55Z</time>
      </trkpt>
      <trkpt lat="43.1005490" lon="-6.0425640">
        <ele>868.8</ele>
        <time>2019-09-04T11:15:56Z</time>
      </trkpt>
      <trkpt lat="43.1005850" lon="-6.0427000">
        <ele>867.7</ele>
        <time>2019-09-04T11:15:57Z</time>
      </trkpt>
      <trkpt lat="43.1006210" lon="-6.0428350">
        <ele>867.7</ele>
        <time>2019-09-04T11:15:58Z</time>
      </trkpt>
      <trkpt lat="43.1006620" lon="-6.0429690">
        <ele>865.6</ele>
        <time>2019-09-04T11:15:59Z</time>
      </trkpt>
      <trkpt lat="43.1007080" lon="-6.0431080">
        <ele>865.6</ele>
        <time>2019-09-04T11:16:00Z</time>
      </trkpt>
      <trkpt lat="43.1007490" lon="-6.0432370">
        <ele>863.8</ele>
        <time>2019-09-04T11:16:01Z</time>
      </trkpt>
      <trkpt lat="43.1007900" lon="-6.0433670">
        <ele>863.8</ele>
        <time>2019-09-04T11:16:02Z</time>
      </trkpt>
      <trkpt lat="43.1008360" lon="-6.0434990">
        <ele>862.2</ele>
        <time>2019-09-04T11:16:03Z</time>
      </trkpt>
      <trkpt lat="43.1008770" lon="-6.0436330">
        <ele>862.2</ele>
        <time>2019-09-04T11:16:04Z</time>
      </trkpt>
      <trkpt lat="43.1009130" lon="-6.0437710">
        <ele>860.9</ele>
        <time>2019-09-04T11:16:05Z</time>
      </trkpt>
      <trkpt lat="43.1009480" lon="-6.0439110">
        <ele>860.9</ele>
        <time>2019-09-04T11:16:06Z</time>
      </trkpt>
      <trkpt lat="43.1009840" lon="-6.0440510">
        <ele>859.6</ele>
        <time>2019-09-04T11:16:07Z</time>
      </trkpt>
      <trkpt lat="43.1010200" lon="-6.0441920">
        <ele>859.6</ele>
        <time>2019-09-04T11:16:08Z</time>
      </trkpt>
      <trkpt lat="43.1010610" lon="-6.0443330">
        <ele>858.1</ele>
        <time>2019-09-04T11:16:09Z</time>
      </trkpt>
      <trkpt lat="43.1011020" lon="-6.0444760">
        <ele>858.1</ele>
        <time>2019-09-04T11:16:10Z</time>
      </trkpt>
      <trkpt lat="43.1011480" lon="-6.0446140">
        <ele>856.2</ele>
        <time>2019-09-04T11:16:11Z</time>
      </trkpt>
      <trkpt lat="43.1012100" lon="-6.0447490">
        <ele>856.2</ele>
        <time>2019-09-04T11:16:12Z</time>
      </trkpt>
      <trkpt lat="43.1012710" lon="-6.0448790">
        <ele>854.6</ele>
        <time>2019-09-04T11:16:13Z</time>
      </trkpt>
      <trkpt lat="43.1013430" lon="-6.0450040">
        <ele>854.6</ele>
        <time>2019-09-04T11:16:14Z</time>
      </trkpt>
      <trkpt lat="43.1014140" lon="-6.0451270">
        <ele>853.0</ele>
        <time>2019-09-04T11:16:15Z</time>
      </trkpt>
      <trkpt lat="43.1014810" lon="-6.0452360">
        <ele>853.0</ele>
        <time>2019-09-04T11:16:16Z</time>
      </trkpt>
      <trkpt lat="43.1015580" lon="-6.0453400">
        <ele>851.8</ele>
        <time>2019-09-04T11:16:17Z</time>
      </trkpt>
      <trkpt lat="43.1016500" lon="-6.0454390">
        <ele>851.8</ele>
        <time>2019-09-04T11:16:18Z</time>
      </trkpt>
      <trkpt lat="43.1017470" lon="-6.0455260">
        <ele>850.3</ele>
        <time>2019-09-04T11:16:19Z</time>
      </trkpt>
      <trkpt lat="43.1018650" lon="-6.0456030">
        <ele>850.3</ele>
        <time>2019-09-04T11:16:20Z</time>
      </trkpt>
      <trkpt lat="43.1019620" lon="-6.0456630">
        <ele>848.7</ele>
        <time>2019-09-04T11:16:21Z</time>
      </trkpt>
      <trkpt lat="43.1020750" lon="-6.0457270">
        <ele>848.7</ele>
        <time>2019-09-04T11:16:22Z</time>
      </trkpt>
      <trkpt lat="43.1021820" lon="-6.0457910">
        <ele>847.2</ele>
        <time>2019-09-04T11:16:23Z</time>
      </trkpt>
      <trkpt lat="43.1022850" lon="-6.0458600">
        <ele>847.2</ele>
        <time>2019-09-04T11:16:24Z</time>
      </trkpt>
      <trkpt lat="43.1023920" lon="-6.0459300">
        <ele>846.0</ele>
        <time>2019-09-04T11:16:25Z</time>
      </trkpt>
      <trkpt lat="43.1024950" lon="-6.0460040">
        <ele>846.0</ele>
        <time>2019-09-04T11:16:26Z</time>
      </trkpt>
      <trkpt lat="43.1026070" lon="-6.0460930">
        <ele>844.7</ele>
        <time>2019-09-04T11:16:27Z</time>
      </trkpt>
      <trkpt lat="43.1027150" lon="-6.0461840">
        <ele>844.7</ele>
        <time>2019-09-04T11:16:28Z</time>
      </trkpt>
      <trkpt lat="43.1028120" lon="-6.0462720">
        <ele>842.8</ele>
        <time>2019-09-04T11:16:29Z</time>
      </trkpt>
      <trkpt lat="43.1028990" lon="-6.0463640">
        <ele>842.8</ele>
        <time>2019-09-04T11:16:30Z</time>
      </trkpt>
      <trkpt lat="43.1029810" lon="-6.0464470">
        <ele>840.8</ele>
        <time>2019-09-04T11:16:31Z</time>
      </trkpt>
      <trkpt lat="43.1030780" lon="-6.0465280">
        <ele>840.8</ele>
        <time>2019-09-04T11:16:32Z</time>
      </trkpt>
      <trkpt lat="43.1031760" lon="-6.0465950">
        <ele>838.9</ele>
        <time>2019-09-04T11:16:33Z</time>
      </trkpt>
      <trkpt lat="43.1032930" lon="-6.0466410">
        <ele>838.9</ele>
        <time>2019-09-04T11:16:34Z</time>
      </trkpt>
      <trkpt lat="43.1034010" lon="-6.0466750">
        <ele>837.8</ele>
        <time>2019-09-04T11:16:35Z</time>
      </trkpt>
      <trkpt lat="43.1035080" lon="-6.0466990">
        <ele>837.8</ele>
        <time>2019-09-04T11:16:36Z</time>
      </trkpt>
      <trkpt lat="43.1036210" lon="-6.0467170">
        <ele>837.8</ele>
        <time>2019-09-04T11:16:37Z</time>
      </trkpt>
      <trkpt lat="43.1037340" lon="-6.0467300">
        <ele>837.8</ele>
        <time>2019-09-04T11:16:38Z</time>
      </trkpt>
      <trkpt lat="43.1038410" lon="-6.0467460">
        <ele>837.8</ele>
        <time>2019-09-04T11:16:39Z</time>
      </trkpt>
      <trkpt lat="43.1039330" lon="-6.0467600">
        <ele>837.8</ele>
        <time>2019-09-04T11:16:40Z</time>
      </trkpt>
      <trkpt lat="43.1040360" lon="-6.0467760">
        <ele>837.8</ele>
        <time>2019-09-04T11:16:41Z</time>
      </trkpt>
      <trkpt lat="43.1041330" lon="-6.0467970">
        <ele>837.8</ele>
        <time>2019-09-04T11:16:42Z</time>
      </trkpt>
      <trkpt lat="43.1042300" lon="-6.0468260">
        <ele>837.8</ele>
        <time>2019-09-04T11:16:43Z</time>
      </trkpt>
      <trkpt lat="43.1043230" lon="-6.0468630">
        <ele>837.8</ele>
        <time>2019-09-04T11:16:44Z</time>
      </trkpt>
      <trkpt lat="43.1044100" lon="-6.0469060">
        <ele>837.8</ele>
        <time>2019-09-04T11:16:45Z</time>
      </trkpt>
      <trkpt lat="43.1045020" lon="-6.0469590">
        <ele>837.8</ele>
        <time>2019-09-04T11:16:46Z</time>
      </trkpt>
      <trkpt lat="43.1045890" lon="-6.0470120">
        <ele>836.6</ele>
        <time>2019-09-04T11:16:47Z</time>
      </trkpt>
      <trkpt lat="43.1046860" lon="-6.0470690">
        <ele>836.6</ele>
        <time>2019-09-04T11:16:48Z</time>
      </trkpt>
      <trkpt lat="43.1047830" lon="-6.0471270">
        <ele>836.6</ele>
        <time>2019-09-04T11:16:49Z</time>
      </trkpt>
      <trkpt lat="43.1048700" lon="-6.0471800">
        <ele>836.6</ele>
        <time>2019-09-04T11:16:50Z</time>
      </trkpt>
      <trkpt lat="43.1049630" lon="-6.0472310">
        <ele>836.6</ele>
        <time>2019-09-04T11:16:51Z</time>
      </trkpt>
      <trkpt lat="43.1050600" lon="-6.0472790">
        <ele>836.6</ele>
        <time>2019-09-04T11:16:52Z</time>
      </trkpt>
      <trkpt lat="43.1052540" lon="-6.0473480">
        <ele>836.6</ele>
        <time>2019-09-04T11:16:54Z</time>
      </trkpt>
      <trkpt lat="43.1053570" lon="-6.0473680">
        <ele>836.6</ele>
        <time>2019-09-04T11:16:55Z</time>
      </trkpt>
      <trkpt lat="43.1054540" lon="-6.0473790">
        <ele>836.6</ele>
        <time>2019-09-04T11:16:56Z</time>
      </trkpt>
      <trkpt lat="43.1055510" lon="-6.0473790">
        <ele>836.6</ele>
        <time>2019-09-04T11:16:57Z</time>
      </trkpt>
      <trkpt lat="43.1056540" lon="-6.0473740">
        <ele>836.6</ele>
        <time>2019-09-04T11:16:58Z</time>
      </trkpt>
      <trkpt lat="43.1057560" lon="-6.0473630">
        <ele>836.6</ele>
        <time>2019-09-04T11:16:59Z</time>
      </trkpt>
      <trkpt lat="43.1058480" lon="-6.0473520">
        <ele>836.6</ele>
        <time>2019-09-04T11:17:00Z</time>
      </trkpt>
      <trkpt lat="43.1059460" lon="-6.0473380">
        <ele>836.6</ele>
        <time>2019-09-04T11:17:01Z</time>
      </trkpt>
      <trkpt lat="43.1060480" lon="-6.0473250">
        <ele>836.6</ele>
        <time>2019-09-04T11:17:02Z</time>
      </trkpt>
      <trkpt lat="43.1061450" lon="-6.0473180">
        <ele>836.6</ele>
        <time>2019-09-04T11:17:03Z</time>
      </trkpt>
      <trkpt lat="43.1062430" lon="-6.0473120">
        <ele>836.6</ele>
        <time>2019-09-04T11:17:04Z</time>
      </trkpt>
      <trkpt lat="43.1063450" lon="-6.0473010">
        <ele>836.6</ele>
        <time>2019-09-04T11:17:05Z</time>
      </trkpt>
      <trkpt lat="43.1064470" lon="-6.0472840">
        <ele>836.6</ele>
        <time>2019-09-04T11:17:06Z</time>
      </trkpt>
      <trkpt lat="43.1065500" lon="-6.0472560">
        <ele>836.6</ele>
        <time>2019-09-04T11:17:07Z</time>
      </trkpt>
      <trkpt lat="43.1066570" lon="-6.0472200">
        <ele>836.6</ele>
        <time>2019-09-04T11:17:08Z</time>
      </trkpt>
      <trkpt lat="43.1067600" lon="-6.0471780">
        <ele>831.1</ele>
        <time>2019-09-04T11:17:09Z</time>
      </trkpt>
      <trkpt lat="43.1068570" lon="-6.0471380">
        <ele>828.3</ele>
        <time>2019-09-04T11:17:10Z</time>
      </trkpt>
      <trkpt lat="43.1069540" lon="-6.0470970">
        <ele>826.0</ele>
        <time>2019-09-04T11:17:11Z</time>
      </trkpt>
      <trkpt lat="43.1070460" lon="-6.0470510">
        <ele>824.2</ele>
        <time>2019-09-04T11:17:12Z</time>
      </trkpt>
      <trkpt lat="43.1071330" lon="-6.0470140">
        <ele>822.8</ele>
        <time>2019-09-04T11:17:13Z</time>
      </trkpt>
      <trkpt lat="43.1072260" lon="-6.0469910">
        <ele>821.5</ele>
        <time>2019-09-04T11:17:14Z</time>
      </trkpt>
      <trkpt lat="43.1073130" lon="-6.0469810">
        <ele>819.8</ele>
        <time>2019-09-04T11:17:15Z</time>
      </trkpt>
      <trkpt lat="43.1073950" lon="-6.0469840">
        <ele>818.5</ele>
        <time>2019-09-04T11:17:16Z</time>
      </trkpt>
      <trkpt lat="43.1074870" lon="-6.0470040">
        <ele>818.5</ele>
        <time>2019-09-04T11:17:17Z</time>
      </trkpt>
      <trkpt lat="43.1075690" lon="-6.0470300">
        <ele>816.7</ele>
        <time>2019-09-04T11:17:18Z</time>
      </trkpt>
      <trkpt lat="43.1076610" lon="-6.0470600">
        <ele>816.7</ele>
        <time>2019-09-04T11:17:19Z</time>
      </trkpt>
      <trkpt lat="43.1077630" lon="-6.0470950">
        <ele>816.7</ele>
        <time>2019-09-04T11:17:20Z</time>
      </trkpt>
      <trkpt lat="43.1078600" lon="-6.0471270">
        <ele>815.2</ele>
        <time>2019-09-04T11:17:21Z</time>
      </trkpt>
      <trkpt lat="43.1079680" lon="-6.0471600">
        <ele>815.2</ele>
        <time>2019-09-04T11:17:22Z</time>
      </trkpt>
      <trkpt lat="43.1080700" lon="-6.0471940">
        <ele>815.2</ele>
        <time>2019-09-04T11:17:23Z</time>
      </trkpt>
      <trkpt lat="43.1081830" lon="-6.0472360">
        <ele>813.9</ele>
        <time>2019-09-04T11:17:24Z</time>
      </trkpt>
      <trkpt lat="43.1082850" lon="-6.0472790">
        <ele>813.9</ele>
        <time>2019-09-04T11:17:25Z</time>
      </trkpt>
      <trkpt lat="43.1083930" lon="-6.0473250">
        <ele>812.2</ele>
        <time>2019-09-04T11:17:26Z</time>
      </trkpt>
      <trkpt lat="43.1084950" lon="-6.0473730">
        <ele>812.2</ele>
        <time>2019-09-04T11:17:27Z</time>
      </trkpt>
      <trkpt lat="43.1086030" lon="-6.0474140">
        <ele>810.3</ele>
        <time>2019-09-04T11:17:28Z</time>
      </trkpt>
      <trkpt lat="43.1087210" lon="-6.0474490">
        <ele>810.3</ele>
        <time>2019-09-04T11:17:29Z</time>
      </trkpt>
      <trkpt lat="43.1088380" lon="-6.0474730">
        <ele>808.2</ele>
        <time>2019-09-04T11:17:30Z</time>
      </trkpt>
      <trkpt lat="43.1089510" lon="-6.0474890">
        <ele>808.2</ele>
        <time>2019-09-04T11:17:31Z</time>
      </trkpt>
      <trkpt lat="43.1090690" lon="-6.0474980">
        <ele>806.2</ele>
        <time>2019-09-04T11:17:32Z</time>
      </trkpt>
      <trkpt lat="43.1091870" lon="-6.0475030">
        <ele>806.2</ele>
        <time>2019-09-04T11:17:33Z</time>
      </trkpt>
      <trkpt lat="43.1092990" lon="-6.0475050">
        <ele>804.3</ele>
        <time>2019-09-04T11:17:34Z</time>
      </trkpt>
      <trkpt lat="43.1094170" lon="-6.0475100">
        <ele>803.0</ele>
        <time>2019-09-04T11:17:35Z</time>
      </trkpt>
      <trkpt lat="43.1095350" lon="-6.0475200">
        <ele>803.0</ele>
        <time>2019-09-04T11:17:36Z</time>
      </trkpt>
      <trkpt lat="43.1096470" lon="-6.0475330">
        <ele>801.0</ele>
        <time>2019-09-04T11:17:37Z</time>
      </trkpt>
      <trkpt lat="43.1097700" lon="-6.0475510">
        <ele>801.0</ele>
        <time>2019-09-04T11:17:38Z</time>
      </trkpt>
      <trkpt lat="43.1098880" lon="-6.0475750">
        <ele>799.2</ele>
        <time>2019-09-04T11:17:39Z</time>
      </trkpt>
      <trkpt lat="43.1100010" lon="-6.0476060">
        <ele>798.0</ele>
        <time>2019-09-04T11:17:40Z</time>
      </trkpt>
      <trkpt lat="43.1101180" lon="-6.0476440">
        <ele>798.0</ele>
        <time>2019-09-04T11:17:41Z</time>
      </trkpt>
      <trkpt lat="43.1102310" lon="-6.0476870">
        <ele>796.1</ele>
        <time>2019-09-04T11:17:42Z</time>
      </trkpt>
      <trkpt lat="43.1103540" lon="-6.0477320">
        <ele>796.1</ele>
        <time>2019-09-04T11:17:43Z</time>
      </trkpt>
      <trkpt lat="43.1104670" lon="-6.0477760">
        <ele>794.3</ele>
        <time>2019-09-04T11:17:44Z</time>
      </trkpt>
      <trkpt lat="43.1105890" lon="-6.0478280">
        <ele>794.3</ele>
        <time>2019-09-04T11:17:45Z</time>
      </trkpt>
      <trkpt lat="43.1107070" lon="-6.0478840">
        <ele>792.8</ele>
        <time>2019-09-04T11:17:46Z</time>
      </trkpt>
      <trkpt lat="43.1108200" lon="-6.0479460">
        <ele>792.8</ele>
        <time>2019-09-04T11:17:47Z</time>
      </trkpt>
      <trkpt lat="43.1110550" lon="-6.0480420">
        <ele>791.4</ele>
        <time>2019-09-04T11:17:49Z</time>
      </trkpt>
      <trkpt lat="43.1112650" lon="-6.0481590">
        <ele>789.6</ele>
        <time>2019-09-04T11:17:51Z</time>
      </trkpt>
      <trkpt lat="43.1114650" lon="-6.0482940">
        <ele>787.8</ele>
        <time>2019-09-04T11:17:53Z</time>
      </trkpt>
      <trkpt lat="43.1116850" lon="-6.0484250">
        <ele>785.6</ele>
        <time>2019-09-04T11:17:55Z</time>
      </trkpt>
      <trkpt lat="43.1117980" lon="-6.0484790">
        <ele>783.9</ele>
        <time>2019-09-04T11:17:56Z</time>
      </trkpt>
      <trkpt lat="43.1120180" lon="-6.0485610">
        <ele>781.8</ele>
        <time>2019-09-04T11:17:58Z</time>
      </trkpt>
      <trkpt lat="43.1121410" lon="-6.0485920">
        <ele>781.8</ele>
        <time>2019-09-04T11:17:59Z</time>
      </trkpt>
      <trkpt lat="43.1122590" lon="-6.0486200">
        <ele>780.1</ele>
        <time>2019-09-04T11:18:00Z</time>
      </trkpt>
      <trkpt lat="43.1125040" lon="-6.0486730">
        <ele>778.8</ele>
        <time>2019-09-04T11:18:02Z</time>
      </trkpt>
      <trkpt lat="43.1127450" lon="-6.0487430">
        <ele>777.3</ele>
        <time>2019-09-04T11:18:04Z</time>
      </trkpt>
      <trkpt lat="43.1129750" lon="-6.0488220">
        <ele>775.3</ele>
        <time>2019-09-04T11:18:06Z</time>
      </trkpt>
      <trkpt lat="43.1131960" lon="-6.0489110">
        <ele>773.6</ele>
        <time>2019-09-04T11:18:08Z</time>
      </trkpt>
      <trkpt lat="43.1133900" lon="-6.0490340">
        <ele>771.6</ele>
        <time>2019-09-04T11:18:10Z</time>
      </trkpt>
      <trkpt lat="43.1135850" lon="-6.0491760">
        <ele>768.9</ele>
        <time>2019-09-04T11:18:12Z</time>
      </trkpt>
      <trkpt lat="43.1138050" lon="-6.0493340">
        <ele>766.2</ele>
        <time>2019-09-04T11:18:14Z</time>
      </trkpt>
      <trkpt lat="43.1140350" lon="-6.0494950">
        <ele>763.8</ele>
        <time>2019-09-04T11:18:16Z</time>
      </trkpt>
      <trkpt lat="43.1142810" lon="-6.0496400">
        <ele>761.4</ele>
        <time>2019-09-04T11:18:18Z</time>
      </trkpt>
      <trkpt lat="43.1145220" lon="-6.0497710">
        <ele>758.8</ele>
        <time>2019-09-04T11:18:20Z</time>
      </trkpt>
      <trkpt lat="43.1147520" lon="-6.0498860">
        <ele>756.1</ele>
        <time>2019-09-04T11:18:22Z</time>
      </trkpt>
      <trkpt lat="43.1148650" lon="-6.0499320">
        <ele>754.8</ele>
        <time>2019-09-04T11:18:23Z</time>
      </trkpt>
      <trkpt lat="43.1151000" lon="-6.0500060">
        <ele>752.1</ele>
        <time>2019-09-04T11:18:25Z</time>
      </trkpt>
      <trkpt lat="43.1153410" lon="-6.0500630">
        <ele>748.9</ele>
        <time>2019-09-04T11:18:27Z</time>
      </trkpt>
      <trkpt lat="43.1155610" lon="-6.0500960">
        <ele>747.6</ele>
        <time>2019-09-04T11:18:29Z</time>
      </trkpt>
      <trkpt lat="43.1156630" lon="-6.0501000">
        <ele>747.6</ele>
        <time>2019-09-04T11:18:30Z</time>
      </trkpt>
      <trkpt lat="43.1158730" lon="-6.0500880">
        <ele>746.1</ele>
        <time>2019-09-04T11:18:32Z</time>
      </trkpt>
      <trkpt lat="43.1160830" lon="-6.0500920">
        <ele>746.1</ele>
        <time>2019-09-04T11:18:34Z</time>
      </trkpt>
      <trkpt lat="43.1162930" lon="-6.0501250">
        <ele>744.8</ele>
        <time>2019-09-04T11:18:36Z</time>
      </trkpt>
      <trkpt lat="43.1165130" lon="-6.0501870">
        <ele>744.8</ele>
        <time>2019-09-04T11:18:38Z</time>
      </trkpt>
      <trkpt lat="43.1167490" lon="-6.0502760">
        <ele>744.8</ele>
        <time>2019-09-04T11:18:40Z</time>
      </trkpt>
      <trkpt lat="43.1170100" lon="-6.0503720">
        <ele>744.8</ele>
        <time>2019-09-04T11:18:42Z</time>
      </trkpt>
      <trkpt lat="43.1172810" lon="-6.0504670">
        <ele>744.8</ele>
        <time>2019-09-04T11:18:44Z</time>
      </trkpt>
      <trkpt lat="43.1175420" lon="-6.0505590">
        <ele>743.7</ele>
        <time>2019-09-04T11:18:46Z</time>
      </trkpt>
      <trkpt lat="43.1178290" lon="-6.0506550">
        <ele>735.9</ele>
        <time>2019-09-04T11:18:48Z</time>
      </trkpt>
      <trkpt lat="43.1180900" lon="-6.0507460">
        <ele>731.0</ele>
        <time>2019-09-04T11:18:50Z</time>
      </trkpt>
      <trkpt lat="43.1183560" lon="-6.0508150">
        <ele>727.7</ele>
        <time>2019-09-04T11:18:52Z</time>
      </trkpt>
      <trkpt lat="43.1184790" lon="-6.0508360">
        <ele>727.7</ele>
        <time>2019-09-04T11:18:53Z</time>
      </trkpt>
      <trkpt lat="43.1187150" lon="-6.0508990">
        <ele>725.8</ele>
        <time>2019-09-04T11:18:55Z</time>
      </trkpt>
      <trkpt lat="43.1189150" lon="-6.0509710">
        <ele>724.6</ele>
        <time>2019-09-04T11:18:57Z</time>
      </trkpt>
      <trkpt lat="43.1190070" lon="-6.0510020">
        <ele>720.3</ele>
        <time>2019-09-04T11:18:58Z</time>
      </trkpt>
      <trkpt lat="43.1200050" lon="-6.0516150">
        <ele>717.3</ele>
        <time>2019-09-04T11:19:09Z</time>
      </trkpt>
      <trkpt lat="43.1200050" lon="-6.0516450">
        <ele>717.3</ele>
        <time>2019-09-04T11:19:10Z</time>
      </trkpt>
      <trkpt lat="43.1200920" lon="-6.0517000">
        <ele>717.3</ele>
        <time>2019-09-04T11:19:12Z</time>
      </trkpt>
      <trkpt lat="43.1201590" lon="-6.0517450">
        <ele>717.3</ele>
        <time>2019-09-04T11:19:13Z</time>
      </trkpt>
      <trkpt lat="43.1202250" lon="-6.0517910">
        <ele>717.3</ele>
        <time>2019-09-04T11:19:14Z</time>
      </trkpt>
      <trkpt lat="43.1203070" lon="-6.0518440">
        <ele>717.3</ele>
        <time>2019-09-04T11:19:15Z</time>
      </trkpt>
      <trkpt lat="43.1203890" lon="-6.0518920">
        <ele>717.3</ele>
        <time>2019-09-04T11:19:16Z</time>
      </trkpt>
      <trkpt lat="43.1204860" lon="-6.0519430">
        <ele>717.3</ele>
        <time>2019-09-04T11:19:17Z</time>
      </trkpt>
      <trkpt lat="43.1205890" lon="-6.0519960">
        <ele>717.3</ele>
        <time>2019-09-04T11:19:18Z</time>
      </trkpt>
      <trkpt lat="43.1206910" lon="-6.0520570">
        <ele>717.3</ele>
        <time>2019-09-04T11:19:19Z</time>
      </trkpt>
      <trkpt lat="43.1207780" lon="-6.0521190">
        <ele>716.0</ele>
        <time>2019-09-04T11:19:20Z</time>
      </trkpt>
      <trkpt lat="43.1209630" lon="-6.0522820">
        <ele>716.0</ele>
        <time>2019-09-04T11:19:22Z</time>
      </trkpt>
      <trkpt lat="43.1210500" lon="-6.0523650">
        <ele>716.0</ele>
        <time>2019-09-04T11:19:23Z</time>
      </trkpt>
      <trkpt lat="43.1211320" lon="-6.0524570">
        <ele>716.0</ele>
        <time>2019-09-04T11:19:24Z</time>
      </trkpt>
      <trkpt lat="43.1212130" lon="-6.0525640">
        <ele>716.0</ele>
        <time>2019-09-04T11:19:25Z</time>
      </trkpt>
      <trkpt lat="43.1213000" lon="-6.0526760">
        <ele>716.0</ele>
        <time>2019-09-04T11:19:26Z</time>
      </trkpt>
      <trkpt lat="43.1213720" lon="-6.0527810">
        <ele>716.0</ele>
        <time>2019-09-04T11:19:27Z</time>
      </trkpt>
      <trkpt lat="43.1214390" lon="-6.0529000">
        <ele>716.0</ele>
        <time>2019-09-04T11:19:28Z</time>
      </trkpt>
      <trkpt lat="43.1215000" lon="-6.0530150">
        <ele>716.0</ele>
        <time>2019-09-04T11:19:29Z</time>
      </trkpt>
      <trkpt lat="43.1215620" lon="-6.0531410">
        <ele>716.0</ele>
        <time>2019-09-04T11:19:30Z</time>
      </trkpt>
      <trkpt lat="43.1216180" lon="-6.0532670">
        <ele>716.0</ele>
        <time>2019-09-04T11:19:31Z</time>
      </trkpt>
      <trkpt lat="43.1216690" lon="-6.0533940">
        <ele>716.0</ele>
        <time>2019-09-04T11:19:32Z</time>
      </trkpt>
      <trkpt lat="43.1217100" lon="-6.0535160">
        <ele>716.0</ele>
        <time>2019-09-04T11:19:33Z</time>
      </trkpt>
      <trkpt lat="43.1217410" lon="-6.0536420">
        <ele>714.0</ele>
        <time>2019-09-04T11:19:34Z</time>
      </trkpt>
      <trkpt lat="43.1217660" lon="-6.0537740">
        <ele>714.0</ele>
        <time>2019-09-04T11:19:35Z</time>
      </trkpt>
      <trkpt lat="43.1217970" lon="-6.0539180">
        <ele>712.4</ele>
        <time>2019-09-04T11:19:36Z</time>
      </trkpt>
      <trkpt lat="43.1218280" lon="-6.0540550">
        <ele>712.4</ele>
        <time>2019-09-04T11:19:37Z</time>
      </trkpt>
      <trkpt lat="43.1218430" lon="-6.0542130">
        <ele>710.8</ele>
        <time>2019-09-04T11:19:38Z</time>
      </trkpt>
      <trkpt lat="43.1218740" lon="-6.0543190">
        <ele>710.8</ele>
        <time>2019-09-04T11:19:39Z</time>
      </trkpt>
      <trkpt lat="43.1219150" lon="-6.0544270">
        <ele>709.1</ele>
        <time>2019-09-04T11:19:40Z</time>
      </trkpt>
      <trkpt lat="43.1219610" lon="-6.0545340">
        <ele>709.1</ele>
        <time>2019-09-04T11:19:41Z</time>
      </trkpt>
      <trkpt lat="43.1220170" lon="-6.0546390">
        <ele>709.1</ele>
        <time>2019-09-04T11:19:42Z</time>
      </trkpt>
      <trkpt lat="43.1220680" lon="-6.0547360">
        <ele>709.1</ele>
        <time>2019-09-04T11:19:43Z</time>
      </trkpt>
      <trkpt lat="43.1221300" lon="-6.0548400">
        <ele>707.8</ele>
        <time>2019-09-04T11:19:44Z</time>
      </trkpt>
      <trkpt lat="43.1222020" lon="-6.0549390">
        <ele>707.8</ele>
        <time>2019-09-04T11:19:45Z</time>
      </trkpt>
      <trkpt lat="43.1222680" lon="-6.0550340">
        <ele>707.8</ele>
        <time>2019-09-04T11:19:46Z</time>
      </trkpt>
      <trkpt lat="43.1223400" lon="-6.0551260">
        <ele>707.8</ele>
        <time>2019-09-04T11:19:47Z</time>
      </trkpt>
      <trkpt lat="43.1224730" lon="-6.0553050">
        <ele>707.8</ele>
        <time>2019-09-04T11:19:49Z</time>
      </trkpt>
      <trkpt lat="43.1225340" lon="-6.0553920">
        <ele>707.8</ele>
        <time>2019-09-04T11:19:50Z</time>
      </trkpt>
      <trkpt lat="43.1225910" lon="-6.0554840">
        <ele>707.8</ele>
        <time>2019-09-04T11:19:51Z</time>
      </trkpt>
      <trkpt lat="43.1226520" lon="-6.0555700">
        <ele>707.8</ele>
        <time>2019-09-04T11:19:52Z</time>
      </trkpt>
      <trkpt lat="43.1227140" lon="-6.0556560">
        <ele>707.8</ele>
        <time>2019-09-04T11:19:53Z</time>
      </trkpt>
      <trkpt lat="43.1227750" lon="-6.0557400">
        <ele>707.8</ele>
        <time>2019-09-04T11:19:54Z</time>
      </trkpt>
      <trkpt lat="43.1228310" lon="-6.0558230">
        <ele>707.8</ele>
        <time>2019-09-04T11:19:55Z</time>
      </trkpt>
      <trkpt lat="43.1228830" lon="-6.0558990">
        <ele>707.8</ele>
        <time>2019-09-04T11:19:56Z</time>
      </trkpt>
      <trkpt lat="43.1229340" lon="-6.0559760">
        <ele>707.8</ele>
        <time>2019-09-04T11:19:57Z</time>
      </trkpt>
      <trkpt lat="43.1229800" lon="-6.0560560">
        <ele>707.8</ele>
        <time>2019-09-04T11:19:58Z</time>
      </trkpt>
      <trkpt lat="43.1230360" lon="-6.0561320">
        <ele>707.8</ele>
        <time>2019-09-04T11:19:59Z</time>
      </trkpt>
      <trkpt lat="43.1230820" lon="-6.0562020">
        <ele>707.8</ele>
        <time>2019-09-04T11:20:00Z</time>
      </trkpt>
      <trkpt lat="43.1231230" lon="-6.0562720">
        <ele>707.8</ele>
        <time>2019-09-04T11:20:01Z</time>
      </trkpt>
      <trkpt lat="43.1231690" lon="-6.0563400">
        <ele>707.8</ele>
        <time>2019-09-04T11:20:02Z</time>
      </trkpt>
      <trkpt lat="43.1232100" lon="-6.0564150">
        <ele>707.8</ele>
        <time>2019-09-04T11:20:03Z</time>
      </trkpt>
      <trkpt lat="43.1232510" lon="-6.0564870">
        <ele>707.8</ele>
        <time>2019-09-04T11:20:04Z</time>
      </trkpt>
      <trkpt lat="43.1232870" lon="-6.0565570">
        <ele>707.8</ele>
        <time>2019-09-04T11:20:05Z</time>
      </trkpt>
      <trkpt lat="43.1233230" lon="-6.0566250">
        <ele>706.7</ele>
        <time>2019-09-04T11:20:06Z</time>
      </trkpt>
      <trkpt lat="43.1233540" lon="-6.0566920">
        <ele>706.7</ele>
        <time>2019-09-04T11:20:07Z</time>
      </trkpt>
      <trkpt lat="43.1233840" lon="-6.0567560">
        <ele>706.7</ele>
        <time>2019-09-04T11:20:08Z</time>
      </trkpt>
      <trkpt lat="43.1234150" lon="-6.0568210">
        <ele>706.7</ele>
        <time>2019-09-04T11:20:09Z</time>
      </trkpt>
      <trkpt lat="43.1234460" lon="-6.0568820">
        <ele>706.7</ele>
        <time>2019-09-04T11:20:10Z</time>
      </trkpt>
      <trkpt lat="43.1234760" lon="-6.0569500">
        <ele>706.7</ele>
        <time>2019-09-04T11:20:11Z</time>
      </trkpt>
      <trkpt lat="43.1234970" lon="-6.0570180">
        <ele>706.7</ele>
        <time>2019-09-04T11:20:12Z</time>
      </trkpt>
      <trkpt lat="43.1235170" lon="-6.0570850">
        <ele>706.7</ele>
        <time>2019-09-04T11:20:13Z</time>
      </trkpt>
      <trkpt lat="43.1235330" lon="-6.0571540">
        <ele>706.7</ele>
        <time>2019-09-04T11:20:14Z</time>
      </trkpt>
      <trkpt lat="43.1235530" lon="-6.0572250">
        <ele>706.7</ele>
        <time>2019-09-04T11:20:15Z</time>
      </trkpt>
      <trkpt lat="43.1235690" lon="-6.0572980">
        <ele>706.7</ele>
        <time>2019-09-04T11:20:16Z</time>
      </trkpt>
      <trkpt lat="43.1235890" lon="-6.0573770">
        <ele>706.7</ele>
        <time>2019-09-04T11:20:17Z</time>
      </trkpt>
      <trkpt lat="43.1236100" lon="-6.0574530">
        <ele>706.7</ele>
        <time>2019-09-04T11:20:18Z</time>
      </trkpt>
      <trkpt lat="43.1236300" lon="-6.0575250">
        <ele>706.7</ele>
        <time>2019-09-04T11:20:19Z</time>
      </trkpt>
      <trkpt lat="43.1236560" lon="-6.0576010">
        <ele>706.7</ele>
        <time>2019-09-04T11:20:20Z</time>
      </trkpt>
      <trkpt lat="43.1236810" lon="-6.0576680">
        <ele>706.7</ele>
        <time>2019-09-04T11:20:21Z</time>
      </trkpt>
      <trkpt lat="43.1237120" lon="-6.0577360">
        <ele>706.7</ele>
        <time>2019-09-04T11:20:22Z</time>
      </trkpt>
      <trkpt lat="43.1237480" lon="-6.0578050">
        <ele>706.7</ele>
        <time>2019-09-04T11:20:23Z</time>
      </trkpt>
      <trkpt lat="43.1237890" lon="-6.0578730">
        <ele>706.7</ele>
        <time>2019-09-04T11:20:24Z</time>
      </trkpt>
      <trkpt lat="43.1238300" lon="-6.0579400">
        <ele>706.7</ele>
        <time>2019-09-04T11:20:25Z</time>
      </trkpt>
      <trkpt lat="43.1238660" lon="-6.0580050">
        <ele>709.3</ele>
        <time>2019-09-04T11:20:26Z</time>
      </trkpt>
      <trkpt lat="43.1239070" lon="-6.0580740">
        <ele>710.9</ele>
        <time>2019-09-04T11:20:27Z</time>
      </trkpt>
      <trkpt lat="43.1239480" lon="-6.0581380">
        <ele>710.9</ele>
        <time>2019-09-04T11:20:28Z</time>
      </trkpt>
      <trkpt lat="43.1239880" lon="-6.0582050">
        <ele>712.8</ele>
        <time>2019-09-04T11:20:29Z</time>
      </trkpt>
      <trkpt lat="43.1240290" lon="-6.0582730">
        <ele>712.8</ele>
        <time>2019-09-04T11:20:30Z</time>
      </trkpt>
      <trkpt lat="43.1240700" lon="-6.0583420">
        <ele>712.8</ele>
        <time>2019-09-04T11:20:31Z</time>
      </trkpt>
      <trkpt lat="43.1241060" lon="-6.0584150">
        <ele>712.8</ele>
        <time>2019-09-04T11:20:32Z</time>
      </trkpt>
      <trkpt lat="43.1241470" lon="-6.0584860">
        <ele>712.8</ele>
        <time>2019-09-04T11:20:33Z</time>
      </trkpt>
      <trkpt lat="43.1241930" lon="-6.0585590">
        <ele>712.8</ele>
        <time>2019-09-04T11:20:34Z</time>
      </trkpt>
      <trkpt lat="43.1242390" lon="-6.0586310">
        <ele>712.8</ele>
        <time>2019-09-04T11:20:35Z</time>
      </trkpt>
      <trkpt lat="43.1242800" lon="-6.0587060">
        <ele>712.8</ele>
        <time>2019-09-04T11:20:36Z</time>
      </trkpt>
      <trkpt lat="43.1243160" lon="-6.0587820">
        <ele>712.8</ele>
        <time>2019-09-04T11:20:37Z</time>
      </trkpt>
      <trkpt lat="43.1243570" lon="-6.0588590">
        <ele>713.9</ele>
        <time>2019-09-04T11:20:38Z</time>
      </trkpt>
      <trkpt lat="43.1243930" lon="-6.0589410">
        <ele>713.9</ele>
        <time>2019-09-04T11:20:39Z</time>
      </trkpt>
      <trkpt lat="43.1244290" lon="-6.0590210">
        <ele>713.9</ele>
        <time>2019-09-04T11:20:40Z</time>
      </trkpt>
      <trkpt lat="43.1244650" lon="-6.0590990">
        <ele>715.6</ele>
        <time>2019-09-04T11:20:41Z</time>
      </trkpt>
      <trkpt lat="43.1245000" lon="-6.0591750">
        <ele>715.6</ele>
        <time>2019-09-04T11:20:42Z</time>
      </trkpt>
      <trkpt lat="43.1245360" lon="-6.0592480">
        <ele>715.6</ele>
        <time>2019-09-04T11:20:43Z</time>
      </trkpt>
      <trkpt lat="43.1245670" lon="-6.0593150">
        <ele>715.6</ele>
        <time>2019-09-04T11:20:44Z</time>
      </trkpt>
      <trkpt lat="43.1245980" lon="-6.0593810">
        <ele>716.8</ele>
        <time>2019-09-04T11:20:45Z</time>
      </trkpt>
      <trkpt lat="43.1246280" lon="-6.0594480">
        <ele>716.8</ele>
        <time>2019-09-04T11:20:46Z</time>
      </trkpt>
      <trkpt lat="43.1246690" lon="-6.0595900">
        <ele>716.8</ele>
        <time>2019-09-04T11:20:48Z</time>
      </trkpt>
      <trkpt lat="43.1246950" lon="-6.0597130">
        <ele>716.8</ele>
        <time>2019-09-04T11:20:50Z</time>
      </trkpt>
      <trkpt lat="43.1247000" lon="-6.0598050">
        <ele>716.8</ele>
        <time>2019-09-04T11:20:52Z</time>
      </trkpt>
      <trkpt lat="43.1247050" lon="-6.0598580">
        <ele>716.8</ele>
        <time>2019-09-04T11:20:54Z</time>
      </trkpt>
      <trkpt lat="43.1247460" lon="-6.0599520">
        <ele>718.0</ele>
        <time>2019-09-04T11:22:33Z</time>
      </trkpt>
      <trkpt lat="43.1247870" lon="-6.0600610">
        <ele>718.0</ele>
        <time>2019-09-04T11:22:36Z</time>
      </trkpt>
      <trkpt lat="43.1248330" lon="-6.0601390">
        <ele>718.0</ele>
        <time>2019-09-04T11:22:38Z</time>
      </trkpt>
      <trkpt lat="43.1249410" lon="-6.0602140">
        <ele>718.0</ele>
        <time>2019-09-04T11:22:41Z</time>
      </trkpt>
      <trkpt lat="43.1251100" lon="-6.0602420">
        <ele>715.7</ele>
        <time>2019-09-04T11:22:44Z</time>
      </trkpt>
      <trkpt lat="43.1252480" lon="-6.0602460">
        <ele>715.7</ele>
        <time>2019-09-04T11:22:46Z</time>
      </trkpt>
      <trkpt lat="43.1253300" lon="-6.0602340">
        <ele>715.7</ele>
        <time>2019-09-04T11:22:47Z</time>
      </trkpt>
      <trkpt lat="43.1254120" lon="-6.0602140">
        <ele>715.7</ele>
        <time>2019-09-04T11:22:48Z</time>
      </trkpt>
      <trkpt lat="43.1255710" lon="-6.0601640">
        <ele>715.7</ele>
        <time>2019-09-04T11:22:50Z</time>
      </trkpt>
      <trkpt lat="43.1257290" lon="-6.0601150">
        <ele>714.4</ele>
        <time>2019-09-04T11:22:52Z</time>
      </trkpt>
      <trkpt lat="43.1258880" lon="-6.0600950">
        <ele>713.0</ele>
        <time>2019-09-04T11:22:54Z</time>
      </trkpt>
      <trkpt lat="43.1260570" lon="-6.0601250">
        <ele>713.0</ele>
        <time>2019-09-04T11:22:56Z</time>
      </trkpt>
      <trkpt lat="43.1262310" lon="-6.0601730">
        <ele>711.8</ele>
        <time>2019-09-04T11:22:58Z</time>
      </trkpt>
      <trkpt lat="43.1264000" lon="-6.0602120">
        <ele>711.8</ele>
        <time>2019-09-04T11:23:00Z</time>
      </trkpt>
      <trkpt lat="43.1265690" lon="-6.0602440">
        <ele>710.2</ele>
        <time>2019-09-04T11:23:02Z</time>
      </trkpt>
      <trkpt lat="43.1267280" lon="-6.0602920">
        <ele>708.7</ele>
        <time>2019-09-04T11:23:04Z</time>
      </trkpt>
      <trkpt lat="43.1268560" lon="-6.0603870">
        <ele>708.7</ele>
        <time>2019-09-04T11:23:06Z</time>
      </trkpt>
      <trkpt lat="43.1269320" lon="-6.0605360">
        <ele>707.5</ele>
        <time>2019-09-04T11:23:08Z</time>
      </trkpt>
      <trkpt lat="43.1269480" lon="-6.0606180">
        <ele>707.5</ele>
        <time>2019-09-04T11:23:09Z</time>
      </trkpt>
      <trkpt lat="43.1269220" lon="-6.0608010">
        <ele>707.5</ele>
        <time>2019-09-04T11:23:11Z</time>
      </trkpt>
      <trkpt lat="43.1268350" lon="-6.0609790">
        <ele>705.9</ele>
        <time>2019-09-04T11:23:13Z</time>
      </trkpt>
      <trkpt lat="43.1267790" lon="-6.0610590">
        <ele>705.9</ele>
        <time>2019-09-04T11:23:14Z</time>
      </trkpt>
      <trkpt lat="43.1266300" lon="-6.0611980">
        <ele>705.9</ele>
        <time>2019-09-04T11:23:16Z</time>
      </trkpt>
      <trkpt lat="43.1264820" lon="-6.0613180">
        <ele>705.9</ele>
        <time>2019-09-04T11:23:18Z</time>
      </trkpt>
      <trkpt lat="43.1263390" lon="-6.0614300">
        <ele>704.8</ele>
        <time>2019-09-04T11:23:20Z</time>
      </trkpt>
      <trkpt lat="43.1261900" lon="-6.0615290">
        <ele>704.8</ele>
        <time>2019-09-04T11:23:22Z</time>
      </trkpt>
      <trkpt lat="43.1261240" lon="-6.0615810">
        <ele>704.8</ele>
        <time>2019-09-04T11:23:23Z</time>
      </trkpt>
      <trkpt lat="43.1259900" lon="-6.0616920">
        <ele>704.8</ele>
        <time>2019-09-04T11:23:25Z</time>
      </trkpt>
      <trkpt lat="43.1258620" lon="-6.0618090">
        <ele>704.8</ele>
        <time>2019-09-04T11:23:27Z</time>
      </trkpt>
      <trkpt lat="43.1257960" lon="-6.0618690">
        <ele>704.8</ele>
        <time>2019-09-04T11:23:28Z</time>
      </trkpt>
      <trkpt lat="43.1256630" lon="-6.0619940">
        <ele>704.8</ele>
        <time>2019-09-04T11:23:30Z</time>
      </trkpt>
      <trkpt lat="43.1255550" lon="-6.0621370">
        <ele>704.8</ele>
        <time>2019-09-04T11:23:32Z</time>
      </trkpt>
      <trkpt lat="43.1254630" lon="-6.0623070">
        <ele>703.3</ele>
        <time>2019-09-04T11:23:34Z</time>
      </trkpt>
      <trkpt lat="43.1253960" lon="-6.0625110">
        <ele>703.3</ele>
        <time>2019-09-04T11:23:36Z</time>
      </trkpt>
      <trkpt lat="43.1253450" lon="-6.0627220">
        <ele>702.0</ele>
        <time>2019-09-04T11:23:38Z</time>
      </trkpt>
      <trkpt lat="43.1252990" lon="-6.0629600">
        <ele>702.0</ele>
        <time>2019-09-04T11:23:40Z</time>
      </trkpt>
      <trkpt lat="43.1252530" lon="-6.0631990">
        <ele>702.0</ele>
        <time>2019-09-04T11:23:42Z</time>
      </trkpt>
      <trkpt lat="43.1251970" lon="-6.0634500">
        <ele>702.0</ele>
        <time>2019-09-04T11:23:44Z</time>
      </trkpt>
      <trkpt lat="43.1251660" lon="-6.0637280">
        <ele>702.0</ele>
        <time>2019-09-04T11:23:46Z</time>
      </trkpt>
      <trkpt lat="43.1251660" lon="-6.0638670">
        <ele>700.8</ele>
        <time>2019-09-04T11:23:47Z</time>
      </trkpt>
      <trkpt lat="43.1251870" lon="-6.0641430">
        <ele>700.8</ele>
        <time>2019-09-04T11:23:49Z</time>
      </trkpt>
      <trkpt lat="43.1252120" lon="-6.0642800">
        <ele>699.6</ele>
        <time>2019-09-04T11:23:50Z</time>
      </trkpt>
      <trkpt lat="43.1252740" lon="-6.0645770">
        <ele>698.4</ele>
        <time>2019-09-04T11:23:52Z</time>
      </trkpt>
      <trkpt lat="43.1252990" lon="-6.0647170">
        <ele>698.4</ele>
        <time>2019-09-04T11:23:53Z</time>
      </trkpt>
      <trkpt lat="43.1253610" lon="-6.0650340">
        <ele>697.0</ele>
        <time>2019-09-04T11:23:55Z</time>
      </trkpt>
      <trkpt lat="43.1253860" lon="-6.0651850">
        <ele>695.8</ele>
        <time>2019-09-04T11:23:56Z</time>
      </trkpt>
      <trkpt lat="43.1254480" lon="-6.0655110">
        <ele>694.2</ele>
        <time>2019-09-04T11:23:58Z</time>
      </trkpt>
      <trkpt lat="43.1255190" lon="-6.0658310">
        <ele>692.9</ele>
        <time>2019-09-04T11:24:00Z</time>
      </trkpt>
      <trkpt lat="43.1255860" lon="-6.0661470">
        <ele>691.6</ele>
        <time>2019-09-04T11:24:02Z</time>
      </trkpt>
      <trkpt lat="43.1256580" lon="-6.0664480">
        <ele>689.7</ele>
        <time>2019-09-04T11:24:04Z</time>
      </trkpt>
      <trkpt lat="43.1257290" lon="-6.0667240">
        <ele>688.2</ele>
        <time>2019-09-04T11:24:06Z</time>
      </trkpt>
      <trkpt lat="43.1258270" lon="-6.0669780">
        <ele>686.6</ele>
        <time>2019-09-04T11:24:08Z</time>
      </trkpt>
      <trkpt lat="43.1259600" lon="-6.0671980">
        <ele>685.2</ele>
        <time>2019-09-04T11:24:10Z</time>
      </trkpt>
      <trkpt lat="43.1261180" lon="-6.0674070">
        <ele>683.7</ele>
        <time>2019-09-04T11:24:12Z</time>
      </trkpt>
      <trkpt lat="43.1262980" lon="-6.0675920">
        <ele>681.8</ele>
        <time>2019-09-04T11:24:14Z</time>
      </trkpt>
      <trkpt lat="43.1264870" lon="-6.0677340">
        <ele>679.9</ele>
        <time>2019-09-04T11:24:16Z</time>
      </trkpt>
      <trkpt lat="43.1266610" lon="-6.0678700">
        <ele>677.8</ele>
        <time>2019-09-04T11:24:18Z</time>
      </trkpt>
      <trkpt lat="43.1267940" lon="-6.0680670">
        <ele>676.4</ele>
        <time>2019-09-04T11:24:20Z</time>
      </trkpt>
      <trkpt lat="43.1268350" lon="-6.0681790">
        <ele>676.4</ele>
        <time>2019-09-04T11:24:21Z</time>
      </trkpt>
      <trkpt lat="43.1268660" lon="-6.0683010">
        <ele>676.4</ele>
        <time>2019-09-04T11:24:22Z</time>
      </trkpt>
      <trkpt lat="43.1269170" lon="-6.0685540">
        <ele>674.7</ele>
        <time>2019-09-04T11:24:24Z</time>
      </trkpt>
      <trkpt lat="43.1269430" lon="-6.0686940">
        <ele>673.5</ele>
        <time>2019-09-04T11:24:25Z</time>
      </trkpt>
      <trkpt lat="43.1270040" lon="-6.0689660">
        <ele>672.2</ele>
        <time>2019-09-04T11:24:27Z</time>
      </trkpt>
      <trkpt lat="43.1270960" lon="-6.0692330">
        <ele>670.8</ele>
        <time>2019-09-04T11:24:29Z</time>
      </trkpt>
      <trkpt lat="43.1271530" lon="-6.0693700">
        <ele>670.8</ele>
        <time>2019-09-04T11:24:30Z</time>
      </trkpt>
      <trkpt lat="43.1272760" lon="-6.0696260">
        <ele>669.6</ele>
        <time>2019-09-04T11:24:32Z</time>
      </trkpt>
      <trkpt lat="43.1274190" lon="-6.0698920">
        <ele>668.0</ele>
        <time>2019-09-04T11:24:34Z</time>
      </trkpt>
      <trkpt lat="43.1275720" lon="-6.0701470">
        <ele>666.5</ele>
        <time>2019-09-04T11:24:36Z</time>
      </trkpt>
      <trkpt lat="43.1277260" lon="-6.0703920">
        <ele>664.8</ele>
        <time>2019-09-04T11:24:38Z</time>
      </trkpt>
      <trkpt lat="43.1278750" lon="-6.0706510">
        <ele>663.7</ele>
        <time>2019-09-04T11:24:40Z</time>
      </trkpt>
      <trkpt lat="43.1280080" lon="-6.0708920">
        <ele>662.5</ele>
        <time>2019-09-04T11:24:42Z</time>
      </trkpt>
      <trkpt lat="43.1281560" lon="-6.0710660">
        <ele>660.6</ele>
        <time>2019-09-04T11:24:44Z</time>
      </trkpt>
      <trkpt lat="43.1283200" lon="-6.0711840">
        <ele>659.3</ele>
        <time>2019-09-04T11:24:46Z</time>
      </trkpt>
      <trkpt lat="43.1285200" lon="-6.0713360">
        <ele>658.1</ele>
        <time>2019-09-04T11:24:48Z</time>
      </trkpt>
      <trkpt lat="43.1286940" lon="-6.0715080">
        <ele>656.8</ele>
        <time>2019-09-04T11:24:50Z</time>
      </trkpt>
      <trkpt lat="43.1288520" lon="-6.0717150">
        <ele>655.5</ele>
        <time>2019-09-04T11:24:52Z</time>
      </trkpt>
      <trkpt lat="43.1290060" lon="-6.0719190">
        <ele>652.7</ele>
        <time>2019-09-04T11:24:54Z</time>
      </trkpt>
      <trkpt lat="43.1290880" lon="-6.0720190">
        <ele>652.7</ele>
        <time>2019-09-04T11:24:55Z</time>
      </trkpt>
      <trkpt lat="43.1292570" lon="-6.0722290">
        <ele>651.0</ele>
        <time>2019-09-04T11:24:57Z</time>
      </trkpt>
      <trkpt lat="43.1293490" lon="-6.0723250">
        <ele>649.8</ele>
        <time>2019-09-04T11:24:58Z</time>
      </trkpt>
      <trkpt lat="43.1295330" lon="-6.0725010">
        <ele>648.4</ele>
        <time>2019-09-04T11:25:00Z</time>
      </trkpt>
      <trkpt lat="43.1297380" lon="-6.0726690">
        <ele>647.1</ele>
        <time>2019-09-04T11:25:02Z</time>
      </trkpt>
      <trkpt lat="43.1299480" lon="-6.0728080">
        <ele>647.1</ele>
        <time>2019-09-04T11:25:04Z</time>
      </trkpt>
      <trkpt lat="43.1300610" lon="-6.0728780">
        <ele>645.1</ele>
        <time>2019-09-04T11:25:05Z</time>
      </trkpt>
      <trkpt lat="43.1302760" lon="-6.0730140">
        <ele>643.5</ele>
        <time>2019-09-04T11:25:07Z</time>
      </trkpt>
      <trkpt lat="43.1305060" lon="-6.0731570">
        <ele>641.8</ele>
        <time>2019-09-04T11:25:09Z</time>
      </trkpt>
      <trkpt lat="43.1307160" lon="-6.0732860">
        <ele>640.1</ele>
        <time>2019-09-04T11:25:11Z</time>
      </trkpt>
      <trkpt lat="43.1309520" lon="-6.0734040">
        <ele>638.0</ele>
        <time>2019-09-04T11:25:13Z</time>
      </trkpt>
      <trkpt lat="43.1310590" lon="-6.0734590">
        <ele>638.0</ele>
        <time>2019-09-04T11:25:14Z</time>
      </trkpt>
      <trkpt lat="43.1311620" lon="-6.0735150">
        <ele>636.1</ele>
        <time>2019-09-04T11:25:15Z</time>
      </trkpt>
      <trkpt lat="43.1312590" lon="-6.0735710">
        <ele>634.8</ele>
        <time>2019-09-04T11:25:16Z</time>
      </trkpt>
      <trkpt lat="43.1313460" lon="-6.0736340">
        <ele>634.8</ele>
        <time>2019-09-04T11:25:17Z</time>
      </trkpt>
      <trkpt lat="43.1314230" lon="-6.0737090">
        <ele>632.8</ele>
        <time>2019-09-04T11:25:18Z</time>
      </trkpt>
      <trkpt lat="43.1314890" lon="-6.0737850">
        <ele>632.8</ele>
        <time>2019-09-04T11:25:19Z</time>
      </trkpt>
      <trkpt lat="43.1315560" lon="-6.0738740">
        <ele>631.0</ele>
        <time>2019-09-04T11:25:20Z</time>
      </trkpt>
      <trkpt lat="43.1316170" lon="-6.0739580">
        <ele>631.0</ele>
        <time>2019-09-04T11:25:21Z</time>
      </trkpt>
      <trkpt lat="43.1316890" lon="-6.0740300">
        <ele>629.8</ele>
        <time>2019-09-04T11:25:22Z</time>
      </trkpt>
      <trkpt lat="43.1317660" lon="-6.0740860">
        <ele>629.8</ele>
        <time>2019-09-04T11:25:23Z</time>
      </trkpt>
      <trkpt lat="43.1318370" lon="-6.0741200">
        <ele>628.7</ele>
        <time>2019-09-04T11:25:24Z</time>
      </trkpt>
      <trkpt lat="43.1319300" lon="-6.0741390">
        <ele>628.7</ele>
        <time>2019-09-04T11:25:25Z</time>
      </trkpt>
      <trkpt lat="43.1320120" lon="-6.0741490">
        <ele>628.7</ele>
        <time>2019-09-04T11:25:26Z</time>
      </trkpt>
      <trkpt lat="43.1321040" lon="-6.0741530">
        <ele>627.3</ele>
        <time>2019-09-04T11:25:27Z</time>
      </trkpt>
      <trkpt lat="43.1322010" lon="-6.0741560">
        <ele>627.3</ele>
        <time>2019-09-04T11:25:28Z</time>
      </trkpt>
      <trkpt lat="43.1322930" lon="-6.0741610">
        <ele>627.3</ele>
        <time>2019-09-04T11:25:29Z</time>
      </trkpt>
      <trkpt lat="43.1323960" lon="-6.0741700">
        <ele>627.3</ele>
        <time>2019-09-04T11:25:30Z</time>
      </trkpt>
      <trkpt lat="43.1324980" lon="-6.0741810">
        <ele>627.3</ele>
        <time>2019-09-04T11:25:31Z</time>
      </trkpt>
      <trkpt lat="43.1325950" lon="-6.0741970">
        <ele>626.0</ele>
        <time>2019-09-04T11:25:32Z</time>
      </trkpt>
      <trkpt lat="43.1326980" lon="-6.0742160">
        <ele>626.0</ele>
        <time>2019-09-04T11:25:33Z</time>
      </trkpt>
      <trkpt lat="43.1327950" lon="-6.0742420">
        <ele>626.0</ele>
        <time>2019-09-04T11:25:34Z</time>
      </trkpt>
      <trkpt lat="43.1328970" lon="-6.0742800">
        <ele>626.0</ele>
        <time>2019-09-04T11:25:35Z</time>
      </trkpt>
      <trkpt lat="43.1329890" lon="-6.0743320">
        <ele>626.0</ele>
        <time>2019-09-04T11:25:36Z</time>
      </trkpt>
      <trkpt lat="43.1330710" lon="-6.0743840">
        <ele>626.0</ele>
        <time>2019-09-04T11:25:37Z</time>
      </trkpt>
      <trkpt lat="43.1331580" lon="-6.0744370">
        <ele>622.5</ele>
        <time>2019-09-04T11:25:38Z</time>
      </trkpt>
      <trkpt lat="43.1332450" lon="-6.0744780">
        <ele>620.8</ele>
        <time>2019-09-04T11:25:39Z</time>
      </trkpt>
      <trkpt lat="43.1333380" lon="-6.0745070">
        <ele>619.4</ele>
        <time>2019-09-04T11:25:40Z</time>
      </trkpt>
      <trkpt lat="43.1335120" lon="-6.0745080">
        <ele>617.4</ele>
        <time>2019-09-04T11:25:42Z</time>
      </trkpt>
      <trkpt lat="43.1336760" lon="-6.0744310">
        <ele>615.7</ele>
        <time>2019-09-04T11:25:44Z</time>
      </trkpt>
      <trkpt lat="43.1338390" lon="-6.0742990">
        <ele>614.4</ele>
        <time>2019-09-04T11:25:46Z</time>
      </trkpt>
      <trkpt lat="43.1340030" lon="-6.0741430">
        <ele>612.8</ele>
        <time>2019-09-04T11:25:48Z</time>
      </trkpt>
      <trkpt lat="43.1341720" lon="-6.0740190">
        <ele>611.6</ele>
        <time>2019-09-04T11:25:50Z</time>
      </trkpt>
      <trkpt lat="43.1343460" lon="-6.0739680">
        <ele>611.6</ele>
        <time>2019-09-04T11:25:52Z</time>
      </trkpt>
      <trkpt lat="43.1345250" lon="-6.0739610">
        <ele>610.1</ele>
        <time>2019-09-04T11:25:54Z</time>
      </trkpt>
      <trkpt lat="43.1347250" lon="-6.0739760">
        <ele>608.9</ele>
        <time>2019-09-04T11:25:56Z</time>
      </trkpt>
      <trkpt lat="43.1349200" lon="-6.0739960">
        <ele>608.9</ele>
        <time>2019-09-04T11:25:58Z</time>
      </trkpt>
      <trkpt lat="43.1350990" lon="-6.0740110">
        <ele>608.9</ele>
        <time>2019-09-04T11:26:00Z</time>
      </trkpt>
      <trkpt lat="43.1352880" lon="-6.0740170">
        <ele>608.9</ele>
        <time>2019-09-04T11:26:02Z</time>
      </trkpt>
      <trkpt lat="43.1354620" lon="-6.0740100">
        <ele>608.9</ele>
        <time>2019-09-04T11:26:04Z</time>
      </trkpt>
      <trkpt lat="43.1355490" lon="-6.0740010">
        <ele>608.9</ele>
        <time>2019-09-04T11:26:05Z</time>
      </trkpt>
      <trkpt lat="43.1357130" lon="-6.0739930">
        <ele>607.8</ele>
        <time>2019-09-04T11:26:07Z</time>
      </trkpt>
      <trkpt lat="43.1358720" lon="-6.0740240">
        <ele>607.8</ele>
        <time>2019-09-04T11:26:09Z</time>
      </trkpt>
      <trkpt lat="43.1359540" lon="-6.0740600">
        <ele>606.3</ele>
        <time>2019-09-04T11:26:10Z</time>
      </trkpt>
      <trkpt lat="43.1360200" lon="-6.0741000">
        <ele>606.3</ele>
        <time>2019-09-04T11:26:11Z</time>
      </trkpt>
      <trkpt lat="43.1361840" lon="-6.0742000">
        <ele>606.3</ele>
        <time>2019-09-04T11:26:13Z</time>
      </trkpt>
      <trkpt lat="43.1362660" lon="-6.0742510">
        <ele>605.0</ele>
        <time>2019-09-04T11:26:14Z</time>
      </trkpt>
      <trkpt lat="43.1364350" lon="-6.0743580">
        <ele>605.0</ele>
        <time>2019-09-04T11:26:16Z</time>
      </trkpt>
      <trkpt lat="43.1366140" lon="-6.0744610">
        <ele>603.6</ele>
        <time>2019-09-04T11:26:18Z</time>
      </trkpt>
      <trkpt lat="43.1367990" lon="-6.0745680">
        <ele>602.4</ele>
        <time>2019-09-04T11:26:20Z</time>
      </trkpt>
      <trkpt lat="43.1368910" lon="-6.0746220">
        <ele>602.4</ele>
        <time>2019-09-04T11:26:21Z</time>
      </trkpt>
      <trkpt lat="43.1370750" lon="-6.0747120">
        <ele>601.0</ele>
        <time>2019-09-04T11:26:23Z</time>
      </trkpt>
      <trkpt lat="43.1372800" lon="-6.0748010">
        <ele>601.0</ele>
        <time>2019-09-04T11:26:25Z</time>
      </trkpt>
      <trkpt lat="43.1374850" lon="-6.0748820">
        <ele>599.7</ele>
        <time>2019-09-04T11:26:27Z</time>
      </trkpt>
      <trkpt lat="43.1376950" lon="-6.0749450">
        <ele>598.4</ele>
        <time>2019-09-04T11:26:29Z</time>
      </trkpt>
      <trkpt lat="43.1379150" lon="-6.0750020">
        <ele>596.8</ele>
        <time>2019-09-04T11:26:31Z</time>
      </trkpt>
      <trkpt lat="43.1381150" lon="-6.0750570">
        <ele>595.6</ele>
        <time>2019-09-04T11:26:33Z</time>
      </trkpt>
      <trkpt lat="43.1382940" lon="-6.0751440">
        <ele>595.6</ele>
        <time>2019-09-04T11:26:35Z</time>
      </trkpt>
      <trkpt lat="43.1384520" lon="-6.0753060">
        <ele>594.1</ele>
        <time>2019-09-04T11:26:37Z</time>
      </trkpt>
      <trkpt lat="43.1385140" lon="-6.0754050">
        <ele>594.1</ele>
        <time>2019-09-04T11:26:38Z</time>
      </trkpt>
      <trkpt lat="43.1386320" lon="-6.0756260">
        <ele>592.5</ele>
        <time>2019-09-04T11:26:40Z</time>
      </trkpt>
      <trkpt lat="43.1387340" lon="-6.0758670">
        <ele>591.1</ele>
        <time>2019-09-04T11:26:42Z</time>
      </trkpt>
      <trkpt lat="43.1387800" lon="-6.0759890">
        <ele>591.1</ele>
        <time>2019-09-04T11:26:43Z</time>
      </trkpt>
      <trkpt lat="43.1388720" lon="-6.0762390">
        <ele>591.1</ele>
        <time>2019-09-04T11:26:45Z</time>
      </trkpt>
      <trkpt lat="43.1389540" lon="-6.0764830">
        <ele>589.9</ele>
        <time>2019-09-04T11:26:47Z</time>
      </trkpt>
      <trkpt lat="43.1390310" lon="-6.0767520">
        <ele>588.6</ele>
        <time>2019-09-04T11:26:49Z</time>
      </trkpt>
      <trkpt lat="43.1390980" lon="-6.0770270">
        <ele>588.6</ele>
        <time>2019-09-04T11:26:51Z</time>
      </trkpt>
      <trkpt lat="43.1391230" lon="-6.0771650">
        <ele>586.9</ele>
        <time>2019-09-04T11:26:52Z</time>
      </trkpt>
      <trkpt lat="43.1391540" lon="-6.0774410">
        <ele>586.9</ele>
        <time>2019-09-04T11:26:54Z</time>
      </trkpt>
      <trkpt lat="43.1391540" lon="-6.0777340">
        <ele>585.5</ele>
        <time>2019-09-04T11:26:56Z</time>
      </trkpt>
      <trkpt lat="43.1391230" lon="-6.0780190">
        <ele>583.9</ele>
        <time>2019-09-04T11:26:58Z</time>
      </trkpt>
      <trkpt lat="43.1390770" lon="-6.0783130">
        <ele>582.8</ele>
        <time>2019-09-04T11:27:00Z</time>
      </trkpt>
      <trkpt lat="43.1390210" lon="-6.0785850">
        <ele>582.8</ele>
        <time>2019-09-04T11:27:02Z</time>
      </trkpt>
      <trkpt lat="43.1389750" lon="-6.0788570">
        <ele>581.2</ele>
        <time>2019-09-04T11:27:04Z</time>
      </trkpt>
      <trkpt lat="43.1389590" lon="-6.0790960">
        <ele>579.8</ele>
        <time>2019-09-04T11:27:06Z</time>
      </trkpt>
      <trkpt lat="43.1390050" lon="-6.0793080">
        <ele>579.8</ele>
        <time>2019-09-04T11:27:08Z</time>
      </trkpt>
      <trkpt lat="43.1390920" lon="-6.0794900">
        <ele>578.2</ele>
        <time>2019-09-04T11:27:10Z</time>
      </trkpt>
      <trkpt lat="43.1392100" lon="-6.0796380">
        <ele>578.2</ele>
        <time>2019-09-04T11:27:12Z</time>
      </trkpt>
      <trkpt lat="43.1393080" lon="-6.0797360">
        <ele>576.9</ele>
        <time>2019-09-04T11:27:14Z</time>
      </trkpt>
      <trkpt lat="43.1393790" lon="-6.0797760">
        <ele>576.9</ele>
        <time>2019-09-04T11:27:16Z</time>
      </trkpt>
      <trkpt lat="43.1394460" lon="-6.0798020">
        <ele>575.6</ele>
        <time>2019-09-04T11:27:18Z</time>
      </trkpt>
      <trkpt lat="43.1395020" lon="-6.0798040">
        <ele>574.4</ele>
        <time>2019-09-04T11:27:20Z</time>
      </trkpt>
      <trkpt lat="43.1395840" lon="-6.0798340">
        <ele>573.2</ele>
        <time>2019-09-04T11:27:23Z</time>
      </trkpt>
      <trkpt lat="43.1396400" lon="-6.0798680">
        <ele>573.2</ele>
        <time>2019-09-04T11:27:25Z</time>
      </trkpt>
      <trkpt lat="43.1396810" lon="-6.0799010">
        <ele>573.2</ele>
        <time>2019-09-04T11:27:27Z</time>
      </trkpt>
      <trkpt lat="43.1397580" lon="-6.0799620">
        <ele>572.0</ele>
        <time>2019-09-04T11:27:31Z</time>
      </trkpt>
      <trkpt lat="43.1398300" lon="-6.0800290">
        <ele>572.0</ele>
        <time>2019-09-04T11:27:35Z</time>
      </trkpt>
      <trkpt lat="43.1398600" lon="-6.0800860">
        <ele>572.0</ele>
        <time>2019-09-04T11:27:37Z</time>
      </trkpt>
      <trkpt lat="43.1398910" lon="-6.0801670">
        <ele>572.0</ele>
        <time>2019-09-04T11:27:39Z</time>
      </trkpt>
      <trkpt lat="43.1399220" lon="-6.0802730">
        <ele>572.0</ele>
        <time>2019-09-04T11:27:41Z</time>
      </trkpt>
      <trkpt lat="43.1399580" lon="-6.0804020">
        <ele>572.0</ele>
        <time>2019-09-04T11:27:43Z</time>
      </trkpt>
      <trkpt lat="43.1399940" lon="-6.0805410">
        <ele>570.8</ele>
        <time>2019-09-04T11:27:45Z</time>
      </trkpt>
      <trkpt lat="43.1400290" lon="-6.0807000">
        <ele>570.8</ele>
        <time>2019-09-04T11:27:47Z</time>
      </trkpt>
      <trkpt lat="43.1400760" lon="-6.0808650">
        <ele>570.8</ele>
        <time>2019-09-04T11:27:49Z</time>
      </trkpt>
      <trkpt lat="43.1401370" lon="-6.0810210">
        <ele>570.8</ele>
        <time>2019-09-04T11:27:51Z</time>
      </trkpt>
      <trkpt lat="43.1402340" lon="-6.0811580">
        <ele>570.8</ele>
        <time>2019-09-04T11:27:53Z</time>
      </trkpt>
      <trkpt lat="43.1402960" lon="-6.0812190">
        <ele>570.8</ele>
        <time>2019-09-04T11:27:54Z</time>
      </trkpt>
      <trkpt lat="43.1404290" lon="-6.0813230">
        <ele>569.5</ele>
        <time>2019-09-04T11:27:56Z</time>
      </trkpt>
      <trkpt lat="43.1405770" lon="-6.0814250">
        <ele>569.5</ele>
        <time>2019-09-04T11:27:58Z</time>
      </trkpt>
      <trkpt lat="43.1406490" lon="-6.0814780">
        <ele>568.3</ele>
        <time>2019-09-04T11:27:59Z</time>
      </trkpt>
      <trkpt lat="43.1407870" lon="-6.0815880">
        <ele>568.3</ele>
        <time>2019-09-04T11:28:01Z</time>
      </trkpt>
      <trkpt lat="43.1408640" lon="-6.0816490">
        <ele>568.3</ele>
        <time>2019-09-04T11:28:02Z</time>
      </trkpt>
      <trkpt lat="43.1409250" lon="-6.0817060">
        <ele>568.3</ele>
        <time>2019-09-04T11:28:03Z</time>
      </trkpt>
      <trkpt lat="43.1410590" lon="-6.0818580">
        <ele>566.9</ele>
        <time>2019-09-04T11:28:05Z</time>
      </trkpt>
      <trkpt lat="43.1411610" lon="-6.0820520">
        <ele>566.9</ele>
        <time>2019-09-04T11:28:07Z</time>
      </trkpt>
      <trkpt lat="43.1412380" lon="-6.0822690">
        <ele>566.9</ele>
        <time>2019-09-04T11:28:09Z</time>
      </trkpt>
      <trkpt lat="43.1412940" lon="-6.0825050">
        <ele>566.9</ele>
        <time>2019-09-04T11:28:11Z</time>
      </trkpt>
      <trkpt lat="43.1413660" lon="-6.0827580">
        <ele>566.9</ele>
        <time>2019-09-04T11:28:13Z</time>
      </trkpt>
      <trkpt lat="43.1414480" lon="-6.0829800">
        <ele>566.9</ele>
        <time>2019-09-04T11:28:15Z</time>
      </trkpt>
      <trkpt lat="43.1415810" lon="-6.0831710">
        <ele>566.9</ele>
        <time>2019-09-04T11:28:17Z</time>
      </trkpt>
      <trkpt lat="43.1417400" lon="-6.0833040">
        <ele>566.9</ele>
        <time>2019-09-04T11:28:19Z</time>
      </trkpt>
      <trkpt lat="43.1419030" lon="-6.0834060">
        <ele>564.5</ele>
        <time>2019-09-04T11:28:21Z</time>
      </trkpt>
      <trkpt lat="43.1420670" lon="-6.0835340">
        <ele>563.1</ele>
        <time>2019-09-04T11:28:23Z</time>
      </trkpt>
      <trkpt lat="43.1421950" lon="-6.0837200">
        <ele>561.2</ele>
        <time>2019-09-04T11:28:25Z</time>
      </trkpt>
      <trkpt lat="43.1422980" lon="-6.0839440">
        <ele>559.8</ele>
        <time>2019-09-04T11:28:27Z</time>
      </trkpt>
      <trkpt lat="43.1423850" lon="-6.0841750">
        <ele>558.6</ele>
        <time>2019-09-04T11:28:29Z</time>
      </trkpt>
      <trkpt lat="43.1424970" lon="-6.0843800">
        <ele>558.6</ele>
        <time>2019-09-04T11:28:31Z</time>
      </trkpt>
      <trkpt lat="43.1425690" lon="-6.0844590">
        <ele>557.4</ele>
        <time>2019-09-04T11:28:32Z</time>
      </trkpt>
      <trkpt lat="43.1426460" lon="-6.0845250">
        <ele>557.4</ele>
        <time>2019-09-04T11:28:33Z</time>
      </trkpt>
      <trkpt lat="43.1428200" lon="-6.0846110">
        <ele>556.1</ele>
        <time>2019-09-04T11:28:35Z</time>
      </trkpt>
      <trkpt lat="43.1430250" lon="-6.0846480">
        <ele>554.7</ele>
        <time>2019-09-04T11:28:37Z</time>
      </trkpt>
      <trkpt lat="43.1431320" lon="-6.0846540">
        <ele>554.7</ele>
        <time>2019-09-04T11:28:38Z</time>
      </trkpt>
      <trkpt lat="43.1433470" lon="-6.0846470">
        <ele>554.7</ele>
        <time>2019-09-04T11:28:40Z</time>
      </trkpt>
      <trkpt lat="43.1434650" lon="-6.0846350">
        <ele>554.7</ele>
        <time>2019-09-04T11:28:41Z</time>
      </trkpt>
      <trkpt lat="43.1436850" lon="-6.0846020">
        <ele>553.3</ele>
        <time>2019-09-04T11:28:43Z</time>
      </trkpt>
      <trkpt lat="43.1439000" lon="-6.0845750">
        <ele>553.3</ele>
        <time>2019-09-04T11:28:45Z</time>
      </trkpt>
      <trkpt lat="43.1441250" lon="-6.0846070">
        <ele>553.3</ele>
        <time>2019-09-04T11:28:47Z</time>
      </trkpt>
      <trkpt lat="43.1443460" lon="-6.0846780">
        <ele>551.7</ele>
        <time>2019-09-04T11:28:49Z</time>
      </trkpt>
      <trkpt lat="43.1445560" lon="-6.0847770">
        <ele>549.7</ele>
        <time>2019-09-04T11:28:51Z</time>
      </trkpt>
      <trkpt lat="43.1447500" lon="-6.0849140">
        <ele>547.8</ele>
        <time>2019-09-04T11:28:53Z</time>
      </trkpt>
      <trkpt lat="43.1449190" lon="-6.0850960">
        <ele>546.3</ele>
        <time>2019-09-04T11:28:55Z</time>
      </trkpt>
      <trkpt lat="43.1450780" lon="-6.0853070">
        <ele>545.0</ele>
        <time>2019-09-04T11:28:57Z</time>
      </trkpt>
      <trkpt lat="43.1452720" lon="-6.0854920">
        <ele>543.4</ele>
        <time>2019-09-04T11:28:59Z</time>
      </trkpt>
      <trkpt lat="43.1454720" lon="-6.0856310">
        <ele>541.8</ele>
        <time>2019-09-04T11:29:01Z</time>
      </trkpt>
      <trkpt lat="43.1456720" lon="-6.0857380">
        <ele>541.8</ele>
        <time>2019-09-04T11:29:03Z</time>
      </trkpt>
      <trkpt lat="43.1458760" lon="-6.0858270">
        <ele>540.6</ele>
        <time>2019-09-04T11:29:05Z</time>
      </trkpt>
      <trkpt lat="43.1460810" lon="-6.0859100">
        <ele>540.6</ele>
        <time>2019-09-04T11:29:07Z</time>
      </trkpt>
      <trkpt lat="43.1461730" lon="-6.0859580">
        <ele>540.6</ele>
        <time>2019-09-04T11:29:08Z</time>
      </trkpt>
      <trkpt lat="43.1463580" lon="-6.0860590">
        <ele>540.6</ele>
        <time>2019-09-04T11:29:10Z</time>
      </trkpt>
      <trkpt lat="43.1464450" lon="-6.0861160">
        <ele>539.3</ele>
        <time>2019-09-04T11:29:11Z</time>
      </trkpt>
      <trkpt lat="43.1465320" lon="-6.0861780">
        <ele>539.3</ele>
        <time>2019-09-04T11:29:12Z</time>
      </trkpt>
      <trkpt lat="43.1466290" lon="-6.0862460">
        <ele>539.3</ele>
        <time>2019-09-04T11:29:13Z</time>
      </trkpt>
      <trkpt lat="43.1468030" lon="-6.0863760">
        <ele>539.3</ele>
        <time>2019-09-04T11:29:15Z</time>
      </trkpt>
      <trkpt lat="43.1469880" lon="-6.0865170">
        <ele>538.1</ele>
        <time>2019-09-04T11:29:17Z</time>
      </trkpt>
      <trkpt lat="43.1471510" lon="-6.0866480">
        <ele>538.1</ele>
        <time>2019-09-04T11:29:19Z</time>
      </trkpt>
      <trkpt lat="43.1473250" lon="-6.0867880">
        <ele>536.9</ele>
        <time>2019-09-04T11:29:21Z</time>
      </trkpt>
      <trkpt lat="43.1474940" lon="-6.0869310">
        <ele>536.9</ele>
        <time>2019-09-04T11:29:23Z</time>
      </trkpt>
      <trkpt lat="43.1476680" lon="-6.0870780">
        <ele>536.9</ele>
        <time>2019-09-04T11:29:25Z</time>
      </trkpt>
      <trkpt lat="43.1478270" lon="-6.0872370">
        <ele>535.6</ele>
        <time>2019-09-04T11:29:27Z</time>
      </trkpt>
      <trkpt lat="43.1479550" lon="-6.0874180">
        <ele>535.6</ele>
        <time>2019-09-04T11:29:29Z</time>
      </trkpt>
      <trkpt lat="43.1480580" lon="-6.0876280">
        <ele>535.6</ele>
        <time>2019-09-04T11:29:31Z</time>
      </trkpt>
      <trkpt lat="43.1481500" lon="-6.0878630">
        <ele>535.6</ele>
        <time>2019-09-04T11:29:33Z</time>
      </trkpt>
      <trkpt lat="43.1482270" lon="-6.0880840">
        <ele>534.2</ele>
        <time>2019-09-04T11:29:35Z</time>
      </trkpt>
      <trkpt lat="43.1483080" lon="-6.0883110">
        <ele>534.2</ele>
        <time>2019-09-04T11:29:37Z</time>
      </trkpt>
      <trkpt lat="43.1483440" lon="-6.0884190">
        <ele>534.2</ele>
        <time>2019-09-04T11:29:38Z</time>
      </trkpt>
      <trkpt lat="43.1483850" lon="-6.0885310">
        <ele>534.2</ele>
        <time>2019-09-04T11:29:39Z</time>
      </trkpt>
      <trkpt lat="43.1484210" lon="-6.0886480">
        <ele>534.2</ele>
        <time>2019-09-04T11:29:40Z</time>
      </trkpt>
      <trkpt lat="43.1485080" lon="-6.0888920">
        <ele>534.2</ele>
        <time>2019-09-04T11:29:42Z</time>
      </trkpt>
      <trkpt lat="43.1485850" lon="-6.0891230">
        <ele>534.2</ele>
        <time>2019-09-04T11:29:44Z</time>
      </trkpt>
      <trkpt lat="43.1486720" lon="-6.0893390">
        <ele>534.2</ele>
        <time>2019-09-04T11:29:46Z</time>
      </trkpt>
      <trkpt lat="43.1487180" lon="-6.0894500">
        <ele>532.9</ele>
        <time>2019-09-04T11:29:47Z</time>
      </trkpt>
      <trkpt lat="43.1487690" lon="-6.0895600">
        <ele>532.9</ele>
        <time>2019-09-04T11:29:48Z</time>
      </trkpt>
      <trkpt lat="43.1488820" lon="-6.0897700">
        <ele>531.8</ele>
        <time>2019-09-04T11:29:50Z</time>
      </trkpt>
      <trkpt lat="43.1490000" lon="-6.0899670">
        <ele>531.8</ele>
        <time>2019-09-04T11:29:52Z</time>
      </trkpt>
      <trkpt lat="43.1491380" lon="-6.0901470">
        <ele>530.4</ele>
        <time>2019-09-04T11:29:54Z</time>
      </trkpt>
      <trkpt lat="43.1492660" lon="-6.0903030">
        <ele>530.4</ele>
        <time>2019-09-04T11:29:56Z</time>
      </trkpt>
      <trkpt lat="43.1494140" lon="-6.0904660">
        <ele>529.2</ele>
        <time>2019-09-04T11:29:58Z</time>
      </trkpt>
      <trkpt lat="43.1495680" lon="-6.0906270">
        <ele>529.2</ele>
        <time>2019-09-04T11:30:00Z</time>
      </trkpt>
      <trkpt lat="43.1497320" lon="-6.0907810">
        <ele>527.9</ele>
        <time>2019-09-04T11:30:02Z</time>
      </trkpt>
      <trkpt lat="43.1499060" lon="-6.0909030">
        <ele>527.9</ele>
        <time>2019-09-04T11:30:04Z</time>
      </trkpt>
      <trkpt lat="43.1500900" lon="-6.0909930">
        <ele>526.6</ele>
        <time>2019-09-04T11:30:06Z</time>
      </trkpt>
      <trkpt lat="43.1502900" lon="-6.0910680">
        <ele>526.6</ele>
        <time>2019-09-04T11:30:08Z</time>
      </trkpt>
      <trkpt lat="43.1504900" lon="-6.0911360">
        <ele>526.6</ele>
        <time>2019-09-04T11:30:10Z</time>
      </trkpt>
      <trkpt lat="43.1505870" lon="-6.0911670">
        <ele>525.4</ele>
        <time>2019-09-04T11:30:11Z</time>
      </trkpt>
      <trkpt lat="43.1507760" lon="-6.0912060">
        <ele>525.4</ele>
        <time>2019-09-04T11:30:13Z</time>
      </trkpt>
      <trkpt lat="43.1508740" lon="-6.0912210">
        <ele>525.4</ele>
        <time>2019-09-04T11:30:14Z</time>
      </trkpt>
      <trkpt lat="43.1510780" lon="-6.0912360">
        <ele>524.0</ele>
        <time>2019-09-04T11:30:16Z</time>
      </trkpt>
      <trkpt lat="43.1512830" lon="-6.0912290">
        <ele>524.0</ele>
        <time>2019-09-04T11:30:18Z</time>
      </trkpt>
      <trkpt lat="43.1513800" lon="-6.0912170">
        <ele>524.0</ele>
        <time>2019-09-04T11:30:19Z</time>
      </trkpt>
      <trkpt lat="43.1514880" lon="-6.0912050">
        <ele>522.7</ele>
        <time>2019-09-04T11:30:20Z</time>
      </trkpt>
      <trkpt lat="43.1516930" lon="-6.0911870">
        <ele>522.7</ele>
        <time>2019-09-04T11:30:22Z</time>
      </trkpt>
      <trkpt lat="43.1519030" lon="-6.0912030">
        <ele>521.2</ele>
        <time>2019-09-04T11:30:24Z</time>
      </trkpt>
      <trkpt lat="43.1521080" lon="-6.0912580">
        <ele>521.2</ele>
        <time>2019-09-04T11:30:26Z</time>
      </trkpt>
      <trkpt lat="43.1522920" lon="-6.0913690">
        <ele>520.0</ele>
        <time>2019-09-04T11:30:28Z</time>
      </trkpt>
      <trkpt lat="43.1524560" lon="-6.0915320">
        <ele>518.8</ele>
        <time>2019-09-04T11:30:30Z</time>
      </trkpt>
      <trkpt lat="43.1526040" lon="-6.0917500">
        <ele>518.8</ele>
        <time>2019-09-04T11:30:32Z</time>
      </trkpt>
      <trkpt lat="43.1527420" lon="-6.0919750">
        <ele>517.6</ele>
        <time>2019-09-04T11:30:34Z</time>
      </trkpt>
      <trkpt lat="43.1528700" lon="-6.0921980">
        <ele>517.6</ele>
        <time>2019-09-04T11:30:36Z</time>
      </trkpt>
      <trkpt lat="43.1529930" lon="-6.0924220">
        <ele>516.3</ele>
        <time>2019-09-04T11:30:38Z</time>
      </trkpt>
      <trkpt lat="43.1531160" lon="-6.0926560">
        <ele>516.3</ele>
        <time>2019-09-04T11:30:40Z</time>
      </trkpt>
      <trkpt lat="43.1532340" lon="-6.0928820">
        <ele>516.3</ele>
        <time>2019-09-04T11:30:42Z</time>
      </trkpt>
      <trkpt lat="43.1533520" lon="-6.0931060">
        <ele>514.8</ele>
        <time>2019-09-04T11:30:44Z</time>
      </trkpt>
      <trkpt lat="43.1534130" lon="-6.0932190">
        <ele>514.8</ele>
        <time>2019-09-04T11:30:45Z</time>
      </trkpt>
      <trkpt lat="43.1535360" lon="-6.0934440">
        <ele>514.8</ele>
        <time>2019-09-04T11:30:47Z</time>
      </trkpt>
      <trkpt lat="43.1536540" lon="-6.0936650">
        <ele>513.7</ele>
        <time>2019-09-04T11:30:49Z</time>
      </trkpt>
      <trkpt lat="43.1537050" lon="-6.0937680">
        <ele>513.7</ele>
        <time>2019-09-04T11:30:50Z</time>
      </trkpt>
      <trkpt lat="43.1538180" lon="-6.0939930">
        <ele>513.7</ele>
        <time>2019-09-04T11:30:52Z</time>
      </trkpt>
      <trkpt lat="43.1538590" lon="-6.0941090">
        <ele>513.7</ele>
        <time>2019-09-04T11:30:53Z</time>
      </trkpt>
      <trkpt lat="43.1539200" lon="-6.0943370">
        <ele>513.7</ele>
        <time>2019-09-04T11:30:55Z</time>
      </trkpt>
      <trkpt lat="43.1539400" lon="-6.0944540">
        <ele>513.7</ele>
        <time>2019-09-04T11:30:56Z</time>
      </trkpt>
      <trkpt lat="43.1539710" lon="-6.0947020">
        <ele>513.7</ele>
        <time>2019-09-04T11:30:58Z</time>
      </trkpt>
      <trkpt lat="43.1539810" lon="-6.0949640">
        <ele>513.7</ele>
        <time>2019-09-04T11:31:00Z</time>
      </trkpt>
      <trkpt lat="43.1539920" lon="-6.0952130">
        <ele>512.3</ele>
        <time>2019-09-04T11:31:02Z</time>
      </trkpt>
      <trkpt lat="43.1540020" lon="-6.0954440">
        <ele>512.3</ele>
        <time>2019-09-04T11:31:04Z</time>
      </trkpt>
      <trkpt lat="43.1540220" lon="-6.0956760">
        <ele>512.3</ele>
        <time>2019-09-04T11:31:06Z</time>
      </trkpt>
      <trkpt lat="43.1540680" lon="-6.0958920">
        <ele>512.3</ele>
        <time>2019-09-04T11:31:08Z</time>
      </trkpt>
      <trkpt lat="43.1541500" lon="-6.0960660">
        <ele>512.3</ele>
        <time>2019-09-04T11:31:10Z</time>
      </trkpt>
      <trkpt lat="43.1542630" lon="-6.0962180">
        <ele>511.1</ele>
        <time>2019-09-04T11:31:12Z</time>
      </trkpt>
      <trkpt lat="43.1543860" lon="-6.0963680">
        <ele>511.1</ele>
        <time>2019-09-04T11:31:14Z</time>
      </trkpt>
      <trkpt lat="43.1545240" lon="-6.0965090">
        <ele>511.1</ele>
        <time>2019-09-04T11:31:16Z</time>
      </trkpt>
      <trkpt lat="43.1546570" lon="-6.0966460">
        <ele>511.1</ele>
        <time>2019-09-04T11:31:18Z</time>
      </trkpt>
      <trkpt lat="43.1548060" lon="-6.0967460">
        <ele>511.1</ele>
        <time>2019-09-04T11:31:20Z</time>
      </trkpt>
      <trkpt lat="43.1548830" lon="-6.0967780">
        <ele>509.9</ele>
        <time>2019-09-04T11:31:21Z</time>
      </trkpt>
      <trkpt lat="43.1550520" lon="-6.0968220">
        <ele>509.9</ele>
        <time>2019-09-04T11:31:23Z</time>
      </trkpt>
      <trkpt lat="43.1552200" lon="-6.0968710">
        <ele>509.9</ele>
        <time>2019-09-04T11:31:25Z</time>
      </trkpt>
      <trkpt lat="43.1553020" lon="-6.0968950">
        <ele>509.9</ele>
        <time>2019-09-04T11:31:26Z</time>
      </trkpt>
      <trkpt lat="43.1554760" lon="-6.0969570">
        <ele>509.9</ele>
        <time>2019-09-04T11:31:28Z</time>
      </trkpt>
      <trkpt lat="43.1556560" lon="-6.0970270">
        <ele>508.7</ele>
        <time>2019-09-04T11:31:30Z</time>
      </trkpt>
      <trkpt lat="43.1558300" lon="-6.0970880">
        <ele>508.7</ele>
        <time>2019-09-04T11:31:32Z</time>
      </trkpt>
      <trkpt lat="43.1559170" lon="-6.0971070">
        <ele>508.7</ele>
        <time>2019-09-04T11:31:33Z</time>
      </trkpt>
      <trkpt lat="43.1560960" lon="-6.0971110">
        <ele>508.7</ele>
        <time>2019-09-04T11:31:35Z</time>
      </trkpt>
      <trkpt lat="43.1562650" lon="-6.0970820">
        <ele>507.3</ele>
        <time>2019-09-04T11:31:37Z</time>
      </trkpt>
      <trkpt lat="43.1564340" lon="-6.0970360">
        <ele>505.8</ele>
        <time>2019-09-04T11:31:39Z</time>
      </trkpt>
      <trkpt lat="43.1566030" lon="-6.0969910">
        <ele>504.5</ele>
        <time>2019-09-04T11:31:41Z</time>
      </trkpt>
      <trkpt lat="43.1567720" lon="-6.0969540">
        <ele>504.5</ele>
        <time>2019-09-04T11:31:43Z</time>
      </trkpt>
      <trkpt lat="43.1569360" lon="-6.0969200">
        <ele>504.5</ele>
        <time>2019-09-04T11:31:45Z</time>
      </trkpt>
      <trkpt lat="43.1571100" lon="-6.0968810">
        <ele>504.5</ele>
        <time>2019-09-04T11:31:47Z</time>
      </trkpt>
      <trkpt lat="43.1572740" lon="-6.0968410">
        <ele>504.5</ele>
        <time>2019-09-04T11:31:49Z</time>
      </trkpt>
      <trkpt lat="43.1574480" lon="-6.0967990">
        <ele>504.5</ele>
        <time>2019-09-04T11:31:51Z</time>
      </trkpt>
      <trkpt lat="43.1576170" lon="-6.0967580">
        <ele>504.5</ele>
        <time>2019-09-04T11:31:53Z</time>
      </trkpt>
      <trkpt lat="43.1577910" lon="-6.0967210">
        <ele>504.5</ele>
        <time>2019-09-04T11:31:55Z</time>
      </trkpt>
      <trkpt lat="43.1579650" lon="-6.0966900">
        <ele>503.3</ele>
        <time>2019-09-04T11:31:57Z</time>
      </trkpt>
      <trkpt lat="43.1580520" lon="-6.0966710">
        <ele>501.4</ele>
        <time>2019-09-04T11:31:58Z</time>
      </trkpt>
      <trkpt lat="43.1582310" lon="-6.0966340">
        <ele>499.7</ele>
        <time>2019-09-04T11:32:00Z</time>
      </trkpt>
      <trkpt lat="43.1584050" lon="-6.0966020">
        <ele>498.5</ele>
        <time>2019-09-04T11:32:02Z</time>
      </trkpt>
      <trkpt lat="43.1584870" lon="-6.0965890">
        <ele>498.5</ele>
        <time>2019-09-04T11:32:03Z</time>
      </trkpt>
      <trkpt lat="43.1586660" lon="-6.0965580">
        <ele>497.0</ele>
        <time>2019-09-04T11:32:05Z</time>
      </trkpt>
      <trkpt lat="43.1587480" lon="-6.0965430">
        <ele>497.0</ele>
        <time>2019-09-04T11:32:06Z</time>
      </trkpt>
      <trkpt lat="43.1588350" lon="-6.0965290">
        <ele>497.0</ele>
        <time>2019-09-04T11:32:07Z</time>
      </trkpt>
      <trkpt lat="43.1590090" lon="-6.0965000">
        <ele>495.9</ele>
        <time>2019-09-04T11:32:09Z</time>
      </trkpt>
      <trkpt lat="43.1591830" lon="-6.0964770">
        <ele>495.9</ele>
        <time>2019-09-04T11:32:11Z</time>
      </trkpt>
      <trkpt lat="43.1593630" lon="-6.0964550">
        <ele>495.9</ele>
        <time>2019-09-04T11:32:13Z</time>
      </trkpt>
      <trkpt lat="43.1595370" lon="-6.0964380">
        <ele>495.9</ele>
        <time>2019-09-04T11:32:15Z</time>
      </trkpt>
      <trkpt lat="43.1597060" lon="-6.0964170">
        <ele>495.9</ele>
        <time>2019-09-04T11:32:17Z</time>
      </trkpt>
      <trkpt lat="43.1598800" lon="-6.0963990">
        <ele>497.5</ele>
        <time>2019-09-04T11:32:19Z</time>
      </trkpt>
      <trkpt lat="43.1600540" lon="-6.0963850">
        <ele>497.5</ele>
        <time>2019-09-04T11:32:21Z</time>
      </trkpt>
      <trkpt lat="43.1602230" lon="-6.0963720">
        <ele>497.5</ele>
        <time>2019-09-04T11:32:23Z</time>
      </trkpt>
      <trkpt lat="43.1603970" lon="-6.0963620">
        <ele>497.5</ele>
        <time>2019-09-04T11:32:25Z</time>
      </trkpt>
      <trkpt lat="43.1605760" lon="-6.0963490">
        <ele>497.5</ele>
        <time>2019-09-04T11:32:27Z</time>
      </trkpt>
      <trkpt lat="43.1607450" lon="-6.0963330">
        <ele>497.5</ele>
        <time>2019-09-04T11:32:29Z</time>
      </trkpt>
      <trkpt lat="43.1608220" lon="-6.0963230">
        <ele>498.7</ele>
        <time>2019-09-04T11:32:30Z</time>
      </trkpt>
      <trkpt lat="43.1609860" lon="-6.0963100">
        <ele>498.7</ele>
        <time>2019-09-04T11:32:32Z</time>
      </trkpt>
      <trkpt lat="43.1611290" lon="-6.0963010">
        <ele>498.7</ele>
        <time>2019-09-04T11:32:34Z</time>
      </trkpt>
      <trkpt lat="43.1612060" lon="-6.0962990">
        <ele>498.7</ele>
        <time>2019-09-04T11:32:35Z</time>
      </trkpt>
      <trkpt lat="43.1613640" lon="-6.0962940">
        <ele>497.2</ele>
        <time>2019-09-04T11:32:37Z</time>
      </trkpt>
      <trkpt lat="43.1614410" lon="-6.0962990">
        <ele>497.2</ele>
        <time>2019-09-04T11:32:38Z</time>
      </trkpt>
      <trkpt lat="43.1615850" lon="-6.0963370">
        <ele>495.9</ele>
        <time>2019-09-04T11:32:40Z</time>
      </trkpt>
      <trkpt lat="43.1617180" lon="-6.0963670">
        <ele>495.9</ele>
        <time>2019-09-04T11:32:42Z</time>
      </trkpt>
      <trkpt lat="43.1617950" lon="-6.0963790">
        <ele>495.9</ele>
        <time>2019-09-04T11:32:43Z</time>
      </trkpt>
      <trkpt lat="43.1619280" lon="-6.0964120">
        <ele>494.6</ele>
        <time>2019-09-04T11:32:45Z</time>
      </trkpt>
      <trkpt lat="43.1620200" lon="-6.0964810">
        <ele>494.6</ele>
        <time>2019-09-04T11:32:47Z</time>
      </trkpt>
      <trkpt lat="43.1620510" lon="-6.0965770">
        <ele>494.6</ele>
        <time>2019-09-04T11:32:49Z</time>
      </trkpt>
      <trkpt lat="43.1620200" lon="-6.0966820">
        <ele>493.4</ele>
        <time>2019-09-04T11:32:51Z</time>
      </trkpt>
      <trkpt lat="43.1619640" lon="-6.0967970">
        <ele>493.4</ele>
        <time>2019-09-04T11:32:53Z</time>
      </trkpt>
      <trkpt lat="43.1618870" lon="-6.0969140">
        <ele>493.4</ele>
        <time>2019-09-04T11:32:55Z</time>
      </trkpt>
      <trkpt lat="43.1618050" lon="-6.0970340">
        <ele>494.7</ele>
        <time>2019-09-04T11:32:57Z</time>
      </trkpt>
      <trkpt lat="43.1617230" lon="-6.0971510">
        <ele>494.7</ele>
        <time>2019-09-04T11:32:59Z</time>
      </trkpt>
      <trkpt lat="43.1616460" lon="-6.0972700">
        <ele>494.7</ele>
        <time>2019-09-04T11:33:01Z</time>
      </trkpt>
      <trkpt lat="43.1615690" lon="-6.0973860">
        <ele>494.7</ele>
        <time>2019-09-04T11:33:03Z</time>
      </trkpt>
      <trkpt lat="43.1614980" lon="-6.0974810">
        <ele>494.7</ele>
        <time>2019-09-04T11:33:05Z</time>
      </trkpt>
      <trkpt lat="43.1614620" lon="-6.0975240">
        <ele>494.7</ele>
        <time>2019-09-04T11:33:06Z</time>
      </trkpt>
      <trkpt lat="43.1613900" lon="-6.0975660">
        <ele>494.7</ele>
        <time>2019-09-04T11:33:08Z</time>
      </trkpt>
      <trkpt lat="43.1613030" lon="-6.0975330">
        <ele>494.7</ele>
        <time>2019-09-04T11:33:11Z</time>
      </trkpt>
      <trkpt lat="43.1612210" lon="-6.0974460">
        <ele>495.9</ele>
        <time>2019-09-04T11:33:14Z</time>
      </trkpt>
      <trkpt lat="43.1611700" lon="-6.0973880">
        <ele>497.2</ele>
        <time>2019-09-04T11:33:16Z</time>
      </trkpt>
      <trkpt lat="43.1611190" lon="-6.0973280">
        <ele>497.2</ele>
        <time>2019-09-04T11:33:18Z</time>
      </trkpt>
      <trkpt lat="43.1610680" lon="-6.0972680">
        <ele>498.4</ele>
        <time>2019-09-04T11:33:20Z</time>
      </trkpt>
      <trkpt lat="43.1610210" lon="-6.0972090">
        <ele>499.9</ele>
        <time>2019-09-04T11:33:22Z</time>
      </trkpt>
      <trkpt lat="43.1609700" lon="-6.0971530">
        <ele>499.9</ele>
        <time>2019-09-04T11:33:24Z</time>
      </trkpt>
      <trkpt lat="43.1609290" lon="-6.0971010">
        <ele>501.2</ele>
        <time>2019-09-04T11:33:26Z</time>
      </trkpt>
      <trkpt lat="43.1608830" lon="-6.0970520">
        <ele>501.2</ele>
        <time>2019-09-04T11:33:28Z</time>
      </trkpt>
      <trkpt lat="43.1608420" lon="-6.0970070">
        <ele>502.4</ele>
        <time>2019-09-04T11:33:30Z</time>
      </trkpt>
      <trkpt lat="43.1607600" lon="-6.0969310">
        <ele>502.4</ele>
        <time>2019-09-04T11:33:34Z</time>
      </trkpt>
      <trkpt lat="43.1607190" lon="-6.0968670">
        <ele>502.4</ele>
        <time>2019-09-04T11:33:38Z</time>
      </trkpt>
      <trkpt lat="43.1607190" lon="-6.0969000">
        <ele>502.4</ele>
        <time>2019-09-04T11:38:19Z</time>
      </trkpt>
      <trkpt lat="43.1607190" lon="-6.0969380">
        <ele>502.4</ele>
        <time>2019-09-04T11:38:25Z</time>
      </trkpt>
      <trkpt lat="43.1607910" lon="-6.0969820">
        <ele>502.4</ele>
        <time>2019-09-04T11:38:29Z</time>
      </trkpt>
      <trkpt lat="43.1608730" lon="-6.0970370">
        <ele>502.4</ele>
        <time>2019-09-04T11:38:32Z</time>
      </trkpt>
      <trkpt lat="43.1609290" lon="-6.0970940">
        <ele>502.4</ele>
        <time>2019-09-04T11:38:34Z</time>
      </trkpt>
      <trkpt lat="43.1609910" lon="-6.0971620">
        <ele>502.4</ele>
        <time>2019-09-04T11:38:36Z</time>
      </trkpt>
      <trkpt lat="43.1610620" lon="-6.0972350">
        <ele>502.4</ele>
        <time>2019-09-04T11:38:38Z</time>
      </trkpt>
      <trkpt lat="43.1611240" lon="-6.0973110">
        <ele>502.4</ele>
        <time>2019-09-04T11:38:40Z</time>
      </trkpt>
      <trkpt lat="43.1611800" lon="-6.0973910">
        <ele>502.4</ele>
        <time>2019-09-04T11:38:42Z</time>
      </trkpt>
      <trkpt lat="43.1612310" lon="-6.0974620">
        <ele>502.4</ele>
        <time>2019-09-04T11:38:44Z</time>
      </trkpt>
      <trkpt lat="43.1612830" lon="-6.0975110">
        <ele>502.4</ele>
        <time>2019-09-04T11:38:46Z</time>
      </trkpt>
      <trkpt lat="43.1613390" lon="-6.0975390">
        <ele>502.4</ele>
        <time>2019-09-04T11:38:48Z</time>
      </trkpt>
      <trkpt lat="43.1613900" lon="-6.0975240">
        <ele>502.4</ele>
        <time>2019-09-04T11:38:50Z</time>
      </trkpt>
      <trkpt lat="43.1614460" lon="-6.0974750">
        <ele>502.4</ele>
        <time>2019-09-04T11:38:52Z</time>
      </trkpt>
      <trkpt lat="43.1615030" lon="-6.0974040">
        <ele>502.4</ele>
        <time>2019-09-04T11:38:54Z</time>
      </trkpt>
      <trkpt lat="43.1615640" lon="-6.0973240">
        <ele>502.4</ele>
        <time>2019-09-04T11:38:56Z</time>
      </trkpt>
      <trkpt lat="43.1616310" lon="-6.0972220">
        <ele>502.4</ele>
        <time>2019-09-04T11:38:58Z</time>
      </trkpt>
      <trkpt lat="43.1616670" lon="-6.0971690">
        <ele>502.4</ele>
        <time>2019-09-04T11:38:59Z</time>
      </trkpt>
      <trkpt lat="43.1617020" lon="-6.0971160">
        <ele>502.4</ele>
        <time>2019-09-04T11:39:00Z</time>
      </trkpt>
      <trkpt lat="43.1617330" lon="-6.0970600">
        <ele>502.4</ele>
        <time>2019-09-04T11:39:01Z</time>
      </trkpt>
      <trkpt lat="43.1617690" lon="-6.0970020">
        <ele>502.4</ele>
        <time>2019-09-04T11:39:02Z</time>
      </trkpt>
      <trkpt lat="43.1618000" lon="-6.0969400">
        <ele>502.4</ele>
        <time>2019-09-04T11:39:03Z</time>
      </trkpt>
      <trkpt lat="43.1618250" lon="-6.0968720">
        <ele>502.4</ele>
        <time>2019-09-04T11:39:04Z</time>
      </trkpt>
      <trkpt lat="43.1618410" lon="-6.0968050">
        <ele>502.4</ele>
        <time>2019-09-04T11:39:05Z</time>
      </trkpt>
      <trkpt lat="43.1618610" lon="-6.0967330">
        <ele>502.4</ele>
        <time>2019-09-04T11:39:06Z</time>
      </trkpt>
      <trkpt lat="43.1618760" lon="-6.0966660">
        <ele>502.4</ele>
        <time>2019-09-04T11:39:07Z</time>
      </trkpt>
      <trkpt lat="43.1619020" lon="-6.0966000">
        <ele>502.4</ele>
        <time>2019-09-04T11:39:08Z</time>
      </trkpt>
      <trkpt lat="43.1619280" lon="-6.0965440">
        <ele>502.4</ele>
        <time>2019-09-04T11:39:09Z</time>
      </trkpt>
      <trkpt lat="43.1620040" lon="-6.0964690">
        <ele>501.0</ele>
        <time>2019-09-04T11:39:11Z</time>
      </trkpt>
      <trkpt lat="43.1620970" lon="-6.0964100">
        <ele>501.0</ele>
        <time>2019-09-04T11:39:13Z</time>
      </trkpt>
      <trkpt lat="43.1621380" lon="-6.0963740">
        <ele>501.0</ele>
        <time>2019-09-04T11:39:14Z</time>
      </trkpt>
      <trkpt lat="43.1621890" lon="-6.0963330">
        <ele>501.0</ele>
        <time>2019-09-04T11:39:15Z</time>
      </trkpt>
      <trkpt lat="43.1622300" lon="-6.0962910">
        <ele>498.8</ele>
        <time>2019-09-04T11:39:16Z</time>
      </trkpt>
      <trkpt lat="43.1622760" lon="-6.0962410">
        <ele>497.2</ele>
        <time>2019-09-04T11:39:17Z</time>
      </trkpt>
      <trkpt lat="43.1623170" lon="-6.0961880">
        <ele>496.0</ele>
        <time>2019-09-04T11:39:18Z</time>
      </trkpt>
      <trkpt lat="43.1623580" lon="-6.0961280">
        <ele>496.0</ele>
        <time>2019-09-04T11:39:19Z</time>
      </trkpt>
      <trkpt lat="43.1624040" lon="-6.0960680">
        <ele>494.4</ele>
        <time>2019-09-04T11:39:20Z</time>
      </trkpt>
      <trkpt lat="43.1624400" lon="-6.0960110">
        <ele>494.4</ele>
        <time>2019-09-04T11:39:21Z</time>
      </trkpt>
      <trkpt lat="43.1624860" lon="-6.0959520">
        <ele>494.4</ele>
        <time>2019-09-04T11:39:22Z</time>
      </trkpt>
      <trkpt lat="43.1625270" lon="-6.0958890">
        <ele>493.2</ele>
        <time>2019-09-04T11:39:23Z</time>
      </trkpt>
      <trkpt lat="43.1625730" lon="-6.0958300">
        <ele>493.2</ele>
        <time>2019-09-04T11:39:24Z</time>
      </trkpt>
      <trkpt lat="43.1626190" lon="-6.0957780">
        <ele>493.2</ele>
        <time>2019-09-04T11:39:25Z</time>
      </trkpt>
      <trkpt lat="43.1626650" lon="-6.0957340">
        <ele>493.2</ele>
        <time>2019-09-04T11:39:26Z</time>
      </trkpt>
      <trkpt lat="43.1627210" lon="-6.0956990">
        <ele>493.2</ele>
        <time>2019-09-04T11:39:27Z</time>
      </trkpt>
      <trkpt lat="43.1627670" lon="-6.0956720">
        <ele>493.2</ele>
        <time>2019-09-04T11:39:28Z</time>
      </trkpt>
      <trkpt lat="43.1628290" lon="-6.0956560">
        <ele>493.2</ele>
        <time>2019-09-04T11:39:29Z</time>
      </trkpt>
      <trkpt lat="43.1628850" lon="-6.0956510">
        <ele>493.2</ele>
        <time>2019-09-04T11:39:30Z</time>
      </trkpt>
      <trkpt lat="43.1629470" lon="-6.0956570">
        <ele>493.2</ele>
        <time>2019-09-04T11:39:31Z</time>
      </trkpt>
      <trkpt lat="43.1630080" lon="-6.0956700">
        <ele>493.2</ele>
        <time>2019-09-04T11:39:32Z</time>
      </trkpt>
      <trkpt lat="43.1630640" lon="-6.0956900">
        <ele>493.2</ele>
        <time>2019-09-04T11:39:33Z</time>
      </trkpt>
      <trkpt lat="43.1631260" lon="-6.0957160">
        <ele>493.2</ele>
        <time>2019-09-04T11:39:34Z</time>
      </trkpt>
      <trkpt lat="43.1631870" lon="-6.0957450">
        <ele>493.2</ele>
        <time>2019-09-04T11:39:35Z</time>
      </trkpt>
      <trkpt lat="43.1632490" lon="-6.0957770">
        <ele>493.2</ele>
        <time>2019-09-04T11:39:36Z</time>
      </trkpt>
      <trkpt lat="43.1633050" lon="-6.0958180">
        <ele>493.2</ele>
        <time>2019-09-04T11:39:37Z</time>
      </trkpt>
      <trkpt lat="43.1633660" lon="-6.0958670">
        <ele>493.2</ele>
        <time>2019-09-04T11:39:38Z</time>
      </trkpt>
      <trkpt lat="43.1634280" lon="-6.0959220">
        <ele>493.2</ele>
        <time>2019-09-04T11:39:39Z</time>
      </trkpt>
      <trkpt lat="43.1634790" lon="-6.0959800">
        <ele>493.2</ele>
        <time>2019-09-04T11:39:40Z</time>
      </trkpt>
      <trkpt lat="43.1635400" lon="-6.0960540">
        <ele>493.2</ele>
        <time>2019-09-04T11:39:41Z</time>
      </trkpt>
      <trkpt lat="43.1636020" lon="-6.0961350">
        <ele>493.2</ele>
        <time>2019-09-04T11:39:42Z</time>
      </trkpt>
      <trkpt lat="43.1636580" lon="-6.0962160">
        <ele>493.2</ele>
        <time>2019-09-04T11:39:43Z</time>
      </trkpt>
      <trkpt lat="43.1637200" lon="-6.0962950">
        <ele>493.2</ele>
        <time>2019-09-04T11:39:44Z</time>
      </trkpt>
      <trkpt lat="43.1637710" lon="-6.0963640">
        <ele>493.2</ele>
        <time>2019-09-04T11:39:45Z</time>
      </trkpt>
      <trkpt lat="43.1638370" lon="-6.0964340">
        <ele>492.0</ele>
        <time>2019-09-04T11:39:46Z</time>
      </trkpt>
      <trkpt lat="43.1639040" lon="-6.0964970">
        <ele>492.0</ele>
        <time>2019-09-04T11:39:47Z</time>
      </trkpt>
      <trkpt lat="43.1639810" lon="-6.0965490">
        <ele>492.0</ele>
        <time>2019-09-04T11:39:48Z</time>
      </trkpt>
      <trkpt lat="43.1640470" lon="-6.0965880">
        <ele>492.0</ele>
        <time>2019-09-04T11:39:49Z</time>
      </trkpt>
      <trkpt lat="43.1641190" lon="-6.0966140">
        <ele>492.0</ele>
        <time>2019-09-04T11:39:50Z</time>
      </trkpt>
      <trkpt lat="43.1642060" lon="-6.0966340">
        <ele>492.0</ele>
        <time>2019-09-04T11:39:51Z</time>
      </trkpt>
      <trkpt lat="43.1642780" lon="-6.0966470">
        <ele>492.0</ele>
        <time>2019-09-04T11:39:52Z</time>
      </trkpt>
      <trkpt lat="43.1643650" lon="-6.0966570">
        <ele>492.0</ele>
        <time>2019-09-04T11:39:53Z</time>
      </trkpt>
      <trkpt lat="43.1644470" lon="-6.0966640">
        <ele>492.0</ele>
        <time>2019-09-04T11:39:54Z</time>
      </trkpt>
      <trkpt lat="43.1645340" lon="-6.0966690">
        <ele>492.0</ele>
        <time>2019-09-04T11:39:55Z</time>
      </trkpt>
      <trkpt lat="43.1646160" lon="-6.0966730">
        <ele>492.0</ele>
        <time>2019-09-04T11:39:56Z</time>
      </trkpt>
      <trkpt lat="43.1647030" lon="-6.0966690">
        <ele>492.0</ele>
        <time>2019-09-04T11:39:57Z</time>
      </trkpt>
      <trkpt lat="43.1647900" lon="-6.0966580">
        <ele>492.0</ele>
        <time>2019-09-04T11:39:58Z</time>
      </trkpt>
      <trkpt lat="43.1649540" lon="-6.0966110">
        <ele>492.0</ele>
        <time>2019-09-04T11:40:00Z</time>
      </trkpt>
      <trkpt lat="43.1650300" lon="-6.0965790">
        <ele>492.0</ele>
        <time>2019-09-04T11:40:01Z</time>
      </trkpt>
      <trkpt lat="43.1651170" lon="-6.0965420">
        <ele>492.0</ele>
        <time>2019-09-04T11:40:02Z</time>
      </trkpt>
      <trkpt lat="43.1652710" lon="-6.0964740">
        <ele>492.0</ele>
        <time>2019-09-04T11:40:04Z</time>
      </trkpt>
      <trkpt lat="43.1653580" lon="-6.0964420">
        <ele>492.0</ele>
        <time>2019-09-04T11:40:05Z</time>
      </trkpt>
      <trkpt lat="43.1654400" lon="-6.0964150">
        <ele>492.0</ele>
        <time>2019-09-04T11:40:06Z</time>
      </trkpt>
      <trkpt lat="43.1655220" lon="-6.0963900">
        <ele>492.0</ele>
        <time>2019-09-04T11:40:07Z</time>
      </trkpt>
      <trkpt lat="43.1656090" lon="-6.0963710">
        <ele>492.0</ele>
        <time>2019-09-04T11:40:08Z</time>
      </trkpt>
      <trkpt lat="43.1656860" lon="-6.0963510">
        <ele>492.0</ele>
        <time>2019-09-04T11:40:09Z</time>
      </trkpt>
      <trkpt lat="43.1658500" lon="-6.0963140">
        <ele>492.0</ele>
        <time>2019-09-04T11:40:11Z</time>
      </trkpt>
      <trkpt lat="43.1659320" lon="-6.0962990">
        <ele>492.0</ele>
        <time>2019-09-04T11:40:12Z</time>
      </trkpt>
      <trkpt lat="43.1660130" lon="-6.0962870">
        <ele>492.0</ele>
        <time>2019-09-04T11:40:13Z</time>
      </trkpt>
      <trkpt lat="43.1660900" lon="-6.0962770">
        <ele>486.5</ele>
        <time>2019-09-04T11:40:14Z</time>
      </trkpt>
      <trkpt lat="43.1661620" lon="-6.0962730">
        <ele>486.5</ele>
        <time>2019-09-04T11:40:15Z</time>
      </trkpt>
      <trkpt lat="43.1663210" lon="-6.0962750">
        <ele>486.5</ele>
        <time>2019-09-04T11:40:17Z</time>
      </trkpt>
      <trkpt lat="43.1664740" lon="-6.0962590">
        <ele>486.5</ele>
        <time>2019-09-04T11:40:19Z</time>
      </trkpt>
      <trkpt lat="43.1665410" lon="-6.0962380">
        <ele>486.5</ele>
        <time>2019-09-04T11:40:20Z</time>
      </trkpt>
      <trkpt lat="43.1666790" lon="-6.0961570">
        <ele>486.5</ele>
        <time>2019-09-04T11:40:22Z</time>
      </trkpt>
      <trkpt lat="43.1667970" lon="-6.0960350">
        <ele>486.5</ele>
        <time>2019-09-04T11:40:24Z</time>
      </trkpt>
      <trkpt lat="43.1668990" lon="-6.0958940">
        <ele>486.5</ele>
        <time>2019-09-04T11:40:26Z</time>
      </trkpt>
      <trkpt lat="43.1670120" lon="-6.0957340">
        <ele>486.5</ele>
        <time>2019-09-04T11:40:28Z</time>
      </trkpt>
      <trkpt lat="43.1671450" lon="-6.0955920">
        <ele>486.5</ele>
        <time>2019-09-04T11:40:30Z</time>
      </trkpt>
      <trkpt lat="43.1672170" lon="-6.0955320">
        <ele>486.5</ele>
        <time>2019-09-04T11:40:31Z</time>
      </trkpt>
      <trkpt lat="43.1672880" lon="-6.0954840">
        <ele>486.5</ele>
        <time>2019-09-04T11:40:32Z</time>
      </trkpt>
      <trkpt lat="43.1674520" lon="-6.0954030">
        <ele>486.5</ele>
        <time>2019-09-04T11:40:34Z</time>
      </trkpt>
      <trkpt lat="43.1676420" lon="-6.0953660">
        <ele>484.4</ele>
        <time>2019-09-04T11:40:36Z</time>
      </trkpt>
      <trkpt lat="43.1678310" lon="-6.0953590">
        <ele>484.4</ele>
        <time>2019-09-04T11:40:38Z</time>
      </trkpt>
      <trkpt lat="43.1680150" lon="-6.0953630">
        <ele>484.4</ele>
        <time>2019-09-04T11:40:40Z</time>
      </trkpt>
      <trkpt lat="43.1681080" lon="-6.0953680">
        <ele>484.4</ele>
        <time>2019-09-04T11:40:41Z</time>
      </trkpt>
      <trkpt lat="43.1683020" lon="-6.0953910">
        <ele>484.4</ele>
        <time>2019-09-04T11:40:43Z</time>
      </trkpt>
      <trkpt lat="43.1685020" lon="-6.0954410">
        <ele>484.4</ele>
        <time>2019-09-04T11:40:45Z</time>
      </trkpt>
      <trkpt lat="43.1686910" lon="-6.0955210">
        <ele>484.4</ele>
        <time>2019-09-04T11:40:47Z</time>
      </trkpt>
      <trkpt lat="43.1688700" lon="-6.0956230">
        <ele>484.4</ele>
        <time>2019-09-04T11:40:49Z</time>
      </trkpt>
      <trkpt lat="43.1690500" lon="-6.0957240">
        <ele>484.4</ele>
        <time>2019-09-04T11:40:51Z</time>
      </trkpt>
      <trkpt lat="43.1691420" lon="-6.0957730">
        <ele>484.4</ele>
        <time>2019-09-04T11:40:52Z</time>
      </trkpt>
      <trkpt lat="43.1693210" lon="-6.0958500">
        <ele>482.3</ele>
        <time>2019-09-04T11:40:54Z</time>
      </trkpt>
      <trkpt lat="43.1695050" lon="-6.0959000">
        <ele>482.3</ele>
        <time>2019-09-04T11:40:56Z</time>
      </trkpt>
      <trkpt lat="43.1696030" lon="-6.0959100">
        <ele>482.3</ele>
        <time>2019-09-04T11:40:57Z</time>
      </trkpt>
      <trkpt lat="43.1697920" lon="-6.0958990">
        <ele>482.3</ele>
        <time>2019-09-04T11:40:59Z</time>
      </trkpt>
      <trkpt lat="43.1699610" lon="-6.0958440">
        <ele>482.3</ele>
        <time>2019-09-04T11:41:01Z</time>
      </trkpt>
      <trkpt lat="43.1701350" lon="-6.0957570">
        <ele>482.3</ele>
        <time>2019-09-04T11:41:03Z</time>
      </trkpt>
      <trkpt lat="43.1702940" lon="-6.0956720">
        <ele>482.3</ele>
        <time>2019-09-04T11:41:05Z</time>
      </trkpt>
      <trkpt lat="43.1704680" lon="-6.0956010">
        <ele>482.3</ele>
        <time>2019-09-04T11:41:07Z</time>
      </trkpt>
      <trkpt lat="43.1706370" lon="-6.0955650">
        <ele>482.3</ele>
        <time>2019-09-04T11:41:09Z</time>
      </trkpt>
      <trkpt lat="43.1708110" lon="-6.0955600">
        <ele>482.3</ele>
        <time>2019-09-04T11:41:11Z</time>
      </trkpt>
      <trkpt lat="43.1709750" lon="-6.0955710">
        <ele>482.3</ele>
        <time>2019-09-04T11:41:13Z</time>
      </trkpt>
      <trkpt lat="43.1711440" lon="-6.0955830">
        <ele>480.3</ele>
        <time>2019-09-04T11:41:15Z</time>
      </trkpt>
      <trkpt lat="43.1713130" lon="-6.0955970">
        <ele>480.3</ele>
        <time>2019-09-04T11:41:17Z</time>
      </trkpt>
      <trkpt lat="43.1714760" lon="-6.0955990">
        <ele>480.3</ele>
        <time>2019-09-04T11:41:19Z</time>
      </trkpt>
      <trkpt lat="43.1716400" lon="-6.0955780">
        <ele>480.3</ele>
        <time>2019-09-04T11:41:21Z</time>
      </trkpt>
      <trkpt lat="43.1717170" lon="-6.0955670">
        <ele>480.3</ele>
        <time>2019-09-04T11:41:22Z</time>
      </trkpt>
      <trkpt lat="43.1717940" lon="-6.0955540">
        <ele>480.3</ele>
        <time>2019-09-04T11:41:23Z</time>
      </trkpt>
      <trkpt lat="43.1719530" lon="-6.0955260">
        <ele>480.3</ele>
        <time>2019-09-04T11:41:25Z</time>
      </trkpt>
      <trkpt lat="43.1720960" lon="-6.0954890">
        <ele>480.3</ele>
        <time>2019-09-04T11:41:27Z</time>
      </trkpt>
      <trkpt lat="43.1722550" lon="-6.0954440">
        <ele>480.3</ele>
        <time>2019-09-04T11:41:29Z</time>
      </trkpt>
      <trkpt lat="43.1723980" lon="-6.0953960">
        <ele>480.3</ele>
        <time>2019-09-04T11:41:31Z</time>
      </trkpt>
      <trkpt lat="43.1725470" lon="-6.0953330">
        <ele>480.3</ele>
        <time>2019-09-04T11:41:33Z</time>
      </trkpt>
      <trkpt lat="43.1726230" lon="-6.0952930">
        <ele>480.3</ele>
        <time>2019-09-04T11:41:34Z</time>
      </trkpt>
      <trkpt lat="43.1726950" lon="-6.0952520">
        <ele>480.3</ele>
        <time>2019-09-04T11:41:35Z</time>
      </trkpt>
      <trkpt lat="43.1728380" lon="-6.0951650">
        <ele>480.3</ele>
        <time>2019-09-04T11:41:37Z</time>
      </trkpt>
      <trkpt lat="43.1729720" lon="-6.0950680">
        <ele>480.3</ele>
        <time>2019-09-04T11:41:39Z</time>
      </trkpt>
      <trkpt lat="43.1731050" lon="-6.0949640">
        <ele>478.2</ele>
        <time>2019-09-04T11:41:41Z</time>
      </trkpt>
      <trkpt lat="43.1732280" lon="-6.0948470">
        <ele>478.2</ele>
        <time>2019-09-04T11:41:43Z</time>
      </trkpt>
      <trkpt lat="43.1733560" lon="-6.0947210">
        <ele>478.2</ele>
        <time>2019-09-04T11:41:45Z</time>
      </trkpt>
      <trkpt lat="43.1734730" lon="-6.0945880">
        <ele>478.2</ele>
        <time>2019-09-04T11:41:47Z</time>
      </trkpt>
      <trkpt lat="43.1736010" lon="-6.0944520">
        <ele>478.2</ele>
        <time>2019-09-04T11:41:49Z</time>
      </trkpt>
      <trkpt lat="43.1737190" lon="-6.0943230">
        <ele>478.2</ele>
        <time>2019-09-04T11:41:51Z</time>
      </trkpt>
      <trkpt lat="43.1738270" lon="-6.0941990">
        <ele>478.2</ele>
        <time>2019-09-04T11:41:53Z</time>
      </trkpt>
      <trkpt lat="43.1739440" lon="-6.0940500">
        <ele>478.2</ele>
        <time>2019-09-04T11:41:55Z</time>
      </trkpt>
      <trkpt lat="43.1740260" lon="-6.0938810">
        <ele>478.2</ele>
        <time>2019-09-04T11:41:57Z</time>
      </trkpt>
      <trkpt lat="43.1740520" lon="-6.0937900">
        <ele>478.2</ele>
        <time>2019-09-04T11:41:58Z</time>
      </trkpt>
      <trkpt lat="43.1740770" lon="-6.0937080">
        <ele>478.2</ele>
        <time>2019-09-04T11:41:59Z</time>
      </trkpt>
      <trkpt lat="43.1741180" lon="-6.0935140">
        <ele>478.2</ele>
        <time>2019-09-04T11:42:01Z</time>
      </trkpt>
      <trkpt lat="43.1741490" lon="-6.0933040">
        <ele>478.2</ele>
        <time>2019-09-04T11:42:03Z</time>
      </trkpt>
      <trkpt lat="43.1741540" lon="-6.0931990">
        <ele>478.2</ele>
        <time>2019-09-04T11:42:04Z</time>
      </trkpt>
      <trkpt lat="43.1741640" lon="-6.0929910">
        <ele>478.2</ele>
        <time>2019-09-04T11:42:06Z</time>
      </trkpt>
      <trkpt lat="43.1741640" lon="-6.0928800">
        <ele>478.2</ele>
        <time>2019-09-04T11:42:07Z</time>
      </trkpt>
      <trkpt lat="43.1741590" lon="-6.0926530">
        <ele>478.2</ele>
        <time>2019-09-04T11:42:09Z</time>
      </trkpt>
      <trkpt lat="43.1741540" lon="-6.0925480">
        <ele>478.2</ele>
        <time>2019-09-04T11:42:10Z</time>
      </trkpt>
      <trkpt lat="43.1741440" lon="-6.0923150">
        <ele>476.1</ele>
        <time>2019-09-04T11:42:12Z</time>
      </trkpt>
      <trkpt lat="43.1741440" lon="-6.0920870">
        <ele>476.1</ele>
        <time>2019-09-04T11:42:14Z</time>
      </trkpt>
      <trkpt lat="43.1741700" lon="-6.0918460">
        <ele>476.1</ele>
        <time>2019-09-04T11:42:16Z</time>
      </trkpt>
      <trkpt lat="43.1742160" lon="-6.0916050">
        <ele>476.1</ele>
        <time>2019-09-04T11:42:18Z</time>
      </trkpt>
      <trkpt lat="43.1742670" lon="-6.0913650">
        <ele>476.1</ele>
        <time>2019-09-04T11:42:20Z</time>
      </trkpt>
      <trkpt lat="43.1743180" lon="-6.0911150">
        <ele>476.1</ele>
        <time>2019-09-04T11:42:22Z</time>
      </trkpt>
      <trkpt lat="43.1743540" lon="-6.0908660">
        <ele>476.1</ele>
        <time>2019-09-04T11:42:24Z</time>
      </trkpt>
      <trkpt lat="43.1743740" lon="-6.0906000">
        <ele>476.1</ele>
        <time>2019-09-04T11:42:26Z</time>
      </trkpt>
      <trkpt lat="43.1743690" lon="-6.0903440">
        <ele>476.1</ele>
        <time>2019-09-04T11:42:28Z</time>
      </trkpt>
      <trkpt lat="43.1743490" lon="-6.0900980">
        <ele>476.1</ele>
        <time>2019-09-04T11:42:30Z</time>
      </trkpt>
      <trkpt lat="43.1743180" lon="-6.0898410">
        <ele>476.1</ele>
        <time>2019-09-04T11:42:32Z</time>
      </trkpt>
      <trkpt lat="43.1743130" lon="-6.0896060">
        <ele>476.1</ele>
        <time>2019-09-04T11:42:34Z</time>
      </trkpt>
      <trkpt lat="43.1743440" lon="-6.0893720">
        <ele>476.1</ele>
        <time>2019-09-04T11:42:36Z</time>
      </trkpt>
      <trkpt lat="43.1744100" lon="-6.0891480">
        <ele>476.1</ele>
        <time>2019-09-04T11:42:38Z</time>
      </trkpt>
      <trkpt lat="43.1745130" lon="-6.0889360">
        <ele>476.1</ele>
        <time>2019-09-04T11:42:40Z</time>
      </trkpt>
      <trkpt lat="43.1746200" lon="-6.0887240">
        <ele>476.1</ele>
        <time>2019-09-04T11:42:42Z</time>
      </trkpt>
      <trkpt lat="43.1746820" lon="-6.0886120">
        <ele>474.1</ele>
        <time>2019-09-04T11:42:43Z</time>
      </trkpt>
      <trkpt lat="43.1748040" lon="-6.0884060">
        <ele>474.1</ele>
        <time>2019-09-04T11:42:45Z</time>
      </trkpt>
      <trkpt lat="43.1748710" lon="-6.0882940">
        <ele>474.1</ele>
        <time>2019-09-04T11:42:46Z</time>
      </trkpt>
      <trkpt lat="43.1749890" lon="-6.0880710">
        <ele>474.1</ele>
        <time>2019-09-04T11:42:48Z</time>
      </trkpt>
      <trkpt lat="43.1750450" lon="-6.0879610">
        <ele>474.1</ele>
        <time>2019-09-04T11:42:49Z</time>
      </trkpt>
      <trkpt lat="43.1751780" lon="-6.0877260">
        <ele>474.1</ele>
        <time>2019-09-04T11:42:51Z</time>
      </trkpt>
      <trkpt lat="43.1753220" lon="-6.0875280">
        <ele>474.1</ele>
        <time>2019-09-04T11:42:53Z</time>
      </trkpt>
      <trkpt lat="43.1754960" lon="-6.0873610">
        <ele>474.1</ele>
        <time>2019-09-04T11:42:55Z</time>
      </trkpt>
      <trkpt lat="43.1756800" lon="-6.0872280">
        <ele>474.1</ele>
        <time>2019-09-04T11:42:57Z</time>
      </trkpt>
      <trkpt lat="43.1758750" lon="-6.0870950">
        <ele>474.1</ele>
        <time>2019-09-04T11:42:59Z</time>
      </trkpt>
      <trkpt lat="43.1760490" lon="-6.0869560">
        <ele>474.1</ele>
        <time>2019-09-04T11:43:01Z</time>
      </trkpt>
      <trkpt lat="43.1761970" lon="-6.0867760">
        <ele>474.1</ele>
        <time>2019-09-04T11:43:03Z</time>
      </trkpt>
      <trkpt lat="43.1763100" lon="-6.0865660">
        <ele>472.0</ele>
        <time>2019-09-04T11:43:05Z</time>
      </trkpt>
      <trkpt lat="43.1763810" lon="-6.0863300">
        <ele>472.0</ele>
        <time>2019-09-04T11:43:07Z</time>
      </trkpt>
      <trkpt lat="43.1764170" lon="-6.0860930">
        <ele>472.0</ele>
        <time>2019-09-04T11:43:09Z</time>
      </trkpt>
      <trkpt lat="43.1764430" lon="-6.0858490">
        <ele>472.0</ele>
        <time>2019-09-04T11:43:11Z</time>
      </trkpt>
      <trkpt lat="43.1764630" lon="-6.0856100">
        <ele>472.0</ele>
        <time>2019-09-04T11:43:13Z</time>
      </trkpt>
      <trkpt lat="43.1764790" lon="-6.0853780">
        <ele>472.0</ele>
        <time>2019-09-04T11:43:15Z</time>
      </trkpt>
      <trkpt lat="43.1764890" lon="-6.0852630">
        <ele>472.0</ele>
        <time>2019-09-04T11:43:16Z</time>
      </trkpt>
      <trkpt lat="43.1765040" lon="-6.0850440">
        <ele>472.0</ele>
        <time>2019-09-04T11:43:18Z</time>
      </trkpt>
      <trkpt lat="43.1765150" lon="-6.0849300">
        <ele>472.0</ele>
        <time>2019-09-04T11:43:19Z</time>
      </trkpt>
      <trkpt lat="43.1765200" lon="-6.0848190">
        <ele>472.0</ele>
        <time>2019-09-04T11:43:20Z</time>
      </trkpt>
      <trkpt lat="43.1765450" lon="-6.0846150">
        <ele>469.9</ele>
        <time>2019-09-04T11:43:22Z</time>
      </trkpt>
      <trkpt lat="43.1765660" lon="-6.0845170">
        <ele>469.9</ele>
        <time>2019-09-04T11:43:23Z</time>
      </trkpt>
      <trkpt lat="43.1765910" lon="-6.0844200">
        <ele>469.9</ele>
        <time>2019-09-04T11:43:24Z</time>
      </trkpt>
      <trkpt lat="43.1766680" lon="-6.0842390">
        <ele>469.9</ele>
        <time>2019-09-04T11:43:26Z</time>
      </trkpt>
      <trkpt lat="43.1767810" lon="-6.0840780">
        <ele>469.9</ele>
        <time>2019-09-04T11:43:28Z</time>
      </trkpt>
      <trkpt lat="43.1769090" lon="-6.0839350">
        <ele>469.9</ele>
        <time>2019-09-04T11:43:30Z</time>
      </trkpt>
      <trkpt lat="43.1770520" lon="-6.0838020">
        <ele>469.9</ele>
        <time>2019-09-04T11:43:32Z</time>
      </trkpt>
      <trkpt lat="43.1771900" lon="-6.0836760">
        <ele>469.9</ele>
        <time>2019-09-04T11:43:34Z</time>
      </trkpt>
      <trkpt lat="43.1772570" lon="-6.0836200">
        <ele>469.9</ele>
        <time>2019-09-04T11:43:35Z</time>
      </trkpt>
      <trkpt lat="43.1774050" lon="-6.0835010">
        <ele>469.9</ele>
        <time>2019-09-04T11:43:37Z</time>
      </trkpt>
      <trkpt lat="43.1775490" lon="-6.0833910">
        <ele>469.9</ele>
        <time>2019-09-04T11:43:39Z</time>
      </trkpt>
      <trkpt lat="43.1777080" lon="-6.0832880">
        <ele>467.9</ele>
        <time>2019-09-04T11:43:41Z</time>
      </trkpt>
      <trkpt lat="43.1778760" lon="-6.0832220">
        <ele>467.9</ele>
        <time>2019-09-04T11:43:43Z</time>
      </trkpt>
      <trkpt lat="43.1780450" lon="-6.0831780">
        <ele>467.9</ele>
        <time>2019-09-04T11:43:45Z</time>
      </trkpt>
      <trkpt lat="43.1782200" lon="-6.0831220">
        <ele>467.9</ele>
        <time>2019-09-04T11:43:47Z</time>
      </trkpt>
      <trkpt lat="43.1783070" lon="-6.0830860">
        <ele>467.9</ele>
        <time>2019-09-04T11:43:48Z</time>
      </trkpt>
      <trkpt lat="43.1784650" lon="-6.0829940">
        <ele>467.9</ele>
        <time>2019-09-04T11:43:50Z</time>
      </trkpt>
      <trkpt lat="43.1786290" lon="-6.0828590">
        <ele>467.9</ele>
        <time>2019-09-04T11:43:52Z</time>
      </trkpt>
      <trkpt lat="43.1787830" lon="-6.0826990">
        <ele>467.9</ele>
        <time>2019-09-04T11:43:54Z</time>
      </trkpt>
      <trkpt lat="43.1789260" lon="-6.0825350">
        <ele>467.9</ele>
        <time>2019-09-04T11:43:56Z</time>
      </trkpt>
      <trkpt lat="43.1790800" lon="-6.0823860">
        <ele>464.2</ele>
        <time>2019-09-04T11:43:58Z</time>
      </trkpt>
      <trkpt lat="43.1792490" lon="-6.0822870">
        <ele>464.2</ele>
        <time>2019-09-04T11:44:00Z</time>
      </trkpt>
      <trkpt lat="43.1794330" lon="-6.0822300">
        <ele>464.2</ele>
        <time>2019-09-04T11:44:02Z</time>
      </trkpt>
      <trkpt lat="43.1795250" lon="-6.0822070">
        <ele>464.2</ele>
        <time>2019-09-04T11:44:03Z</time>
      </trkpt>
      <trkpt lat="43.1797040" lon="-6.0821660">
        <ele>464.2</ele>
        <time>2019-09-04T11:44:05Z</time>
      </trkpt>
      <trkpt lat="43.1843070" lon="-6.0797270">
        <ele>464.2</ele>
        <time>2019-09-04T11:44:57Z</time>
      </trkpt>
      <trkpt lat="43.1857200" lon="-6.0791350">
        <ele>464.2</ele>
        <time>2019-09-04T11:45:13Z</time>
      </trkpt>
      <trkpt lat="43.1858480" lon="-6.0790750">
        <ele>464.2</ele>
        <time>2019-09-04T11:45:15Z</time>
      </trkpt>
      <trkpt lat="43.1859350" lon="-6.0790250">
        <ele>464.2</ele>
        <time>2019-09-04T11:45:16Z</time>
      </trkpt>
      <trkpt lat="43.1860220" lon="-6.0789690">
        <ele>464.2</ele>
        <time>2019-09-04T11:45:17Z</time>
      </trkpt>
      <trkpt lat="43.1861150" lon="-6.0788930">
        <ele>464.2</ele>
        <time>2019-09-04T11:45:18Z</time>
      </trkpt>
      <trkpt lat="43.1862170" lon="-6.0788090">
        <ele>464.2</ele>
        <time>2019-09-04T11:45:19Z</time>
      </trkpt>
      <trkpt lat="43.1863090" lon="-6.0787230">
        <ele>464.2</ele>
        <time>2019-09-04T11:45:20Z</time>
      </trkpt>
      <trkpt lat="43.1864010" lon="-6.0786390">
        <ele>464.2</ele>
        <time>2019-09-04T11:45:21Z</time>
      </trkpt>
      <trkpt lat="43.1864990" lon="-6.0785590">
        <ele>464.2</ele>
        <time>2019-09-04T11:45:22Z</time>
      </trkpt>
      <trkpt lat="43.1866010" lon="-6.0784880">
        <ele>464.2</ele>
        <time>2019-09-04T11:45:23Z</time>
      </trkpt>
      <trkpt lat="43.1868110" lon="-6.0783770">
        <ele>464.2</ele>
        <time>2019-09-04T11:45:25Z</time>
      </trkpt>
      <trkpt lat="43.1869180" lon="-6.0783440">
        <ele>464.2</ele>
        <time>2019-09-04T11:45:26Z</time>
      </trkpt>
      <trkpt lat="43.1870210" lon="-6.0783180">
        <ele>466.5</ele>
        <time>2019-09-04T11:45:27Z</time>
      </trkpt>
      <trkpt lat="43.1871330" lon="-6.0782960">
        <ele>466.5</ele>
        <time>2019-09-04T11:45:28Z</time>
      </trkpt>
      <trkpt lat="43.1873690" lon="-6.0782480">
        <ele>466.5</ele>
        <time>2019-09-04T11:45:30Z</time>
      </trkpt>
      <trkpt lat="43.1874870" lon="-6.0782160">
        <ele>466.5</ele>
        <time>2019-09-04T11:45:31Z</time>
      </trkpt>
      <trkpt lat="43.1876150" lon="-6.0781770">
        <ele>466.5</ele>
        <time>2019-09-04T11:45:32Z</time>
      </trkpt>
      <trkpt lat="43.1888180" lon="-6.0764200">
        <ele>466.5</ele>
        <time>2019-09-04T11:45:46Z</time>
      </trkpt>
      <trkpt lat="43.1888640" lon="-6.0763980">
        <ele>466.5</ele>
        <time>2019-09-04T11:45:47Z</time>
      </trkpt>
      <trkpt lat="43.1890180" lon="-6.0763670">
        <ele>466.5</ele>
        <time>2019-09-04T11:45:49Z</time>
      </trkpt>
      <trkpt lat="43.1891300" lon="-6.0763790">
        <ele>466.5</ele>
        <time>2019-09-04T11:45:50Z</time>
      </trkpt>
      <trkpt lat="43.1892380" lon="-6.0764170">
        <ele>466.5</ele>
        <time>2019-09-04T11:45:51Z</time>
      </trkpt>
      <trkpt lat="43.1893400" lon="-6.0764670">
        <ele>466.5</ele>
        <time>2019-09-04T11:45:52Z</time>
      </trkpt>
      <trkpt lat="43.1894480" lon="-6.0765220">
        <ele>466.5</ele>
        <time>2019-09-04T11:45:53Z</time>
      </trkpt>
      <trkpt lat="43.1896580" lon="-6.0766190">
        <ele>466.5</ele>
        <time>2019-09-04T11:45:55Z</time>
      </trkpt>
      <trkpt lat="43.1898930" lon="-6.0766600">
        <ele>466.5</ele>
        <time>2019-09-04T11:45:57Z</time>
      </trkpt>
      <trkpt lat="43.1901130" lon="-6.0766210">
        <ele>466.5</ele>
        <time>2019-09-04T11:45:59Z</time>
      </trkpt>
      <trkpt lat="43.1902870" lon="-6.0765150">
        <ele>466.5</ele>
        <time>2019-09-04T11:46:01Z</time>
      </trkpt>
      <trkpt lat="43.1904410" lon="-6.0763330">
        <ele>466.5</ele>
        <time>2019-09-04T11:46:03Z</time>
      </trkpt>
      <trkpt lat="43.1905540" lon="-6.0761090">
        <ele>466.5</ele>
        <time>2019-09-04T11:46:05Z</time>
      </trkpt>
      <trkpt lat="43.1906300" lon="-6.0758620">
        <ele>466.5</ele>
        <time>2019-09-04T11:46:07Z</time>
      </trkpt>
      <trkpt lat="43.1906970" lon="-6.0756010">
        <ele>466.5</ele>
        <time>2019-09-04T11:46:09Z</time>
      </trkpt>
      <trkpt lat="43.1907530" lon="-6.0753320">
        <ele>464.3</ele>
        <time>2019-09-04T11:46:11Z</time>
      </trkpt>
      <trkpt lat="43.1908100" lon="-6.0750600">
        <ele>464.3</ele>
        <time>2019-09-04T11:46:13Z</time>
      </trkpt>
      <trkpt lat="43.1908400" lon="-6.0749250">
        <ele>464.3</ele>
        <time>2019-09-04T11:46:14Z</time>
      </trkpt>
      <trkpt lat="43.1908920" lon="-6.0746600">
        <ele>464.3</ele>
        <time>2019-09-04T11:46:16Z</time>
      </trkpt>
      <trkpt lat="43.1909220" lon="-6.0745300">
        <ele>462.3</ele>
        <time>2019-09-04T11:46:17Z</time>
      </trkpt>
      <trkpt lat="43.1909530" lon="-6.0744130">
        <ele>462.3</ele>
        <time>2019-09-04T11:46:18Z</time>
      </trkpt>
      <trkpt lat="43.1910350" lon="-6.0741800">
        <ele>462.3</ele>
        <time>2019-09-04T11:46:20Z</time>
      </trkpt>
      <trkpt lat="43.1911480" lon="-6.0739760">
        <ele>462.3</ele>
        <time>2019-09-04T11:46:22Z</time>
      </trkpt>
      <trkpt lat="43.1912090" lon="-6.0738900">
        <ele>462.3</ele>
        <time>2019-09-04T11:46:23Z</time>
      </trkpt>
      <trkpt lat="43.1912860" lon="-6.0738110">
        <ele>462.3</ele>
        <time>2019-09-04T11:46:24Z</time>
      </trkpt>
      <trkpt lat="43.1914500" lon="-6.0736990">
        <ele>462.3</ele>
        <time>2019-09-04T11:46:26Z</time>
      </trkpt>
      <trkpt lat="43.1916290" lon="-6.0736470">
        <ele>462.3</ele>
        <time>2019-09-04T11:46:28Z</time>
      </trkpt>
      <trkpt lat="43.1918280" lon="-6.0737090">
        <ele>462.3</ele>
        <time>2019-09-04T11:46:30Z</time>
      </trkpt>
      <trkpt lat="43.1920380" lon="-6.0737600">
        <ele>460.2</ele>
        <time>2019-09-04T11:46:32Z</time>
      </trkpt>
      <trkpt lat="43.1922530" lon="-6.0738160">
        <ele>460.2</ele>
        <time>2019-09-04T11:46:34Z</time>
      </trkpt>
      <trkpt lat="43.1924680" lon="-6.0738770">
        <ele>460.2</ele>
        <time>2019-09-04T11:46:36Z</time>
      </trkpt>
      <trkpt lat="43.1926990" lon="-6.0738910">
        <ele>460.2</ele>
        <time>2019-09-04T11:46:38Z</time>
      </trkpt>
      <trkpt lat="43.1929140" lon="-6.0738590">
        <ele>460.2</ele>
        <time>2019-09-04T11:46:40Z</time>
      </trkpt>
      <trkpt lat="43.1931140" lon="-6.0737710">
        <ele>460.2</ele>
        <time>2019-09-04T11:46:42Z</time>
      </trkpt>
      <trkpt lat="43.1932930" lon="-6.0736120">
        <ele>460.2</ele>
        <time>2019-09-04T11:46:44Z</time>
      </trkpt>
      <trkpt lat="43.1933640" lon="-6.0735230">
        <ele>460.2</ele>
        <time>2019-09-04T11:46:45Z</time>
      </trkpt>
      <trkpt lat="43.1934210" lon="-6.0734270">
        <ele>458.0</ele>
        <time>2019-09-04T11:46:46Z</time>
      </trkpt>
      <trkpt lat="43.1935130" lon="-6.0731940">
        <ele>458.0</ele>
        <time>2019-09-04T11:46:48Z</time>
      </trkpt>
      <trkpt lat="43.1935640" lon="-6.0729210">
        <ele>458.0</ele>
        <time>2019-09-04T11:46:50Z</time>
      </trkpt>
      <trkpt lat="43.1935740" lon="-6.0727830">
        <ele>458.0</ele>
        <time>2019-09-04T11:46:51Z</time>
      </trkpt>
      <trkpt lat="43.1935800" lon="-6.0725070">
        <ele>458.0</ele>
        <time>2019-09-04T11:46:53Z</time>
      </trkpt>
      <trkpt lat="43.1935690" lon="-6.0722210">
        <ele>458.0</ele>
        <time>2019-09-04T11:46:55Z</time>
      </trkpt>
      <trkpt lat="43.1935640" lon="-6.0720910">
        <ele>458.0</ele>
        <time>2019-09-04T11:46:56Z</time>
      </trkpt>
      <trkpt lat="43.1935540" lon="-6.0718270">
        <ele>458.0</ele>
        <time>2019-09-04T11:46:58Z</time>
      </trkpt>
      <trkpt lat="43.1935490" lon="-6.0717050">
        <ele>456.0</ele>
        <time>2019-09-04T11:46:59Z</time>
      </trkpt>
      <trkpt lat="43.1935590" lon="-6.0714600">
        <ele>456.0</ele>
        <time>2019-09-04T11:47:01Z</time>
      </trkpt>
      <trkpt lat="43.1935900" lon="-6.0712210">
        <ele>456.0</ele>
        <time>2019-09-04T11:47:03Z</time>
      </trkpt>
      <trkpt lat="43.1936510" lon="-6.0710020">
        <ele>456.0</ele>
        <time>2019-09-04T11:47:05Z</time>
      </trkpt>
      <trkpt lat="43.1937180" lon="-6.0708100">
        <ele>456.0</ele>
        <time>2019-09-04T11:47:07Z</time>
      </trkpt>
      <trkpt lat="43.1938150" lon="-6.0706320">
        <ele>456.0</ele>
        <time>2019-09-04T11:47:09Z</time>
      </trkpt>
      <trkpt lat="43.1939380" lon="-6.0704710">
        <ele>456.0</ele>
        <time>2019-09-04T11:47:11Z</time>
      </trkpt>
      <trkpt lat="43.1940560" lon="-6.0703390">
        <ele>456.0</ele>
        <time>2019-09-04T11:47:13Z</time>
      </trkpt>
      <trkpt lat="43.1942040" lon="-6.0702170">
        <ele>456.0</ele>
        <time>2019-09-04T11:47:15Z</time>
      </trkpt>
      <trkpt lat="43.1943580" lon="-6.0700950">
        <ele>453.9</ele>
        <time>2019-09-04T11:47:17Z</time>
      </trkpt>
      <trkpt lat="43.1945160" lon="-6.0699690">
        <ele>453.9</ele>
        <time>2019-09-04T11:47:19Z</time>
      </trkpt>
      <trkpt lat="43.1946750" lon="-6.0698460">
        <ele>453.9</ele>
        <time>2019-09-04T11:47:21Z</time>
      </trkpt>
      <trkpt lat="43.1948490" lon="-6.0697290">
        <ele>453.9</ele>
        <time>2019-09-04T11:47:23Z</time>
      </trkpt>
      <trkpt lat="43.1950130" lon="-6.0696080">
        <ele>453.9</ele>
        <time>2019-09-04T11:47:25Z</time>
      </trkpt>
      <trkpt lat="43.1950950" lon="-6.0695510">
        <ele>453.9</ele>
        <time>2019-09-04T11:47:26Z</time>
      </trkpt>
      <trkpt lat="43.1952690" lon="-6.0694410">
        <ele>453.9</ele>
        <time>2019-09-04T11:47:28Z</time>
      </trkpt>
      <trkpt lat="43.1954430" lon="-6.0693520">
        <ele>453.9</ele>
        <time>2019-09-04T11:47:30Z</time>
      </trkpt>
      <trkpt lat="43.1956170" lon="-6.0692740">
        <ele>453.9</ele>
        <time>2019-09-04T11:47:32Z</time>
      </trkpt>
      <trkpt lat="43.1957810" lon="-6.0691860">
        <ele>453.9</ele>
        <time>2019-09-04T11:47:34Z</time>
      </trkpt>
      <trkpt lat="43.1959240" lon="-6.0690550">
        <ele>453.9</ele>
        <time>2019-09-04T11:47:36Z</time>
      </trkpt>
      <trkpt lat="43.1959810" lon="-6.0689680">
        <ele>453.9</ele>
        <time>2019-09-04T11:47:37Z</time>
      </trkpt>
      <trkpt lat="43.1960320" lon="-6.0688740">
        <ele>453.9</ele>
        <time>2019-09-04T11:47:38Z</time>
      </trkpt>
      <trkpt lat="43.1960730" lon="-6.0687520">
        <ele>453.9</ele>
        <time>2019-09-04T11:47:39Z</time>
      </trkpt>
      <trkpt lat="43.1961090" lon="-6.0686200">
        <ele>453.9</ele>
        <time>2019-09-04T11:47:40Z</time>
      </trkpt>
      <trkpt lat="43.1961400" lon="-6.0684800">
        <ele>453.9</ele>
        <time>2019-09-04T11:47:41Z</time>
      </trkpt>
      <trkpt lat="43.1961910" lon="-6.0682920">
        <ele>453.9</ele>
        <time>2019-09-04T11:47:42Z</time>
      </trkpt>
      <trkpt lat="43.1962320" lon="-6.0681460">
        <ele>453.9</ele>
        <time>2019-09-04T11:47:43Z</time>
      </trkpt>
      <trkpt lat="43.1962780" lon="-6.0680080">
        <ele>451.8</ele>
        <time>2019-09-04T11:47:44Z</time>
      </trkpt>
      <trkpt lat="43.1963290" lon="-6.0678880">
        <ele>451.8</ele>
        <time>2019-09-04T11:47:45Z</time>
      </trkpt>
      <trkpt lat="43.1963960" lon="-6.0677780">
        <ele>451.8</ele>
        <time>2019-09-04T11:47:46Z</time>
      </trkpt>
      <trkpt lat="43.1964670" lon="-6.0676860">
        <ele>451.8</ele>
        <time>2019-09-04T11:47:47Z</time>
      </trkpt>
      <trkpt lat="43.1965490" lon="-6.0676150">
        <ele>451.8</ele>
        <time>2019-09-04T11:47:48Z</time>
      </trkpt>
      <trkpt lat="43.1966410" lon="-6.0675810">
        <ele>451.8</ele>
        <time>2019-09-04T11:47:49Z</time>
      </trkpt>
      <trkpt lat="43.1967440" lon="-6.0675670">
        <ele>451.8</ele>
        <time>2019-09-04T11:47:50Z</time>
      </trkpt>
      <trkpt lat="43.1968410" lon="-6.0675690">
        <ele>451.8</ele>
        <time>2019-09-04T11:47:51Z</time>
      </trkpt>
      <trkpt lat="43.1969380" lon="-6.0675810">
        <ele>451.8</ele>
        <time>2019-09-04T11:47:52Z</time>
      </trkpt>
      <trkpt lat="43.1970460" lon="-6.0676330">
        <ele>451.8</ele>
        <time>2019-09-04T11:47:53Z</time>
      </trkpt>
      <trkpt lat="43.1971690" lon="-6.0676970">
        <ele>451.8</ele>
        <time>2019-09-04T11:47:54Z</time>
      </trkpt>
      <trkpt lat="43.1972860" lon="-6.0677610">
        <ele>451.8</ele>
        <time>2019-09-04T11:47:55Z</time>
      </trkpt>
      <trkpt lat="43.1974960" lon="-6.0678920">
        <ele>451.8</ele>
        <time>2019-09-04T11:47:57Z</time>
      </trkpt>
      <trkpt lat="43.1976760" lon="-6.0680220">
        <ele>449.6</ele>
        <time>2019-09-04T11:47:59Z</time>
      </trkpt>
      <trkpt lat="43.1977780" lon="-6.0680960">
        <ele>449.6</ele>
        <time>2019-09-04T11:48:00Z</time>
      </trkpt>
      <trkpt lat="43.1979620" lon="-6.0682390">
        <ele>449.6</ele>
        <time>2019-09-04T11:48:02Z</time>
      </trkpt>
      <trkpt lat="43.1980540" lon="-6.0683140">
        <ele>449.6</ele>
        <time>2019-09-04T11:48:03Z</time>
      </trkpt>
      <trkpt lat="43.1981470" lon="-6.0683850">
        <ele>449.6</ele>
        <time>2019-09-04T11:48:04Z</time>
      </trkpt>
      <trkpt lat="43.1983460" lon="-6.0684860">
        <ele>449.6</ele>
        <time>2019-09-04T11:48:06Z</time>
      </trkpt>
      <trkpt lat="43.1985610" lon="-6.0684960">
        <ele>449.6</ele>
        <time>2019-09-04T11:48:08Z</time>
      </trkpt>
      <trkpt lat="43.1987660" lon="-6.0684630">
        <ele>449.6</ele>
        <time>2019-09-04T11:48:10Z</time>
      </trkpt>
      <trkpt lat="43.1989560" lon="-6.0683760">
        <ele>449.6</ele>
        <time>2019-09-04T11:48:12Z</time>
      </trkpt>
      <trkpt lat="43.1991300" lon="-6.0682530">
        <ele>449.6</ele>
        <time>2019-09-04T11:48:14Z</time>
      </trkpt>
      <trkpt lat="43.1992990" lon="-6.0681290">
        <ele>447.5</ele>
        <time>2019-09-04T11:48:16Z</time>
      </trkpt>
      <trkpt lat="43.1994730" lon="-6.0680360">
        <ele>447.5</ele>
        <time>2019-09-04T11:48:18Z</time>
      </trkpt>
      <trkpt lat="43.1996570" lon="-6.0679870">
        <ele>447.5</ele>
        <time>2019-09-04T11:48:20Z</time>
      </trkpt>
      <trkpt lat="43.1998360" lon="-6.0679720">
        <ele>447.5</ele>
        <time>2019-09-04T11:48:22Z</time>
      </trkpt>
      <trkpt lat="43.2000260" lon="-6.0679610">
        <ele>447.5</ele>
        <time>2019-09-04T11:48:24Z</time>
      </trkpt>
      <trkpt lat="43.2002200" lon="-6.0679220">
        <ele>447.5</ele>
        <time>2019-09-04T11:48:26Z</time>
      </trkpt>
      <trkpt lat="43.2003890" lon="-6.0678480">
        <ele>447.5</ele>
        <time>2019-09-04T11:48:28Z</time>
      </trkpt>
      <trkpt lat="43.2005430" lon="-6.0677390">
        <ele>445.5</ele>
        <time>2019-09-04T11:48:30Z</time>
      </trkpt>
      <trkpt lat="43.2006140" lon="-6.0676640">
        <ele>445.5</ele>
        <time>2019-09-04T11:48:31Z</time>
      </trkpt>
      <trkpt lat="43.2007320" lon="-6.0675050">
        <ele>445.5</ele>
        <time>2019-09-04T11:48:33Z</time>
      </trkpt>
      <trkpt lat="43.2008350" lon="-6.0672930">
        <ele>445.5</ele>
        <time>2019-09-04T11:48:35Z</time>
      </trkpt>
      <trkpt lat="43.2009010" lon="-6.0670750">
        <ele>445.5</ele>
        <time>2019-09-04T11:48:37Z</time>
      </trkpt>
      <trkpt lat="43.2009220" lon="-6.0669510">
        <ele>445.5</ele>
        <time>2019-09-04T11:48:38Z</time>
      </trkpt>
      <trkpt lat="43.2009420" lon="-6.0667070">
        <ele>445.5</ele>
        <time>2019-09-04T11:48:40Z</time>
      </trkpt>
      <trkpt lat="43.2009470" lon="-6.0665960">
        <ele>445.5</ele>
        <time>2019-09-04T11:48:41Z</time>
      </trkpt>
      <trkpt lat="43.2009520" lon="-6.0663580">
        <ele>445.5</ele>
        <time>2019-09-04T11:48:43Z</time>
      </trkpt>
      <trkpt lat="43.2009630" lon="-6.0661260">
        <ele>443.3</ele>
        <time>2019-09-04T11:48:45Z</time>
      </trkpt>
      <trkpt lat="43.2009830" lon="-6.0658930">
        <ele>443.3</ele>
        <time>2019-09-04T11:48:47Z</time>
      </trkpt>
      <trkpt lat="43.2009980" lon="-6.0656370">
        <ele>443.3</ele>
        <time>2019-09-04T11:48:49Z</time>
      </trkpt>
      <trkpt lat="43.2010140" lon="-6.0653850">
        <ele>443.3</ele>
        <time>2019-09-04T11:48:51Z</time>
      </trkpt>
      <trkpt lat="43.2010290" lon="-6.0651350">
        <ele>443.3</ele>
        <time>2019-09-04T11:48:53Z</time>
      </trkpt>
      <trkpt lat="43.2010390" lon="-6.0648830">
        <ele>443.3</ele>
        <time>2019-09-04T11:48:55Z</time>
      </trkpt>
      <trkpt lat="43.2010440" lon="-6.0646230">
        <ele>443.3</ele>
        <time>2019-09-04T11:48:57Z</time>
      </trkpt>
      <trkpt lat="43.2010440" lon="-6.0643560">
        <ele>441.3</ele>
        <time>2019-09-04T11:48:59Z</time>
      </trkpt>
      <trkpt lat="43.2010290" lon="-6.0641000">
        <ele>441.3</ele>
        <time>2019-09-04T11:49:01Z</time>
      </trkpt>
      <trkpt lat="43.2010090" lon="-6.0638320">
        <ele>441.3</ele>
        <time>2019-09-04T11:49:03Z</time>
      </trkpt>
      <trkpt lat="43.2009830" lon="-6.0635720">
        <ele>441.3</ele>
        <time>2019-09-04T11:49:05Z</time>
      </trkpt>
      <trkpt lat="43.2009780" lon="-6.0633380">
        <ele>441.3</ele>
        <time>2019-09-04T11:49:07Z</time>
      </trkpt>
      <trkpt lat="43.2009980" lon="-6.0630910">
        <ele>441.3</ele>
        <time>2019-09-04T11:49:09Z</time>
      </trkpt>
      <trkpt lat="43.2010190" lon="-6.0629770">
        <ele>441.3</ele>
        <time>2019-09-04T11:49:10Z</time>
      </trkpt>
      <trkpt lat="43.2010800" lon="-6.0627660">
        <ele>441.3</ele>
        <time>2019-09-04T11:49:12Z</time>
      </trkpt>
      <trkpt lat="43.2011670" lon="-6.0625690">
        <ele>439.3</ele>
        <time>2019-09-04T11:49:14Z</time>
      </trkpt>
      <trkpt lat="43.2012080" lon="-6.0624840">
        <ele>439.3</ele>
        <time>2019-09-04T11:49:15Z</time>
      </trkpt>
      <trkpt lat="43.2013110" lon="-6.0623110">
        <ele>439.3</ele>
        <time>2019-09-04T11:49:17Z</time>
      </trkpt>
      <trkpt lat="43.2013620" lon="-6.0622230">
        <ele>439.3</ele>
        <time>2019-09-04T11:49:18Z</time>
      </trkpt>
      <trkpt lat="43.2014690" lon="-6.0620600">
        <ele>439.3</ele>
        <time>2019-09-04T11:49:20Z</time>
      </trkpt>
      <trkpt lat="43.2015870" lon="-6.0618920">
        <ele>439.3</ele>
        <time>2019-09-04T11:49:22Z</time>
      </trkpt>
      <trkpt lat="43.2017100" lon="-6.0617320">
        <ele>439.3</ele>
        <time>2019-09-04T11:49:24Z</time>
      </trkpt>
      <trkpt lat="43.2018480" lon="-6.0615800">
        <ele>439.3</ele>
        <time>2019-09-04T11:49:26Z</time>
      </trkpt>
      <trkpt lat="43.2019870" lon="-6.0614350">
        <ele>437.2</ele>
        <time>2019-09-04T11:49:28Z</time>
      </trkpt>
      <trkpt lat="43.2021400" lon="-6.0612880">
        <ele>437.2</ele>
        <time>2019-09-04T11:49:30Z</time>
      </trkpt>
      <trkpt lat="43.2022990" lon="-6.0611540">
        <ele>437.2</ele>
        <time>2019-09-04T11:49:32Z</time>
      </trkpt>
      <trkpt lat="43.2024630" lon="-6.0610290">
        <ele>437.2</ele>
        <time>2019-09-04T11:49:34Z</time>
      </trkpt>
      <trkpt lat="43.2026370" lon="-6.0609100">
        <ele>437.2</ele>
        <time>2019-09-04T11:49:36Z</time>
      </trkpt>
      <trkpt lat="43.2028210" lon="-6.0608020">
        <ele>437.2</ele>
        <time>2019-09-04T11:49:38Z</time>
      </trkpt>
      <trkpt lat="43.2030050" lon="-6.0607020">
        <ele>437.2</ele>
        <time>2019-09-04T11:49:40Z</time>
      </trkpt>
      <trkpt lat="43.2031800" lon="-6.0605860">
        <ele>437.2</ele>
        <time>2019-09-04T11:49:42Z</time>
      </trkpt>
      <trkpt lat="43.2033480" lon="-6.0604290">
        <ele>435.2</ele>
        <time>2019-09-04T11:49:44Z</time>
      </trkpt>
      <trkpt lat="43.2034200" lon="-6.0603480">
        <ele>435.2</ele>
        <time>2019-09-04T11:49:45Z</time>
      </trkpt>
      <trkpt lat="43.2035530" lon="-6.0601480">
        <ele>435.2</ele>
        <time>2019-09-04T11:49:47Z</time>
      </trkpt>
      <trkpt lat="43.2036610" lon="-6.0599330">
        <ele>435.2</ele>
        <time>2019-09-04T11:49:49Z</time>
      </trkpt>
      <trkpt lat="43.2036970" lon="-6.0598270">
        <ele>435.2</ele>
        <time>2019-09-04T11:49:50Z</time>
      </trkpt>
      <trkpt lat="43.2037320" lon="-6.0597050">
        <ele>435.2</ele>
        <time>2019-09-04T11:49:51Z</time>
      </trkpt>
      <trkpt lat="43.2037840" lon="-6.0594320">
        <ele>435.2</ele>
        <time>2019-09-04T11:49:53Z</time>
      </trkpt>
      <trkpt lat="43.2037940" lon="-6.0592960">
        <ele>435.2</ele>
        <time>2019-09-04T11:49:54Z</time>
      </trkpt>
      <trkpt lat="43.2038250" lon="-6.0590210">
        <ele>435.2</ele>
        <time>2019-09-04T11:49:56Z</time>
      </trkpt>
      <trkpt lat="43.2038450" lon="-6.0587440">
        <ele>435.2</ele>
        <time>2019-09-04T11:49:58Z</time>
      </trkpt>
      <trkpt lat="43.2038710" lon="-6.0584720">
        <ele>435.2</ele>
        <time>2019-09-04T11:50:00Z</time>
      </trkpt>
      <trkpt lat="43.2038860" lon="-6.0582140">
        <ele>433.1</ele>
        <time>2019-09-04T11:50:02Z</time>
      </trkpt>
      <trkpt lat="43.2039120" lon="-6.0579640">
        <ele>433.1</ele>
        <time>2019-09-04T11:50:04Z</time>
      </trkpt>
      <trkpt lat="43.2039530" lon="-6.0577200">
        <ele>433.1</ele>
        <time>2019-09-04T11:50:06Z</time>
      </trkpt>
      <trkpt lat="43.2040290" lon="-6.0574810">
        <ele>433.1</ele>
        <time>2019-09-04T11:50:08Z</time>
      </trkpt>
      <trkpt lat="43.2041110" lon="-6.0572690">
        <ele>433.1</ele>
        <time>2019-09-04T11:50:10Z</time>
      </trkpt>
      <trkpt lat="43.2042140" lon="-6.0570360">
        <ele>433.1</ele>
        <time>2019-09-04T11:50:12Z</time>
      </trkpt>
      <trkpt lat="43.2043060" lon="-6.0568190">
        <ele>433.1</ele>
        <time>2019-09-04T11:50:14Z</time>
      </trkpt>
      <trkpt lat="43.2044130" lon="-6.0565960">
        <ele>433.1</ele>
        <time>2019-09-04T11:50:16Z</time>
      </trkpt>
      <trkpt lat="43.2045160" lon="-6.0563760">
        <ele>433.1</ele>
        <time>2019-09-04T11:50:18Z</time>
      </trkpt>
      <trkpt lat="43.2046130" lon="-6.0561850">
        <ele>431.0</ele>
        <time>2019-09-04T11:50:20Z</time>
      </trkpt>
      <trkpt lat="43.2047260" lon="-6.0559930">
        <ele>431.0</ele>
        <time>2019-09-04T11:50:22Z</time>
      </trkpt>
      <trkpt lat="43.2048690" lon="-6.0558260">
        <ele>431.0</ele>
        <time>2019-09-04T11:50:24Z</time>
      </trkpt>
      <trkpt lat="43.2050230" lon="-6.0557110">
        <ele>431.0</ele>
        <time>2019-09-04T11:50:26Z</time>
      </trkpt>
      <trkpt lat="43.2051100" lon="-6.0556730">
        <ele>431.0</ele>
        <time>2019-09-04T11:50:27Z</time>
      </trkpt>
      <trkpt lat="43.2052020" lon="-6.0556510">
        <ele>431.0</ele>
        <time>2019-09-04T11:50:28Z</time>
      </trkpt>
      <trkpt lat="43.2053760" lon="-6.0556410">
        <ele>431.0</ele>
        <time>2019-09-04T11:50:30Z</time>
      </trkpt>
      <trkpt lat="43.2054680" lon="-6.0556620">
        <ele>431.0</ele>
        <time>2019-09-04T11:50:31Z</time>
      </trkpt>
      <trkpt lat="43.2056420" lon="-6.0557420">
        <ele>431.0</ele>
        <time>2019-09-04T11:50:33Z</time>
      </trkpt>
      <trkpt lat="43.2058010" lon="-6.0558520">
        <ele>428.9</ele>
        <time>2019-09-04T11:50:35Z</time>
      </trkpt>
      <trkpt lat="43.2059650" lon="-6.0559720">
        <ele>428.9</ele>
        <time>2019-09-04T11:50:37Z</time>
      </trkpt>
      <trkpt lat="43.2061240" lon="-6.0560840">
        <ele>428.9</ele>
        <time>2019-09-04T11:50:39Z</time>
      </trkpt>
      <trkpt lat="43.2062820" lon="-6.0562090">
        <ele>428.9</ele>
        <time>2019-09-04T11:50:41Z</time>
      </trkpt>
      <trkpt lat="43.2064510" lon="-6.0563440">
        <ele>428.9</ele>
        <time>2019-09-04T11:50:43Z</time>
      </trkpt>
      <trkpt lat="43.2066150" lon="-6.0564770">
        <ele>428.9</ele>
        <time>2019-09-04T11:50:45Z</time>
      </trkpt>
      <trkpt lat="43.2067740" lon="-6.0566000">
        <ele>428.9</ele>
        <time>2019-09-04T11:50:47Z</time>
      </trkpt>
      <trkpt lat="43.2069270" lon="-6.0567320">
        <ele>428.9</ele>
        <time>2019-09-04T11:50:49Z</time>
      </trkpt>
      <trkpt lat="43.2070910" lon="-6.0568650">
        <ele>428.9</ele>
        <time>2019-09-04T11:50:51Z</time>
      </trkpt>
      <trkpt lat="43.2072550" lon="-6.0569660">
        <ele>426.8</ele>
        <time>2019-09-04T11:50:53Z</time>
      </trkpt>
      <trkpt lat="43.2074240" lon="-6.0570520">
        <ele>426.8</ele>
        <time>2019-09-04T11:50:55Z</time>
      </trkpt>
      <trkpt lat="43.2075980" lon="-6.0571190">
        <ele>426.8</ele>
        <time>2019-09-04T11:50:57Z</time>
      </trkpt>
      <trkpt lat="43.2077720" lon="-6.0571750">
        <ele>426.8</ele>
        <time>2019-09-04T11:50:59Z</time>
      </trkpt>
      <trkpt lat="43.2079510" lon="-6.0572440">
        <ele>426.8</ele>
        <time>2019-09-04T11:51:01Z</time>
      </trkpt>
      <trkpt lat="43.2081200" lon="-6.0573410">
        <ele>426.8</ele>
        <time>2019-09-04T11:51:03Z</time>
      </trkpt>
      <trkpt lat="43.2081920" lon="-6.0573970">
        <ele>426.8</ele>
        <time>2019-09-04T11:51:04Z</time>
      </trkpt>
      <trkpt lat="43.2082640" lon="-6.0574640">
        <ele>426.8</ele>
        <time>2019-09-04T11:51:05Z</time>
      </trkpt>
      <trkpt lat="43.2083920" lon="-6.0576220">
        <ele>426.8</ele>
        <time>2019-09-04T11:51:07Z</time>
      </trkpt>
      <trkpt lat="43.2084530" lon="-6.0577040">
        <ele>426.8</ele>
        <time>2019-09-04T11:51:08Z</time>
      </trkpt>
      <trkpt lat="43.2085860" lon="-6.0578760">
        <ele>426.8</ele>
        <time>2019-09-04T11:51:10Z</time>
      </trkpt>
      <trkpt lat="43.2087350" lon="-6.0580380">
        <ele>424.8</ele>
        <time>2019-09-04T11:51:12Z</time>
      </trkpt>
      <trkpt lat="43.2088930" lon="-6.0581450">
        <ele>424.8</ele>
        <time>2019-09-04T11:51:14Z</time>
      </trkpt>
      <trkpt lat="43.2090730" lon="-6.0581840">
        <ele>424.8</ele>
        <time>2019-09-04T11:51:16Z</time>
      </trkpt>
      <trkpt lat="43.2092520" lon="-6.0581470">
        <ele>424.8</ele>
        <time>2019-09-04T11:51:18Z</time>
      </trkpt>
      <trkpt lat="43.2094260" lon="-6.0580290">
        <ele>424.8</ele>
        <time>2019-09-04T11:51:20Z</time>
      </trkpt>
      <trkpt lat="43.2095690" lon="-6.0578610">
        <ele>421.7</ele>
        <time>2019-09-04T11:51:22Z</time>
      </trkpt>
      <trkpt lat="43.2096770" lon="-6.0576610">
        <ele>421.7</ele>
        <time>2019-09-04T11:51:24Z</time>
      </trkpt>
      <trkpt lat="43.2097640" lon="-6.0574280">
        <ele>421.7</ele>
        <time>2019-09-04T11:51:26Z</time>
      </trkpt>
      <trkpt lat="43.2098460" lon="-6.0571890">
        <ele>421.7</ele>
        <time>2019-09-04T11:51:28Z</time>
      </trkpt>
      <trkpt lat="43.2099280" lon="-6.0569400">
        <ele>421.7</ele>
        <time>2019-09-04T11:51:30Z</time>
      </trkpt>
      <trkpt lat="43.2100040" lon="-6.0566970">
        <ele>421.7</ele>
        <time>2019-09-04T11:51:32Z</time>
      </trkpt>
      <trkpt lat="43.2100350" lon="-6.0565770">
        <ele>421.7</ele>
        <time>2019-09-04T11:51:33Z</time>
      </trkpt>
      <trkpt lat="43.2101120" lon="-6.0563390">
        <ele>421.7</ele>
        <time>2019-09-04T11:51:35Z</time>
      </trkpt>
      <trkpt lat="43.2101840" lon="-6.0561150">
        <ele>418.1</ele>
        <time>2019-09-04T11:51:37Z</time>
      </trkpt>
      <trkpt lat="43.2102250" lon="-6.0560060">
        <ele>418.1</ele>
        <time>2019-09-04T11:51:38Z</time>
      </trkpt>
      <trkpt lat="43.2102710" lon="-6.0558940">
        <ele>418.1</ele>
        <time>2019-09-04T11:51:39Z</time>
      </trkpt>
      <trkpt lat="43.2103780" lon="-6.0556890">
        <ele>418.1</ele>
        <time>2019-09-04T11:51:41Z</time>
      </trkpt>
      <trkpt lat="43.2104400" lon="-6.0556030">
        <ele>418.1</ele>
        <time>2019-09-04T11:51:42Z</time>
      </trkpt>
      <trkpt lat="43.2105060" lon="-6.0555270">
        <ele>418.1</ele>
        <time>2019-09-04T11:51:43Z</time>
      </trkpt>
      <trkpt lat="43.2106650" lon="-6.0553950">
        <ele>418.1</ele>
        <time>2019-09-04T11:51:45Z</time>
      </trkpt>
      <trkpt lat="43.2107370" lon="-6.0553470">
        <ele>418.1</ele>
        <time>2019-09-04T11:51:46Z</time>
      </trkpt>
      <trkpt lat="43.2108800" lon="-6.0552910">
        <ele>418.1</ele>
        <time>2019-09-04T11:51:48Z</time>
      </trkpt>
      <trkpt lat="43.2110490" lon="-6.0552570">
        <ele>418.1</ele>
        <time>2019-09-04T11:51:50Z</time>
      </trkpt>
      <trkpt lat="43.2112180" lon="-6.0552520">
        <ele>418.1</ele>
        <time>2019-09-04T11:51:52Z</time>
      </trkpt>
      <trkpt lat="43.2114070" lon="-6.0552630">
        <ele>414.8</ele>
        <time>2019-09-04T11:51:54Z</time>
      </trkpt>
      <trkpt lat="43.2115920" lon="-6.0552740">
        <ele>414.8</ele>
        <time>2019-09-04T11:51:56Z</time>
      </trkpt>
      <trkpt lat="43.2117710" lon="-6.0552920">
        <ele>414.8</ele>
        <time>2019-09-04T11:51:58Z</time>
      </trkpt>
      <trkpt lat="43.2119600" lon="-6.0553130">
        <ele>414.8</ele>
        <time>2019-09-04T11:52:00Z</time>
      </trkpt>
      <trkpt lat="43.2121340" lon="-6.0553050">
        <ele>414.8</ele>
        <time>2019-09-04T11:52:02Z</time>
      </trkpt>
      <trkpt lat="43.2123030" lon="-6.0552400">
        <ele>414.8</ele>
        <time>2019-09-04T11:52:04Z</time>
      </trkpt>
      <trkpt lat="43.2124570" lon="-6.0551080">
        <ele>414.8</ele>
        <time>2019-09-04T11:52:06Z</time>
      </trkpt>
      <trkpt lat="43.2125640" lon="-6.0549210">
        <ele>414.8</ele>
        <time>2019-09-04T11:52:08Z</time>
      </trkpt>
      <trkpt lat="43.2126110" lon="-6.0546950">
        <ele>411.2</ele>
        <time>2019-09-04T11:52:10Z</time>
      </trkpt>
      <trkpt lat="43.2126210" lon="-6.0545730">
        <ele>411.2</ele>
        <time>2019-09-04T11:52:11Z</time>
      </trkpt>
      <trkpt lat="43.2125950" lon="-6.0543320">
        <ele>411.2</ele>
        <time>2019-09-04T11:52:13Z</time>
      </trkpt>
      <trkpt lat="43.2125180" lon="-6.0540970">
        <ele>411.2</ele>
        <time>2019-09-04T11:52:15Z</time>
      </trkpt>
      <trkpt lat="43.2124310" lon="-6.0538920">
        <ele>411.2</ele>
        <time>2019-09-04T11:52:17Z</time>
      </trkpt>
      <trkpt lat="43.2123800" lon="-6.0537820">
        <ele>411.2</ele>
        <time>2019-09-04T11:52:18Z</time>
      </trkpt>
      <trkpt lat="43.2122780" lon="-6.0535600">
        <ele>411.2</ele>
        <time>2019-09-04T11:52:20Z</time>
      </trkpt>
      <trkpt lat="43.2122210" lon="-6.0534500">
        <ele>411.2</ele>
        <time>2019-09-04T11:52:21Z</time>
      </trkpt>
      <trkpt lat="43.2121140" lon="-6.0532320">
        <ele>411.2</ele>
        <time>2019-09-04T11:52:23Z</time>
      </trkpt>
      <trkpt lat="43.2120120" lon="-6.0530070">
        <ele>407.5</ele>
        <time>2019-09-04T11:52:25Z</time>
      </trkpt>
      <trkpt lat="43.2119140" lon="-6.0527840">
        <ele>407.5</ele>
        <time>2019-09-04T11:52:27Z</time>
      </trkpt>
      <trkpt lat="43.2118170" lon="-6.0525490">
        <ele>407.5</ele>
        <time>2019-09-04T11:52:29Z</time>
      </trkpt>
      <trkpt lat="43.2117450" lon="-6.0523100">
        <ele>407.5</ele>
        <time>2019-09-04T11:52:31Z</time>
      </trkpt>
      <trkpt lat="43.2117200" lon="-6.0520520">
        <ele>407.5</ele>
        <time>2019-09-04T11:52:33Z</time>
      </trkpt>
      <trkpt lat="43.2117500" lon="-6.0517980">
        <ele>407.5</ele>
        <time>2019-09-04T11:52:35Z</time>
      </trkpt>
      <trkpt lat="43.2118270" lon="-6.0515830">
        <ele>407.5</ele>
        <time>2019-09-04T11:52:37Z</time>
      </trkpt>
      <trkpt lat="43.2119600" lon="-6.0514280">
        <ele>407.5</ele>
        <time>2019-09-04T11:52:39Z</time>
      </trkpt>
      <trkpt lat="43.2121140" lon="-6.0513520">
        <ele>404.2</ele>
        <time>2019-09-04T11:52:41Z</time>
      </trkpt>
      <trkpt lat="43.2123030" lon="-6.0513250">
        <ele>404.2</ele>
        <time>2019-09-04T11:52:43Z</time>
      </trkpt>
      <trkpt lat="43.2125030" lon="-6.0513150">
        <ele>404.2</ele>
        <time>2019-09-04T11:52:45Z</time>
      </trkpt>
      <trkpt lat="43.2126870" lon="-6.0513020">
        <ele>404.2</ele>
        <time>2019-09-04T11:52:47Z</time>
      </trkpt>
      <trkpt lat="43.2128870" lon="-6.0512640">
        <ele>404.2</ele>
        <time>2019-09-04T11:52:49Z</time>
      </trkpt>
      <trkpt lat="43.2129790" lon="-6.0512330">
        <ele>404.2</ele>
        <time>2019-09-04T11:52:50Z</time>
      </trkpt>
      <trkpt lat="43.2131580" lon="-6.0511370">
        <ele>404.2</ele>
        <time>2019-09-04T11:52:52Z</time>
      </trkpt>
      <trkpt lat="43.2132510" lon="-6.0510740">
        <ele>404.2</ele>
        <time>2019-09-04T11:52:53Z</time>
      </trkpt>
      <trkpt lat="43.2133380" lon="-6.0510020">
        <ele>404.2</ele>
        <time>2019-09-04T11:52:54Z</time>
      </trkpt>
      <trkpt lat="43.2134910" lon="-6.0508380">
        <ele>404.2</ele>
        <time>2019-09-04T11:52:56Z</time>
      </trkpt>
      <trkpt lat="43.2135580" lon="-6.0507420">
        <ele>400.7</ele>
        <time>2019-09-04T11:52:57Z</time>
      </trkpt>
      <trkpt lat="43.2136760" lon="-6.0505320">
        <ele>400.7</ele>
        <time>2019-09-04T11:52:59Z</time>
      </trkpt>
      <trkpt lat="43.2137630" lon="-6.0503300">
        <ele>400.7</ele>
        <time>2019-09-04T11:53:01Z</time>
      </trkpt>
      <trkpt lat="43.2138550" lon="-6.0501010">
        <ele>400.7</ele>
        <time>2019-09-04T11:53:03Z</time>
      </trkpt>
      <trkpt lat="43.2139370" lon="-6.0498730">
        <ele>400.7</ele>
        <time>2019-09-04T11:53:05Z</time>
      </trkpt>
      <trkpt lat="43.2140130" lon="-6.0496390">
        <ele>400.7</ele>
        <time>2019-09-04T11:53:07Z</time>
      </trkpt>
      <trkpt lat="43.2140800" lon="-6.0494180">
        <ele>400.7</ele>
        <time>2019-09-04T11:53:09Z</time>
      </trkpt>
      <trkpt lat="43.2141110" lon="-6.0493100">
        <ele>400.7</ele>
        <time>2019-09-04T11:53:10Z</time>
      </trkpt>
      <trkpt lat="43.2141820" lon="-6.0490980">
        <ele>400.7</ele>
        <time>2019-09-04T11:53:12Z</time>
      </trkpt>
      <trkpt lat="43.2142690" lon="-6.0488830">
        <ele>397.2</ele>
        <time>2019-09-04T11:53:14Z</time>
      </trkpt>
      <trkpt lat="43.2143160" lon="-6.0487780">
        <ele>397.2</ele>
        <time>2019-09-04T11:53:15Z</time>
      </trkpt>
      <trkpt lat="43.2143920" lon="-6.0485770">
        <ele>397.2</ele>
        <time>2019-09-04T11:53:17Z</time>
      </trkpt>
      <trkpt lat="43.2144230" lon="-6.0484700">
        <ele>397.2</ele>
        <time>2019-09-04T11:53:18Z</time>
      </trkpt>
      <trkpt lat="43.2144540" lon="-6.0483530">
        <ele>397.2</ele>
        <time>2019-09-04T11:53:19Z</time>
      </trkpt>
      <trkpt lat="43.2144740" lon="-6.0482330">
        <ele>397.2</ele>
        <time>2019-09-04T11:53:20Z</time>
      </trkpt>
      <trkpt lat="43.2144900" lon="-6.0480040">
        <ele>397.2</ele>
        <time>2019-09-04T11:53:22Z</time>
      </trkpt>
      <trkpt lat="43.2144840" lon="-6.0478880">
        <ele>397.2</ele>
        <time>2019-09-04T11:53:23Z</time>
      </trkpt>
      <trkpt lat="43.2144640" lon="-6.0476680">
        <ele>397.2</ele>
        <time>2019-09-04T11:53:25Z</time>
      </trkpt>
      <trkpt lat="43.2144230" lon="-6.0474430">
        <ele>397.2</ele>
        <time>2019-09-04T11:53:27Z</time>
      </trkpt>
      <trkpt lat="43.2143820" lon="-6.0472060">
        <ele>394.1</ele>
        <time>2019-09-04T11:53:29Z</time>
      </trkpt>
      <trkpt lat="43.2143410" lon="-6.0469720">
        <ele>394.1</ele>
        <time>2019-09-04T11:53:31Z</time>
      </trkpt>
      <trkpt lat="43.2143160" lon="-6.0468490">
        <ele>394.1</ele>
        <time>2019-09-04T11:53:32Z</time>
      </trkpt>
      <trkpt lat="43.2142690" lon="-6.0466100">
        <ele>394.1</ele>
        <time>2019-09-04T11:53:34Z</time>
      </trkpt>
      <trkpt lat="43.2142180" lon="-6.0463800">
        <ele>394.1</ele>
        <time>2019-09-04T11:53:36Z</time>
      </trkpt>
      <trkpt lat="43.2141930" lon="-6.0462610">
        <ele>394.1</ele>
        <time>2019-09-04T11:53:37Z</time>
      </trkpt>
      <trkpt lat="43.2141670" lon="-6.0461520">
        <ele>394.1</ele>
        <time>2019-09-04T11:53:38Z</time>
      </trkpt>
      <trkpt lat="43.2141470" lon="-6.0460420">
        <ele>394.1</ele>
        <time>2019-09-04T11:53:39Z</time>
      </trkpt>
      <trkpt lat="43.2141060" lon="-6.0458170">
        <ele>394.1</ele>
        <time>2019-09-04T11:53:41Z</time>
      </trkpt>
      <trkpt lat="43.2140850" lon="-6.0457020">
        <ele>394.1</ele>
        <time>2019-09-04T11:53:42Z</time>
      </trkpt>
      <trkpt lat="43.2140650" lon="-6.0455970">
        <ele>394.1</ele>
        <time>2019-09-04T11:53:43Z</time>
      </trkpt>
      <trkpt lat="43.2140290" lon="-6.0453720">
        <ele>391.3</ele>
        <time>2019-09-04T11:53:45Z</time>
      </trkpt>
      <trkpt lat="43.2140130" lon="-6.0452600">
        <ele>391.3</ele>
        <time>2019-09-04T11:53:46Z</time>
      </trkpt>
      <trkpt lat="43.2140130" lon="-6.0450430">
        <ele>391.3</ele>
        <time>2019-09-04T11:53:48Z</time>
      </trkpt>
      <trkpt lat="43.2140440" lon="-6.0448260">
        <ele>391.3</ele>
        <time>2019-09-04T11:53:50Z</time>
      </trkpt>
      <trkpt lat="43.2140850" lon="-6.0446070">
        <ele>391.3</ele>
        <time>2019-09-04T11:53:52Z</time>
      </trkpt>
      <trkpt lat="43.2141360" lon="-6.0443920">
        <ele>391.3</ele>
        <time>2019-09-04T11:53:54Z</time>
      </trkpt>
      <trkpt lat="43.2141620" lon="-6.0442850">
        <ele>391.3</ele>
        <time>2019-09-04T11:53:55Z</time>
      </trkpt>
      <trkpt lat="43.2142080" lon="-6.0440860">
        <ele>391.3</ele>
        <time>2019-09-04T11:53:57Z</time>
      </trkpt>
      <trkpt lat="43.2142280" lon="-6.0439870">
        <ele>391.3</ele>
        <time>2019-09-04T11:53:58Z</time>
      </trkpt>
      <trkpt lat="43.2142540" lon="-6.0437750">
        <ele>391.3</ele>
        <time>2019-09-04T11:54:00Z</time>
      </trkpt>
      <trkpt lat="43.2142690" lon="-6.0435600">
        <ele>388.5</ele>
        <time>2019-09-04T11:54:02Z</time>
      </trkpt>
      <trkpt lat="43.2142690" lon="-6.0434530">
        <ele>388.5</ele>
        <time>2019-09-04T11:54:03Z</time>
      </trkpt>
      <trkpt lat="43.2142900" lon="-6.0432430">
        <ele>388.5</ele>
        <time>2019-09-04T11:54:05Z</time>
      </trkpt>
      <trkpt lat="43.2143050" lon="-6.0431520">
        <ele>388.5</ele>
        <time>2019-09-04T11:54:06Z</time>
      </trkpt>
      <trkpt lat="43.2143620" lon="-6.0429690">
        <ele>388.5</ele>
        <time>2019-09-04T11:54:08Z</time>
      </trkpt>
      <trkpt lat="43.2144380" lon="-6.0428560">
        <ele>388.5</ele>
        <time>2019-09-04T11:54:10Z</time>
      </trkpt>
      <trkpt lat="43.2145510" lon="-6.0427340">
        <ele>388.5</ele>
        <time>2019-09-04T11:54:12Z</time>
      </trkpt>
      <trkpt lat="43.2146940" lon="-6.0426560">
        <ele>388.5</ele>
        <time>2019-09-04T11:54:14Z</time>
      </trkpt>
      <trkpt lat="43.2148380" lon="-6.0426160">
        <ele>388.5</ele>
        <time>2019-09-04T11:54:16Z</time>
      </trkpt>
      <trkpt lat="43.2150020" lon="-6.0425910">
        <ele>385.9</ele>
        <time>2019-09-04T11:54:18Z</time>
      </trkpt>
      <trkpt lat="43.2151550" lon="-6.0425750">
        <ele>385.9</ele>
        <time>2019-09-04T11:54:20Z</time>
      </trkpt>
      <trkpt lat="43.2153190" lon="-6.0425590">
        <ele>385.9</ele>
        <time>2019-09-04T11:54:22Z</time>
      </trkpt>
      <trkpt lat="43.2154830" lon="-6.0425560">
        <ele>385.9</ele>
        <time>2019-09-04T11:54:24Z</time>
      </trkpt>
      <trkpt lat="43.2156420" lon="-6.0425350">
        <ele>385.9</ele>
        <time>2019-09-04T11:54:26Z</time>
      </trkpt>
      <trkpt lat="43.2158110" lon="-6.0425060">
        <ele>385.9</ele>
        <time>2019-09-04T11:54:28Z</time>
      </trkpt>
      <trkpt lat="43.2159800" lon="-6.0424670">
        <ele>385.9</ele>
        <time>2019-09-04T11:54:30Z</time>
      </trkpt>
      <trkpt lat="43.2160670" lon="-6.0424400">
        <ele>385.9</ele>
        <time>2019-09-04T11:54:31Z</time>
      </trkpt>
      <trkpt lat="43.2162410" lon="-6.0423710">
        <ele>383.7</ele>
        <time>2019-09-04T11:54:33Z</time>
      </trkpt>
      <trkpt lat="43.2163330" lon="-6.0423220">
        <ele>383.7</ele>
        <time>2019-09-04T11:54:34Z</time>
      </trkpt>
      <trkpt lat="43.2164970" lon="-6.0422060">
        <ele>383.7</ele>
        <time>2019-09-04T11:54:36Z</time>
      </trkpt>
      <trkpt lat="43.2165730" lon="-6.0421250">
        <ele>383.7</ele>
        <time>2019-09-04T11:54:37Z</time>
      </trkpt>
      <trkpt lat="43.2167120" lon="-6.0419320">
        <ele>383.7</ele>
        <time>2019-09-04T11:54:39Z</time>
      </trkpt>
      <trkpt lat="43.2168090" lon="-6.0417120">
        <ele>383.7</ele>
        <time>2019-09-04T11:54:41Z</time>
      </trkpt>
      <trkpt lat="43.2168450" lon="-6.0415940">
        <ele>383.7</ele>
        <time>2019-09-04T11:54:42Z</time>
      </trkpt>
      <trkpt lat="43.2168860" lon="-6.0413320">
        <ele>383.7</ele>
        <time>2019-09-04T11:54:44Z</time>
      </trkpt>
      <trkpt lat="43.2168960" lon="-6.0410870">
        <ele>383.7</ele>
        <time>2019-09-04T11:54:46Z</time>
      </trkpt>
      <trkpt lat="43.2168910" lon="-6.0408310">
        <ele>383.7</ele>
        <time>2019-09-04T11:54:48Z</time>
      </trkpt>
      <trkpt lat="43.2168760" lon="-6.0405790">
        <ele>381.5</ele>
        <time>2019-09-04T11:54:50Z</time>
      </trkpt>
      <trkpt lat="43.2168500" lon="-6.0403400">
        <ele>381.5</ele>
        <time>2019-09-04T11:54:52Z</time>
      </trkpt>
      <trkpt lat="43.2168240" lon="-6.0400950">
        <ele>381.5</ele>
        <time>2019-09-04T11:54:54Z</time>
      </trkpt>
      <trkpt lat="43.2168040" lon="-6.0398740">
        <ele>381.5</ele>
        <time>2019-09-04T11:54:56Z</time>
      </trkpt>
      <trkpt lat="43.2167830" lon="-6.0396470">
        <ele>381.5</ele>
        <time>2019-09-04T11:54:58Z</time>
      </trkpt>
      <trkpt lat="43.2167680" lon="-6.0394320">
        <ele>381.5</ele>
        <time>2019-09-04T11:55:00Z</time>
      </trkpt>
      <trkpt lat="43.2167370" lon="-6.0392280">
        <ele>381.5</ele>
        <time>2019-09-04T11:55:02Z</time>
      </trkpt>
      <trkpt lat="43.2167010" lon="-6.0390170">
        <ele>381.5</ele>
        <time>2019-09-04T11:55:04Z</time>
      </trkpt>
      <trkpt lat="43.2166810" lon="-6.0389080">
        <ele>378.9</ele>
        <time>2019-09-04T11:55:05Z</time>
      </trkpt>
      <trkpt lat="43.2166350" lon="-6.0387110">
        <ele>378.9</ele>
        <time>2019-09-04T11:55:07Z</time>
      </trkpt>
      <trkpt lat="43.2165890" lon="-6.0385100">
        <ele>378.9</ele>
        <time>2019-09-04T11:55:09Z</time>
      </trkpt>
      <trkpt lat="43.2165730" lon="-6.0384110">
        <ele>378.9</ele>
        <time>2019-09-04T11:55:10Z</time>
      </trkpt>
      <trkpt lat="43.2165430" lon="-6.0382470">
        <ele>378.9</ele>
        <time>2019-09-04T11:55:12Z</time>
      </trkpt>
      <trkpt lat="43.2165170" lon="-6.0380680">
        <ele>378.9</ele>
        <time>2019-09-04T11:55:14Z</time>
      </trkpt>
      <trkpt lat="43.2165070" lon="-6.0379760">
        <ele>378.9</ele>
        <time>2019-09-04T11:55:15Z</time>
      </trkpt>
      <trkpt lat="43.2165020" lon="-6.0378850">
        <ele>378.9</ele>
        <time>2019-09-04T11:55:16Z</time>
      </trkpt>
      <trkpt lat="43.2164810" lon="-6.0377230">
        <ele>378.9</ele>
        <time>2019-09-04T11:55:18Z</time>
      </trkpt>
      <trkpt lat="43.2164610" lon="-6.0375650">
        <ele>378.9</ele>
        <time>2019-09-04T11:55:20Z</time>
      </trkpt>
      <trkpt lat="43.2164450" lon="-6.0374290">
        <ele>376.5</ele>
        <time>2019-09-04T11:55:22Z</time>
      </trkpt>
      <trkpt lat="43.2164400" lon="-6.0373270">
        <ele>376.5</ele>
        <time>2019-09-04T11:55:24Z</time>
      </trkpt>
      <trkpt lat="43.2164510" lon="-6.0372590">
        <ele>376.5</ele>
        <time>2019-09-04T11:55:26Z</time>
      </trkpt>
      <trkpt lat="43.2165480" lon="-6.0371970">
        <ele>376.5</ele>
        <time>2019-09-04T11:55:30Z</time>
      </trkpt>
      <trkpt lat="43.2166350" lon="-6.0371870">
        <ele>376.5</ele>
        <time>2019-09-04T11:55:32Z</time>
      </trkpt>
      <trkpt lat="43.2167320" lon="-6.0371870">
        <ele>376.5</ele>
        <time>2019-09-04T11:55:34Z</time>
      </trkpt>
      <trkpt lat="43.2168550" lon="-6.0372010">
        <ele>376.5</ele>
        <time>2019-09-04T11:55:36Z</time>
      </trkpt>
      <trkpt lat="43.2169880" lon="-6.0372520">
        <ele>374.5</ele>
        <time>2019-09-04T11:55:38Z</time>
      </trkpt>
      <trkpt lat="43.2170650" lon="-6.0372750">
        <ele>374.5</ele>
        <time>2019-09-04T11:55:39Z</time>
      </trkpt>
      <trkpt lat="43.2172190" lon="-6.0373360">
        <ele>374.5</ele>
        <time>2019-09-04T11:55:41Z</time>
      </trkpt>
      <trkpt lat="43.2173770" lon="-6.0373990">
        <ele>374.5</ele>
        <time>2019-09-04T11:55:43Z</time>
      </trkpt>
      <trkpt lat="43.2174590" lon="-6.0374370">
        <ele>374.5</ele>
        <time>2019-09-04T11:55:44Z</time>
      </trkpt>
      <trkpt lat="43.2176230" lon="-6.0375240">
        <ele>374.5</ele>
        <time>2019-09-04T11:55:46Z</time>
      </trkpt>
      <trkpt lat="43.2177000" lon="-6.0375750">
        <ele>374.5</ele>
        <time>2019-09-04T11:55:47Z</time>
      </trkpt>
      <trkpt lat="43.2178640" lon="-6.0376820">
        <ele>374.5</ele>
        <time>2019-09-04T11:55:49Z</time>
      </trkpt>
      <trkpt lat="43.2179460" lon="-6.0377310">
        <ele>374.5</ele>
        <time>2019-09-04T11:55:50Z</time>
      </trkpt>
      <trkpt lat="43.2181150" lon="-6.0378220">
        <ele>374.5</ele>
        <time>2019-09-04T11:55:52Z</time>
      </trkpt>
      <trkpt lat="43.2182780" lon="-6.0379230">
        <ele>372.3</ele>
        <time>2019-09-04T11:55:54Z</time>
      </trkpt>
      <trkpt lat="43.2184320" lon="-6.0380090">
        <ele>372.3</ele>
        <time>2019-09-04T11:55:56Z</time>
      </trkpt>
      <trkpt lat="43.2185860" lon="-6.0380930">
        <ele>372.3</ele>
        <time>2019-09-04T11:55:58Z</time>
      </trkpt>
      <trkpt lat="43.2187340" lon="-6.0381660">
        <ele>372.3</ele>
        <time>2019-09-04T11:56:00Z</time>
      </trkpt>
      <trkpt lat="43.2188930" lon="-6.0382160">
        <ele>372.3</ele>
        <time>2019-09-04T11:56:02Z</time>
      </trkpt>
      <trkpt lat="43.2190410" lon="-6.0382270">
        <ele>372.3</ele>
        <time>2019-09-04T11:56:04Z</time>
      </trkpt>
      <trkpt lat="43.2191900" lon="-6.0382020">
        <ele>372.3</ele>
        <time>2019-09-04T11:56:06Z</time>
      </trkpt>
      <trkpt lat="43.2192610" lon="-6.0381810">
        <ele>372.3</ele>
        <time>2019-09-04T11:56:07Z</time>
      </trkpt>
      <trkpt lat="43.2193330" lon="-6.0381590">
        <ele>372.3</ele>
        <time>2019-09-04T11:56:08Z</time>
      </trkpt>
      <trkpt lat="43.2194050" lon="-6.0381340">
        <ele>370.0</ele>
        <time>2019-09-04T11:56:09Z</time>
      </trkpt>
      <trkpt lat="43.2194760" lon="-6.0381150">
        <ele>370.0</ele>
        <time>2019-09-04T11:56:10Z</time>
      </trkpt>
      <trkpt lat="43.2195430" lon="-6.0380920">
        <ele>370.0</ele>
        <time>2019-09-04T11:56:11Z</time>
      </trkpt>
      <trkpt lat="43.2196250" lon="-6.0380690">
        <ele>370.0</ele>
        <time>2019-09-04T11:56:12Z</time>
      </trkpt>
      <trkpt lat="43.2197020" lon="-6.0380520">
        <ele>370.0</ele>
        <time>2019-09-04T11:56:13Z</time>
      </trkpt>
      <trkpt lat="43.2197730" lon="-6.0380410">
        <ele>370.0</ele>
        <time>2019-09-04T11:56:14Z</time>
      </trkpt>
      <trkpt lat="43.2198350" lon="-6.0380500">
        <ele>370.0</ele>
        <time>2019-09-04T11:56:15Z</time>
      </trkpt>
      <trkpt lat="43.2199120" lon="-6.0380470">
        <ele>370.0</ele>
        <time>2019-09-04T11:56:16Z</time>
      </trkpt>
      <trkpt lat="43.2199940" lon="-6.0380440">
        <ele>370.0</ele>
        <time>2019-09-04T11:56:17Z</time>
      </trkpt>
      <trkpt lat="43.2200700" lon="-6.0380380">
        <ele>370.0</ele>
        <time>2019-09-04T11:56:18Z</time>
      </trkpt>
      <trkpt lat="43.2201420" lon="-6.0380310">
        <ele>370.0</ele>
        <time>2019-09-04T11:56:19Z</time>
      </trkpt>
      <trkpt lat="43.2202090" lon="-6.0380260">
        <ele>370.0</ele>
        <time>2019-09-04T11:56:20Z</time>
      </trkpt>
      <trkpt lat="43.2202850" lon="-6.0380240">
        <ele>370.0</ele>
        <time>2019-09-04T11:56:21Z</time>
      </trkpt>
      <trkpt lat="43.2203620" lon="-6.0380200">
        <ele>370.0</ele>
        <time>2019-09-04T11:56:22Z</time>
      </trkpt>
      <trkpt lat="43.2204290" lon="-6.0380170">
        <ele>370.0</ele>
        <time>2019-09-04T11:56:23Z</time>
      </trkpt>
      <trkpt lat="43.2205000" lon="-6.0380120">
        <ele>370.0</ele>
        <time>2019-09-04T11:56:24Z</time>
      </trkpt>
      <trkpt lat="43.2205670" lon="-6.0380030">
        <ele>367.4</ele>
        <time>2019-09-04T11:56:25Z</time>
      </trkpt>
      <trkpt lat="43.2206390" lon="-6.0379960">
        <ele>367.4</ele>
        <time>2019-09-04T11:56:26Z</time>
      </trkpt>
      <trkpt lat="43.2207050" lon="-6.0379890">
        <ele>367.4</ele>
        <time>2019-09-04T11:56:27Z</time>
      </trkpt>
      <trkpt lat="43.2207770" lon="-6.0379810">
        <ele>367.4</ele>
        <time>2019-09-04T11:56:28Z</time>
      </trkpt>
      <trkpt lat="43.2208540" lon="-6.0379730">
        <ele>367.4</ele>
        <time>2019-09-04T11:56:29Z</time>
      </trkpt>
      <trkpt lat="43.2209200" lon="-6.0379660">
        <ele>367.4</ele>
        <time>2019-09-04T11:56:30Z</time>
      </trkpt>
      <trkpt lat="43.2209920" lon="-6.0379580">
        <ele>367.4</ele>
        <time>2019-09-04T11:56:31Z</time>
      </trkpt>
      <trkpt lat="43.2210640" lon="-6.0379530">
        <ele>367.4</ele>
        <time>2019-09-04T11:56:32Z</time>
      </trkpt>
      <trkpt lat="43.2211350" lon="-6.0379490">
        <ele>367.4</ele>
        <time>2019-09-04T11:56:33Z</time>
      </trkpt>
      <trkpt lat="43.2212070" lon="-6.0379480">
        <ele>367.4</ele>
        <time>2019-09-04T11:56:34Z</time>
      </trkpt>
      <trkpt lat="43.2212740" lon="-6.0379490">
        <ele>367.4</ele>
        <time>2019-09-04T11:56:35Z</time>
      </trkpt>
      <trkpt lat="43.2213450" lon="-6.0379510">
        <ele>367.4</ele>
        <time>2019-09-04T11:56:36Z</time>
      </trkpt>
      <trkpt lat="43.2214220" lon="-6.0379530">
        <ele>367.4</ele>
        <time>2019-09-04T11:56:37Z</time>
      </trkpt>
      <trkpt lat="43.2214990" lon="-6.0379560">
        <ele>367.4</ele>
        <time>2019-09-04T11:56:38Z</time>
      </trkpt>
      <trkpt lat="43.2215710" lon="-6.0379600">
        <ele>367.4</ele>
        <time>2019-09-04T11:56:39Z</time>
      </trkpt>
      <trkpt lat="43.2216370" lon="-6.0379640">
        <ele>367.4</ele>
        <time>2019-09-04T11:56:40Z</time>
      </trkpt>
      <trkpt lat="43.2217140" lon="-6.0379690">
        <ele>365.1</ele>
        <time>2019-09-04T11:56:41Z</time>
      </trkpt>
      <trkpt lat="43.2217860" lon="-6.0379760">
        <ele>365.1</ele>
        <time>2019-09-04T11:56:42Z</time>
      </trkpt>
      <trkpt lat="43.2218570" lon="-6.0379830">
        <ele>365.1</ele>
        <time>2019-09-04T11:56:43Z</time>
      </trkpt>
      <trkpt lat="43.2219290" lon="-6.0379910">
        <ele>365.1</ele>
        <time>2019-09-04T11:56:44Z</time>
      </trkpt>
      <trkpt lat="43.2219960" lon="-6.0379990">
        <ele>365.1</ele>
        <time>2019-09-04T11:56:45Z</time>
      </trkpt>
      <trkpt lat="43.2220670" lon="-6.0380070">
        <ele>365.1</ele>
        <time>2019-09-04T11:56:46Z</time>
      </trkpt>
      <trkpt lat="43.2221440" lon="-6.0380150">
        <ele>365.1</ele>
        <time>2019-09-04T11:56:47Z</time>
      </trkpt>
      <trkpt lat="43.2222160" lon="-6.0380220">
        <ele>365.1</ele>
        <time>2019-09-04T11:56:48Z</time>
      </trkpt>
      <trkpt lat="43.2222920" lon="-6.0380290">
        <ele>365.1</ele>
        <time>2019-09-04T11:56:49Z</time>
      </trkpt>
      <trkpt lat="43.2223640" lon="-6.0380360">
        <ele>365.1</ele>
        <time>2019-09-04T11:56:50Z</time>
      </trkpt>
      <trkpt lat="43.2224360" lon="-6.0380420">
        <ele>365.1</ele>
        <time>2019-09-04T11:56:51Z</time>
      </trkpt>
      <trkpt lat="43.2225080" lon="-6.0380490">
        <ele>365.1</ele>
        <time>2019-09-04T11:56:52Z</time>
      </trkpt>
      <trkpt lat="43.2225790" lon="-6.0380570">
        <ele>365.1</ele>
        <time>2019-09-04T11:56:53Z</time>
      </trkpt>
      <trkpt lat="43.2226510" lon="-6.0380650">
        <ele>365.1</ele>
        <time>2019-09-04T11:56:54Z</time>
      </trkpt>
      <trkpt lat="43.2227230" lon="-6.0380690">
        <ele>365.1</ele>
        <time>2019-09-04T11:56:55Z</time>
      </trkpt>
      <trkpt lat="43.2227990" lon="-6.0380730">
        <ele>365.1</ele>
        <time>2019-09-04T11:56:56Z</time>
      </trkpt>
      <trkpt lat="43.2228710" lon="-6.0380770">
        <ele>363.0</ele>
        <time>2019-09-04T11:56:57Z</time>
      </trkpt>
      <trkpt lat="43.2229480" lon="-6.0380590">
        <ele>363.0</ele>
        <time>2019-09-04T11:56:58Z</time>
      </trkpt>
      <trkpt lat="43.2230200" lon="-6.0380540">
        <ele>363.0</ele>
        <time>2019-09-04T11:56:59Z</time>
      </trkpt>
      <trkpt lat="43.2230960" lon="-6.0380510">
        <ele>363.0</ele>
        <time>2019-09-04T11:57:00Z</time>
      </trkpt>
      <trkpt lat="43.2231630" lon="-6.0380440">
        <ele>363.0</ele>
        <time>2019-09-04T11:57:01Z</time>
      </trkpt>
      <trkpt lat="43.2232400" lon="-6.0380290">
        <ele>363.0</ele>
        <time>2019-09-04T11:57:02Z</time>
      </trkpt>
      <trkpt lat="43.2233110" lon="-6.0380120">
        <ele>363.0</ele>
        <time>2019-09-04T11:57:03Z</time>
      </trkpt>
      <trkpt lat="43.2233830" lon="-6.0379940">
        <ele>363.0</ele>
        <time>2019-09-04T11:57:04Z</time>
      </trkpt>
      <trkpt lat="43.2234550" lon="-6.0379790">
        <ele>363.0</ele>
        <time>2019-09-04T11:57:05Z</time>
      </trkpt>
      <trkpt lat="43.2235320" lon="-6.0379650">
        <ele>363.0</ele>
        <time>2019-09-04T11:57:06Z</time>
      </trkpt>
      <trkpt lat="43.2236080" lon="-6.0379560">
        <ele>363.0</ele>
        <time>2019-09-04T11:57:07Z</time>
      </trkpt>
      <trkpt lat="43.2237570" lon="-6.0379550">
        <ele>363.0</ele>
        <time>2019-09-04T11:57:09Z</time>
      </trkpt>
      <trkpt lat="43.2238230" lon="-6.0379580">
        <ele>363.0</ele>
        <time>2019-09-04T11:57:10Z</time>
      </trkpt>
      <trkpt lat="43.2239000" lon="-6.0379680">
        <ele>363.0</ele>
        <time>2019-09-04T11:57:11Z</time>
      </trkpt>
      <trkpt lat="43.2239770" lon="-6.0379840">
        <ele>363.0</ele>
        <time>2019-09-04T11:57:12Z</time>
      </trkpt>
      <trkpt lat="43.2240490" lon="-6.0380030">
        <ele>360.7</ele>
        <time>2019-09-04T11:57:13Z</time>
      </trkpt>
      <trkpt lat="43.2241200" lon="-6.0380300">
        <ele>360.7</ele>
        <time>2019-09-04T11:57:14Z</time>
      </trkpt>
      <trkpt lat="43.2242070" lon="-6.0380580">
        <ele>360.7</ele>
        <time>2019-09-04T11:57:15Z</time>
      </trkpt>
      <trkpt lat="43.2243610" lon="-6.0381130">
        <ele>360.7</ele>
        <time>2019-09-04T11:57:17Z</time>
      </trkpt>
      <trkpt lat="43.2245300" lon="-6.0381840">
        <ele>360.7</ele>
        <time>2019-09-04T11:57:19Z</time>
      </trkpt>
      <trkpt lat="43.2246890" lon="-6.0382640">
        <ele>360.7</ele>
        <time>2019-09-04T11:57:21Z</time>
      </trkpt>
      <trkpt lat="43.2248520" lon="-6.0383550">
        <ele>360.7</ele>
        <time>2019-09-04T11:57:23Z</time>
      </trkpt>
      <trkpt lat="43.2250110" lon="-6.0384490">
        <ele>360.7</ele>
        <time>2019-09-04T11:57:25Z</time>
      </trkpt>
      <trkpt lat="43.2251850" lon="-6.0385100">
        <ele>360.7</ele>
        <time>2019-09-04T11:57:27Z</time>
      </trkpt>
      <trkpt lat="43.2253640" lon="-6.0385410">
        <ele>360.7</ele>
        <time>2019-09-04T11:57:29Z</time>
      </trkpt>
      <trkpt lat="43.2255390" lon="-6.0385560">
        <ele>358.7</ele>
        <time>2019-09-04T11:57:31Z</time>
      </trkpt>
      <trkpt lat="43.2257180" lon="-6.0385620">
        <ele>358.7</ele>
        <time>2019-09-04T11:57:33Z</time>
      </trkpt>
      <trkpt lat="43.2258970" lon="-6.0385680">
        <ele>358.7</ele>
        <time>2019-09-04T11:57:35Z</time>
      </trkpt>
      <trkpt lat="43.2260610" lon="-6.0385770">
        <ele>358.7</ele>
        <time>2019-09-04T11:57:37Z</time>
      </trkpt>
      <trkpt lat="43.2262350" lon="-6.0385850">
        <ele>358.7</ele>
        <time>2019-09-04T11:57:39Z</time>
      </trkpt>
      <trkpt lat="43.2263990" lon="-6.0385930">
        <ele>358.7</ele>
        <time>2019-09-04T11:57:41Z</time>
      </trkpt>
      <trkpt lat="43.2264810" lon="-6.0385980">
        <ele>358.7</ele>
        <time>2019-09-04T11:57:42Z</time>
      </trkpt>
      <trkpt lat="43.2266390" lon="-6.0386000">
        <ele>358.7</ele>
        <time>2019-09-04T11:57:44Z</time>
      </trkpt>
      <trkpt lat="43.2267980" lon="-6.0386050">
        <ele>358.7</ele>
        <time>2019-09-04T11:57:46Z</time>
      </trkpt>
      <trkpt lat="43.2268800" lon="-6.0386090">
        <ele>358.7</ele>
        <time>2019-09-04T11:57:47Z</time>
      </trkpt>
      <trkpt lat="43.2270340" lon="-6.0386140">
        <ele>358.7</ele>
        <time>2019-09-04T11:57:49Z</time>
      </trkpt>
      <trkpt lat="43.2271920" lon="-6.0386130">
        <ele>358.7</ele>
        <time>2019-09-04T11:57:51Z</time>
      </trkpt>
      <trkpt lat="43.2272690" lon="-6.0386050">
        <ele>356.7</ele>
        <time>2019-09-04T11:57:52Z</time>
      </trkpt>
      <trkpt lat="43.2273510" lon="-6.0385930">
        <ele>356.7</ele>
        <time>2019-09-04T11:57:53Z</time>
      </trkpt>
      <trkpt lat="43.2275050" lon="-6.0385560">
        <ele>356.7</ele>
        <time>2019-09-04T11:57:55Z</time>
      </trkpt>
      <trkpt lat="43.2275760" lon="-6.0385340">
        <ele>356.7</ele>
        <time>2019-09-04T11:57:56Z</time>
      </trkpt>
      <trkpt lat="43.2276630" lon="-6.0385020">
        <ele>356.7</ele>
        <time>2019-09-04T11:57:57Z</time>
      </trkpt>
      <trkpt lat="43.2277400" lon="-6.0384670">
        <ele>356.7</ele>
        <time>2019-09-04T11:57:58Z</time>
      </trkpt>
      <trkpt lat="43.2278220" lon="-6.0384300">
        <ele>356.7</ele>
        <time>2019-09-04T11:57:59Z</time>
      </trkpt>
      <trkpt lat="43.2279040" lon="-6.0383930">
        <ele>356.7</ele>
        <time>2019-09-04T11:58:00Z</time>
      </trkpt>
      <trkpt lat="43.2279760" lon="-6.0383580">
        <ele>356.7</ele>
        <time>2019-09-04T11:58:01Z</time>
      </trkpt>
      <trkpt lat="43.2280580" lon="-6.0383220">
        <ele>356.7</ele>
        <time>2019-09-04T11:58:02Z</time>
      </trkpt>
      <trkpt lat="43.2281400" lon="-6.0382850">
        <ele>356.7</ele>
        <time>2019-09-04T11:58:03Z</time>
      </trkpt>
      <trkpt lat="43.2282160" lon="-6.0382480">
        <ele>356.7</ele>
        <time>2019-09-04T11:58:04Z</time>
      </trkpt>
      <trkpt lat="43.2282980" lon="-6.0382110">
        <ele>356.7</ele>
        <time>2019-09-04T11:58:05Z</time>
      </trkpt>
      <trkpt lat="43.2283800" lon="-6.0381710">
        <ele>356.7</ele>
        <time>2019-09-04T11:58:06Z</time>
      </trkpt>
      <trkpt lat="43.2284570" lon="-6.0381270">
        <ele>356.7</ele>
        <time>2019-09-04T11:58:07Z</time>
      </trkpt>
      <trkpt lat="43.2286050" lon="-6.0380150">
        <ele>354.6</ele>
        <time>2019-09-04T11:58:09Z</time>
      </trkpt>
      <trkpt lat="43.2286770" lon="-6.0379500">
        <ele>354.6</ele>
        <time>2019-09-04T11:58:10Z</time>
      </trkpt>
      <trkpt lat="43.2287440" lon="-6.0378760">
        <ele>354.6</ele>
        <time>2019-09-04T11:58:11Z</time>
      </trkpt>
      <trkpt lat="43.2288150" lon="-6.0378000">
        <ele>354.6</ele>
        <time>2019-09-04T11:58:12Z</time>
      </trkpt>
      <trkpt lat="43.2289540" lon="-6.0376560">
        <ele>354.6</ele>
        <time>2019-09-04T11:58:14Z</time>
      </trkpt>
      <trkpt lat="43.2290250" lon="-6.0375870">
        <ele>354.6</ele>
        <time>2019-09-04T11:58:15Z</time>
      </trkpt>
      <trkpt lat="43.2290870" lon="-6.0375260">
        <ele>354.6</ele>
        <time>2019-09-04T11:58:16Z</time>
      </trkpt>
      <trkpt lat="43.2291580" lon="-6.0374660">
        <ele>354.6</ele>
        <time>2019-09-04T11:58:17Z</time>
      </trkpt>
      <trkpt lat="43.2292350" lon="-6.0374080">
        <ele>354.6</ele>
        <time>2019-09-04T11:58:18Z</time>
      </trkpt>
      <trkpt lat="43.2293120" lon="-6.0373580">
        <ele>354.6</ele>
        <time>2019-09-04T11:58:19Z</time>
      </trkpt>
      <trkpt lat="43.2293890" lon="-6.0373100">
        <ele>354.6</ele>
        <time>2019-09-04T11:58:20Z</time>
      </trkpt>
      <trkpt lat="43.2294710" lon="-6.0372670">
        <ele>354.6</ele>
        <time>2019-09-04T11:58:21Z</time>
      </trkpt>
      <trkpt lat="43.2295480" lon="-6.0372230">
        <ele>354.6</ele>
        <time>2019-09-04T11:58:22Z</time>
      </trkpt>
      <trkpt lat="43.2296240" lon="-6.0371800">
        <ele>354.6</ele>
        <time>2019-09-04T11:58:23Z</time>
      </trkpt>
      <trkpt lat="43.2297110" lon="-6.0371350">
        <ele>354.6</ele>
        <time>2019-09-04T11:58:24Z</time>
      </trkpt>
      <trkpt lat="43.2297880" lon="-6.0370850">
        <ele>352.5</ele>
        <time>2019-09-04T11:58:25Z</time>
      </trkpt>
      <trkpt lat="43.2298650" lon="-6.0370340">
        <ele>352.5</ele>
        <time>2019-09-04T11:58:26Z</time>
      </trkpt>
      <trkpt lat="43.2299370" lon="-6.0369780">
        <ele>352.5</ele>
        <time>2019-09-04T11:58:27Z</time>
      </trkpt>
      <trkpt lat="43.2300130" lon="-6.0369090">
        <ele>352.5</ele>
        <time>2019-09-04T11:58:28Z</time>
      </trkpt>
      <trkpt lat="43.2300850" lon="-6.0368330">
        <ele>352.5</ele>
        <time>2019-09-04T11:58:29Z</time>
      </trkpt>
      <trkpt lat="43.2301520" lon="-6.0367490">
        <ele>352.5</ele>
        <time>2019-09-04T11:58:30Z</time>
      </trkpt>
      <trkpt lat="43.2302690" lon="-6.0365750">
        <ele>352.5</ele>
        <time>2019-09-04T11:58:32Z</time>
      </trkpt>
      <trkpt lat="43.2303260" lon="-6.0364830">
        <ele>352.5</ele>
        <time>2019-09-04T11:58:33Z</time>
      </trkpt>
      <trkpt lat="43.2304490" lon="-6.0362820">
        <ele>352.5</ele>
        <time>2019-09-04T11:58:35Z</time>
      </trkpt>
      <trkpt lat="43.2305610" lon="-6.0360980">
        <ele>352.5</ele>
        <time>2019-09-04T11:58:37Z</time>
      </trkpt>
      <trkpt lat="43.2306840" lon="-6.0359240">
        <ele>352.5</ele>
        <time>2019-09-04T11:58:39Z</time>
      </trkpt>
      <trkpt lat="43.2333110" lon="-6.0330780">
        <ele>350.5</ele>
        <time>2019-09-04T11:59:18Z</time>
      </trkpt>
      <trkpt lat="43.2344170" lon="-6.0321420">
        <ele>350.5</ele>
        <time>2019-09-04T11:59:34Z</time>
      </trkpt>
      <trkpt lat="43.2344930" lon="-6.0320600">
        <ele>348.3</ele>
        <time>2019-09-04T11:59:36Z</time>
      </trkpt>
      <trkpt lat="43.2345450" lon="-6.0320120">
        <ele>348.3</ele>
        <time>2019-09-04T11:59:37Z</time>
      </trkpt>
      <trkpt lat="43.2346060" lon="-6.0319510">
        <ele>348.3</ele>
        <time>2019-09-04T11:59:38Z</time>
      </trkpt>
      <trkpt lat="43.2346680" lon="-6.0318900">
        <ele>348.3</ele>
        <time>2019-09-04T11:59:39Z</time>
      </trkpt>
      <trkpt lat="43.2347340" lon="-6.0318260">
        <ele>348.3</ele>
        <time>2019-09-04T11:59:40Z</time>
      </trkpt>
      <trkpt lat="43.2348010" lon="-6.0317630">
        <ele>348.3</ele>
        <time>2019-09-04T11:59:41Z</time>
      </trkpt>
      <trkpt lat="43.2348720" lon="-6.0316990">
        <ele>348.3</ele>
        <time>2019-09-04T11:59:42Z</time>
      </trkpt>
      <trkpt lat="43.2349390" lon="-6.0316350">
        <ele>348.3</ele>
        <time>2019-09-04T11:59:43Z</time>
      </trkpt>
      <trkpt lat="43.2350110" lon="-6.0315710">
        <ele>348.3</ele>
        <time>2019-09-04T11:59:44Z</time>
      </trkpt>
      <trkpt lat="43.2350820" lon="-6.0315070">
        <ele>348.3</ele>
        <time>2019-09-04T11:59:45Z</time>
      </trkpt>
      <trkpt lat="43.2351590" lon="-6.0314500">
        <ele>348.3</ele>
        <time>2019-09-04T11:59:46Z</time>
      </trkpt>
      <trkpt lat="43.2352310" lon="-6.0314010">
        <ele>348.3</ele>
        <time>2019-09-04T11:59:47Z</time>
      </trkpt>
      <trkpt lat="43.2353080" lon="-6.0313550">
        <ele>346.2</ele>
        <time>2019-09-04T11:59:48Z</time>
      </trkpt>
      <trkpt lat="43.2353890" lon="-6.0313160">
        <ele>346.2</ele>
        <time>2019-09-04T11:59:49Z</time>
      </trkpt>
      <trkpt lat="43.2354710" lon="-6.0312830">
        <ele>346.2</ele>
        <time>2019-09-04T11:59:50Z</time>
      </trkpt>
      <trkpt lat="43.2355530" lon="-6.0312610">
        <ele>346.2</ele>
        <time>2019-09-04T11:59:51Z</time>
      </trkpt>
      <trkpt lat="43.2356350" lon="-6.0312420">
        <ele>346.2</ele>
        <time>2019-09-04T11:59:52Z</time>
      </trkpt>
      <trkpt lat="43.2357220" lon="-6.0312270">
        <ele>344.2</ele>
        <time>2019-09-04T11:59:53Z</time>
      </trkpt>
      <trkpt lat="43.2358090" lon="-6.0312150">
        <ele>344.2</ele>
        <time>2019-09-04T11:59:54Z</time>
      </trkpt>
      <trkpt lat="43.2358960" lon="-6.0312030">
        <ele>344.2</ele>
        <time>2019-09-04T11:59:55Z</time>
      </trkpt>
      <trkpt lat="43.2359830" lon="-6.0311940">
        <ele>344.2</ele>
        <time>2019-09-04T11:59:56Z</time>
      </trkpt>
      <trkpt lat="43.2360700" lon="-6.0311860">
        <ele>344.2</ele>
        <time>2019-09-04T11:59:57Z</time>
      </trkpt>
      <trkpt lat="43.2361570" lon="-6.0311760">
        <ele>344.2</ele>
        <time>2019-09-04T11:59:58Z</time>
      </trkpt>
      <trkpt lat="43.2362340" lon="-6.0311650">
        <ele>344.2</ele>
        <time>2019-09-04T11:59:59Z</time>
      </trkpt>
      <trkpt lat="43.2363260" lon="-6.0311540">
        <ele>344.2</ele>
        <time>2019-09-04T12:00:00Z</time>
      </trkpt>
      <trkpt lat="43.2364030" lon="-6.0311450">
        <ele>344.2</ele>
        <time>2019-09-04T12:00:01Z</time>
      </trkpt>
      <trkpt lat="43.2364900" lon="-6.0311370">
        <ele>344.2</ele>
        <time>2019-09-04T12:00:02Z</time>
      </trkpt>
      <trkpt lat="43.2365770" lon="-6.0311260">
        <ele>344.2</ele>
        <time>2019-09-04T12:00:03Z</time>
      </trkpt>
      <trkpt lat="43.2366540" lon="-6.0311140">
        <ele>344.2</ele>
        <time>2019-09-04T12:00:04Z</time>
      </trkpt>
      <trkpt lat="43.2367360" lon="-6.0310990">
        <ele>344.2</ele>
        <time>2019-09-04T12:00:05Z</time>
      </trkpt>
      <trkpt lat="43.2368180" lon="-6.0310830">
        <ele>342.0</ele>
        <time>2019-09-04T12:00:06Z</time>
      </trkpt>
      <trkpt lat="43.2368950" lon="-6.0310660">
        <ele>342.0</ele>
        <time>2019-09-04T12:00:07Z</time>
      </trkpt>
      <trkpt lat="43.2369770" lon="-6.0310430">
        <ele>342.0</ele>
        <time>2019-09-04T12:00:08Z</time>
      </trkpt>
      <trkpt lat="43.2370480" lon="-6.0310180">
        <ele>342.0</ele>
        <time>2019-09-04T12:00:09Z</time>
      </trkpt>
      <trkpt lat="43.2371350" lon="-6.0309880">
        <ele>342.0</ele>
        <time>2019-09-04T12:00:10Z</time>
      </trkpt>
      <trkpt lat="43.2372070" lon="-6.0309520">
        <ele>342.0</ele>
        <time>2019-09-04T12:00:11Z</time>
      </trkpt>
      <trkpt lat="43.2372840" lon="-6.0309160">
        <ele>342.0</ele>
        <time>2019-09-04T12:00:12Z</time>
      </trkpt>
      <trkpt lat="43.2373610" lon="-6.0308790">
        <ele>342.0</ele>
        <time>2019-09-04T12:00:13Z</time>
      </trkpt>
      <trkpt lat="43.2374320" lon="-6.0308370">
        <ele>342.0</ele>
        <time>2019-09-04T12:00:14Z</time>
      </trkpt>
      <trkpt lat="43.2375040" lon="-6.0307970">
        <ele>342.0</ele>
        <time>2019-09-04T12:00:15Z</time>
      </trkpt>
      <trkpt lat="43.2375760" lon="-6.0307560">
        <ele>342.0</ele>
        <time>2019-09-04T12:00:16Z</time>
      </trkpt>
      <trkpt lat="43.2377090" lon="-6.0306770">
        <ele>342.0</ele>
        <time>2019-09-04T12:00:18Z</time>
      </trkpt>
      <trkpt lat="43.2378470" lon="-6.0306050">
        <ele>342.0</ele>
        <time>2019-09-04T12:00:20Z</time>
      </trkpt>
      <trkpt lat="43.2379240" lon="-6.0305780">
        <ele>342.0</ele>
        <time>2019-09-04T12:00:21Z</time>
      </trkpt>
      <trkpt lat="43.2379850" lon="-6.0305670">
        <ele>342.0</ele>
        <time>2019-09-04T12:00:22Z</time>
      </trkpt>
      <trkpt lat="43.2381640" lon="-6.0305310">
        <ele>342.0</ele>
        <time>2019-09-04T12:00:24Z</time>
      </trkpt>
      <trkpt lat="43.2382410" lon="-6.0305380">
        <ele>340.0</ele>
        <time>2019-09-04T12:00:25Z</time>
      </trkpt>
      <trkpt lat="43.2383900" lon="-6.0305940">
        <ele>340.0</ele>
        <time>2019-09-04T12:00:27Z</time>
      </trkpt>
      <trkpt lat="43.2385430" lon="-6.0306660">
        <ele>340.0</ele>
        <time>2019-09-04T12:00:29Z</time>
      </trkpt>
      <trkpt lat="43.2386150" lon="-6.0306980">
        <ele>340.0</ele>
        <time>2019-09-04T12:00:30Z</time>
      </trkpt>
      <trkpt lat="43.2387640" lon="-6.0307650">
        <ele>340.0</ele>
        <time>2019-09-04T12:00:32Z</time>
      </trkpt>
      <trkpt lat="43.2389120" lon="-6.0308310">
        <ele>340.0</ele>
        <time>2019-09-04T12:00:34Z</time>
      </trkpt>
      <trkpt lat="43.2390660" lon="-6.0308960">
        <ele>340.0</ele>
        <time>2019-09-04T12:00:36Z</time>
      </trkpt>
      <trkpt lat="43.2392140" lon="-6.0309380">
        <ele>340.0</ele>
        <time>2019-09-04T12:00:38Z</time>
      </trkpt>
      <trkpt lat="43.2392910" lon="-6.0309500">
        <ele>340.0</ele>
        <time>2019-09-04T12:00:39Z</time>
      </trkpt>
      <trkpt lat="43.2394550" lon="-6.0309610">
        <ele>340.0</ele>
        <time>2019-09-04T12:00:41Z</time>
      </trkpt>
      <trkpt lat="43.2396240" lon="-6.0309440">
        <ele>340.0</ele>
        <time>2019-09-04T12:00:43Z</time>
      </trkpt>
      <trkpt lat="43.2397880" lon="-6.0308990">
        <ele>340.0</ele>
        <time>2019-09-04T12:00:45Z</time>
      </trkpt>
      <trkpt lat="43.2398640" lon="-6.0308640">
        <ele>340.0</ele>
        <time>2019-09-04T12:00:46Z</time>
      </trkpt>
      <trkpt lat="43.2400230" lon="-6.0307690">
        <ele>340.0</ele>
        <time>2019-09-04T12:00:48Z</time>
      </trkpt>
      <trkpt lat="43.2400900" lon="-6.0307140">
        <ele>340.0</ele>
        <time>2019-09-04T12:00:49Z</time>
      </trkpt>
      <trkpt lat="43.2402230" lon="-6.0305840">
        <ele>340.0</ele>
        <time>2019-09-04T12:00:51Z</time>
      </trkpt>
      <trkpt lat="43.2403610" lon="-6.0304170">
        <ele>340.0</ele>
        <time>2019-09-04T12:00:53Z</time>
      </trkpt>
      <trkpt lat="43.2404740" lon="-6.0302370">
        <ele>340.0</ele>
        <time>2019-09-04T12:00:55Z</time>
      </trkpt>
      <trkpt lat="43.2405660" lon="-6.0300450">
        <ele>340.0</ele>
        <time>2019-09-04T12:00:57Z</time>
      </trkpt>
      <trkpt lat="43.2406480" lon="-6.0298300">
        <ele>340.0</ele>
        <time>2019-09-04T12:00:59Z</time>
      </trkpt>
      <trkpt lat="43.2407090" lon="-6.0296000">
        <ele>340.0</ele>
        <time>2019-09-04T12:01:01Z</time>
      </trkpt>
      <trkpt lat="43.2407710" lon="-6.0293680">
        <ele>340.0</ele>
        <time>2019-09-04T12:01:03Z</time>
      </trkpt>
      <trkpt lat="43.2408320" lon="-6.0291330">
        <ele>340.0</ele>
        <time>2019-09-04T12:01:05Z</time>
      </trkpt>
      <trkpt lat="43.2408580" lon="-6.0290260">
        <ele>340.0</ele>
        <time>2019-09-04T12:01:06Z</time>
      </trkpt>
      <trkpt lat="43.2409140" lon="-6.0287990">
        <ele>340.0</ele>
        <time>2019-09-04T12:01:08Z</time>
      </trkpt>
      <trkpt lat="43.2409750" lon="-6.0285730">
        <ele>340.0</ele>
        <time>2019-09-04T12:01:10Z</time>
      </trkpt>
      <trkpt lat="43.2410520" lon="-6.0283530">
        <ele>340.0</ele>
        <time>2019-09-04T12:01:12Z</time>
      </trkpt>
      <trkpt lat="43.2411390" lon="-6.0281500">
        <ele>340.0</ele>
        <time>2019-09-04T12:01:14Z</time>
      </trkpt>
      <trkpt lat="43.2411900" lon="-6.0280580">
        <ele>340.0</ele>
        <time>2019-09-04T12:01:15Z</time>
      </trkpt>
      <trkpt lat="43.2413080" lon="-6.0278860">
        <ele>340.0</ele>
        <time>2019-09-04T12:01:17Z</time>
      </trkpt>
      <trkpt lat="43.2414310" lon="-6.0277310">
        <ele>340.0</ele>
        <time>2019-09-04T12:01:19Z</time>
      </trkpt>
      <trkpt lat="43.2415690" lon="-6.0276030">
        <ele>340.0</ele>
        <time>2019-09-04T12:01:21Z</time>
      </trkpt>
      <trkpt lat="43.2417280" lon="-6.0274600">
        <ele>340.0</ele>
        <time>2019-09-04T12:01:23Z</time>
      </trkpt>
      <trkpt lat="43.2418760" lon="-6.0273240">
        <ele>340.0</ele>
        <time>2019-09-04T12:01:25Z</time>
      </trkpt>
      <trkpt lat="43.2420250" lon="-6.0271780">
        <ele>340.0</ele>
        <time>2019-09-04T12:01:27Z</time>
      </trkpt>
      <trkpt lat="43.2421630" lon="-6.0270220">
        <ele>340.0</ele>
        <time>2019-09-04T12:01:29Z</time>
      </trkpt>
      <trkpt lat="43.2422960" lon="-6.0268580">
        <ele>340.0</ele>
        <time>2019-09-04T12:01:31Z</time>
      </trkpt>
      <trkpt lat="43.2424350" lon="-6.0266800">
        <ele>340.0</ele>
        <time>2019-09-04T12:01:33Z</time>
      </trkpt>
      <trkpt lat="43.2425630" lon="-6.0264950">
        <ele>340.0</ele>
        <time>2019-09-04T12:01:35Z</time>
      </trkpt>
      <trkpt lat="43.2426800" lon="-6.0263230">
        <ele>340.0</ele>
        <time>2019-09-04T12:01:37Z</time>
      </trkpt>
      <trkpt lat="43.2428030" lon="-6.0261410">
        <ele>340.0</ele>
        <time>2019-09-04T12:01:39Z</time>
      </trkpt>
      <trkpt lat="43.2428650" lon="-6.0260520">
        <ele>340.0</ele>
        <time>2019-09-04T12:01:40Z</time>
      </trkpt>
      <trkpt lat="43.2429260" lon="-6.0259660">
        <ele>340.0</ele>
        <time>2019-09-04T12:01:41Z</time>
      </trkpt>
      <trkpt lat="43.2430440" lon="-6.0258090">
        <ele>340.0</ele>
        <time>2019-09-04T12:01:43Z</time>
      </trkpt>
      <trkpt lat="43.2431100" lon="-6.0257380">
        <ele>340.0</ele>
        <time>2019-09-04T12:01:44Z</time>
      </trkpt>
      <trkpt lat="43.2432540" lon="-6.0256020">
        <ele>340.0</ele>
        <time>2019-09-04T12:01:46Z</time>
      </trkpt>
      <trkpt lat="43.2433970" lon="-6.0254750">
        <ele>340.0</ele>
        <time>2019-09-04T12:01:48Z</time>
      </trkpt>
      <trkpt lat="43.2434640" lon="-6.0254140">
        <ele>340.0</ele>
        <time>2019-09-04T12:01:49Z</time>
      </trkpt>
      <trkpt lat="43.2435400" lon="-6.0253560">
        <ele>340.0</ele>
        <time>2019-09-04T12:01:50Z</time>
      </trkpt>
      <trkpt lat="43.2436990" lon="-6.0252380">
        <ele>340.0</ele>
        <time>2019-09-04T12:01:52Z</time>
      </trkpt>
      <trkpt lat="43.2438480" lon="-6.0251300">
        <ele>340.0</ele>
        <time>2019-09-04T12:01:54Z</time>
      </trkpt>
      <trkpt lat="43.2440010" lon="-6.0250210">
        <ele>340.0</ele>
        <time>2019-09-04T12:01:56Z</time>
      </trkpt>
      <trkpt lat="43.2441500" lon="-6.0249150">
        <ele>340.0</ele>
        <time>2019-09-04T12:01:58Z</time>
      </trkpt>
      <trkpt lat="43.2443080" lon="-6.0248190">
        <ele>340.0</ele>
        <time>2019-09-04T12:02:00Z</time>
      </trkpt>
      <trkpt lat="43.2444720" lon="-6.0247340">
        <ele>340.0</ele>
        <time>2019-09-04T12:02:02Z</time>
      </trkpt>
      <trkpt lat="43.2446310" lon="-6.0246800">
        <ele>340.0</ele>
        <time>2019-09-04T12:02:04Z</time>
      </trkpt>
      <trkpt lat="43.2448000" lon="-6.0246620">
        <ele>338.0</ele>
        <time>2019-09-04T12:02:06Z</time>
      </trkpt>
      <trkpt lat="43.2449790" lon="-6.0246650">
        <ele>338.0</ele>
        <time>2019-09-04T12:02:08Z</time>
      </trkpt>
      <trkpt lat="43.2451430" lon="-6.0246760">
        <ele>338.0</ele>
        <time>2019-09-04T12:02:10Z</time>
      </trkpt>
      <trkpt lat="43.2453170" lon="-6.0247010">
        <ele>338.0</ele>
        <time>2019-09-04T12:02:12Z</time>
      </trkpt>
      <trkpt lat="43.2453990" lon="-6.0247160">
        <ele>338.0</ele>
        <time>2019-09-04T12:02:13Z</time>
      </trkpt>
      <trkpt lat="43.2454810" lon="-6.0247300">
        <ele>338.0</ele>
        <time>2019-09-04T12:02:14Z</time>
      </trkpt>
      <trkpt lat="43.2455680" lon="-6.0247440">
        <ele>338.0</ele>
        <time>2019-09-04T12:02:15Z</time>
      </trkpt>
      <trkpt lat="43.2456500" lon="-6.0247590">
        <ele>338.0</ele>
        <time>2019-09-04T12:02:16Z</time>
      </trkpt>
      <trkpt lat="43.2457370" lon="-6.0247740">
        <ele>338.0</ele>
        <time>2019-09-04T12:02:17Z</time>
      </trkpt>
      <trkpt lat="43.2458290" lon="-6.0247890">
        <ele>338.0</ele>
        <time>2019-09-04T12:02:18Z</time>
      </trkpt>
      <trkpt lat="43.2459110" lon="-6.0247980">
        <ele>338.0</ele>
        <time>2019-09-04T12:02:19Z</time>
      </trkpt>
      <trkpt lat="43.2459930" lon="-6.0248040">
        <ele>338.0</ele>
        <time>2019-09-04T12:02:20Z</time>
      </trkpt>
      <trkpt lat="43.2460750" lon="-6.0248040">
        <ele>338.0</ele>
        <time>2019-09-04T12:02:21Z</time>
      </trkpt>
      <trkpt lat="43.2461570" lon="-6.0247970">
        <ele>338.0</ele>
        <time>2019-09-04T12:02:22Z</time>
      </trkpt>
      <trkpt lat="43.2462390" lon="-6.0247830">
        <ele>338.0</ele>
        <time>2019-09-04T12:02:23Z</time>
      </trkpt>
      <trkpt lat="43.2463210" lon="-6.0247650">
        <ele>338.0</ele>
        <time>2019-09-04T12:02:24Z</time>
      </trkpt>
      <trkpt lat="43.2463970" lon="-6.0247370">
        <ele>338.0</ele>
        <time>2019-09-04T12:02:25Z</time>
      </trkpt>
      <trkpt lat="43.2464740" lon="-6.0247080">
        <ele>338.0</ele>
        <time>2019-09-04T12:02:26Z</time>
      </trkpt>
      <trkpt lat="43.2465560" lon="-6.0246680">
        <ele>338.0</ele>
        <time>2019-09-04T12:02:27Z</time>
      </trkpt>
      <trkpt lat="43.2466380" lon="-6.0246240">
        <ele>338.0</ele>
        <time>2019-09-04T12:02:28Z</time>
      </trkpt>
      <trkpt lat="43.2467100" lon="-6.0245810">
        <ele>338.0</ele>
        <time>2019-09-04T12:02:29Z</time>
      </trkpt>
      <trkpt lat="43.2467920" lon="-6.0245360">
        <ele>338.0</ele>
        <time>2019-09-04T12:02:30Z</time>
      </trkpt>
      <trkpt lat="43.2468680" lon="-6.0244990">
        <ele>338.0</ele>
        <time>2019-09-04T12:02:31Z</time>
      </trkpt>
      <trkpt lat="43.2469500" lon="-6.0244660">
        <ele>338.0</ele>
        <time>2019-09-04T12:02:32Z</time>
      </trkpt>
      <trkpt lat="43.2470370" lon="-6.0244350">
        <ele>338.0</ele>
        <time>2019-09-04T12:02:33Z</time>
      </trkpt>
      <trkpt lat="43.2471240" lon="-6.0244070">
        <ele>338.0</ele>
        <time>2019-09-04T12:02:34Z</time>
      </trkpt>
      <trkpt lat="43.2472010" lon="-6.0243830">
        <ele>338.0</ele>
        <time>2019-09-04T12:02:35Z</time>
      </trkpt>
      <trkpt lat="43.2472930" lon="-6.0243600">
        <ele>338.0</ele>
        <time>2019-09-04T12:02:36Z</time>
      </trkpt>
      <trkpt lat="43.2473750" lon="-6.0243390">
        <ele>338.0</ele>
        <time>2019-09-04T12:02:37Z</time>
      </trkpt>
      <trkpt lat="43.2474620" lon="-6.0243190">
        <ele>338.0</ele>
        <time>2019-09-04T12:02:38Z</time>
      </trkpt>
      <trkpt lat="43.2475440" lon="-6.0242990">
        <ele>338.0</ele>
        <time>2019-09-04T12:02:39Z</time>
      </trkpt>
      <trkpt lat="43.2477080" lon="-6.0242680">
        <ele>338.0</ele>
        <time>2019-09-04T12:02:41Z</time>
      </trkpt>
      <trkpt lat="43.2478920" lon="-6.0242410">
        <ele>338.0</ele>
        <time>2019-09-04T12:02:43Z</time>
      </trkpt>
      <trkpt lat="43.2479690" lon="-6.0242250">
        <ele>338.0</ele>
        <time>2019-09-04T12:02:44Z</time>
      </trkpt>
      <trkpt lat="43.2481480" lon="-6.0241890">
        <ele>338.0</ele>
        <time>2019-09-04T12:02:46Z</time>
      </trkpt>
      <trkpt lat="43.2482360" lon="-6.0241700">
        <ele>338.0</ele>
        <time>2019-09-04T12:02:47Z</time>
      </trkpt>
      <trkpt lat="43.2484040" lon="-6.0241430">
        <ele>338.0</ele>
        <time>2019-09-04T12:02:49Z</time>
      </trkpt>
      <trkpt lat="43.2485790" lon="-6.0241240">
        <ele>338.0</ele>
        <time>2019-09-04T12:02:51Z</time>
      </trkpt>
      <trkpt lat="43.2486710" lon="-6.0241110">
        <ele>338.0</ele>
        <time>2019-09-04T12:02:52Z</time>
      </trkpt>
      <trkpt lat="43.2488450" lon="-6.0240840">
        <ele>338.0</ele>
        <time>2019-09-04T12:02:54Z</time>
      </trkpt>
      <trkpt lat="43.2490140" lon="-6.0240450">
        <ele>336.0</ele>
        <time>2019-09-04T12:02:56Z</time>
      </trkpt>
      <trkpt lat="43.2491010" lon="-6.0240220">
        <ele>336.0</ele>
        <time>2019-09-04T12:02:57Z</time>
      </trkpt>
      <trkpt lat="43.2491780" lon="-6.0239980">
        <ele>336.0</ele>
        <time>2019-09-04T12:02:58Z</time>
      </trkpt>
      <trkpt lat="43.2493520" lon="-6.0239490">
        <ele>336.0</ele>
        <time>2019-09-04T12:03:00Z</time>
      </trkpt>
      <trkpt lat="43.2495100" lon="-6.0239030">
        <ele>336.0</ele>
        <time>2019-09-04T12:03:02Z</time>
      </trkpt>
      <trkpt lat="43.2496690" lon="-6.0238440">
        <ele>336.0</ele>
        <time>2019-09-04T12:03:04Z</time>
      </trkpt>
      <trkpt lat="43.2498230" lon="-6.0237510">
        <ele>336.0</ele>
        <time>2019-09-04T12:03:06Z</time>
      </trkpt>
      <trkpt lat="43.2499510" lon="-6.0236140">
        <ele>336.0</ele>
        <time>2019-09-04T12:03:08Z</time>
      </trkpt>
      <trkpt lat="43.2500480" lon="-6.0234450">
        <ele>336.0</ele>
        <time>2019-09-04T12:03:10Z</time>
      </trkpt>
      <trkpt lat="43.2501200" lon="-6.0232570">
        <ele>336.0</ele>
        <time>2019-09-04T12:03:12Z</time>
      </trkpt>
      <trkpt lat="43.2501500" lon="-6.0230340">
        <ele>336.0</ele>
        <time>2019-09-04T12:03:14Z</time>
      </trkpt>
      <trkpt lat="43.2501450" lon="-6.0228230">
        <ele>336.0</ele>
        <time>2019-09-04T12:03:16Z</time>
      </trkpt>
      <trkpt lat="43.2501040" lon="-6.0226160">
        <ele>336.0</ele>
        <time>2019-09-04T12:03:18Z</time>
      </trkpt>
      <trkpt lat="43.2500580" lon="-6.0224290">
        <ele>336.0</ele>
        <time>2019-09-04T12:03:20Z</time>
      </trkpt>
      <trkpt lat="43.2500280" lon="-6.0223260">
        <ele>336.0</ele>
        <time>2019-09-04T12:03:21Z</time>
      </trkpt>
      <trkpt lat="43.2499660" lon="-6.0221250">
        <ele>336.0</ele>
        <time>2019-09-04T12:03:23Z</time>
      </trkpt>
      <trkpt lat="43.2499100" lon="-6.0219170">
        <ele>336.0</ele>
        <time>2019-09-04T12:03:25Z</time>
      </trkpt>
      <trkpt lat="43.2498890" lon="-6.0218110">
        <ele>336.0</ele>
        <time>2019-09-04T12:03:26Z</time>
      </trkpt>
      <trkpt lat="43.2498690" lon="-6.0216100">
        <ele>336.0</ele>
        <time>2019-09-04T12:03:28Z</time>
      </trkpt>
      <trkpt lat="43.2498690" lon="-6.0215070">
        <ele>336.0</ele>
        <time>2019-09-04T12:03:29Z</time>
      </trkpt>
      <trkpt lat="43.2498690" lon="-6.0214030">
        <ele>336.0</ele>
        <time>2019-09-04T12:03:30Z</time>
      </trkpt>
      <trkpt lat="43.2498740" lon="-6.0212970">
        <ele>336.0</ele>
        <time>2019-09-04T12:03:31Z</time>
      </trkpt>
      <trkpt lat="43.2498840" lon="-6.0210850">
        <ele>336.0</ele>
        <time>2019-09-04T12:03:33Z</time>
      </trkpt>
      <trkpt lat="43.2498690" lon="-6.0208730">
        <ele>336.0</ele>
        <time>2019-09-04T12:03:35Z</time>
      </trkpt>
      <trkpt lat="43.2498430" lon="-6.0206610">
        <ele>336.0</ele>
        <time>2019-09-04T12:03:37Z</time>
      </trkpt>
      <trkpt lat="43.2497970" lon="-6.0204540">
        <ele>333.9</ele>
        <time>2019-09-04T12:03:39Z</time>
      </trkpt>
      <trkpt lat="43.2497460" lon="-6.0202530">
        <ele>333.9</ele>
        <time>2019-09-04T12:03:41Z</time>
      </trkpt>
      <trkpt lat="43.2497050" lon="-6.0200540">
        <ele>333.9</ele>
        <time>2019-09-04T12:03:43Z</time>
      </trkpt>
      <trkpt lat="43.2496840" lon="-6.0198360">
        <ele>333.9</ele>
        <time>2019-09-04T12:03:45Z</time>
      </trkpt>
      <trkpt lat="43.2496590" lon="-6.0196150">
        <ele>333.9</ele>
        <time>2019-09-04T12:03:47Z</time>
      </trkpt>
      <trkpt lat="43.2496280" lon="-6.0193910">
        <ele>333.9</ele>
        <time>2019-09-04T12:03:49Z</time>
      </trkpt>
      <trkpt lat="43.2495970" lon="-6.0191790">
        <ele>333.9</ele>
        <time>2019-09-04T12:03:51Z</time>
      </trkpt>
      <trkpt lat="43.2495970" lon="-6.0189850">
        <ele>333.9</ele>
        <time>2019-09-04T12:03:53Z</time>
      </trkpt>
      <trkpt lat="43.2496280" lon="-6.0187900">
        <ele>333.9</ele>
        <time>2019-09-04T12:03:55Z</time>
      </trkpt>
      <trkpt lat="43.2496640" lon="-6.0186090">
        <ele>333.9</ele>
        <time>2019-09-04T12:03:57Z</time>
      </trkpt>
      <trkpt lat="43.2497150" lon="-6.0184360">
        <ele>333.9</ele>
        <time>2019-09-04T12:03:59Z</time>
      </trkpt>
      <trkpt lat="43.2497770" lon="-6.0182820">
        <ele>333.9</ele>
        <time>2019-09-04T12:04:01Z</time>
      </trkpt>
      <trkpt lat="43.2498070" lon="-6.0182140">
        <ele>333.9</ele>
        <time>2019-09-04T12:04:02Z</time>
      </trkpt>
      <trkpt lat="43.2498790" lon="-6.0180810">
        <ele>333.9</ele>
        <time>2019-09-04T12:04:04Z</time>
      </trkpt>
      <trkpt lat="43.2499200" lon="-6.0180150">
        <ele>333.9</ele>
        <time>2019-09-04T12:04:05Z</time>
      </trkpt>
      <trkpt lat="43.2500070" lon="-6.0178890">
        <ele>333.9</ele>
        <time>2019-09-04T12:04:07Z</time>
      </trkpt>
      <trkpt lat="43.2500580" lon="-6.0178270">
        <ele>333.9</ele>
        <time>2019-09-04T12:04:08Z</time>
      </trkpt>
      <trkpt lat="43.2501610" lon="-6.0177060">
        <ele>333.9</ele>
        <time>2019-09-04T12:04:10Z</time>
      </trkpt>
      <trkpt lat="43.2502580" lon="-6.0175880">
        <ele>333.9</ele>
        <time>2019-09-04T12:04:12Z</time>
      </trkpt>
      <trkpt lat="43.2503600" lon="-6.0174690">
        <ele>333.9</ele>
        <time>2019-09-04T12:04:14Z</time>
      </trkpt>
      <trkpt lat="43.2504680" lon="-6.0173480">
        <ele>333.9</ele>
        <time>2019-09-04T12:04:16Z</time>
      </trkpt>
      <trkpt lat="43.2505700" lon="-6.0172260">
        <ele>333.9</ele>
        <time>2019-09-04T12:04:18Z</time>
      </trkpt>
      <trkpt lat="43.2506730" lon="-6.0171070">
        <ele>333.9</ele>
        <time>2019-09-04T12:04:20Z</time>
      </trkpt>
      <trkpt lat="43.2507700" lon="-6.0169840">
        <ele>333.9</ele>
        <time>2019-09-04T12:04:22Z</time>
      </trkpt>
      <trkpt lat="43.2508670" lon="-6.0168610">
        <ele>333.9</ele>
        <time>2019-09-04T12:04:24Z</time>
      </trkpt>
      <trkpt lat="43.2509750" lon="-6.0167450">
        <ele>333.9</ele>
        <time>2019-09-04T12:04:26Z</time>
      </trkpt>
      <trkpt lat="43.2510820" lon="-6.0166520">
        <ele>333.9</ele>
        <time>2019-09-04T12:04:28Z</time>
      </trkpt>
      <trkpt lat="43.2512050" lon="-6.0165720">
        <ele>333.9</ele>
        <time>2019-09-04T12:04:30Z</time>
      </trkpt>
      <trkpt lat="43.2513330" lon="-6.0165010">
        <ele>333.9</ele>
        <time>2019-09-04T12:04:32Z</time>
      </trkpt>
      <trkpt lat="43.2513950" lon="-6.0164640">
        <ele>333.9</ele>
        <time>2019-09-04T12:04:33Z</time>
      </trkpt>
      <trkpt lat="43.2515170" lon="-6.0163830">
        <ele>333.9</ele>
        <time>2019-09-04T12:04:35Z</time>
      </trkpt>
      <trkpt lat="43.2516400" lon="-6.0162810">
        <ele>333.9</ele>
        <time>2019-09-04T12:04:37Z</time>
      </trkpt>
      <trkpt lat="43.2517580" lon="-6.0161740">
        <ele>333.9</ele>
        <time>2019-09-04T12:04:39Z</time>
      </trkpt>
      <trkpt lat="43.2518710" lon="-6.0160670">
        <ele>333.9</ele>
        <time>2019-09-04T12:04:41Z</time>
      </trkpt>
      <trkpt lat="43.2519940" lon="-6.0159580">
        <ele>333.9</ele>
        <time>2019-09-04T12:04:43Z</time>
      </trkpt>
      <trkpt lat="43.2521110" lon="-6.0158520">
        <ele>333.9</ele>
        <time>2019-09-04T12:04:45Z</time>
      </trkpt>
      <trkpt lat="43.2521730" lon="-6.0157980">
        <ele>333.9</ele>
        <time>2019-09-04T12:04:46Z</time>
      </trkpt>
      <trkpt lat="43.2523010" lon="-6.0156900">
        <ele>333.9</ele>
        <time>2019-09-04T12:04:48Z</time>
      </trkpt>
      <trkpt lat="43.2524240" lon="-6.0155810">
        <ele>333.9</ele>
        <time>2019-09-04T12:04:50Z</time>
      </trkpt>
      <trkpt lat="43.2525570" lon="-6.0154710">
        <ele>333.9</ele>
        <time>2019-09-04T12:04:52Z</time>
      </trkpt>
      <trkpt lat="43.2526950" lon="-6.0153570">
        <ele>333.9</ele>
        <time>2019-09-04T12:04:54Z</time>
      </trkpt>
      <trkpt lat="43.2528230" lon="-6.0152450">
        <ele>331.9</ele>
        <time>2019-09-04T12:04:56Z</time>
      </trkpt>
      <trkpt lat="43.2529510" lon="-6.0151380">
        <ele>331.9</ele>
        <time>2019-09-04T12:04:58Z</time>
      </trkpt>
      <trkpt lat="43.2530740" lon="-6.0150440">
        <ele>331.9</ele>
        <time>2019-09-04T12:05:00Z</time>
      </trkpt>
      <trkpt lat="43.2531870" lon="-6.0149470">
        <ele>331.9</ele>
        <time>2019-09-04T12:05:02Z</time>
      </trkpt>
      <trkpt lat="43.2532480" lon="-6.0148980">
        <ele>331.9</ele>
        <time>2019-09-04T12:05:03Z</time>
      </trkpt>
      <trkpt lat="43.2533610" lon="-6.0148020">
        <ele>331.9</ele>
        <time>2019-09-04T12:05:05Z</time>
      </trkpt>
      <trkpt lat="43.2534840" lon="-6.0147010">
        <ele>331.9</ele>
        <time>2019-09-04T12:05:07Z</time>
      </trkpt>
      <trkpt lat="43.2536170" lon="-6.0145900">
        <ele>331.9</ele>
        <time>2019-09-04T12:05:09Z</time>
      </trkpt>
      <trkpt lat="43.2537500" lon="-6.0144960">
        <ele>331.9</ele>
        <time>2019-09-04T12:05:11Z</time>
      </trkpt>
      <trkpt lat="43.2538160" lon="-6.0144560">
        <ele>331.9</ele>
        <time>2019-09-04T12:05:12Z</time>
      </trkpt>
      <trkpt lat="43.2539600" lon="-6.0143780">
        <ele>331.9</ele>
        <time>2019-09-04T12:05:14Z</time>
      </trkpt>
      <trkpt lat="43.2541130" lon="-6.0143140">
        <ele>331.9</ele>
        <time>2019-09-04T12:05:16Z</time>
      </trkpt>
      <trkpt lat="43.2542770" lon="-6.0142550">
        <ele>331.9</ele>
        <time>2019-09-04T12:05:18Z</time>
      </trkpt>
      <trkpt lat="43.2544360" lon="-6.0141950">
        <ele>331.9</ele>
        <time>2019-09-04T12:05:20Z</time>
      </trkpt>
      <trkpt lat="43.2545130" lon="-6.0141630">
        <ele>331.9</ele>
        <time>2019-09-04T12:05:21Z</time>
      </trkpt>
      <trkpt lat="43.2546660" lon="-6.0140920">
        <ele>331.9</ele>
        <time>2019-09-04T12:05:23Z</time>
      </trkpt>
      <trkpt lat="43.2547430" lon="-6.0140550">
        <ele>331.9</ele>
        <time>2019-09-04T12:05:24Z</time>
      </trkpt>
      <trkpt lat="43.2548150" lon="-6.0140190">
        <ele>331.9</ele>
        <time>2019-09-04T12:05:25Z</time>
      </trkpt>
      <trkpt lat="43.2548920" lon="-6.0139810">
        <ele>331.9</ele>
        <time>2019-09-04T12:05:26Z</time>
      </trkpt>
      <trkpt lat="43.2549680" lon="-6.0139440">
        <ele>331.9</ele>
        <time>2019-09-04T12:05:27Z</time>
      </trkpt>
      <trkpt lat="43.2550400" lon="-6.0139090">
        <ele>331.9</ele>
        <time>2019-09-04T12:05:28Z</time>
      </trkpt>
      <trkpt lat="43.2551120" lon="-6.0138710">
        <ele>331.9</ele>
        <time>2019-09-04T12:05:29Z</time>
      </trkpt>
      <trkpt lat="43.2551830" lon="-6.0138340">
        <ele>331.9</ele>
        <time>2019-09-04T12:05:30Z</time>
      </trkpt>
      <trkpt lat="43.2552500" lon="-6.0137930">
        <ele>331.9</ele>
        <time>2019-09-04T12:05:31Z</time>
      </trkpt>
      <trkpt lat="43.2553780" lon="-6.0136820">
        <ele>331.9</ele>
        <time>2019-09-04T12:05:33Z</time>
      </trkpt>
      <trkpt lat="43.2554340" lon="-6.0136210">
        <ele>331.9</ele>
        <time>2019-09-04T12:05:34Z</time>
      </trkpt>
      <trkpt lat="43.2554960" lon="-6.0135500">
        <ele>331.9</ele>
        <time>2019-09-04T12:05:35Z</time>
      </trkpt>
      <trkpt lat="43.2556080" lon="-6.0134020">
        <ele>331.9</ele>
        <time>2019-09-04T12:05:37Z</time>
      </trkpt>
      <trkpt lat="43.2556700" lon="-6.0133250">
        <ele>331.9</ele>
        <time>2019-09-04T12:05:38Z</time>
      </trkpt>
      <trkpt lat="43.2557310" lon="-6.0132510">
        <ele>331.9</ele>
        <time>2019-09-04T12:05:39Z</time>
      </trkpt>
      <trkpt lat="43.2558640" lon="-6.0131010">
        <ele>329.7</ele>
        <time>2019-09-04T12:05:41Z</time>
      </trkpt>
      <trkpt lat="43.2559310" lon="-6.0130200">
        <ele>329.7</ele>
        <time>2019-09-04T12:05:42Z</time>
      </trkpt>
      <trkpt lat="43.2560640" lon="-6.0128390">
        <ele>329.7</ele>
        <time>2019-09-04T12:05:44Z</time>
      </trkpt>
      <trkpt lat="43.2561820" lon="-6.0126440">
        <ele>329.7</ele>
        <time>2019-09-04T12:05:46Z</time>
      </trkpt>
      <trkpt lat="43.2563100" lon="-6.0124280">
        <ele>329.7</ele>
        <time>2019-09-04T12:05:48Z</time>
      </trkpt>
      <trkpt lat="43.2564430" lon="-6.0122210">
        <ele>329.7</ele>
        <time>2019-09-04T12:05:50Z</time>
      </trkpt>
      <trkpt lat="43.2565960" lon="-6.0120520">
        <ele>329.7</ele>
        <time>2019-09-04T12:05:52Z</time>
      </trkpt>
      <trkpt lat="43.2567650" lon="-6.0119260">
        <ele>329.7</ele>
        <time>2019-09-04T12:05:54Z</time>
      </trkpt>
      <trkpt lat="43.2569450" lon="-6.0118290">
        <ele>329.7</ele>
        <time>2019-09-04T12:05:56Z</time>
      </trkpt>
      <trkpt lat="43.2571240" lon="-6.0117410">
        <ele>329.7</ele>
        <time>2019-09-04T12:05:58Z</time>
      </trkpt>
      <trkpt lat="43.2572880" lon="-6.0116420">
        <ele>329.7</ele>
        <time>2019-09-04T12:06:00Z</time>
      </trkpt>
      <trkpt lat="43.2574410" lon="-6.0115280">
        <ele>329.7</ele>
        <time>2019-09-04T12:06:02Z</time>
      </trkpt>
      <trkpt lat="43.2575850" lon="-6.0113930">
        <ele>329.7</ele>
        <time>2019-09-04T12:06:04Z</time>
      </trkpt>
      <trkpt lat="43.2576510" lon="-6.0113200">
        <ele>329.7</ele>
        <time>2019-09-04T12:06:05Z</time>
      </trkpt>
      <trkpt lat="43.2577180" lon="-6.0112470">
        <ele>329.7</ele>
        <time>2019-09-04T12:06:06Z</time>
      </trkpt>
      <trkpt lat="43.2578300" lon="-6.0110990">
        <ele>329.7</ele>
        <time>2019-09-04T12:06:08Z</time>
      </trkpt>
      <trkpt lat="43.2579530" lon="-6.0109450">
        <ele>329.7</ele>
        <time>2019-09-04T12:06:10Z</time>
      </trkpt>
      <trkpt lat="43.2580100" lon="-6.0108720">
        <ele>329.7</ele>
        <time>2019-09-04T12:06:11Z</time>
      </trkpt>
      <trkpt lat="43.2581270" lon="-6.0107380">
        <ele>327.3</ele>
        <time>2019-09-04T12:06:13Z</time>
      </trkpt>
      <trkpt lat="43.2582450" lon="-6.0106090">
        <ele>327.3</ele>
        <time>2019-09-04T12:06:15Z</time>
      </trkpt>
      <trkpt lat="43.2583010" lon="-6.0105480">
        <ele>327.3</ele>
        <time>2019-09-04T12:06:16Z</time>
      </trkpt>
      <trkpt lat="43.2584240" lon="-6.0104280">
        <ele>327.3</ele>
        <time>2019-09-04T12:06:18Z</time>
      </trkpt>
      <trkpt lat="43.2585520" lon="-6.0103140">
        <ele>327.3</ele>
        <time>2019-09-04T12:06:20Z</time>
      </trkpt>
      <trkpt lat="43.2586750" lon="-6.0102010">
        <ele>327.3</ele>
        <time>2019-09-04T12:06:22Z</time>
      </trkpt>
      <trkpt lat="43.2587980" lon="-6.0100910">
        <ele>327.3</ele>
        <time>2019-09-04T12:06:24Z</time>
      </trkpt>
      <trkpt lat="43.2589310" lon="-6.0099800">
        <ele>327.3</ele>
        <time>2019-09-04T12:06:26Z</time>
      </trkpt>
      <trkpt lat="43.2590640" lon="-6.0098680">
        <ele>327.3</ele>
        <time>2019-09-04T12:06:28Z</time>
      </trkpt>
      <trkpt lat="43.2591920" lon="-6.0097550">
        <ele>327.3</ele>
        <time>2019-09-04T12:06:30Z</time>
      </trkpt>
      <trkpt lat="43.2593310" lon="-6.0096190">
        <ele>327.3</ele>
        <time>2019-09-04T12:06:32Z</time>
      </trkpt>
      <trkpt lat="43.2593970" lon="-6.0095460">
        <ele>327.3</ele>
        <time>2019-09-04T12:06:33Z</time>
      </trkpt>
      <trkpt lat="43.2595200" lon="-6.0093890">
        <ele>327.3</ele>
        <time>2019-09-04T12:06:35Z</time>
      </trkpt>
      <trkpt lat="43.2595710" lon="-6.0093040">
        <ele>327.3</ele>
        <time>2019-09-04T12:06:36Z</time>
      </trkpt>
      <trkpt lat="43.2596740" lon="-6.0091320">
        <ele>327.3</ele>
        <time>2019-09-04T12:06:38Z</time>
      </trkpt>
      <trkpt lat="43.2597710" lon="-6.0089450">
        <ele>325.3</ele>
        <time>2019-09-04T12:06:40Z</time>
      </trkpt>
      <trkpt lat="43.2598220" lon="-6.0088530">
        <ele>325.3</ele>
        <time>2019-09-04T12:06:41Z</time>
      </trkpt>
      <trkpt lat="43.2599240" lon="-6.0086730">
        <ele>325.3</ele>
        <time>2019-09-04T12:06:43Z</time>
      </trkpt>
      <trkpt lat="43.2599810" lon="-6.0085780">
        <ele>325.3</ele>
        <time>2019-09-04T12:06:44Z</time>
      </trkpt>
      <trkpt lat="43.2601040" lon="-6.0083990">
        <ele>325.3</ele>
        <time>2019-09-04T12:06:46Z</time>
      </trkpt>
      <trkpt lat="43.2602370" lon="-6.0082250">
        <ele>325.3</ele>
        <time>2019-09-04T12:06:48Z</time>
      </trkpt>
      <trkpt lat="43.2603140" lon="-6.0081400">
        <ele>325.3</ele>
        <time>2019-09-04T12:06:49Z</time>
      </trkpt>
      <trkpt lat="43.2604570" lon="-6.0079740">
        <ele>325.3</ele>
        <time>2019-09-04T12:06:51Z</time>
      </trkpt>
      <trkpt lat="43.2605290" lon="-6.0078990">
        <ele>325.3</ele>
        <time>2019-09-04T12:06:52Z</time>
      </trkpt>
      <trkpt lat="43.2606870" lon="-6.0077350">
        <ele>325.3</ele>
        <time>2019-09-04T12:06:54Z</time>
      </trkpt>
      <trkpt lat="43.2608460" lon="-6.0075870">
        <ele>325.3</ele>
        <time>2019-09-04T12:06:56Z</time>
      </trkpt>
      <trkpt lat="43.2610200" lon="-6.0074530">
        <ele>325.3</ele>
        <time>2019-09-04T12:06:58Z</time>
      </trkpt>
      <trkpt lat="43.2611940" lon="-6.0073400">
        <ele>325.3</ele>
        <time>2019-09-04T12:07:00Z</time>
      </trkpt>
      <trkpt lat="43.2613730" lon="-6.0072510">
        <ele>323.3</ele>
        <time>2019-09-04T12:07:02Z</time>
      </trkpt>
      <trkpt lat="43.2615530" lon="-6.0071700">
        <ele>323.3</ele>
        <time>2019-09-04T12:07:04Z</time>
      </trkpt>
      <trkpt lat="43.2617110" lon="-6.0070760">
        <ele>323.3</ele>
        <time>2019-09-04T12:07:06Z</time>
      </trkpt>
      <trkpt lat="43.2618550" lon="-6.0069470">
        <ele>323.3</ele>
        <time>2019-09-04T12:07:08Z</time>
      </trkpt>
      <trkpt lat="43.2619720" lon="-6.0067830">
        <ele>323.3</ele>
        <time>2019-09-04T12:07:10Z</time>
      </trkpt>
      <trkpt lat="43.2620490" lon="-6.0066020">
        <ele>323.3</ele>
        <time>2019-09-04T12:07:12Z</time>
      </trkpt>
      <trkpt lat="43.2620900" lon="-6.0063940">
        <ele>323.3</ele>
        <time>2019-09-04T12:07:14Z</time>
      </trkpt>
      <trkpt lat="43.2621000" lon="-6.0062870">
        <ele>323.3</ele>
        <time>2019-09-04T12:07:15Z</time>
      </trkpt>
      <trkpt lat="43.2621060" lon="-6.0061880">
        <ele>323.3</ele>
        <time>2019-09-04T12:07:16Z</time>
      </trkpt>
      <trkpt lat="43.2621110" lon="-6.0059680">
        <ele>323.3</ele>
        <time>2019-09-04T12:07:18Z</time>
      </trkpt>
      <trkpt lat="43.2621310" lon="-6.0057540">
        <ele>323.3</ele>
        <time>2019-09-04T12:07:20Z</time>
      </trkpt>
      <trkpt lat="43.2621520" lon="-6.0056510">
        <ele>323.3</ele>
        <time>2019-09-04T12:07:21Z</time>
      </trkpt>
      <trkpt lat="43.2622030" lon="-6.0054620">
        <ele>323.3</ele>
        <time>2019-09-04T12:07:23Z</time>
      </trkpt>
      <trkpt lat="43.2622540" lon="-6.0053780">
        <ele>323.3</ele>
        <time>2019-09-04T12:07:24Z</time>
      </trkpt>
      <trkpt lat="43.2622950" lon="-6.0053040">
        <ele>323.3</ele>
        <time>2019-09-04T12:07:25Z</time>
      </trkpt>
      <trkpt lat="43.2623510" lon="-6.0052320">
        <ele>323.3</ele>
        <time>2019-09-04T12:07:26Z</time>
      </trkpt>
      <trkpt lat="43.2624690" lon="-6.0051120">
        <ele>323.3</ele>
        <time>2019-09-04T12:07:28Z</time>
      </trkpt>
      <trkpt lat="43.2626180" lon="-6.0050260">
        <ele>323.3</ele>
        <time>2019-09-04T12:07:30Z</time>
      </trkpt>
      <trkpt lat="43.2627710" lon="-6.0049620">
        <ele>321.2</ele>
        <time>2019-09-04T12:07:32Z</time>
      </trkpt>
      <trkpt lat="43.2629300" lon="-6.0049070">
        <ele>321.2</ele>
        <time>2019-09-04T12:07:34Z</time>
      </trkpt>
      <trkpt lat="43.2630940" lon="-6.0048600">
        <ele>321.2</ele>
        <time>2019-09-04T12:07:36Z</time>
      </trkpt>
      <trkpt lat="43.2632580" lon="-6.0048170">
        <ele>321.2</ele>
        <time>2019-09-04T12:07:38Z</time>
      </trkpt>
      <trkpt lat="43.2634110" lon="-6.0047680">
        <ele>321.2</ele>
        <time>2019-09-04T12:07:40Z</time>
      </trkpt>
      <trkpt lat="43.2635750" lon="-6.0047160">
        <ele>321.2</ele>
        <time>2019-09-04T12:07:42Z</time>
      </trkpt>
      <trkpt lat="43.2637290" lon="-6.0046640">
        <ele>321.2</ele>
        <time>2019-09-04T12:07:44Z</time>
      </trkpt>
      <trkpt lat="43.2638770" lon="-6.0046120">
        <ele>321.2</ele>
        <time>2019-09-04T12:07:46Z</time>
      </trkpt>
      <trkpt lat="43.2640360" lon="-6.0045570">
        <ele>321.2</ele>
        <time>2019-09-04T12:07:48Z</time>
      </trkpt>
      <trkpt lat="43.2641130" lon="-6.0045310">
        <ele>321.2</ele>
        <time>2019-09-04T12:07:49Z</time>
      </trkpt>
      <trkpt lat="43.2642710" lon="-6.0044800">
        <ele>321.2</ele>
        <time>2019-09-04T12:07:51Z</time>
      </trkpt>
      <trkpt lat="43.2643430" lon="-6.0044570">
        <ele>321.2</ele>
        <time>2019-09-04T12:07:52Z</time>
      </trkpt>
      <trkpt lat="43.2645020" lon="-6.0044080">
        <ele>319.2</ele>
        <time>2019-09-04T12:07:54Z</time>
      </trkpt>
      <trkpt lat="43.2646500" lon="-6.0043570">
        <ele>319.2</ele>
        <time>2019-09-04T12:07:56Z</time>
      </trkpt>
      <trkpt lat="43.2648140" lon="-6.0043140">
        <ele>319.2</ele>
        <time>2019-09-04T12:07:58Z</time>
      </trkpt>
      <trkpt lat="43.2648910" lon="-6.0042920">
        <ele>319.2</ele>
        <time>2019-09-04T12:07:59Z</time>
      </trkpt>
      <trkpt lat="43.2649630" lon="-6.0042720">
        <ele>319.2</ele>
        <time>2019-09-04T12:08:00Z</time>
      </trkpt>
      <trkpt lat="43.2650390" lon="-6.0042580">
        <ele>319.2</ele>
        <time>2019-09-04T12:08:01Z</time>
      </trkpt>
      <trkpt lat="43.2651980" lon="-6.0042320">
        <ele>319.2</ele>
        <time>2019-09-04T12:08:03Z</time>
      </trkpt>
      <trkpt lat="43.2653570" lon="-6.0042120">
        <ele>319.2</ele>
        <time>2019-09-04T12:08:05Z</time>
      </trkpt>
      <trkpt lat="43.2655260" lon="-6.0041960">
        <ele>319.2</ele>
        <time>2019-09-04T12:08:07Z</time>
      </trkpt>
      <trkpt lat="43.2656840" lon="-6.0041720">
        <ele>319.2</ele>
        <time>2019-09-04T12:08:09Z</time>
      </trkpt>
      <trkpt lat="43.2657720" lon="-6.0041550">
        <ele>319.2</ele>
        <time>2019-09-04T12:08:10Z</time>
      </trkpt>
      <trkpt lat="43.2658480" lon="-6.0041340">
        <ele>319.2</ele>
        <time>2019-09-04T12:08:11Z</time>
      </trkpt>
      <trkpt lat="43.2660070" lon="-6.0040830">
        <ele>319.2</ele>
        <time>2019-09-04T12:08:13Z</time>
      </trkpt>
      <trkpt lat="43.2661610" lon="-6.0040250">
        <ele>319.2</ele>
        <time>2019-09-04T12:08:15Z</time>
      </trkpt>
      <trkpt lat="43.2663140" lon="-6.0039660">
        <ele>319.2</ele>
        <time>2019-09-04T12:08:17Z</time>
      </trkpt>
      <trkpt lat="43.2664730" lon="-6.0039140">
        <ele>317.1</ele>
        <time>2019-09-04T12:08:19Z</time>
      </trkpt>
      <trkpt lat="43.2666270" lon="-6.0038570">
        <ele>317.1</ele>
        <time>2019-09-04T12:08:21Z</time>
      </trkpt>
      <trkpt lat="43.2667850" lon="-6.0037970">
        <ele>317.1</ele>
        <time>2019-09-04T12:08:23Z</time>
      </trkpt>
      <trkpt lat="43.2669290" lon="-6.0037430">
        <ele>317.1</ele>
        <time>2019-09-04T12:08:25Z</time>
      </trkpt>
      <trkpt lat="43.2670820" lon="-6.0036870">
        <ele>317.1</ele>
        <time>2019-09-04T12:08:27Z</time>
      </trkpt>
      <trkpt lat="43.2671590" lon="-6.0036580">
        <ele>317.1</ele>
        <time>2019-09-04T12:08:28Z</time>
      </trkpt>
      <trkpt lat="43.2673130" lon="-6.0036010">
        <ele>317.1</ele>
        <time>2019-09-04T12:08:30Z</time>
      </trkpt>
      <trkpt lat="43.2674660" lon="-6.0035370">
        <ele>317.1</ele>
        <time>2019-09-04T12:08:32Z</time>
      </trkpt>
      <trkpt lat="43.2676150" lon="-6.0034760">
        <ele>317.1</ele>
        <time>2019-09-04T12:08:34Z</time>
      </trkpt>
      <trkpt lat="43.2677630" lon="-6.0034040">
        <ele>317.1</ele>
        <time>2019-09-04T12:08:36Z</time>
      </trkpt>
      <trkpt lat="43.2678350" lon="-6.0033650">
        <ele>317.1</ele>
        <time>2019-09-04T12:08:37Z</time>
      </trkpt>
      <trkpt lat="43.2679120" lon="-6.0033160">
        <ele>317.1</ele>
        <time>2019-09-04T12:08:38Z</time>
      </trkpt>
      <trkpt lat="43.2680450" lon="-6.0032060">
        <ele>317.1</ele>
        <time>2019-09-04T12:08:40Z</time>
      </trkpt>
      <trkpt lat="43.2681730" lon="-6.0030710">
        <ele>317.1</ele>
        <time>2019-09-04T12:08:42Z</time>
      </trkpt>
      <trkpt lat="43.2683010" lon="-6.0029260">
        <ele>317.1</ele>
        <time>2019-09-04T12:08:44Z</time>
      </trkpt>
      <trkpt lat="43.2684240" lon="-6.0027640">
        <ele>315.1</ele>
        <time>2019-09-04T12:08:46Z</time>
      </trkpt>
      <trkpt lat="43.2685470" lon="-6.0026070">
        <ele>315.1</ele>
        <time>2019-09-04T12:08:48Z</time>
      </trkpt>
      <trkpt lat="43.2686690" lon="-6.0024480">
        <ele>315.1</ele>
        <time>2019-09-04T12:08:50Z</time>
      </trkpt>
      <trkpt lat="43.2687920" lon="-6.0023000">
        <ele>315.1</ele>
        <time>2019-09-04T12:08:52Z</time>
      </trkpt>
      <trkpt lat="43.2689150" lon="-6.0021570">
        <ele>315.1</ele>
        <time>2019-09-04T12:08:54Z</time>
      </trkpt>
      <trkpt lat="43.2690330" lon="-6.0020230">
        <ele>315.1</ele>
        <time>2019-09-04T12:08:56Z</time>
      </trkpt>
      <trkpt lat="43.2691460" lon="-6.0019530">
        <ele>315.1</ele>
        <time>2019-09-04T12:08:58Z</time>
      </trkpt>
      <trkpt lat="43.2692070" lon="-6.0019050">
        <ele>315.1</ele>
        <time>2019-09-04T12:08:59Z</time>
      </trkpt>
      <trkpt lat="43.2693250" lon="-6.0018040">
        <ele>315.1</ele>
        <time>2019-09-04T12:09:01Z</time>
      </trkpt>
      <trkpt lat="43.2693860" lon="-6.0017560">
        <ele>315.1</ele>
        <time>2019-09-04T12:09:02Z</time>
      </trkpt>
      <trkpt lat="43.2694530" lon="-6.0017030">
        <ele>315.1</ele>
        <time>2019-09-04T12:09:03Z</time>
      </trkpt>
      <trkpt lat="43.2695810" lon="-6.0016120">
        <ele>315.1</ele>
        <time>2019-09-04T12:09:05Z</time>
      </trkpt>
      <trkpt lat="43.2696470" lon="-6.0015740">
        <ele>315.1</ele>
        <time>2019-09-04T12:09:06Z</time>
      </trkpt>
      <trkpt lat="43.2697910" lon="-6.0015050">
        <ele>312.7</ele>
        <time>2019-09-04T12:09:08Z</time>
      </trkpt>
      <trkpt lat="43.2699190" lon="-6.0014410">
        <ele>312.7</ele>
        <time>2019-09-04T12:09:10Z</time>
      </trkpt>
      <trkpt lat="43.2700570" lon="-6.0013750">
        <ele>312.7</ele>
        <time>2019-09-04T12:09:12Z</time>
      </trkpt>
      <trkpt lat="43.2701950" lon="-6.0013180">
        <ele>312.7</ele>
        <time>2019-09-04T12:09:14Z</time>
      </trkpt>
      <trkpt lat="43.2703280" lon="-6.0012600">
        <ele>312.7</ele>
        <time>2019-09-04T12:09:16Z</time>
      </trkpt>
      <trkpt lat="43.2704000" lon="-6.0012290">
        <ele>312.7</ele>
        <time>2019-09-04T12:09:17Z</time>
      </trkpt>
      <trkpt lat="43.2705330" lon="-6.0011690">
        <ele>312.7</ele>
        <time>2019-09-04T12:09:19Z</time>
      </trkpt>
      <trkpt lat="43.2706660" lon="-6.0011110">
        <ele>312.7</ele>
        <time>2019-09-04T12:09:21Z</time>
      </trkpt>
      <trkpt lat="43.2708040" lon="-6.0010480">
        <ele>312.7</ele>
        <time>2019-09-04T12:09:23Z</time>
      </trkpt>
      <trkpt lat="43.2709480" lon="-6.0009810">
        <ele>312.7</ele>
        <time>2019-09-04T12:09:25Z</time>
      </trkpt>
      <trkpt lat="43.2710200" lon="-6.0009290">
        <ele>312.7</ele>
        <time>2019-09-04T12:09:26Z</time>
      </trkpt>
      <trkpt lat="43.2710960" lon="-6.0008800">
        <ele>312.7</ele>
        <time>2019-09-04T12:09:27Z</time>
      </trkpt>
      <trkpt lat="43.2712400" lon="-6.0008120">
        <ele>312.7</ele>
        <time>2019-09-04T12:09:29Z</time>
      </trkpt>
      <trkpt lat="43.2713880" lon="-6.0007530">
        <ele>312.7</ele>
        <time>2019-09-04T12:09:31Z</time>
      </trkpt>
      <trkpt lat="43.2714600" lon="-6.0007210">
        <ele>312.7</ele>
        <time>2019-09-04T12:09:32Z</time>
      </trkpt>
      <trkpt lat="43.2715930" lon="-6.0006430">
        <ele>310.7</ele>
        <time>2019-09-04T12:09:34Z</time>
      </trkpt>
      <trkpt lat="43.2716540" lon="-6.0005920">
        <ele>310.7</ele>
        <time>2019-09-04T12:09:35Z</time>
      </trkpt>
      <trkpt lat="43.2717160" lon="-6.0005380">
        <ele>310.7</ele>
        <time>2019-09-04T12:09:36Z</time>
      </trkpt>
      <trkpt lat="43.2718340" lon="-6.0004240">
        <ele>310.7</ele>
        <time>2019-09-04T12:09:38Z</time>
      </trkpt>
      <trkpt lat="43.2719460" lon="-6.0002920">
        <ele>310.7</ele>
        <time>2019-09-04T12:09:40Z</time>
      </trkpt>
      <trkpt lat="43.2719970" lon="-6.0002220">
        <ele>310.7</ele>
        <time>2019-09-04T12:09:41Z</time>
      </trkpt>
      <trkpt lat="43.2720900" lon="-6.0000610">
        <ele>310.7</ele>
        <time>2019-09-04T12:09:43Z</time>
      </trkpt>
      <trkpt lat="43.2721310" lon="-5.9999820">
        <ele>310.7</ele>
        <time>2019-09-04T12:09:44Z</time>
      </trkpt>
      <trkpt lat="43.2722020" lon="-5.9998240">
        <ele>310.7</ele>
        <time>2019-09-04T12:09:46Z</time>
      </trkpt>
      <trkpt lat="43.2722840" lon="-5.9996630">
        <ele>310.7</ele>
        <time>2019-09-04T12:09:48Z</time>
      </trkpt>
      <trkpt lat="43.2723510" lon="-5.9994940">
        <ele>310.7</ele>
        <time>2019-09-04T12:09:50Z</time>
      </trkpt>
      <trkpt lat="43.2724170" lon="-5.9993270">
        <ele>310.7</ele>
        <time>2019-09-04T12:09:52Z</time>
      </trkpt>
      <trkpt lat="43.2724480" lon="-5.9992440">
        <ele>310.7</ele>
        <time>2019-09-04T12:09:53Z</time>
      </trkpt>
      <trkpt lat="43.2725300" lon="-5.9990810">
        <ele>310.7</ele>
        <time>2019-09-04T12:09:55Z</time>
      </trkpt>
      <trkpt lat="43.2726170" lon="-5.9989250">
        <ele>308.2</ele>
        <time>2019-09-04T12:09:57Z</time>
      </trkpt>
      <trkpt lat="43.2727190" lon="-5.9987820">
        <ele>308.2</ele>
        <time>2019-09-04T12:09:59Z</time>
      </trkpt>
      <trkpt lat="43.2728420" lon="-5.9986370">
        <ele>308.2</ele>
        <time>2019-09-04T12:10:01Z</time>
      </trkpt>
      <trkpt lat="43.2729400" lon="-5.9984990">
        <ele>308.2</ele>
        <time>2019-09-04T12:10:03Z</time>
      </trkpt>
      <trkpt lat="43.2730470" lon="-5.9983630">
        <ele>308.2</ele>
        <time>2019-09-04T12:10:05Z</time>
      </trkpt>
      <trkpt lat="43.2731650" lon="-5.9982340">
        <ele>308.2</ele>
        <time>2019-09-04T12:10:07Z</time>
      </trkpt>
      <trkpt lat="43.2732720" lon="-5.9981210">
        <ele>308.2</ele>
        <time>2019-09-04T12:10:09Z</time>
      </trkpt>
      <trkpt lat="43.2733900" lon="-5.9980170">
        <ele>308.2</ele>
        <time>2019-09-04T12:10:11Z</time>
      </trkpt>
      <trkpt lat="43.2735030" lon="-5.9979230">
        <ele>308.2</ele>
        <time>2019-09-04T12:10:13Z</time>
      </trkpt>
      <trkpt lat="43.2735590" lon="-5.9978760">
        <ele>308.2</ele>
        <time>2019-09-04T12:10:14Z</time>
      </trkpt>
      <trkpt lat="43.2736770" lon="-5.9977910">
        <ele>308.2</ele>
        <time>2019-09-04T12:10:16Z</time>
      </trkpt>
      <trkpt lat="43.2737950" lon="-5.9977020">
        <ele>308.2</ele>
        <time>2019-09-04T12:10:18Z</time>
      </trkpt>
      <trkpt lat="43.2738560" lon="-5.9976580">
        <ele>308.2</ele>
        <time>2019-09-04T12:10:19Z</time>
      </trkpt>
      <trkpt lat="43.2739740" lon="-5.9975650">
        <ele>308.2</ele>
        <time>2019-09-04T12:10:21Z</time>
      </trkpt>
      <trkpt lat="43.2740300" lon="-5.9975140">
        <ele>308.2</ele>
        <time>2019-09-04T12:10:22Z</time>
      </trkpt>
      <trkpt lat="43.2740810" lon="-5.9974620">
        <ele>308.2</ele>
        <time>2019-09-04T12:10:23Z</time>
      </trkpt>
      <trkpt lat="43.2741840" lon="-5.9973480">
        <ele>308.2</ele>
        <time>2019-09-04T12:10:25Z</time>
      </trkpt>
      <trkpt lat="43.2742810" lon="-5.9972200">
        <ele>308.2</ele>
        <time>2019-09-04T12:10:27Z</time>
      </trkpt>
      <trkpt lat="43.2743580" lon="-5.9970890">
        <ele>305.4</ele>
        <time>2019-09-04T12:10:29Z</time>
      </trkpt>
      <trkpt lat="43.2743990" lon="-5.9970120">
        <ele>305.4</ele>
        <time>2019-09-04T12:10:30Z</time>
      </trkpt>
      <trkpt lat="43.2744350" lon="-5.9969340">
        <ele>305.4</ele>
        <time>2019-09-04T12:10:31Z</time>
      </trkpt>
      <trkpt lat="43.2744960" lon="-5.9967690">
        <ele>305.4</ele>
        <time>2019-09-04T12:10:33Z</time>
      </trkpt>
      <trkpt lat="43.2745420" lon="-5.9966020">
        <ele>305.4</ele>
        <time>2019-09-04T12:10:35Z</time>
      </trkpt>
      <trkpt lat="43.2745730" lon="-5.9964210">
        <ele>305.4</ele>
        <time>2019-09-04T12:10:37Z</time>
      </trkpt>
      <trkpt lat="43.2745980" lon="-5.9962370">
        <ele>305.4</ele>
        <time>2019-09-04T12:10:39Z</time>
      </trkpt>
      <trkpt lat="43.2746040" lon="-5.9960560">
        <ele>305.4</ele>
        <time>2019-09-04T12:10:41Z</time>
      </trkpt>
      <trkpt lat="43.2745980" lon="-5.9958770">
        <ele>305.4</ele>
        <time>2019-09-04T12:10:43Z</time>
      </trkpt>
      <trkpt lat="43.2745930" lon="-5.9956990">
        <ele>305.4</ele>
        <time>2019-09-04T12:10:45Z</time>
      </trkpt>
      <trkpt lat="43.2745930" lon="-5.9955210">
        <ele>305.4</ele>
        <time>2019-09-04T12:10:47Z</time>
      </trkpt>
      <trkpt lat="43.2745980" lon="-5.9953440">
        <ele>305.4</ele>
        <time>2019-09-04T12:10:49Z</time>
      </trkpt>
      <trkpt lat="43.2746090" lon="-5.9951680">
        <ele>305.4</ele>
        <time>2019-09-04T12:10:51Z</time>
      </trkpt>
      <trkpt lat="43.2746290" lon="-5.9950000">
        <ele>305.4</ele>
        <time>2019-09-04T12:10:53Z</time>
      </trkpt>
      <trkpt lat="43.2746650" lon="-5.9948260">
        <ele>305.4</ele>
        <time>2019-09-04T12:10:55Z</time>
      </trkpt>
      <trkpt lat="43.2747060" lon="-5.9946630">
        <ele>305.4</ele>
        <time>2019-09-04T12:10:57Z</time>
      </trkpt>
      <trkpt lat="43.2747570" lon="-5.9945000">
        <ele>305.4</ele>
        <time>2019-09-04T12:10:59Z</time>
      </trkpt>
      <trkpt lat="43.2747880" lon="-5.9944210">
        <ele>303.1</ele>
        <time>2019-09-04T12:11:00Z</time>
      </trkpt>
      <trkpt lat="43.2748490" lon="-5.9942660">
        <ele>303.1</ele>
        <time>2019-09-04T12:11:02Z</time>
      </trkpt>
      <trkpt lat="43.2749160" lon="-5.9941250">
        <ele>303.1</ele>
        <time>2019-09-04T12:11:04Z</time>
      </trkpt>
      <trkpt lat="43.2749930" lon="-5.9939820">
        <ele>303.1</ele>
        <time>2019-09-04T12:11:06Z</time>
      </trkpt>
      <trkpt lat="43.2750800" lon="-5.9938490">
        <ele>303.1</ele>
        <time>2019-09-04T12:11:08Z</time>
      </trkpt>
      <trkpt lat="43.2751260" lon="-5.9937910">
        <ele>303.1</ele>
        <time>2019-09-04T12:11:09Z</time>
      </trkpt>
      <trkpt lat="43.2752230" lon="-5.9936660">
        <ele>303.1</ele>
        <time>2019-09-04T12:11:11Z</time>
      </trkpt>
      <trkpt lat="43.2752740" lon="-5.9936080">
        <ele>303.1</ele>
        <time>2019-09-04T12:11:12Z</time>
      </trkpt>
      <trkpt lat="43.2753720" lon="-5.9935000">
        <ele>303.1</ele>
        <time>2019-09-04T12:11:14Z</time>
      </trkpt>
      <trkpt lat="43.2754790" lon="-5.9933910">
        <ele>303.1</ele>
        <time>2019-09-04T12:11:16Z</time>
      </trkpt>
      <trkpt lat="43.2755870" lon="-5.9932830">
        <ele>303.1</ele>
        <time>2019-09-04T12:11:18Z</time>
      </trkpt>
      <trkpt lat="43.2756940" lon="-5.9931740">
        <ele>303.1</ele>
        <time>2019-09-04T12:11:20Z</time>
      </trkpt>
      <trkpt lat="43.2757960" lon="-5.9930690">
        <ele>303.1</ele>
        <time>2019-09-04T12:11:22Z</time>
      </trkpt>
      <trkpt lat="43.2759040" lon="-5.9929670">
        <ele>303.1</ele>
        <time>2019-09-04T12:11:24Z</time>
      </trkpt>
      <trkpt lat="43.2759550" lon="-5.9929140">
        <ele>303.1</ele>
        <time>2019-09-04T12:11:25Z</time>
      </trkpt>
      <trkpt lat="43.2760120" lon="-5.9928620">
        <ele>303.1</ele>
        <time>2019-09-04T12:11:26Z</time>
      </trkpt>
      <trkpt lat="43.2761140" lon="-5.9927590">
        <ele>303.1</ele>
        <time>2019-09-04T12:11:28Z</time>
      </trkpt>
      <trkpt lat="43.2762210" lon="-5.9926560">
        <ele>303.1</ele>
        <time>2019-09-04T12:11:30Z</time>
      </trkpt>
      <trkpt lat="43.2763190" lon="-5.9925540">
        <ele>303.1</ele>
        <time>2019-09-04T12:11:32Z</time>
      </trkpt>
      <trkpt lat="43.2764210" lon="-5.9924480">
        <ele>303.1</ele>
        <time>2019-09-04T12:11:34Z</time>
      </trkpt>
      <trkpt lat="43.2765290" lon="-5.9923360">
        <ele>303.1</ele>
        <time>2019-09-04T12:11:36Z</time>
      </trkpt>
      <trkpt lat="43.2766360" lon="-5.9922170">
        <ele>303.1</ele>
        <time>2019-09-04T12:11:38Z</time>
      </trkpt>
      <trkpt lat="43.2767390" lon="-5.9920970">
        <ele>303.1</ele>
        <time>2019-09-04T12:11:40Z</time>
      </trkpt>
      <trkpt lat="43.2768510" lon="-5.9919670">
        <ele>303.1</ele>
        <time>2019-09-04T12:11:42Z</time>
      </trkpt>
      <trkpt lat="43.2769080" lon="-5.9918940">
        <ele>303.1</ele>
        <time>2019-09-04T12:11:43Z</time>
      </trkpt>
      <trkpt lat="43.2770360" lon="-5.9917440">
        <ele>303.1</ele>
        <time>2019-09-04T12:11:45Z</time>
      </trkpt>
      <trkpt lat="43.2770920" lon="-5.9916760">
        <ele>303.1</ele>
        <time>2019-09-04T12:11:46Z</time>
      </trkpt>
      <trkpt lat="43.2772040" lon="-5.9915310">
        <ele>303.1</ele>
        <time>2019-09-04T12:11:48Z</time>
      </trkpt>
      <trkpt lat="43.2772660" lon="-5.9914490">
        <ele>303.1</ele>
        <time>2019-09-04T12:11:49Z</time>
      </trkpt>
      <trkpt lat="43.2773840" lon="-5.9912870">
        <ele>303.1</ele>
        <time>2019-09-04T12:11:51Z</time>
      </trkpt>
      <trkpt lat="43.2774960" lon="-5.9911280">
        <ele>303.1</ele>
        <time>2019-09-04T12:11:53Z</time>
      </trkpt>
      <trkpt lat="43.2776090" lon="-5.9909630">
        <ele>303.1</ele>
        <time>2019-09-04T12:11:55Z</time>
      </trkpt>
      <trkpt lat="43.2777270" lon="-5.9908080">
        <ele>303.1</ele>
        <time>2019-09-04T12:11:57Z</time>
      </trkpt>
      <trkpt lat="43.2778340" lon="-5.9906640">
        <ele>303.1</ele>
        <time>2019-09-04T12:11:59Z</time>
      </trkpt>
      <trkpt lat="43.2779370" lon="-5.9905140">
        <ele>303.1</ele>
        <time>2019-09-04T12:12:01Z</time>
      </trkpt>
      <trkpt lat="43.2780490" lon="-5.9903530">
        <ele>303.1</ele>
        <time>2019-09-04T12:12:03Z</time>
      </trkpt>
      <trkpt lat="43.2781620" lon="-5.9902120">
        <ele>300.9</ele>
        <time>2019-09-04T12:12:05Z</time>
      </trkpt>
      <trkpt lat="43.2782750" lon="-5.9901090">
        <ele>300.9</ele>
        <time>2019-09-04T12:12:07Z</time>
      </trkpt>
      <trkpt lat="43.2783970" lon="-5.9900510">
        <ele>300.9</ele>
        <time>2019-09-04T12:12:09Z</time>
      </trkpt>
      <trkpt lat="43.2785310" lon="-5.9900200">
        <ele>300.9</ele>
        <time>2019-09-04T12:12:11Z</time>
      </trkpt>
      <trkpt lat="43.2785970" lon="-5.9900190">
        <ele>300.9</ele>
        <time>2019-09-04T12:12:12Z</time>
      </trkpt>
      <trkpt lat="43.2787250" lon="-5.9900340">
        <ele>300.9</ele>
        <time>2019-09-04T12:12:14Z</time>
      </trkpt>
      <trkpt lat="43.2787920" lon="-5.9900510">
        <ele>300.9</ele>
        <time>2019-09-04T12:12:15Z</time>
      </trkpt>
      <trkpt lat="43.2789250" lon="-5.9900840">
        <ele>300.9</ele>
        <time>2019-09-04T12:12:17Z</time>
      </trkpt>
      <trkpt lat="43.2790580" lon="-5.9901060">
        <ele>300.9</ele>
        <time>2019-09-04T12:12:19Z</time>
      </trkpt>
      <trkpt lat="43.2791240" lon="-5.9901100">
        <ele>300.9</ele>
        <time>2019-09-04T12:12:20Z</time>
      </trkpt>
      <trkpt lat="43.2791860" lon="-5.9901130">
        <ele>300.9</ele>
        <time>2019-09-04T12:12:21Z</time>
      </trkpt>
      <trkpt lat="43.2793240" lon="-5.9901170">
        <ele>300.9</ele>
        <time>2019-09-04T12:12:23Z</time>
      </trkpt>
      <trkpt lat="43.2793960" lon="-5.9901230">
        <ele>300.9</ele>
        <time>2019-09-04T12:12:24Z</time>
      </trkpt>
      <trkpt lat="43.2795390" lon="-5.9901470">
        <ele>300.9</ele>
        <time>2019-09-04T12:12:26Z</time>
      </trkpt>
      <trkpt lat="43.2796880" lon="-5.9902140">
        <ele>300.9</ele>
        <time>2019-09-04T12:12:28Z</time>
      </trkpt>
      <trkpt lat="43.2798310" lon="-5.9903030">
        <ele>300.9</ele>
        <time>2019-09-04T12:12:30Z</time>
      </trkpt>
      <trkpt lat="43.2799850" lon="-5.9903730">
        <ele>300.9</ele>
        <time>2019-09-04T12:12:32Z</time>
      </trkpt>
      <trkpt lat="43.2801540" lon="-5.9904090">
        <ele>300.9</ele>
        <time>2019-09-04T12:12:34Z</time>
      </trkpt>
      <trkpt lat="43.2803330" lon="-5.9903940">
        <ele>300.9</ele>
        <time>2019-09-04T12:12:36Z</time>
      </trkpt>
      <trkpt lat="43.2804200" lon="-5.9903590">
        <ele>300.9</ele>
        <time>2019-09-04T12:12:37Z</time>
      </trkpt>
      <trkpt lat="43.2805990" lon="-5.9902550">
        <ele>300.9</ele>
        <time>2019-09-04T12:12:39Z</time>
      </trkpt>
      <trkpt lat="43.2807680" lon="-5.9900990">
        <ele>300.9</ele>
        <time>2019-09-04T12:12:41Z</time>
      </trkpt>
      <trkpt lat="43.2808600" lon="-5.9900130">
        <ele>300.9</ele>
        <time>2019-09-04T12:12:42Z</time>
      </trkpt>
      <trkpt lat="43.2810340" lon="-5.9898360">
        <ele>300.9</ele>
        <time>2019-09-04T12:12:44Z</time>
      </trkpt>
      <trkpt lat="43.2812130" lon="-5.9896390">
        <ele>300.9</ele>
        <time>2019-09-04T12:12:46Z</time>
      </trkpt>
      <trkpt lat="43.2813980" lon="-5.9894260">
        <ele>300.9</ele>
        <time>2019-09-04T12:12:48Z</time>
      </trkpt>
      <trkpt lat="43.2815720" lon="-5.9892050">
        <ele>300.9</ele>
        <time>2019-09-04T12:12:50Z</time>
      </trkpt>
      <trkpt lat="43.2816640" lon="-5.9890850">
        <ele>300.9</ele>
        <time>2019-09-04T12:12:51Z</time>
      </trkpt>
      <trkpt lat="43.2817510" lon="-5.9889620">
        <ele>300.9</ele>
        <time>2019-09-04T12:12:52Z</time>
      </trkpt>
      <trkpt lat="43.2819350" lon="-5.9887210">
        <ele>300.9</ele>
        <time>2019-09-04T12:12:54Z</time>
      </trkpt>
      <trkpt lat="43.2821250" lon="-5.9884830">
        <ele>300.9</ele>
        <time>2019-09-04T12:12:56Z</time>
      </trkpt>
      <trkpt lat="43.2822320" lon="-5.9883730">
        <ele>300.9</ele>
        <time>2019-09-04T12:12:57Z</time>
      </trkpt>
      <trkpt lat="43.2824630" lon="-5.9881800">
        <ele>300.9</ele>
        <time>2019-09-04T12:12:59Z</time>
      </trkpt>
      <trkpt lat="43.2827080" lon="-5.9880230">
        <ele>300.9</ele>
        <time>2019-09-04T12:13:01Z</time>
      </trkpt>
      <trkpt lat="43.2828310" lon="-5.9879510">
        <ele>300.9</ele>
        <time>2019-09-04T12:13:02Z</time>
      </trkpt>
      <trkpt lat="43.2830670" lon="-5.9877900">
        <ele>298.8</ele>
        <time>2019-09-04T12:13:04Z</time>
      </trkpt>
      <trkpt lat="43.2832770" lon="-5.9875930">
        <ele>298.8</ele>
        <time>2019-09-04T12:13:06Z</time>
      </trkpt>
      <trkpt lat="43.2834610" lon="-5.9873750">
        <ele>298.8</ele>
        <time>2019-09-04T12:13:08Z</time>
      </trkpt>
      <trkpt lat="43.2836200" lon="-5.9871550">
        <ele>298.8</ele>
        <time>2019-09-04T12:13:10Z</time>
      </trkpt>
      <trkpt lat="43.2837580" lon="-5.9869270">
        <ele>298.8</ele>
        <time>2019-09-04T12:13:12Z</time>
      </trkpt>
      <trkpt lat="43.2839010" lon="-5.9866960">
        <ele>298.8</ele>
        <time>2019-09-04T12:13:14Z</time>
      </trkpt>
      <trkpt lat="43.2840350" lon="-5.9864770">
        <ele>298.8</ele>
        <time>2019-09-04T12:13:16Z</time>
      </trkpt>
      <trkpt lat="43.2841780" lon="-5.9862510">
        <ele>298.8</ele>
        <time>2019-09-04T12:13:18Z</time>
      </trkpt>
      <trkpt lat="43.2843160" lon="-5.9860400">
        <ele>298.8</ele>
        <time>2019-09-04T12:13:20Z</time>
      </trkpt>
      <trkpt lat="43.2844540" lon="-5.9858250">
        <ele>298.8</ele>
        <time>2019-09-04T12:13:22Z</time>
      </trkpt>
      <trkpt lat="43.2845820" lon="-5.9856060">
        <ele>298.8</ele>
        <time>2019-09-04T12:13:24Z</time>
      </trkpt>
      <trkpt lat="43.2847160" lon="-5.9853900">
        <ele>298.8</ele>
        <time>2019-09-04T12:13:26Z</time>
      </trkpt>
      <trkpt lat="43.2848440" lon="-5.9851770">
        <ele>298.8</ele>
        <time>2019-09-04T12:13:28Z</time>
      </trkpt>
      <trkpt lat="43.2849720" lon="-5.9849860">
        <ele>298.8</ele>
        <time>2019-09-04T12:13:30Z</time>
      </trkpt>
      <trkpt lat="43.2851050" lon="-5.9848010">
        <ele>296.8</ele>
        <time>2019-09-04T12:13:32Z</time>
      </trkpt>
      <trkpt lat="43.2852480" lon="-5.9846230">
        <ele>296.8</ele>
        <time>2019-09-04T12:13:34Z</time>
      </trkpt>
      <trkpt lat="43.2853860" lon="-5.9844540">
        <ele>296.8</ele>
        <time>2019-09-04T12:13:36Z</time>
      </trkpt>
      <trkpt lat="43.2855350" lon="-5.9842790">
        <ele>296.8</ele>
        <time>2019-09-04T12:13:38Z</time>
      </trkpt>
      <trkpt lat="43.2856880" lon="-5.9841170">
        <ele>296.8</ele>
        <time>2019-09-04T12:13:40Z</time>
      </trkpt>
      <trkpt lat="43.2858520" lon="-5.9839720">
        <ele>296.8</ele>
        <time>2019-09-04T12:13:42Z</time>
      </trkpt>
      <trkpt lat="43.2859390" lon="-5.9839090">
        <ele>296.8</ele>
        <time>2019-09-04T12:13:43Z</time>
      </trkpt>
      <trkpt lat="43.2860160" lon="-5.9838500">
        <ele>296.8</ele>
        <time>2019-09-04T12:13:44Z</time>
      </trkpt>
      <trkpt lat="43.2861900" lon="-5.9837400">
        <ele>296.8</ele>
        <time>2019-09-04T12:13:46Z</time>
      </trkpt>
      <trkpt lat="43.2863740" lon="-5.9836630">
        <ele>296.8</ele>
        <time>2019-09-04T12:13:48Z</time>
      </trkpt>
      <trkpt lat="43.2865590" lon="-5.9836220">
        <ele>296.8</ele>
        <time>2019-09-04T12:13:50Z</time>
      </trkpt>
      <trkpt lat="43.2867380" lon="-5.9836060">
        <ele>296.8</ele>
        <time>2019-09-04T12:13:52Z</time>
      </trkpt>
      <trkpt lat="43.2869220" lon="-5.9835980">
        <ele>296.8</ele>
        <time>2019-09-04T12:13:54Z</time>
      </trkpt>
      <trkpt lat="43.2871120" lon="-5.9835940">
        <ele>296.8</ele>
        <time>2019-09-04T12:13:56Z</time>
      </trkpt>
      <trkpt lat="43.2873010" lon="-5.9835890">
        <ele>296.8</ele>
        <time>2019-09-04T12:13:58Z</time>
      </trkpt>
      <trkpt lat="43.2874850" lon="-5.9835480">
        <ele>296.8</ele>
        <time>2019-09-04T12:14:00Z</time>
      </trkpt>
      <trkpt lat="43.2876540" lon="-5.9834800">
        <ele>294.8</ele>
        <time>2019-09-04T12:14:02Z</time>
      </trkpt>
      <trkpt lat="43.2878390" lon="-5.9834060">
        <ele>294.8</ele>
        <time>2019-09-04T12:14:04Z</time>
      </trkpt>
      <trkpt lat="43.2880080" lon="-5.9833360">
        <ele>294.8</ele>
        <time>2019-09-04T12:14:06Z</time>
      </trkpt>
      <trkpt lat="43.2881720" lon="-5.9832540">
        <ele>294.8</ele>
        <time>2019-09-04T12:14:08Z</time>
      </trkpt>
      <trkpt lat="43.2883350" lon="-5.9831670">
        <ele>294.8</ele>
        <time>2019-09-04T12:14:10Z</time>
      </trkpt>
      <trkpt lat="43.2885040" lon="-5.9830960">
        <ele>294.8</ele>
        <time>2019-09-04T12:14:12Z</time>
      </trkpt>
      <trkpt lat="43.2886780" lon="-5.9830270">
        <ele>294.8</ele>
        <time>2019-09-04T12:14:14Z</time>
      </trkpt>
      <trkpt lat="43.2888420" lon="-5.9829630">
        <ele>294.8</ele>
        <time>2019-09-04T12:14:16Z</time>
      </trkpt>
      <trkpt lat="43.2890060" lon="-5.9829200">
        <ele>294.8</ele>
        <time>2019-09-04T12:14:18Z</time>
      </trkpt>
      <trkpt lat="43.2890830" lon="-5.9829010">
        <ele>294.8</ele>
        <time>2019-09-04T12:14:19Z</time>
      </trkpt>
      <trkpt lat="43.2892520" lon="-5.9828570">
        <ele>294.8</ele>
        <time>2019-09-04T12:14:21Z</time>
      </trkpt>
      <trkpt lat="43.2894160" lon="-5.9828030">
        <ele>294.8</ele>
        <time>2019-09-04T12:14:23Z</time>
      </trkpt>
      <trkpt lat="43.2894920" lon="-5.9827720">
        <ele>294.8</ele>
        <time>2019-09-04T12:14:24Z</time>
      </trkpt>
      <trkpt lat="43.2896560" lon="-5.9827050">
        <ele>294.8</ele>
        <time>2019-09-04T12:14:26Z</time>
      </trkpt>
      <trkpt lat="43.2898200" lon="-5.9826410">
        <ele>294.8</ele>
        <time>2019-09-04T12:14:28Z</time>
      </trkpt>
      <trkpt lat="43.2899790" lon="-5.9825740">
        <ele>294.8</ele>
        <time>2019-09-04T12:14:30Z</time>
      </trkpt>
      <trkpt lat="43.2901320" lon="-5.9825110">
        <ele>294.8</ele>
        <time>2019-09-04T12:14:32Z</time>
      </trkpt>
      <trkpt lat="43.2902810" lon="-5.9824450">
        <ele>294.8</ele>
        <time>2019-09-04T12:14:34Z</time>
      </trkpt>
      <trkpt lat="43.2903580" lon="-5.9824140">
        <ele>292.8</ele>
        <time>2019-09-04T12:14:35Z</time>
      </trkpt>
      <trkpt lat="43.2904290" lon="-5.9823830">
        <ele>292.8</ele>
        <time>2019-09-04T12:14:36Z</time>
      </trkpt>
      <trkpt lat="43.2905060" lon="-5.9823530">
        <ele>292.8</ele>
        <time>2019-09-04T12:14:37Z</time>
      </trkpt>
      <trkpt lat="43.2905780" lon="-5.9823260">
        <ele>292.8</ele>
        <time>2019-09-04T12:14:38Z</time>
      </trkpt>
      <trkpt lat="43.2906500" lon="-5.9823040">
        <ele>292.8</ele>
        <time>2019-09-04T12:14:39Z</time>
      </trkpt>
      <trkpt lat="43.2907160" lon="-5.9822740">
        <ele>292.8</ele>
        <time>2019-09-04T12:14:40Z</time>
      </trkpt>
      <trkpt lat="43.2907930" lon="-5.9822400">
        <ele>292.8</ele>
        <time>2019-09-04T12:14:41Z</time>
      </trkpt>
      <trkpt lat="43.2908600" lon="-5.9822110">
        <ele>292.8</ele>
        <time>2019-09-04T12:14:42Z</time>
      </trkpt>
      <trkpt lat="43.2909260" lon="-5.9821780">
        <ele>292.8</ele>
        <time>2019-09-04T12:14:43Z</time>
      </trkpt>
      <trkpt lat="43.2909980" lon="-5.9821440">
        <ele>292.8</ele>
        <time>2019-09-04T12:14:44Z</time>
      </trkpt>
      <trkpt lat="43.2910590" lon="-5.9821160">
        <ele>292.8</ele>
        <time>2019-09-04T12:14:45Z</time>
      </trkpt>
      <trkpt lat="43.2911310" lon="-5.9820880">
        <ele>292.8</ele>
        <time>2019-09-04T12:14:46Z</time>
      </trkpt>
      <trkpt lat="43.2911970" lon="-5.9820630">
        <ele>292.8</ele>
        <time>2019-09-04T12:14:47Z</time>
      </trkpt>
      <trkpt lat="43.2912690" lon="-5.9820360">
        <ele>292.8</ele>
        <time>2019-09-04T12:14:48Z</time>
      </trkpt>
      <trkpt lat="43.2913310" lon="-5.9820090">
        <ele>292.8</ele>
        <time>2019-09-04T12:14:49Z</time>
      </trkpt>
      <trkpt lat="43.2913970" lon="-5.9819810">
        <ele>292.8</ele>
        <time>2019-09-04T12:14:50Z</time>
      </trkpt>
      <trkpt lat="43.2914640" lon="-5.9819560">
        <ele>292.8</ele>
        <time>2019-09-04T12:14:51Z</time>
      </trkpt>
      <trkpt lat="43.2915250" lon="-5.9819320">
        <ele>292.8</ele>
        <time>2019-09-04T12:14:52Z</time>
      </trkpt>
      <trkpt lat="43.2915870" lon="-5.9819100">
        <ele>292.8</ele>
        <time>2019-09-04T12:14:53Z</time>
      </trkpt>
      <trkpt lat="43.2916430" lon="-5.9818910">
        <ele>292.8</ele>
        <time>2019-09-04T12:14:54Z</time>
      </trkpt>
      <trkpt lat="43.2917040" lon="-5.9818730">
        <ele>292.8</ele>
        <time>2019-09-04T12:14:55Z</time>
      </trkpt>
      <trkpt lat="43.2917610" lon="-5.9818510">
        <ele>292.8</ele>
        <time>2019-09-04T12:14:56Z</time>
      </trkpt>
      <trkpt lat="43.2918170" lon="-5.9818250">
        <ele>292.8</ele>
        <time>2019-09-04T12:14:57Z</time>
      </trkpt>
      <trkpt lat="43.2918730" lon="-5.9817910">
        <ele>292.8</ele>
        <time>2019-09-04T12:14:58Z</time>
      </trkpt>
      <trkpt lat="43.2919240" lon="-5.9817500">
        <ele>292.8</ele>
        <time>2019-09-04T12:14:59Z</time>
      </trkpt>
      <trkpt lat="43.2919710" lon="-5.9817090">
        <ele>292.8</ele>
        <time>2019-09-04T12:15:00Z</time>
      </trkpt>
      <trkpt lat="43.2920170" lon="-5.9816640">
        <ele>292.8</ele>
        <time>2019-09-04T12:15:01Z</time>
      </trkpt>
      <trkpt lat="43.2920630" lon="-5.9816160">
        <ele>290.8</ele>
        <time>2019-09-04T12:15:02Z</time>
      </trkpt>
      <trkpt lat="43.2921090" lon="-5.9815680">
        <ele>290.8</ele>
        <time>2019-09-04T12:15:03Z</time>
      </trkpt>
      <trkpt lat="43.2921550" lon="-5.9815210">
        <ele>290.8</ele>
        <time>2019-09-04T12:15:04Z</time>
      </trkpt>
      <trkpt lat="43.2922110" lon="-5.9814780">
        <ele>290.8</ele>
        <time>2019-09-04T12:15:05Z</time>
      </trkpt>
      <trkpt lat="43.2922570" lon="-5.9814410">
        <ele>290.8</ele>
        <time>2019-09-04T12:15:06Z</time>
      </trkpt>
      <trkpt lat="43.2923140" lon="-5.9814150">
        <ele>290.8</ele>
        <time>2019-09-04T12:15:07Z</time>
      </trkpt>
      <trkpt lat="43.2923700" lon="-5.9813970">
        <ele>290.8</ele>
        <time>2019-09-04T12:15:08Z</time>
      </trkpt>
      <trkpt lat="43.2924260" lon="-5.9813890">
        <ele>290.8</ele>
        <time>2019-09-04T12:15:09Z</time>
      </trkpt>
      <trkpt lat="43.2924830" lon="-5.9813900">
        <ele>290.8</ele>
        <time>2019-09-04T12:15:10Z</time>
      </trkpt>
      <trkpt lat="43.2925440" lon="-5.9813980">
        <ele>290.8</ele>
        <time>2019-09-04T12:15:11Z</time>
      </trkpt>
      <trkpt lat="43.2926000" lon="-5.9814130">
        <ele>290.8</ele>
        <time>2019-09-04T12:15:12Z</time>
      </trkpt>
      <trkpt lat="43.2926570" lon="-5.9814340">
        <ele>290.8</ele>
        <time>2019-09-04T12:15:13Z</time>
      </trkpt>
      <trkpt lat="43.2927080" lon="-5.9814580">
        <ele>290.8</ele>
        <time>2019-09-04T12:15:14Z</time>
      </trkpt>
      <trkpt lat="43.2927490" lon="-5.9814840">
        <ele>290.8</ele>
        <time>2019-09-04T12:15:15Z</time>
      </trkpt>
      <trkpt lat="43.2928100" lon="-5.9815480">
        <ele>290.8</ele>
        <time>2019-09-04T12:15:17Z</time>
      </trkpt>
      <trkpt lat="43.2928310" lon="-5.9816040">
        <ele>290.8</ele>
        <time>2019-09-04T12:15:19Z</time>
      </trkpt>
      <trkpt lat="43.2928200" lon="-5.9816700">
        <ele>290.8</ele>
        <time>2019-09-04T12:15:22Z</time>
      </trkpt>
      <trkpt lat="43.2927540" lon="-5.9817360">
        <ele>290.8</ele>
        <time>2019-09-04T12:15:25Z</time>
      </trkpt>
      <trkpt lat="43.2926770" lon="-5.9817730">
        <ele>290.8</ele>
        <time>2019-09-04T12:15:27Z</time>
      </trkpt>
      <trkpt lat="43.2925850" lon="-5.9818140">
        <ele>288.7</ele>
        <time>2019-09-04T12:15:29Z</time>
      </trkpt>
      <trkpt lat="43.2924830" lon="-5.9818690">
        <ele>288.7</ele>
        <time>2019-09-04T12:15:31Z</time>
      </trkpt>
      <trkpt lat="43.2924310" lon="-5.9818960">
        <ele>288.7</ele>
        <time>2019-09-04T12:15:32Z</time>
      </trkpt>
      <trkpt lat="43.2923800" lon="-5.9819290">
        <ele>288.7</ele>
        <time>2019-09-04T12:15:33Z</time>
      </trkpt>
      <trkpt lat="43.2923290" lon="-5.9819620">
        <ele>288.7</ele>
        <time>2019-09-04T12:15:34Z</time>
      </trkpt>
      <trkpt lat="43.2922730" lon="-5.9819970">
        <ele>288.7</ele>
        <time>2019-09-04T12:15:35Z</time>
      </trkpt>
      <trkpt lat="43.2922270" lon="-5.9820290">
        <ele>288.7</ele>
        <time>2019-09-04T12:15:36Z</time>
      </trkpt>
      <trkpt lat="43.2921750" lon="-5.9820640">
        <ele>288.7</ele>
        <time>2019-09-04T12:15:37Z</time>
      </trkpt>
      <trkpt lat="43.2921240" lon="-5.9821000">
        <ele>288.7</ele>
        <time>2019-09-04T12:15:38Z</time>
      </trkpt>
      <trkpt lat="43.2920730" lon="-5.9821330">
        <ele>288.7</ele>
        <time>2019-09-04T12:15:39Z</time>
      </trkpt>
      <trkpt lat="43.2920270" lon="-5.9821650">
        <ele>288.7</ele>
        <time>2019-09-04T12:15:40Z</time>
      </trkpt>
      <trkpt lat="43.2919810" lon="-5.9821950">
        <ele>288.7</ele>
        <time>2019-09-04T12:15:41Z</time>
      </trkpt>
      <trkpt lat="43.2919350" lon="-5.9822260">
        <ele>288.7</ele>
        <time>2019-09-04T12:15:42Z</time>
      </trkpt>
      <trkpt lat="43.2918430" lon="-5.9822870">
        <ele>288.7</ele>
        <time>2019-09-04T12:15:44Z</time>
      </trkpt>
      <trkpt lat="43.2918020" lon="-5.9823200">
        <ele>288.7</ele>
        <time>2019-09-04T12:15:45Z</time>
      </trkpt>
      <trkpt lat="43.2917350" lon="-5.9824010">
        <ele>288.7</ele>
        <time>2019-09-04T12:15:47Z</time>
      </trkpt>
      <trkpt lat="43.2917040" lon="-5.9825000">
        <ele>286.7</ele>
        <time>2019-09-04T12:15:49Z</time>
      </trkpt>
      <trkpt lat="43.2916890" lon="-5.9826080">
        <ele>286.7</ele>
        <time>2019-09-04T12:15:51Z</time>
      </trkpt>
      <trkpt lat="43.2916740" lon="-5.9827220">
        <ele>286.7</ele>
        <time>2019-09-04T12:15:53Z</time>
      </trkpt>
      <trkpt lat="43.2916530" lon="-5.9828060">
        <ele>286.7</ele>
        <time>2019-09-04T12:15:55Z</time>
      </trkpt>
      <trkpt lat="43.2916330" lon="-5.9828620">
        <ele>286.7</ele>
        <time>2019-09-04T12:15:57Z</time>
      </trkpt>
    </trkseg>
  </trk>
</gpx>
